<?xml version="1.0" encoding="UTF-8" standalone="no" ?>
<gpx xmlns="http://www.topografix.com/GPX/1/1" xmlns:xsi="http://www.w3.org/2001/XMLSchema-instance" xsi:schemaLocation="http://www.topografix.com/GPX/1/1 http://www.topografix.com/GPX/1/1/gpx.xsd" version="1.1" creator="VisuGPX - https://www.visugpx.com">
  <metadata>
    <name>Marlenheim</name>
  </metadata>
  <trk>
    <name><![CDATA[Trip 2020-09-20]]></name>
    <trkseg>
      <trkpt lat="48.58659" lon="7.64879">
        <ele>135.50576782</ele>
        <time>2020-09-20T08:31:16Z</time>
      </trkpt>
      <trkpt lat="48.58662" lon="7.64885">
        <ele>135.28024292</ele>
        <time>2020-09-20T08:31:21Z</time>
      </trkpt>
      <trkpt lat="48.58669" lon="7.64877">
        <ele>134.41040039</ele>
        <time>2020-09-20T08:31:22Z</time>
      </trkpt>
      <trkpt lat="48.58677" lon="7.64872">
        <ele>134.41040039</ele>
        <time>2020-09-20T08:31:23Z</time>
      </trkpt>
      <trkpt lat="48.58691" lon="7.64867">
        <ele>134.41040039</ele>
        <time>2020-09-20T08:31:26Z</time>
      </trkpt>
      <trkpt lat="48.58703" lon="7.64864">
        <ele>134.41040039</ele>
        <time>2020-09-20T08:31:29Z</time>
      </trkpt>
      <trkpt lat="48.58716" lon="7.64854">
        <ele>134.41040039</ele>
        <time>2020-09-20T08:31:32Z</time>
      </trkpt>
      <trkpt lat="48.58728" lon="7.64849">
        <ele>134.41040039</ele>
        <time>2020-09-20T08:31:36Z</time>
      </trkpt>
      <trkpt lat="48.58741" lon="7.64849">
        <ele>134.41040039</ele>
        <time>2020-09-20T08:31:37Z</time>
      </trkpt>
      <trkpt lat="48.58751" lon="7.64846">
        <ele>134.48173523</ele>
        <time>2020-09-20T08:31:39Z</time>
      </trkpt>
      <trkpt lat="48.58764" lon="7.6484">
        <ele>134.48173523</ele>
        <time>2020-09-20T08:31:41Z</time>
      </trkpt>
      <trkpt lat="48.58772" lon="7.64833">
        <ele>134.48173523</ele>
        <time>2020-09-20T08:31:44Z</time>
      </trkpt>
      <trkpt lat="48.5878" lon="7.64824">
        <ele>136.0242157</ele>
        <time>2020-09-20T08:31:48Z</time>
      </trkpt>
      <trkpt lat="48.58785" lon="7.64813">
        <ele>136.0242157</ele>
        <time>2020-09-20T08:31:51Z</time>
      </trkpt>
      <trkpt lat="48.58794" lon="7.64804">
        <ele>136.0242157</ele>
        <time>2020-09-20T08:31:54Z</time>
      </trkpt>
      <trkpt lat="48.58801" lon="7.64795">
        <ele>136.0242157</ele>
        <time>2020-09-20T08:31:57Z</time>
      </trkpt>
      <trkpt lat="48.58812" lon="7.64786">
        <ele>136.0242157</ele>
        <time>2020-09-20T08:32:00Z</time>
      </trkpt>
      <trkpt lat="48.5882" lon="7.64779">
        <ele>136.0242157</ele>
        <time>2020-09-20T08:32:01Z</time>
      </trkpt>
      <trkpt lat="48.58829" lon="7.64773">
        <ele>136.0242157</ele>
        <time>2020-09-20T08:32:03Z</time>
      </trkpt>
      <trkpt lat="48.58838" lon="7.64767">
        <ele>136.0242157</ele>
        <time>2020-09-20T08:32:05Z</time>
      </trkpt>
      <trkpt lat="48.58847" lon="7.64761">
        <ele>136.0242157</ele>
        <time>2020-09-20T08:32:07Z</time>
      </trkpt>
      <trkpt lat="48.58857" lon="7.64753">
        <ele>136.0242157</ele>
        <time>2020-09-20T08:32:09Z</time>
      </trkpt>
      <trkpt lat="48.58866" lon="7.64745">
        <ele>136.0242157</ele>
        <time>2020-09-20T08:32:11Z</time>
      </trkpt>
      <trkpt lat="48.58875" lon="7.64741">
        <ele>136.0242157</ele>
        <time>2020-09-20T08:32:13Z</time>
      </trkpt>
      <trkpt lat="48.58885" lon="7.64735">
        <ele>136.0242157</ele>
        <time>2020-09-20T08:32:16Z</time>
      </trkpt>
      <trkpt lat="48.58894" lon="7.6473">
        <ele>136.0242157</ele>
        <time>2020-09-20T08:32:18Z</time>
      </trkpt>
      <trkpt lat="48.58905" lon="7.64726">
        <ele>136.0242157</ele>
        <time>2020-09-20T08:32:19Z</time>
      </trkpt>
      <trkpt lat="48.58914" lon="7.64724">
        <ele>136.86138916</ele>
        <time>2020-09-20T08:32:21Z</time>
      </trkpt>
      <trkpt lat="48.58923" lon="7.64721">
        <ele>136.86138916</ele>
        <time>2020-09-20T08:32:22Z</time>
      </trkpt>
      <trkpt lat="48.58935" lon="7.64717">
        <ele>136.86138916</ele>
        <time>2020-09-20T08:32:24Z</time>
      </trkpt>
      <trkpt lat="48.58944" lon="7.64711">
        <ele>136.86138916</ele>
        <time>2020-09-20T08:32:26Z</time>
      </trkpt>
      <trkpt lat="48.58953" lon="7.64707">
        <ele>136.86138916</ele>
        <time>2020-09-20T08:32:28Z</time>
      </trkpt>
      <trkpt lat="48.58963" lon="7.64702">
        <ele>136.86138916</ele>
        <time>2020-09-20T08:32:31Z</time>
      </trkpt>
      <trkpt lat="48.58974" lon="7.64695">
        <ele>136.86138916</ele>
        <time>2020-09-20T08:32:33Z</time>
      </trkpt>
      <trkpt lat="48.58985" lon="7.64692">
        <ele>136.86138916</ele>
        <time>2020-09-20T08:32:34Z</time>
      </trkpt>
      <trkpt lat="48.58996" lon="7.64688">
        <ele>136.86138916</ele>
        <time>2020-09-20T08:32:36Z</time>
      </trkpt>
      <trkpt lat="48.59006" lon="7.64684">
        <ele>136.86138916</ele>
        <time>2020-09-20T08:32:38Z</time>
      </trkpt>
      <trkpt lat="48.59016" lon="7.6468">
        <ele>136.86138916</ele>
        <time>2020-09-20T08:32:40Z</time>
      </trkpt>
      <trkpt lat="48.59027" lon="7.64676">
        <ele>136.86138916</ele>
        <time>2020-09-20T08:32:42Z</time>
      </trkpt>
      <trkpt lat="48.59039" lon="7.64674">
        <ele>136.86138916</ele>
        <time>2020-09-20T08:32:44Z</time>
      </trkpt>
      <trkpt lat="48.59049" lon="7.64671">
        <ele>136.86138916</ele>
        <time>2020-09-20T08:32:46Z</time>
      </trkpt>
      <trkpt lat="48.59059" lon="7.64668">
        <ele>136.9728241</ele>
        <time>2020-09-20T08:32:48Z</time>
      </trkpt>
      <trkpt lat="48.59069" lon="7.64665">
        <ele>136.9728241</ele>
        <time>2020-09-20T08:32:51Z</time>
      </trkpt>
      <trkpt lat="48.5908" lon="7.64665">
        <ele>136.9728241</ele>
        <time>2020-09-20T08:32:52Z</time>
      </trkpt>
      <trkpt lat="48.59091" lon="7.64664">
        <ele>136.9728241</ele>
        <time>2020-09-20T08:32:54Z</time>
      </trkpt>
      <trkpt lat="48.59102" lon="7.64662">
        <ele>136.9728241</ele>
        <time>2020-09-20T08:32:56Z</time>
      </trkpt>
      <trkpt lat="48.59113" lon="7.64659">
        <ele>136.9728241</ele>
        <time>2020-09-20T08:32:59Z</time>
      </trkpt>
      <trkpt lat="48.59123" lon="7.64656">
        <ele>136.9728241</ele>
        <time>2020-09-20T08:33:01Z</time>
      </trkpt>
      <trkpt lat="48.59133" lon="7.64653">
        <ele>136.9728241</ele>
        <time>2020-09-20T08:33:02Z</time>
      </trkpt>
      <trkpt lat="48.59142" lon="7.6465">
        <ele>136.9728241</ele>
        <time>2020-09-20T08:33:04Z</time>
      </trkpt>
      <trkpt lat="48.59152" lon="7.64647">
        <ele>136.9728241</ele>
        <time>2020-09-20T08:33:06Z</time>
      </trkpt>
      <trkpt lat="48.59161" lon="7.64651">
        <ele>136.9728241</ele>
        <time>2020-09-20T08:33:10Z</time>
      </trkpt>
      <trkpt lat="48.59169" lon="7.64667">
        <ele>136.9728241</ele>
        <time>2020-09-20T08:33:11Z</time>
      </trkpt>
      <trkpt lat="48.59179" lon="7.64678">
        <ele>136.9728241</ele>
        <time>2020-09-20T08:33:13Z</time>
      </trkpt>
      <trkpt lat="48.59189" lon="7.64689">
        <ele>137.83483887</ele>
        <time>2020-09-20T08:33:15Z</time>
      </trkpt>
      <trkpt lat="48.59197" lon="7.64703">
        <ele>137.83483887</ele>
        <time>2020-09-20T08:33:17Z</time>
      </trkpt>
      <trkpt lat="48.59201" lon="7.64721">
        <ele>137.83483887</ele>
        <time>2020-09-20T08:33:19Z</time>
      </trkpt>
      <trkpt lat="48.59205" lon="7.64734">
        <ele>136.3853302</ele>
        <time>2020-09-20T08:33:21Z</time>
      </trkpt>
      <trkpt lat="48.59207" lon="7.64746">
        <ele>136.3853302</ele>
        <time>2020-09-20T08:33:22Z</time>
      </trkpt>
      <trkpt lat="48.59211" lon="7.64761">
        <ele>136.3853302</ele>
        <time>2020-09-20T08:33:24Z</time>
      </trkpt>
      <trkpt lat="48.59214" lon="7.64775">
        <ele>136.3853302</ele>
        <time>2020-09-20T08:33:26Z</time>
      </trkpt>
      <trkpt lat="48.59218" lon="7.6479">
        <ele>136.3853302</ele>
        <time>2020-09-20T08:33:28Z</time>
      </trkpt>
      <trkpt lat="48.59221" lon="7.64806">
        <ele>136.3853302</ele>
        <time>2020-09-20T08:33:30Z</time>
      </trkpt>
      <trkpt lat="48.59224" lon="7.64822">
        <ele>136.3853302</ele>
        <time>2020-09-20T08:33:32Z</time>
      </trkpt>
      <trkpt lat="48.59229" lon="7.64838">
        <ele>136.3853302</ele>
        <time>2020-09-20T08:33:34Z</time>
      </trkpt>
      <trkpt lat="48.59232" lon="7.64854">
        <ele>136.3853302</ele>
        <time>2020-09-20T08:33:36Z</time>
      </trkpt>
      <trkpt lat="48.59235" lon="7.64872">
        <ele>136.3853302</ele>
        <time>2020-09-20T08:33:38Z</time>
      </trkpt>
      <trkpt lat="48.5924" lon="7.64888">
        <ele>136.3853302</ele>
        <time>2020-09-20T08:33:40Z</time>
      </trkpt>
      <trkpt lat="48.59244" lon="7.64904">
        <ele>136.3853302</ele>
        <time>2020-09-20T08:33:42Z</time>
      </trkpt>
      <trkpt lat="48.59248" lon="7.6492">
        <ele>136.3853302</ele>
        <time>2020-09-20T08:33:44Z</time>
      </trkpt>
      <trkpt lat="48.59251" lon="7.64936">
        <ele>136.3853302</ele>
        <time>2020-09-20T08:33:46Z</time>
      </trkpt>
      <trkpt lat="48.59256" lon="7.64951">
        <ele>136.3853302</ele>
        <time>2020-09-20T08:33:48Z</time>
      </trkpt>
      <trkpt lat="48.59259" lon="7.64967">
        <ele>136.3853302</ele>
        <time>2020-09-20T08:33:50Z</time>
      </trkpt>
      <trkpt lat="48.59261" lon="7.64981">
        <ele>136.3853302</ele>
        <time>2020-09-20T08:33:52Z</time>
      </trkpt>
      <trkpt lat="48.59263" lon="7.64995">
        <ele>136.4624176</ele>
        <time>2020-09-20T08:33:54Z</time>
      </trkpt>
      <trkpt lat="48.59266" lon="7.65009">
        <ele>136.4624176</ele>
        <time>2020-09-20T08:33:57Z</time>
      </trkpt>
      <trkpt lat="48.5927" lon="7.65026">
        <ele>136.4624176</ele>
        <time>2020-09-20T08:33:58Z</time>
      </trkpt>
      <trkpt lat="48.59274" lon="7.65043">
        <ele>136.4624176</ele>
        <time>2020-09-20T08:34:00Z</time>
      </trkpt>
      <trkpt lat="48.59278" lon="7.6506">
        <ele>136.4624176</ele>
        <time>2020-09-20T08:34:02Z</time>
      </trkpt>
      <trkpt lat="48.59282" lon="7.65077">
        <ele>136.79420471</ele>
        <time>2020-09-20T08:34:04Z</time>
      </trkpt>
      <trkpt lat="48.59285" lon="7.65092">
        <ele>136.79420471</ele>
        <time>2020-09-20T08:34:06Z</time>
      </trkpt>
      <trkpt lat="48.5929" lon="7.65109">
        <ele>136.79420471</ele>
        <time>2020-09-20T08:34:08Z</time>
      </trkpt>
      <trkpt lat="48.59293" lon="7.65126">
        <ele>136.79420471</ele>
        <time>2020-09-20T08:34:10Z</time>
      </trkpt>
      <trkpt lat="48.59296" lon="7.65143">
        <ele>136.79420471</ele>
        <time>2020-09-20T08:34:12Z</time>
      </trkpt>
      <trkpt lat="48.59299" lon="7.65159">
        <ele>136.79420471</ele>
        <time>2020-09-20T08:34:14Z</time>
      </trkpt>
      <trkpt lat="48.593" lon="7.65176">
        <ele>136.79420471</ele>
        <time>2020-09-20T08:34:16Z</time>
      </trkpt>
      <trkpt lat="48.59303" lon="7.65193">
        <ele>136.79420471</ele>
        <time>2020-09-20T08:34:18Z</time>
      </trkpt>
      <trkpt lat="48.59306" lon="7.65213">
        <ele>136.1918335</ele>
        <time>2020-09-20T08:34:21Z</time>
      </trkpt>
      <trkpt lat="48.59308" lon="7.65225">
        <ele>136.1918335</ele>
        <time>2020-09-20T08:34:22Z</time>
      </trkpt>
      <trkpt lat="48.59311" lon="7.65242">
        <ele>136.1918335</ele>
        <time>2020-09-20T08:34:24Z</time>
      </trkpt>
      <trkpt lat="48.59314" lon="7.65259">
        <ele>136.1918335</ele>
        <time>2020-09-20T08:34:26Z</time>
      </trkpt>
      <trkpt lat="48.59318" lon="7.65276">
        <ele>136.1918335</ele>
        <time>2020-09-20T08:34:28Z</time>
      </trkpt>
      <trkpt lat="48.59319" lon="7.65293">
        <ele>136.1918335</ele>
        <time>2020-09-20T08:34:31Z</time>
      </trkpt>
      <trkpt lat="48.59321" lon="7.65309">
        <ele>135.78930664</ele>
        <time>2020-09-20T08:34:32Z</time>
      </trkpt>
      <trkpt lat="48.59324" lon="7.65326">
        <ele>135.78930664</ele>
        <time>2020-09-20T08:34:34Z</time>
      </trkpt>
      <trkpt lat="48.59325" lon="7.65343">
        <ele>135.78930664</ele>
        <time>2020-09-20T08:34:36Z</time>
      </trkpt>
      <trkpt lat="48.59327" lon="7.6536">
        <ele>135.78930664</ele>
        <time>2020-09-20T08:34:39Z</time>
      </trkpt>
      <trkpt lat="48.59329" lon="7.65376">
        <ele>135.78930664</ele>
        <time>2020-09-20T08:34:41Z</time>
      </trkpt>
      <trkpt lat="48.59332" lon="7.65392">
        <ele>135.78930664</ele>
        <time>2020-09-20T08:34:42Z</time>
      </trkpt>
      <trkpt lat="48.59335" lon="7.65409">
        <ele>135.78930664</ele>
        <time>2020-09-20T08:34:44Z</time>
      </trkpt>
      <trkpt lat="48.59337" lon="7.65427">
        <ele>134.82832336</ele>
        <time>2020-09-20T08:34:46Z</time>
      </trkpt>
      <trkpt lat="48.5934" lon="7.65446">
        <ele>134.82832336</ele>
        <time>2020-09-20T08:34:48Z</time>
      </trkpt>
      <trkpt lat="48.59343" lon="7.65463">
        <ele>134.82832336</ele>
        <time>2020-09-20T08:34:50Z</time>
      </trkpt>
      <trkpt lat="48.59346" lon="7.65481">
        <ele>134.82832336</ele>
        <time>2020-09-20T08:34:52Z</time>
      </trkpt>
      <trkpt lat="48.59348" lon="7.65498">
        <ele>134.82832336</ele>
        <time>2020-09-20T08:34:54Z</time>
      </trkpt>
      <trkpt lat="48.59351" lon="7.65515">
        <ele>134.82832336</ele>
        <time>2020-09-20T08:34:56Z</time>
      </trkpt>
      <trkpt lat="48.59354" lon="7.65532">
        <ele>134.82832336</ele>
        <time>2020-09-20T08:34:58Z</time>
      </trkpt>
      <trkpt lat="48.59358" lon="7.65548">
        <ele>134.82832336</ele>
        <time>2020-09-20T08:35:01Z</time>
      </trkpt>
      <trkpt lat="48.59361" lon="7.65564">
        <ele>134.82832336</ele>
        <time>2020-09-20T08:35:02Z</time>
      </trkpt>
      <trkpt lat="48.59365" lon="7.65578">
        <ele>134.82832336</ele>
        <time>2020-09-20T08:35:04Z</time>
      </trkpt>
      <trkpt lat="48.59368" lon="7.65594">
        <ele>134.82832336</ele>
        <time>2020-09-20T08:35:06Z</time>
      </trkpt>
      <trkpt lat="48.5937" lon="7.65609">
        <ele>134.82832336</ele>
        <time>2020-09-20T08:35:09Z</time>
      </trkpt>
      <trkpt lat="48.59373" lon="7.65626">
        <ele>134.82832336</ele>
        <time>2020-09-20T08:35:10Z</time>
      </trkpt>
      <trkpt lat="48.59374" lon="7.65643">
        <ele>134.82832336</ele>
        <time>2020-09-20T08:35:12Z</time>
      </trkpt>
      <trkpt lat="48.59376" lon="7.65662">
        <ele>134.82832336</ele>
        <time>2020-09-20T08:35:14Z</time>
      </trkpt>
      <trkpt lat="48.59379" lon="7.65679">
        <ele>134.82832336</ele>
        <time>2020-09-20T08:35:16Z</time>
      </trkpt>
      <trkpt lat="48.59382" lon="7.65695">
        <ele>134.82832336</ele>
        <time>2020-09-20T08:35:18Z</time>
      </trkpt>
      <trkpt lat="48.59384" lon="7.65714">
        <ele>134.18971252</ele>
        <time>2020-09-20T08:35:21Z</time>
      </trkpt>
      <trkpt lat="48.59386" lon="7.65725">
        <ele>134.18971252</ele>
        <time>2020-09-20T08:35:22Z</time>
      </trkpt>
      <trkpt lat="48.59388" lon="7.65738">
        <ele>134.18971252</ele>
        <time>2020-09-20T08:35:24Z</time>
      </trkpt>
      <trkpt lat="48.59391" lon="7.65754">
        <ele>134.18971252</ele>
        <time>2020-09-20T08:35:27Z</time>
      </trkpt>
      <trkpt lat="48.59394" lon="7.65771">
        <ele>134.18971252</ele>
        <time>2020-09-20T08:35:31Z</time>
      </trkpt>
      <trkpt lat="48.59396" lon="7.65788">
        <ele>134.18971252</ele>
        <time>2020-09-20T08:35:32Z</time>
      </trkpt>
      <trkpt lat="48.59399" lon="7.65803">
        <ele>134.18971252</ele>
        <time>2020-09-20T08:35:34Z</time>
      </trkpt>
      <trkpt lat="48.594" lon="7.6582">
        <ele>134.18971252</ele>
        <time>2020-09-20T08:35:36Z</time>
      </trkpt>
      <trkpt lat="48.59403" lon="7.65837">
        <ele>134.18971252</ele>
        <time>2020-09-20T08:35:38Z</time>
      </trkpt>
      <trkpt lat="48.59405" lon="7.65854">
        <ele>134.18971252</ele>
        <time>2020-09-20T08:35:40Z</time>
      </trkpt>
      <trkpt lat="48.59407" lon="7.65871">
        <ele>134.18971252</ele>
        <time>2020-09-20T08:35:42Z</time>
      </trkpt>
      <trkpt lat="48.5941" lon="7.65888">
        <ele>134.18971252</ele>
        <time>2020-09-20T08:35:44Z</time>
      </trkpt>
      <trkpt lat="48.59412" lon="7.65905">
        <ele>134.18971252</ele>
        <time>2020-09-20T08:35:46Z</time>
      </trkpt>
      <trkpt lat="48.59414" lon="7.65923">
        <ele>134.18971252</ele>
        <time>2020-09-20T08:35:48Z</time>
      </trkpt>
      <trkpt lat="48.59415" lon="7.65939">
        <ele>134.18971252</ele>
        <time>2020-09-20T08:35:50Z</time>
      </trkpt>
      <trkpt lat="48.59413" lon="7.65956">
        <ele>134.18971252</ele>
        <time>2020-09-20T08:35:52Z</time>
      </trkpt>
      <trkpt lat="48.59407" lon="7.65971">
        <ele>134.18971252</ele>
        <time>2020-09-20T08:35:54Z</time>
      </trkpt>
      <trkpt lat="48.59399" lon="7.65981">
        <ele>134.18971252</ele>
        <time>2020-09-20T08:35:56Z</time>
      </trkpt>
      <trkpt lat="48.59393" lon="7.65992">
        <ele>135.12901306</ele>
        <time>2020-09-20T08:35:58Z</time>
      </trkpt>
      <trkpt lat="48.59396" lon="7.66001">
        <ele>135.12901306</ele>
        <time>2020-09-20T08:36:01Z</time>
      </trkpt>
      <trkpt lat="48.59402" lon="7.65994">
        <ele>135.12901306</ele>
        <time>2020-09-20T08:36:06Z</time>
      </trkpt>
      <trkpt lat="48.59398" lon="7.65997">
        <ele>135.12901306</ele>
        <time>2020-09-20T08:36:09Z</time>
      </trkpt>
      <trkpt lat="48.5941" lon="7.66005">
        <ele>135.12901306</ele>
        <time>2020-09-20T08:36:12Z</time>
      </trkpt>
      <trkpt lat="48.59418" lon="7.66013">
        <ele>135.12901306</ele>
        <time>2020-09-20T08:36:13Z</time>
      </trkpt>
      <trkpt lat="48.59426" lon="7.66022">
        <ele>136.82202148</ele>
        <time>2020-09-20T08:36:17Z</time>
      </trkpt>
      <trkpt lat="48.59432" lon="7.6603">
        <ele>137.26611328</ele>
        <time>2020-09-20T08:36:22Z</time>
      </trkpt>
      <trkpt lat="48.59441" lon="7.66033">
        <ele>137.26611328</ele>
        <time>2020-09-20T08:36:24Z</time>
      </trkpt>
      <trkpt lat="48.59451" lon="7.66026">
        <ele>137.26611328</ele>
        <time>2020-09-20T08:36:27Z</time>
      </trkpt>
      <trkpt lat="48.59459" lon="7.66015">
        <ele>137.26611328</ele>
        <time>2020-09-20T08:36:31Z</time>
      </trkpt>
      <trkpt lat="48.59466" lon="7.66">
        <ele>137.26611328</ele>
        <time>2020-09-20T08:36:33Z</time>
      </trkpt>
      <trkpt lat="48.59476" lon="7.65989">
        <ele>136.84333801</ele>
        <time>2020-09-20T08:36:36Z</time>
      </trkpt>
      <trkpt lat="48.59485" lon="7.65984">
        <ele>136.84333801</ele>
        <time>2020-09-20T08:36:37Z</time>
      </trkpt>
      <trkpt lat="48.59497" lon="7.65981">
        <ele>135.14524841</ele>
        <time>2020-09-20T08:36:39Z</time>
      </trkpt>
      <trkpt lat="48.59509" lon="7.65979">
        <ele>135.14524841</ele>
        <time>2020-09-20T08:36:41Z</time>
      </trkpt>
      <trkpt lat="48.5952" lon="7.65977">
        <ele>135.14524841</ele>
        <time>2020-09-20T08:36:43Z</time>
      </trkpt>
      <trkpt lat="48.59532" lon="7.65975">
        <ele>135.14524841</ele>
        <time>2020-09-20T08:36:46Z</time>
      </trkpt>
      <trkpt lat="48.59544" lon="7.65972">
        <ele>135.14524841</ele>
        <time>2020-09-20T08:36:47Z</time>
      </trkpt>
      <trkpt lat="48.59555" lon="7.65969">
        <ele>135.14524841</ele>
        <time>2020-09-20T08:36:50Z</time>
      </trkpt>
      <trkpt lat="48.59567" lon="7.65967">
        <ele>135.14524841</ele>
        <time>2020-09-20T08:36:52Z</time>
      </trkpt>
      <trkpt lat="48.59579" lon="7.65965">
        <ele>135.14524841</ele>
        <time>2020-09-20T08:36:53Z</time>
      </trkpt>
      <trkpt lat="48.5959" lon="7.65963">
        <ele>135.14524841</ele>
        <time>2020-09-20T08:36:56Z</time>
      </trkpt>
      <trkpt lat="48.59602" lon="7.6596">
        <ele>135.14524841</ele>
        <time>2020-09-20T08:36:57Z</time>
      </trkpt>
      <trkpt lat="48.59614" lon="7.65957">
        <ele>135.14524841</ele>
        <time>2020-09-20T08:36:59Z</time>
      </trkpt>
      <trkpt lat="48.59626" lon="7.65955">
        <ele>135.14524841</ele>
        <time>2020-09-20T08:37:01Z</time>
      </trkpt>
      <trkpt lat="48.59638" lon="7.65953">
        <ele>135.14524841</ele>
        <time>2020-09-20T08:37:03Z</time>
      </trkpt>
      <trkpt lat="48.5965" lon="7.65952">
        <ele>134.19535828</ele>
        <time>2020-09-20T08:37:06Z</time>
      </trkpt>
      <trkpt lat="48.59661" lon="7.65947">
        <ele>134.19535828</ele>
        <time>2020-09-20T08:37:07Z</time>
      </trkpt>
      <trkpt lat="48.59673" lon="7.65941">
        <ele>134.19535828</ele>
        <time>2020-09-20T08:37:10Z</time>
      </trkpt>
      <trkpt lat="48.59685" lon="7.65937">
        <ele>133.09423828</ele>
        <time>2020-09-20T08:37:11Z</time>
      </trkpt>
      <trkpt lat="48.59698" lon="7.65935">
        <ele>131.74810791</ele>
        <time>2020-09-20T08:37:14Z</time>
      </trkpt>
      <trkpt lat="48.5971" lon="7.6593">
        <ele>131.74810791</ele>
        <time>2020-09-20T08:37:16Z</time>
      </trkpt>
      <trkpt lat="48.59723" lon="7.65922">
        <ele>131.74810791</ele>
        <time>2020-09-20T08:37:17Z</time>
      </trkpt>
      <trkpt lat="48.59735" lon="7.65922">
        <ele>131.74810791</ele>
        <time>2020-09-20T08:37:20Z</time>
      </trkpt>
      <trkpt lat="48.59743" lon="7.65927">
        <ele>130.8490448</ele>
        <time>2020-09-20T08:37:21Z</time>
      </trkpt>
      <trkpt lat="48.59749" lon="7.65932">
        <ele>130.8490448</ele>
        <time>2020-09-20T08:37:22Z</time>
      </trkpt>
      <trkpt lat="48.59754" lon="7.65946">
        <ele>130.8490448</ele>
        <time>2020-09-20T08:37:24Z</time>
      </trkpt>
      <trkpt lat="48.59761" lon="7.65953">
        <ele>131.31671143</ele>
        <time>2020-09-20T08:37:29Z</time>
      </trkpt>
      <trkpt lat="48.59759" lon="7.65947">
        <ele>131.31671143</ele>
        <time>2020-09-20T08:37:31Z</time>
      </trkpt>
      <trkpt lat="48.5975" lon="7.65964">
        <ele>131.31671143</ele>
        <time>2020-09-20T08:37:33Z</time>
      </trkpt>
      <trkpt lat="48.59742" lon="7.65981">
        <ele>131.31671143</ele>
        <time>2020-09-20T08:37:35Z</time>
      </trkpt>
      <trkpt lat="48.59734" lon="7.65994">
        <ele>131.31671143</ele>
        <time>2020-09-20T08:37:37Z</time>
      </trkpt>
      <trkpt lat="48.59726" lon="7.66008">
        <ele>131.31671143</ele>
        <time>2020-09-20T08:37:39Z</time>
      </trkpt>
      <trkpt lat="48.59718" lon="7.66022">
        <ele>131.31671143</ele>
        <time>2020-09-20T08:37:41Z</time>
      </trkpt>
      <trkpt lat="48.5971" lon="7.66034">
        <ele>132.24382019</ele>
        <time>2020-09-20T08:37:44Z</time>
      </trkpt>
      <trkpt lat="48.59703" lon="7.66046">
        <ele>132.24382019</ele>
        <time>2020-09-20T08:37:45Z</time>
      </trkpt>
      <trkpt lat="48.59697" lon="7.66059">
        <ele>132.24382019</ele>
        <time>2020-09-20T08:37:48Z</time>
      </trkpt>
      <trkpt lat="48.59691" lon="7.66073">
        <ele>132.24382019</ele>
        <time>2020-09-20T08:37:49Z</time>
      </trkpt>
      <trkpt lat="48.59684" lon="7.66088">
        <ele>132.24382019</ele>
        <time>2020-09-20T08:37:51Z</time>
      </trkpt>
      <trkpt lat="48.59677" lon="7.66103">
        <ele>132.24382019</ele>
        <time>2020-09-20T08:37:53Z</time>
      </trkpt>
      <trkpt lat="48.59669" lon="7.66118">
        <ele>132.24382019</ele>
        <time>2020-09-20T08:37:55Z</time>
      </trkpt>
      <trkpt lat="48.59662" lon="7.66135">
        <ele>132.24382019</ele>
        <time>2020-09-20T08:37:57Z</time>
      </trkpt>
      <trkpt lat="48.59655" lon="7.66151">
        <ele>132.24382019</ele>
        <time>2020-09-20T08:37:59Z</time>
      </trkpt>
      <trkpt lat="48.59647" lon="7.66168">
        <ele>132.24382019</ele>
        <time>2020-09-20T08:38:01Z</time>
      </trkpt>
      <trkpt lat="48.59641" lon="7.66183">
        <ele>132.24382019</ele>
        <time>2020-09-20T08:38:03Z</time>
      </trkpt>
      <trkpt lat="48.59633" lon="7.66199">
        <ele>132.24382019</ele>
        <time>2020-09-20T08:38:05Z</time>
      </trkpt>
      <trkpt lat="48.59625" lon="7.66214">
        <ele>132.24382019</ele>
        <time>2020-09-20T08:38:07Z</time>
      </trkpt>
      <trkpt lat="48.59618" lon="7.66228">
        <ele>132.24382019</ele>
        <time>2020-09-20T08:38:09Z</time>
      </trkpt>
      <trkpt lat="48.59611" lon="7.66243">
        <ele>132.24382019</ele>
        <time>2020-09-20T08:38:11Z</time>
      </trkpt>
      <trkpt lat="48.59604" lon="7.66259">
        <ele>132.24382019</ele>
        <time>2020-09-20T08:38:13Z</time>
      </trkpt>
      <trkpt lat="48.59597" lon="7.66275">
        <ele>132.24382019</ele>
        <time>2020-09-20T08:38:15Z</time>
      </trkpt>
      <trkpt lat="48.59591" lon="7.6629">
        <ele>132.24382019</ele>
        <time>2020-09-20T08:38:17Z</time>
      </trkpt>
      <trkpt lat="48.59584" lon="7.66304">
        <ele>132.24382019</ele>
        <time>2020-09-20T08:38:19Z</time>
      </trkpt>
      <trkpt lat="48.59578" lon="7.66315">
        <ele>133.18952942</ele>
        <time>2020-09-20T08:38:21Z</time>
      </trkpt>
      <trkpt lat="48.59574" lon="7.66325">
        <ele>133.18952942</ele>
        <time>2020-09-20T08:38:22Z</time>
      </trkpt>
      <trkpt lat="48.59569" lon="7.6634">
        <ele>133.18952942</ele>
        <time>2020-09-20T08:38:24Z</time>
      </trkpt>
      <trkpt lat="48.59563" lon="7.66354">
        <ele>133.18952942</ele>
        <time>2020-09-20T08:38:26Z</time>
      </trkpt>
      <trkpt lat="48.59557" lon="7.66368">
        <ele>133.18952942</ele>
        <time>2020-09-20T08:38:28Z</time>
      </trkpt>
      <trkpt lat="48.59551" lon="7.66383">
        <ele>133.18952942</ele>
        <time>2020-09-20T08:38:30Z</time>
      </trkpt>
      <trkpt lat="48.59545" lon="7.66398">
        <ele>133.18952942</ele>
        <time>2020-09-20T08:38:32Z</time>
      </trkpt>
      <trkpt lat="48.59538" lon="7.66412">
        <ele>133.18952942</ele>
        <time>2020-09-20T08:38:34Z</time>
      </trkpt>
      <trkpt lat="48.59533" lon="7.66427">
        <ele>133.18952942</ele>
        <time>2020-09-20T08:38:36Z</time>
      </trkpt>
      <trkpt lat="48.59526" lon="7.66442">
        <ele>133.18952942</ele>
        <time>2020-09-20T08:38:38Z</time>
      </trkpt>
      <trkpt lat="48.5952" lon="7.66457">
        <ele>133.18952942</ele>
        <time>2020-09-20T08:38:40Z</time>
      </trkpt>
      <trkpt lat="48.59515" lon="7.66472">
        <ele>133.18952942</ele>
        <time>2020-09-20T08:38:42Z</time>
      </trkpt>
      <trkpt lat="48.59509" lon="7.66488">
        <ele>133.18952942</ele>
        <time>2020-09-20T08:38:44Z</time>
      </trkpt>
      <trkpt lat="48.59504" lon="7.66504">
        <ele>133.18952942</ele>
        <time>2020-09-20T08:38:46Z</time>
      </trkpt>
      <trkpt lat="48.59499" lon="7.66518">
        <ele>133.98143005</ele>
        <time>2020-09-20T08:38:48Z</time>
      </trkpt>
      <trkpt lat="48.59494" lon="7.66533">
        <ele>133.98143005</ele>
        <time>2020-09-20T08:38:50Z</time>
      </trkpt>
      <trkpt lat="48.59488" lon="7.66548">
        <ele>133.98143005</ele>
        <time>2020-09-20T08:38:52Z</time>
      </trkpt>
      <trkpt lat="48.59483" lon="7.66562">
        <ele>133.98143005</ele>
        <time>2020-09-20T08:38:54Z</time>
      </trkpt>
      <trkpt lat="48.59477" lon="7.66578">
        <ele>133.98143005</ele>
        <time>2020-09-20T08:38:56Z</time>
      </trkpt>
      <trkpt lat="48.59472" lon="7.66593">
        <ele>133.98143005</ele>
        <time>2020-09-20T08:38:58Z</time>
      </trkpt>
      <trkpt lat="48.59466" lon="7.66609">
        <ele>133.98143005</ele>
        <time>2020-09-20T08:39:00Z</time>
      </trkpt>
      <trkpt lat="48.59461" lon="7.66624">
        <ele>133.98143005</ele>
        <time>2020-09-20T08:39:02Z</time>
      </trkpt>
      <trkpt lat="48.59456" lon="7.6664">
        <ele>133.98143005</ele>
        <time>2020-09-20T08:39:05Z</time>
      </trkpt>
      <trkpt lat="48.59451" lon="7.66656">
        <ele>133.98143005</ele>
        <time>2020-09-20T08:39:07Z</time>
      </trkpt>
      <trkpt lat="48.59446" lon="7.6667">
        <ele>133.98143005</ele>
        <time>2020-09-20T08:39:08Z</time>
      </trkpt>
      <trkpt lat="48.59443" lon="7.66684">
        <ele>133.98143005</ele>
        <time>2020-09-20T08:39:10Z</time>
      </trkpt>
      <trkpt lat="48.59448" lon="7.66699">
        <ele>133.98143005</ele>
        <time>2020-09-20T08:39:13Z</time>
      </trkpt>
      <trkpt lat="48.59459" lon="7.66703">
        <ele>133.98143005</ele>
        <time>2020-09-20T08:39:16Z</time>
      </trkpt>
      <trkpt lat="48.59469" lon="7.66702">
        <ele>133.98143005</ele>
        <time>2020-09-20T08:39:17Z</time>
      </trkpt>
      <trkpt lat="48.59479" lon="7.66701">
        <ele>133.98143005</ele>
        <time>2020-09-20T08:39:19Z</time>
      </trkpt>
      <trkpt lat="48.59495" lon="7.667">
        <ele>134.93637085</ele>
        <time>2020-09-20T08:39:22Z</time>
      </trkpt>
      <trkpt lat="48.59505" lon="7.667">
        <ele>134.93637085</ele>
        <time>2020-09-20T08:39:24Z</time>
      </trkpt>
      <trkpt lat="48.59515" lon="7.66701">
        <ele>134.93637085</ele>
        <time>2020-09-20T08:39:26Z</time>
      </trkpt>
      <trkpt lat="48.59526" lon="7.66702">
        <ele>134.93637085</ele>
        <time>2020-09-20T08:39:28Z</time>
      </trkpt>
      <trkpt lat="48.59538" lon="7.66702">
        <ele>134.93637085</ele>
        <time>2020-09-20T08:39:30Z</time>
      </trkpt>
      <trkpt lat="48.59549" lon="7.66702">
        <ele>134.93637085</ele>
        <time>2020-09-20T08:39:32Z</time>
      </trkpt>
      <trkpt lat="48.5956" lon="7.66702">
        <ele>134.93637085</ele>
        <time>2020-09-20T08:39:34Z</time>
      </trkpt>
      <trkpt lat="48.59571" lon="7.66704">
        <ele>134.93637085</ele>
        <time>2020-09-20T08:39:37Z</time>
      </trkpt>
      <trkpt lat="48.59582" lon="7.66704">
        <ele>134.93637085</ele>
        <time>2020-09-20T08:39:38Z</time>
      </trkpt>
      <trkpt lat="48.59593" lon="7.66705">
        <ele>134.93637085</ele>
        <time>2020-09-20T08:39:40Z</time>
      </trkpt>
      <trkpt lat="48.59605" lon="7.66705">
        <ele>134.93637085</ele>
        <time>2020-09-20T08:39:42Z</time>
      </trkpt>
      <trkpt lat="48.59616" lon="7.66704">
        <ele>134.93637085</ele>
        <time>2020-09-20T08:39:44Z</time>
      </trkpt>
      <trkpt lat="48.59628" lon="7.66704">
        <ele>134.93637085</ele>
        <time>2020-09-20T08:39:46Z</time>
      </trkpt>
      <trkpt lat="48.5964" lon="7.66704">
        <ele>134.93637085</ele>
        <time>2020-09-20T08:39:48Z</time>
      </trkpt>
      <trkpt lat="48.59652" lon="7.66702">
        <ele>134.93637085</ele>
        <time>2020-09-20T08:39:51Z</time>
      </trkpt>
      <trkpt lat="48.59664" lon="7.667">
        <ele>134.93637085</ele>
        <time>2020-09-20T08:39:52Z</time>
      </trkpt>
      <trkpt lat="48.59676" lon="7.66698">
        <ele>134.93637085</ele>
        <time>2020-09-20T08:39:54Z</time>
      </trkpt>
      <trkpt lat="48.59688" lon="7.66696">
        <ele>134.93637085</ele>
        <time>2020-09-20T08:39:56Z</time>
      </trkpt>
      <trkpt lat="48.59699" lon="7.66695">
        <ele>134.93637085</ele>
        <time>2020-09-20T08:39:58Z</time>
      </trkpt>
      <trkpt lat="48.59708" lon="7.66694">
        <ele>135.15765381</ele>
        <time>2020-09-20T08:40:01Z</time>
      </trkpt>
      <trkpt lat="48.59718" lon="7.66692">
        <ele>135.15765381</ele>
        <time>2020-09-20T08:40:02Z</time>
      </trkpt>
      <trkpt lat="48.59729" lon="7.66689">
        <ele>135.15765381</ele>
        <time>2020-09-20T08:40:04Z</time>
      </trkpt>
      <trkpt lat="48.59741" lon="7.66689">
        <ele>135.15765381</ele>
        <time>2020-09-20T08:40:06Z</time>
      </trkpt>
      <trkpt lat="48.59752" lon="7.66688">
        <ele>135.15765381</ele>
        <time>2020-09-20T08:40:08Z</time>
      </trkpt>
      <trkpt lat="48.59764" lon="7.66687">
        <ele>135.15765381</ele>
        <time>2020-09-20T08:40:11Z</time>
      </trkpt>
      <trkpt lat="48.59776" lon="7.66684">
        <ele>135.15765381</ele>
        <time>2020-09-20T08:40:13Z</time>
      </trkpt>
      <trkpt lat="48.59787" lon="7.66682">
        <ele>135.15765381</ele>
        <time>2020-09-20T08:40:14Z</time>
      </trkpt>
      <trkpt lat="48.59799" lon="7.66681">
        <ele>135.15765381</ele>
        <time>2020-09-20T08:40:16Z</time>
      </trkpt>
      <trkpt lat="48.59811" lon="7.66679">
        <ele>135.15765381</ele>
        <time>2020-09-20T08:40:18Z</time>
      </trkpt>
      <trkpt lat="48.59823" lon="7.66677">
        <ele>135.15765381</ele>
        <time>2020-09-20T08:40:21Z</time>
      </trkpt>
      <trkpt lat="48.59834" lon="7.66676">
        <ele>133.93200684</ele>
        <time>2020-09-20T08:40:22Z</time>
      </trkpt>
      <trkpt lat="48.59846" lon="7.66674">
        <ele>133.93200684</ele>
        <time>2020-09-20T08:40:24Z</time>
      </trkpt>
      <trkpt lat="48.59857" lon="7.66672">
        <ele>133.93200684</ele>
        <time>2020-09-20T08:40:26Z</time>
      </trkpt>
      <trkpt lat="48.59869" lon="7.66671">
        <ele>133.93200684</ele>
        <time>2020-09-20T08:40:28Z</time>
      </trkpt>
      <trkpt lat="48.5988" lon="7.6667">
        <ele>133.93200684</ele>
        <time>2020-09-20T08:40:31Z</time>
      </trkpt>
      <trkpt lat="48.5989" lon="7.66668">
        <ele>133.93200684</ele>
        <time>2020-09-20T08:40:32Z</time>
      </trkpt>
      <trkpt lat="48.59901" lon="7.66666">
        <ele>133.93200684</ele>
        <time>2020-09-20T08:40:34Z</time>
      </trkpt>
      <trkpt lat="48.59911" lon="7.66664">
        <ele>133.93200684</ele>
        <time>2020-09-20T08:40:36Z</time>
      </trkpt>
      <trkpt lat="48.59922" lon="7.66662">
        <ele>133.93200684</ele>
        <time>2020-09-20T08:40:38Z</time>
      </trkpt>
      <trkpt lat="48.59934" lon="7.6666">
        <ele>133.93200684</ele>
        <time>2020-09-20T08:40:40Z</time>
      </trkpt>
      <trkpt lat="48.59945" lon="7.6666">
        <ele>133.93200684</ele>
        <time>2020-09-20T08:40:42Z</time>
      </trkpt>
      <trkpt lat="48.59956" lon="7.66659">
        <ele>133.93200684</ele>
        <time>2020-09-20T08:40:44Z</time>
      </trkpt>
      <trkpt lat="48.59968" lon="7.66658">
        <ele>133.93200684</ele>
        <time>2020-09-20T08:40:46Z</time>
      </trkpt>
      <trkpt lat="48.59979" lon="7.66658">
        <ele>133.93200684</ele>
        <time>2020-09-20T08:40:48Z</time>
      </trkpt>
      <trkpt lat="48.59989" lon="7.6666">
        <ele>133.93200684</ele>
        <time>2020-09-20T08:40:50Z</time>
      </trkpt>
      <trkpt lat="48.6" lon="7.6666">
        <ele>133.93200684</ele>
        <time>2020-09-20T08:40:52Z</time>
      </trkpt>
      <trkpt lat="48.60011" lon="7.66659">
        <ele>133.93200684</ele>
        <time>2020-09-20T08:40:54Z</time>
      </trkpt>
      <trkpt lat="48.60021" lon="7.66658">
        <ele>133.93200684</ele>
        <time>2020-09-20T08:40:56Z</time>
      </trkpt>
      <trkpt lat="48.6003" lon="7.66658">
        <ele>133.93200684</ele>
        <time>2020-09-20T08:40:58Z</time>
      </trkpt>
      <trkpt lat="48.6004" lon="7.66658">
        <ele>133.93200684</ele>
        <time>2020-09-20T08:41:02Z</time>
      </trkpt>
      <trkpt lat="48.60053" lon="7.6666">
        <ele>133.93200684</ele>
        <time>2020-09-20T08:41:04Z</time>
      </trkpt>
      <trkpt lat="48.60064" lon="7.66659">
        <ele>133.93200684</ele>
        <time>2020-09-20T08:41:06Z</time>
      </trkpt>
      <trkpt lat="48.60074" lon="7.66658">
        <ele>133.93200684</ele>
        <time>2020-09-20T08:41:08Z</time>
      </trkpt>
      <trkpt lat="48.60083" lon="7.66658">
        <ele>133.93200684</ele>
        <time>2020-09-20T08:41:11Z</time>
      </trkpt>
      <trkpt lat="48.60094" lon="7.66658">
        <ele>133.93200684</ele>
        <time>2020-09-20T08:41:13Z</time>
      </trkpt>
      <trkpt lat="48.60106" lon="7.66658">
        <ele>133.93200684</ele>
        <time>2020-09-20T08:41:15Z</time>
      </trkpt>
      <trkpt lat="48.60116" lon="7.66658">
        <ele>133.93200684</ele>
        <time>2020-09-20T08:41:17Z</time>
      </trkpt>
      <trkpt lat="48.60127" lon="7.66657">
        <ele>133.93200684</ele>
        <time>2020-09-20T08:41:19Z</time>
      </trkpt>
      <trkpt lat="48.60142" lon="7.66656">
        <ele>133.6268158</ele>
        <time>2020-09-20T08:41:22Z</time>
      </trkpt>
      <trkpt lat="48.60154" lon="7.66656">
        <ele>133.6268158</ele>
        <time>2020-09-20T08:41:24Z</time>
      </trkpt>
      <trkpt lat="48.60165" lon="7.66656">
        <ele>133.6268158</ele>
        <time>2020-09-20T08:41:26Z</time>
      </trkpt>
      <trkpt lat="48.60176" lon="7.66655">
        <ele>133.6268158</ele>
        <time>2020-09-20T08:41:28Z</time>
      </trkpt>
      <trkpt lat="48.60186" lon="7.66654">
        <ele>133.6268158</ele>
        <time>2020-09-20T08:41:31Z</time>
      </trkpt>
      <trkpt lat="48.60196" lon="7.66652">
        <ele>133.6268158</ele>
        <time>2020-09-20T08:41:32Z</time>
      </trkpt>
      <trkpt lat="48.60205" lon="7.66649">
        <ele>133.6268158</ele>
        <time>2020-09-20T08:41:35Z</time>
      </trkpt>
      <trkpt lat="48.60213" lon="7.66644">
        <ele>133.6268158</ele>
        <time>2020-09-20T08:41:37Z</time>
      </trkpt>
      <trkpt lat="48.60223" lon="7.66653">
        <ele>133.6268158</ele>
        <time>2020-09-20T08:41:41Z</time>
      </trkpt>
      <trkpt lat="48.60233" lon="7.66665">
        <ele>133.6268158</ele>
        <time>2020-09-20T08:41:42Z</time>
      </trkpt>
      <trkpt lat="48.60241" lon="7.66674">
        <ele>133.6268158</ele>
        <time>2020-09-20T08:41:44Z</time>
      </trkpt>
      <trkpt lat="48.60247" lon="7.66684">
        <ele>133.6268158</ele>
        <time>2020-09-20T08:41:46Z</time>
      </trkpt>
      <trkpt lat="48.60255" lon="7.66694">
        <ele>133.6268158</ele>
        <time>2020-09-20T08:41:48Z</time>
      </trkpt>
      <trkpt lat="48.60263" lon="7.66704">
        <ele>133.6268158</ele>
        <time>2020-09-20T08:41:50Z</time>
      </trkpt>
      <trkpt lat="48.60272" lon="7.66716">
        <ele>133.6268158</ele>
        <time>2020-09-20T08:41:52Z</time>
      </trkpt>
      <trkpt lat="48.60281" lon="7.66729">
        <ele>133.6268158</ele>
        <time>2020-09-20T08:41:54Z</time>
      </trkpt>
      <trkpt lat="48.6029" lon="7.66741">
        <ele>133.6268158</ele>
        <time>2020-09-20T08:41:56Z</time>
      </trkpt>
      <trkpt lat="48.60299" lon="7.66753">
        <ele>134.07342529</ele>
        <time>2020-09-20T08:41:58Z</time>
      </trkpt>
      <trkpt lat="48.60307" lon="7.66764">
        <ele>134.07342529</ele>
        <time>2020-09-20T08:42:00Z</time>
      </trkpt>
      <trkpt lat="48.60316" lon="7.66775">
        <ele>134.07342529</ele>
        <time>2020-09-20T08:42:02Z</time>
      </trkpt>
      <trkpt lat="48.60325" lon="7.66788">
        <ele>134.07342529</ele>
        <time>2020-09-20T08:42:05Z</time>
      </trkpt>
      <trkpt lat="48.60333" lon="7.668">
        <ele>134.07342529</ele>
        <time>2020-09-20T08:42:06Z</time>
      </trkpt>
      <trkpt lat="48.60339" lon="7.66811">
        <ele>134.07342529</ele>
        <time>2020-09-20T08:42:09Z</time>
      </trkpt>
      <trkpt lat="48.60346" lon="7.66821">
        <ele>134.07342529</ele>
        <time>2020-09-20T08:42:12Z</time>
      </trkpt>
      <trkpt lat="48.60354" lon="7.66831">
        <ele>134.07342529</ele>
        <time>2020-09-20T08:42:16Z</time>
      </trkpt>
      <trkpt lat="48.60363" lon="7.6684">
        <ele>134.07342529</ele>
        <time>2020-09-20T08:42:19Z</time>
      </trkpt>
      <trkpt lat="48.60369" lon="7.66848">
        <ele>132.90789795</ele>
        <time>2020-09-20T08:42:21Z</time>
      </trkpt>
      <trkpt lat="48.60375" lon="7.66856">
        <ele>132.90789795</ele>
        <time>2020-09-20T08:42:23Z</time>
      </trkpt>
      <trkpt lat="48.60386" lon="7.66869">
        <ele>132.90789795</ele>
        <time>2020-09-20T08:42:26Z</time>
      </trkpt>
      <trkpt lat="48.60395" lon="7.66883">
        <ele>132.90789795</ele>
        <time>2020-09-20T08:42:28Z</time>
      </trkpt>
      <trkpt lat="48.60402" lon="7.66894">
        <ele>132.90789795</ele>
        <time>2020-09-20T08:42:30Z</time>
      </trkpt>
      <trkpt lat="48.60409" lon="7.66904">
        <ele>132.90789795</ele>
        <time>2020-09-20T08:42:32Z</time>
      </trkpt>
      <trkpt lat="48.60416" lon="7.66914">
        <ele>132.90789795</ele>
        <time>2020-09-20T08:42:34Z</time>
      </trkpt>
      <trkpt lat="48.60424" lon="7.66923">
        <ele>132.90789795</ele>
        <time>2020-09-20T08:42:36Z</time>
      </trkpt>
      <trkpt lat="48.60431" lon="7.66933">
        <ele>132.90789795</ele>
        <time>2020-09-20T08:42:38Z</time>
      </trkpt>
      <trkpt lat="48.60439" lon="7.66944">
        <ele>132.90789795</ele>
        <time>2020-09-20T08:42:40Z</time>
      </trkpt>
      <trkpt lat="48.60446" lon="7.66955">
        <ele>132.90789795</ele>
        <time>2020-09-20T08:42:42Z</time>
      </trkpt>
      <trkpt lat="48.60454" lon="7.66967">
        <ele>132.90789795</ele>
        <time>2020-09-20T08:42:44Z</time>
      </trkpt>
      <trkpt lat="48.60462" lon="7.66978">
        <ele>132.90789795</ele>
        <time>2020-09-20T08:42:46Z</time>
      </trkpt>
      <trkpt lat="48.6047" lon="7.66988">
        <ele>132.90789795</ele>
        <time>2020-09-20T08:42:48Z</time>
      </trkpt>
      <trkpt lat="48.60478" lon="7.66998">
        <ele>132.90789795</ele>
        <time>2020-09-20T08:42:50Z</time>
      </trkpt>
      <trkpt lat="48.60487" lon="7.67009">
        <ele>132.90789795</ele>
        <time>2020-09-20T08:42:52Z</time>
      </trkpt>
      <trkpt lat="48.60496" lon="7.6702">
        <ele>132.90789795</ele>
        <time>2020-09-20T08:42:54Z</time>
      </trkpt>
      <trkpt lat="48.60503" lon="7.67029">
        <ele>132.9344635</ele>
        <time>2020-09-20T08:42:56Z</time>
      </trkpt>
      <trkpt lat="48.60513" lon="7.67035">
        <ele>132.9344635</ele>
        <time>2020-09-20T08:42:59Z</time>
      </trkpt>
      <trkpt lat="48.60526" lon="7.67034">
        <ele>132.9344635</ele>
        <time>2020-09-20T08:43:02Z</time>
      </trkpt>
      <trkpt lat="48.60538" lon="7.67034">
        <ele>132.9344635</ele>
        <time>2020-09-20T08:43:04Z</time>
      </trkpt>
      <trkpt lat="48.6055" lon="7.67035">
        <ele>132.9344635</ele>
        <time>2020-09-20T08:43:07Z</time>
      </trkpt>
      <trkpt lat="48.60563" lon="7.67039">
        <ele>132.9344635</ele>
        <time>2020-09-20T08:43:09Z</time>
      </trkpt>
      <trkpt lat="48.60574" lon="7.67042">
        <ele>132.9344635</ele>
        <time>2020-09-20T08:43:11Z</time>
      </trkpt>
      <trkpt lat="48.60585" lon="7.67044">
        <ele>132.9344635</ele>
        <time>2020-09-20T08:43:13Z</time>
      </trkpt>
      <trkpt lat="48.60597" lon="7.67048">
        <ele>132.9344635</ele>
        <time>2020-09-20T08:43:15Z</time>
      </trkpt>
      <trkpt lat="48.60607" lon="7.6705">
        <ele>132.9344635</ele>
        <time>2020-09-20T08:43:17Z</time>
      </trkpt>
      <trkpt lat="48.60618" lon="7.67053">
        <ele>132.9344635</ele>
        <time>2020-09-20T08:43:19Z</time>
      </trkpt>
      <trkpt lat="48.60634" lon="7.67056">
        <ele>133.92179871</ele>
        <time>2020-09-20T08:43:22Z</time>
      </trkpt>
      <trkpt lat="48.60644" lon="7.67059">
        <ele>133.92179871</ele>
        <time>2020-09-20T08:43:24Z</time>
      </trkpt>
      <trkpt lat="48.60654" lon="7.67061">
        <ele>133.92179871</ele>
        <time>2020-09-20T08:43:26Z</time>
      </trkpt>
      <trkpt lat="48.60664" lon="7.67062">
        <ele>133.92179871</ele>
        <time>2020-09-20T08:43:28Z</time>
      </trkpt>
      <trkpt lat="48.60674" lon="7.67065">
        <ele>133.92179871</ele>
        <time>2020-09-20T08:43:30Z</time>
      </trkpt>
      <trkpt lat="48.60685" lon="7.67069">
        <ele>133.92179871</ele>
        <time>2020-09-20T08:43:32Z</time>
      </trkpt>
      <trkpt lat="48.60697" lon="7.67071">
        <ele>133.92179871</ele>
        <time>2020-09-20T08:43:34Z</time>
      </trkpt>
      <trkpt lat="48.60708" lon="7.67072">
        <ele>133.92179871</ele>
        <time>2020-09-20T08:43:36Z</time>
      </trkpt>
      <trkpt lat="48.60718" lon="7.67075">
        <ele>133.92179871</ele>
        <time>2020-09-20T08:43:38Z</time>
      </trkpt>
      <trkpt lat="48.60729" lon="7.67077">
        <ele>133.92179871</ele>
        <time>2020-09-20T08:43:41Z</time>
      </trkpt>
      <trkpt lat="48.60738" lon="7.67079">
        <ele>133.92179871</ele>
        <time>2020-09-20T08:43:42Z</time>
      </trkpt>
      <trkpt lat="48.60748" lon="7.67081">
        <ele>133.92179871</ele>
        <time>2020-09-20T08:43:44Z</time>
      </trkpt>
      <trkpt lat="48.60759" lon="7.67084">
        <ele>133.92179871</ele>
        <time>2020-09-20T08:43:46Z</time>
      </trkpt>
      <trkpt lat="48.60769" lon="7.67088">
        <ele>133.92179871</ele>
        <time>2020-09-20T08:43:49Z</time>
      </trkpt>
      <trkpt lat="48.6078" lon="7.67092">
        <ele>133.92179871</ele>
        <time>2020-09-20T08:43:50Z</time>
      </trkpt>
      <trkpt lat="48.6079" lon="7.67094">
        <ele>134.60940552</ele>
        <time>2020-09-20T08:43:53Z</time>
      </trkpt>
      <trkpt lat="48.608" lon="7.67096">
        <ele>134.60940552</ele>
        <time>2020-09-20T08:43:54Z</time>
      </trkpt>
      <trkpt lat="48.60811" lon="7.67099">
        <ele>134.60940552</ele>
        <time>2020-09-20T08:43:56Z</time>
      </trkpt>
      <trkpt lat="48.60821" lon="7.67102">
        <ele>134.60940552</ele>
        <time>2020-09-20T08:43:58Z</time>
      </trkpt>
      <trkpt lat="48.60831" lon="7.67105">
        <ele>134.60940552</ele>
        <time>2020-09-20T08:44:00Z</time>
      </trkpt>
      <trkpt lat="48.6084" lon="7.67108">
        <ele>134.60940552</ele>
        <time>2020-09-20T08:44:02Z</time>
      </trkpt>
      <trkpt lat="48.60851" lon="7.67111">
        <ele>134.60940552</ele>
        <time>2020-09-20T08:44:05Z</time>
      </trkpt>
      <trkpt lat="48.6086" lon="7.67114">
        <ele>135.39622498</ele>
        <time>2020-09-20T08:44:07Z</time>
      </trkpt>
      <trkpt lat="48.60871" lon="7.67117">
        <ele>135.39622498</ele>
        <time>2020-09-20T08:44:09Z</time>
      </trkpt>
      <trkpt lat="48.60881" lon="7.67125">
        <ele>135.39622498</ele>
        <time>2020-09-20T08:44:10Z</time>
      </trkpt>
      <trkpt lat="48.60891" lon="7.67133">
        <ele>135.39622498</ele>
        <time>2020-09-20T08:44:12Z</time>
      </trkpt>
      <trkpt lat="48.60902" lon="7.67141">
        <ele>135.39622498</ele>
        <time>2020-09-20T08:44:14Z</time>
      </trkpt>
      <trkpt lat="48.60912" lon="7.67148">
        <ele>135.39622498</ele>
        <time>2020-09-20T08:44:16Z</time>
      </trkpt>
      <trkpt lat="48.60921" lon="7.67156">
        <ele>135.39622498</ele>
        <time>2020-09-20T08:44:18Z</time>
      </trkpt>
      <trkpt lat="48.60933" lon="7.67164">
        <ele>136.38296509</ele>
        <time>2020-09-20T08:44:21Z</time>
      </trkpt>
      <trkpt lat="48.6094" lon="7.67168">
        <ele>136.38296509</ele>
        <time>2020-09-20T08:44:22Z</time>
      </trkpt>
      <trkpt lat="48.6095" lon="7.67174">
        <ele>136.38296509</ele>
        <time>2020-09-20T08:44:24Z</time>
      </trkpt>
      <trkpt lat="48.60959" lon="7.6718">
        <ele>136.38296509</ele>
        <time>2020-09-20T08:44:26Z</time>
      </trkpt>
      <trkpt lat="48.6097" lon="7.67187">
        <ele>137.35697937</ele>
        <time>2020-09-20T08:44:29Z</time>
      </trkpt>
      <trkpt lat="48.60981" lon="7.67195">
        <ele>137.35697937</ele>
        <time>2020-09-20T08:44:33Z</time>
      </trkpt>
      <trkpt lat="48.6099" lon="7.67202">
        <ele>138.73423767</ele>
        <time>2020-09-20T08:44:35Z</time>
      </trkpt>
      <trkpt lat="48.60997" lon="7.67202">
        <ele>141.2077179</ele>
        <time>2020-09-20T08:44:43Z</time>
      </trkpt>
      <trkpt lat="48.61002" lon="7.67189">
        <ele>141.2077179</ele>
        <time>2020-09-20T08:45:11Z</time>
      </trkpt>
      <trkpt lat="48.6101" lon="7.67177">
        <ele>141.2077179</ele>
        <time>2020-09-20T08:45:15Z</time>
      </trkpt>
      <trkpt lat="48.61017" lon="7.67167">
        <ele>141.2077179</ele>
        <time>2020-09-20T08:45:19Z</time>
      </trkpt>
      <trkpt lat="48.61023" lon="7.67163">
        <ele>141.82553101</ele>
        <time>2020-09-20T08:45:21Z</time>
      </trkpt>
      <trkpt lat="48.6103" lon="7.67161">
        <ele>141.82553101</ele>
        <time>2020-09-20T08:45:25Z</time>
      </trkpt>
      <trkpt lat="48.61039" lon="7.67144">
        <ele>141.82553101</ele>
        <time>2020-09-20T08:45:28Z</time>
      </trkpt>
      <trkpt lat="48.61047" lon="7.67129">
        <ele>141.82553101</ele>
        <time>2020-09-20T08:45:31Z</time>
      </trkpt>
      <trkpt lat="48.61054" lon="7.67116">
        <ele>141.82553101</ele>
        <time>2020-09-20T08:45:33Z</time>
      </trkpt>
      <trkpt lat="48.61063" lon="7.6711">
        <ele>141.82553101</ele>
        <time>2020-09-20T08:45:36Z</time>
      </trkpt>
      <trkpt lat="48.61072" lon="7.67121">
        <ele>141.82553101</ele>
        <time>2020-09-20T08:45:39Z</time>
      </trkpt>
      <trkpt lat="48.6108" lon="7.67132">
        <ele>141.82553101</ele>
        <time>2020-09-20T08:45:41Z</time>
      </trkpt>
      <trkpt lat="48.61087" lon="7.67143">
        <ele>141.82553101</ele>
        <time>2020-09-20T08:45:43Z</time>
      </trkpt>
      <trkpt lat="48.61093" lon="7.67154">
        <ele>141.82553101</ele>
        <time>2020-09-20T08:45:45Z</time>
      </trkpt>
      <trkpt lat="48.611" lon="7.67166">
        <ele>141.82553101</ele>
        <time>2020-09-20T08:45:47Z</time>
      </trkpt>
      <trkpt lat="48.61105" lon="7.67178">
        <ele>141.82553101</ele>
        <time>2020-09-20T08:45:49Z</time>
      </trkpt>
      <trkpt lat="48.6111" lon="7.67191">
        <ele>141.82553101</ele>
        <time>2020-09-20T08:45:52Z</time>
      </trkpt>
      <trkpt lat="48.61115" lon="7.67208">
        <ele>141.82553101</ele>
        <time>2020-09-20T08:45:53Z</time>
      </trkpt>
      <trkpt lat="48.61118" lon="7.67218">
        <ele>141.82553101</ele>
        <time>2020-09-20T08:45:55Z</time>
      </trkpt>
      <trkpt lat="48.61123" lon="7.67232">
        <ele>141.82553101</ele>
        <time>2020-09-20T08:45:57Z</time>
      </trkpt>
      <trkpt lat="48.61126" lon="7.67245">
        <ele>141.69296265</ele>
        <time>2020-09-20T08:45:59Z</time>
      </trkpt>
      <trkpt lat="48.61131" lon="7.67258">
        <ele>141.69296265</ele>
        <time>2020-09-20T08:46:01Z</time>
      </trkpt>
      <trkpt lat="48.61136" lon="7.67273">
        <ele>143.34265137</ele>
        <time>2020-09-20T08:46:04Z</time>
      </trkpt>
      <trkpt lat="48.61142" lon="7.67291">
        <ele>143.34265137</ele>
        <time>2020-09-20T08:46:07Z</time>
      </trkpt>
      <trkpt lat="48.6115" lon="7.67307">
        <ele>144.40802002</ele>
        <time>2020-09-20T08:46:10Z</time>
      </trkpt>
      <trkpt lat="48.61161" lon="7.67316">
        <ele>145.52783203</ele>
        <time>2020-09-20T08:46:13Z</time>
      </trkpt>
      <trkpt lat="48.61172" lon="7.67327">
        <ele>146.76405334</ele>
        <time>2020-09-20T08:46:16Z</time>
      </trkpt>
      <trkpt lat="48.61179" lon="7.67341">
        <ele>147.93907166</ele>
        <time>2020-09-20T08:46:20Z</time>
      </trkpt>
      <trkpt lat="48.61184" lon="7.67351">
        <ele>149.55780029</ele>
        <time>2020-09-20T08:46:21Z</time>
      </trkpt>
      <trkpt lat="48.61189" lon="7.67362">
        <ele>149.55780029</ele>
        <time>2020-09-20T08:46:23Z</time>
      </trkpt>
      <trkpt lat="48.61195" lon="7.67375">
        <ele>149.55780029</ele>
        <time>2020-09-20T08:46:25Z</time>
      </trkpt>
      <trkpt lat="48.61202" lon="7.67386">
        <ele>150.2807312</ele>
        <time>2020-09-20T08:46:27Z</time>
      </trkpt>
      <trkpt lat="48.61208" lon="7.674">
        <ele>151.43640137</ele>
        <time>2020-09-20T08:46:30Z</time>
      </trkpt>
      <trkpt lat="48.61215" lon="7.67414">
        <ele>151.43640137</ele>
        <time>2020-09-20T08:46:33Z</time>
      </trkpt>
      <trkpt lat="48.61223" lon="7.67428">
        <ele>152.73846436</ele>
        <time>2020-09-20T08:46:36Z</time>
      </trkpt>
      <trkpt lat="48.61231" lon="7.67442">
        <ele>153.90177917</ele>
        <time>2020-09-20T08:46:39Z</time>
      </trkpt>
      <trkpt lat="48.61239" lon="7.67457">
        <ele>153.90177917</ele>
        <time>2020-09-20T08:46:42Z</time>
      </trkpt>
      <trkpt lat="48.61247" lon="7.67472">
        <ele>155.02346802</ele>
        <time>2020-09-20T08:46:45Z</time>
      </trkpt>
      <trkpt lat="48.61255" lon="7.67487">
        <ele>156.10974121</ele>
        <time>2020-09-20T08:46:48Z</time>
      </trkpt>
      <trkpt lat="48.61264" lon="7.67501">
        <ele>157.16073608</ele>
        <time>2020-09-20T08:46:51Z</time>
      </trkpt>
      <trkpt lat="48.61272" lon="7.67517">
        <ele>157.16073608</ele>
        <time>2020-09-20T08:46:54Z</time>
      </trkpt>
      <trkpt lat="48.61281" lon="7.67532">
        <ele>158.14904785</ele>
        <time>2020-09-20T08:46:57Z</time>
      </trkpt>
      <trkpt lat="48.61289" lon="7.67549">
        <ele>159.25845337</ele>
        <time>2020-09-20T08:47:00Z</time>
      </trkpt>
      <trkpt lat="48.61297" lon="7.67562">
        <ele>159.25845337</ele>
        <time>2020-09-20T08:47:02Z</time>
      </trkpt>
      <trkpt lat="48.61303" lon="7.67576">
        <ele>160.35394287</ele>
        <time>2020-09-20T08:47:05Z</time>
      </trkpt>
      <trkpt lat="48.61311" lon="7.6759">
        <ele>160.35394287</ele>
        <time>2020-09-20T08:47:08Z</time>
      </trkpt>
      <trkpt lat="48.61319" lon="7.67603">
        <ele>161.42630005</ele>
        <time>2020-09-20T08:47:11Z</time>
      </trkpt>
      <trkpt lat="48.61329" lon="7.67614">
        <ele>161.42630005</ele>
        <time>2020-09-20T08:47:14Z</time>
      </trkpt>
      <trkpt lat="48.61338" lon="7.67629">
        <ele>161.42630005</ele>
        <time>2020-09-20T08:47:17Z</time>
      </trkpt>
      <trkpt lat="48.61347" lon="7.67649">
        <ele>163.23681641</ele>
        <time>2020-09-20T08:47:21Z</time>
      </trkpt>
      <trkpt lat="48.61351" lon="7.67659">
        <ele>163.23681641</ele>
        <time>2020-09-20T08:47:23Z</time>
      </trkpt>
      <trkpt lat="48.61352" lon="7.67675">
        <ele>163.23681641</ele>
        <time>2020-09-20T08:47:26Z</time>
      </trkpt>
      <trkpt lat="48.61345" lon="7.67687">
        <ele>163.23681641</ele>
        <time>2020-09-20T08:47:28Z</time>
      </trkpt>
      <trkpt lat="48.61337" lon="7.67693">
        <ele>163.23681641</ele>
        <time>2020-09-20T08:47:31Z</time>
      </trkpt>
      <trkpt lat="48.61329" lon="7.67704">
        <ele>163.23681641</ele>
        <time>2020-09-20T08:47:33Z</time>
      </trkpt>
      <trkpt lat="48.61319" lon="7.67714">
        <ele>163.23681641</ele>
        <time>2020-09-20T08:47:35Z</time>
      </trkpt>
      <trkpt lat="48.61309" lon="7.67723">
        <ele>163.23681641</ele>
        <time>2020-09-20T08:47:37Z</time>
      </trkpt>
      <trkpt lat="48.61299" lon="7.67733">
        <ele>163.23681641</ele>
        <time>2020-09-20T08:47:39Z</time>
      </trkpt>
      <trkpt lat="48.6129" lon="7.67742">
        <ele>163.23681641</ele>
        <time>2020-09-20T08:47:41Z</time>
      </trkpt>
      <trkpt lat="48.61281" lon="7.67752">
        <ele>163.23681641</ele>
        <time>2020-09-20T08:47:43Z</time>
      </trkpt>
      <trkpt lat="48.61272" lon="7.67763">
        <ele>163.23681641</ele>
        <time>2020-09-20T08:47:45Z</time>
      </trkpt>
      <trkpt lat="48.61263" lon="7.67773">
        <ele>163.23681641</ele>
        <time>2020-09-20T08:47:47Z</time>
      </trkpt>
      <trkpt lat="48.61254" lon="7.67782">
        <ele>163.23681641</ele>
        <time>2020-09-20T08:47:49Z</time>
      </trkpt>
      <trkpt lat="48.61245" lon="7.67792">
        <ele>163.23681641</ele>
        <time>2020-09-20T08:47:51Z</time>
      </trkpt>
      <trkpt lat="48.61236" lon="7.67802">
        <ele>163.23681641</ele>
        <time>2020-09-20T08:47:53Z</time>
      </trkpt>
      <trkpt lat="48.61228" lon="7.67811">
        <ele>163.23681641</ele>
        <time>2020-09-20T08:47:55Z</time>
      </trkpt>
      <trkpt lat="48.6122" lon="7.6782">
        <ele>163.23681641</ele>
        <time>2020-09-20T08:47:57Z</time>
      </trkpt>
      <trkpt lat="48.61213" lon="7.6783">
        <ele>163.23681641</ele>
        <time>2020-09-20T08:47:59Z</time>
      </trkpt>
      <trkpt lat="48.61204" lon="7.67841">
        <ele>163.77323914</ele>
        <time>2020-09-20T08:48:01Z</time>
      </trkpt>
      <trkpt lat="48.61196" lon="7.6785">
        <ele>163.77323914</ele>
        <time>2020-09-20T08:48:03Z</time>
      </trkpt>
      <trkpt lat="48.61188" lon="7.67861">
        <ele>163.77323914</ele>
        <time>2020-09-20T08:48:05Z</time>
      </trkpt>
      <trkpt lat="48.61182" lon="7.67873">
        <ele>163.77323914</ele>
        <time>2020-09-20T08:48:07Z</time>
      </trkpt>
      <trkpt lat="48.61183" lon="7.67887">
        <ele>163.77323914</ele>
        <time>2020-09-20T08:48:09Z</time>
      </trkpt>
      <trkpt lat="48.61186" lon="7.67902">
        <ele>163.77323914</ele>
        <time>2020-09-20T08:48:11Z</time>
      </trkpt>
      <trkpt lat="48.61189" lon="7.67917">
        <ele>163.77323914</ele>
        <time>2020-09-20T08:48:13Z</time>
      </trkpt>
      <trkpt lat="48.6119" lon="7.67932">
        <ele>163.77323914</ele>
        <time>2020-09-20T08:48:15Z</time>
      </trkpt>
      <trkpt lat="48.61191" lon="7.67949">
        <ele>163.77323914</ele>
        <time>2020-09-20T08:48:17Z</time>
      </trkpt>
      <trkpt lat="48.61193" lon="7.67964">
        <ele>163.77323914</ele>
        <time>2020-09-20T08:48:19Z</time>
      </trkpt>
      <trkpt lat="48.61194" lon="7.67976">
        <ele>165.03826904</ele>
        <time>2020-09-20T08:48:21Z</time>
      </trkpt>
      <trkpt lat="48.61195" lon="7.67989">
        <ele>165.03826904</ele>
        <time>2020-09-20T08:48:22Z</time>
      </trkpt>
      <trkpt lat="48.61195" lon="7.68004">
        <ele>165.03826904</ele>
        <time>2020-09-20T08:48:25Z</time>
      </trkpt>
      <trkpt lat="48.61197" lon="7.68021">
        <ele>165.03826904</ele>
        <time>2020-09-20T08:48:26Z</time>
      </trkpt>
      <trkpt lat="48.61197" lon="7.68037">
        <ele>165.03826904</ele>
        <time>2020-09-20T08:48:28Z</time>
      </trkpt>
      <trkpt lat="48.61198" lon="7.68053">
        <ele>165.03826904</ele>
        <time>2020-09-20T08:48:31Z</time>
      </trkpt>
      <trkpt lat="48.612" lon="7.68067">
        <ele>165.03826904</ele>
        <time>2020-09-20T08:48:32Z</time>
      </trkpt>
      <trkpt lat="48.61202" lon="7.68081">
        <ele>165.03826904</ele>
        <time>2020-09-20T08:48:34Z</time>
      </trkpt>
      <trkpt lat="48.61206" lon="7.68095">
        <ele>165.03826904</ele>
        <time>2020-09-20T08:48:37Z</time>
      </trkpt>
      <trkpt lat="48.61216" lon="7.68108">
        <ele>165.03826904</ele>
        <time>2020-09-20T08:48:40Z</time>
      </trkpt>
      <trkpt lat="48.61227" lon="7.68115">
        <ele>165.03826904</ele>
        <time>2020-09-20T08:48:42Z</time>
      </trkpt>
      <trkpt lat="48.61239" lon="7.6812">
        <ele>165.03826904</ele>
        <time>2020-09-20T08:48:44Z</time>
      </trkpt>
      <trkpt lat="48.61248" lon="7.68126">
        <ele>165.03826904</ele>
        <time>2020-09-20T08:48:46Z</time>
      </trkpt>
      <trkpt lat="48.61257" lon="7.68136">
        <ele>165.03826904</ele>
        <time>2020-09-20T08:48:48Z</time>
      </trkpt>
      <trkpt lat="48.61264" lon="7.68145">
        <ele>165.03826904</ele>
        <time>2020-09-20T08:48:51Z</time>
      </trkpt>
      <trkpt lat="48.61272" lon="7.68154">
        <ele>165.03826904</ele>
        <time>2020-09-20T08:48:52Z</time>
      </trkpt>
      <trkpt lat="48.6128" lon="7.68165">
        <ele>165.03826904</ele>
        <time>2020-09-20T08:48:54Z</time>
      </trkpt>
      <trkpt lat="48.61287" lon="7.68175">
        <ele>165.03826904</ele>
        <time>2020-09-20T08:48:56Z</time>
      </trkpt>
      <trkpt lat="48.61296" lon="7.68181">
        <ele>165.03826904</ele>
        <time>2020-09-20T08:48:58Z</time>
      </trkpt>
      <trkpt lat="48.61306" lon="7.68181">
        <ele>165.03826904</ele>
        <time>2020-09-20T08:49:01Z</time>
      </trkpt>
      <trkpt lat="48.61315" lon="7.68173">
        <ele>165.44189453</ele>
        <time>2020-09-20T08:49:04Z</time>
      </trkpt>
      <trkpt lat="48.61327" lon="7.68166">
        <ele>165.44189453</ele>
        <time>2020-09-20T08:49:07Z</time>
      </trkpt>
      <trkpt lat="48.61339" lon="7.68165">
        <ele>165.44189453</ele>
        <time>2020-09-20T08:49:11Z</time>
      </trkpt>
      <trkpt lat="48.6135" lon="7.68168">
        <ele>165.44189453</ele>
        <time>2020-09-20T08:49:12Z</time>
      </trkpt>
      <trkpt lat="48.61359" lon="7.68172">
        <ele>165.44189453</ele>
        <time>2020-09-20T08:49:14Z</time>
      </trkpt>
      <trkpt lat="48.61369" lon="7.68176">
        <ele>165.44189453</ele>
        <time>2020-09-20T08:49:17Z</time>
      </trkpt>
      <trkpt lat="48.61385" lon="7.68182">
        <ele>166.64822388</ele>
        <time>2020-09-20T08:49:21Z</time>
      </trkpt>
      <trkpt lat="48.61392" lon="7.68183">
        <ele>166.64822388</ele>
        <time>2020-09-20T08:49:22Z</time>
      </trkpt>
      <trkpt lat="48.61403" lon="7.68187">
        <ele>166.64822388</ele>
        <time>2020-09-20T08:49:24Z</time>
      </trkpt>
      <trkpt lat="48.61412" lon="7.68196">
        <ele>166.64822388</ele>
        <time>2020-09-20T08:49:27Z</time>
      </trkpt>
      <trkpt lat="48.61422" lon="7.68207">
        <ele>166.64822388</ele>
        <time>2020-09-20T08:49:30Z</time>
      </trkpt>
      <trkpt lat="48.61429" lon="7.68217">
        <ele>166.64822388</ele>
        <time>2020-09-20T08:49:31Z</time>
      </trkpt>
      <trkpt lat="48.61436" lon="7.6823">
        <ele>167.60975647</ele>
        <time>2020-09-20T08:49:34Z</time>
      </trkpt>
      <trkpt lat="48.61445" lon="7.68242">
        <ele>167.60975647</ele>
        <time>2020-09-20T08:49:36Z</time>
      </trkpt>
      <trkpt lat="48.61453" lon="7.68253">
        <ele>168.59466553</ele>
        <time>2020-09-20T08:49:40Z</time>
      </trkpt>
      <trkpt lat="48.61462" lon="7.68264">
        <ele>168.59466553</ele>
        <time>2020-09-20T08:49:42Z</time>
      </trkpt>
      <trkpt lat="48.61473" lon="7.68271">
        <ele>168.59466553</ele>
        <time>2020-09-20T08:49:44Z</time>
      </trkpt>
      <trkpt lat="48.61482" lon="7.68272">
        <ele>168.59466553</ele>
        <time>2020-09-20T08:49:46Z</time>
      </trkpt>
      <trkpt lat="48.61492" lon="7.68275">
        <ele>168.59466553</ele>
        <time>2020-09-20T08:49:48Z</time>
      </trkpt>
      <trkpt lat="48.61503" lon="7.68282">
        <ele>168.59466553</ele>
        <time>2020-09-20T08:49:51Z</time>
      </trkpt>
      <trkpt lat="48.61514" lon="7.6829">
        <ele>168.59466553</ele>
        <time>2020-09-20T08:49:53Z</time>
      </trkpt>
      <trkpt lat="48.61524" lon="7.68299">
        <ele>168.59466553</ele>
        <time>2020-09-20T08:49:55Z</time>
      </trkpt>
      <trkpt lat="48.61534" lon="7.6831">
        <ele>168.59466553</ele>
        <time>2020-09-20T08:49:56Z</time>
      </trkpt>
      <trkpt lat="48.61544" lon="7.6832">
        <ele>168.59466553</ele>
        <time>2020-09-20T08:49:58Z</time>
      </trkpt>
      <trkpt lat="48.61554" lon="7.68329">
        <ele>168.59466553</ele>
        <time>2020-09-20T08:50:00Z</time>
      </trkpt>
      <trkpt lat="48.61562" lon="7.68338">
        <ele>168.59466553</ele>
        <time>2020-09-20T08:50:02Z</time>
      </trkpt>
      <trkpt lat="48.61571" lon="7.68349">
        <ele>168.59466553</ele>
        <time>2020-09-20T08:50:06Z</time>
      </trkpt>
      <trkpt lat="48.61581" lon="7.68359">
        <ele>168.59466553</ele>
        <time>2020-09-20T08:50:08Z</time>
      </trkpt>
      <trkpt lat="48.61591" lon="7.68368">
        <ele>168.59466553</ele>
        <time>2020-09-20T08:50:09Z</time>
      </trkpt>
      <trkpt lat="48.61602" lon="7.68377">
        <ele>168.59466553</ele>
        <time>2020-09-20T08:50:11Z</time>
      </trkpt>
      <trkpt lat="48.61612" lon="7.68388">
        <ele>169.30670166</ele>
        <time>2020-09-20T08:50:14Z</time>
      </trkpt>
      <trkpt lat="48.61623" lon="7.68398">
        <ele>169.30670166</ele>
        <time>2020-09-20T08:50:16Z</time>
      </trkpt>
      <trkpt lat="48.61634" lon="7.68406">
        <ele>169.30670166</ele>
        <time>2020-09-20T08:50:17Z</time>
      </trkpt>
      <trkpt lat="48.61644" lon="7.68415">
        <ele>169.30670166</ele>
        <time>2020-09-20T08:50:20Z</time>
      </trkpt>
      <trkpt lat="48.61652" lon="7.68422">
        <ele>170.21725464</ele>
        <time>2020-09-20T08:50:21Z</time>
      </trkpt>
      <trkpt lat="48.6166" lon="7.6843">
        <ele>170.21725464</ele>
        <time>2020-09-20T08:50:23Z</time>
      </trkpt>
      <trkpt lat="48.61668" lon="7.68441">
        <ele>170.21725464</ele>
        <time>2020-09-20T08:50:24Z</time>
      </trkpt>
      <trkpt lat="48.61677" lon="7.68455">
        <ele>170.21725464</ele>
        <time>2020-09-20T08:50:26Z</time>
      </trkpt>
      <trkpt lat="48.61686" lon="7.68467">
        <ele>170.21725464</ele>
        <time>2020-09-20T08:50:28Z</time>
      </trkpt>
      <trkpt lat="48.61695" lon="7.68479">
        <ele>170.21725464</ele>
        <time>2020-09-20T08:50:30Z</time>
      </trkpt>
      <trkpt lat="48.61702" lon="7.68493">
        <ele>170.21725464</ele>
        <time>2020-09-20T08:50:32Z</time>
      </trkpt>
      <trkpt lat="48.61712" lon="7.68504">
        <ele>170.21725464</ele>
        <time>2020-09-20T08:50:34Z</time>
      </trkpt>
      <trkpt lat="48.61723" lon="7.68515">
        <ele>170.21725464</ele>
        <time>2020-09-20T08:50:37Z</time>
      </trkpt>
      <trkpt lat="48.61732" lon="7.68528">
        <ele>170.21725464</ele>
        <time>2020-09-20T08:50:38Z</time>
      </trkpt>
      <trkpt lat="48.61741" lon="7.6854">
        <ele>170.21725464</ele>
        <time>2020-09-20T08:50:40Z</time>
      </trkpt>
      <trkpt lat="48.61751" lon="7.68554">
        <ele>170.21725464</ele>
        <time>2020-09-20T08:50:42Z</time>
      </trkpt>
      <trkpt lat="48.61762" lon="7.68567">
        <ele>170.55026245</ele>
        <time>2020-09-20T08:50:44Z</time>
      </trkpt>
      <trkpt lat="48.61773" lon="7.6858">
        <ele>170.55026245</ele>
        <time>2020-09-20T08:50:46Z</time>
      </trkpt>
      <trkpt lat="48.61784" lon="7.68592">
        <ele>168.53762817</ele>
        <time>2020-09-20T08:50:48Z</time>
      </trkpt>
      <trkpt lat="48.61798" lon="7.68598">
        <ele>168.53762817</ele>
        <time>2020-09-20T08:50:50Z</time>
      </trkpt>
      <trkpt lat="48.61811" lon="7.68603">
        <ele>167.34112549</ele>
        <time>2020-09-20T08:50:53Z</time>
      </trkpt>
      <trkpt lat="48.61826" lon="7.68607">
        <ele>167.34112549</ele>
        <time>2020-09-20T08:50:54Z</time>
      </trkpt>
      <trkpt lat="48.6184" lon="7.68612">
        <ele>166.30749512</ele>
        <time>2020-09-20T08:50:56Z</time>
      </trkpt>
      <trkpt lat="48.61855" lon="7.68618">
        <ele>166.30749512</ele>
        <time>2020-09-20T08:50:58Z</time>
      </trkpt>
      <trkpt lat="48.61865" lon="7.68629">
        <ele>166.30749512</ele>
        <time>2020-09-20T08:51:00Z</time>
      </trkpt>
      <trkpt lat="48.61871" lon="7.68643">
        <ele>166.30749512</ele>
        <time>2020-09-20T08:51:02Z</time>
      </trkpt>
      <trkpt lat="48.61878" lon="7.68657">
        <ele>166.30749512</ele>
        <time>2020-09-20T08:51:04Z</time>
      </trkpt>
      <trkpt lat="48.61884" lon="7.6867">
        <ele>166.30749512</ele>
        <time>2020-09-20T08:51:07Z</time>
      </trkpt>
      <trkpt lat="48.6189" lon="7.68683">
        <ele>166.30749512</ele>
        <time>2020-09-20T08:51:08Z</time>
      </trkpt>
      <trkpt lat="48.61896" lon="7.68699">
        <ele>166.30749512</ele>
        <time>2020-09-20T08:51:11Z</time>
      </trkpt>
      <trkpt lat="48.619" lon="7.68715">
        <ele>166.30749512</ele>
        <time>2020-09-20T08:51:12Z</time>
      </trkpt>
      <trkpt lat="48.61903" lon="7.68732">
        <ele>166.30749512</ele>
        <time>2020-09-20T08:51:14Z</time>
      </trkpt>
      <trkpt lat="48.61904" lon="7.68751">
        <ele>166.30749512</ele>
        <time>2020-09-20T08:51:17Z</time>
      </trkpt>
      <trkpt lat="48.61907" lon="7.68768">
        <ele>166.30749512</ele>
        <time>2020-09-20T08:51:18Z</time>
      </trkpt>
      <trkpt lat="48.61908" lon="7.68785">
        <ele>166.30749512</ele>
        <time>2020-09-20T08:51:21Z</time>
      </trkpt>
      <trkpt lat="48.61907" lon="7.68804">
        <ele>165.61842346</ele>
        <time>2020-09-20T08:51:22Z</time>
      </trkpt>
      <trkpt lat="48.61906" lon="7.68822">
        <ele>165.61842346</ele>
        <time>2020-09-20T08:51:24Z</time>
      </trkpt>
      <trkpt lat="48.61905" lon="7.68841">
        <ele>165.61842346</ele>
        <time>2020-09-20T08:51:26Z</time>
      </trkpt>
      <trkpt lat="48.61905" lon="7.68862">
        <ele>165.61842346</ele>
        <time>2020-09-20T08:51:28Z</time>
      </trkpt>
      <trkpt lat="48.61905" lon="7.68879">
        <ele>165.61842346</ele>
        <time>2020-09-20T08:51:30Z</time>
      </trkpt>
      <trkpt lat="48.61905" lon="7.68896">
        <ele>165.61842346</ele>
        <time>2020-09-20T08:51:33Z</time>
      </trkpt>
      <trkpt lat="48.61903" lon="7.68915">
        <ele>165.61842346</ele>
        <time>2020-09-20T08:51:34Z</time>
      </trkpt>
      <trkpt lat="48.61904" lon="7.68933">
        <ele>165.61842346</ele>
        <time>2020-09-20T08:51:36Z</time>
      </trkpt>
      <trkpt lat="48.61905" lon="7.6895">
        <ele>165.61842346</ele>
        <time>2020-09-20T08:51:38Z</time>
      </trkpt>
      <trkpt lat="48.61903" lon="7.68968">
        <ele>165.61842346</ele>
        <time>2020-09-20T08:51:41Z</time>
      </trkpt>
      <trkpt lat="48.61902" lon="7.68987">
        <ele>165.61842346</ele>
        <time>2020-09-20T08:51:42Z</time>
      </trkpt>
      <trkpt lat="48.61901" lon="7.69005">
        <ele>165.61842346</ele>
        <time>2020-09-20T08:51:44Z</time>
      </trkpt>
      <trkpt lat="48.61902" lon="7.69025">
        <ele>165.61842346</ele>
        <time>2020-09-20T08:51:46Z</time>
      </trkpt>
      <trkpt lat="48.61903" lon="7.69045">
        <ele>165.61842346</ele>
        <time>2020-09-20T08:51:48Z</time>
      </trkpt>
      <trkpt lat="48.61904" lon="7.69066">
        <ele>165.61842346</ele>
        <time>2020-09-20T08:51:50Z</time>
      </trkpt>
      <trkpt lat="48.61909" lon="7.69083">
        <ele>166.40724182</ele>
        <time>2020-09-20T08:51:53Z</time>
      </trkpt>
      <trkpt lat="48.61918" lon="7.69098">
        <ele>166.40724182</ele>
        <time>2020-09-20T08:51:54Z</time>
      </trkpt>
      <trkpt lat="48.61927" lon="7.6911">
        <ele>166.40724182</ele>
        <time>2020-09-20T08:51:56Z</time>
      </trkpt>
      <trkpt lat="48.61939" lon="7.69115">
        <ele>166.40724182</ele>
        <time>2020-09-20T08:51:58Z</time>
      </trkpt>
      <trkpt lat="48.61949" lon="7.69115">
        <ele>166.40724182</ele>
        <time>2020-09-20T08:52:00Z</time>
      </trkpt>
      <trkpt lat="48.6196" lon="7.69112">
        <ele>166.40724182</ele>
        <time>2020-09-20T08:52:03Z</time>
      </trkpt>
      <trkpt lat="48.61968" lon="7.69114">
        <ele>165.28277588</ele>
        <time>2020-09-20T08:52:23Z</time>
      </trkpt>
      <trkpt lat="48.61971" lon="7.69117">
        <ele>165.28277588</ele>
        <time>2020-09-20T08:52:27Z</time>
      </trkpt>
      <trkpt lat="48.61985" lon="7.69117">
        <ele>165.28277588</ele>
        <time>2020-09-20T08:52:31Z</time>
      </trkpt>
      <trkpt lat="48.61995" lon="7.6911">
        <ele>165.28277588</ele>
        <time>2020-09-20T08:52:33Z</time>
      </trkpt>
      <trkpt lat="48.62003" lon="7.69103">
        <ele>165.28277588</ele>
        <time>2020-09-20T08:52:34Z</time>
      </trkpt>
      <trkpt lat="48.6201" lon="7.69095">
        <ele>165.28277588</ele>
        <time>2020-09-20T08:52:36Z</time>
      </trkpt>
      <trkpt lat="48.62019" lon="7.6909">
        <ele>166.00236511</ele>
        <time>2020-09-20T08:52:39Z</time>
      </trkpt>
      <trkpt lat="48.62028" lon="7.69085">
        <ele>166.00236511</ele>
        <time>2020-09-20T08:52:40Z</time>
      </trkpt>
      <trkpt lat="48.62037" lon="7.6908">
        <ele>167.75616455</ele>
        <time>2020-09-20T08:52:42Z</time>
      </trkpt>
      <trkpt lat="48.62046" lon="7.69072">
        <ele>167.75616455</ele>
        <time>2020-09-20T08:52:45Z</time>
      </trkpt>
      <trkpt lat="48.62058" lon="7.69062">
        <ele>168.93240356</ele>
        <time>2020-09-20T08:52:48Z</time>
      </trkpt>
      <trkpt lat="48.62068" lon="7.69053">
        <ele>168.93240356</ele>
        <time>2020-09-20T08:52:52Z</time>
      </trkpt>
      <trkpt lat="48.62079" lon="7.69045">
        <ele>170.05207825</ele>
        <time>2020-09-20T08:52:53Z</time>
      </trkpt>
      <trkpt lat="48.62088" lon="7.69039">
        <ele>170.05207825</ele>
        <time>2020-09-20T08:52:55Z</time>
      </trkpt>
      <trkpt lat="48.62097" lon="7.69032">
        <ele>170.05207825</ele>
        <time>2020-09-20T08:52:57Z</time>
      </trkpt>
      <trkpt lat="48.62106" lon="7.69026">
        <ele>170.05207825</ele>
        <time>2020-09-20T08:52:59Z</time>
      </trkpt>
      <trkpt lat="48.62114" lon="7.69021">
        <ele>171.22134399</ele>
        <time>2020-09-20T08:53:01Z</time>
      </trkpt>
      <trkpt lat="48.62124" lon="7.69016">
        <ele>171.22134399</ele>
        <time>2020-09-20T08:53:04Z</time>
      </trkpt>
      <trkpt lat="48.62135" lon="7.69008">
        <ele>171.22134399</ele>
        <time>2020-09-20T08:53:07Z</time>
      </trkpt>
      <trkpt lat="48.62144" lon="7.69002">
        <ele>172.03843689</ele>
        <time>2020-09-20T08:53:10Z</time>
      </trkpt>
      <trkpt lat="48.62153" lon="7.68994">
        <ele>172.03843689</ele>
        <time>2020-09-20T08:53:13Z</time>
      </trkpt>
      <trkpt lat="48.62161" lon="7.68998">
        <ele>172.03843689</ele>
        <time>2020-09-20T08:53:16Z</time>
      </trkpt>
      <trkpt lat="48.62172" lon="7.69006">
        <ele>172.03843689</ele>
        <time>2020-09-20T08:53:18Z</time>
      </trkpt>
      <trkpt lat="48.6218" lon="7.69011">
        <ele>173.25152588</ele>
        <time>2020-09-20T08:53:21Z</time>
      </trkpt>
      <trkpt lat="48.6219" lon="7.69014">
        <ele>173.25152588</ele>
        <time>2020-09-20T08:53:23Z</time>
      </trkpt>
      <trkpt lat="48.62201" lon="7.69022">
        <ele>173.25152588</ele>
        <time>2020-09-20T08:53:26Z</time>
      </trkpt>
      <trkpt lat="48.62211" lon="7.69031">
        <ele>173.25152588</ele>
        <time>2020-09-20T08:53:28Z</time>
      </trkpt>
      <trkpt lat="48.62217" lon="7.69047">
        <ele>173.25152588</ele>
        <time>2020-09-20T08:53:31Z</time>
      </trkpt>
      <trkpt lat="48.62223" lon="7.69062">
        <ele>173.25152588</ele>
        <time>2020-09-20T08:53:33Z</time>
      </trkpt>
      <trkpt lat="48.62228" lon="7.69076">
        <ele>173.25152588</ele>
        <time>2020-09-20T08:53:34Z</time>
      </trkpt>
      <trkpt lat="48.62233" lon="7.69092">
        <ele>173.25152588</ele>
        <time>2020-09-20T08:53:36Z</time>
      </trkpt>
      <trkpt lat="48.62238" lon="7.69106">
        <ele>173.25152588</ele>
        <time>2020-09-20T08:53:38Z</time>
      </trkpt>
      <trkpt lat="48.62243" lon="7.69121">
        <ele>173.25152588</ele>
        <time>2020-09-20T08:53:40Z</time>
      </trkpt>
      <trkpt lat="48.62249" lon="7.69136">
        <ele>173.25152588</ele>
        <time>2020-09-20T08:53:42Z</time>
      </trkpt>
      <trkpt lat="48.62254" lon="7.69151">
        <ele>172.86160278</ele>
        <time>2020-09-20T08:53:44Z</time>
      </trkpt>
      <trkpt lat="48.62259" lon="7.69165">
        <ele>172.86160278</ele>
        <time>2020-09-20T08:53:46Z</time>
      </trkpt>
      <trkpt lat="48.62269" lon="7.69181">
        <ele>171.37957764</ele>
        <time>2020-09-20T08:53:48Z</time>
      </trkpt>
      <trkpt lat="48.62281" lon="7.69186">
        <ele>170.27755737</ele>
        <time>2020-09-20T08:53:50Z</time>
      </trkpt>
      <trkpt lat="48.62297" lon="7.69184">
        <ele>170.27755737</ele>
        <time>2020-09-20T08:53:52Z</time>
      </trkpt>
      <trkpt lat="48.62312" lon="7.69177">
        <ele>168.92082214</ele>
        <time>2020-09-20T08:53:54Z</time>
      </trkpt>
      <trkpt lat="48.62326" lon="7.69165">
        <ele>168.92082214</ele>
        <time>2020-09-20T08:53:57Z</time>
      </trkpt>
      <trkpt lat="48.62339" lon="7.69154">
        <ele>168.92082214</ele>
        <time>2020-09-20T08:53:58Z</time>
      </trkpt>
      <trkpt lat="48.62352" lon="7.69142">
        <ele>168.08262634</ele>
        <time>2020-09-20T08:54:01Z</time>
      </trkpt>
      <trkpt lat="48.62363" lon="7.69131">
        <ele>168.08262634</ele>
        <time>2020-09-20T08:54:03Z</time>
      </trkpt>
      <trkpt lat="48.62374" lon="7.6912">
        <ele>168.08262634</ele>
        <time>2020-09-20T08:54:04Z</time>
      </trkpt>
      <trkpt lat="48.62385" lon="7.69112">
        <ele>166.93357849</ele>
        <time>2020-09-20T08:54:06Z</time>
      </trkpt>
      <trkpt lat="48.62396" lon="7.69104">
        <ele>166.93357849</ele>
        <time>2020-09-20T08:54:08Z</time>
      </trkpt>
      <trkpt lat="48.62407" lon="7.69098">
        <ele>165.51100159</ele>
        <time>2020-09-20T08:54:10Z</time>
      </trkpt>
      <trkpt lat="48.62422" lon="7.69097">
        <ele>164.23455811</ele>
        <time>2020-09-20T08:54:12Z</time>
      </trkpt>
      <trkpt lat="48.62436" lon="7.69097">
        <ele>164.23455811</ele>
        <time>2020-09-20T08:54:13Z</time>
      </trkpt>
      <trkpt lat="48.62448" lon="7.69097">
        <ele>164.23455811</ele>
        <time>2020-09-20T08:54:15Z</time>
      </trkpt>
      <trkpt lat="48.62465" lon="7.69101">
        <ele>163.08831787</ele>
        <time>2020-09-20T08:54:17Z</time>
      </trkpt>
      <trkpt lat="48.6248" lon="7.69112">
        <ele>163.08831787</ele>
        <time>2020-09-20T08:54:20Z</time>
      </trkpt>
      <trkpt lat="48.62491" lon="7.69122">
        <ele>161.47634888</ele>
        <time>2020-09-20T08:54:21Z</time>
      </trkpt>
      <trkpt lat="48.625" lon="7.69133">
        <ele>161.47634888</ele>
        <time>2020-09-20T08:54:22Z</time>
      </trkpt>
      <trkpt lat="48.62511" lon="7.69153">
        <ele>161.47634888</ele>
        <time>2020-09-20T08:54:24Z</time>
      </trkpt>
      <trkpt lat="48.62518" lon="7.69174">
        <ele>161.47634888</ele>
        <time>2020-09-20T08:54:26Z</time>
      </trkpt>
      <trkpt lat="48.62524" lon="7.69192">
        <ele>161.47634888</ele>
        <time>2020-09-20T08:54:28Z</time>
      </trkpt>
      <trkpt lat="48.62526" lon="7.69212">
        <ele>161.47634888</ele>
        <time>2020-09-20T08:54:30Z</time>
      </trkpt>
      <trkpt lat="48.62533" lon="7.69229">
        <ele>161.47634888</ele>
        <time>2020-09-20T08:54:32Z</time>
      </trkpt>
      <trkpt lat="48.6254" lon="7.69241">
        <ele>161.29492188</ele>
        <time>2020-09-20T08:54:34Z</time>
      </trkpt>
      <trkpt lat="48.62547" lon="7.69254">
        <ele>161.29492188</ele>
        <time>2020-09-20T08:54:36Z</time>
      </trkpt>
      <trkpt lat="48.62554" lon="7.69267">
        <ele>163.50231934</ele>
        <time>2020-09-20T08:54:40Z</time>
      </trkpt>
      <trkpt lat="48.62561" lon="7.69282">
        <ele>163.50231934</ele>
        <time>2020-09-20T08:54:41Z</time>
      </trkpt>
      <trkpt lat="48.62568" lon="7.69292">
        <ele>163.50231934</ele>
        <time>2020-09-20T08:54:43Z</time>
      </trkpt>
      <trkpt lat="48.62574" lon="7.69303">
        <ele>163.50231934</ele>
        <time>2020-09-20T08:54:45Z</time>
      </trkpt>
      <trkpt lat="48.62582" lon="7.69314">
        <ele>164.59342957</ele>
        <time>2020-09-20T08:54:48Z</time>
      </trkpt>
      <trkpt lat="48.62589" lon="7.69325">
        <ele>164.59342957</ele>
        <time>2020-09-20T08:54:49Z</time>
      </trkpt>
      <trkpt lat="48.62595" lon="7.69336">
        <ele>164.59342957</ele>
        <time>2020-09-20T08:54:51Z</time>
      </trkpt>
      <trkpt lat="48.62601" lon="7.69349">
        <ele>164.59342957</ele>
        <time>2020-09-20T08:54:53Z</time>
      </trkpt>
      <trkpt lat="48.62607" lon="7.69362">
        <ele>165.58053589</ele>
        <time>2020-09-20T08:54:56Z</time>
      </trkpt>
      <trkpt lat="48.62616" lon="7.69376">
        <ele>165.58053589</ele>
        <time>2020-09-20T08:54:58Z</time>
      </trkpt>
      <trkpt lat="48.62617" lon="7.69393">
        <ele>165.58053589</ele>
        <time>2020-09-20T08:55:00Z</time>
      </trkpt>
      <trkpt lat="48.6262" lon="7.69408">
        <ele>166.55711365</ele>
        <time>2020-09-20T08:55:02Z</time>
      </trkpt>
      <trkpt lat="48.62625" lon="7.6942">
        <ele>166.55711365</ele>
        <time>2020-09-20T08:55:04Z</time>
      </trkpt>
      <trkpt lat="48.62633" lon="7.69432">
        <ele>166.55711365</ele>
        <time>2020-09-20T08:55:07Z</time>
      </trkpt>
      <trkpt lat="48.62643" lon="7.69442">
        <ele>167.8850708</ele>
        <time>2020-09-20T08:55:10Z</time>
      </trkpt>
      <trkpt lat="48.62653" lon="7.69447">
        <ele>167.8850708</ele>
        <time>2020-09-20T08:55:12Z</time>
      </trkpt>
      <trkpt lat="48.62665" lon="7.69451">
        <ele>167.8850708</ele>
        <time>2020-09-20T08:55:15Z</time>
      </trkpt>
      <trkpt lat="48.62679" lon="7.69457">
        <ele>167.8850708</ele>
        <time>2020-09-20T08:55:17Z</time>
      </trkpt>
      <trkpt lat="48.6269" lon="7.69462">
        <ele>168.87117004</ele>
        <time>2020-09-20T08:55:19Z</time>
      </trkpt>
      <trkpt lat="48.62698" lon="7.69467">
        <ele>169.4697876</ele>
        <time>2020-09-20T08:55:21Z</time>
      </trkpt>
      <trkpt lat="48.62707" lon="7.69473">
        <ele>169.4697876</ele>
        <time>2020-09-20T08:55:22Z</time>
      </trkpt>
      <trkpt lat="48.62714" lon="7.69484">
        <ele>169.4697876</ele>
        <time>2020-09-20T08:55:24Z</time>
      </trkpt>
      <trkpt lat="48.6272" lon="7.69499">
        <ele>169.4697876</ele>
        <time>2020-09-20T08:55:26Z</time>
      </trkpt>
      <trkpt lat="48.62725" lon="7.69516">
        <ele>168.86895752</ele>
        <time>2020-09-20T08:55:28Z</time>
      </trkpt>
      <trkpt lat="48.62731" lon="7.69535">
        <ele>167.20419312</ele>
        <time>2020-09-20T08:55:30Z</time>
      </trkpt>
      <trkpt lat="48.62739" lon="7.69557">
        <ele>167.20419312</ele>
        <time>2020-09-20T08:55:32Z</time>
      </trkpt>
      <trkpt lat="48.62747" lon="7.69577">
        <ele>165.88548279</ele>
        <time>2020-09-20T08:55:34Z</time>
      </trkpt>
      <trkpt lat="48.62758" lon="7.69597">
        <ele>164.46937561</ele>
        <time>2020-09-20T08:55:36Z</time>
      </trkpt>
      <trkpt lat="48.62771" lon="7.69613">
        <ele>164.46937561</ele>
        <time>2020-09-20T08:55:38Z</time>
      </trkpt>
      <trkpt lat="48.62783" lon="7.69625">
        <ele>163.29811096</ele>
        <time>2020-09-20T08:55:40Z</time>
      </trkpt>
      <trkpt lat="48.62794" lon="7.69635">
        <ele>163.29811096</ele>
        <time>2020-09-20T08:55:41Z</time>
      </trkpt>
      <trkpt lat="48.62808" lon="7.69648">
        <ele>162.23269653</ele>
        <time>2020-09-20T08:55:43Z</time>
      </trkpt>
      <trkpt lat="48.62823" lon="7.69661">
        <ele>162.23269653</ele>
        <time>2020-09-20T08:55:45Z</time>
      </trkpt>
      <trkpt lat="48.62839" lon="7.69671">
        <ele>161.14837646</ele>
        <time>2020-09-20T08:55:47Z</time>
      </trkpt>
      <trkpt lat="48.62856" lon="7.69682">
        <ele>161.14837646</ele>
        <time>2020-09-20T08:55:49Z</time>
      </trkpt>
      <trkpt lat="48.6287" lon="7.69694">
        <ele>161.14837646</ele>
        <time>2020-09-20T08:55:51Z</time>
      </trkpt>
      <trkpt lat="48.62883" lon="7.69709">
        <ele>161.14837646</ele>
        <time>2020-09-20T08:55:53Z</time>
      </trkpt>
      <trkpt lat="48.62894" lon="7.69726">
        <ele>161.14837646</ele>
        <time>2020-09-20T08:55:55Z</time>
      </trkpt>
      <trkpt lat="48.62906" lon="7.6974">
        <ele>159.9604187</ele>
        <time>2020-09-20T08:55:58Z</time>
      </trkpt>
      <trkpt lat="48.6292" lon="7.69753">
        <ele>159.9604187</ele>
        <time>2020-09-20T08:55:59Z</time>
      </trkpt>
      <trkpt lat="48.62933" lon="7.69764">
        <ele>159.9604187</ele>
        <time>2020-09-20T08:56:01Z</time>
      </trkpt>
      <trkpt lat="48.62946" lon="7.69775">
        <ele>159.9604187</ele>
        <time>2020-09-20T08:56:03Z</time>
      </trkpt>
      <trkpt lat="48.62959" lon="7.69786">
        <ele>159.9604187</ele>
        <time>2020-09-20T08:56:05Z</time>
      </trkpt>
      <trkpt lat="48.62972" lon="7.69798">
        <ele>159.9604187</ele>
        <time>2020-09-20T08:56:07Z</time>
      </trkpt>
      <trkpt lat="48.62985" lon="7.69809">
        <ele>159.9604187</ele>
        <time>2020-09-20T08:56:09Z</time>
      </trkpt>
      <trkpt lat="48.62997" lon="7.69821">
        <ele>159.9604187</ele>
        <time>2020-09-20T08:56:11Z</time>
      </trkpt>
      <trkpt lat="48.63007" lon="7.69835">
        <ele>159.9604187</ele>
        <time>2020-09-20T08:56:13Z</time>
      </trkpt>
      <trkpt lat="48.63015" lon="7.69852">
        <ele>159.9604187</ele>
        <time>2020-09-20T08:56:15Z</time>
      </trkpt>
      <trkpt lat="48.63024" lon="7.6987">
        <ele>159.9604187</ele>
        <time>2020-09-20T08:56:17Z</time>
      </trkpt>
      <trkpt lat="48.63031" lon="7.69885">
        <ele>159.9604187</ele>
        <time>2020-09-20T08:56:19Z</time>
      </trkpt>
      <trkpt lat="48.63036" lon="7.69896">
        <ele>159.97477722</ele>
        <time>2020-09-20T08:56:21Z</time>
      </trkpt>
      <trkpt lat="48.63043" lon="7.69908">
        <ele>159.97477722</ele>
        <time>2020-09-20T08:56:22Z</time>
      </trkpt>
      <trkpt lat="48.63054" lon="7.69922">
        <ele>159.97477722</ele>
        <time>2020-09-20T08:56:24Z</time>
      </trkpt>
      <trkpt lat="48.63063" lon="7.69937">
        <ele>159.97477722</ele>
        <time>2020-09-20T08:56:26Z</time>
      </trkpt>
      <trkpt lat="48.63073" lon="7.69951">
        <ele>159.97477722</ele>
        <time>2020-09-20T08:56:28Z</time>
      </trkpt>
      <trkpt lat="48.63083" lon="7.69964">
        <ele>159.97477722</ele>
        <time>2020-09-20T08:56:30Z</time>
      </trkpt>
      <trkpt lat="48.63094" lon="7.69979">
        <ele>159.97477722</ele>
        <time>2020-09-20T08:56:32Z</time>
      </trkpt>
      <trkpt lat="48.63105" lon="7.69993">
        <ele>159.97477722</ele>
        <time>2020-09-20T08:56:34Z</time>
      </trkpt>
      <trkpt lat="48.63115" lon="7.70005">
        <ele>159.97477722</ele>
        <time>2020-09-20T08:56:36Z</time>
      </trkpt>
      <trkpt lat="48.63125" lon="7.70017">
        <ele>159.9493866</ele>
        <time>2020-09-20T08:56:38Z</time>
      </trkpt>
      <trkpt lat="48.63137" lon="7.70029">
        <ele>159.9493866</ele>
        <time>2020-09-20T08:56:40Z</time>
      </trkpt>
      <trkpt lat="48.63149" lon="7.70041">
        <ele>159.9493866</ele>
        <time>2020-09-20T08:56:42Z</time>
      </trkpt>
      <trkpt lat="48.6316" lon="7.70053">
        <ele>158.60231018</ele>
        <time>2020-09-20T08:56:44Z</time>
      </trkpt>
      <trkpt lat="48.63172" lon="7.70066">
        <ele>158.60231018</ele>
        <time>2020-09-20T08:56:46Z</time>
      </trkpt>
      <trkpt lat="48.63183" lon="7.70081">
        <ele>158.60231018</ele>
        <time>2020-09-20T08:56:48Z</time>
      </trkpt>
      <trkpt lat="48.63196" lon="7.70096">
        <ele>158.60231018</ele>
        <time>2020-09-20T08:56:50Z</time>
      </trkpt>
      <trkpt lat="48.63208" lon="7.70107">
        <ele>158.60231018</ele>
        <time>2020-09-20T08:56:52Z</time>
      </trkpt>
      <trkpt lat="48.63218" lon="7.70117">
        <ele>158.60231018</ele>
        <time>2020-09-20T08:56:54Z</time>
      </trkpt>
      <trkpt lat="48.63227" lon="7.70128">
        <ele>158.60231018</ele>
        <time>2020-09-20T08:56:56Z</time>
      </trkpt>
      <trkpt lat="48.63236" lon="7.7014">
        <ele>158.60231018</ele>
        <time>2020-09-20T08:56:58Z</time>
      </trkpt>
      <trkpt lat="48.63247" lon="7.70149">
        <ele>158.60231018</ele>
        <time>2020-09-20T08:57:00Z</time>
      </trkpt>
      <trkpt lat="48.63256" lon="7.70161">
        <ele>158.60231018</ele>
        <time>2020-09-20T08:57:03Z</time>
      </trkpt>
      <trkpt lat="48.63268" lon="7.70172">
        <ele>158.60231018</ele>
        <time>2020-09-20T08:57:04Z</time>
      </trkpt>
      <trkpt lat="48.63279" lon="7.70183">
        <ele>158.60231018</ele>
        <time>2020-09-20T08:57:06Z</time>
      </trkpt>
      <trkpt lat="48.63292" lon="7.70195">
        <ele>158.60231018</ele>
        <time>2020-09-20T08:57:08Z</time>
      </trkpt>
      <trkpt lat="48.63303" lon="7.70206">
        <ele>158.60231018</ele>
        <time>2020-09-20T08:57:10Z</time>
      </trkpt>
      <trkpt lat="48.63313" lon="7.70216">
        <ele>158.60231018</ele>
        <time>2020-09-20T08:57:12Z</time>
      </trkpt>
      <trkpt lat="48.63322" lon="7.70226">
        <ele>158.60231018</ele>
        <time>2020-09-20T08:57:14Z</time>
      </trkpt>
      <trkpt lat="48.63334" lon="7.70238">
        <ele>158.60231018</ele>
        <time>2020-09-20T08:57:16Z</time>
      </trkpt>
      <trkpt lat="48.63345" lon="7.7025">
        <ele>158.60231018</ele>
        <time>2020-09-20T08:57:18Z</time>
      </trkpt>
      <trkpt lat="48.63359" lon="7.70265">
        <ele>157.94212341</ele>
        <time>2020-09-20T08:57:21Z</time>
      </trkpt>
      <trkpt lat="48.63367" lon="7.70272">
        <ele>157.94212341</ele>
        <time>2020-09-20T08:57:22Z</time>
      </trkpt>
      <trkpt lat="48.63377" lon="7.70284">
        <ele>157.94212341</ele>
        <time>2020-09-20T08:57:24Z</time>
      </trkpt>
      <trkpt lat="48.63388" lon="7.70294">
        <ele>157.94212341</ele>
        <time>2020-09-20T08:57:26Z</time>
      </trkpt>
      <trkpt lat="48.63398" lon="7.70305">
        <ele>157.94212341</ele>
        <time>2020-09-20T08:57:28Z</time>
      </trkpt>
      <trkpt lat="48.63409" lon="7.70316">
        <ele>157.94212341</ele>
        <time>2020-09-20T08:57:30Z</time>
      </trkpt>
      <trkpt lat="48.63422" lon="7.70326">
        <ele>157.94212341</ele>
        <time>2020-09-20T08:57:32Z</time>
      </trkpt>
      <trkpt lat="48.63434" lon="7.70337">
        <ele>157.57673645</ele>
        <time>2020-09-20T08:57:34Z</time>
      </trkpt>
      <trkpt lat="48.63446" lon="7.70348">
        <ele>157.57673645</ele>
        <time>2020-09-20T08:57:36Z</time>
      </trkpt>
      <trkpt lat="48.63459" lon="7.70359">
        <ele>157.57673645</ele>
        <time>2020-09-20T08:57:38Z</time>
      </trkpt>
      <trkpt lat="48.63471" lon="7.70368">
        <ele>157.57673645</ele>
        <time>2020-09-20T08:57:40Z</time>
      </trkpt>
      <trkpt lat="48.63482" lon="7.70379">
        <ele>155.88432312</ele>
        <time>2020-09-20T08:57:42Z</time>
      </trkpt>
      <trkpt lat="48.63493" lon="7.7039">
        <ele>155.88432312</ele>
        <time>2020-09-20T08:57:44Z</time>
      </trkpt>
      <trkpt lat="48.63506" lon="7.704">
        <ele>155.88432312</ele>
        <time>2020-09-20T08:57:46Z</time>
      </trkpt>
      <trkpt lat="48.63518" lon="7.7041">
        <ele>155.88432312</ele>
        <time>2020-09-20T08:57:48Z</time>
      </trkpt>
      <trkpt lat="48.63529" lon="7.70417">
        <ele>155.88432312</ele>
        <time>2020-09-20T08:57:50Z</time>
      </trkpt>
      <trkpt lat="48.63541" lon="7.70424">
        <ele>155.88432312</ele>
        <time>2020-09-20T08:57:52Z</time>
      </trkpt>
      <trkpt lat="48.63551" lon="7.70432">
        <ele>155.88432312</ele>
        <time>2020-09-20T08:57:54Z</time>
      </trkpt>
      <trkpt lat="48.6356" lon="7.7044">
        <ele>155.88432312</ele>
        <time>2020-09-20T08:57:56Z</time>
      </trkpt>
      <trkpt lat="48.63568" lon="7.70448">
        <ele>155.88432312</ele>
        <time>2020-09-20T08:57:58Z</time>
      </trkpt>
      <trkpt lat="48.63577" lon="7.70453">
        <ele>155.88432312</ele>
        <time>2020-09-20T08:58:00Z</time>
      </trkpt>
      <trkpt lat="48.63586" lon="7.70459">
        <ele>155.88432312</ele>
        <time>2020-09-20T08:58:02Z</time>
      </trkpt>
      <trkpt lat="48.63596" lon="7.70467">
        <ele>155.13441467</ele>
        <time>2020-09-20T08:58:04Z</time>
      </trkpt>
      <trkpt lat="48.63606" lon="7.70475">
        <ele>155.13441467</ele>
        <time>2020-09-20T08:58:06Z</time>
      </trkpt>
      <trkpt lat="48.63615" lon="7.70478">
        <ele>153.82510376</ele>
        <time>2020-09-20T08:58:08Z</time>
      </trkpt>
      <trkpt lat="48.63623" lon="7.70488">
        <ele>153.82510376</ele>
        <time>2020-09-20T08:58:11Z</time>
      </trkpt>
      <trkpt lat="48.63632" lon="7.70496">
        <ele>153.82510376</ele>
        <time>2020-09-20T08:58:12Z</time>
      </trkpt>
      <trkpt lat="48.63642" lon="7.70499">
        <ele>153.82510376</ele>
        <time>2020-09-20T08:58:14Z</time>
      </trkpt>
      <trkpt lat="48.63652" lon="7.70501">
        <ele>153.82510376</ele>
        <time>2020-09-20T08:58:16Z</time>
      </trkpt>
      <trkpt lat="48.63663" lon="7.70503">
        <ele>153.82510376</ele>
        <time>2020-09-20T08:58:18Z</time>
      </trkpt>
      <trkpt lat="48.63675" lon="7.70505">
        <ele>153.25843811</ele>
        <time>2020-09-20T08:58:21Z</time>
      </trkpt>
      <trkpt lat="48.63683" lon="7.70506">
        <ele>153.25843811</ele>
        <time>2020-09-20T08:58:22Z</time>
      </trkpt>
      <trkpt lat="48.63694" lon="7.70508">
        <ele>153.25843811</ele>
        <time>2020-09-20T08:58:25Z</time>
      </trkpt>
      <trkpt lat="48.63704" lon="7.70511">
        <ele>153.25843811</ele>
        <time>2020-09-20T08:58:26Z</time>
      </trkpt>
      <trkpt lat="48.63713" lon="7.70514">
        <ele>153.25843811</ele>
        <time>2020-09-20T08:58:29Z</time>
      </trkpt>
      <trkpt lat="48.63722" lon="7.70519">
        <ele>153.25843811</ele>
        <time>2020-09-20T08:58:31Z</time>
      </trkpt>
      <trkpt lat="48.63731" lon="7.70525">
        <ele>153.25843811</ele>
        <time>2020-09-20T08:58:32Z</time>
      </trkpt>
      <trkpt lat="48.6374" lon="7.70529">
        <ele>153.25843811</ele>
        <time>2020-09-20T08:58:34Z</time>
      </trkpt>
      <trkpt lat="48.6375" lon="7.70533">
        <ele>153.25843811</ele>
        <time>2020-09-20T08:58:36Z</time>
      </trkpt>
      <trkpt lat="48.6376" lon="7.70537">
        <ele>153.25843811</ele>
        <time>2020-09-20T08:58:38Z</time>
      </trkpt>
      <trkpt lat="48.6377" lon="7.70542">
        <ele>153.25843811</ele>
        <time>2020-09-20T08:58:40Z</time>
      </trkpt>
      <trkpt lat="48.63781" lon="7.70546">
        <ele>153.25843811</ele>
        <time>2020-09-20T08:58:42Z</time>
      </trkpt>
      <trkpt lat="48.63791" lon="7.70549">
        <ele>153.25843811</ele>
        <time>2020-09-20T08:58:44Z</time>
      </trkpt>
      <trkpt lat="48.63802" lon="7.70554">
        <ele>153.25843811</ele>
        <time>2020-09-20T08:58:46Z</time>
      </trkpt>
      <trkpt lat="48.63813" lon="7.70556">
        <ele>153.25843811</ele>
        <time>2020-09-20T08:58:48Z</time>
      </trkpt>
      <trkpt lat="48.63825" lon="7.70559">
        <ele>153.25843811</ele>
        <time>2020-09-20T08:58:50Z</time>
      </trkpt>
      <trkpt lat="48.63837" lon="7.70561">
        <ele>153.25843811</ele>
        <time>2020-09-20T08:58:52Z</time>
      </trkpt>
      <trkpt lat="48.63847" lon="7.70562">
        <ele>153.25843811</ele>
        <time>2020-09-20T08:58:55Z</time>
      </trkpt>
      <trkpt lat="48.63858" lon="7.70564">
        <ele>153.25843811</ele>
        <time>2020-09-20T08:58:56Z</time>
      </trkpt>
      <trkpt lat="48.6387" lon="7.70564">
        <ele>153.25843811</ele>
        <time>2020-09-20T08:58:58Z</time>
      </trkpt>
      <trkpt lat="48.63881" lon="7.70565">
        <ele>153.25843811</ele>
        <time>2020-09-20T08:59:00Z</time>
      </trkpt>
      <trkpt lat="48.63892" lon="7.70565">
        <ele>153.25843811</ele>
        <time>2020-09-20T08:59:03Z</time>
      </trkpt>
      <trkpt lat="48.63903" lon="7.70564">
        <ele>153.25843811</ele>
        <time>2020-09-20T08:59:05Z</time>
      </trkpt>
      <trkpt lat="48.63912" lon="7.70564">
        <ele>153.25843811</ele>
        <time>2020-09-20T08:59:08Z</time>
      </trkpt>
      <trkpt lat="48.63911" lon="7.7056">
        <ele>153.45466614</ele>
        <time>2020-09-20T08:59:22Z</time>
      </trkpt>
      <trkpt lat="48.6391" lon="7.7056">
        <ele>153.45466614</ele>
        <time>2020-09-20T08:59:36Z</time>
      </trkpt>
      <trkpt lat="48.63928" lon="7.70561">
        <ele>153.45466614</ele>
        <time>2020-09-20T08:59:39Z</time>
      </trkpt>
      <trkpt lat="48.63938" lon="7.70568">
        <ele>153.45466614</ele>
        <time>2020-09-20T08:59:42Z</time>
      </trkpt>
      <trkpt lat="48.63947" lon="7.70572">
        <ele>153.85905457</ele>
        <time>2020-09-20T08:59:46Z</time>
      </trkpt>
      <trkpt lat="48.6395" lon="7.70573">
        <ele>155.47850037</ele>
        <time>2020-09-20T09:00:02Z</time>
      </trkpt>
      <trkpt lat="48.63959" lon="7.70595">
        <ele>155.47850037</ele>
        <time>2020-09-20T09:00:05Z</time>
      </trkpt>
      <trkpt lat="48.6396" lon="7.70612">
        <ele>155.47850037</ele>
        <time>2020-09-20T09:00:08Z</time>
      </trkpt>
      <trkpt lat="48.63962" lon="7.70627">
        <ele>155.47850037</ele>
        <time>2020-09-20T09:00:11Z</time>
      </trkpt>
      <trkpt lat="48.63967" lon="7.70639">
        <ele>156.26438904</ele>
        <time>2020-09-20T09:00:14Z</time>
      </trkpt>
      <trkpt lat="48.63977" lon="7.70647">
        <ele>156.26438904</ele>
        <time>2020-09-20T09:00:17Z</time>
      </trkpt>
      <trkpt lat="48.63988" lon="7.70649">
        <ele>156.26438904</ele>
        <time>2020-09-20T09:00:19Z</time>
      </trkpt>
      <trkpt lat="48.64003" lon="7.70647">
        <ele>156.71586609</ele>
        <time>2020-09-20T09:00:22Z</time>
      </trkpt>
      <trkpt lat="48.64013" lon="7.70645">
        <ele>156.71586609</ele>
        <time>2020-09-20T09:00:25Z</time>
      </trkpt>
      <trkpt lat="48.64024" lon="7.7064">
        <ele>156.71586609</ele>
        <time>2020-09-20T09:00:28Z</time>
      </trkpt>
      <trkpt lat="48.64037" lon="7.70636">
        <ele>155.79347229</ele>
        <time>2020-09-20T09:00:30Z</time>
      </trkpt>
      <trkpt lat="48.64047" lon="7.70635">
        <ele>155.79347229</ele>
        <time>2020-09-20T09:00:32Z</time>
      </trkpt>
      <trkpt lat="48.64058" lon="7.70632">
        <ele>155.79347229</ele>
        <time>2020-09-20T09:00:34Z</time>
      </trkpt>
      <trkpt lat="48.64071" lon="7.70628">
        <ele>155.79347229</ele>
        <time>2020-09-20T09:00:36Z</time>
      </trkpt>
      <trkpt lat="48.64081" lon="7.70624">
        <ele>155.79347229</ele>
        <time>2020-09-20T09:00:38Z</time>
      </trkpt>
      <trkpt lat="48.64091" lon="7.70615">
        <ele>155.79347229</ele>
        <time>2020-09-20T09:00:41Z</time>
      </trkpt>
      <trkpt lat="48.641" lon="7.70605">
        <ele>154.73858643</ele>
        <time>2020-09-20T09:00:43Z</time>
      </trkpt>
      <trkpt lat="48.64108" lon="7.70595">
        <ele>154.73858643</ele>
        <time>2020-09-20T09:00:46Z</time>
      </trkpt>
      <trkpt lat="48.64113" lon="7.70584">
        <ele>154.73858643</ele>
        <time>2020-09-20T09:00:47Z</time>
      </trkpt>
      <trkpt lat="48.64119" lon="7.7057">
        <ele>154.73858643</ele>
        <time>2020-09-20T09:00:50Z</time>
      </trkpt>
      <trkpt lat="48.64127" lon="7.70555">
        <ele>153.73291016</ele>
        <time>2020-09-20T09:00:53Z</time>
      </trkpt>
      <trkpt lat="48.64135" lon="7.70549">
        <ele>152.48121643</ele>
        <time>2020-09-20T09:00:57Z</time>
      </trkpt>
      <trkpt lat="48.64147" lon="7.70549">
        <ele>151.0881958</ele>
        <time>2020-09-20T09:00:59Z</time>
      </trkpt>
      <trkpt lat="48.64157" lon="7.70555">
        <ele>148.68812561</ele>
        <time>2020-09-20T09:01:02Z</time>
      </trkpt>
      <trkpt lat="48.64167" lon="7.70565">
        <ele>147.7389679</ele>
        <time>2020-09-20T09:01:06Z</time>
      </trkpt>
      <trkpt lat="48.64177" lon="7.70572">
        <ele>145.39065552</ele>
        <time>2020-09-20T09:01:11Z</time>
      </trkpt>
      <trkpt lat="48.6418" lon="7.70588">
        <ele>145.39065552</ele>
        <time>2020-09-20T09:01:12Z</time>
      </trkpt>
      <trkpt lat="48.6418" lon="7.70606">
        <ele>143.86621094</ele>
        <time>2020-09-20T09:01:14Z</time>
      </trkpt>
      <trkpt lat="48.64181" lon="7.70623">
        <ele>142.17581177</ele>
        <time>2020-09-20T09:01:16Z</time>
      </trkpt>
      <trkpt lat="48.64183" lon="7.7064">
        <ele>140.59957886</ele>
        <time>2020-09-20T09:01:18Z</time>
      </trkpt>
      <trkpt lat="48.64186" lon="7.70664">
        <ele>137.49803162</ele>
        <time>2020-09-20T09:01:21Z</time>
      </trkpt>
      <trkpt lat="48.64189" lon="7.70675">
        <ele>137.49803162</ele>
        <time>2020-09-20T09:01:22Z</time>
      </trkpt>
      <trkpt lat="48.64191" lon="7.70689">
        <ele>136.64770508</ele>
        <time>2020-09-20T09:01:24Z</time>
      </trkpt>
      <trkpt lat="48.64185" lon="7.707">
        <ele>136.64770508</ele>
        <time>2020-09-20T09:01:28Z</time>
      </trkpt>
      <trkpt lat="48.64172" lon="7.70707">
        <ele>135.79779053</ele>
        <time>2020-09-20T09:01:30Z</time>
      </trkpt>
      <trkpt lat="48.6416" lon="7.70717">
        <ele>135.79779053</ele>
        <time>2020-09-20T09:01:32Z</time>
      </trkpt>
      <trkpt lat="48.64152" lon="7.70724">
        <ele>134.78605652</ele>
        <time>2020-09-20T09:01:34Z</time>
      </trkpt>
      <trkpt lat="48.64146" lon="7.70737">
        <ele>133.6328125</ele>
        <time>2020-09-20T09:01:37Z</time>
      </trkpt>
      <trkpt lat="48.64145" lon="7.70755">
        <ele>132.4508667</ele>
        <time>2020-09-20T09:01:39Z</time>
      </trkpt>
      <trkpt lat="48.64145" lon="7.70773">
        <ele>131.40286255</ele>
        <time>2020-09-20T09:01:41Z</time>
      </trkpt>
      <trkpt lat="48.64145" lon="7.70794">
        <ele>130.31585693</ele>
        <time>2020-09-20T09:01:43Z</time>
      </trkpt>
      <trkpt lat="48.64146" lon="7.70813">
        <ele>130.31585693</ele>
        <time>2020-09-20T09:01:45Z</time>
      </trkpt>
      <trkpt lat="48.64148" lon="7.70828">
        <ele>130.31585693</ele>
        <time>2020-09-20T09:01:48Z</time>
      </trkpt>
      <trkpt lat="48.64143" lon="7.70838">
        <ele>129.37023926</ele>
        <time>2020-09-20T09:01:51Z</time>
      </trkpt>
      <trkpt lat="48.6413" lon="7.70841">
        <ele>129.37023926</ele>
        <time>2020-09-20T09:01:54Z</time>
      </trkpt>
      <trkpt lat="48.64121" lon="7.70843">
        <ele>128.31134033</ele>
        <time>2020-09-20T09:01:56Z</time>
      </trkpt>
      <trkpt lat="48.64118" lon="7.70856">
        <ele>128.31134033</ele>
        <time>2020-09-20T09:01:59Z</time>
      </trkpt>
      <trkpt lat="48.6412" lon="7.70874">
        <ele>128.31134033</ele>
        <time>2020-09-20T09:02:01Z</time>
      </trkpt>
      <trkpt lat="48.64124" lon="7.70892">
        <ele>127.26446533</ele>
        <time>2020-09-20T09:02:03Z</time>
      </trkpt>
      <trkpt lat="48.64128" lon="7.70912">
        <ele>127.26446533</ele>
        <time>2020-09-20T09:02:05Z</time>
      </trkpt>
      <trkpt lat="48.64129" lon="7.70931">
        <ele>127.26446533</ele>
        <time>2020-09-20T09:02:07Z</time>
      </trkpt>
      <trkpt lat="48.6413" lon="7.7095">
        <ele>127.26446533</ele>
        <time>2020-09-20T09:02:09Z</time>
      </trkpt>
      <trkpt lat="48.64131" lon="7.70967">
        <ele>127.26446533</ele>
        <time>2020-09-20T09:02:11Z</time>
      </trkpt>
      <trkpt lat="48.64134" lon="7.70983">
        <ele>127.26446533</ele>
        <time>2020-09-20T09:02:13Z</time>
      </trkpt>
      <trkpt lat="48.64135" lon="7.70996">
        <ele>127.26446533</ele>
        <time>2020-09-20T09:02:17Z</time>
      </trkpt>
      <trkpt lat="48.64138" lon="7.71014">
        <ele>125.43035889</ele>
        <time>2020-09-20T09:02:21Z</time>
      </trkpt>
      <trkpt lat="48.64137" lon="7.71025">
        <ele>125.43035889</ele>
        <time>2020-09-20T09:02:23Z</time>
      </trkpt>
      <trkpt lat="48.64138" lon="7.71042">
        <ele>125.43035889</ele>
        <time>2020-09-20T09:02:25Z</time>
      </trkpt>
      <trkpt lat="48.6414" lon="7.71058">
        <ele>125.43035889</ele>
        <time>2020-09-20T09:02:28Z</time>
      </trkpt>
      <trkpt lat="48.64143" lon="7.71079">
        <ele>125.43035889</ele>
        <time>2020-09-20T09:02:31Z</time>
      </trkpt>
      <trkpt lat="48.64144" lon="7.71096">
        <ele>125.43035889</ele>
        <time>2020-09-20T09:02:32Z</time>
      </trkpt>
      <trkpt lat="48.64146" lon="7.71113">
        <ele>125.43035889</ele>
        <time>2020-09-20T09:02:34Z</time>
      </trkpt>
      <trkpt lat="48.64146" lon="7.7113">
        <ele>125.43035889</ele>
        <time>2020-09-20T09:02:36Z</time>
      </trkpt>
      <trkpt lat="48.64149" lon="7.71147">
        <ele>125.43035889</ele>
        <time>2020-09-20T09:02:38Z</time>
      </trkpt>
      <trkpt lat="48.6415" lon="7.71165">
        <ele>125.43035889</ele>
        <time>2020-09-20T09:02:40Z</time>
      </trkpt>
      <trkpt lat="48.64153" lon="7.7118">
        <ele>125.43035889</ele>
        <time>2020-09-20T09:02:42Z</time>
      </trkpt>
      <trkpt lat="48.64155" lon="7.71196">
        <ele>125.43035889</ele>
        <time>2020-09-20T09:02:46Z</time>
      </trkpt>
      <trkpt lat="48.64156" lon="7.71213">
        <ele>125.43035889</ele>
        <time>2020-09-20T09:02:50Z</time>
      </trkpt>
      <trkpt lat="48.64156" lon="7.71232">
        <ele>125.43035889</ele>
        <time>2020-09-20T09:02:52Z</time>
      </trkpt>
      <trkpt lat="48.64156" lon="7.71249">
        <ele>125.43035889</ele>
        <time>2020-09-20T09:02:54Z</time>
      </trkpt>
      <trkpt lat="48.64158" lon="7.71264">
        <ele>125.43035889</ele>
        <time>2020-09-20T09:02:57Z</time>
      </trkpt>
      <trkpt lat="48.64157" lon="7.71279">
        <ele>125.43035889</ele>
        <time>2020-09-20T09:03:09Z</time>
      </trkpt>
      <trkpt lat="48.64157" lon="7.71301">
        <ele>125.43035889</ele>
        <time>2020-09-20T09:03:12Z</time>
      </trkpt>
      <trkpt lat="48.64159" lon="7.7132">
        <ele>125.43035889</ele>
        <time>2020-09-20T09:03:14Z</time>
      </trkpt>
      <trkpt lat="48.64162" lon="7.71337">
        <ele>125.43035889</ele>
        <time>2020-09-20T09:03:16Z</time>
      </trkpt>
      <trkpt lat="48.64164" lon="7.71351">
        <ele>125.43035889</ele>
        <time>2020-09-20T09:03:17Z</time>
      </trkpt>
      <trkpt lat="48.64164" lon="7.71366">
        <ele>125.43035889</ele>
        <time>2020-09-20T09:03:19Z</time>
      </trkpt>
      <trkpt lat="48.64165" lon="7.71377">
        <ele>125.07637787</ele>
        <time>2020-09-20T09:03:21Z</time>
      </trkpt>
      <trkpt lat="48.64166" lon="7.71389">
        <ele>125.07637787</ele>
        <time>2020-09-20T09:03:22Z</time>
      </trkpt>
      <trkpt lat="48.64167" lon="7.71404">
        <ele>125.07637787</ele>
        <time>2020-09-20T09:03:25Z</time>
      </trkpt>
      <trkpt lat="48.64169" lon="7.7142">
        <ele>126.38928986</ele>
        <time>2020-09-20T09:03:27Z</time>
      </trkpt>
      <trkpt lat="48.64169" lon="7.71439">
        <ele>126.38928986</ele>
        <time>2020-09-20T09:03:30Z</time>
      </trkpt>
      <trkpt lat="48.6417" lon="7.71458">
        <ele>127.52076721</ele>
        <time>2020-09-20T09:03:34Z</time>
      </trkpt>
      <trkpt lat="48.64171" lon="7.71478">
        <ele>127.52076721</ele>
        <time>2020-09-20T09:03:36Z</time>
      </trkpt>
      <trkpt lat="48.64171" lon="7.71497">
        <ele>127.52076721</ele>
        <time>2020-09-20T09:03:38Z</time>
      </trkpt>
      <trkpt lat="48.64171" lon="7.71511">
        <ele>127.52076721</ele>
        <time>2020-09-20T09:03:40Z</time>
      </trkpt>
      <trkpt lat="48.64172" lon="7.71525">
        <ele>127.52076721</ele>
        <time>2020-09-20T09:03:42Z</time>
      </trkpt>
      <trkpt lat="48.64172" lon="7.71539">
        <ele>127.52076721</ele>
        <time>2020-09-20T09:03:44Z</time>
      </trkpt>
      <trkpt lat="48.64173" lon="7.71556">
        <ele>127.52076721</ele>
        <time>2020-09-20T09:03:47Z</time>
      </trkpt>
      <trkpt lat="48.64174" lon="7.71574">
        <ele>127.52076721</ele>
        <time>2020-09-20T09:03:49Z</time>
      </trkpt>
      <trkpt lat="48.64175" lon="7.71588">
        <ele>127.52076721</ele>
        <time>2020-09-20T09:03:51Z</time>
      </trkpt>
      <trkpt lat="48.64179" lon="7.71603">
        <ele>127.52076721</ele>
        <time>2020-09-20T09:03:53Z</time>
      </trkpt>
      <trkpt lat="48.64182" lon="7.71617">
        <ele>127.52076721</ele>
        <time>2020-09-20T09:03:56Z</time>
      </trkpt>
      <trkpt lat="48.64184" lon="7.71632">
        <ele>127.52076721</ele>
        <time>2020-09-20T09:03:58Z</time>
      </trkpt>
      <trkpt lat="48.64186" lon="7.71649">
        <ele>127.52076721</ele>
        <time>2020-09-20T09:03:59Z</time>
      </trkpt>
      <trkpt lat="48.64187" lon="7.71665">
        <ele>127.52076721</ele>
        <time>2020-09-20T09:04:01Z</time>
      </trkpt>
      <trkpt lat="48.64188" lon="7.7168">
        <ele>127.52076721</ele>
        <time>2020-09-20T09:04:04Z</time>
      </trkpt>
      <trkpt lat="48.64191" lon="7.71695">
        <ele>127.52076721</ele>
        <time>2020-09-20T09:04:05Z</time>
      </trkpt>
      <trkpt lat="48.64194" lon="7.71712">
        <ele>127.52076721</ele>
        <time>2020-09-20T09:04:08Z</time>
      </trkpt>
      <trkpt lat="48.64198" lon="7.71732">
        <ele>127.85807037</ele>
        <time>2020-09-20T09:04:11Z</time>
      </trkpt>
      <trkpt lat="48.64203" lon="7.7175">
        <ele>127.85807037</ele>
        <time>2020-09-20T09:04:14Z</time>
      </trkpt>
      <trkpt lat="48.64203" lon="7.71769">
        <ele>127.85807037</ele>
        <time>2020-09-20T09:04:16Z</time>
      </trkpt>
      <trkpt lat="48.64203" lon="7.71786">
        <ele>127.85807037</ele>
        <time>2020-09-20T09:04:19Z</time>
      </trkpt>
      <trkpt lat="48.64205" lon="7.71801">
        <ele>127.48638916</ele>
        <time>2020-09-20T09:04:21Z</time>
      </trkpt>
      <trkpt lat="48.64206" lon="7.71812">
        <ele>127.48638916</ele>
        <time>2020-09-20T09:04:22Z</time>
      </trkpt>
      <trkpt lat="48.64209" lon="7.71828">
        <ele>127.48638916</ele>
        <time>2020-09-20T09:04:26Z</time>
      </trkpt>
      <trkpt lat="48.64215" lon="7.71845">
        <ele>127.48638916</ele>
        <time>2020-09-20T09:04:28Z</time>
      </trkpt>
      <trkpt lat="48.64219" lon="7.71858">
        <ele>127.48638916</ele>
        <time>2020-09-20T09:04:29Z</time>
      </trkpt>
      <trkpt lat="48.64222" lon="7.71872">
        <ele>127.48638916</ele>
        <time>2020-09-20T09:04:31Z</time>
      </trkpt>
      <trkpt lat="48.64225" lon="7.71885">
        <ele>127.48638916</ele>
        <time>2020-09-20T09:04:34Z</time>
      </trkpt>
      <trkpt lat="48.64227" lon="7.71898">
        <ele>127.48638916</ele>
        <time>2020-09-20T09:04:35Z</time>
      </trkpt>
      <trkpt lat="48.64231" lon="7.71914">
        <ele>127.48638916</ele>
        <time>2020-09-20T09:04:37Z</time>
      </trkpt>
      <trkpt lat="48.64233" lon="7.71928">
        <ele>127.48638916</ele>
        <time>2020-09-20T09:04:39Z</time>
      </trkpt>
      <trkpt lat="48.64237" lon="7.71942">
        <ele>127.48638916</ele>
        <time>2020-09-20T09:04:41Z</time>
      </trkpt>
      <trkpt lat="48.64241" lon="7.71957">
        <ele>127.48638916</ele>
        <time>2020-09-20T09:04:43Z</time>
      </trkpt>
      <trkpt lat="48.64245" lon="7.71971">
        <ele>127.48638916</ele>
        <time>2020-09-20T09:04:45Z</time>
      </trkpt>
      <trkpt lat="48.64249" lon="7.71986">
        <ele>127.48638916</ele>
        <time>2020-09-20T09:04:47Z</time>
      </trkpt>
      <trkpt lat="48.64254" lon="7.72">
        <ele>127.48638916</ele>
        <time>2020-09-20T09:04:49Z</time>
      </trkpt>
      <trkpt lat="48.64259" lon="7.72012">
        <ele>127.48638916</ele>
        <time>2020-09-20T09:04:51Z</time>
      </trkpt>
      <trkpt lat="48.64264" lon="7.72026">
        <ele>127.48638916</ele>
        <time>2020-09-20T09:04:53Z</time>
      </trkpt>
      <trkpt lat="48.64268" lon="7.72039">
        <ele>127.48638916</ele>
        <time>2020-09-20T09:04:56Z</time>
      </trkpt>
      <trkpt lat="48.64272" lon="7.72053">
        <ele>127.48638916</ele>
        <time>2020-09-20T09:04:57Z</time>
      </trkpt>
      <trkpt lat="48.64276" lon="7.72067">
        <ele>127.48638916</ele>
        <time>2020-09-20T09:04:59Z</time>
      </trkpt>
      <trkpt lat="48.6428" lon="7.72079">
        <ele>127.48638916</ele>
        <time>2020-09-20T09:05:01Z</time>
      </trkpt>
      <trkpt lat="48.64284" lon="7.72093">
        <ele>127.48638916</ele>
        <time>2020-09-20T09:05:03Z</time>
      </trkpt>
      <trkpt lat="48.64289" lon="7.72109">
        <ele>127.48638916</ele>
        <time>2020-09-20T09:05:06Z</time>
      </trkpt>
      <trkpt lat="48.64293" lon="7.72125">
        <ele>128.12457275</ele>
        <time>2020-09-20T09:05:08Z</time>
      </trkpt>
      <trkpt lat="48.64296" lon="7.72144">
        <ele>128.12457275</ele>
        <time>2020-09-20T09:05:11Z</time>
      </trkpt>
      <trkpt lat="48.64295" lon="7.72156">
        <ele>128.12457275</ele>
        <time>2020-09-20T09:05:13Z</time>
      </trkpt>
      <trkpt lat="48.64296" lon="7.72176">
        <ele>128.12457275</ele>
        <time>2020-09-20T09:05:15Z</time>
      </trkpt>
      <trkpt lat="48.64295" lon="7.72192">
        <ele>128.12457275</ele>
        <time>2020-09-20T09:05:17Z</time>
      </trkpt>
      <trkpt lat="48.64296" lon="7.72206">
        <ele>128.12457275</ele>
        <time>2020-09-20T09:05:19Z</time>
      </trkpt>
      <trkpt lat="48.64295" lon="7.72216">
        <ele>126.37628174</ele>
        <time>2020-09-20T09:05:21Z</time>
      </trkpt>
      <trkpt lat="48.64297" lon="7.72229">
        <ele>126.37628174</ele>
        <time>2020-09-20T09:05:23Z</time>
      </trkpt>
      <trkpt lat="48.643" lon="7.72246">
        <ele>126.37628174</ele>
        <time>2020-09-20T09:05:26Z</time>
      </trkpt>
      <trkpt lat="48.64302" lon="7.72261">
        <ele>126.37628174</ele>
        <time>2020-09-20T09:05:27Z</time>
      </trkpt>
      <trkpt lat="48.64304" lon="7.72276">
        <ele>126.37628174</ele>
        <time>2020-09-20T09:05:29Z</time>
      </trkpt>
      <trkpt lat="48.64307" lon="7.72293">
        <ele>126.37628174</ele>
        <time>2020-09-20T09:05:33Z</time>
      </trkpt>
      <trkpt lat="48.64311" lon="7.72311">
        <ele>126.37628174</ele>
        <time>2020-09-20T09:05:34Z</time>
      </trkpt>
      <trkpt lat="48.64312" lon="7.72326">
        <ele>126.37628174</ele>
        <time>2020-09-20T09:05:36Z</time>
      </trkpt>
      <trkpt lat="48.64314" lon="7.72342">
        <ele>126.37628174</ele>
        <time>2020-09-20T09:05:39Z</time>
      </trkpt>
      <trkpt lat="48.64317" lon="7.72362">
        <ele>126.37628174</ele>
        <time>2020-09-20T09:05:42Z</time>
      </trkpt>
      <trkpt lat="48.64318" lon="7.7238">
        <ele>126.37628174</ele>
        <time>2020-09-20T09:05:45Z</time>
      </trkpt>
      <trkpt lat="48.64318" lon="7.72395">
        <ele>127.27422333</ele>
        <time>2020-09-20T09:05:47Z</time>
      </trkpt>
      <trkpt lat="48.6432" lon="7.72409">
        <ele>127.27422333</ele>
        <time>2020-09-20T09:05:48Z</time>
      </trkpt>
      <trkpt lat="48.64322" lon="7.72425">
        <ele>127.27422333</ele>
        <time>2020-09-20T09:05:52Z</time>
      </trkpt>
      <trkpt lat="48.64324" lon="7.72443">
        <ele>127.27422333</ele>
        <time>2020-09-20T09:05:53Z</time>
      </trkpt>
      <trkpt lat="48.64324" lon="7.72457">
        <ele>127.27422333</ele>
        <time>2020-09-20T09:05:56Z</time>
      </trkpt>
      <trkpt lat="48.64324" lon="7.72471">
        <ele>127.27422333</ele>
        <time>2020-09-20T09:05:57Z</time>
      </trkpt>
      <trkpt lat="48.64325" lon="7.72486">
        <ele>127.27422333</ele>
        <time>2020-09-20T09:05:59Z</time>
      </trkpt>
      <trkpt lat="48.64325" lon="7.725">
        <ele>127.27422333</ele>
        <time>2020-09-20T09:06:02Z</time>
      </trkpt>
      <trkpt lat="48.64326" lon="7.72515">
        <ele>127.27422333</ele>
        <time>2020-09-20T09:06:03Z</time>
      </trkpt>
      <trkpt lat="48.64325" lon="7.7253">
        <ele>127.27422333</ele>
        <time>2020-09-20T09:06:06Z</time>
      </trkpt>
      <trkpt lat="48.64315" lon="7.72543">
        <ele>127.27422333</ele>
        <time>2020-09-20T09:06:09Z</time>
      </trkpt>
      <trkpt lat="48.64307" lon="7.72554">
        <ele>127.27422333</ele>
        <time>2020-09-20T09:06:11Z</time>
      </trkpt>
      <trkpt lat="48.64297" lon="7.72557">
        <ele>127.27422333</ele>
        <time>2020-09-20T09:06:13Z</time>
      </trkpt>
      <trkpt lat="48.64287" lon="7.72561">
        <ele>127.27422333</ele>
        <time>2020-09-20T09:06:16Z</time>
      </trkpt>
      <trkpt lat="48.64276" lon="7.72563">
        <ele>127.27422333</ele>
        <time>2020-09-20T09:06:18Z</time>
      </trkpt>
      <trkpt lat="48.64264" lon="7.72565">
        <ele>127.27422333</ele>
        <time>2020-09-20T09:06:19Z</time>
      </trkpt>
      <trkpt lat="48.64254" lon="7.72567">
        <ele>128.35105896</ele>
        <time>2020-09-20T09:06:21Z</time>
      </trkpt>
      <trkpt lat="48.64245" lon="7.7257">
        <ele>128.35105896</ele>
        <time>2020-09-20T09:06:22Z</time>
      </trkpt>
      <trkpt lat="48.64232" lon="7.72575">
        <ele>128.35105896</ele>
        <time>2020-09-20T09:06:24Z</time>
      </trkpt>
      <trkpt lat="48.6422" lon="7.72579">
        <ele>128.35105896</ele>
        <time>2020-09-20T09:06:26Z</time>
      </trkpt>
      <trkpt lat="48.64206" lon="7.72583">
        <ele>128.35105896</ele>
        <time>2020-09-20T09:06:28Z</time>
      </trkpt>
      <trkpt lat="48.64193" lon="7.72585">
        <ele>128.35105896</ele>
        <time>2020-09-20T09:06:31Z</time>
      </trkpt>
      <trkpt lat="48.6418" lon="7.72588">
        <ele>127.5799408</ele>
        <time>2020-09-20T09:06:32Z</time>
      </trkpt>
      <trkpt lat="48.64167" lon="7.72592">
        <ele>127.5799408</ele>
        <time>2020-09-20T09:06:34Z</time>
      </trkpt>
      <trkpt lat="48.64154" lon="7.72597">
        <ele>127.5799408</ele>
        <time>2020-09-20T09:06:36Z</time>
      </trkpt>
      <trkpt lat="48.64142" lon="7.72601">
        <ele>127.5799408</ele>
        <time>2020-09-20T09:06:38Z</time>
      </trkpt>
      <trkpt lat="48.6413" lon="7.72606">
        <ele>127.5799408</ele>
        <time>2020-09-20T09:06:40Z</time>
      </trkpt>
      <trkpt lat="48.64117" lon="7.72612">
        <ele>127.5799408</ele>
        <time>2020-09-20T09:06:42Z</time>
      </trkpt>
      <trkpt lat="48.64104" lon="7.72614">
        <ele>127.5799408</ele>
        <time>2020-09-20T09:06:44Z</time>
      </trkpt>
      <trkpt lat="48.64091" lon="7.72617">
        <ele>127.5799408</ele>
        <time>2020-09-20T09:06:46Z</time>
      </trkpt>
      <trkpt lat="48.64078" lon="7.72619">
        <ele>127.5799408</ele>
        <time>2020-09-20T09:06:48Z</time>
      </trkpt>
      <trkpt lat="48.64066" lon="7.72622">
        <ele>127.5799408</ele>
        <time>2020-09-20T09:06:50Z</time>
      </trkpt>
      <trkpt lat="48.64055" lon="7.72624">
        <ele>127.5799408</ele>
        <time>2020-09-20T09:06:52Z</time>
      </trkpt>
      <trkpt lat="48.64043" lon="7.72628">
        <ele>127.5799408</ele>
        <time>2020-09-20T09:06:54Z</time>
      </trkpt>
      <trkpt lat="48.64032" lon="7.7263">
        <ele>127.5799408</ele>
        <time>2020-09-20T09:06:57Z</time>
      </trkpt>
      <trkpt lat="48.64021" lon="7.72633">
        <ele>127.5799408</ele>
        <time>2020-09-20T09:06:59Z</time>
      </trkpt>
      <trkpt lat="48.6401" lon="7.72635">
        <ele>127.5799408</ele>
        <time>2020-09-20T09:07:01Z</time>
      </trkpt>
      <trkpt lat="48.63999" lon="7.72639">
        <ele>127.5799408</ele>
        <time>2020-09-20T09:07:02Z</time>
      </trkpt>
      <trkpt lat="48.63988" lon="7.72641">
        <ele>127.5799408</ele>
        <time>2020-09-20T09:07:04Z</time>
      </trkpt>
      <trkpt lat="48.63977" lon="7.72644">
        <ele>127.5799408</ele>
        <time>2020-09-20T09:07:06Z</time>
      </trkpt>
      <trkpt lat="48.63967" lon="7.72647">
        <ele>127.5799408</ele>
        <time>2020-09-20T09:07:09Z</time>
      </trkpt>
      <trkpt lat="48.63957" lon="7.7265">
        <ele>127.5799408</ele>
        <time>2020-09-20T09:07:10Z</time>
      </trkpt>
      <trkpt lat="48.63945" lon="7.72652">
        <ele>127.01853943</ele>
        <time>2020-09-20T09:07:13Z</time>
      </trkpt>
      <trkpt lat="48.63934" lon="7.72654">
        <ele>127.01853943</ele>
        <time>2020-09-20T09:07:16Z</time>
      </trkpt>
      <trkpt lat="48.63924" lon="7.72657">
        <ele>128.91174316</ele>
        <time>2020-09-20T09:07:18Z</time>
      </trkpt>
      <trkpt lat="48.63914" lon="7.7266">
        <ele>129.60765076</ele>
        <time>2020-09-20T09:07:21Z</time>
      </trkpt>
      <trkpt lat="48.63905" lon="7.72662">
        <ele>129.60765076</ele>
        <time>2020-09-20T09:07:22Z</time>
      </trkpt>
      <trkpt lat="48.63895" lon="7.72663">
        <ele>129.60765076</ele>
        <time>2020-09-20T09:07:24Z</time>
      </trkpt>
      <trkpt lat="48.63885" lon="7.72664">
        <ele>130.36117554</ele>
        <time>2020-09-20T09:07:27Z</time>
      </trkpt>
      <trkpt lat="48.63872" lon="7.72667">
        <ele>130.36117554</ele>
        <time>2020-09-20T09:07:30Z</time>
      </trkpt>
      <trkpt lat="48.6386" lon="7.72671">
        <ele>130.36117554</ele>
        <time>2020-09-20T09:07:33Z</time>
      </trkpt>
      <trkpt lat="48.63847" lon="7.72675">
        <ele>131.43585205</ele>
        <time>2020-09-20T09:07:36Z</time>
      </trkpt>
      <trkpt lat="48.63834" lon="7.72677">
        <ele>131.43585205</ele>
        <time>2020-09-20T09:07:39Z</time>
      </trkpt>
      <trkpt lat="48.63823" lon="7.7268">
        <ele>131.43585205</ele>
        <time>2020-09-20T09:07:42Z</time>
      </trkpt>
      <trkpt lat="48.63813" lon="7.72681">
        <ele>132.45637512</ele>
        <time>2020-09-20T09:07:46Z</time>
      </trkpt>
      <trkpt lat="48.63801" lon="7.72683">
        <ele>132.45637512</ele>
        <time>2020-09-20T09:07:48Z</time>
      </trkpt>
      <trkpt lat="48.63789" lon="7.72687">
        <ele>132.45637512</ele>
        <time>2020-09-20T09:07:52Z</time>
      </trkpt>
      <trkpt lat="48.63777" lon="7.72692">
        <ele>132.45637512</ele>
        <time>2020-09-20T09:07:53Z</time>
      </trkpt>
      <trkpt lat="48.63767" lon="7.72694">
        <ele>132.45637512</ele>
        <time>2020-09-20T09:07:55Z</time>
      </trkpt>
      <trkpt lat="48.63756" lon="7.72695">
        <ele>133.55537415</ele>
        <time>2020-09-20T09:07:58Z</time>
      </trkpt>
      <trkpt lat="48.63742" lon="7.72698">
        <ele>133.55537415</ele>
        <time>2020-09-20T09:08:01Z</time>
      </trkpt>
      <trkpt lat="48.63732" lon="7.72702">
        <ele>133.55537415</ele>
        <time>2020-09-20T09:08:03Z</time>
      </trkpt>
      <trkpt lat="48.63723" lon="7.72704">
        <ele>133.55537415</ele>
        <time>2020-09-20T09:08:06Z</time>
      </trkpt>
      <trkpt lat="48.63713" lon="7.72708">
        <ele>133.55537415</ele>
        <time>2020-09-20T09:08:07Z</time>
      </trkpt>
      <trkpt lat="48.63702" lon="7.72712">
        <ele>133.55537415</ele>
        <time>2020-09-20T09:08:09Z</time>
      </trkpt>
      <trkpt lat="48.63693" lon="7.72716">
        <ele>134.76557922</ele>
        <time>2020-09-20T09:08:12Z</time>
      </trkpt>
      <trkpt lat="48.63682" lon="7.72719">
        <ele>134.76557922</ele>
        <time>2020-09-20T09:08:13Z</time>
      </trkpt>
      <trkpt lat="48.63672" lon="7.72721">
        <ele>134.76557922</ele>
        <time>2020-09-20T09:08:16Z</time>
      </trkpt>
      <trkpt lat="48.63659" lon="7.72725">
        <ele>134.76557922</ele>
        <time>2020-09-20T09:08:19Z</time>
      </trkpt>
      <trkpt lat="48.6365" lon="7.72727">
        <ele>135.62965393</ele>
        <time>2020-09-20T09:08:21Z</time>
      </trkpt>
      <trkpt lat="48.63643" lon="7.72729">
        <ele>135.62965393</ele>
        <time>2020-09-20T09:08:22Z</time>
      </trkpt>
      <trkpt lat="48.63634" lon="7.72731">
        <ele>135.62965393</ele>
        <time>2020-09-20T09:08:24Z</time>
      </trkpt>
      <trkpt lat="48.63625" lon="7.72733">
        <ele>135.62965393</ele>
        <time>2020-09-20T09:08:26Z</time>
      </trkpt>
      <trkpt lat="48.63614" lon="7.72735">
        <ele>135.62965393</ele>
        <time>2020-09-20T09:08:28Z</time>
      </trkpt>
      <trkpt lat="48.63604" lon="7.72737">
        <ele>135.62965393</ele>
        <time>2020-09-20T09:08:31Z</time>
      </trkpt>
      <trkpt lat="48.63594" lon="7.72741">
        <ele>135.62965393</ele>
        <time>2020-09-20T09:08:33Z</time>
      </trkpt>
      <trkpt lat="48.63582" lon="7.72744">
        <ele>135.62965393</ele>
        <time>2020-09-20T09:08:35Z</time>
      </trkpt>
      <trkpt lat="48.63573" lon="7.72746">
        <ele>135.62965393</ele>
        <time>2020-09-20T09:08:38Z</time>
      </trkpt>
      <trkpt lat="48.63564" lon="7.72749">
        <ele>135.62965393</ele>
        <time>2020-09-20T09:08:39Z</time>
      </trkpt>
      <trkpt lat="48.63555" lon="7.72753">
        <ele>135.62965393</ele>
        <time>2020-09-20T09:08:41Z</time>
      </trkpt>
      <trkpt lat="48.63545" lon="7.72749">
        <ele>135.62965393</ele>
        <time>2020-09-20T09:08:44Z</time>
      </trkpt>
      <trkpt lat="48.63535" lon="7.72744">
        <ele>135.62965393</ele>
        <time>2020-09-20T09:08:50Z</time>
      </trkpt>
      <trkpt lat="48.63528" lon="7.72752">
        <ele>135.62965393</ele>
        <time>2020-09-20T09:08:54Z</time>
      </trkpt>
      <trkpt lat="48.63517" lon="7.72754">
        <ele>135.62965393</ele>
        <time>2020-09-20T09:08:59Z</time>
      </trkpt>
      <trkpt lat="48.63507" lon="7.72757">
        <ele>135.62965393</ele>
        <time>2020-09-20T09:09:02Z</time>
      </trkpt>
      <trkpt lat="48.63496" lon="7.7276">
        <ele>135.62965393</ele>
        <time>2020-09-20T09:09:06Z</time>
      </trkpt>
      <trkpt lat="48.63485" lon="7.7276">
        <ele>135.62965393</ele>
        <time>2020-09-20T09:09:11Z</time>
      </trkpt>
      <trkpt lat="48.63482" lon="7.72765">
        <ele>135.63319397</ele>
        <time>2020-09-20T09:09:44Z</time>
      </trkpt>
      <trkpt lat="48.63482" lon="7.72767">
        <ele>135.63319397</ele>
        <time>2020-09-20T09:09:49Z</time>
      </trkpt>
      <trkpt lat="48.63493" lon="7.72786">
        <ele>135.63319397</ele>
        <time>2020-09-20T09:09:52Z</time>
      </trkpt>
      <trkpt lat="48.63501" lon="7.72792">
        <ele>135.63319397</ele>
        <time>2020-09-20T09:09:58Z</time>
      </trkpt>
      <trkpt lat="48.63514" lon="7.72792">
        <ele>135.63319397</ele>
        <time>2020-09-20T09:10:00Z</time>
      </trkpt>
      <trkpt lat="48.63524" lon="7.72792">
        <ele>135.63319397</ele>
        <time>2020-09-20T09:10:06Z</time>
      </trkpt>
      <trkpt lat="48.63528" lon="7.72809">
        <ele>135.33796692</ele>
        <time>2020-09-20T09:10:09Z</time>
      </trkpt>
      <trkpt lat="48.63529" lon="7.72826">
        <ele>135.33796692</ele>
        <time>2020-09-20T09:10:11Z</time>
      </trkpt>
      <trkpt lat="48.63531" lon="7.72841">
        <ele>135.33796692</ele>
        <time>2020-09-20T09:10:13Z</time>
      </trkpt>
      <trkpt lat="48.63533" lon="7.72855">
        <ele>135.33796692</ele>
        <time>2020-09-20T09:10:15Z</time>
      </trkpt>
      <trkpt lat="48.63536" lon="7.72869">
        <ele>135.33796692</ele>
        <time>2020-09-20T09:10:16Z</time>
      </trkpt>
      <trkpt lat="48.63537" lon="7.72884">
        <ele>135.33796692</ele>
        <time>2020-09-20T09:10:18Z</time>
      </trkpt>
      <trkpt lat="48.63537" lon="7.729">
        <ele>135.33796692</ele>
        <time>2020-09-20T09:10:21Z</time>
      </trkpt>
      <trkpt lat="48.63538" lon="7.72904">
        <ele>134.39906311</ele>
        <time>2020-09-20T09:10:22Z</time>
      </trkpt>
      <trkpt lat="48.6354" lon="7.72915">
        <ele>134.39906311</ele>
        <time>2020-09-20T09:10:23Z</time>
      </trkpt>
      <trkpt lat="48.63543" lon="7.72932">
        <ele>134.39906311</ele>
        <time>2020-09-20T09:10:26Z</time>
      </trkpt>
      <trkpt lat="48.63544" lon="7.7295">
        <ele>134.39906311</ele>
        <time>2020-09-20T09:10:27Z</time>
      </trkpt>
      <trkpt lat="48.63546" lon="7.72966">
        <ele>134.39906311</ele>
        <time>2020-09-20T09:10:30Z</time>
      </trkpt>
      <trkpt lat="48.63548" lon="7.72983">
        <ele>134.39906311</ele>
        <time>2020-09-20T09:10:31Z</time>
      </trkpt>
      <trkpt lat="48.63551" lon="7.73">
        <ele>134.39906311</ele>
        <time>2020-09-20T09:10:33Z</time>
      </trkpt>
      <trkpt lat="48.63553" lon="7.73017">
        <ele>134.39906311</ele>
        <time>2020-09-20T09:10:36Z</time>
      </trkpt>
      <trkpt lat="48.63556" lon="7.73034">
        <ele>134.39906311</ele>
        <time>2020-09-20T09:10:37Z</time>
      </trkpt>
      <trkpt lat="48.63559" lon="7.73051">
        <ele>134.39906311</ele>
        <time>2020-09-20T09:10:39Z</time>
      </trkpt>
      <trkpt lat="48.63562" lon="7.73069">
        <ele>134.39906311</ele>
        <time>2020-09-20T09:10:41Z</time>
      </trkpt>
      <trkpt lat="48.63564" lon="7.73085">
        <ele>134.39906311</ele>
        <time>2020-09-20T09:10:43Z</time>
      </trkpt>
      <trkpt lat="48.63565" lon="7.73101">
        <ele>134.39906311</ele>
        <time>2020-09-20T09:10:46Z</time>
      </trkpt>
      <trkpt lat="48.63568" lon="7.73117">
        <ele>134.39906311</ele>
        <time>2020-09-20T09:10:48Z</time>
      </trkpt>
      <trkpt lat="48.63569" lon="7.73133">
        <ele>134.39906311</ele>
        <time>2020-09-20T09:10:50Z</time>
      </trkpt>
      <trkpt lat="48.63572" lon="7.73149">
        <ele>134.39906311</ele>
        <time>2020-09-20T09:10:52Z</time>
      </trkpt>
      <trkpt lat="48.63574" lon="7.73167">
        <ele>134.42453003</ele>
        <time>2020-09-20T09:10:53Z</time>
      </trkpt>
      <trkpt lat="48.63576" lon="7.73182">
        <ele>134.42453003</ele>
        <time>2020-09-20T09:10:56Z</time>
      </trkpt>
      <trkpt lat="48.63578" lon="7.73198">
        <ele>134.42453003</ele>
        <time>2020-09-20T09:10:57Z</time>
      </trkpt>
      <trkpt lat="48.63581" lon="7.73216">
        <ele>134.42453003</ele>
        <time>2020-09-20T09:10:59Z</time>
      </trkpt>
      <trkpt lat="48.63583" lon="7.73233">
        <ele>134.42453003</ele>
        <time>2020-09-20T09:11:01Z</time>
      </trkpt>
      <trkpt lat="48.63586" lon="7.73251">
        <ele>134.42453003</ele>
        <time>2020-09-20T09:11:04Z</time>
      </trkpt>
      <trkpt lat="48.63588" lon="7.7327">
        <ele>134.42453003</ele>
        <time>2020-09-20T09:11:06Z</time>
      </trkpt>
      <trkpt lat="48.63588" lon="7.73289">
        <ele>134.42453003</ele>
        <time>2020-09-20T09:11:07Z</time>
      </trkpt>
      <trkpt lat="48.63589" lon="7.73307">
        <ele>134.42453003</ele>
        <time>2020-09-20T09:11:09Z</time>
      </trkpt>
      <trkpt lat="48.6359" lon="7.73324">
        <ele>134.88337708</ele>
        <time>2020-09-20T09:11:11Z</time>
      </trkpt>
      <trkpt lat="48.6359" lon="7.73343">
        <ele>134.88337708</ele>
        <time>2020-09-20T09:11:13Z</time>
      </trkpt>
      <trkpt lat="48.6359" lon="7.73363">
        <ele>134.88337708</ele>
        <time>2020-09-20T09:11:16Z</time>
      </trkpt>
      <trkpt lat="48.6359" lon="7.73384">
        <ele>133.72651672</ele>
        <time>2020-09-20T09:11:17Z</time>
      </trkpt>
      <trkpt lat="48.63591" lon="7.73405">
        <ele>133.72651672</ele>
        <time>2020-09-20T09:11:19Z</time>
      </trkpt>
      <trkpt lat="48.6359" lon="7.73423">
        <ele>132.78823853</ele>
        <time>2020-09-20T09:11:21Z</time>
      </trkpt>
      <trkpt lat="48.6359" lon="7.7344">
        <ele>132.78823853</ele>
        <time>2020-09-20T09:11:22Z</time>
      </trkpt>
      <trkpt lat="48.6359" lon="7.73462">
        <ele>132.78823853</ele>
        <time>2020-09-20T09:11:24Z</time>
      </trkpt>
      <trkpt lat="48.63591" lon="7.73486">
        <ele>131.82029724</ele>
        <time>2020-09-20T09:11:26Z</time>
      </trkpt>
      <trkpt lat="48.6359" lon="7.73511">
        <ele>130.60455322</ele>
        <time>2020-09-20T09:11:29Z</time>
      </trkpt>
      <trkpt lat="48.63589" lon="7.73536">
        <ele>130.60455322</ele>
        <time>2020-09-20T09:11:31Z</time>
      </trkpt>
      <trkpt lat="48.63587" lon="7.7356">
        <ele>129.48526001</ele>
        <time>2020-09-20T09:11:32Z</time>
      </trkpt>
      <trkpt lat="48.63585" lon="7.73584">
        <ele>129.48526001</ele>
        <time>2020-09-20T09:11:34Z</time>
      </trkpt>
      <trkpt lat="48.63583" lon="7.73607">
        <ele>129.48526001</ele>
        <time>2020-09-20T09:11:36Z</time>
      </trkpt>
      <trkpt lat="48.63579" lon="7.7363">
        <ele>129.48526001</ele>
        <time>2020-09-20T09:11:38Z</time>
      </trkpt>
      <trkpt lat="48.63575" lon="7.73653">
        <ele>129.48526001</ele>
        <time>2020-09-20T09:11:40Z</time>
      </trkpt>
      <trkpt lat="48.63571" lon="7.73675">
        <ele>129.48526001</ele>
        <time>2020-09-20T09:11:42Z</time>
      </trkpt>
      <trkpt lat="48.63566" lon="7.73696">
        <ele>128.36070251</ele>
        <time>2020-09-20T09:11:44Z</time>
      </trkpt>
      <trkpt lat="48.63559" lon="7.73717">
        <ele>128.36070251</ele>
        <time>2020-09-20T09:11:46Z</time>
      </trkpt>
      <trkpt lat="48.63552" lon="7.73737">
        <ele>128.36070251</ele>
        <time>2020-09-20T09:11:48Z</time>
      </trkpt>
      <trkpt lat="48.63546" lon="7.73757">
        <ele>128.36070251</ele>
        <time>2020-09-20T09:11:50Z</time>
      </trkpt>
      <trkpt lat="48.63538" lon="7.73777">
        <ele>128.36070251</ele>
        <time>2020-09-20T09:11:52Z</time>
      </trkpt>
      <trkpt lat="48.63531" lon="7.73794">
        <ele>128.36070251</ele>
        <time>2020-09-20T09:11:54Z</time>
      </trkpt>
      <trkpt lat="48.63526" lon="7.73812">
        <ele>128.36070251</ele>
        <time>2020-09-20T09:11:56Z</time>
      </trkpt>
      <trkpt lat="48.63522" lon="7.73834">
        <ele>128.36070251</ele>
        <time>2020-09-20T09:11:58Z</time>
      </trkpt>
      <trkpt lat="48.6352" lon="7.73854">
        <ele>128.36070251</ele>
        <time>2020-09-20T09:12:00Z</time>
      </trkpt>
      <trkpt lat="48.63517" lon="7.73868">
        <ele>128.36070251</ele>
        <time>2020-09-20T09:12:03Z</time>
      </trkpt>
      <trkpt lat="48.63513" lon="7.73874">
        <ele>127.72733307</ele>
        <time>2020-09-20T09:12:22Z</time>
      </trkpt>
      <trkpt lat="48.63508" lon="7.73879">
        <ele>127.72733307</ele>
        <time>2020-09-20T09:12:26Z</time>
      </trkpt>
      <trkpt lat="48.63502" lon="7.73894">
        <ele>127.72733307</ele>
        <time>2020-09-20T09:12:27Z</time>
      </trkpt>
      <trkpt lat="48.63497" lon="7.73907">
        <ele>127.72376251</ele>
        <time>2020-09-20T09:12:30Z</time>
      </trkpt>
      <trkpt lat="48.63495" lon="7.73924">
        <ele>127.72376251</ele>
        <time>2020-09-20T09:12:31Z</time>
      </trkpt>
      <trkpt lat="48.63494" lon="7.73941">
        <ele>127.72376251</ele>
        <time>2020-09-20T09:12:33Z</time>
      </trkpt>
      <trkpt lat="48.63495" lon="7.7396">
        <ele>127.72376251</ele>
        <time>2020-09-20T09:12:35Z</time>
      </trkpt>
      <trkpt lat="48.63494" lon="7.73979">
        <ele>127.72376251</ele>
        <time>2020-09-20T09:12:37Z</time>
      </trkpt>
      <trkpt lat="48.63492" lon="7.73997">
        <ele>127.72376251</ele>
        <time>2020-09-20T09:12:39Z</time>
      </trkpt>
      <trkpt lat="48.6349" lon="7.74014">
        <ele>127.72376251</ele>
        <time>2020-09-20T09:12:41Z</time>
      </trkpt>
      <trkpt lat="48.63488" lon="7.74029">
        <ele>127.72376251</ele>
        <time>2020-09-20T09:12:43Z</time>
      </trkpt>
      <trkpt lat="48.63485" lon="7.74046">
        <ele>127.72376251</ele>
        <time>2020-09-20T09:12:45Z</time>
      </trkpt>
      <trkpt lat="48.63483" lon="7.74063">
        <ele>127.72376251</ele>
        <time>2020-09-20T09:12:47Z</time>
      </trkpt>
      <trkpt lat="48.63482" lon="7.74079">
        <ele>127.72376251</ele>
        <time>2020-09-20T09:12:49Z</time>
      </trkpt>
      <trkpt lat="48.6348" lon="7.74092">
        <ele>127.72376251</ele>
        <time>2020-09-20T09:12:52Z</time>
      </trkpt>
      <trkpt lat="48.63486" lon="7.74097">
        <ele>127.72376251</ele>
        <time>2020-09-20T09:12:56Z</time>
      </trkpt>
      <trkpt lat="48.63498" lon="7.74093">
        <ele>127.72376251</ele>
        <time>2020-09-20T09:13:00Z</time>
      </trkpt>
      <trkpt lat="48.63511" lon="7.74095">
        <ele>127.72376251</ele>
        <time>2020-09-20T09:13:01Z</time>
      </trkpt>
      <trkpt lat="48.63522" lon="7.74103">
        <ele>127.72376251</ele>
        <time>2020-09-20T09:13:03Z</time>
      </trkpt>
      <trkpt lat="48.63532" lon="7.74115">
        <ele>127.72376251</ele>
        <time>2020-09-20T09:13:05Z</time>
      </trkpt>
      <trkpt lat="48.63537" lon="7.7413">
        <ele>127.72376251</ele>
        <time>2020-09-20T09:13:07Z</time>
      </trkpt>
      <trkpt lat="48.63541" lon="7.74146">
        <ele>127.72376251</ele>
        <time>2020-09-20T09:13:09Z</time>
      </trkpt>
      <trkpt lat="48.63546" lon="7.74162">
        <ele>127.72376251</ele>
        <time>2020-09-20T09:13:12Z</time>
      </trkpt>
      <trkpt lat="48.63555" lon="7.74174">
        <ele>127.72376251</ele>
        <time>2020-09-20T09:13:14Z</time>
      </trkpt>
      <trkpt lat="48.63566" lon="7.74182">
        <ele>127.72376251</ele>
        <time>2020-09-20T09:13:16Z</time>
      </trkpt>
      <trkpt lat="48.63571" lon="7.74197">
        <ele>127.22468567</ele>
        <time>2020-09-20T09:13:18Z</time>
      </trkpt>
      <trkpt lat="48.63576" lon="7.7422">
        <ele>126.20274353</ele>
        <time>2020-09-20T09:13:21Z</time>
      </trkpt>
      <trkpt lat="48.63578" lon="7.74233">
        <ele>126.20274353</ele>
        <time>2020-09-20T09:13:22Z</time>
      </trkpt>
      <trkpt lat="48.63581" lon="7.74251">
        <ele>126.20274353</ele>
        <time>2020-09-20T09:13:24Z</time>
      </trkpt>
      <trkpt lat="48.63582" lon="7.74268">
        <ele>126.20274353</ele>
        <time>2020-09-20T09:13:26Z</time>
      </trkpt>
      <trkpt lat="48.63582" lon="7.74284">
        <ele>126.20274353</ele>
        <time>2020-09-20T09:13:29Z</time>
      </trkpt>
      <trkpt lat="48.63591" lon="7.74287">
        <ele>126.20274353</ele>
        <time>2020-09-20T09:13:32Z</time>
      </trkpt>
      <trkpt lat="48.63602" lon="7.74285">
        <ele>126.20274353</ele>
        <time>2020-09-20T09:13:34Z</time>
      </trkpt>
      <trkpt lat="48.63612" lon="7.74285">
        <ele>126.20274353</ele>
        <time>2020-09-20T09:13:36Z</time>
      </trkpt>
      <trkpt lat="48.63623" lon="7.74287">
        <ele>126.20274353</ele>
        <time>2020-09-20T09:13:39Z</time>
      </trkpt>
      <trkpt lat="48.63637" lon="7.74288">
        <ele>126.20274353</ele>
        <time>2020-09-20T09:13:42Z</time>
      </trkpt>
      <trkpt lat="48.63648" lon="7.74289">
        <ele>126.20274353</ele>
        <time>2020-09-20T09:13:43Z</time>
      </trkpt>
      <trkpt lat="48.63659" lon="7.7429">
        <ele>126.20274353</ele>
        <time>2020-09-20T09:13:45Z</time>
      </trkpt>
      <trkpt lat="48.6367" lon="7.74292">
        <ele>126.20274353</ele>
        <time>2020-09-20T09:13:47Z</time>
      </trkpt>
      <trkpt lat="48.63681" lon="7.74291">
        <ele>126.20274353</ele>
        <time>2020-09-20T09:13:49Z</time>
      </trkpt>
      <trkpt lat="48.63691" lon="7.74291">
        <ele>126.20274353</ele>
        <time>2020-09-20T09:13:51Z</time>
      </trkpt>
      <trkpt lat="48.63701" lon="7.74291">
        <ele>126.20274353</ele>
        <time>2020-09-20T09:13:53Z</time>
      </trkpt>
      <trkpt lat="48.63712" lon="7.74292">
        <ele>126.21881104</ele>
        <time>2020-09-20T09:13:56Z</time>
      </trkpt>
      <trkpt lat="48.63723" lon="7.74294">
        <ele>126.21881104</ele>
        <time>2020-09-20T09:13:58Z</time>
      </trkpt>
      <trkpt lat="48.63734" lon="7.74293">
        <ele>124.67211151</ele>
        <time>2020-09-20T09:14:00Z</time>
      </trkpt>
      <trkpt lat="48.63746" lon="7.74293">
        <ele>124.67211151</ele>
        <time>2020-09-20T09:14:02Z</time>
      </trkpt>
      <trkpt lat="48.63759" lon="7.74293">
        <ele>124.67211151</ele>
        <time>2020-09-20T09:14:04Z</time>
      </trkpt>
      <trkpt lat="48.63773" lon="7.74292">
        <ele>123.48314667</ele>
        <time>2020-09-20T09:14:06Z</time>
      </trkpt>
      <trkpt lat="48.63787" lon="7.74291">
        <ele>123.48314667</ele>
        <time>2020-09-20T09:14:08Z</time>
      </trkpt>
      <trkpt lat="48.638" lon="7.74287">
        <ele>123.48314667</ele>
        <time>2020-09-20T09:14:10Z</time>
      </trkpt>
      <trkpt lat="48.63812" lon="7.74282">
        <ele>123.48314667</ele>
        <time>2020-09-20T09:14:12Z</time>
      </trkpt>
      <trkpt lat="48.63823" lon="7.74272">
        <ele>123.48314667</ele>
        <time>2020-09-20T09:14:14Z</time>
      </trkpt>
      <trkpt lat="48.63833" lon="7.74264">
        <ele>123.48314667</ele>
        <time>2020-09-20T09:14:16Z</time>
      </trkpt>
      <trkpt lat="48.63844" lon="7.74258">
        <ele>123.48314667</ele>
        <time>2020-09-20T09:14:18Z</time>
      </trkpt>
      <trkpt lat="48.63857" lon="7.74248">
        <ele>121.87826538</ele>
        <time>2020-09-20T09:14:21Z</time>
      </trkpt>
      <trkpt lat="48.63866" lon="7.74242">
        <ele>121.87826538</ele>
        <time>2020-09-20T09:14:22Z</time>
      </trkpt>
      <trkpt lat="48.63877" lon="7.74236">
        <ele>121.87826538</ele>
        <time>2020-09-20T09:14:24Z</time>
      </trkpt>
      <trkpt lat="48.63886" lon="7.74228">
        <ele>121.87826538</ele>
        <time>2020-09-20T09:14:26Z</time>
      </trkpt>
      <trkpt lat="48.63894" lon="7.7422">
        <ele>121.87826538</ele>
        <time>2020-09-20T09:14:28Z</time>
      </trkpt>
      <trkpt lat="48.63903" lon="7.74213">
        <ele>121.87826538</ele>
        <time>2020-09-20T09:14:31Z</time>
      </trkpt>
      <trkpt lat="48.63913" lon="7.74214">
        <ele>121.87826538</ele>
        <time>2020-09-20T09:14:32Z</time>
      </trkpt>
      <trkpt lat="48.6392" lon="7.74226">
        <ele>121.87826538</ele>
        <time>2020-09-20T09:14:35Z</time>
      </trkpt>
      <trkpt lat="48.63924" lon="7.74244">
        <ele>121.87826538</ele>
        <time>2020-09-20T09:14:37Z</time>
      </trkpt>
      <trkpt lat="48.63929" lon="7.74258">
        <ele>121.87826538</ele>
        <time>2020-09-20T09:14:40Z</time>
      </trkpt>
      <trkpt lat="48.63933" lon="7.74272">
        <ele>121.87826538</ele>
        <time>2020-09-20T09:14:43Z</time>
      </trkpt>
      <trkpt lat="48.63937" lon="7.74286">
        <ele>122.1665802</ele>
        <time>2020-09-20T09:14:49Z</time>
      </trkpt>
      <trkpt lat="48.63939" lon="7.74293">
        <ele>123.47460938</ele>
        <time>2020-09-20T09:15:27Z</time>
      </trkpt>
      <trkpt lat="48.63939" lon="7.74298">
        <ele>123.47460938</ele>
        <time>2020-09-20T09:15:31Z</time>
      </trkpt>
      <trkpt lat="48.63944" lon="7.74309">
        <ele>122.84169769</ele>
        <time>2020-09-20T09:19:04Z</time>
      </trkpt>
      <trkpt lat="48.63944" lon="7.74311">
        <ele>122.84169769</ele>
        <time>2020-09-20T09:19:07Z</time>
      </trkpt>
      <trkpt lat="48.63948" lon="7.7433">
        <ele>122.84169769</ele>
        <time>2020-09-20T09:19:15Z</time>
      </trkpt>
      <trkpt lat="48.63953" lon="7.74342">
        <ele>122.84169769</ele>
        <time>2020-09-20T09:19:19Z</time>
      </trkpt>
      <trkpt lat="48.63957" lon="7.74355">
        <ele>122.83111572</ele>
        <time>2020-09-20T09:19:21Z</time>
      </trkpt>
      <trkpt lat="48.63959" lon="7.74365">
        <ele>122.83111572</ele>
        <time>2020-09-20T09:19:23Z</time>
      </trkpt>
      <trkpt lat="48.63963" lon="7.7438">
        <ele>122.83111572</ele>
        <time>2020-09-20T09:19:26Z</time>
      </trkpt>
      <trkpt lat="48.63968" lon="7.74397">
        <ele>122.83111572</ele>
        <time>2020-09-20T09:19:28Z</time>
      </trkpt>
      <trkpt lat="48.63974" lon="7.74414">
        <ele>122.83111572</ele>
        <time>2020-09-20T09:19:30Z</time>
      </trkpt>
      <trkpt lat="48.63979" lon="7.74426">
        <ele>122.83111572</ele>
        <time>2020-09-20T09:19:32Z</time>
      </trkpt>
      <trkpt lat="48.63984" lon="7.7444">
        <ele>122.83111572</ele>
        <time>2020-09-20T09:19:34Z</time>
      </trkpt>
      <trkpt lat="48.63987" lon="7.74455">
        <ele>122.83111572</ele>
        <time>2020-09-20T09:19:36Z</time>
      </trkpt>
      <trkpt lat="48.63991" lon="7.74468">
        <ele>122.83111572</ele>
        <time>2020-09-20T09:19:38Z</time>
      </trkpt>
      <trkpt lat="48.63995" lon="7.74482">
        <ele>122.83111572</ele>
        <time>2020-09-20T09:19:40Z</time>
      </trkpt>
      <trkpt lat="48.64001" lon="7.74498">
        <ele>122.83111572</ele>
        <time>2020-09-20T09:19:42Z</time>
      </trkpt>
      <trkpt lat="48.64005" lon="7.74513">
        <ele>122.83111572</ele>
        <time>2020-09-20T09:19:44Z</time>
      </trkpt>
      <trkpt lat="48.64009" lon="7.74527">
        <ele>122.83111572</ele>
        <time>2020-09-20T09:19:46Z</time>
      </trkpt>
      <trkpt lat="48.64012" lon="7.74541">
        <ele>122.83111572</ele>
        <time>2020-09-20T09:19:48Z</time>
      </trkpt>
      <trkpt lat="48.64016" lon="7.74554">
        <ele>122.83111572</ele>
        <time>2020-09-20T09:19:50Z</time>
      </trkpt>
      <trkpt lat="48.6402" lon="7.74568">
        <ele>122.83111572</ele>
        <time>2020-09-20T09:19:52Z</time>
      </trkpt>
      <trkpt lat="48.64024" lon="7.74582">
        <ele>122.83111572</ele>
        <time>2020-09-20T09:19:54Z</time>
      </trkpt>
      <trkpt lat="48.64028" lon="7.74597">
        <ele>122.83111572</ele>
        <time>2020-09-20T09:19:56Z</time>
      </trkpt>
      <trkpt lat="48.64031" lon="7.7461">
        <ele>122.83111572</ele>
        <time>2020-09-20T09:19:58Z</time>
      </trkpt>
      <trkpt lat="48.64035" lon="7.74625">
        <ele>122.83111572</ele>
        <time>2020-09-20T09:20:01Z</time>
      </trkpt>
      <trkpt lat="48.64042" lon="7.74638">
        <ele>122.83111572</ele>
        <time>2020-09-20T09:20:03Z</time>
      </trkpt>
      <trkpt lat="48.64051" lon="7.74638">
        <ele>122.83111572</ele>
        <time>2020-09-20T09:20:06Z</time>
      </trkpt>
      <trkpt lat="48.64064" lon="7.74627">
        <ele>122.83111572</ele>
        <time>2020-09-20T09:20:08Z</time>
      </trkpt>
      <trkpt lat="48.64075" lon="7.74618">
        <ele>122.83111572</ele>
        <time>2020-09-20T09:20:10Z</time>
      </trkpt>
      <trkpt lat="48.64084" lon="7.74611">
        <ele>122.83111572</ele>
        <time>2020-09-20T09:20:12Z</time>
      </trkpt>
      <trkpt lat="48.64093" lon="7.74604">
        <ele>122.83111572</ele>
        <time>2020-09-20T09:20:14Z</time>
      </trkpt>
      <trkpt lat="48.64102" lon="7.74596">
        <ele>122.83111572</ele>
        <time>2020-09-20T09:20:16Z</time>
      </trkpt>
      <trkpt lat="48.64111" lon="7.7459">
        <ele>122.3154068</ele>
        <time>2020-09-20T09:20:18Z</time>
      </trkpt>
      <trkpt lat="48.64123" lon="7.74579">
        <ele>123.63075256</ele>
        <time>2020-09-20T09:20:21Z</time>
      </trkpt>
      <trkpt lat="48.6413" lon="7.74572">
        <ele>123.63075256</ele>
        <time>2020-09-20T09:20:22Z</time>
      </trkpt>
      <trkpt lat="48.64139" lon="7.74562">
        <ele>123.63075256</ele>
        <time>2020-09-20T09:20:24Z</time>
      </trkpt>
      <trkpt lat="48.64149" lon="7.74554">
        <ele>123.63075256</ele>
        <time>2020-09-20T09:20:26Z</time>
      </trkpt>
      <trkpt lat="48.64158" lon="7.74546">
        <ele>123.63075256</ele>
        <time>2020-09-20T09:20:28Z</time>
      </trkpt>
      <trkpt lat="48.64166" lon="7.74537">
        <ele>123.63075256</ele>
        <time>2020-09-20T09:20:30Z</time>
      </trkpt>
      <trkpt lat="48.64177" lon="7.74529">
        <ele>124.49838257</ele>
        <time>2020-09-20T09:20:32Z</time>
      </trkpt>
      <trkpt lat="48.64186" lon="7.7452">
        <ele>124.49838257</ele>
        <time>2020-09-20T09:20:34Z</time>
      </trkpt>
      <trkpt lat="48.64196" lon="7.74511">
        <ele>124.49838257</ele>
        <time>2020-09-20T09:20:36Z</time>
      </trkpt>
      <trkpt lat="48.64206" lon="7.74503">
        <ele>124.49838257</ele>
        <time>2020-09-20T09:20:38Z</time>
      </trkpt>
      <trkpt lat="48.64216" lon="7.74493">
        <ele>124.49838257</ele>
        <time>2020-09-20T09:20:40Z</time>
      </trkpt>
      <trkpt lat="48.64225" lon="7.74485">
        <ele>124.49838257</ele>
        <time>2020-09-20T09:20:42Z</time>
      </trkpt>
      <trkpt lat="48.64235" lon="7.74476">
        <ele>124.49838257</ele>
        <time>2020-09-20T09:20:45Z</time>
      </trkpt>
      <trkpt lat="48.64244" lon="7.74468">
        <ele>124.49838257</ele>
        <time>2020-09-20T09:20:46Z</time>
      </trkpt>
      <trkpt lat="48.64253" lon="7.74459">
        <ele>124.49838257</ele>
        <time>2020-09-20T09:20:48Z</time>
      </trkpt>
      <trkpt lat="48.64261" lon="7.74452">
        <ele>124.49838257</ele>
        <time>2020-09-20T09:20:50Z</time>
      </trkpt>
      <trkpt lat="48.6427" lon="7.74444">
        <ele>124.49838257</ele>
        <time>2020-09-20T09:20:52Z</time>
      </trkpt>
      <trkpt lat="48.64278" lon="7.74437">
        <ele>124.49838257</ele>
        <time>2020-09-20T09:20:54Z</time>
      </trkpt>
      <trkpt lat="48.64286" lon="7.74429">
        <ele>124.49838257</ele>
        <time>2020-09-20T09:20:56Z</time>
      </trkpt>
      <trkpt lat="48.64296" lon="7.7442">
        <ele>124.49838257</ele>
        <time>2020-09-20T09:20:58Z</time>
      </trkpt>
      <trkpt lat="48.64305" lon="7.74417">
        <ele>124.49838257</ele>
        <time>2020-09-20T09:21:01Z</time>
      </trkpt>
      <trkpt lat="48.64313" lon="7.74412">
        <ele>124.49838257</ele>
        <time>2020-09-20T09:21:05Z</time>
      </trkpt>
      <trkpt lat="48.64323" lon="7.74399">
        <ele>124.76318359</ele>
        <time>2020-09-20T09:21:08Z</time>
      </trkpt>
      <trkpt lat="48.64332" lon="7.7439">
        <ele>127.24809265</ele>
        <time>2020-09-20T09:21:11Z</time>
      </trkpt>
      <trkpt lat="48.64338" lon="7.74389">
        <ele>128.37702942</ele>
        <time>2020-09-20T09:21:16Z</time>
      </trkpt>
      <trkpt lat="48.64341" lon="7.74403">
        <ele>130.38336182</ele>
        <time>2020-09-20T09:21:47Z</time>
      </trkpt>
      <trkpt lat="48.64342" lon="7.74407">
        <ele>130.3583374</ele>
        <time>2020-09-20T09:21:52Z</time>
      </trkpt>
      <trkpt lat="48.64353" lon="7.74421">
        <ele>130.3583374</ele>
        <time>2020-09-20T09:21:56Z</time>
      </trkpt>
      <trkpt lat="48.64364" lon="7.74405">
        <ele>128.6222229</ele>
        <time>2020-09-20T09:21:59Z</time>
      </trkpt>
      <trkpt lat="48.64373" lon="7.74394">
        <ele>128.6222229</ele>
        <time>2020-09-20T09:22:00Z</time>
      </trkpt>
      <trkpt lat="48.64382" lon="7.74384">
        <ele>128.6222229</ele>
        <time>2020-09-20T09:22:02Z</time>
      </trkpt>
      <trkpt lat="48.6439" lon="7.74377">
        <ele>128.6222229</ele>
        <time>2020-09-20T09:22:04Z</time>
      </trkpt>
      <trkpt lat="48.644" lon="7.74371">
        <ele>128.6222229</ele>
        <time>2020-09-20T09:22:06Z</time>
      </trkpt>
      <trkpt lat="48.6441" lon="7.74365">
        <ele>128.6222229</ele>
        <time>2020-09-20T09:22:08Z</time>
      </trkpt>
      <trkpt lat="48.64418" lon="7.74359">
        <ele>128.6222229</ele>
        <time>2020-09-20T09:22:10Z</time>
      </trkpt>
      <trkpt lat="48.64427" lon="7.74353">
        <ele>128.6222229</ele>
        <time>2020-09-20T09:22:12Z</time>
      </trkpt>
      <trkpt lat="48.64437" lon="7.74347">
        <ele>128.6222229</ele>
        <time>2020-09-20T09:22:14Z</time>
      </trkpt>
      <trkpt lat="48.64446" lon="7.74338">
        <ele>128.6222229</ele>
        <time>2020-09-20T09:22:16Z</time>
      </trkpt>
      <trkpt lat="48.64455" lon="7.74328">
        <ele>128.6222229</ele>
        <time>2020-09-20T09:22:18Z</time>
      </trkpt>
      <trkpt lat="48.64466" lon="7.74317">
        <ele>127.49430084</ele>
        <time>2020-09-20T09:22:21Z</time>
      </trkpt>
      <trkpt lat="48.64473" lon="7.74311">
        <ele>127.49430084</ele>
        <time>2020-09-20T09:22:22Z</time>
      </trkpt>
      <trkpt lat="48.64482" lon="7.74303">
        <ele>127.49430084</ele>
        <time>2020-09-20T09:22:24Z</time>
      </trkpt>
      <trkpt lat="48.64491" lon="7.74297">
        <ele>127.49430084</ele>
        <time>2020-09-20T09:22:26Z</time>
      </trkpt>
      <trkpt lat="48.64499" lon="7.7429">
        <ele>127.49430084</ele>
        <time>2020-09-20T09:22:28Z</time>
      </trkpt>
      <trkpt lat="48.64508" lon="7.74281">
        <ele>127.49430084</ele>
        <time>2020-09-20T09:22:30Z</time>
      </trkpt>
      <trkpt lat="48.64517" lon="7.74271">
        <ele>127.49430084</ele>
        <time>2020-09-20T09:22:32Z</time>
      </trkpt>
      <trkpt lat="48.64527" lon="7.74263">
        <ele>127.49430084</ele>
        <time>2020-09-20T09:22:34Z</time>
      </trkpt>
      <trkpt lat="48.64536" lon="7.74255">
        <ele>127.49430084</ele>
        <time>2020-09-20T09:22:36Z</time>
      </trkpt>
      <trkpt lat="48.64546" lon="7.74246">
        <ele>127.49430084</ele>
        <time>2020-09-20T09:22:38Z</time>
      </trkpt>
      <trkpt lat="48.64555" lon="7.74238">
        <ele>127.49430084</ele>
        <time>2020-09-20T09:22:40Z</time>
      </trkpt>
      <trkpt lat="48.64565" lon="7.74229">
        <ele>127.49430084</ele>
        <time>2020-09-20T09:22:42Z</time>
      </trkpt>
      <trkpt lat="48.64574" lon="7.7422">
        <ele>127.49430084</ele>
        <time>2020-09-20T09:22:44Z</time>
      </trkpt>
      <trkpt lat="48.64584" lon="7.74212">
        <ele>127.49430084</ele>
        <time>2020-09-20T09:22:46Z</time>
      </trkpt>
      <trkpt lat="48.64594" lon="7.74203">
        <ele>127.49430084</ele>
        <time>2020-09-20T09:22:48Z</time>
      </trkpt>
      <trkpt lat="48.64603" lon="7.74195">
        <ele>127.49430084</ele>
        <time>2020-09-20T09:22:50Z</time>
      </trkpt>
      <trkpt lat="48.64613" lon="7.74186">
        <ele>127.49430084</ele>
        <time>2020-09-20T09:22:52Z</time>
      </trkpt>
      <trkpt lat="48.64623" lon="7.74178">
        <ele>127.49430084</ele>
        <time>2020-09-20T09:22:54Z</time>
      </trkpt>
      <trkpt lat="48.64633" lon="7.74169">
        <ele>127.49430084</ele>
        <time>2020-09-20T09:22:56Z</time>
      </trkpt>
      <trkpt lat="48.64643" lon="7.7416">
        <ele>127.49430084</ele>
        <time>2020-09-20T09:22:58Z</time>
      </trkpt>
      <trkpt lat="48.64652" lon="7.74151">
        <ele>127.49430084</ele>
        <time>2020-09-20T09:23:00Z</time>
      </trkpt>
      <trkpt lat="48.64661" lon="7.74143">
        <ele>127.49430084</ele>
        <time>2020-09-20T09:23:02Z</time>
      </trkpt>
      <trkpt lat="48.6467" lon="7.74135">
        <ele>127.49430084</ele>
        <time>2020-09-20T09:23:04Z</time>
      </trkpt>
      <trkpt lat="48.6468" lon="7.74127">
        <ele>127.49430084</ele>
        <time>2020-09-20T09:23:06Z</time>
      </trkpt>
      <trkpt lat="48.64689" lon="7.74118">
        <ele>127.49430084</ele>
        <time>2020-09-20T09:23:08Z</time>
      </trkpt>
      <trkpt lat="48.64699" lon="7.74109">
        <ele>127.49430084</ele>
        <time>2020-09-20T09:23:10Z</time>
      </trkpt>
      <trkpt lat="48.64709" lon="7.74102">
        <ele>127.49430084</ele>
        <time>2020-09-20T09:23:12Z</time>
      </trkpt>
      <trkpt lat="48.64718" lon="7.74095">
        <ele>127.49430084</ele>
        <time>2020-09-20T09:23:14Z</time>
      </trkpt>
      <trkpt lat="48.64727" lon="7.74086">
        <ele>127.49430084</ele>
        <time>2020-09-20T09:23:16Z</time>
      </trkpt>
      <trkpt lat="48.64734" lon="7.74077">
        <ele>127.49430084</ele>
        <time>2020-09-20T09:23:18Z</time>
      </trkpt>
      <trkpt lat="48.64745" lon="7.74068">
        <ele>127.4358902</ele>
        <time>2020-09-20T09:23:21Z</time>
      </trkpt>
      <trkpt lat="48.64752" lon="7.74062">
        <ele>127.4358902</ele>
        <time>2020-09-20T09:23:23Z</time>
      </trkpt>
      <trkpt lat="48.6476" lon="7.74054">
        <ele>127.4358902</ele>
        <time>2020-09-20T09:23:28Z</time>
      </trkpt>
      <trkpt lat="48.64768" lon="7.74044">
        <ele>127.4358902</ele>
        <time>2020-09-20T09:23:33Z</time>
      </trkpt>
      <trkpt lat="48.64773" lon="7.74031">
        <ele>127.4358902</ele>
        <time>2020-09-20T09:23:38Z</time>
      </trkpt>
      <trkpt lat="48.64781" lon="7.74026">
        <ele>127.4358902</ele>
        <time>2020-09-20T09:23:44Z</time>
      </trkpt>
      <trkpt lat="48.64795" lon="7.74023">
        <ele>127.4358902</ele>
        <time>2020-09-20T09:23:49Z</time>
      </trkpt>
      <trkpt lat="48.64806" lon="7.74013">
        <ele>127.4358902</ele>
        <time>2020-09-20T09:23:51Z</time>
      </trkpt>
      <trkpt lat="48.64816" lon="7.74005">
        <ele>127.4358902</ele>
        <time>2020-09-20T09:23:54Z</time>
      </trkpt>
      <trkpt lat="48.64825" lon="7.73997">
        <ele>127.4358902</ele>
        <time>2020-09-20T09:23:57Z</time>
      </trkpt>
      <trkpt lat="48.64835" lon="7.73988">
        <ele>127.4358902</ele>
        <time>2020-09-20T09:24:00Z</time>
      </trkpt>
      <trkpt lat="48.64846" lon="7.73976">
        <ele>127.4358902</ele>
        <time>2020-09-20T09:24:03Z</time>
      </trkpt>
      <trkpt lat="48.64857" lon="7.73967">
        <ele>127.4358902</ele>
        <time>2020-09-20T09:24:06Z</time>
      </trkpt>
      <trkpt lat="48.64867" lon="7.73958">
        <ele>127.4358902</ele>
        <time>2020-09-20T09:24:09Z</time>
      </trkpt>
      <trkpt lat="48.64878" lon="7.73949">
        <ele>127.4358902</ele>
        <time>2020-09-20T09:24:12Z</time>
      </trkpt>
      <trkpt lat="48.64888" lon="7.73941">
        <ele>127.4358902</ele>
        <time>2020-09-20T09:24:14Z</time>
      </trkpt>
      <trkpt lat="48.64897" lon="7.73933">
        <ele>127.4358902</ele>
        <time>2020-09-20T09:24:17Z</time>
      </trkpt>
      <trkpt lat="48.64908" lon="7.73922">
        <ele>127.72771454</ele>
        <time>2020-09-20T09:24:21Z</time>
      </trkpt>
      <trkpt lat="48.64914" lon="7.73916">
        <ele>127.72771454</ele>
        <time>2020-09-20T09:24:23Z</time>
      </trkpt>
      <trkpt lat="48.64924" lon="7.73907">
        <ele>127.72771454</ele>
        <time>2020-09-20T09:24:26Z</time>
      </trkpt>
      <trkpt lat="48.64934" lon="7.73899">
        <ele>127.72771454</ele>
        <time>2020-09-20T09:24:30Z</time>
      </trkpt>
      <trkpt lat="48.64945" lon="7.73889">
        <ele>127.72771454</ele>
        <time>2020-09-20T09:24:32Z</time>
      </trkpt>
      <trkpt lat="48.64956" lon="7.73879">
        <ele>127.72771454</ele>
        <time>2020-09-20T09:24:35Z</time>
      </trkpt>
      <trkpt lat="48.64966" lon="7.73871">
        <ele>127.72771454</ele>
        <time>2020-09-20T09:24:37Z</time>
      </trkpt>
      <trkpt lat="48.64975" lon="7.73862">
        <ele>127.72771454</ele>
        <time>2020-09-20T09:24:40Z</time>
      </trkpt>
      <trkpt lat="48.64985" lon="7.73853">
        <ele>127.72771454</ele>
        <time>2020-09-20T09:24:42Z</time>
      </trkpt>
      <trkpt lat="48.64994" lon="7.73844">
        <ele>127.72771454</ele>
        <time>2020-09-20T09:24:45Z</time>
      </trkpt>
      <trkpt lat="48.65004" lon="7.73835">
        <ele>127.72771454</ele>
        <time>2020-09-20T09:24:47Z</time>
      </trkpt>
      <trkpt lat="48.65012" lon="7.73827">
        <ele>127.72771454</ele>
        <time>2020-09-20T09:24:50Z</time>
      </trkpt>
      <trkpt lat="48.6502" lon="7.73818">
        <ele>127.72771454</ele>
        <time>2020-09-20T09:24:51Z</time>
      </trkpt>
      <trkpt lat="48.65028" lon="7.7381">
        <ele>127.72771454</ele>
        <time>2020-09-20T09:24:53Z</time>
      </trkpt>
      <trkpt lat="48.65038" lon="7.73803">
        <ele>127.72771454</ele>
        <time>2020-09-20T09:24:56Z</time>
      </trkpt>
      <trkpt lat="48.65048" lon="7.73795">
        <ele>127.72771454</ele>
        <time>2020-09-20T09:24:58Z</time>
      </trkpt>
      <trkpt lat="48.65056" lon="7.73788">
        <ele>127.72771454</ele>
        <time>2020-09-20T09:25:00Z</time>
      </trkpt>
      <trkpt lat="48.65065" lon="7.7378">
        <ele>127.72771454</ele>
        <time>2020-09-20T09:25:02Z</time>
      </trkpt>
      <trkpt lat="48.65073" lon="7.73772">
        <ele>127.72771454</ele>
        <time>2020-09-20T09:25:04Z</time>
      </trkpt>
      <trkpt lat="48.6508" lon="7.73764">
        <ele>127.72771454</ele>
        <time>2020-09-20T09:25:06Z</time>
      </trkpt>
      <trkpt lat="48.65089" lon="7.73757">
        <ele>127.72771454</ele>
        <time>2020-09-20T09:25:08Z</time>
      </trkpt>
      <trkpt lat="48.65098" lon="7.73751">
        <ele>127.72771454</ele>
        <time>2020-09-20T09:25:10Z</time>
      </trkpt>
      <trkpt lat="48.65107" lon="7.73744">
        <ele>127.72771454</ele>
        <time>2020-09-20T09:25:12Z</time>
      </trkpt>
      <trkpt lat="48.65115" lon="7.73736">
        <ele>127.72771454</ele>
        <time>2020-09-20T09:25:14Z</time>
      </trkpt>
      <trkpt lat="48.65123" lon="7.73727">
        <ele>127.72771454</ele>
        <time>2020-09-20T09:25:16Z</time>
      </trkpt>
      <trkpt lat="48.65133" lon="7.73719">
        <ele>127.72771454</ele>
        <time>2020-09-20T09:25:18Z</time>
      </trkpt>
      <trkpt lat="48.65143" lon="7.73709">
        <ele>127.38380432</ele>
        <time>2020-09-20T09:25:21Z</time>
      </trkpt>
      <trkpt lat="48.6515" lon="7.73703">
        <ele>127.38380432</ele>
        <time>2020-09-20T09:25:22Z</time>
      </trkpt>
      <trkpt lat="48.65159" lon="7.73696">
        <ele>127.38380432</ele>
        <time>2020-09-20T09:25:24Z</time>
      </trkpt>
      <trkpt lat="48.6517" lon="7.73689">
        <ele>127.38380432</ele>
        <time>2020-09-20T09:25:27Z</time>
      </trkpt>
      <trkpt lat="48.65179" lon="7.73681">
        <ele>127.38380432</ele>
        <time>2020-09-20T09:25:28Z</time>
      </trkpt>
      <trkpt lat="48.65188" lon="7.73672">
        <ele>127.38380432</ele>
        <time>2020-09-20T09:25:30Z</time>
      </trkpt>
      <trkpt lat="48.65197" lon="7.73663">
        <ele>127.38380432</ele>
        <time>2020-09-20T09:25:32Z</time>
      </trkpt>
      <trkpt lat="48.65207" lon="7.73655">
        <ele>127.38380432</ele>
        <time>2020-09-20T09:25:34Z</time>
      </trkpt>
      <trkpt lat="48.65217" lon="7.73646">
        <ele>127.38380432</ele>
        <time>2020-09-20T09:25:36Z</time>
      </trkpt>
      <trkpt lat="48.65226" lon="7.73638">
        <ele>127.38380432</ele>
        <time>2020-09-20T09:25:38Z</time>
      </trkpt>
      <trkpt lat="48.65236" lon="7.7363">
        <ele>127.38380432</ele>
        <time>2020-09-20T09:25:40Z</time>
      </trkpt>
      <trkpt lat="48.65246" lon="7.7362">
        <ele>127.38380432</ele>
        <time>2020-09-20T09:25:42Z</time>
      </trkpt>
      <trkpt lat="48.65257" lon="7.73612">
        <ele>127.38380432</ele>
        <time>2020-09-20T09:25:45Z</time>
      </trkpt>
      <trkpt lat="48.65266" lon="7.73603">
        <ele>127.38380432</ele>
        <time>2020-09-20T09:25:46Z</time>
      </trkpt>
      <trkpt lat="48.65276" lon="7.73592">
        <ele>127.38380432</ele>
        <time>2020-09-20T09:25:49Z</time>
      </trkpt>
      <trkpt lat="48.65285" lon="7.73579">
        <ele>127.38380432</ele>
        <time>2020-09-20T09:25:51Z</time>
      </trkpt>
      <trkpt lat="48.65292" lon="7.73568">
        <ele>127.38380432</ele>
        <time>2020-09-20T09:25:52Z</time>
      </trkpt>
      <trkpt lat="48.653" lon="7.73557">
        <ele>127.38380432</ele>
        <time>2020-09-20T09:25:55Z</time>
      </trkpt>
      <trkpt lat="48.65313" lon="7.73561">
        <ele>127.38380432</ele>
        <time>2020-09-20T09:25:57Z</time>
      </trkpt>
      <trkpt lat="48.65327" lon="7.73559">
        <ele>127.38380432</ele>
        <time>2020-09-20T09:25:59Z</time>
      </trkpt>
      <trkpt lat="48.65337" lon="7.73547">
        <ele>127.38380432</ele>
        <time>2020-09-20T09:26:01Z</time>
      </trkpt>
      <trkpt lat="48.65348" lon="7.73534">
        <ele>127.38380432</ele>
        <time>2020-09-20T09:26:03Z</time>
      </trkpt>
      <trkpt lat="48.65358" lon="7.73524">
        <ele>127.38380432</ele>
        <time>2020-09-20T09:26:05Z</time>
      </trkpt>
      <trkpt lat="48.65368" lon="7.73514">
        <ele>127.38380432</ele>
        <time>2020-09-20T09:26:07Z</time>
      </trkpt>
      <trkpt lat="48.65378" lon="7.73505">
        <ele>127.38380432</ele>
        <time>2020-09-20T09:26:09Z</time>
      </trkpt>
      <trkpt lat="48.65389" lon="7.73496">
        <ele>127.38380432</ele>
        <time>2020-09-20T09:26:11Z</time>
      </trkpt>
      <trkpt lat="48.65399" lon="7.73487">
        <ele>127.38380432</ele>
        <time>2020-09-20T09:26:14Z</time>
      </trkpt>
      <trkpt lat="48.65408" lon="7.73477">
        <ele>127.38380432</ele>
        <time>2020-09-20T09:26:15Z</time>
      </trkpt>
      <trkpt lat="48.65418" lon="7.73469">
        <ele>127.38380432</ele>
        <time>2020-09-20T09:26:17Z</time>
      </trkpt>
      <trkpt lat="48.65427" lon="7.7346">
        <ele>127.38380432</ele>
        <time>2020-09-20T09:26:19Z</time>
      </trkpt>
      <trkpt lat="48.65435" lon="7.73454">
        <ele>126.68566132</ele>
        <time>2020-09-20T09:26:21Z</time>
      </trkpt>
      <trkpt lat="48.65442" lon="7.73447">
        <ele>126.68566132</ele>
        <time>2020-09-20T09:26:22Z</time>
      </trkpt>
      <trkpt lat="48.65451" lon="7.73437">
        <ele>126.68566132</ele>
        <time>2020-09-20T09:26:24Z</time>
      </trkpt>
      <trkpt lat="48.65461" lon="7.73427">
        <ele>126.68566132</ele>
        <time>2020-09-20T09:26:26Z</time>
      </trkpt>
      <trkpt lat="48.65472" lon="7.73418">
        <ele>126.68566132</ele>
        <time>2020-09-20T09:26:28Z</time>
      </trkpt>
      <trkpt lat="48.65481" lon="7.73409">
        <ele>126.68566132</ele>
        <time>2020-09-20T09:26:31Z</time>
      </trkpt>
      <trkpt lat="48.65492" lon="7.734">
        <ele>126.68566132</ele>
        <time>2020-09-20T09:26:32Z</time>
      </trkpt>
      <trkpt lat="48.65502" lon="7.73391">
        <ele>126.68566132</ele>
        <time>2020-09-20T09:26:34Z</time>
      </trkpt>
      <trkpt lat="48.65512" lon="7.73383">
        <ele>126.68566132</ele>
        <time>2020-09-20T09:26:36Z</time>
      </trkpt>
      <trkpt lat="48.65523" lon="7.73374">
        <ele>126.68566132</ele>
        <time>2020-09-20T09:26:38Z</time>
      </trkpt>
      <trkpt lat="48.65533" lon="7.73366">
        <ele>126.68566132</ele>
        <time>2020-09-20T09:26:40Z</time>
      </trkpt>
      <trkpt lat="48.65542" lon="7.73358">
        <ele>126.68566132</ele>
        <time>2020-09-20T09:26:42Z</time>
      </trkpt>
      <trkpt lat="48.65551" lon="7.73348">
        <ele>126.68566132</ele>
        <time>2020-09-20T09:26:44Z</time>
      </trkpt>
      <trkpt lat="48.65562" lon="7.73339">
        <ele>126.68566132</ele>
        <time>2020-09-20T09:26:46Z</time>
      </trkpt>
      <trkpt lat="48.65573" lon="7.73332">
        <ele>126.68566132</ele>
        <time>2020-09-20T09:26:48Z</time>
      </trkpt>
      <trkpt lat="48.65582" lon="7.73322">
        <ele>126.68566132</ele>
        <time>2020-09-20T09:26:50Z</time>
      </trkpt>
      <trkpt lat="48.65593" lon="7.73312">
        <ele>126.68566132</ele>
        <time>2020-09-20T09:26:52Z</time>
      </trkpt>
      <trkpt lat="48.65603" lon="7.73304">
        <ele>126.68566132</ele>
        <time>2020-09-20T09:26:54Z</time>
      </trkpt>
      <trkpt lat="48.65613" lon="7.73295">
        <ele>126.68566132</ele>
        <time>2020-09-20T09:26:56Z</time>
      </trkpt>
      <trkpt lat="48.65623" lon="7.73286">
        <ele>126.68566132</ele>
        <time>2020-09-20T09:26:59Z</time>
      </trkpt>
      <trkpt lat="48.65633" lon="7.73276">
        <ele>126.68566132</ele>
        <time>2020-09-20T09:27:00Z</time>
      </trkpt>
      <trkpt lat="48.65644" lon="7.73267">
        <ele>126.68566132</ele>
        <time>2020-09-20T09:27:02Z</time>
      </trkpt>
      <trkpt lat="48.65654" lon="7.73257">
        <ele>126.68566132</ele>
        <time>2020-09-20T09:27:04Z</time>
      </trkpt>
      <trkpt lat="48.65665" lon="7.73249">
        <ele>126.68566132</ele>
        <time>2020-09-20T09:27:06Z</time>
      </trkpt>
      <trkpt lat="48.65675" lon="7.73239">
        <ele>126.68566132</ele>
        <time>2020-09-20T09:27:08Z</time>
      </trkpt>
      <trkpt lat="48.65685" lon="7.73231">
        <ele>126.68566132</ele>
        <time>2020-09-20T09:27:11Z</time>
      </trkpt>
      <trkpt lat="48.65694" lon="7.73223">
        <ele>126.68566132</ele>
        <time>2020-09-20T09:27:12Z</time>
      </trkpt>
      <trkpt lat="48.65704" lon="7.73214">
        <ele>126.68566132</ele>
        <time>2020-09-20T09:27:14Z</time>
      </trkpt>
      <trkpt lat="48.65715" lon="7.73204">
        <ele>126.68566132</ele>
        <time>2020-09-20T09:27:16Z</time>
      </trkpt>
      <trkpt lat="48.65725" lon="7.73194">
        <ele>126.68566132</ele>
        <time>2020-09-20T09:27:18Z</time>
      </trkpt>
      <trkpt lat="48.65738" lon="7.73182">
        <ele>125.98452759</ele>
        <time>2020-09-20T09:27:21Z</time>
      </trkpt>
      <trkpt lat="48.65745" lon="7.73176">
        <ele>125.98452759</ele>
        <time>2020-09-20T09:27:22Z</time>
      </trkpt>
      <trkpt lat="48.65755" lon="7.73168">
        <ele>125.98452759</ele>
        <time>2020-09-20T09:27:24Z</time>
      </trkpt>
      <trkpt lat="48.65764" lon="7.73159">
        <ele>125.98452759</ele>
        <time>2020-09-20T09:27:26Z</time>
      </trkpt>
      <trkpt lat="48.65773" lon="7.73151">
        <ele>125.98452759</ele>
        <time>2020-09-20T09:27:28Z</time>
      </trkpt>
      <trkpt lat="48.65783" lon="7.73142">
        <ele>125.98452759</ele>
        <time>2020-09-20T09:27:30Z</time>
      </trkpt>
      <trkpt lat="48.65791" lon="7.73134">
        <ele>125.98452759</ele>
        <time>2020-09-20T09:27:32Z</time>
      </trkpt>
      <trkpt lat="48.65799" lon="7.73126">
        <ele>125.98452759</ele>
        <time>2020-09-20T09:27:36Z</time>
      </trkpt>
      <trkpt lat="48.65809" lon="7.73118">
        <ele>125.98452759</ele>
        <time>2020-09-20T09:27:38Z</time>
      </trkpt>
      <trkpt lat="48.6582" lon="7.7311">
        <ele>125.98452759</ele>
        <time>2020-09-20T09:27:40Z</time>
      </trkpt>
      <trkpt lat="48.65829" lon="7.73103">
        <ele>125.98452759</ele>
        <time>2020-09-20T09:27:42Z</time>
      </trkpt>
      <trkpt lat="48.65838" lon="7.73096">
        <ele>125.98452759</ele>
        <time>2020-09-20T09:27:45Z</time>
      </trkpt>
      <trkpt lat="48.65847" lon="7.73088">
        <ele>125.98452759</ele>
        <time>2020-09-20T09:27:46Z</time>
      </trkpt>
      <trkpt lat="48.65856" lon="7.73078">
        <ele>125.98452759</ele>
        <time>2020-09-20T09:27:48Z</time>
      </trkpt>
      <trkpt lat="48.65863" lon="7.73069">
        <ele>125.98452759</ele>
        <time>2020-09-20T09:27:51Z</time>
      </trkpt>
      <trkpt lat="48.65871" lon="7.73063">
        <ele>125.98452759</ele>
        <time>2020-09-20T09:27:52Z</time>
      </trkpt>
      <trkpt lat="48.6588" lon="7.73055">
        <ele>125.98452759</ele>
        <time>2020-09-20T09:27:54Z</time>
      </trkpt>
      <trkpt lat="48.65889" lon="7.73048">
        <ele>125.98452759</ele>
        <time>2020-09-20T09:27:56Z</time>
      </trkpt>
      <trkpt lat="48.65897" lon="7.73039">
        <ele>125.98452759</ele>
        <time>2020-09-20T09:27:58Z</time>
      </trkpt>
      <trkpt lat="48.65906" lon="7.73031">
        <ele>125.98452759</ele>
        <time>2020-09-20T09:28:00Z</time>
      </trkpt>
      <trkpt lat="48.65915" lon="7.73023">
        <ele>125.98452759</ele>
        <time>2020-09-20T09:28:02Z</time>
      </trkpt>
      <trkpt lat="48.65924" lon="7.73015">
        <ele>125.98452759</ele>
        <time>2020-09-20T09:28:04Z</time>
      </trkpt>
      <trkpt lat="48.65933" lon="7.73006">
        <ele>125.98452759</ele>
        <time>2020-09-20T09:28:06Z</time>
      </trkpt>
      <trkpt lat="48.65942" lon="7.72996">
        <ele>125.98452759</ele>
        <time>2020-09-20T09:28:08Z</time>
      </trkpt>
      <trkpt lat="48.6595" lon="7.72988">
        <ele>125.98452759</ele>
        <time>2020-09-20T09:28:10Z</time>
      </trkpt>
      <trkpt lat="48.65959" lon="7.72979">
        <ele>125.98452759</ele>
        <time>2020-09-20T09:28:12Z</time>
      </trkpt>
      <trkpt lat="48.65967" lon="7.7297">
        <ele>125.98452759</ele>
        <time>2020-09-20T09:28:14Z</time>
      </trkpt>
      <trkpt lat="48.65976" lon="7.72961">
        <ele>125.98452759</ele>
        <time>2020-09-20T09:28:16Z</time>
      </trkpt>
      <trkpt lat="48.65984" lon="7.7295">
        <ele>125.98452759</ele>
        <time>2020-09-20T09:28:19Z</time>
      </trkpt>
      <trkpt lat="48.65994" lon="7.72937">
        <ele>126.54489899</ele>
        <time>2020-09-20T09:28:21Z</time>
      </trkpt>
      <trkpt lat="48.66" lon="7.72929">
        <ele>126.54489899</ele>
        <time>2020-09-20T09:28:22Z</time>
      </trkpt>
      <trkpt lat="48.66009" lon="7.72918">
        <ele>126.54489899</ele>
        <time>2020-09-20T09:28:24Z</time>
      </trkpt>
      <trkpt lat="48.66018" lon="7.72909">
        <ele>126.54489899</ele>
        <time>2020-09-20T09:28:26Z</time>
      </trkpt>
      <trkpt lat="48.66026" lon="7.729">
        <ele>126.54489899</ele>
        <time>2020-09-20T09:28:28Z</time>
      </trkpt>
      <trkpt lat="48.66036" lon="7.72891">
        <ele>126.54489899</ele>
        <time>2020-09-20T09:28:31Z</time>
      </trkpt>
      <trkpt lat="48.66045" lon="7.72881">
        <ele>126.54489899</ele>
        <time>2020-09-20T09:28:32Z</time>
      </trkpt>
      <trkpt lat="48.66054" lon="7.72871">
        <ele>126.54489899</ele>
        <time>2020-09-20T09:28:34Z</time>
      </trkpt>
      <trkpt lat="48.66064" lon="7.72861">
        <ele>126.54489899</ele>
        <time>2020-09-20T09:28:36Z</time>
      </trkpt>
      <trkpt lat="48.66073" lon="7.72851">
        <ele>126.54489899</ele>
        <time>2020-09-20T09:28:38Z</time>
      </trkpt>
      <trkpt lat="48.66082" lon="7.7284">
        <ele>126.54489899</ele>
        <time>2020-09-20T09:28:40Z</time>
      </trkpt>
      <trkpt lat="48.6609" lon="7.7283">
        <ele>126.54489899</ele>
        <time>2020-09-20T09:28:42Z</time>
      </trkpt>
      <trkpt lat="48.66099" lon="7.72821">
        <ele>126.54489899</ele>
        <time>2020-09-20T09:28:44Z</time>
      </trkpt>
      <trkpt lat="48.66109" lon="7.7281">
        <ele>126.54489899</ele>
        <time>2020-09-20T09:28:46Z</time>
      </trkpt>
      <trkpt lat="48.66118" lon="7.72799">
        <ele>126.54489899</ele>
        <time>2020-09-20T09:28:49Z</time>
      </trkpt>
      <trkpt lat="48.66127" lon="7.72789">
        <ele>126.54489899</ele>
        <time>2020-09-20T09:28:51Z</time>
      </trkpt>
      <trkpt lat="48.66136" lon="7.72779">
        <ele>126.54489899</ele>
        <time>2020-09-20T09:28:52Z</time>
      </trkpt>
      <trkpt lat="48.66145" lon="7.72769">
        <ele>126.54489899</ele>
        <time>2020-09-20T09:28:54Z</time>
      </trkpt>
      <trkpt lat="48.66155" lon="7.72757">
        <ele>126.54489899</ele>
        <time>2020-09-20T09:28:57Z</time>
      </trkpt>
      <trkpt lat="48.66164" lon="7.72747">
        <ele>126.54489899</ele>
        <time>2020-09-20T09:28:58Z</time>
      </trkpt>
      <trkpt lat="48.66174" lon="7.72736">
        <ele>126.54489899</ele>
        <time>2020-09-20T09:29:01Z</time>
      </trkpt>
      <trkpt lat="48.66183" lon="7.72725">
        <ele>126.54489899</ele>
        <time>2020-09-20T09:29:02Z</time>
      </trkpt>
      <trkpt lat="48.66193" lon="7.72715">
        <ele>126.54489899</ele>
        <time>2020-09-20T09:29:04Z</time>
      </trkpt>
      <trkpt lat="48.66201" lon="7.72705">
        <ele>126.54489899</ele>
        <time>2020-09-20T09:29:07Z</time>
      </trkpt>
      <trkpt lat="48.6621" lon="7.72696">
        <ele>126.54489899</ele>
        <time>2020-09-20T09:29:09Z</time>
      </trkpt>
      <trkpt lat="48.66217" lon="7.72687">
        <ele>126.54489899</ele>
        <time>2020-09-20T09:29:10Z</time>
      </trkpt>
      <trkpt lat="48.66225" lon="7.72678">
        <ele>126.54489899</ele>
        <time>2020-09-20T09:29:12Z</time>
      </trkpt>
      <trkpt lat="48.66233" lon="7.7267">
        <ele>126.54489899</ele>
        <time>2020-09-20T09:29:14Z</time>
      </trkpt>
      <trkpt lat="48.66242" lon="7.7266">
        <ele>126.54489899</ele>
        <time>2020-09-20T09:29:16Z</time>
      </trkpt>
      <trkpt lat="48.6625" lon="7.72651">
        <ele>126.54489899</ele>
        <time>2020-09-20T09:29:18Z</time>
      </trkpt>
      <trkpt lat="48.66262" lon="7.72638">
        <ele>126.10744476</ele>
        <time>2020-09-20T09:29:21Z</time>
      </trkpt>
      <trkpt lat="48.66268" lon="7.72631">
        <ele>126.10744476</ele>
        <time>2020-09-20T09:29:22Z</time>
      </trkpt>
      <trkpt lat="48.66276" lon="7.72623">
        <ele>126.10744476</ele>
        <time>2020-09-20T09:29:24Z</time>
      </trkpt>
      <trkpt lat="48.66285" lon="7.72613">
        <ele>126.10744476</ele>
        <time>2020-09-20T09:29:26Z</time>
      </trkpt>
      <trkpt lat="48.66293" lon="7.72602">
        <ele>126.10744476</ele>
        <time>2020-09-20T09:29:28Z</time>
      </trkpt>
      <trkpt lat="48.66303" lon="7.72592">
        <ele>126.10744476</ele>
        <time>2020-09-20T09:29:30Z</time>
      </trkpt>
      <trkpt lat="48.66312" lon="7.72582">
        <ele>126.10744476</ele>
        <time>2020-09-20T09:29:32Z</time>
      </trkpt>
      <trkpt lat="48.66321" lon="7.72573">
        <ele>126.10744476</ele>
        <time>2020-09-20T09:29:34Z</time>
      </trkpt>
      <trkpt lat="48.6633" lon="7.72564">
        <ele>126.10744476</ele>
        <time>2020-09-20T09:29:36Z</time>
      </trkpt>
      <trkpt lat="48.66339" lon="7.72553">
        <ele>126.10744476</ele>
        <time>2020-09-20T09:29:38Z</time>
      </trkpt>
      <trkpt lat="48.66348" lon="7.72543">
        <ele>126.10744476</ele>
        <time>2020-09-20T09:29:41Z</time>
      </trkpt>
      <trkpt lat="48.66357" lon="7.72533">
        <ele>126.10744476</ele>
        <time>2020-09-20T09:29:42Z</time>
      </trkpt>
      <trkpt lat="48.66365" lon="7.72524">
        <ele>126.10744476</ele>
        <time>2020-09-20T09:29:44Z</time>
      </trkpt>
      <trkpt lat="48.66374" lon="7.72515">
        <ele>126.10744476</ele>
        <time>2020-09-20T09:29:46Z</time>
      </trkpt>
      <trkpt lat="48.66382" lon="7.72505">
        <ele>126.10744476</ele>
        <time>2020-09-20T09:29:48Z</time>
      </trkpt>
      <trkpt lat="48.66391" lon="7.72496">
        <ele>126.10744476</ele>
        <time>2020-09-20T09:29:50Z</time>
      </trkpt>
      <trkpt lat="48.66401" lon="7.72484">
        <ele>126.10744476</ele>
        <time>2020-09-20T09:29:52Z</time>
      </trkpt>
      <trkpt lat="48.66409" lon="7.72474">
        <ele>126.10744476</ele>
        <time>2020-09-20T09:29:54Z</time>
      </trkpt>
      <trkpt lat="48.66418" lon="7.72465">
        <ele>126.10744476</ele>
        <time>2020-09-20T09:29:56Z</time>
      </trkpt>
      <trkpt lat="48.66427" lon="7.72456">
        <ele>126.10744476</ele>
        <time>2020-09-20T09:29:58Z</time>
      </trkpt>
      <trkpt lat="48.66437" lon="7.72444">
        <ele>126.10744476</ele>
        <time>2020-09-20T09:30:00Z</time>
      </trkpt>
      <trkpt lat="48.66446" lon="7.72432">
        <ele>126.10744476</ele>
        <time>2020-09-20T09:30:03Z</time>
      </trkpt>
      <trkpt lat="48.66456" lon="7.72421">
        <ele>126.10744476</ele>
        <time>2020-09-20T09:30:05Z</time>
      </trkpt>
      <trkpt lat="48.66465" lon="7.7241">
        <ele>126.10744476</ele>
        <time>2020-09-20T09:30:06Z</time>
      </trkpt>
      <trkpt lat="48.66474" lon="7.72399">
        <ele>126.10744476</ele>
        <time>2020-09-20T09:30:08Z</time>
      </trkpt>
      <trkpt lat="48.66484" lon="7.72389">
        <ele>126.21303558</ele>
        <time>2020-09-20T09:30:11Z</time>
      </trkpt>
      <trkpt lat="48.66493" lon="7.72379">
        <ele>126.21303558</ele>
        <time>2020-09-20T09:30:12Z</time>
      </trkpt>
      <trkpt lat="48.66502" lon="7.72368">
        <ele>126.21303558</ele>
        <time>2020-09-20T09:30:14Z</time>
      </trkpt>
      <trkpt lat="48.66513" lon="7.72358">
        <ele>126.21303558</ele>
        <time>2020-09-20T09:30:16Z</time>
      </trkpt>
      <trkpt lat="48.66522" lon="7.72345">
        <ele>126.21303558</ele>
        <time>2020-09-20T09:30:18Z</time>
      </trkpt>
      <trkpt lat="48.66532" lon="7.72334">
        <ele>126.21303558</ele>
        <time>2020-09-20T09:30:21Z</time>
      </trkpt>
      <trkpt lat="48.66542" lon="7.72324">
        <ele>126.67730713</ele>
        <time>2020-09-20T09:30:22Z</time>
      </trkpt>
      <trkpt lat="48.66552" lon="7.72314">
        <ele>126.67730713</ele>
        <time>2020-09-20T09:30:25Z</time>
      </trkpt>
      <trkpt lat="48.66562" lon="7.72303">
        <ele>126.67730713</ele>
        <time>2020-09-20T09:30:26Z</time>
      </trkpt>
      <trkpt lat="48.66572" lon="7.72292">
        <ele>126.67730713</ele>
        <time>2020-09-20T09:30:28Z</time>
      </trkpt>
      <trkpt lat="48.66582" lon="7.72281">
        <ele>126.67730713</ele>
        <time>2020-09-20T09:30:30Z</time>
      </trkpt>
      <trkpt lat="48.66592" lon="7.72271">
        <ele>126.67730713</ele>
        <time>2020-09-20T09:30:32Z</time>
      </trkpt>
      <trkpt lat="48.66602" lon="7.72259">
        <ele>126.67730713</ele>
        <time>2020-09-20T09:30:34Z</time>
      </trkpt>
      <trkpt lat="48.66612" lon="7.72248">
        <ele>126.67730713</ele>
        <time>2020-09-20T09:30:36Z</time>
      </trkpt>
      <trkpt lat="48.66621" lon="7.72237">
        <ele>126.67730713</ele>
        <time>2020-09-20T09:30:39Z</time>
      </trkpt>
      <trkpt lat="48.6663" lon="7.72226">
        <ele>126.67730713</ele>
        <time>2020-09-20T09:30:40Z</time>
      </trkpt>
      <trkpt lat="48.66639" lon="7.72217">
        <ele>126.67730713</ele>
        <time>2020-09-20T09:30:42Z</time>
      </trkpt>
      <trkpt lat="48.66649" lon="7.72207">
        <ele>126.67730713</ele>
        <time>2020-09-20T09:30:44Z</time>
      </trkpt>
      <trkpt lat="48.66658" lon="7.72195">
        <ele>126.67730713</ele>
        <time>2020-09-20T09:30:46Z</time>
      </trkpt>
      <trkpt lat="48.66668" lon="7.72184">
        <ele>126.67730713</ele>
        <time>2020-09-20T09:30:48Z</time>
      </trkpt>
      <trkpt lat="48.66678" lon="7.72173">
        <ele>126.67730713</ele>
        <time>2020-09-20T09:30:50Z</time>
      </trkpt>
      <trkpt lat="48.66687" lon="7.72163">
        <ele>126.67730713</ele>
        <time>2020-09-20T09:30:52Z</time>
      </trkpt>
      <trkpt lat="48.66695" lon="7.72156">
        <ele>126.67730713</ele>
        <time>2020-09-20T09:30:54Z</time>
      </trkpt>
      <trkpt lat="48.66703" lon="7.72147">
        <ele>126.67730713</ele>
        <time>2020-09-20T09:30:57Z</time>
      </trkpt>
      <trkpt lat="48.66713" lon="7.72137">
        <ele>126.67730713</ele>
        <time>2020-09-20T09:31:00Z</time>
      </trkpt>
      <trkpt lat="48.66723" lon="7.72125">
        <ele>126.67730713</ele>
        <time>2020-09-20T09:31:03Z</time>
      </trkpt>
      <trkpt lat="48.66732" lon="7.72115">
        <ele>126.67730713</ele>
        <time>2020-09-20T09:31:05Z</time>
      </trkpt>
      <trkpt lat="48.6674" lon="7.72106">
        <ele>126.67730713</ele>
        <time>2020-09-20T09:31:09Z</time>
      </trkpt>
      <trkpt lat="48.66751" lon="7.72105">
        <ele>126.67730713</ele>
        <time>2020-09-20T09:31:11Z</time>
      </trkpt>
      <trkpt lat="48.66754" lon="7.72103">
        <ele>126.83269501</ele>
        <time>2020-09-20T09:31:24Z</time>
      </trkpt>
      <trkpt lat="48.66754" lon="7.72098">
        <ele>126.83269501</ele>
        <time>2020-09-20T09:31:28Z</time>
      </trkpt>
      <trkpt lat="48.66749" lon="7.72083">
        <ele>128.15849304</ele>
        <time>2020-09-20T09:33:26Z</time>
      </trkpt>
      <trkpt lat="48.66752" lon="7.7208">
        <ele>128.15849304</ele>
        <time>2020-09-20T09:33:32Z</time>
      </trkpt>
      <trkpt lat="48.66764" lon="7.7208">
        <ele>128.15849304</ele>
        <time>2020-09-20T09:33:35Z</time>
      </trkpt>
      <trkpt lat="48.66773" lon="7.72072">
        <ele>127.55761719</ele>
        <time>2020-09-20T09:33:39Z</time>
      </trkpt>
      <trkpt lat="48.66781" lon="7.72063">
        <ele>127.55761719</ele>
        <time>2020-09-20T09:33:44Z</time>
      </trkpt>
      <trkpt lat="48.66788" lon="7.72054">
        <ele>127.55761719</ele>
        <time>2020-09-20T09:33:49Z</time>
      </trkpt>
      <trkpt lat="48.66794" lon="7.72044">
        <ele>127.55761719</ele>
        <time>2020-09-20T09:33:54Z</time>
      </trkpt>
      <trkpt lat="48.668" lon="7.7203">
        <ele>127.55761719</ele>
        <time>2020-09-20T09:33:57Z</time>
      </trkpt>
      <trkpt lat="48.66807" lon="7.72016">
        <ele>127.55761719</ele>
        <time>2020-09-20T09:34:01Z</time>
      </trkpt>
      <trkpt lat="48.66815" lon="7.72004">
        <ele>127.55761719</ele>
        <time>2020-09-20T09:34:03Z</time>
      </trkpt>
      <trkpt lat="48.66822" lon="7.7199">
        <ele>127.55761719</ele>
        <time>2020-09-20T09:34:06Z</time>
      </trkpt>
      <trkpt lat="48.6683" lon="7.71976">
        <ele>127.55761719</ele>
        <time>2020-09-20T09:34:09Z</time>
      </trkpt>
      <trkpt lat="48.66838" lon="7.71965">
        <ele>127.55761719</ele>
        <time>2020-09-20T09:34:13Z</time>
      </trkpt>
      <trkpt lat="48.66847" lon="7.71956">
        <ele>127.55761719</ele>
        <time>2020-09-20T09:34:17Z</time>
      </trkpt>
      <trkpt lat="48.66856" lon="7.71953">
        <ele>127.55761719</ele>
        <time>2020-09-20T09:34:19Z</time>
      </trkpt>
      <trkpt lat="48.66864" lon="7.71952">
        <ele>125.87260437</ele>
        <time>2020-09-20T09:34:22Z</time>
      </trkpt>
      <trkpt lat="48.66873" lon="7.71952">
        <ele>125.87260437</ele>
        <time>2020-09-20T09:34:23Z</time>
      </trkpt>
      <trkpt lat="48.66884" lon="7.71955">
        <ele>125.87260437</ele>
        <time>2020-09-20T09:34:26Z</time>
      </trkpt>
      <trkpt lat="48.66895" lon="7.71954">
        <ele>125.87260437</ele>
        <time>2020-09-20T09:34:29Z</time>
      </trkpt>
      <trkpt lat="48.66906" lon="7.71949">
        <ele>125.87260437</ele>
        <time>2020-09-20T09:34:31Z</time>
      </trkpt>
      <trkpt lat="48.66916" lon="7.71944">
        <ele>125.87260437</ele>
        <time>2020-09-20T09:34:34Z</time>
      </trkpt>
      <trkpt lat="48.66926" lon="7.71936">
        <ele>125.87260437</ele>
        <time>2020-09-20T09:34:36Z</time>
      </trkpt>
      <trkpt lat="48.66935" lon="7.71932">
        <ele>125.87260437</ele>
        <time>2020-09-20T09:34:38Z</time>
      </trkpt>
      <trkpt lat="48.66944" lon="7.71926">
        <ele>125.87260437</ele>
        <time>2020-09-20T09:34:41Z</time>
      </trkpt>
      <trkpt lat="48.66955" lon="7.7192">
        <ele>125.87260437</ele>
        <time>2020-09-20T09:34:44Z</time>
      </trkpt>
      <trkpt lat="48.66964" lon="7.7191">
        <ele>126.09470367</ele>
        <time>2020-09-20T09:34:47Z</time>
      </trkpt>
      <trkpt lat="48.66967" lon="7.71902">
        <ele>127.6387558</ele>
        <time>2020-09-20T09:35:18Z</time>
      </trkpt>
      <trkpt lat="48.66966" lon="7.71888">
        <ele>128.55554199</ele>
        <time>2020-09-20T09:35:22Z</time>
      </trkpt>
      <trkpt lat="48.66959" lon="7.71887">
        <ele>128.55554199</ele>
        <time>2020-09-20T09:35:23Z</time>
      </trkpt>
      <trkpt lat="48.66947" lon="7.71892">
        <ele>128.55554199</ele>
        <time>2020-09-20T09:35:27Z</time>
      </trkpt>
      <trkpt lat="48.66937" lon="7.71896">
        <ele>128.55554199</ele>
        <time>2020-09-20T09:35:28Z</time>
      </trkpt>
      <trkpt lat="48.66928" lon="7.71899">
        <ele>128.55554199</ele>
        <time>2020-09-20T09:35:30Z</time>
      </trkpt>
      <trkpt lat="48.66917" lon="7.71903">
        <ele>128.92340088</ele>
        <time>2020-09-20T09:35:34Z</time>
      </trkpt>
      <trkpt lat="48.66905" lon="7.71907">
        <ele>130.03579712</ele>
        <time>2020-09-20T09:35:36Z</time>
      </trkpt>
      <trkpt lat="48.66894" lon="7.71909">
        <ele>130.03579712</ele>
        <time>2020-09-20T09:35:38Z</time>
      </trkpt>
      <trkpt lat="48.66883" lon="7.71909">
        <ele>130.03579712</ele>
        <time>2020-09-20T09:35:40Z</time>
      </trkpt>
      <trkpt lat="48.66873" lon="7.71911">
        <ele>131.18365479</ele>
        <time>2020-09-20T09:35:42Z</time>
      </trkpt>
      <trkpt lat="48.66863" lon="7.71915">
        <ele>131.18365479</ele>
        <time>2020-09-20T09:35:44Z</time>
      </trkpt>
      <trkpt lat="48.66853" lon="7.71917">
        <ele>131.18365479</ele>
        <time>2020-09-20T09:35:46Z</time>
      </trkpt>
      <trkpt lat="48.66842" lon="7.71921">
        <ele>131.18365479</ele>
        <time>2020-09-20T09:35:48Z</time>
      </trkpt>
      <trkpt lat="48.6683" lon="7.71925">
        <ele>131.18365479</ele>
        <time>2020-09-20T09:35:50Z</time>
      </trkpt>
      <trkpt lat="48.66821" lon="7.71926">
        <ele>132.40997314</ele>
        <time>2020-09-20T09:35:52Z</time>
      </trkpt>
      <trkpt lat="48.6681" lon="7.71928">
        <ele>132.40997314</ele>
        <time>2020-09-20T09:35:55Z</time>
      </trkpt>
      <trkpt lat="48.66798" lon="7.7193">
        <ele>132.40997314</ele>
        <time>2020-09-20T09:35:57Z</time>
      </trkpt>
      <trkpt lat="48.66789" lon="7.71932">
        <ele>132.40997314</ele>
        <time>2020-09-20T09:35:59Z</time>
      </trkpt>
      <trkpt lat="48.66778" lon="7.71935">
        <ele>132.31152344</ele>
        <time>2020-09-20T09:36:01Z</time>
      </trkpt>
      <trkpt lat="48.66767" lon="7.71938">
        <ele>132.31152344</ele>
        <time>2020-09-20T09:36:03Z</time>
      </trkpt>
      <trkpt lat="48.66756" lon="7.7194">
        <ele>132.31152344</ele>
        <time>2020-09-20T09:36:05Z</time>
      </trkpt>
      <trkpt lat="48.66745" lon="7.71936">
        <ele>130.75009155</ele>
        <time>2020-09-20T09:36:07Z</time>
      </trkpt>
      <trkpt lat="48.6674" lon="7.71923">
        <ele>130.75009155</ele>
        <time>2020-09-20T09:36:11Z</time>
      </trkpt>
      <trkpt lat="48.6674" lon="7.71907">
        <ele>130.75009155</ele>
        <time>2020-09-20T09:36:16Z</time>
      </trkpt>
      <trkpt lat="48.66742" lon="7.71896">
        <ele>129.87498474</ele>
        <time>2020-09-20T09:36:18Z</time>
      </trkpt>
      <trkpt lat="48.66747" lon="7.71877">
        <ele>128.68670654</ele>
        <time>2020-09-20T09:36:21Z</time>
      </trkpt>
      <trkpt lat="48.66751" lon="7.71865">
        <ele>128.68670654</ele>
        <time>2020-09-20T09:36:23Z</time>
      </trkpt>
      <trkpt lat="48.66756" lon="7.71847">
        <ele>127.69844055</ele>
        <time>2020-09-20T09:36:26Z</time>
      </trkpt>
      <trkpt lat="48.6676" lon="7.71831">
        <ele>127.69844055</ele>
        <time>2020-09-20T09:36:28Z</time>
      </trkpt>
      <trkpt lat="48.66762" lon="7.71817">
        <ele>127.69844055</ele>
        <time>2020-09-20T09:36:30Z</time>
      </trkpt>
      <trkpt lat="48.66765" lon="7.71802">
        <ele>126.70710754</ele>
        <time>2020-09-20T09:36:33Z</time>
      </trkpt>
      <trkpt lat="48.66769" lon="7.71779">
        <ele>126.70710754</ele>
        <time>2020-09-20T09:36:34Z</time>
      </trkpt>
      <trkpt lat="48.66773" lon="7.7177">
        <ele>126.70710754</ele>
        <time>2020-09-20T09:36:36Z</time>
      </trkpt>
      <trkpt lat="48.66776" lon="7.7176">
        <ele>126.70710754</ele>
        <time>2020-09-20T09:36:39Z</time>
      </trkpt>
      <trkpt lat="48.66778" lon="7.71736">
        <ele>126.70710754</ele>
        <time>2020-09-20T09:36:40Z</time>
      </trkpt>
      <trkpt lat="48.66779" lon="7.71722">
        <ele>126.70710754</ele>
        <time>2020-09-20T09:36:42Z</time>
      </trkpt>
      <trkpt lat="48.66781" lon="7.71705">
        <ele>126.70710754</ele>
        <time>2020-09-20T09:36:44Z</time>
      </trkpt>
      <trkpt lat="48.66784" lon="7.71692">
        <ele>126.70710754</ele>
        <time>2020-09-20T09:36:46Z</time>
      </trkpt>
      <trkpt lat="48.66787" lon="7.71676">
        <ele>126.70710754</ele>
        <time>2020-09-20T09:36:48Z</time>
      </trkpt>
      <trkpt lat="48.6679" lon="7.7166">
        <ele>126.50119781</ele>
        <time>2020-09-20T09:36:51Z</time>
      </trkpt>
      <trkpt lat="48.66792" lon="7.71646">
        <ele>126.50119781</ele>
        <time>2020-09-20T09:36:53Z</time>
      </trkpt>
      <trkpt lat="48.66795" lon="7.71631">
        <ele>126.50119781</ele>
        <time>2020-09-20T09:36:54Z</time>
      </trkpt>
      <trkpt lat="48.66797" lon="7.71616">
        <ele>128.04342651</ele>
        <time>2020-09-20T09:36:57Z</time>
      </trkpt>
      <trkpt lat="48.66801" lon="7.71601">
        <ele>128.04342651</ele>
        <time>2020-09-20T09:37:00Z</time>
      </trkpt>
      <trkpt lat="48.66804" lon="7.71584">
        <ele>129.19464111</ele>
        <time>2020-09-20T09:37:01Z</time>
      </trkpt>
      <trkpt lat="48.66809" lon="7.71568">
        <ele>129.19464111</ele>
        <time>2020-09-20T09:37:03Z</time>
      </trkpt>
      <trkpt lat="48.66815" lon="7.71554">
        <ele>129.19464111</ele>
        <time>2020-09-20T09:37:05Z</time>
      </trkpt>
      <trkpt lat="48.66822" lon="7.71541">
        <ele>129.19464111</ele>
        <time>2020-09-20T09:37:07Z</time>
      </trkpt>
      <trkpt lat="48.66831" lon="7.71528">
        <ele>129.19464111</ele>
        <time>2020-09-20T09:37:09Z</time>
      </trkpt>
      <trkpt lat="48.6684" lon="7.71519">
        <ele>129.19464111</ele>
        <time>2020-09-20T09:37:11Z</time>
      </trkpt>
      <trkpt lat="48.66849" lon="7.71508">
        <ele>129.19464111</ele>
        <time>2020-09-20T09:37:13Z</time>
      </trkpt>
      <trkpt lat="48.66859" lon="7.71498">
        <ele>129.19464111</ele>
        <time>2020-09-20T09:37:15Z</time>
      </trkpt>
      <trkpt lat="48.66868" lon="7.71487">
        <ele>130.18537903</ele>
        <time>2020-09-20T09:37:17Z</time>
      </trkpt>
      <trkpt lat="48.66874" lon="7.71475">
        <ele>130.18537903</ele>
        <time>2020-09-20T09:37:19Z</time>
      </trkpt>
      <trkpt lat="48.66878" lon="7.71464">
        <ele>130.78617859</ele>
        <time>2020-09-20T09:37:21Z</time>
      </trkpt>
      <trkpt lat="48.6688" lon="7.71454">
        <ele>130.78617859</ele>
        <time>2020-09-20T09:37:22Z</time>
      </trkpt>
      <trkpt lat="48.66885" lon="7.71441">
        <ele>130.78617859</ele>
        <time>2020-09-20T09:37:25Z</time>
      </trkpt>
      <trkpt lat="48.66896" lon="7.71447">
        <ele>130.78617859</ele>
        <time>2020-09-20T09:37:28Z</time>
      </trkpt>
      <trkpt lat="48.66909" lon="7.71461">
        <ele>130.78617859</ele>
        <time>2020-09-20T09:37:30Z</time>
      </trkpt>
      <trkpt lat="48.66919" lon="7.71473">
        <ele>130.57850647</ele>
        <time>2020-09-20T09:37:32Z</time>
      </trkpt>
      <trkpt lat="48.66929" lon="7.71484">
        <ele>130.57850647</ele>
        <time>2020-09-20T09:37:34Z</time>
      </trkpt>
      <trkpt lat="48.66938" lon="7.71493">
        <ele>129.1526947</ele>
        <time>2020-09-20T09:37:37Z</time>
      </trkpt>
      <trkpt lat="48.6695" lon="7.71504">
        <ele>129.1526947</ele>
        <time>2020-09-20T09:37:38Z</time>
      </trkpt>
      <trkpt lat="48.66961" lon="7.71516">
        <ele>129.1526947</ele>
        <time>2020-09-20T09:37:40Z</time>
      </trkpt>
      <trkpt lat="48.66972" lon="7.71525">
        <ele>129.1526947</ele>
        <time>2020-09-20T09:37:42Z</time>
      </trkpt>
      <trkpt lat="48.66981" lon="7.71534">
        <ele>129.1526947</ele>
        <time>2020-09-20T09:37:44Z</time>
      </trkpt>
      <trkpt lat="48.66991" lon="7.71546">
        <ele>128.11917114</ele>
        <time>2020-09-20T09:37:46Z</time>
      </trkpt>
      <trkpt lat="48.66998" lon="7.71558">
        <ele>128.11917114</ele>
        <time>2020-09-20T09:37:48Z</time>
      </trkpt>
      <trkpt lat="48.67005" lon="7.71571">
        <ele>128.11917114</ele>
        <time>2020-09-20T09:37:50Z</time>
      </trkpt>
      <trkpt lat="48.67012" lon="7.71584">
        <ele>128.11917114</ele>
        <time>2020-09-20T09:37:52Z</time>
      </trkpt>
      <trkpt lat="48.67022" lon="7.71592">
        <ele>128.11917114</ele>
        <time>2020-09-20T09:37:56Z</time>
      </trkpt>
      <trkpt lat="48.67033" lon="7.71588">
        <ele>128.11917114</ele>
        <time>2020-09-20T09:37:59Z</time>
      </trkpt>
      <trkpt lat="48.67036" lon="7.71583">
        <ele>127.94552612</ele>
        <time>2020-09-20T09:38:19Z</time>
      </trkpt>
      <trkpt lat="48.67048" lon="7.71573">
        <ele>129.03720093</ele>
        <time>2020-09-20T09:38:21Z</time>
      </trkpt>
      <trkpt lat="48.67056" lon="7.71568">
        <ele>129.03720093</ele>
        <time>2020-09-20T09:38:22Z</time>
      </trkpt>
      <trkpt lat="48.67064" lon="7.71562">
        <ele>129.03720093</ele>
        <time>2020-09-20T09:38:24Z</time>
      </trkpt>
      <trkpt lat="48.67075" lon="7.71557">
        <ele>129.03720093</ele>
        <time>2020-09-20T09:38:27Z</time>
      </trkpt>
      <trkpt lat="48.67086" lon="7.71549">
        <ele>129.03720093</ele>
        <time>2020-09-20T09:38:30Z</time>
      </trkpt>
      <trkpt lat="48.67094" lon="7.71549">
        <ele>129.03720093</ele>
        <time>2020-09-20T09:38:40Z</time>
      </trkpt>
      <trkpt lat="48.67098" lon="7.71567">
        <ele>129.03720093</ele>
        <time>2020-09-20T09:38:43Z</time>
      </trkpt>
      <trkpt lat="48.671" lon="7.71574">
        <ele>129.97418213</ele>
        <time>2020-09-20T09:39:27Z</time>
      </trkpt>
      <trkpt lat="48.67103" lon="7.71574">
        <ele>129.97418213</ele>
        <time>2020-09-20T09:39:32Z</time>
      </trkpt>
      <trkpt lat="48.67114" lon="7.71566">
        <ele>129.58053589</ele>
        <time>2020-09-20T09:39:37Z</time>
      </trkpt>
      <trkpt lat="48.67123" lon="7.71558">
        <ele>129.58053589</ele>
        <time>2020-09-20T09:39:41Z</time>
      </trkpt>
      <trkpt lat="48.67132" lon="7.71552">
        <ele>128.52235413</ele>
        <time>2020-09-20T09:39:46Z</time>
      </trkpt>
      <trkpt lat="48.67146" lon="7.71545">
        <ele>128.52235413</ele>
        <time>2020-09-20T09:39:47Z</time>
      </trkpt>
      <trkpt lat="48.67159" lon="7.71539">
        <ele>128.52235413</ele>
        <time>2020-09-20T09:39:49Z</time>
      </trkpt>
      <trkpt lat="48.67171" lon="7.71532">
        <ele>128.52235413</ele>
        <time>2020-09-20T09:39:51Z</time>
      </trkpt>
      <trkpt lat="48.67182" lon="7.71527">
        <ele>128.52235413</ele>
        <time>2020-09-20T09:39:53Z</time>
      </trkpt>
      <trkpt lat="48.67193" lon="7.71523">
        <ele>128.52235413</ele>
        <time>2020-09-20T09:39:55Z</time>
      </trkpt>
      <trkpt lat="48.67202" lon="7.71518">
        <ele>128.52235413</ele>
        <time>2020-09-20T09:39:57Z</time>
      </trkpt>
      <trkpt lat="48.67212" lon="7.71512">
        <ele>128.52235413</ele>
        <time>2020-09-20T09:40:01Z</time>
      </trkpt>
      <trkpt lat="48.67223" lon="7.71506">
        <ele>128.52235413</ele>
        <time>2020-09-20T09:40:02Z</time>
      </trkpt>
      <trkpt lat="48.67236" lon="7.71501">
        <ele>128.52235413</ele>
        <time>2020-09-20T09:40:04Z</time>
      </trkpt>
      <trkpt lat="48.67249" lon="7.71494">
        <ele>128.52235413</ele>
        <time>2020-09-20T09:40:06Z</time>
      </trkpt>
      <trkpt lat="48.67262" lon="7.71489">
        <ele>128.52235413</ele>
        <time>2020-09-20T09:40:08Z</time>
      </trkpt>
      <trkpt lat="48.67274" lon="7.71485">
        <ele>128.52235413</ele>
        <time>2020-09-20T09:40:10Z</time>
      </trkpt>
      <trkpt lat="48.67285" lon="7.71479">
        <ele>128.52235413</ele>
        <time>2020-09-20T09:40:12Z</time>
      </trkpt>
      <trkpt lat="48.67297" lon="7.71473">
        <ele>128.52235413</ele>
        <time>2020-09-20T09:40:14Z</time>
      </trkpt>
      <trkpt lat="48.67307" lon="7.71467">
        <ele>127.47353363</ele>
        <time>2020-09-20T09:40:16Z</time>
      </trkpt>
      <trkpt lat="48.67314" lon="7.71459">
        <ele>127.47353363</ele>
        <time>2020-09-20T09:40:19Z</time>
      </trkpt>
      <trkpt lat="48.6732" lon="7.71449">
        <ele>130.46520996</ele>
        <time>2020-09-20T09:40:21Z</time>
      </trkpt>
      <trkpt lat="48.67326" lon="7.71443">
        <ele>130.46520996</ele>
        <time>2020-09-20T09:40:24Z</time>
      </trkpt>
      <trkpt lat="48.67336" lon="7.71438">
        <ele>130.46520996</ele>
        <time>2020-09-20T09:40:28Z</time>
      </trkpt>
      <trkpt lat="48.67345" lon="7.71435">
        <ele>130.46520996</ele>
        <time>2020-09-20T09:40:33Z</time>
      </trkpt>
      <trkpt lat="48.67357" lon="7.71434">
        <ele>130.46520996</ele>
        <time>2020-09-20T09:40:36Z</time>
      </trkpt>
      <trkpt lat="48.6736" lon="7.71433">
        <ele>131.73257446</ele>
        <time>2020-09-20T09:41:28Z</time>
      </trkpt>
      <trkpt lat="48.67362" lon="7.71432">
        <ele>131.73257446</ele>
        <time>2020-09-20T09:41:33Z</time>
      </trkpt>
      <trkpt lat="48.67379" lon="7.71423">
        <ele>131.73257446</ele>
        <time>2020-09-20T09:41:35Z</time>
      </trkpt>
      <trkpt lat="48.67389" lon="7.71417">
        <ele>131.73257446</ele>
        <time>2020-09-20T09:41:37Z</time>
      </trkpt>
      <trkpt lat="48.67398" lon="7.71413">
        <ele>131.73257446</ele>
        <time>2020-09-20T09:41:39Z</time>
      </trkpt>
      <trkpt lat="48.67407" lon="7.71407">
        <ele>131.73257446</ele>
        <time>2020-09-20T09:41:41Z</time>
      </trkpt>
      <trkpt lat="48.67416" lon="7.71402">
        <ele>131.73257446</ele>
        <time>2020-09-20T09:41:43Z</time>
      </trkpt>
      <trkpt lat="48.67426" lon="7.71398">
        <ele>131.73257446</ele>
        <time>2020-09-20T09:41:45Z</time>
      </trkpt>
      <trkpt lat="48.67434" lon="7.71394">
        <ele>131.73257446</ele>
        <time>2020-09-20T09:41:47Z</time>
      </trkpt>
      <trkpt lat="48.67444" lon="7.71391">
        <ele>131.73257446</ele>
        <time>2020-09-20T09:41:49Z</time>
      </trkpt>
      <trkpt lat="48.67454" lon="7.71386">
        <ele>131.73257446</ele>
        <time>2020-09-20T09:41:51Z</time>
      </trkpt>
      <trkpt lat="48.67464" lon="7.7138">
        <ele>131.22644043</ele>
        <time>2020-09-20T09:41:53Z</time>
      </trkpt>
      <trkpt lat="48.67473" lon="7.71376">
        <ele>131.22644043</ele>
        <time>2020-09-20T09:41:56Z</time>
      </trkpt>
      <trkpt lat="48.67482" lon="7.71372">
        <ele>131.22644043</ele>
        <time>2020-09-20T09:41:57Z</time>
      </trkpt>
      <trkpt lat="48.67492" lon="7.71367">
        <ele>131.22644043</ele>
        <time>2020-09-20T09:41:59Z</time>
      </trkpt>
      <trkpt lat="48.67502" lon="7.71361">
        <ele>131.22644043</ele>
        <time>2020-09-20T09:42:01Z</time>
      </trkpt>
      <trkpt lat="48.67512" lon="7.71355">
        <ele>131.22644043</ele>
        <time>2020-09-20T09:42:03Z</time>
      </trkpt>
      <trkpt lat="48.67522" lon="7.71351">
        <ele>131.22644043</ele>
        <time>2020-09-20T09:42:06Z</time>
      </trkpt>
      <trkpt lat="48.67531" lon="7.71345">
        <ele>131.22644043</ele>
        <time>2020-09-20T09:42:07Z</time>
      </trkpt>
      <trkpt lat="48.67542" lon="7.7134">
        <ele>131.22644043</ele>
        <time>2020-09-20T09:42:09Z</time>
      </trkpt>
      <trkpt lat="48.67551" lon="7.71337">
        <ele>131.22644043</ele>
        <time>2020-09-20T09:42:11Z</time>
      </trkpt>
      <trkpt lat="48.67563" lon="7.71332">
        <ele>131.22644043</ele>
        <time>2020-09-20T09:42:13Z</time>
      </trkpt>
      <trkpt lat="48.67572" lon="7.71328">
        <ele>131.22644043</ele>
        <time>2020-09-20T09:42:15Z</time>
      </trkpt>
      <trkpt lat="48.67583" lon="7.71323">
        <ele>131.22644043</ele>
        <time>2020-09-20T09:42:17Z</time>
      </trkpt>
      <trkpt lat="48.67593" lon="7.71317">
        <ele>131.22644043</ele>
        <time>2020-09-20T09:42:19Z</time>
      </trkpt>
      <trkpt lat="48.67601" lon="7.7131">
        <ele>130.82183838</ele>
        <time>2020-09-20T09:42:21Z</time>
      </trkpt>
      <trkpt lat="48.67609" lon="7.71307">
        <ele>130.82183838</ele>
        <time>2020-09-20T09:42:22Z</time>
      </trkpt>
      <trkpt lat="48.67619" lon="7.71301">
        <ele>130.82183838</ele>
        <time>2020-09-20T09:42:24Z</time>
      </trkpt>
      <trkpt lat="48.67629" lon="7.71298">
        <ele>130.82183838</ele>
        <time>2020-09-20T09:42:26Z</time>
      </trkpt>
      <trkpt lat="48.67639" lon="7.71293">
        <ele>130.82183838</ele>
        <time>2020-09-20T09:42:28Z</time>
      </trkpt>
      <trkpt lat="48.6765" lon="7.71288">
        <ele>130.82183838</ele>
        <time>2020-09-20T09:42:30Z</time>
      </trkpt>
      <trkpt lat="48.6766" lon="7.71283">
        <ele>130.82183838</ele>
        <time>2020-09-20T09:42:32Z</time>
      </trkpt>
      <trkpt lat="48.67672" lon="7.71276">
        <ele>130.82183838</ele>
        <time>2020-09-20T09:42:34Z</time>
      </trkpt>
      <trkpt lat="48.67683" lon="7.71268">
        <ele>130.82183838</ele>
        <time>2020-09-20T09:42:36Z</time>
      </trkpt>
      <trkpt lat="48.67695" lon="7.71261">
        <ele>130.82183838</ele>
        <time>2020-09-20T09:42:38Z</time>
      </trkpt>
      <trkpt lat="48.67707" lon="7.71255">
        <ele>130.82183838</ele>
        <time>2020-09-20T09:42:40Z</time>
      </trkpt>
      <trkpt lat="48.67718" lon="7.71249">
        <ele>130.82183838</ele>
        <time>2020-09-20T09:42:42Z</time>
      </trkpt>
      <trkpt lat="48.67729" lon="7.71244">
        <ele>130.82183838</ele>
        <time>2020-09-20T09:42:44Z</time>
      </trkpt>
      <trkpt lat="48.67738" lon="7.71237">
        <ele>130.82183838</ele>
        <time>2020-09-20T09:42:46Z</time>
      </trkpt>
      <trkpt lat="48.67749" lon="7.71229">
        <ele>130.82183838</ele>
        <time>2020-09-20T09:42:48Z</time>
      </trkpt>
      <trkpt lat="48.6776" lon="7.7122">
        <ele>130.82183838</ele>
        <time>2020-09-20T09:42:50Z</time>
      </trkpt>
      <trkpt lat="48.67772" lon="7.71212">
        <ele>130.82183838</ele>
        <time>2020-09-20T09:42:52Z</time>
      </trkpt>
      <trkpt lat="48.67785" lon="7.71206">
        <ele>130.82183838</ele>
        <time>2020-09-20T09:42:54Z</time>
      </trkpt>
      <trkpt lat="48.67796" lon="7.712">
        <ele>130.82183838</ele>
        <time>2020-09-20T09:42:56Z</time>
      </trkpt>
      <trkpt lat="48.67807" lon="7.71193">
        <ele>130.82183838</ele>
        <time>2020-09-20T09:42:58Z</time>
      </trkpt>
      <trkpt lat="48.6782" lon="7.71185">
        <ele>130.82183838</ele>
        <time>2020-09-20T09:43:00Z</time>
      </trkpt>
      <trkpt lat="48.67832" lon="7.71177">
        <ele>130.82183838</ele>
        <time>2020-09-20T09:43:02Z</time>
      </trkpt>
      <trkpt lat="48.67845" lon="7.71169">
        <ele>130.82183838</ele>
        <time>2020-09-20T09:43:04Z</time>
      </trkpt>
      <trkpt lat="48.67858" lon="7.71162">
        <ele>130.82183838</ele>
        <time>2020-09-20T09:43:06Z</time>
      </trkpt>
      <trkpt lat="48.67871" lon="7.71156">
        <ele>130.82183838</ele>
        <time>2020-09-20T09:43:08Z</time>
      </trkpt>
      <trkpt lat="48.67881" lon="7.71151">
        <ele>130.82183838</ele>
        <time>2020-09-20T09:43:10Z</time>
      </trkpt>
      <trkpt lat="48.67891" lon="7.71147">
        <ele>130.82183838</ele>
        <time>2020-09-20T09:43:12Z</time>
      </trkpt>
      <trkpt lat="48.67903" lon="7.7114">
        <ele>130.82183838</ele>
        <time>2020-09-20T09:43:14Z</time>
      </trkpt>
      <trkpt lat="48.67915" lon="7.71135">
        <ele>130.82183838</ele>
        <time>2020-09-20T09:43:16Z</time>
      </trkpt>
      <trkpt lat="48.67928" lon="7.71129">
        <ele>130.82183838</ele>
        <time>2020-09-20T09:43:19Z</time>
      </trkpt>
      <trkpt lat="48.67942" lon="7.7112">
        <ele>130.95741272</ele>
        <time>2020-09-20T09:43:21Z</time>
      </trkpt>
      <trkpt lat="48.67951" lon="7.71116">
        <ele>130.95741272</ele>
        <time>2020-09-20T09:43:22Z</time>
      </trkpt>
      <trkpt lat="48.67963" lon="7.71109">
        <ele>130.95741272</ele>
        <time>2020-09-20T09:43:24Z</time>
      </trkpt>
      <trkpt lat="48.67976" lon="7.71102">
        <ele>130.95741272</ele>
        <time>2020-09-20T09:43:26Z</time>
      </trkpt>
      <trkpt lat="48.67987" lon="7.71097">
        <ele>130.95741272</ele>
        <time>2020-09-20T09:43:28Z</time>
      </trkpt>
      <trkpt lat="48.67999" lon="7.71091">
        <ele>130.95741272</ele>
        <time>2020-09-20T09:43:31Z</time>
      </trkpt>
      <trkpt lat="48.6801" lon="7.71085">
        <ele>130.95741272</ele>
        <time>2020-09-20T09:43:32Z</time>
      </trkpt>
      <trkpt lat="48.6802" lon="7.71078">
        <ele>130.95741272</ele>
        <time>2020-09-20T09:43:34Z</time>
      </trkpt>
      <trkpt lat="48.6803" lon="7.71069">
        <ele>130.95741272</ele>
        <time>2020-09-20T09:43:36Z</time>
      </trkpt>
      <trkpt lat="48.68041" lon="7.71062">
        <ele>130.95741272</ele>
        <time>2020-09-20T09:43:38Z</time>
      </trkpt>
      <trkpt lat="48.68053" lon="7.71057">
        <ele>130.95741272</ele>
        <time>2020-09-20T09:43:41Z</time>
      </trkpt>
      <trkpt lat="48.68064" lon="7.71051">
        <ele>130.95741272</ele>
        <time>2020-09-20T09:43:42Z</time>
      </trkpt>
      <trkpt lat="48.68075" lon="7.71041">
        <ele>130.95741272</ele>
        <time>2020-09-20T09:43:44Z</time>
      </trkpt>
      <trkpt lat="48.68086" lon="7.71034">
        <ele>130.95741272</ele>
        <time>2020-09-20T09:43:46Z</time>
      </trkpt>
      <trkpt lat="48.68097" lon="7.71027">
        <ele>130.95741272</ele>
        <time>2020-09-20T09:43:48Z</time>
      </trkpt>
      <trkpt lat="48.68109" lon="7.71023">
        <ele>130.95741272</ele>
        <time>2020-09-20T09:43:50Z</time>
      </trkpt>
      <trkpt lat="48.6812" lon="7.71018">
        <ele>130.95741272</ele>
        <time>2020-09-20T09:43:52Z</time>
      </trkpt>
      <trkpt lat="48.68131" lon="7.71015">
        <ele>130.95741272</ele>
        <time>2020-09-20T09:43:54Z</time>
      </trkpt>
      <trkpt lat="48.68144" lon="7.71011">
        <ele>130.95741272</ele>
        <time>2020-09-20T09:43:56Z</time>
      </trkpt>
      <trkpt lat="48.68154" lon="7.71007">
        <ele>130.9486084</ele>
        <time>2020-09-20T09:43:58Z</time>
      </trkpt>
      <trkpt lat="48.68164" lon="7.71">
        <ele>130.9486084</ele>
        <time>2020-09-20T09:44:01Z</time>
      </trkpt>
      <trkpt lat="48.68174" lon="7.70993">
        <ele>130.9486084</ele>
        <time>2020-09-20T09:44:02Z</time>
      </trkpt>
      <trkpt lat="48.68184" lon="7.70986">
        <ele>130.9486084</ele>
        <time>2020-09-20T09:44:04Z</time>
      </trkpt>
      <trkpt lat="48.68195" lon="7.70979">
        <ele>130.9486084</ele>
        <time>2020-09-20T09:44:06Z</time>
      </trkpt>
      <trkpt lat="48.68205" lon="7.70973">
        <ele>130.9486084</ele>
        <time>2020-09-20T09:44:08Z</time>
      </trkpt>
      <trkpt lat="48.68215" lon="7.70967">
        <ele>130.9486084</ele>
        <time>2020-09-20T09:44:10Z</time>
      </trkpt>
      <trkpt lat="48.68227" lon="7.7096">
        <ele>130.9486084</ele>
        <time>2020-09-20T09:44:12Z</time>
      </trkpt>
      <trkpt lat="48.68237" lon="7.70956">
        <ele>130.9486084</ele>
        <time>2020-09-20T09:44:14Z</time>
      </trkpt>
      <trkpt lat="48.68248" lon="7.70952">
        <ele>130.9486084</ele>
        <time>2020-09-20T09:44:16Z</time>
      </trkpt>
      <trkpt lat="48.68259" lon="7.70948">
        <ele>131.69863892</ele>
        <time>2020-09-20T09:44:19Z</time>
      </trkpt>
      <trkpt lat="48.68267" lon="7.70943">
        <ele>133.1651001</ele>
        <time>2020-09-20T09:44:22Z</time>
      </trkpt>
      <trkpt lat="48.68275" lon="7.70937">
        <ele>133.1651001</ele>
        <time>2020-09-20T09:44:23Z</time>
      </trkpt>
      <trkpt lat="48.68286" lon="7.70929">
        <ele>133.1651001</ele>
        <time>2020-09-20T09:44:25Z</time>
      </trkpt>
      <trkpt lat="48.68294" lon="7.70924">
        <ele>133.1651001</ele>
        <time>2020-09-20T09:44:29Z</time>
      </trkpt>
      <trkpt lat="48.68306" lon="7.70919">
        <ele>133.1651001</ele>
        <time>2020-09-20T09:44:31Z</time>
      </trkpt>
      <trkpt lat="48.68318" lon="7.70916">
        <ele>133.1651001</ele>
        <time>2020-09-20T09:44:33Z</time>
      </trkpt>
      <trkpt lat="48.68328" lon="7.70911">
        <ele>133.1651001</ele>
        <time>2020-09-20T09:44:36Z</time>
      </trkpt>
      <trkpt lat="48.68341" lon="7.70906">
        <ele>133.1651001</ele>
        <time>2020-09-20T09:44:39Z</time>
      </trkpt>
      <trkpt lat="48.68354" lon="7.709">
        <ele>133.1651001</ele>
        <time>2020-09-20T09:44:42Z</time>
      </trkpt>
      <trkpt lat="48.68366" lon="7.70895">
        <ele>133.1651001</ele>
        <time>2020-09-20T09:44:46Z</time>
      </trkpt>
      <trkpt lat="48.68378" lon="7.70886">
        <ele>133.1651001</ele>
        <time>2020-09-20T09:44:48Z</time>
      </trkpt>
      <trkpt lat="48.6839" lon="7.70878">
        <ele>133.1651001</ele>
        <time>2020-09-20T09:44:51Z</time>
      </trkpt>
      <trkpt lat="48.684" lon="7.70871">
        <ele>133.1651001</ele>
        <time>2020-09-20T09:44:53Z</time>
      </trkpt>
      <trkpt lat="48.68409" lon="7.70868">
        <ele>133.1651001</ele>
        <time>2020-09-20T09:44:55Z</time>
      </trkpt>
      <trkpt lat="48.6842" lon="7.70863">
        <ele>133.1651001</ele>
        <time>2020-09-20T09:44:58Z</time>
      </trkpt>
      <trkpt lat="48.68433" lon="7.70857">
        <ele>133.1651001</ele>
        <time>2020-09-20T09:45:00Z</time>
      </trkpt>
      <trkpt lat="48.68443" lon="7.7085">
        <ele>133.1651001</ele>
        <time>2020-09-20T09:45:02Z</time>
      </trkpt>
      <trkpt lat="48.68455" lon="7.70844">
        <ele>133.1651001</ele>
        <time>2020-09-20T09:45:04Z</time>
      </trkpt>
      <trkpt lat="48.68465" lon="7.7084">
        <ele>133.1651001</ele>
        <time>2020-09-20T09:45:06Z</time>
      </trkpt>
      <trkpt lat="48.68475" lon="7.70835">
        <ele>133.1651001</ele>
        <time>2020-09-20T09:45:08Z</time>
      </trkpt>
      <trkpt lat="48.68485" lon="7.7083">
        <ele>133.1651001</ele>
        <time>2020-09-20T09:45:11Z</time>
      </trkpt>
      <trkpt lat="48.68494" lon="7.70825">
        <ele>133.1651001</ele>
        <time>2020-09-20T09:45:12Z</time>
      </trkpt>
      <trkpt lat="48.68504" lon="7.7082">
        <ele>133.1651001</ele>
        <time>2020-09-20T09:45:14Z</time>
      </trkpt>
      <trkpt lat="48.68511" lon="7.70811">
        <ele>133.1651001</ele>
        <time>2020-09-20T09:45:16Z</time>
      </trkpt>
      <trkpt lat="48.6852" lon="7.70803">
        <ele>133.1651001</ele>
        <time>2020-09-20T09:45:19Z</time>
      </trkpt>
      <trkpt lat="48.68528" lon="7.70798">
        <ele>133.71539307</ele>
        <time>2020-09-20T09:45:21Z</time>
      </trkpt>
      <trkpt lat="48.68535" lon="7.70796">
        <ele>133.71539307</ele>
        <time>2020-09-20T09:45:22Z</time>
      </trkpt>
      <trkpt lat="48.68545" lon="7.70793">
        <ele>133.71539307</ele>
        <time>2020-09-20T09:45:24Z</time>
      </trkpt>
      <trkpt lat="48.68556" lon="7.70789">
        <ele>133.71539307</ele>
        <time>2020-09-20T09:45:26Z</time>
      </trkpt>
      <trkpt lat="48.68567" lon="7.70784">
        <ele>133.71539307</ele>
        <time>2020-09-20T09:45:28Z</time>
      </trkpt>
      <trkpt lat="48.68577" lon="7.70779">
        <ele>133.71539307</ele>
        <time>2020-09-20T09:45:30Z</time>
      </trkpt>
      <trkpt lat="48.68588" lon="7.70773">
        <ele>133.71539307</ele>
        <time>2020-09-20T09:45:32Z</time>
      </trkpt>
      <trkpt lat="48.686" lon="7.70767">
        <ele>133.71539307</ele>
        <time>2020-09-20T09:45:35Z</time>
      </trkpt>
      <trkpt lat="48.6861" lon="7.70763">
        <ele>133.71539307</ele>
        <time>2020-09-20T09:45:36Z</time>
      </trkpt>
      <trkpt lat="48.68621" lon="7.70758">
        <ele>133.71539307</ele>
        <time>2020-09-20T09:45:38Z</time>
      </trkpt>
      <trkpt lat="48.68632" lon="7.70751">
        <ele>133.71539307</ele>
        <time>2020-09-20T09:45:41Z</time>
      </trkpt>
      <trkpt lat="48.68642" lon="7.70745">
        <ele>133.71539307</ele>
        <time>2020-09-20T09:45:42Z</time>
      </trkpt>
      <trkpt lat="48.68652" lon="7.70739">
        <ele>133.71539307</ele>
        <time>2020-09-20T09:45:44Z</time>
      </trkpt>
      <trkpt lat="48.68663" lon="7.70732">
        <ele>133.71539307</ele>
        <time>2020-09-20T09:45:46Z</time>
      </trkpt>
      <trkpt lat="48.68673" lon="7.70724">
        <ele>133.71539307</ele>
        <time>2020-09-20T09:45:48Z</time>
      </trkpt>
      <trkpt lat="48.68684" lon="7.70719">
        <ele>133.71539307</ele>
        <time>2020-09-20T09:45:50Z</time>
      </trkpt>
      <trkpt lat="48.68694" lon="7.70713">
        <ele>133.71539307</ele>
        <time>2020-09-20T09:45:52Z</time>
      </trkpt>
      <trkpt lat="48.68706" lon="7.70707">
        <ele>133.71539307</ele>
        <time>2020-09-20T09:45:54Z</time>
      </trkpt>
      <trkpt lat="48.68718" lon="7.70701">
        <ele>133.71539307</ele>
        <time>2020-09-20T09:45:56Z</time>
      </trkpt>
      <trkpt lat="48.68729" lon="7.70695">
        <ele>133.71539307</ele>
        <time>2020-09-20T09:45:58Z</time>
      </trkpt>
      <trkpt lat="48.68741" lon="7.7069">
        <ele>133.71539307</ele>
        <time>2020-09-20T09:46:01Z</time>
      </trkpt>
      <trkpt lat="48.68751" lon="7.70685">
        <ele>133.71539307</ele>
        <time>2020-09-20T09:46:02Z</time>
      </trkpt>
      <trkpt lat="48.68762" lon="7.7068">
        <ele>133.71539307</ele>
        <time>2020-09-20T09:46:04Z</time>
      </trkpt>
      <trkpt lat="48.68772" lon="7.70676">
        <ele>133.71539307</ele>
        <time>2020-09-20T09:46:06Z</time>
      </trkpt>
      <trkpt lat="48.68782" lon="7.70669">
        <ele>133.71539307</ele>
        <time>2020-09-20T09:46:08Z</time>
      </trkpt>
      <trkpt lat="48.68794" lon="7.70663">
        <ele>133.71539307</ele>
        <time>2020-09-20T09:46:10Z</time>
      </trkpt>
      <trkpt lat="48.68806" lon="7.70657">
        <ele>133.71539307</ele>
        <time>2020-09-20T09:46:12Z</time>
      </trkpt>
      <trkpt lat="48.68817" lon="7.7065">
        <ele>133.71539307</ele>
        <time>2020-09-20T09:46:14Z</time>
      </trkpt>
      <trkpt lat="48.68828" lon="7.70642">
        <ele>133.71539307</ele>
        <time>2020-09-20T09:46:16Z</time>
      </trkpt>
      <trkpt lat="48.68839" lon="7.70635">
        <ele>133.71539307</ele>
        <time>2020-09-20T09:46:18Z</time>
      </trkpt>
      <trkpt lat="48.68853" lon="7.7063">
        <ele>133.74058533</ele>
        <time>2020-09-20T09:46:21Z</time>
      </trkpt>
      <trkpt lat="48.68862" lon="7.70627">
        <ele>133.74058533</ele>
        <time>2020-09-20T09:46:22Z</time>
      </trkpt>
      <trkpt lat="48.68874" lon="7.70623">
        <ele>133.74058533</ele>
        <time>2020-09-20T09:46:24Z</time>
      </trkpt>
      <trkpt lat="48.68885" lon="7.70619">
        <ele>133.74058533</ele>
        <time>2020-09-20T09:46:26Z</time>
      </trkpt>
      <trkpt lat="48.68897" lon="7.70615">
        <ele>133.74058533</ele>
        <time>2020-09-20T09:46:28Z</time>
      </trkpt>
      <trkpt lat="48.68907" lon="7.70609">
        <ele>133.74058533</ele>
        <time>2020-09-20T09:46:31Z</time>
      </trkpt>
      <trkpt lat="48.68919" lon="7.70603">
        <ele>133.74058533</ele>
        <time>2020-09-20T09:46:32Z</time>
      </trkpt>
      <trkpt lat="48.6893" lon="7.70597">
        <ele>133.74058533</ele>
        <time>2020-09-20T09:46:35Z</time>
      </trkpt>
      <trkpt lat="48.6894" lon="7.70592">
        <ele>133.74058533</ele>
        <time>2020-09-20T09:46:36Z</time>
      </trkpt>
      <trkpt lat="48.68949" lon="7.70588">
        <ele>133.74058533</ele>
        <time>2020-09-20T09:46:38Z</time>
      </trkpt>
      <trkpt lat="48.68958" lon="7.70583">
        <ele>133.74058533</ele>
        <time>2020-09-20T09:46:40Z</time>
      </trkpt>
      <trkpt lat="48.68967" lon="7.70575">
        <ele>133.74058533</ele>
        <time>2020-09-20T09:46:42Z</time>
      </trkpt>
      <trkpt lat="48.68976" lon="7.70568">
        <ele>133.74058533</ele>
        <time>2020-09-20T09:46:44Z</time>
      </trkpt>
      <trkpt lat="48.68989" lon="7.70561">
        <ele>133.74058533</ele>
        <time>2020-09-20T09:46:46Z</time>
      </trkpt>
      <trkpt lat="48.69001" lon="7.70554">
        <ele>133.74058533</ele>
        <time>2020-09-20T09:46:48Z</time>
      </trkpt>
      <trkpt lat="48.69013" lon="7.70547">
        <ele>133.74058533</ele>
        <time>2020-09-20T09:46:50Z</time>
      </trkpt>
      <trkpt lat="48.69025" lon="7.70541">
        <ele>133.74058533</ele>
        <time>2020-09-20T09:46:52Z</time>
      </trkpt>
      <trkpt lat="48.69036" lon="7.70536">
        <ele>133.74058533</ele>
        <time>2020-09-20T09:46:54Z</time>
      </trkpt>
      <trkpt lat="48.69047" lon="7.7053">
        <ele>133.74058533</ele>
        <time>2020-09-20T09:46:56Z</time>
      </trkpt>
      <trkpt lat="48.69059" lon="7.70524">
        <ele>133.74058533</ele>
        <time>2020-09-20T09:46:58Z</time>
      </trkpt>
      <trkpt lat="48.69069" lon="7.70519">
        <ele>133.74058533</ele>
        <time>2020-09-20T09:47:01Z</time>
      </trkpt>
      <trkpt lat="48.6908" lon="7.70516">
        <ele>133.74058533</ele>
        <time>2020-09-20T09:47:03Z</time>
      </trkpt>
      <trkpt lat="48.6909" lon="7.70505">
        <ele>133.74058533</ele>
        <time>2020-09-20T09:47:07Z</time>
      </trkpt>
      <trkpt lat="48.69104" lon="7.70497">
        <ele>133.74058533</ele>
        <time>2020-09-20T09:47:08Z</time>
      </trkpt>
      <trkpt lat="48.69118" lon="7.70491">
        <ele>133.74058533</ele>
        <time>2020-09-20T09:47:10Z</time>
      </trkpt>
      <trkpt lat="48.6913" lon="7.70485">
        <ele>133.74058533</ele>
        <time>2020-09-20T09:47:12Z</time>
      </trkpt>
      <trkpt lat="48.69143" lon="7.70478">
        <ele>133.74058533</ele>
        <time>2020-09-20T09:47:14Z</time>
      </trkpt>
      <trkpt lat="48.69155" lon="7.70471">
        <ele>133.74058533</ele>
        <time>2020-09-20T09:47:16Z</time>
      </trkpt>
      <trkpt lat="48.69167" lon="7.70463">
        <ele>133.74058533</ele>
        <time>2020-09-20T09:47:18Z</time>
      </trkpt>
      <trkpt lat="48.69183" lon="7.70456">
        <ele>133.73419189</ele>
        <time>2020-09-20T09:47:21Z</time>
      </trkpt>
      <trkpt lat="48.69191" lon="7.70452">
        <ele>133.73419189</ele>
        <time>2020-09-20T09:47:22Z</time>
      </trkpt>
      <trkpt lat="48.69203" lon="7.70446">
        <ele>133.73419189</ele>
        <time>2020-09-20T09:47:24Z</time>
      </trkpt>
      <trkpt lat="48.69215" lon="7.7044">
        <ele>133.73419189</ele>
        <time>2020-09-20T09:47:26Z</time>
      </trkpt>
      <trkpt lat="48.69226" lon="7.70433">
        <ele>133.73419189</ele>
        <time>2020-09-20T09:47:28Z</time>
      </trkpt>
      <trkpt lat="48.69236" lon="7.70427">
        <ele>133.73419189</ele>
        <time>2020-09-20T09:47:31Z</time>
      </trkpt>
      <trkpt lat="48.69247" lon="7.7042">
        <ele>133.73419189</ele>
        <time>2020-09-20T09:47:32Z</time>
      </trkpt>
      <trkpt lat="48.69259" lon="7.70415">
        <ele>133.73419189</ele>
        <time>2020-09-20T09:47:34Z</time>
      </trkpt>
      <trkpt lat="48.69269" lon="7.70409">
        <ele>133.73419189</ele>
        <time>2020-09-20T09:47:36Z</time>
      </trkpt>
      <trkpt lat="48.6928" lon="7.70403">
        <ele>133.73419189</ele>
        <time>2020-09-20T09:47:39Z</time>
      </trkpt>
      <trkpt lat="48.69291" lon="7.70397">
        <ele>133.73419189</ele>
        <time>2020-09-20T09:47:40Z</time>
      </trkpt>
      <trkpt lat="48.69302" lon="7.70391">
        <ele>133.73419189</ele>
        <time>2020-09-20T09:47:42Z</time>
      </trkpt>
      <trkpt lat="48.69312" lon="7.70385">
        <ele>133.73419189</ele>
        <time>2020-09-20T09:47:44Z</time>
      </trkpt>
      <trkpt lat="48.69323" lon="7.70379">
        <ele>133.73419189</ele>
        <time>2020-09-20T09:47:46Z</time>
      </trkpt>
      <trkpt lat="48.69334" lon="7.70372">
        <ele>133.73419189</ele>
        <time>2020-09-20T09:47:48Z</time>
      </trkpt>
      <trkpt lat="48.69347" lon="7.70364">
        <ele>133.73419189</ele>
        <time>2020-09-20T09:47:50Z</time>
      </trkpt>
      <trkpt lat="48.6936" lon="7.70357">
        <ele>133.73419189</ele>
        <time>2020-09-20T09:47:53Z</time>
      </trkpt>
      <trkpt lat="48.69372" lon="7.70352">
        <ele>133.73419189</ele>
        <time>2020-09-20T09:47:54Z</time>
      </trkpt>
      <trkpt lat="48.69384" lon="7.70347">
        <ele>133.73419189</ele>
        <time>2020-09-20T09:47:56Z</time>
      </trkpt>
      <trkpt lat="48.69394" lon="7.70343">
        <ele>133.73419189</ele>
        <time>2020-09-20T09:47:58Z</time>
      </trkpt>
      <trkpt lat="48.69406" lon="7.70336">
        <ele>133.73419189</ele>
        <time>2020-09-20T09:48:00Z</time>
      </trkpt>
      <trkpt lat="48.69418" lon="7.70331">
        <ele>133.73419189</ele>
        <time>2020-09-20T09:48:02Z</time>
      </trkpt>
      <trkpt lat="48.69429" lon="7.70325">
        <ele>133.73419189</ele>
        <time>2020-09-20T09:48:04Z</time>
      </trkpt>
      <trkpt lat="48.69441" lon="7.70318">
        <ele>133.73419189</ele>
        <time>2020-09-20T09:48:06Z</time>
      </trkpt>
      <trkpt lat="48.69453" lon="7.70311">
        <ele>133.73419189</ele>
        <time>2020-09-20T09:48:08Z</time>
      </trkpt>
      <trkpt lat="48.69466" lon="7.70305">
        <ele>133.73419189</ele>
        <time>2020-09-20T09:48:10Z</time>
      </trkpt>
      <trkpt lat="48.69476" lon="7.70301">
        <ele>133.73419189</ele>
        <time>2020-09-20T09:48:13Z</time>
      </trkpt>
      <trkpt lat="48.69487" lon="7.70294">
        <ele>133.73419189</ele>
        <time>2020-09-20T09:48:14Z</time>
      </trkpt>
      <trkpt lat="48.69498" lon="7.70287">
        <ele>133.73419189</ele>
        <time>2020-09-20T09:48:16Z</time>
      </trkpt>
      <trkpt lat="48.69508" lon="7.70281">
        <ele>133.73419189</ele>
        <time>2020-09-20T09:48:18Z</time>
      </trkpt>
      <trkpt lat="48.69521" lon="7.70274">
        <ele>134.14035034</ele>
        <time>2020-09-20T09:48:21Z</time>
      </trkpt>
      <trkpt lat="48.69529" lon="7.7027">
        <ele>134.14035034</ele>
        <time>2020-09-20T09:48:22Z</time>
      </trkpt>
      <trkpt lat="48.6954" lon="7.70265">
        <ele>134.14035034</ele>
        <time>2020-09-20T09:48:24Z</time>
      </trkpt>
      <trkpt lat="48.69552" lon="7.70261">
        <ele>134.14035034</ele>
        <time>2020-09-20T09:48:26Z</time>
      </trkpt>
      <trkpt lat="48.69563" lon="7.70258">
        <ele>134.14035034</ele>
        <time>2020-09-20T09:48:28Z</time>
      </trkpt>
      <trkpt lat="48.69574" lon="7.70254">
        <ele>134.14035034</ele>
        <time>2020-09-20T09:48:30Z</time>
      </trkpt>
      <trkpt lat="48.69587" lon="7.70248">
        <ele>134.14035034</ele>
        <time>2020-09-20T09:48:32Z</time>
      </trkpt>
      <trkpt lat="48.69599" lon="7.70242">
        <ele>134.14035034</ele>
        <time>2020-09-20T09:48:34Z</time>
      </trkpt>
      <trkpt lat="48.69611" lon="7.70235">
        <ele>134.14035034</ele>
        <time>2020-09-20T09:48:36Z</time>
      </trkpt>
      <trkpt lat="48.69623" lon="7.70229">
        <ele>134.14035034</ele>
        <time>2020-09-20T09:48:38Z</time>
      </trkpt>
      <trkpt lat="48.69634" lon="7.70224">
        <ele>134.14035034</ele>
        <time>2020-09-20T09:48:40Z</time>
      </trkpt>
      <trkpt lat="48.69644" lon="7.7022">
        <ele>134.14035034</ele>
        <time>2020-09-20T09:48:43Z</time>
      </trkpt>
      <trkpt lat="48.69655" lon="7.70215">
        <ele>134.14035034</ele>
        <time>2020-09-20T09:48:45Z</time>
      </trkpt>
      <trkpt lat="48.69667" lon="7.70207">
        <ele>134.14035034</ele>
        <time>2020-09-20T09:48:47Z</time>
      </trkpt>
      <trkpt lat="48.6968" lon="7.702">
        <ele>134.14035034</ele>
        <time>2020-09-20T09:48:49Z</time>
      </trkpt>
      <trkpt lat="48.69693" lon="7.70192">
        <ele>134.14035034</ele>
        <time>2020-09-20T09:48:51Z</time>
      </trkpt>
      <trkpt lat="48.69704" lon="7.70184">
        <ele>134.14035034</ele>
        <time>2020-09-20T09:48:53Z</time>
      </trkpt>
      <trkpt lat="48.69716" lon="7.70176">
        <ele>134.14035034</ele>
        <time>2020-09-20T09:48:55Z</time>
      </trkpt>
      <trkpt lat="48.69727" lon="7.7017">
        <ele>134.14035034</ele>
        <time>2020-09-20T09:48:58Z</time>
      </trkpt>
      <trkpt lat="48.69738" lon="7.70163">
        <ele>134.14035034</ele>
        <time>2020-09-20T09:48:59Z</time>
      </trkpt>
      <trkpt lat="48.6975" lon="7.70157">
        <ele>134.14035034</ele>
        <time>2020-09-20T09:49:01Z</time>
      </trkpt>
      <trkpt lat="48.69762" lon="7.7015">
        <ele>134.14035034</ele>
        <time>2020-09-20T09:49:03Z</time>
      </trkpt>
      <trkpt lat="48.69773" lon="7.70141">
        <ele>134.14035034</ele>
        <time>2020-09-20T09:49:05Z</time>
      </trkpt>
      <trkpt lat="48.69784" lon="7.70133">
        <ele>134.14035034</ele>
        <time>2020-09-20T09:49:07Z</time>
      </trkpt>
      <trkpt lat="48.69796" lon="7.70126">
        <ele>134.14035034</ele>
        <time>2020-09-20T09:49:09Z</time>
      </trkpt>
      <trkpt lat="48.69807" lon="7.7012">
        <ele>134.14035034</ele>
        <time>2020-09-20T09:49:11Z</time>
      </trkpt>
      <trkpt lat="48.69818" lon="7.70116">
        <ele>134.14035034</ele>
        <time>2020-09-20T09:49:13Z</time>
      </trkpt>
      <trkpt lat="48.6983" lon="7.7011">
        <ele>134.14035034</ele>
        <time>2020-09-20T09:49:15Z</time>
      </trkpt>
      <trkpt lat="48.6984" lon="7.70105">
        <ele>134.14035034</ele>
        <time>2020-09-20T09:49:17Z</time>
      </trkpt>
      <trkpt lat="48.6985" lon="7.70098">
        <ele>134.14035034</ele>
        <time>2020-09-20T09:49:20Z</time>
      </trkpt>
      <trkpt lat="48.69859" lon="7.70093">
        <ele>134.17419434</ele>
        <time>2020-09-20T09:49:21Z</time>
      </trkpt>
      <trkpt lat="48.69867" lon="7.70089">
        <ele>134.17419434</ele>
        <time>2020-09-20T09:49:22Z</time>
      </trkpt>
      <trkpt lat="48.69881" lon="7.70084">
        <ele>134.17419434</ele>
        <time>2020-09-20T09:49:24Z</time>
      </trkpt>
      <trkpt lat="48.69894" lon="7.70078">
        <ele>134.17419434</ele>
        <time>2020-09-20T09:49:26Z</time>
      </trkpt>
      <trkpt lat="48.69905" lon="7.70073">
        <ele>134.17419434</ele>
        <time>2020-09-20T09:49:28Z</time>
      </trkpt>
      <trkpt lat="48.69916" lon="7.70067">
        <ele>134.17419434</ele>
        <time>2020-09-20T09:49:31Z</time>
      </trkpt>
      <trkpt lat="48.69927" lon="7.7006">
        <ele>134.17419434</ele>
        <time>2020-09-20T09:49:32Z</time>
      </trkpt>
      <trkpt lat="48.69938" lon="7.70053">
        <ele>134.17419434</ele>
        <time>2020-09-20T09:49:34Z</time>
      </trkpt>
      <trkpt lat="48.69951" lon="7.70044">
        <ele>134.17419434</ele>
        <time>2020-09-20T09:49:36Z</time>
      </trkpt>
      <trkpt lat="48.69962" lon="7.70038">
        <ele>134.17419434</ele>
        <time>2020-09-20T09:49:38Z</time>
      </trkpt>
      <trkpt lat="48.69975" lon="7.70033">
        <ele>134.17419434</ele>
        <time>2020-09-20T09:49:40Z</time>
      </trkpt>
      <trkpt lat="48.69986" lon="7.7003">
        <ele>134.17419434</ele>
        <time>2020-09-20T09:49:42Z</time>
      </trkpt>
      <trkpt lat="48.69996" lon="7.70025">
        <ele>134.17419434</ele>
        <time>2020-09-20T09:49:44Z</time>
      </trkpt>
      <trkpt lat="48.70006" lon="7.70019">
        <ele>134.17419434</ele>
        <time>2020-09-20T09:49:46Z</time>
      </trkpt>
      <trkpt lat="48.70017" lon="7.70013">
        <ele>134.17419434</ele>
        <time>2020-09-20T09:49:48Z</time>
      </trkpt>
      <trkpt lat="48.70027" lon="7.70005">
        <ele>134.17419434</ele>
        <time>2020-09-20T09:49:50Z</time>
      </trkpt>
      <trkpt lat="48.70038" lon="7.69997">
        <ele>134.17419434</ele>
        <time>2020-09-20T09:49:52Z</time>
      </trkpt>
      <trkpt lat="48.7005" lon="7.69992">
        <ele>134.17419434</ele>
        <time>2020-09-20T09:49:54Z</time>
      </trkpt>
      <trkpt lat="48.70062" lon="7.6999">
        <ele>134.17419434</ele>
        <time>2020-09-20T09:49:56Z</time>
      </trkpt>
      <trkpt lat="48.70074" lon="7.69986">
        <ele>134.17419434</ele>
        <time>2020-09-20T09:49:58Z</time>
      </trkpt>
      <trkpt lat="48.70086" lon="7.69979">
        <ele>134.17419434</ele>
        <time>2020-09-20T09:50:01Z</time>
      </trkpt>
      <trkpt lat="48.70096" lon="7.6997">
        <ele>134.17419434</ele>
        <time>2020-09-20T09:50:02Z</time>
      </trkpt>
      <trkpt lat="48.70109" lon="7.69963">
        <ele>134.17419434</ele>
        <time>2020-09-20T09:50:04Z</time>
      </trkpt>
      <trkpt lat="48.70121" lon="7.69953">
        <ele>134.17419434</ele>
        <time>2020-09-20T09:50:06Z</time>
      </trkpt>
      <trkpt lat="48.70133" lon="7.69946">
        <ele>134.17419434</ele>
        <time>2020-09-20T09:50:08Z</time>
      </trkpt>
      <trkpt lat="48.70145" lon="7.69941">
        <ele>134.17419434</ele>
        <time>2020-09-20T09:50:10Z</time>
      </trkpt>
      <trkpt lat="48.70158" lon="7.69936">
        <ele>134.17419434</ele>
        <time>2020-09-20T09:50:12Z</time>
      </trkpt>
      <trkpt lat="48.70171" lon="7.6993">
        <ele>134.17419434</ele>
        <time>2020-09-20T09:50:14Z</time>
      </trkpt>
      <trkpt lat="48.70182" lon="7.69925">
        <ele>134.17419434</ele>
        <time>2020-09-20T09:50:16Z</time>
      </trkpt>
      <trkpt lat="48.70192" lon="7.69918">
        <ele>134.17419434</ele>
        <time>2020-09-20T09:50:18Z</time>
      </trkpt>
      <trkpt lat="48.70207" lon="7.6991">
        <ele>133.24862671</ele>
        <time>2020-09-20T09:50:21Z</time>
      </trkpt>
      <trkpt lat="48.70215" lon="7.69905">
        <ele>133.24862671</ele>
        <time>2020-09-20T09:50:22Z</time>
      </trkpt>
      <trkpt lat="48.70226" lon="7.699">
        <ele>133.24862671</ele>
        <time>2020-09-20T09:50:24Z</time>
      </trkpt>
      <trkpt lat="48.70235" lon="7.69896">
        <ele>133.24862671</ele>
        <time>2020-09-20T09:50:26Z</time>
      </trkpt>
      <trkpt lat="48.70247" lon="7.69889">
        <ele>133.24862671</ele>
        <time>2020-09-20T09:50:28Z</time>
      </trkpt>
      <trkpt lat="48.70257" lon="7.69883">
        <ele>133.24862671</ele>
        <time>2020-09-20T09:50:30Z</time>
      </trkpt>
      <trkpt lat="48.70267" lon="7.69875">
        <ele>133.24862671</ele>
        <time>2020-09-20T09:50:32Z</time>
      </trkpt>
      <trkpt lat="48.70278" lon="7.69868">
        <ele>133.24862671</ele>
        <time>2020-09-20T09:50:34Z</time>
      </trkpt>
      <trkpt lat="48.70291" lon="7.69862">
        <ele>133.24862671</ele>
        <time>2020-09-20T09:50:36Z</time>
      </trkpt>
      <trkpt lat="48.70305" lon="7.69855">
        <ele>133.24862671</ele>
        <time>2020-09-20T09:50:38Z</time>
      </trkpt>
      <trkpt lat="48.70318" lon="7.69853">
        <ele>133.24862671</ele>
        <time>2020-09-20T09:50:40Z</time>
      </trkpt>
      <trkpt lat="48.7033" lon="7.69852">
        <ele>133.24862671</ele>
        <time>2020-09-20T09:50:42Z</time>
      </trkpt>
      <trkpt lat="48.70343" lon="7.69846">
        <ele>133.24862671</ele>
        <time>2020-09-20T09:50:44Z</time>
      </trkpt>
      <trkpt lat="48.70355" lon="7.69839">
        <ele>133.24862671</ele>
        <time>2020-09-20T09:50:46Z</time>
      </trkpt>
      <trkpt lat="48.70368" lon="7.69831">
        <ele>133.24862671</ele>
        <time>2020-09-20T09:50:48Z</time>
      </trkpt>
      <trkpt lat="48.70381" lon="7.69823">
        <ele>133.26194763</ele>
        <time>2020-09-20T09:50:50Z</time>
      </trkpt>
      <trkpt lat="48.70392" lon="7.69815">
        <ele>133.26194763</ele>
        <time>2020-09-20T09:50:52Z</time>
      </trkpt>
      <trkpt lat="48.70403" lon="7.6981">
        <ele>133.26194763</ele>
        <time>2020-09-20T09:50:54Z</time>
      </trkpt>
      <trkpt lat="48.70413" lon="7.69805">
        <ele>133.26194763</ele>
        <time>2020-09-20T09:50:57Z</time>
      </trkpt>
      <trkpt lat="48.70425" lon="7.69801">
        <ele>133.26194763</ele>
        <time>2020-09-20T09:50:58Z</time>
      </trkpt>
      <trkpt lat="48.70437" lon="7.69798">
        <ele>133.26194763</ele>
        <time>2020-09-20T09:51:00Z</time>
      </trkpt>
      <trkpt lat="48.70448" lon="7.69794">
        <ele>133.26194763</ele>
        <time>2020-09-20T09:51:02Z</time>
      </trkpt>
      <trkpt lat="48.70459" lon="7.69788">
        <ele>133.26194763</ele>
        <time>2020-09-20T09:51:04Z</time>
      </trkpt>
      <trkpt lat="48.70469" lon="7.69781">
        <ele>133.26194763</ele>
        <time>2020-09-20T09:51:06Z</time>
      </trkpt>
      <trkpt lat="48.7048" lon="7.69773">
        <ele>133.26194763</ele>
        <time>2020-09-20T09:51:08Z</time>
      </trkpt>
      <trkpt lat="48.70491" lon="7.69767">
        <ele>133.26194763</ele>
        <time>2020-09-20T09:51:10Z</time>
      </trkpt>
      <trkpt lat="48.70503" lon="7.69763">
        <ele>133.26194763</ele>
        <time>2020-09-20T09:51:12Z</time>
      </trkpt>
      <trkpt lat="48.70513" lon="7.69759">
        <ele>133.26194763</ele>
        <time>2020-09-20T09:51:14Z</time>
      </trkpt>
      <trkpt lat="48.70523" lon="7.69753">
        <ele>133.26194763</ele>
        <time>2020-09-20T09:51:16Z</time>
      </trkpt>
      <trkpt lat="48.70535" lon="7.69743">
        <ele>133.26194763</ele>
        <time>2020-09-20T09:51:18Z</time>
      </trkpt>
      <trkpt lat="48.70549" lon="7.69732">
        <ele>132.00927734</ele>
        <time>2020-09-20T09:51:21Z</time>
      </trkpt>
      <trkpt lat="48.70558" lon="7.69727">
        <ele>132.00927734</ele>
        <time>2020-09-20T09:51:22Z</time>
      </trkpt>
      <trkpt lat="48.70569" lon="7.69722">
        <ele>132.00927734</ele>
        <time>2020-09-20T09:51:24Z</time>
      </trkpt>
      <trkpt lat="48.70581" lon="7.69717">
        <ele>132.00927734</ele>
        <time>2020-09-20T09:51:26Z</time>
      </trkpt>
      <trkpt lat="48.70592" lon="7.69711">
        <ele>132.00927734</ele>
        <time>2020-09-20T09:51:28Z</time>
      </trkpt>
      <trkpt lat="48.70604" lon="7.69706">
        <ele>132.00927734</ele>
        <time>2020-09-20T09:51:30Z</time>
      </trkpt>
      <trkpt lat="48.70615" lon="7.69697">
        <ele>132.00927734</ele>
        <time>2020-09-20T09:51:32Z</time>
      </trkpt>
      <trkpt lat="48.70627" lon="7.6969">
        <ele>132.00927734</ele>
        <time>2020-09-20T09:51:34Z</time>
      </trkpt>
      <trkpt lat="48.70639" lon="7.69682">
        <ele>132.00927734</ele>
        <time>2020-09-20T09:51:36Z</time>
      </trkpt>
      <trkpt lat="48.70649" lon="7.69674">
        <ele>132.00927734</ele>
        <time>2020-09-20T09:51:38Z</time>
      </trkpt>
      <trkpt lat="48.7066" lon="7.69667">
        <ele>132.00927734</ele>
        <time>2020-09-20T09:51:40Z</time>
      </trkpt>
      <trkpt lat="48.70671" lon="7.6966">
        <ele>132.00927734</ele>
        <time>2020-09-20T09:51:42Z</time>
      </trkpt>
      <trkpt lat="48.70683" lon="7.69653">
        <ele>132.00927734</ele>
        <time>2020-09-20T09:51:44Z</time>
      </trkpt>
      <trkpt lat="48.70694" lon="7.69645">
        <ele>132.00927734</ele>
        <time>2020-09-20T09:51:46Z</time>
      </trkpt>
      <trkpt lat="48.70704" lon="7.69637">
        <ele>132.00927734</ele>
        <time>2020-09-20T09:51:49Z</time>
      </trkpt>
      <trkpt lat="48.70714" lon="7.69629">
        <ele>132.00927734</ele>
        <time>2020-09-20T09:51:50Z</time>
      </trkpt>
      <trkpt lat="48.70725" lon="7.69619">
        <ele>132.00927734</ele>
        <time>2020-09-20T09:51:53Z</time>
      </trkpt>
      <trkpt lat="48.70737" lon="7.69612">
        <ele>132.00927734</ele>
        <time>2020-09-20T09:51:54Z</time>
      </trkpt>
      <trkpt lat="48.70747" lon="7.69605">
        <ele>132.00927734</ele>
        <time>2020-09-20T09:51:56Z</time>
      </trkpt>
      <trkpt lat="48.70758" lon="7.69599">
        <ele>132.00927734</ele>
        <time>2020-09-20T09:51:58Z</time>
      </trkpt>
      <trkpt lat="48.70769" lon="7.6959">
        <ele>132.00927734</ele>
        <time>2020-09-20T09:52:00Z</time>
      </trkpt>
      <trkpt lat="48.70779" lon="7.69578">
        <ele>132.00927734</ele>
        <time>2020-09-20T09:52:02Z</time>
      </trkpt>
      <trkpt lat="48.70788" lon="7.69569">
        <ele>132.00927734</ele>
        <time>2020-09-20T09:52:04Z</time>
      </trkpt>
      <trkpt lat="48.70797" lon="7.69559">
        <ele>132.00927734</ele>
        <time>2020-09-20T09:52:07Z</time>
      </trkpt>
      <trkpt lat="48.70806" lon="7.69549">
        <ele>132.00927734</ele>
        <time>2020-09-20T09:52:08Z</time>
      </trkpt>
      <trkpt lat="48.70814" lon="7.69542">
        <ele>132.00927734</ele>
        <time>2020-09-20T09:52:11Z</time>
      </trkpt>
      <trkpt lat="48.70823" lon="7.69536">
        <ele>132.00927734</ele>
        <time>2020-09-20T09:52:12Z</time>
      </trkpt>
      <trkpt lat="48.70833" lon="7.69528">
        <ele>132.00927734</ele>
        <time>2020-09-20T09:52:14Z</time>
      </trkpt>
      <trkpt lat="48.70842" lon="7.69519">
        <ele>131.74597168</ele>
        <time>2020-09-20T09:52:16Z</time>
      </trkpt>
      <trkpt lat="48.70852" lon="7.69511">
        <ele>131.74597168</ele>
        <time>2020-09-20T09:52:18Z</time>
      </trkpt>
      <trkpt lat="48.70859" lon="7.69502">
        <ele>134.06098938</ele>
        <time>2020-09-20T09:52:21Z</time>
      </trkpt>
      <trkpt lat="48.70861" lon="7.69488">
        <ele>134.06098938</ele>
        <time>2020-09-20T09:52:23Z</time>
      </trkpt>
      <trkpt lat="48.70868" lon="7.69475">
        <ele>134.06098938</ele>
        <time>2020-09-20T09:52:26Z</time>
      </trkpt>
      <trkpt lat="48.70878" lon="7.69471">
        <ele>134.06098938</ele>
        <time>2020-09-20T09:52:28Z</time>
      </trkpt>
      <trkpt lat="48.70888" lon="7.69469">
        <ele>134.06098938</ele>
        <time>2020-09-20T09:52:31Z</time>
      </trkpt>
      <trkpt lat="48.709" lon="7.69463">
        <ele>134.06098938</ele>
        <time>2020-09-20T09:52:33Z</time>
      </trkpt>
      <trkpt lat="48.70911" lon="7.69454">
        <ele>134.06098938</ele>
        <time>2020-09-20T09:52:36Z</time>
      </trkpt>
      <trkpt lat="48.70922" lon="7.69443">
        <ele>134.06098938</ele>
        <time>2020-09-20T09:52:38Z</time>
      </trkpt>
      <trkpt lat="48.70931" lon="7.69435">
        <ele>134.06098938</ele>
        <time>2020-09-20T09:52:40Z</time>
      </trkpt>
      <trkpt lat="48.7094" lon="7.69428">
        <ele>134.06098938</ele>
        <time>2020-09-20T09:52:42Z</time>
      </trkpt>
      <trkpt lat="48.70949" lon="7.6942">
        <ele>134.06098938</ele>
        <time>2020-09-20T09:52:44Z</time>
      </trkpt>
      <trkpt lat="48.70958" lon="7.69411">
        <ele>134.06098938</ele>
        <time>2020-09-20T09:52:46Z</time>
      </trkpt>
      <trkpt lat="48.70971" lon="7.69402">
        <ele>134.06098938</ele>
        <time>2020-09-20T09:52:48Z</time>
      </trkpt>
      <trkpt lat="48.70983" lon="7.69394">
        <ele>134.06098938</ele>
        <time>2020-09-20T09:52:50Z</time>
      </trkpt>
      <trkpt lat="48.70995" lon="7.69385">
        <ele>134.06098938</ele>
        <time>2020-09-20T09:52:52Z</time>
      </trkpt>
      <trkpt lat="48.71006" lon="7.69378">
        <ele>134.06098938</ele>
        <time>2020-09-20T09:52:54Z</time>
      </trkpt>
      <trkpt lat="48.71018" lon="7.6937">
        <ele>134.06098938</ele>
        <time>2020-09-20T09:52:56Z</time>
      </trkpt>
      <trkpt lat="48.71028" lon="7.69361">
        <ele>134.06098938</ele>
        <time>2020-09-20T09:52:58Z</time>
      </trkpt>
      <trkpt lat="48.71038" lon="7.6935">
        <ele>134.06098938</ele>
        <time>2020-09-20T09:53:00Z</time>
      </trkpt>
      <trkpt lat="48.71048" lon="7.69341">
        <ele>134.06098938</ele>
        <time>2020-09-20T09:53:02Z</time>
      </trkpt>
      <trkpt lat="48.71059" lon="7.69332">
        <ele>134.06098938</ele>
        <time>2020-09-20T09:53:04Z</time>
      </trkpt>
      <trkpt lat="48.71071" lon="7.69323">
        <ele>134.06098938</ele>
        <time>2020-09-20T09:53:06Z</time>
      </trkpt>
      <trkpt lat="48.71081" lon="7.69314">
        <ele>134.06098938</ele>
        <time>2020-09-20T09:53:08Z</time>
      </trkpt>
      <trkpt lat="48.71092" lon="7.69307">
        <ele>134.06098938</ele>
        <time>2020-09-20T09:53:10Z</time>
      </trkpt>
      <trkpt lat="48.71101" lon="7.69299">
        <ele>134.06098938</ele>
        <time>2020-09-20T09:53:12Z</time>
      </trkpt>
      <trkpt lat="48.71111" lon="7.69292">
        <ele>134.06098938</ele>
        <time>2020-09-20T09:53:14Z</time>
      </trkpt>
      <trkpt lat="48.71123" lon="7.69281">
        <ele>134.06098938</ele>
        <time>2020-09-20T09:53:16Z</time>
      </trkpt>
      <trkpt lat="48.71133" lon="7.69273">
        <ele>134.06098938</ele>
        <time>2020-09-20T09:53:18Z</time>
      </trkpt>
      <trkpt lat="48.71147" lon="7.69261">
        <ele>134.22389221</ele>
        <time>2020-09-20T09:53:21Z</time>
      </trkpt>
      <trkpt lat="48.71154" lon="7.69254">
        <ele>134.22389221</ele>
        <time>2020-09-20T09:53:22Z</time>
      </trkpt>
      <trkpt lat="48.71165" lon="7.69245">
        <ele>134.22389221</ele>
        <time>2020-09-20T09:53:24Z</time>
      </trkpt>
      <trkpt lat="48.71175" lon="7.69236">
        <ele>134.22389221</ele>
        <time>2020-09-20T09:53:26Z</time>
      </trkpt>
      <trkpt lat="48.71186" lon="7.69227">
        <ele>134.22389221</ele>
        <time>2020-09-20T09:53:28Z</time>
      </trkpt>
      <trkpt lat="48.71196" lon="7.69218">
        <ele>134.22389221</ele>
        <time>2020-09-20T09:53:30Z</time>
      </trkpt>
      <trkpt lat="48.71206" lon="7.69209">
        <ele>134.22389221</ele>
        <time>2020-09-20T09:53:32Z</time>
      </trkpt>
      <trkpt lat="48.71217" lon="7.692">
        <ele>134.22389221</ele>
        <time>2020-09-20T09:53:34Z</time>
      </trkpt>
      <trkpt lat="48.71229" lon="7.69189">
        <ele>134.22389221</ele>
        <time>2020-09-20T09:53:36Z</time>
      </trkpt>
      <trkpt lat="48.7124" lon="7.6918">
        <ele>134.22389221</ele>
        <time>2020-09-20T09:53:38Z</time>
      </trkpt>
      <trkpt lat="48.7125" lon="7.69173">
        <ele>134.22389221</ele>
        <time>2020-09-20T09:53:40Z</time>
      </trkpt>
      <trkpt lat="48.71262" lon="7.69164">
        <ele>134.22389221</ele>
        <time>2020-09-20T09:53:42Z</time>
      </trkpt>
      <trkpt lat="48.71272" lon="7.69157">
        <ele>134.22389221</ele>
        <time>2020-09-20T09:53:44Z</time>
      </trkpt>
      <trkpt lat="48.71283" lon="7.69148">
        <ele>134.22389221</ele>
        <time>2020-09-20T09:53:47Z</time>
      </trkpt>
      <trkpt lat="48.71294" lon="7.69139">
        <ele>134.22389221</ele>
        <time>2020-09-20T09:53:48Z</time>
      </trkpt>
      <trkpt lat="48.71304" lon="7.69131">
        <ele>134.22389221</ele>
        <time>2020-09-20T09:53:50Z</time>
      </trkpt>
      <trkpt lat="48.71315" lon="7.69123">
        <ele>134.22389221</ele>
        <time>2020-09-20T09:53:52Z</time>
      </trkpt>
      <trkpt lat="48.71326" lon="7.69115">
        <ele>134.22389221</ele>
        <time>2020-09-20T09:53:54Z</time>
      </trkpt>
      <trkpt lat="48.71339" lon="7.69109">
        <ele>134.22389221</ele>
        <time>2020-09-20T09:53:56Z</time>
      </trkpt>
      <trkpt lat="48.7135" lon="7.69104">
        <ele>134.22389221</ele>
        <time>2020-09-20T09:53:58Z</time>
      </trkpt>
      <trkpt lat="48.71362" lon="7.69097">
        <ele>134.22389221</ele>
        <time>2020-09-20T09:54:01Z</time>
      </trkpt>
      <trkpt lat="48.71373" lon="7.69089">
        <ele>134.22389221</ele>
        <time>2020-09-20T09:54:02Z</time>
      </trkpt>
      <trkpt lat="48.71383" lon="7.6908">
        <ele>134.33387756</ele>
        <time>2020-09-20T09:54:04Z</time>
      </trkpt>
      <trkpt lat="48.71394" lon="7.69069">
        <ele>134.33387756</ele>
        <time>2020-09-20T09:54:06Z</time>
      </trkpt>
      <trkpt lat="48.71404" lon="7.69059">
        <ele>134.33387756</ele>
        <time>2020-09-20T09:54:09Z</time>
      </trkpt>
      <trkpt lat="48.71415" lon="7.69052">
        <ele>134.33387756</ele>
        <time>2020-09-20T09:54:10Z</time>
      </trkpt>
      <trkpt lat="48.71424" lon="7.69044">
        <ele>134.33387756</ele>
        <time>2020-09-20T09:54:12Z</time>
      </trkpt>
      <trkpt lat="48.71433" lon="7.69036">
        <ele>134.33387756</ele>
        <time>2020-09-20T09:54:15Z</time>
      </trkpt>
      <trkpt lat="48.71441" lon="7.69026">
        <ele>134.33387756</ele>
        <time>2020-09-20T09:54:16Z</time>
      </trkpt>
      <trkpt lat="48.7145" lon="7.69015">
        <ele>134.33387756</ele>
        <time>2020-09-20T09:54:18Z</time>
      </trkpt>
      <trkpt lat="48.71458" lon="7.69005">
        <ele>134.33387756</ele>
        <time>2020-09-20T09:54:21Z</time>
      </trkpt>
      <trkpt lat="48.71466" lon="7.68995">
        <ele>133.84529114</ele>
        <time>2020-09-20T09:54:22Z</time>
      </trkpt>
      <trkpt lat="48.71475" lon="7.68993">
        <ele>133.84529114</ele>
        <time>2020-09-20T09:54:26Z</time>
      </trkpt>
      <trkpt lat="48.71484" lon="7.68988">
        <ele>133.84529114</ele>
        <time>2020-09-20T09:54:27Z</time>
      </trkpt>
      <trkpt lat="48.71494" lon="7.6898">
        <ele>133.84529114</ele>
        <time>2020-09-20T09:54:29Z</time>
      </trkpt>
      <trkpt lat="48.71503" lon="7.68972">
        <ele>133.84529114</ele>
        <time>2020-09-20T09:54:31Z</time>
      </trkpt>
      <trkpt lat="48.71513" lon="7.68965">
        <ele>133.84529114</ele>
        <time>2020-09-20T09:54:33Z</time>
      </trkpt>
      <trkpt lat="48.71523" lon="7.68958">
        <ele>133.84529114</ele>
        <time>2020-09-20T09:54:35Z</time>
      </trkpt>
      <trkpt lat="48.71534" lon="7.68951">
        <ele>133.84529114</ele>
        <time>2020-09-20T09:54:37Z</time>
      </trkpt>
      <trkpt lat="48.71545" lon="7.68943">
        <ele>133.84529114</ele>
        <time>2020-09-20T09:54:39Z</time>
      </trkpt>
      <trkpt lat="48.71557" lon="7.68936">
        <ele>133.84529114</ele>
        <time>2020-09-20T09:54:41Z</time>
      </trkpt>
      <trkpt lat="48.71567" lon="7.68927">
        <ele>133.84529114</ele>
        <time>2020-09-20T09:54:43Z</time>
      </trkpt>
      <trkpt lat="48.71576" lon="7.68917">
        <ele>133.84529114</ele>
        <time>2020-09-20T09:54:45Z</time>
      </trkpt>
      <trkpt lat="48.71584" lon="7.68907">
        <ele>133.84529114</ele>
        <time>2020-09-20T09:54:47Z</time>
      </trkpt>
      <trkpt lat="48.71595" lon="7.68898">
        <ele>133.84529114</ele>
        <time>2020-09-20T09:54:49Z</time>
      </trkpt>
      <trkpt lat="48.71604" lon="7.68889">
        <ele>133.84529114</ele>
        <time>2020-09-20T09:54:51Z</time>
      </trkpt>
      <trkpt lat="48.71612" lon="7.68881">
        <ele>133.84529114</ele>
        <time>2020-09-20T09:54:53Z</time>
      </trkpt>
      <trkpt lat="48.71621" lon="7.68873">
        <ele>133.84529114</ele>
        <time>2020-09-20T09:54:56Z</time>
      </trkpt>
      <trkpt lat="48.71632" lon="7.68864">
        <ele>133.84529114</ele>
        <time>2020-09-20T09:54:58Z</time>
      </trkpt>
      <trkpt lat="48.71641" lon="7.68855">
        <ele>133.84529114</ele>
        <time>2020-09-20T09:55:00Z</time>
      </trkpt>
      <trkpt lat="48.7165" lon="7.68844">
        <ele>133.84529114</ele>
        <time>2020-09-20T09:55:02Z</time>
      </trkpt>
      <trkpt lat="48.7166" lon="7.68834">
        <ele>133.84529114</ele>
        <time>2020-09-20T09:55:04Z</time>
      </trkpt>
      <trkpt lat="48.7167" lon="7.68824">
        <ele>133.84529114</ele>
        <time>2020-09-20T09:55:06Z</time>
      </trkpt>
      <trkpt lat="48.71679" lon="7.68815">
        <ele>133.84529114</ele>
        <time>2020-09-20T09:55:08Z</time>
      </trkpt>
      <trkpt lat="48.71688" lon="7.68807">
        <ele>133.84529114</ele>
        <time>2020-09-20T09:55:10Z</time>
      </trkpt>
      <trkpt lat="48.71699" lon="7.68801">
        <ele>133.84529114</ele>
        <time>2020-09-20T09:55:13Z</time>
      </trkpt>
      <trkpt lat="48.71708" lon="7.68794">
        <ele>133.84529114</ele>
        <time>2020-09-20T09:55:15Z</time>
      </trkpt>
      <trkpt lat="48.71718" lon="7.68786">
        <ele>133.84529114</ele>
        <time>2020-09-20T09:55:17Z</time>
      </trkpt>
      <trkpt lat="48.71729" lon="7.6878">
        <ele>133.84529114</ele>
        <time>2020-09-20T09:55:19Z</time>
      </trkpt>
      <trkpt lat="48.71737" lon="7.68772">
        <ele>134.42668152</ele>
        <time>2020-09-20T09:55:21Z</time>
      </trkpt>
      <trkpt lat="48.71745" lon="7.68764">
        <ele>134.42668152</ele>
        <time>2020-09-20T09:55:22Z</time>
      </trkpt>
      <trkpt lat="48.71755" lon="7.68754">
        <ele>134.42668152</ele>
        <time>2020-09-20T09:55:24Z</time>
      </trkpt>
      <trkpt lat="48.71766" lon="7.68747">
        <ele>134.42668152</ele>
        <time>2020-09-20T09:55:26Z</time>
      </trkpt>
      <trkpt lat="48.71777" lon="7.6874">
        <ele>134.42668152</ele>
        <time>2020-09-20T09:55:28Z</time>
      </trkpt>
      <trkpt lat="48.71788" lon="7.68731">
        <ele>134.42668152</ele>
        <time>2020-09-20T09:55:31Z</time>
      </trkpt>
      <trkpt lat="48.71798" lon="7.68721">
        <ele>134.42668152</ele>
        <time>2020-09-20T09:55:32Z</time>
      </trkpt>
      <trkpt lat="48.71809" lon="7.68711">
        <ele>134.42668152</ele>
        <time>2020-09-20T09:55:34Z</time>
      </trkpt>
      <trkpt lat="48.7182" lon="7.68701">
        <ele>134.42668152</ele>
        <time>2020-09-20T09:55:36Z</time>
      </trkpt>
      <trkpt lat="48.7183" lon="7.68691">
        <ele>134.42668152</ele>
        <time>2020-09-20T09:55:38Z</time>
      </trkpt>
      <trkpt lat="48.71841" lon="7.68683">
        <ele>134.42668152</ele>
        <time>2020-09-20T09:55:40Z</time>
      </trkpt>
      <trkpt lat="48.71851" lon="7.68676">
        <ele>134.42668152</ele>
        <time>2020-09-20T09:55:42Z</time>
      </trkpt>
      <trkpt lat="48.71862" lon="7.68669">
        <ele>134.42668152</ele>
        <time>2020-09-20T09:55:44Z</time>
      </trkpt>
      <trkpt lat="48.71873" lon="7.68659">
        <ele>134.42668152</ele>
        <time>2020-09-20T09:55:47Z</time>
      </trkpt>
      <trkpt lat="48.71883" lon="7.68651">
        <ele>134.42668152</ele>
        <time>2020-09-20T09:55:48Z</time>
      </trkpt>
      <trkpt lat="48.71895" lon="7.68646">
        <ele>134.42668152</ele>
        <time>2020-09-20T09:55:50Z</time>
      </trkpt>
      <trkpt lat="48.71905" lon="7.68638">
        <ele>134.42668152</ele>
        <time>2020-09-20T09:55:52Z</time>
      </trkpt>
      <trkpt lat="48.71915" lon="7.68629">
        <ele>134.42668152</ele>
        <time>2020-09-20T09:55:54Z</time>
      </trkpt>
      <trkpt lat="48.71926" lon="7.68622">
        <ele>134.42668152</ele>
        <time>2020-09-20T09:55:56Z</time>
      </trkpt>
      <trkpt lat="48.71936" lon="7.68615">
        <ele>134.42668152</ele>
        <time>2020-09-20T09:55:58Z</time>
      </trkpt>
      <trkpt lat="48.71946" lon="7.68608">
        <ele>134.42668152</ele>
        <time>2020-09-20T09:56:00Z</time>
      </trkpt>
      <trkpt lat="48.71956" lon="7.68599">
        <ele>134.42668152</ele>
        <time>2020-09-20T09:56:02Z</time>
      </trkpt>
      <trkpt lat="48.71966" lon="7.6859">
        <ele>134.42668152</ele>
        <time>2020-09-20T09:56:04Z</time>
      </trkpt>
      <trkpt lat="48.71977" lon="7.68581">
        <ele>134.42668152</ele>
        <time>2020-09-20T09:56:06Z</time>
      </trkpt>
      <trkpt lat="48.71987" lon="7.68571">
        <ele>134.42668152</ele>
        <time>2020-09-20T09:56:08Z</time>
      </trkpt>
      <trkpt lat="48.71998" lon="7.68562">
        <ele>134.42668152</ele>
        <time>2020-09-20T09:56:11Z</time>
      </trkpt>
      <trkpt lat="48.72008" lon="7.68555">
        <ele>134.42668152</ele>
        <time>2020-09-20T09:56:12Z</time>
      </trkpt>
      <trkpt lat="48.72018" lon="7.68547">
        <ele>134.42668152</ele>
        <time>2020-09-20T09:56:14Z</time>
      </trkpt>
      <trkpt lat="48.72029" lon="7.68538">
        <ele>134.42668152</ele>
        <time>2020-09-20T09:56:16Z</time>
      </trkpt>
      <trkpt lat="48.72039" lon="7.68529">
        <ele>134.42668152</ele>
        <time>2020-09-20T09:56:18Z</time>
      </trkpt>
      <trkpt lat="48.72052" lon="7.68516">
        <ele>134.69224548</ele>
        <time>2020-09-20T09:56:21Z</time>
      </trkpt>
      <trkpt lat="48.7206" lon="7.68509">
        <ele>134.69224548</ele>
        <time>2020-09-20T09:56:23Z</time>
      </trkpt>
      <trkpt lat="48.7207" lon="7.68502">
        <ele>134.69224548</ele>
        <time>2020-09-20T09:56:24Z</time>
      </trkpt>
      <trkpt lat="48.7208" lon="7.68494">
        <ele>134.69224548</ele>
        <time>2020-09-20T09:56:26Z</time>
      </trkpt>
      <trkpt lat="48.72089" lon="7.68486">
        <ele>134.69224548</ele>
        <time>2020-09-20T09:56:28Z</time>
      </trkpt>
      <trkpt lat="48.72099" lon="7.68475">
        <ele>134.69224548</ele>
        <time>2020-09-20T09:56:30Z</time>
      </trkpt>
      <trkpt lat="48.72108" lon="7.68462">
        <ele>134.69224548</ele>
        <time>2020-09-20T09:56:32Z</time>
      </trkpt>
      <trkpt lat="48.72118" lon="7.68451">
        <ele>134.69224548</ele>
        <time>2020-09-20T09:56:34Z</time>
      </trkpt>
      <trkpt lat="48.72128" lon="7.68439">
        <ele>134.69224548</ele>
        <time>2020-09-20T09:56:36Z</time>
      </trkpt>
      <trkpt lat="48.72137" lon="7.68426">
        <ele>134.69224548</ele>
        <time>2020-09-20T09:56:38Z</time>
      </trkpt>
      <trkpt lat="48.72146" lon="7.68414">
        <ele>134.69224548</ele>
        <time>2020-09-20T09:56:40Z</time>
      </trkpt>
      <trkpt lat="48.72154" lon="7.68402">
        <ele>134.69224548</ele>
        <time>2020-09-20T09:56:42Z</time>
      </trkpt>
      <trkpt lat="48.72162" lon="7.68389">
        <ele>134.69224548</ele>
        <time>2020-09-20T09:56:44Z</time>
      </trkpt>
      <trkpt lat="48.72171" lon="7.68377">
        <ele>134.69224548</ele>
        <time>2020-09-20T09:56:46Z</time>
      </trkpt>
      <trkpt lat="48.7218" lon="7.68365">
        <ele>134.69224548</ele>
        <time>2020-09-20T09:56:48Z</time>
      </trkpt>
      <trkpt lat="48.72189" lon="7.68352">
        <ele>134.69224548</ele>
        <time>2020-09-20T09:56:51Z</time>
      </trkpt>
      <trkpt lat="48.72197" lon="7.68337">
        <ele>134.69224548</ele>
        <time>2020-09-20T09:56:52Z</time>
      </trkpt>
      <trkpt lat="48.72207" lon="7.68325">
        <ele>134.69224548</ele>
        <time>2020-09-20T09:56:55Z</time>
      </trkpt>
      <trkpt lat="48.72215" lon="7.68313">
        <ele>134.69224548</ele>
        <time>2020-09-20T09:56:56Z</time>
      </trkpt>
      <trkpt lat="48.72224" lon="7.683">
        <ele>134.69224548</ele>
        <time>2020-09-20T09:56:58Z</time>
      </trkpt>
      <trkpt lat="48.72231" lon="7.68286">
        <ele>134.69224548</ele>
        <time>2020-09-20T09:57:01Z</time>
      </trkpt>
      <trkpt lat="48.72237" lon="7.68273">
        <ele>134.69224548</ele>
        <time>2020-09-20T09:57:03Z</time>
      </trkpt>
      <trkpt lat="48.72243" lon="7.68259">
        <ele>134.69224548</ele>
        <time>2020-09-20T09:57:04Z</time>
      </trkpt>
      <trkpt lat="48.7225" lon="7.68244">
        <ele>134.69224548</ele>
        <time>2020-09-20T09:57:06Z</time>
      </trkpt>
      <trkpt lat="48.72257" lon="7.68229">
        <ele>134.69224548</ele>
        <time>2020-09-20T09:57:08Z</time>
      </trkpt>
      <trkpt lat="48.72264" lon="7.68214">
        <ele>134.69224548</ele>
        <time>2020-09-20T09:57:10Z</time>
      </trkpt>
      <trkpt lat="48.72274" lon="7.68199">
        <ele>134.69224548</ele>
        <time>2020-09-20T09:57:13Z</time>
      </trkpt>
      <trkpt lat="48.7228" lon="7.68184">
        <ele>134.69224548</ele>
        <time>2020-09-20T09:57:14Z</time>
      </trkpt>
      <trkpt lat="48.72287" lon="7.6817">
        <ele>134.69224548</ele>
        <time>2020-09-20T09:57:16Z</time>
      </trkpt>
      <trkpt lat="48.72293" lon="7.68156">
        <ele>134.69224548</ele>
        <time>2020-09-20T09:57:18Z</time>
      </trkpt>
      <trkpt lat="48.72301" lon="7.68137">
        <ele>134.86262512</ele>
        <time>2020-09-20T09:57:21Z</time>
      </trkpt>
      <trkpt lat="48.72305" lon="7.68127">
        <ele>134.86262512</ele>
        <time>2020-09-20T09:57:23Z</time>
      </trkpt>
      <trkpt lat="48.72313" lon="7.68113">
        <ele>134.86262512</ele>
        <time>2020-09-20T09:57:24Z</time>
      </trkpt>
      <trkpt lat="48.72319" lon="7.68099">
        <ele>134.86262512</ele>
        <time>2020-09-20T09:57:26Z</time>
      </trkpt>
      <trkpt lat="48.72327" lon="7.68083">
        <ele>134.86262512</ele>
        <time>2020-09-20T09:57:28Z</time>
      </trkpt>
      <trkpt lat="48.72334" lon="7.68067">
        <ele>134.86262512</ele>
        <time>2020-09-20T09:57:30Z</time>
      </trkpt>
      <trkpt lat="48.72341" lon="7.68052">
        <ele>134.86262512</ele>
        <time>2020-09-20T09:57:33Z</time>
      </trkpt>
      <trkpt lat="48.72348" lon="7.68038">
        <ele>134.86262512</ele>
        <time>2020-09-20T09:57:34Z</time>
      </trkpt>
      <trkpt lat="48.72356" lon="7.68024">
        <ele>134.86262512</ele>
        <time>2020-09-20T09:57:36Z</time>
      </trkpt>
      <trkpt lat="48.72364" lon="7.68009">
        <ele>134.86262512</ele>
        <time>2020-09-20T09:57:38Z</time>
      </trkpt>
      <trkpt lat="48.72371" lon="7.67994">
        <ele>134.86262512</ele>
        <time>2020-09-20T09:57:40Z</time>
      </trkpt>
      <trkpt lat="48.7238" lon="7.6798">
        <ele>134.86262512</ele>
        <time>2020-09-20T09:57:42Z</time>
      </trkpt>
      <trkpt lat="48.72389" lon="7.67968">
        <ele>134.86262512</ele>
        <time>2020-09-20T09:57:44Z</time>
      </trkpt>
      <trkpt lat="48.72395" lon="7.67952">
        <ele>134.86262512</ele>
        <time>2020-09-20T09:57:46Z</time>
      </trkpt>
      <trkpt lat="48.72401" lon="7.67936">
        <ele>134.86262512</ele>
        <time>2020-09-20T09:57:48Z</time>
      </trkpt>
      <trkpt lat="48.72407" lon="7.67919">
        <ele>134.86262512</ele>
        <time>2020-09-20T09:57:50Z</time>
      </trkpt>
      <trkpt lat="48.72414" lon="7.67902">
        <ele>134.86262512</ele>
        <time>2020-09-20T09:57:53Z</time>
      </trkpt>
      <trkpt lat="48.72421" lon="7.67886">
        <ele>134.86262512</ele>
        <time>2020-09-20T09:57:54Z</time>
      </trkpt>
      <trkpt lat="48.72429" lon="7.67872">
        <ele>134.86262512</ele>
        <time>2020-09-20T09:57:56Z</time>
      </trkpt>
      <trkpt lat="48.72435" lon="7.67857">
        <ele>134.86262512</ele>
        <time>2020-09-20T09:57:58Z</time>
      </trkpt>
      <trkpt lat="48.72443" lon="7.67841">
        <ele>134.86262512</ele>
        <time>2020-09-20T09:58:01Z</time>
      </trkpt>
      <trkpt lat="48.72449" lon="7.67825">
        <ele>134.86262512</ele>
        <time>2020-09-20T09:58:02Z</time>
      </trkpt>
      <trkpt lat="48.72456" lon="7.67811">
        <ele>134.86262512</ele>
        <time>2020-09-20T09:58:04Z</time>
      </trkpt>
      <trkpt lat="48.72463" lon="7.67797">
        <ele>134.86262512</ele>
        <time>2020-09-20T09:58:06Z</time>
      </trkpt>
      <trkpt lat="48.7247" lon="7.6778">
        <ele>134.86262512</ele>
        <time>2020-09-20T09:58:08Z</time>
      </trkpt>
      <trkpt lat="48.72477" lon="7.67766">
        <ele>134.86262512</ele>
        <time>2020-09-20T09:58:10Z</time>
      </trkpt>
      <trkpt lat="48.72485" lon="7.67753">
        <ele>134.86262512</ele>
        <time>2020-09-20T09:58:12Z</time>
      </trkpt>
      <trkpt lat="48.72492" lon="7.67741">
        <ele>134.86262512</ele>
        <time>2020-09-20T09:58:14Z</time>
      </trkpt>
      <trkpt lat="48.72499" lon="7.67727">
        <ele>134.86262512</ele>
        <time>2020-09-20T09:58:16Z</time>
      </trkpt>
      <trkpt lat="48.72505" lon="7.67712">
        <ele>134.86262512</ele>
        <time>2020-09-20T09:58:18Z</time>
      </trkpt>
      <trkpt lat="48.72513" lon="7.67695">
        <ele>135.0059967</ele>
        <time>2020-09-20T09:58:21Z</time>
      </trkpt>
      <trkpt lat="48.72518" lon="7.67685">
        <ele>135.0059967</ele>
        <time>2020-09-20T09:58:22Z</time>
      </trkpt>
      <trkpt lat="48.72524" lon="7.67671">
        <ele>135.0059967</ele>
        <time>2020-09-20T09:58:24Z</time>
      </trkpt>
      <trkpt lat="48.72532" lon="7.67659">
        <ele>135.0059967</ele>
        <time>2020-09-20T09:58:26Z</time>
      </trkpt>
      <trkpt lat="48.7254" lon="7.67646">
        <ele>135.0059967</ele>
        <time>2020-09-20T09:58:28Z</time>
      </trkpt>
      <trkpt lat="48.72547" lon="7.67632">
        <ele>135.0059967</ele>
        <time>2020-09-20T09:58:30Z</time>
      </trkpt>
      <trkpt lat="48.72554" lon="7.67619">
        <ele>135.0059967</ele>
        <time>2020-09-20T09:58:32Z</time>
      </trkpt>
      <trkpt lat="48.7256" lon="7.67604">
        <ele>135.0059967</ele>
        <time>2020-09-20T09:58:34Z</time>
      </trkpt>
      <trkpt lat="48.72566" lon="7.6759">
        <ele>135.0059967</ele>
        <time>2020-09-20T09:58:36Z</time>
      </trkpt>
      <trkpt lat="48.72573" lon="7.67575">
        <ele>135.0059967</ele>
        <time>2020-09-20T09:58:38Z</time>
      </trkpt>
      <trkpt lat="48.72581" lon="7.67562">
        <ele>135.0059967</ele>
        <time>2020-09-20T09:58:40Z</time>
      </trkpt>
      <trkpt lat="48.72588" lon="7.67547">
        <ele>135.0059967</ele>
        <time>2020-09-20T09:58:42Z</time>
      </trkpt>
      <trkpt lat="48.72595" lon="7.67532">
        <ele>135.0059967</ele>
        <time>2020-09-20T09:58:44Z</time>
      </trkpt>
      <trkpt lat="48.72602" lon="7.67515">
        <ele>135.0059967</ele>
        <time>2020-09-20T09:58:46Z</time>
      </trkpt>
      <trkpt lat="48.72609" lon="7.67499">
        <ele>135.0059967</ele>
        <time>2020-09-20T09:58:48Z</time>
      </trkpt>
      <trkpt lat="48.72616" lon="7.67483">
        <ele>135.0059967</ele>
        <time>2020-09-20T09:58:50Z</time>
      </trkpt>
      <trkpt lat="48.72623" lon="7.67469">
        <ele>135.0059967</ele>
        <time>2020-09-20T09:58:52Z</time>
      </trkpt>
      <trkpt lat="48.7263" lon="7.67454">
        <ele>135.0059967</ele>
        <time>2020-09-20T09:58:55Z</time>
      </trkpt>
      <trkpt lat="48.72638" lon="7.6744">
        <ele>135.0059967</ele>
        <time>2020-09-20T09:58:57Z</time>
      </trkpt>
      <trkpt lat="48.72645" lon="7.67425">
        <ele>135.0059967</ele>
        <time>2020-09-20T09:58:58Z</time>
      </trkpt>
      <trkpt lat="48.72651" lon="7.67411">
        <ele>135.0059967</ele>
        <time>2020-09-20T09:59:00Z</time>
      </trkpt>
      <trkpt lat="48.72659" lon="7.67395">
        <ele>135.0059967</ele>
        <time>2020-09-20T09:59:02Z</time>
      </trkpt>
      <trkpt lat="48.72666" lon="7.6738">
        <ele>135.0059967</ele>
        <time>2020-09-20T09:59:04Z</time>
      </trkpt>
      <trkpt lat="48.72674" lon="7.67366">
        <ele>135.0059967</ele>
        <time>2020-09-20T09:59:06Z</time>
      </trkpt>
      <trkpt lat="48.7268" lon="7.67351">
        <ele>135.0059967</ele>
        <time>2020-09-20T09:59:08Z</time>
      </trkpt>
      <trkpt lat="48.72687" lon="7.67336">
        <ele>135.0059967</ele>
        <time>2020-09-20T09:59:10Z</time>
      </trkpt>
      <trkpt lat="48.72695" lon="7.67321">
        <ele>135.0059967</ele>
        <time>2020-09-20T09:59:12Z</time>
      </trkpt>
      <trkpt lat="48.72702" lon="7.67305">
        <ele>135.0059967</ele>
        <time>2020-09-20T09:59:14Z</time>
      </trkpt>
      <trkpt lat="48.72709" lon="7.67289">
        <ele>135.0059967</ele>
        <time>2020-09-20T09:59:16Z</time>
      </trkpt>
      <trkpt lat="48.72717" lon="7.67276">
        <ele>135.0059967</ele>
        <time>2020-09-20T09:59:18Z</time>
      </trkpt>
      <trkpt lat="48.72725" lon="7.67262">
        <ele>135.0059967</ele>
        <time>2020-09-20T09:59:21Z</time>
      </trkpt>
      <trkpt lat="48.72732" lon="7.67248">
        <ele>135.14102173</ele>
        <time>2020-09-20T09:59:22Z</time>
      </trkpt>
      <trkpt lat="48.72739" lon="7.67233">
        <ele>135.14102173</ele>
        <time>2020-09-20T09:59:24Z</time>
      </trkpt>
      <trkpt lat="48.72747" lon="7.67218">
        <ele>135.14102173</ele>
        <time>2020-09-20T09:59:26Z</time>
      </trkpt>
      <trkpt lat="48.72754" lon="7.67201">
        <ele>135.14102173</ele>
        <time>2020-09-20T09:59:28Z</time>
      </trkpt>
      <trkpt lat="48.72761" lon="7.67186">
        <ele>135.14102173</ele>
        <time>2020-09-20T09:59:31Z</time>
      </trkpt>
      <trkpt lat="48.72768" lon="7.67171">
        <ele>135.14102173</ele>
        <time>2020-09-20T09:59:32Z</time>
      </trkpt>
      <trkpt lat="48.72775" lon="7.67157">
        <ele>135.14102173</ele>
        <time>2020-09-20T09:59:34Z</time>
      </trkpt>
      <trkpt lat="48.72781" lon="7.67144">
        <ele>135.14102173</ele>
        <time>2020-09-20T09:59:37Z</time>
      </trkpt>
      <trkpt lat="48.72788" lon="7.67129">
        <ele>135.14102173</ele>
        <time>2020-09-20T09:59:38Z</time>
      </trkpt>
      <trkpt lat="48.72796" lon="7.67114">
        <ele>135.14102173</ele>
        <time>2020-09-20T09:59:40Z</time>
      </trkpt>
      <trkpt lat="48.72802" lon="7.671">
        <ele>135.14102173</ele>
        <time>2020-09-20T09:59:42Z</time>
      </trkpt>
      <trkpt lat="48.72809" lon="7.67085">
        <ele>135.14102173</ele>
        <time>2020-09-20T09:59:44Z</time>
      </trkpt>
      <trkpt lat="48.72817" lon="7.6707">
        <ele>135.14102173</ele>
        <time>2020-09-20T09:59:46Z</time>
      </trkpt>
      <trkpt lat="48.72824" lon="7.67055">
        <ele>135.14102173</ele>
        <time>2020-09-20T09:59:48Z</time>
      </trkpt>
      <trkpt lat="48.72831" lon="7.67041">
        <ele>135.14102173</ele>
        <time>2020-09-20T09:59:51Z</time>
      </trkpt>
      <trkpt lat="48.72838" lon="7.67027">
        <ele>135.14102173</ele>
        <time>2020-09-20T09:59:52Z</time>
      </trkpt>
      <trkpt lat="48.72844" lon="7.67012">
        <ele>135.14102173</ele>
        <time>2020-09-20T09:59:54Z</time>
      </trkpt>
      <trkpt lat="48.72851" lon="7.66997">
        <ele>135.14102173</ele>
        <time>2020-09-20T09:59:56Z</time>
      </trkpt>
      <trkpt lat="48.72858" lon="7.66985">
        <ele>135.14102173</ele>
        <time>2020-09-20T09:59:58Z</time>
      </trkpt>
      <trkpt lat="48.72865" lon="7.6697">
        <ele>135.14102173</ele>
        <time>2020-09-20T10:00:01Z</time>
      </trkpt>
      <trkpt lat="48.72872" lon="7.66955">
        <ele>135.14102173</ele>
        <time>2020-09-20T10:00:02Z</time>
      </trkpt>
      <trkpt lat="48.72879" lon="7.66941">
        <ele>135.14102173</ele>
        <time>2020-09-20T10:00:04Z</time>
      </trkpt>
      <trkpt lat="48.72887" lon="7.66925">
        <ele>135.14102173</ele>
        <time>2020-09-20T10:00:06Z</time>
      </trkpt>
      <trkpt lat="48.72895" lon="7.6691">
        <ele>135.14102173</ele>
        <time>2020-09-20T10:00:08Z</time>
      </trkpt>
      <trkpt lat="48.72902" lon="7.66895">
        <ele>135.14102173</ele>
        <time>2020-09-20T10:00:10Z</time>
      </trkpt>
      <trkpt lat="48.72909" lon="7.6688">
        <ele>135.14102173</ele>
        <time>2020-09-20T10:00:12Z</time>
      </trkpt>
      <trkpt lat="48.72916" lon="7.66864">
        <ele>135.14102173</ele>
        <time>2020-09-20T10:00:14Z</time>
      </trkpt>
      <trkpt lat="48.72924" lon="7.66849">
        <ele>135.14102173</ele>
        <time>2020-09-20T10:00:16Z</time>
      </trkpt>
      <trkpt lat="48.72932" lon="7.66834">
        <ele>135.14102173</ele>
        <time>2020-09-20T10:00:19Z</time>
      </trkpt>
      <trkpt lat="48.7294" lon="7.66816">
        <ele>134.50036621</ele>
        <time>2020-09-20T10:00:21Z</time>
      </trkpt>
      <trkpt lat="48.72945" lon="7.66804">
        <ele>134.50036621</ele>
        <time>2020-09-20T10:00:22Z</time>
      </trkpt>
      <trkpt lat="48.72952" lon="7.66789">
        <ele>134.50036621</ele>
        <time>2020-09-20T10:00:24Z</time>
      </trkpt>
      <trkpt lat="48.7296" lon="7.66773">
        <ele>134.50036621</ele>
        <time>2020-09-20T10:00:26Z</time>
      </trkpt>
      <trkpt lat="48.72968" lon="7.6676">
        <ele>134.50036621</ele>
        <time>2020-09-20T10:00:28Z</time>
      </trkpt>
      <trkpt lat="48.72974" lon="7.66746">
        <ele>134.50036621</ele>
        <time>2020-09-20T10:00:30Z</time>
      </trkpt>
      <trkpt lat="48.72981" lon="7.66731">
        <ele>134.50036621</ele>
        <time>2020-09-20T10:00:32Z</time>
      </trkpt>
      <trkpt lat="48.72988" lon="7.66716">
        <ele>134.50036621</ele>
        <time>2020-09-20T10:00:34Z</time>
      </trkpt>
      <trkpt lat="48.72996" lon="7.66702">
        <ele>134.50036621</ele>
        <time>2020-09-20T10:00:36Z</time>
      </trkpt>
      <trkpt lat="48.73003" lon="7.66687">
        <ele>134.50036621</ele>
        <time>2020-09-20T10:00:38Z</time>
      </trkpt>
      <trkpt lat="48.7301" lon="7.66672">
        <ele>134.50036621</ele>
        <time>2020-09-20T10:00:40Z</time>
      </trkpt>
      <trkpt lat="48.73016" lon="7.66657">
        <ele>134.50036621</ele>
        <time>2020-09-20T10:00:42Z</time>
      </trkpt>
      <trkpt lat="48.73023" lon="7.66643">
        <ele>134.50036621</ele>
        <time>2020-09-20T10:00:44Z</time>
      </trkpt>
      <trkpt lat="48.7303" lon="7.66629">
        <ele>134.50036621</ele>
        <time>2020-09-20T10:00:46Z</time>
      </trkpt>
      <trkpt lat="48.73036" lon="7.66615">
        <ele>134.50036621</ele>
        <time>2020-09-20T10:00:48Z</time>
      </trkpt>
      <trkpt lat="48.73043" lon="7.66602">
        <ele>134.50036621</ele>
        <time>2020-09-20T10:00:50Z</time>
      </trkpt>
      <trkpt lat="48.7305" lon="7.66588">
        <ele>134.50036621</ele>
        <time>2020-09-20T10:00:52Z</time>
      </trkpt>
      <trkpt lat="48.73056" lon="7.66574">
        <ele>134.50036621</ele>
        <time>2020-09-20T10:00:54Z</time>
      </trkpt>
      <trkpt lat="48.73063" lon="7.66561">
        <ele>134.50036621</ele>
        <time>2020-09-20T10:00:56Z</time>
      </trkpt>
      <trkpt lat="48.7307" lon="7.66547">
        <ele>134.50036621</ele>
        <time>2020-09-20T10:00:58Z</time>
      </trkpt>
      <trkpt lat="48.73077" lon="7.66533">
        <ele>134.50036621</ele>
        <time>2020-09-20T10:01:01Z</time>
      </trkpt>
      <trkpt lat="48.73084" lon="7.66518">
        <ele>134.50036621</ele>
        <time>2020-09-20T10:01:02Z</time>
      </trkpt>
      <trkpt lat="48.73091" lon="7.66504">
        <ele>134.50036621</ele>
        <time>2020-09-20T10:01:04Z</time>
      </trkpt>
      <trkpt lat="48.73098" lon="7.6649">
        <ele>134.50036621</ele>
        <time>2020-09-20T10:01:06Z</time>
      </trkpt>
      <trkpt lat="48.73105" lon="7.66476">
        <ele>134.98750305</ele>
        <time>2020-09-20T10:01:08Z</time>
      </trkpt>
      <trkpt lat="48.73111" lon="7.66464">
        <ele>134.98750305</ele>
        <time>2020-09-20T10:01:10Z</time>
      </trkpt>
      <trkpt lat="48.73117" lon="7.66454">
        <ele>134.98750305</ele>
        <time>2020-09-20T10:01:12Z</time>
      </trkpt>
      <trkpt lat="48.73124" lon="7.66444">
        <ele>138.01043701</ele>
        <time>2020-09-20T10:01:16Z</time>
      </trkpt>
      <trkpt lat="48.73129" lon="7.66434">
        <ele>138.99821472</ele>
        <time>2020-09-20T10:01:21Z</time>
      </trkpt>
      <trkpt lat="48.73123" lon="7.66423">
        <ele>138.99821472</ele>
        <time>2020-09-20T10:01:23Z</time>
      </trkpt>
      <trkpt lat="48.73115" lon="7.66415">
        <ele>138.99821472</ele>
        <time>2020-09-20T10:01:26Z</time>
      </trkpt>
      <trkpt lat="48.73107" lon="7.66406">
        <ele>138.99821472</ele>
        <time>2020-09-20T10:01:30Z</time>
      </trkpt>
      <trkpt lat="48.73109" lon="7.66392">
        <ele>139.08381653</ele>
        <time>2020-09-20T10:01:33Z</time>
      </trkpt>
      <trkpt lat="48.73117" lon="7.6638">
        <ele>139.08381653</ele>
        <time>2020-09-20T10:01:36Z</time>
      </trkpt>
      <trkpt lat="48.73125" lon="7.66367">
        <ele>139.08381653</ele>
        <time>2020-09-20T10:01:38Z</time>
      </trkpt>
      <trkpt lat="48.73132" lon="7.66354">
        <ele>139.08381653</ele>
        <time>2020-09-20T10:01:41Z</time>
      </trkpt>
      <trkpt lat="48.73141" lon="7.6634">
        <ele>139.08381653</ele>
        <time>2020-09-20T10:01:43Z</time>
      </trkpt>
      <trkpt lat="48.7315" lon="7.66325">
        <ele>139.08381653</ele>
        <time>2020-09-20T10:01:45Z</time>
      </trkpt>
      <trkpt lat="48.73156" lon="7.66313">
        <ele>139.08381653</ele>
        <time>2020-09-20T10:01:48Z</time>
      </trkpt>
      <trkpt lat="48.73162" lon="7.663">
        <ele>139.08381653</ele>
        <time>2020-09-20T10:01:49Z</time>
      </trkpt>
      <trkpt lat="48.73167" lon="7.66288">
        <ele>139.08381653</ele>
        <time>2020-09-20T10:01:51Z</time>
      </trkpt>
      <trkpt lat="48.73174" lon="7.66274">
        <ele>139.08381653</ele>
        <time>2020-09-20T10:01:54Z</time>
      </trkpt>
      <trkpt lat="48.7318" lon="7.6626">
        <ele>139.08381653</ele>
        <time>2020-09-20T10:01:56Z</time>
      </trkpt>
      <trkpt lat="48.73185" lon="7.66245">
        <ele>139.08381653</ele>
        <time>2020-09-20T10:01:59Z</time>
      </trkpt>
      <trkpt lat="48.73193" lon="7.6623">
        <ele>139.08381653</ele>
        <time>2020-09-20T10:02:02Z</time>
      </trkpt>
      <trkpt lat="48.732" lon="7.66216">
        <ele>139.08381653</ele>
        <time>2020-09-20T10:02:05Z</time>
      </trkpt>
      <trkpt lat="48.73207" lon="7.66204">
        <ele>139.08381653</ele>
        <time>2020-09-20T10:02:08Z</time>
      </trkpt>
      <trkpt lat="48.73214" lon="7.66192">
        <ele>139.08381653</ele>
        <time>2020-09-20T10:02:11Z</time>
      </trkpt>
      <trkpt lat="48.73222" lon="7.66176">
        <ele>139.08381653</ele>
        <time>2020-09-20T10:02:14Z</time>
      </trkpt>
      <trkpt lat="48.73229" lon="7.66162">
        <ele>139.08381653</ele>
        <time>2020-09-20T10:02:16Z</time>
      </trkpt>
      <trkpt lat="48.73234" lon="7.66149">
        <ele>139.08381653</ele>
        <time>2020-09-20T10:02:18Z</time>
      </trkpt>
      <trkpt lat="48.73242" lon="7.66133">
        <ele>137.95339966</ele>
        <time>2020-09-20T10:02:21Z</time>
      </trkpt>
      <trkpt lat="48.73247" lon="7.66124">
        <ele>137.95339966</ele>
        <time>2020-09-20T10:02:22Z</time>
      </trkpt>
      <trkpt lat="48.73254" lon="7.6611">
        <ele>137.95339966</ele>
        <time>2020-09-20T10:02:24Z</time>
      </trkpt>
      <trkpt lat="48.73261" lon="7.66097">
        <ele>137.95339966</ele>
        <time>2020-09-20T10:02:27Z</time>
      </trkpt>
      <trkpt lat="48.73267" lon="7.66083">
        <ele>137.95339966</ele>
        <time>2020-09-20T10:02:28Z</time>
      </trkpt>
      <trkpt lat="48.73274" lon="7.66068">
        <ele>137.95339966</ele>
        <time>2020-09-20T10:02:30Z</time>
      </trkpt>
      <trkpt lat="48.7328" lon="7.66054">
        <ele>137.95339966</ele>
        <time>2020-09-20T10:02:32Z</time>
      </trkpt>
      <trkpt lat="48.73286" lon="7.66041">
        <ele>137.95339966</ele>
        <time>2020-09-20T10:02:34Z</time>
      </trkpt>
      <trkpt lat="48.73294" lon="7.66027">
        <ele>137.95339966</ele>
        <time>2020-09-20T10:02:37Z</time>
      </trkpt>
      <trkpt lat="48.73302" lon="7.66013">
        <ele>137.95339966</ele>
        <time>2020-09-20T10:02:38Z</time>
      </trkpt>
      <trkpt lat="48.73309" lon="7.65999">
        <ele>137.95339966</ele>
        <time>2020-09-20T10:02:40Z</time>
      </trkpt>
      <trkpt lat="48.73316" lon="7.65987">
        <ele>137.95339966</ele>
        <time>2020-09-20T10:02:42Z</time>
      </trkpt>
      <trkpt lat="48.73324" lon="7.65974">
        <ele>137.95339966</ele>
        <time>2020-09-20T10:02:44Z</time>
      </trkpt>
      <trkpt lat="48.73332" lon="7.6596">
        <ele>137.95339966</ele>
        <time>2020-09-20T10:02:46Z</time>
      </trkpt>
      <trkpt lat="48.73339" lon="7.65948">
        <ele>137.95339966</ele>
        <time>2020-09-20T10:02:48Z</time>
      </trkpt>
      <trkpt lat="48.73346" lon="7.65934">
        <ele>137.95339966</ele>
        <time>2020-09-20T10:02:50Z</time>
      </trkpt>
      <trkpt lat="48.73353" lon="7.65922">
        <ele>137.95339966</ele>
        <time>2020-09-20T10:02:52Z</time>
      </trkpt>
      <trkpt lat="48.7336" lon="7.65908">
        <ele>137.95339966</ele>
        <time>2020-09-20T10:02:54Z</time>
      </trkpt>
      <trkpt lat="48.73367" lon="7.65894">
        <ele>137.95339966</ele>
        <time>2020-09-20T10:02:56Z</time>
      </trkpt>
      <trkpt lat="48.73373" lon="7.6588">
        <ele>137.95339966</ele>
        <time>2020-09-20T10:02:58Z</time>
      </trkpt>
      <trkpt lat="48.73381" lon="7.65867">
        <ele>137.95339966</ele>
        <time>2020-09-20T10:03:00Z</time>
      </trkpt>
      <trkpt lat="48.73388" lon="7.65852">
        <ele>137.95339966</ele>
        <time>2020-09-20T10:03:02Z</time>
      </trkpt>
      <trkpt lat="48.73397" lon="7.65838">
        <ele>137.95339966</ele>
        <time>2020-09-20T10:03:04Z</time>
      </trkpt>
      <trkpt lat="48.73405" lon="7.65825">
        <ele>137.95339966</ele>
        <time>2020-09-20T10:03:06Z</time>
      </trkpt>
      <trkpt lat="48.73412" lon="7.65812">
        <ele>137.95339966</ele>
        <time>2020-09-20T10:03:08Z</time>
      </trkpt>
      <trkpt lat="48.7342" lon="7.65799">
        <ele>137.95339966</ele>
        <time>2020-09-20T10:03:11Z</time>
      </trkpt>
      <trkpt lat="48.73427" lon="7.65784">
        <ele>137.95339966</ele>
        <time>2020-09-20T10:03:12Z</time>
      </trkpt>
      <trkpt lat="48.73433" lon="7.65771">
        <ele>137.95339966</ele>
        <time>2020-09-20T10:03:14Z</time>
      </trkpt>
      <trkpt lat="48.73441" lon="7.65756">
        <ele>137.95339966</ele>
        <time>2020-09-20T10:03:16Z</time>
      </trkpt>
      <trkpt lat="48.73448" lon="7.65741">
        <ele>137.95339966</ele>
        <time>2020-09-20T10:03:18Z</time>
      </trkpt>
      <trkpt lat="48.73457" lon="7.65724">
        <ele>138.1628418</ele>
        <time>2020-09-20T10:03:21Z</time>
      </trkpt>
      <trkpt lat="48.73463" lon="7.65714">
        <ele>138.1628418</ele>
        <time>2020-09-20T10:03:22Z</time>
      </trkpt>
      <trkpt lat="48.73471" lon="7.65699">
        <ele>138.1628418</ele>
        <time>2020-09-20T10:03:24Z</time>
      </trkpt>
      <trkpt lat="48.73478" lon="7.65684">
        <ele>138.1628418</ele>
        <time>2020-09-20T10:03:26Z</time>
      </trkpt>
      <trkpt lat="48.73486" lon="7.6567">
        <ele>138.1628418</ele>
        <time>2020-09-20T10:03:28Z</time>
      </trkpt>
      <trkpt lat="48.73493" lon="7.65656">
        <ele>138.1628418</ele>
        <time>2020-09-20T10:03:30Z</time>
      </trkpt>
      <trkpt lat="48.735" lon="7.65642">
        <ele>138.1628418</ele>
        <time>2020-09-20T10:03:32Z</time>
      </trkpt>
      <trkpt lat="48.73508" lon="7.65627">
        <ele>138.1628418</ele>
        <time>2020-09-20T10:03:34Z</time>
      </trkpt>
      <trkpt lat="48.73515" lon="7.65613">
        <ele>138.1628418</ele>
        <time>2020-09-20T10:03:36Z</time>
      </trkpt>
      <trkpt lat="48.73523" lon="7.65599">
        <ele>138.1628418</ele>
        <time>2020-09-20T10:03:38Z</time>
      </trkpt>
      <trkpt lat="48.73531" lon="7.65586">
        <ele>138.1628418</ele>
        <time>2020-09-20T10:03:40Z</time>
      </trkpt>
      <trkpt lat="48.73539" lon="7.65572">
        <ele>138.1628418</ele>
        <time>2020-09-20T10:03:42Z</time>
      </trkpt>
      <trkpt lat="48.73547" lon="7.65558">
        <ele>138.1628418</ele>
        <time>2020-09-20T10:03:44Z</time>
      </trkpt>
      <trkpt lat="48.73554" lon="7.65544">
        <ele>138.1628418</ele>
        <time>2020-09-20T10:03:46Z</time>
      </trkpt>
      <trkpt lat="48.73561" lon="7.65529">
        <ele>138.1628418</ele>
        <time>2020-09-20T10:03:48Z</time>
      </trkpt>
      <trkpt lat="48.7357" lon="7.65515">
        <ele>138.1628418</ele>
        <time>2020-09-20T10:03:50Z</time>
      </trkpt>
      <trkpt lat="48.73577" lon="7.65499">
        <ele>138.1628418</ele>
        <time>2020-09-20T10:03:52Z</time>
      </trkpt>
      <trkpt lat="48.73584" lon="7.65485">
        <ele>138.1628418</ele>
        <time>2020-09-20T10:03:54Z</time>
      </trkpt>
      <trkpt lat="48.73591" lon="7.6547">
        <ele>138.1628418</ele>
        <time>2020-09-20T10:03:56Z</time>
      </trkpt>
      <trkpt lat="48.73599" lon="7.65457">
        <ele>138.1628418</ele>
        <time>2020-09-20T10:03:58Z</time>
      </trkpt>
      <trkpt lat="48.73607" lon="7.65443">
        <ele>138.1628418</ele>
        <time>2020-09-20T10:04:00Z</time>
      </trkpt>
      <trkpt lat="48.73615" lon="7.65427">
        <ele>138.1628418</ele>
        <time>2020-09-20T10:04:02Z</time>
      </trkpt>
      <trkpt lat="48.73624" lon="7.65413">
        <ele>138.1628418</ele>
        <time>2020-09-20T10:04:04Z</time>
      </trkpt>
      <trkpt lat="48.73631" lon="7.65398">
        <ele>138.1628418</ele>
        <time>2020-09-20T10:04:06Z</time>
      </trkpt>
      <trkpt lat="48.73638" lon="7.65383">
        <ele>138.1628418</ele>
        <time>2020-09-20T10:04:08Z</time>
      </trkpt>
      <trkpt lat="48.73645" lon="7.65369">
        <ele>138.1628418</ele>
        <time>2020-09-20T10:04:10Z</time>
      </trkpt>
      <trkpt lat="48.73652" lon="7.65355">
        <ele>138.1628418</ele>
        <time>2020-09-20T10:04:12Z</time>
      </trkpt>
      <trkpt lat="48.73658" lon="7.65342">
        <ele>138.1628418</ele>
        <time>2020-09-20T10:04:14Z</time>
      </trkpt>
      <trkpt lat="48.73665" lon="7.65329">
        <ele>138.1628418</ele>
        <time>2020-09-20T10:04:16Z</time>
      </trkpt>
      <trkpt lat="48.73672" lon="7.65314">
        <ele>138.1628418</ele>
        <time>2020-09-20T10:04:18Z</time>
      </trkpt>
      <trkpt lat="48.73681" lon="7.65296">
        <ele>138.03153992</ele>
        <time>2020-09-20T10:04:21Z</time>
      </trkpt>
      <trkpt lat="48.73686" lon="7.65286">
        <ele>138.03153992</ele>
        <time>2020-09-20T10:04:22Z</time>
      </trkpt>
      <trkpt lat="48.73694" lon="7.65274">
        <ele>138.03153992</ele>
        <time>2020-09-20T10:04:24Z</time>
      </trkpt>
      <trkpt lat="48.73699" lon="7.65262">
        <ele>139.24842834</ele>
        <time>2020-09-20T10:04:26Z</time>
      </trkpt>
      <trkpt lat="48.73704" lon="7.6525">
        <ele>139.24842834</ele>
        <time>2020-09-20T10:04:28Z</time>
      </trkpt>
      <trkpt lat="48.73711" lon="7.65236">
        <ele>139.24842834</ele>
        <time>2020-09-20T10:04:31Z</time>
      </trkpt>
      <trkpt lat="48.73718" lon="7.65223">
        <ele>140.36166382</ele>
        <time>2020-09-20T10:04:33Z</time>
      </trkpt>
      <trkpt lat="48.73726" lon="7.65211">
        <ele>140.36166382</ele>
        <time>2020-09-20T10:04:35Z</time>
      </trkpt>
      <trkpt lat="48.73735" lon="7.65197">
        <ele>140.03086853</ele>
        <time>2020-09-20T10:04:37Z</time>
      </trkpt>
      <trkpt lat="48.73745" lon="7.65183">
        <ele>140.03086853</ele>
        <time>2020-09-20T10:04:39Z</time>
      </trkpt>
      <trkpt lat="48.73753" lon="7.65168">
        <ele>140.03086853</ele>
        <time>2020-09-20T10:04:41Z</time>
      </trkpt>
      <trkpt lat="48.73763" lon="7.65153">
        <ele>140.03086853</ele>
        <time>2020-09-20T10:04:43Z</time>
      </trkpt>
      <trkpt lat="48.73771" lon="7.65135">
        <ele>138.74829102</ele>
        <time>2020-09-20T10:04:45Z</time>
      </trkpt>
      <trkpt lat="48.7378" lon="7.6512">
        <ele>138.74829102</ele>
        <time>2020-09-20T10:04:47Z</time>
      </trkpt>
      <trkpt lat="48.73789" lon="7.65104">
        <ele>138.74829102</ele>
        <time>2020-09-20T10:04:49Z</time>
      </trkpt>
      <trkpt lat="48.73797" lon="7.65089">
        <ele>138.74829102</ele>
        <time>2020-09-20T10:04:51Z</time>
      </trkpt>
      <trkpt lat="48.73805" lon="7.65073">
        <ele>138.74829102</ele>
        <time>2020-09-20T10:04:53Z</time>
      </trkpt>
      <trkpt lat="48.73813" lon="7.65057">
        <ele>138.74829102</ele>
        <time>2020-09-20T10:04:55Z</time>
      </trkpt>
      <trkpt lat="48.73821" lon="7.65043">
        <ele>138.74829102</ele>
        <time>2020-09-20T10:04:57Z</time>
      </trkpt>
      <trkpt lat="48.73829" lon="7.65027">
        <ele>137.76979065</ele>
        <time>2020-09-20T10:04:59Z</time>
      </trkpt>
      <trkpt lat="48.73836" lon="7.65013">
        <ele>137.76979065</ele>
        <time>2020-09-20T10:05:01Z</time>
      </trkpt>
      <trkpt lat="48.73843" lon="7.64999">
        <ele>137.76979065</ele>
        <time>2020-09-20T10:05:03Z</time>
      </trkpt>
      <trkpt lat="48.7385" lon="7.64985">
        <ele>137.76979065</ele>
        <time>2020-09-20T10:05:05Z</time>
      </trkpt>
      <trkpt lat="48.73858" lon="7.64972">
        <ele>137.76979065</ele>
        <time>2020-09-20T10:05:07Z</time>
      </trkpt>
      <trkpt lat="48.73865" lon="7.64958">
        <ele>137.76979065</ele>
        <time>2020-09-20T10:05:09Z</time>
      </trkpt>
      <trkpt lat="48.73872" lon="7.64943">
        <ele>137.76979065</ele>
        <time>2020-09-20T10:05:11Z</time>
      </trkpt>
      <trkpt lat="48.7388" lon="7.64928">
        <ele>137.76979065</ele>
        <time>2020-09-20T10:05:13Z</time>
      </trkpt>
      <trkpt lat="48.73888" lon="7.64913">
        <ele>137.76979065</ele>
        <time>2020-09-20T10:05:15Z</time>
      </trkpt>
      <trkpt lat="48.73896" lon="7.649">
        <ele>137.76979065</ele>
        <time>2020-09-20T10:05:17Z</time>
      </trkpt>
      <trkpt lat="48.73903" lon="7.64886">
        <ele>137.76979065</ele>
        <time>2020-09-20T10:05:19Z</time>
      </trkpt>
      <trkpt lat="48.73909" lon="7.64876">
        <ele>137.42497253</ele>
        <time>2020-09-20T10:05:21Z</time>
      </trkpt>
      <trkpt lat="48.73914" lon="7.64866">
        <ele>137.42497253</ele>
        <time>2020-09-20T10:05:22Z</time>
      </trkpt>
      <trkpt lat="48.73921" lon="7.64852">
        <ele>137.42497253</ele>
        <time>2020-09-20T10:05:24Z</time>
      </trkpt>
      <trkpt lat="48.73929" lon="7.64838">
        <ele>137.42497253</ele>
        <time>2020-09-20T10:05:26Z</time>
      </trkpt>
      <trkpt lat="48.73936" lon="7.64824">
        <ele>137.42497253</ele>
        <time>2020-09-20T10:05:28Z</time>
      </trkpt>
      <trkpt lat="48.73944" lon="7.6481">
        <ele>137.42497253</ele>
        <time>2020-09-20T10:05:30Z</time>
      </trkpt>
      <trkpt lat="48.73951" lon="7.64798">
        <ele>137.42497253</ele>
        <time>2020-09-20T10:05:32Z</time>
      </trkpt>
      <trkpt lat="48.73957" lon="7.64785">
        <ele>137.42497253</ele>
        <time>2020-09-20T10:05:34Z</time>
      </trkpt>
      <trkpt lat="48.73964" lon="7.6477">
        <ele>137.42497253</ele>
        <time>2020-09-20T10:05:36Z</time>
      </trkpt>
      <trkpt lat="48.73972" lon="7.64757">
        <ele>137.42497253</ele>
        <time>2020-09-20T10:05:38Z</time>
      </trkpt>
      <trkpt lat="48.7398" lon="7.64743">
        <ele>137.42497253</ele>
        <time>2020-09-20T10:05:40Z</time>
      </trkpt>
      <trkpt lat="48.73987" lon="7.64729">
        <ele>137.42497253</ele>
        <time>2020-09-20T10:05:42Z</time>
      </trkpt>
      <trkpt lat="48.73994" lon="7.64715">
        <ele>137.42497253</ele>
        <time>2020-09-20T10:05:44Z</time>
      </trkpt>
      <trkpt lat="48.74002" lon="7.64701">
        <ele>137.42497253</ele>
        <time>2020-09-20T10:05:46Z</time>
      </trkpt>
      <trkpt lat="48.74009" lon="7.64687">
        <ele>137.42497253</ele>
        <time>2020-09-20T10:05:48Z</time>
      </trkpt>
      <trkpt lat="48.74015" lon="7.64673">
        <ele>137.42497253</ele>
        <time>2020-09-20T10:05:50Z</time>
      </trkpt>
      <trkpt lat="48.74023" lon="7.64659">
        <ele>137.42497253</ele>
        <time>2020-09-20T10:05:52Z</time>
      </trkpt>
      <trkpt lat="48.74031" lon="7.64644">
        <ele>137.42497253</ele>
        <time>2020-09-20T10:05:54Z</time>
      </trkpt>
      <trkpt lat="48.74038" lon="7.6463">
        <ele>137.42497253</ele>
        <time>2020-09-20T10:05:56Z</time>
      </trkpt>
      <trkpt lat="48.74045" lon="7.64617">
        <ele>137.42497253</ele>
        <time>2020-09-20T10:05:58Z</time>
      </trkpt>
      <trkpt lat="48.74052" lon="7.64605">
        <ele>137.42497253</ele>
        <time>2020-09-20T10:06:00Z</time>
      </trkpt>
      <trkpt lat="48.74059" lon="7.6459">
        <ele>137.42497253</ele>
        <time>2020-09-20T10:06:02Z</time>
      </trkpt>
      <trkpt lat="48.74067" lon="7.64577">
        <ele>137.42497253</ele>
        <time>2020-09-20T10:06:04Z</time>
      </trkpt>
      <trkpt lat="48.74073" lon="7.64563">
        <ele>137.42497253</ele>
        <time>2020-09-20T10:06:06Z</time>
      </trkpt>
      <trkpt lat="48.74081" lon="7.64548">
        <ele>137.42497253</ele>
        <time>2020-09-20T10:06:08Z</time>
      </trkpt>
      <trkpt lat="48.74089" lon="7.64534">
        <ele>137.42497253</ele>
        <time>2020-09-20T10:06:10Z</time>
      </trkpt>
      <trkpt lat="48.74097" lon="7.6452">
        <ele>137.42497253</ele>
        <time>2020-09-20T10:06:12Z</time>
      </trkpt>
      <trkpt lat="48.74105" lon="7.64507">
        <ele>137.42497253</ele>
        <time>2020-09-20T10:06:14Z</time>
      </trkpt>
      <trkpt lat="48.74112" lon="7.64492">
        <ele>137.42497253</ele>
        <time>2020-09-20T10:06:16Z</time>
      </trkpt>
      <trkpt lat="48.7412" lon="7.64476">
        <ele>137.42497253</ele>
        <time>2020-09-20T10:06:19Z</time>
      </trkpt>
      <trkpt lat="48.74131" lon="7.64458">
        <ele>138.01338196</ele>
        <time>2020-09-20T10:06:21Z</time>
      </trkpt>
      <trkpt lat="48.74137" lon="7.64449">
        <ele>138.01338196</ele>
        <time>2020-09-20T10:06:22Z</time>
      </trkpt>
      <trkpt lat="48.74145" lon="7.64435">
        <ele>138.01338196</ele>
        <time>2020-09-20T10:06:24Z</time>
      </trkpt>
      <trkpt lat="48.74152" lon="7.6442">
        <ele>138.01338196</ele>
        <time>2020-09-20T10:06:26Z</time>
      </trkpt>
      <trkpt lat="48.7416" lon="7.64405">
        <ele>138.01338196</ele>
        <time>2020-09-20T10:06:28Z</time>
      </trkpt>
      <trkpt lat="48.74168" lon="7.64391">
        <ele>138.01338196</ele>
        <time>2020-09-20T10:06:30Z</time>
      </trkpt>
      <trkpt lat="48.74175" lon="7.64376">
        <ele>138.01338196</ele>
        <time>2020-09-20T10:06:32Z</time>
      </trkpt>
      <trkpt lat="48.74181" lon="7.64362">
        <ele>138.13038635</ele>
        <time>2020-09-20T10:06:34Z</time>
      </trkpt>
      <trkpt lat="48.74187" lon="7.64348">
        <ele>138.13038635</ele>
        <time>2020-09-20T10:06:36Z</time>
      </trkpt>
      <trkpt lat="48.74194" lon="7.64335">
        <ele>139.6557312</ele>
        <time>2020-09-20T10:06:38Z</time>
      </trkpt>
      <trkpt lat="48.74201" lon="7.64324">
        <ele>139.6557312</ele>
        <time>2020-09-20T10:06:40Z</time>
      </trkpt>
      <trkpt lat="48.74209" lon="7.6431">
        <ele>139.6557312</ele>
        <time>2020-09-20T10:06:42Z</time>
      </trkpt>
      <trkpt lat="48.74216" lon="7.64296">
        <ele>139.6557312</ele>
        <time>2020-09-20T10:06:44Z</time>
      </trkpt>
      <trkpt lat="48.74223" lon="7.64284">
        <ele>139.6557312</ele>
        <time>2020-09-20T10:06:46Z</time>
      </trkpt>
      <trkpt lat="48.74231" lon="7.64271">
        <ele>139.6557312</ele>
        <time>2020-09-20T10:06:48Z</time>
      </trkpt>
      <trkpt lat="48.74238" lon="7.64258">
        <ele>139.6557312</ele>
        <time>2020-09-20T10:06:50Z</time>
      </trkpt>
      <trkpt lat="48.74245" lon="7.64246">
        <ele>139.6557312</ele>
        <time>2020-09-20T10:06:52Z</time>
      </trkpt>
      <trkpt lat="48.74252" lon="7.64233">
        <ele>139.6557312</ele>
        <time>2020-09-20T10:06:54Z</time>
      </trkpt>
      <trkpt lat="48.7426" lon="7.64221">
        <ele>139.6557312</ele>
        <time>2020-09-20T10:06:56Z</time>
      </trkpt>
      <trkpt lat="48.74266" lon="7.64208">
        <ele>139.6557312</ele>
        <time>2020-09-20T10:06:58Z</time>
      </trkpt>
      <trkpt lat="48.74273" lon="7.64195">
        <ele>139.6557312</ele>
        <time>2020-09-20T10:07:00Z</time>
      </trkpt>
      <trkpt lat="48.7428" lon="7.64183">
        <ele>139.6557312</ele>
        <time>2020-09-20T10:07:02Z</time>
      </trkpt>
      <trkpt lat="48.74286" lon="7.6417">
        <ele>139.6557312</ele>
        <time>2020-09-20T10:07:04Z</time>
      </trkpt>
      <trkpt lat="48.74292" lon="7.64157">
        <ele>139.6557312</ele>
        <time>2020-09-20T10:07:06Z</time>
      </trkpt>
      <trkpt lat="48.74299" lon="7.64144">
        <ele>139.6557312</ele>
        <time>2020-09-20T10:07:08Z</time>
      </trkpt>
      <trkpt lat="48.74305" lon="7.64133">
        <ele>139.6557312</ele>
        <time>2020-09-20T10:07:10Z</time>
      </trkpt>
      <trkpt lat="48.74311" lon="7.64123">
        <ele>139.6557312</ele>
        <time>2020-09-20T10:07:12Z</time>
      </trkpt>
      <trkpt lat="48.74317" lon="7.64111">
        <ele>139.6557312</ele>
        <time>2020-09-20T10:07:15Z</time>
      </trkpt>
      <trkpt lat="48.74323" lon="7.641">
        <ele>139.6557312</ele>
        <time>2020-09-20T10:07:16Z</time>
      </trkpt>
      <trkpt lat="48.74329" lon="7.64087">
        <ele>139.6557312</ele>
        <time>2020-09-20T10:07:18Z</time>
      </trkpt>
      <trkpt lat="48.74337" lon="7.64072">
        <ele>140.45108032</ele>
        <time>2020-09-20T10:07:21Z</time>
      </trkpt>
      <trkpt lat="48.74342" lon="7.64062">
        <ele>140.45108032</ele>
        <time>2020-09-20T10:07:23Z</time>
      </trkpt>
      <trkpt lat="48.74348" lon="7.6405">
        <ele>140.45108032</ele>
        <time>2020-09-20T10:07:24Z</time>
      </trkpt>
      <trkpt lat="48.74355" lon="7.64038">
        <ele>140.45108032</ele>
        <time>2020-09-20T10:07:26Z</time>
      </trkpt>
      <trkpt lat="48.74362" lon="7.64026">
        <ele>140.45108032</ele>
        <time>2020-09-20T10:07:28Z</time>
      </trkpt>
      <trkpt lat="48.74368" lon="7.64014">
        <ele>140.45108032</ele>
        <time>2020-09-20T10:07:30Z</time>
      </trkpt>
      <trkpt lat="48.74375" lon="7.64001">
        <ele>140.45108032</ele>
        <time>2020-09-20T10:07:32Z</time>
      </trkpt>
      <trkpt lat="48.74381" lon="7.6399">
        <ele>140.45108032</ele>
        <time>2020-09-20T10:07:34Z</time>
      </trkpt>
      <trkpt lat="48.74388" lon="7.63977">
        <ele>140.45108032</ele>
        <time>2020-09-20T10:07:36Z</time>
      </trkpt>
      <trkpt lat="48.74395" lon="7.63964">
        <ele>140.45108032</ele>
        <time>2020-09-20T10:07:38Z</time>
      </trkpt>
      <trkpt lat="48.74402" lon="7.63952">
        <ele>140.45108032</ele>
        <time>2020-09-20T10:07:40Z</time>
      </trkpt>
      <trkpt lat="48.74409" lon="7.6394">
        <ele>140.45108032</ele>
        <time>2020-09-20T10:07:42Z</time>
      </trkpt>
      <trkpt lat="48.74416" lon="7.63928">
        <ele>140.45108032</ele>
        <time>2020-09-20T10:07:44Z</time>
      </trkpt>
      <trkpt lat="48.74423" lon="7.63915">
        <ele>140.45108032</ele>
        <time>2020-09-20T10:07:46Z</time>
      </trkpt>
      <trkpt lat="48.74431" lon="7.63902">
        <ele>140.45108032</ele>
        <time>2020-09-20T10:07:48Z</time>
      </trkpt>
      <trkpt lat="48.74439" lon="7.63891">
        <ele>140.45108032</ele>
        <time>2020-09-20T10:07:50Z</time>
      </trkpt>
      <trkpt lat="48.74447" lon="7.6388">
        <ele>140.45108032</ele>
        <time>2020-09-20T10:07:52Z</time>
      </trkpt>
      <trkpt lat="48.74455" lon="7.63868">
        <ele>140.45108032</ele>
        <time>2020-09-20T10:07:54Z</time>
      </trkpt>
      <trkpt lat="48.74464" lon="7.63857">
        <ele>140.45108032</ele>
        <time>2020-09-20T10:07:56Z</time>
      </trkpt>
      <trkpt lat="48.74472" lon="7.63847">
        <ele>140.45108032</ele>
        <time>2020-09-20T10:07:58Z</time>
      </trkpt>
      <trkpt lat="48.74481" lon="7.63836">
        <ele>140.45108032</ele>
        <time>2020-09-20T10:08:00Z</time>
      </trkpt>
      <trkpt lat="48.74489" lon="7.63824">
        <ele>140.45108032</ele>
        <time>2020-09-20T10:08:02Z</time>
      </trkpt>
      <trkpt lat="48.74497" lon="7.63814">
        <ele>140.45108032</ele>
        <time>2020-09-20T10:08:04Z</time>
      </trkpt>
      <trkpt lat="48.74505" lon="7.63802">
        <ele>140.45108032</ele>
        <time>2020-09-20T10:08:06Z</time>
      </trkpt>
      <trkpt lat="48.74514" lon="7.63791">
        <ele>140.45108032</ele>
        <time>2020-09-20T10:08:08Z</time>
      </trkpt>
      <trkpt lat="48.74523" lon="7.63779">
        <ele>140.45108032</ele>
        <time>2020-09-20T10:08:10Z</time>
      </trkpt>
      <trkpt lat="48.74532" lon="7.63769">
        <ele>140.45108032</ele>
        <time>2020-09-20T10:08:12Z</time>
      </trkpt>
      <trkpt lat="48.74541" lon="7.63758">
        <ele>140.45108032</ele>
        <time>2020-09-20T10:08:14Z</time>
      </trkpt>
      <trkpt lat="48.74549" lon="7.63746">
        <ele>140.45108032</ele>
        <time>2020-09-20T10:08:17Z</time>
      </trkpt>
      <trkpt lat="48.74558" lon="7.63734">
        <ele>140.45108032</ele>
        <time>2020-09-20T10:08:18Z</time>
      </trkpt>
      <trkpt lat="48.74569" lon="7.63719">
        <ele>140.31504822</ele>
        <time>2020-09-20T10:08:21Z</time>
      </trkpt>
      <trkpt lat="48.74575" lon="7.63711">
        <ele>140.31504822</ele>
        <time>2020-09-20T10:08:22Z</time>
      </trkpt>
      <trkpt lat="48.74583" lon="7.637">
        <ele>140.31504822</ele>
        <time>2020-09-20T10:08:24Z</time>
      </trkpt>
      <trkpt lat="48.74592" lon="7.6369">
        <ele>140.31504822</ele>
        <time>2020-09-20T10:08:27Z</time>
      </trkpt>
      <trkpt lat="48.74601" lon="7.63678">
        <ele>140.31504822</ele>
        <time>2020-09-20T10:08:28Z</time>
      </trkpt>
      <trkpt lat="48.7461" lon="7.63668">
        <ele>140.31504822</ele>
        <time>2020-09-20T10:08:30Z</time>
      </trkpt>
      <trkpt lat="48.74618" lon="7.63656">
        <ele>140.31504822</ele>
        <time>2020-09-20T10:08:32Z</time>
      </trkpt>
      <trkpt lat="48.74626" lon="7.63644">
        <ele>140.31504822</ele>
        <time>2020-09-20T10:08:34Z</time>
      </trkpt>
      <trkpt lat="48.74637" lon="7.63632">
        <ele>140.31504822</ele>
        <time>2020-09-20T10:08:36Z</time>
      </trkpt>
      <trkpt lat="48.74647" lon="7.6362">
        <ele>140.31504822</ele>
        <time>2020-09-20T10:08:38Z</time>
      </trkpt>
      <trkpt lat="48.74655" lon="7.63607">
        <ele>140.31504822</ele>
        <time>2020-09-20T10:08:40Z</time>
      </trkpt>
      <trkpt lat="48.74663" lon="7.63595">
        <ele>140.31504822</ele>
        <time>2020-09-20T10:08:42Z</time>
      </trkpt>
      <trkpt lat="48.7467" lon="7.63583">
        <ele>140.31504822</ele>
        <time>2020-09-20T10:08:44Z</time>
      </trkpt>
      <trkpt lat="48.74679" lon="7.63572">
        <ele>140.31504822</ele>
        <time>2020-09-20T10:08:46Z</time>
      </trkpt>
      <trkpt lat="48.74689" lon="7.6356">
        <ele>140.31504822</ele>
        <time>2020-09-20T10:08:48Z</time>
      </trkpt>
      <trkpt lat="48.74698" lon="7.6355">
        <ele>140.31504822</ele>
        <time>2020-09-20T10:08:50Z</time>
      </trkpt>
      <trkpt lat="48.74707" lon="7.6354">
        <ele>140.31504822</ele>
        <time>2020-09-20T10:08:52Z</time>
      </trkpt>
      <trkpt lat="48.74717" lon="7.63529">
        <ele>140.31504822</ele>
        <time>2020-09-20T10:08:54Z</time>
      </trkpt>
      <trkpt lat="48.74726" lon="7.63519">
        <ele>140.31504822</ele>
        <time>2020-09-20T10:08:56Z</time>
      </trkpt>
      <trkpt lat="48.74736" lon="7.63506">
        <ele>140.31504822</ele>
        <time>2020-09-20T10:08:59Z</time>
      </trkpt>
      <trkpt lat="48.74745" lon="7.63494">
        <ele>140.31504822</ele>
        <time>2020-09-20T10:09:00Z</time>
      </trkpt>
      <trkpt lat="48.74754" lon="7.63483">
        <ele>140.31504822</ele>
        <time>2020-09-20T10:09:02Z</time>
      </trkpt>
      <trkpt lat="48.74763" lon="7.63472">
        <ele>140.31504822</ele>
        <time>2020-09-20T10:09:04Z</time>
      </trkpt>
      <trkpt lat="48.74772" lon="7.63462">
        <ele>140.31504822</ele>
        <time>2020-09-20T10:09:06Z</time>
      </trkpt>
      <trkpt lat="48.74783" lon="7.63451">
        <ele>140.31504822</ele>
        <time>2020-09-20T10:09:08Z</time>
      </trkpt>
      <trkpt lat="48.74793" lon="7.6344">
        <ele>140.31504822</ele>
        <time>2020-09-20T10:09:10Z</time>
      </trkpt>
      <trkpt lat="48.748" lon="7.6343">
        <ele>140.31504822</ele>
        <time>2020-09-20T10:09:12Z</time>
      </trkpt>
      <trkpt lat="48.74808" lon="7.6342">
        <ele>140.31504822</ele>
        <time>2020-09-20T10:09:14Z</time>
      </trkpt>
      <trkpt lat="48.74816" lon="7.63409">
        <ele>140.31504822</ele>
        <time>2020-09-20T10:09:16Z</time>
      </trkpt>
      <trkpt lat="48.74825" lon="7.63398">
        <ele>140.31504822</ele>
        <time>2020-09-20T10:09:18Z</time>
      </trkpt>
      <trkpt lat="48.74837" lon="7.63383">
        <ele>140.42901611</ele>
        <time>2020-09-20T10:09:21Z</time>
      </trkpt>
      <trkpt lat="48.74843" lon="7.63374">
        <ele>140.42901611</ele>
        <time>2020-09-20T10:09:22Z</time>
      </trkpt>
      <trkpt lat="48.74851" lon="7.63361">
        <ele>140.42901611</ele>
        <time>2020-09-20T10:09:24Z</time>
      </trkpt>
      <trkpt lat="48.7486" lon="7.63347">
        <ele>140.42901611</ele>
        <time>2020-09-20T10:09:26Z</time>
      </trkpt>
      <trkpt lat="48.74866" lon="7.63335">
        <ele>140.42901611</ele>
        <time>2020-09-20T10:09:28Z</time>
      </trkpt>
      <trkpt lat="48.74872" lon="7.63322">
        <ele>140.42901611</ele>
        <time>2020-09-20T10:09:30Z</time>
      </trkpt>
      <trkpt lat="48.74877" lon="7.6331">
        <ele>141.05867004</ele>
        <time>2020-09-20T10:09:32Z</time>
      </trkpt>
      <trkpt lat="48.74882" lon="7.63298">
        <ele>141.05867004</ele>
        <time>2020-09-20T10:09:34Z</time>
      </trkpt>
      <trkpt lat="48.74887" lon="7.63284">
        <ele>142.46368408</ele>
        <time>2020-09-20T10:09:37Z</time>
      </trkpt>
      <trkpt lat="48.74892" lon="7.6327">
        <ele>143.62532043</ele>
        <time>2020-09-20T10:09:43Z</time>
      </trkpt>
      <trkpt lat="48.74897" lon="7.63256">
        <ele>143.62532043</ele>
        <time>2020-09-20T10:09:46Z</time>
      </trkpt>
      <trkpt lat="48.74904" lon="7.6324">
        <ele>143.62532043</ele>
        <time>2020-09-20T10:09:49Z</time>
      </trkpt>
      <trkpt lat="48.7491" lon="7.63225">
        <ele>143.62532043</ele>
        <time>2020-09-20T10:09:51Z</time>
      </trkpt>
      <trkpt lat="48.74917" lon="7.63208">
        <ele>143.62532043</ele>
        <time>2020-09-20T10:09:54Z</time>
      </trkpt>
      <trkpt lat="48.74922" lon="7.63192">
        <ele>143.62532043</ele>
        <time>2020-09-20T10:09:56Z</time>
      </trkpt>
      <trkpt lat="48.74927" lon="7.63178">
        <ele>143.62532043</ele>
        <time>2020-09-20T10:09:59Z</time>
      </trkpt>
      <trkpt lat="48.74931" lon="7.6316">
        <ele>143.62532043</ele>
        <time>2020-09-20T10:10:02Z</time>
      </trkpt>
      <trkpt lat="48.7493" lon="7.63153">
        <ele>143.62532043</ele>
        <time>2020-09-20T10:10:14Z</time>
      </trkpt>
      <trkpt lat="48.74926" lon="7.63175">
        <ele>143.62532043</ele>
        <time>2020-09-20T10:10:19Z</time>
      </trkpt>
      <trkpt lat="48.74925" lon="7.63182">
        <ele>143.81312561</ele>
        <time>2020-09-20T10:10:21Z</time>
      </trkpt>
      <trkpt lat="48.74932" lon="7.63188">
        <ele>143.66543579</ele>
        <time>2020-09-20T10:18:10Z</time>
      </trkpt>
      <trkpt lat="48.74932" lon="7.63185">
        <ele>143.66543579</ele>
        <time>2020-09-20T10:18:14Z</time>
      </trkpt>
      <trkpt lat="48.74932" lon="7.63163">
        <ele>143.66543579</ele>
        <time>2020-09-20T10:18:17Z</time>
      </trkpt>
      <trkpt lat="48.74936" lon="7.63145">
        <ele>143.66543579</ele>
        <time>2020-09-20T10:18:19Z</time>
      </trkpt>
      <trkpt lat="48.74942" lon="7.63121">
        <ele>143.61172485</ele>
        <time>2020-09-20T10:18:22Z</time>
      </trkpt>
      <trkpt lat="48.74945" lon="7.63105">
        <ele>143.61172485</ele>
        <time>2020-09-20T10:18:25Z</time>
      </trkpt>
      <trkpt lat="48.74949" lon="7.63088">
        <ele>143.61172485</ele>
        <time>2020-09-20T10:18:28Z</time>
      </trkpt>
      <trkpt lat="48.74954" lon="7.63073">
        <ele>143.61172485</ele>
        <time>2020-09-20T10:18:31Z</time>
      </trkpt>
      <trkpt lat="48.74957" lon="7.63058">
        <ele>143.61172485</ele>
        <time>2020-09-20T10:18:34Z</time>
      </trkpt>
      <trkpt lat="48.74962" lon="7.63043">
        <ele>143.61172485</ele>
        <time>2020-09-20T10:18:37Z</time>
      </trkpt>
      <trkpt lat="48.74965" lon="7.63027">
        <ele>143.61172485</ele>
        <time>2020-09-20T10:18:40Z</time>
      </trkpt>
      <trkpt lat="48.74967" lon="7.63012">
        <ele>143.61172485</ele>
        <time>2020-09-20T10:18:42Z</time>
      </trkpt>
      <trkpt lat="48.74971" lon="7.62998">
        <ele>143.61172485</ele>
        <time>2020-09-20T10:18:44Z</time>
      </trkpt>
      <trkpt lat="48.74976" lon="7.62984">
        <ele>143.61172485</ele>
        <time>2020-09-20T10:18:46Z</time>
      </trkpt>
      <trkpt lat="48.7498" lon="7.6297">
        <ele>143.61172485</ele>
        <time>2020-09-20T10:18:48Z</time>
      </trkpt>
      <trkpt lat="48.74984" lon="7.62958">
        <ele>142.98683167</ele>
        <time>2020-09-20T10:18:50Z</time>
      </trkpt>
      <trkpt lat="48.74989" lon="7.62945">
        <ele>142.98683167</ele>
        <time>2020-09-20T10:18:52Z</time>
      </trkpt>
      <trkpt lat="48.74991" lon="7.62932">
        <ele>144.39163208</ele>
        <time>2020-09-20T10:18:56Z</time>
      </trkpt>
      <trkpt lat="48.74992" lon="7.62918">
        <ele>145.77729797</ele>
        <time>2020-09-20T10:18:58Z</time>
      </trkpt>
      <trkpt lat="48.74992" lon="7.62901">
        <ele>145.77729797</ele>
        <time>2020-09-20T10:19:01Z</time>
      </trkpt>
      <trkpt lat="48.74994" lon="7.62879">
        <ele>144.18280029</ele>
        <time>2020-09-20T10:19:04Z</time>
      </trkpt>
      <trkpt lat="48.74997" lon="7.62855">
        <ele>144.18280029</ele>
        <time>2020-09-20T10:19:05Z</time>
      </trkpt>
      <trkpt lat="48.74998" lon="7.62833">
        <ele>144.18280029</ele>
        <time>2020-09-20T10:19:07Z</time>
      </trkpt>
      <trkpt lat="48.74999" lon="7.62813">
        <ele>143.19500732</ele>
        <time>2020-09-20T10:19:09Z</time>
      </trkpt>
      <trkpt lat="48.74998" lon="7.62794">
        <ele>143.19500732</ele>
        <time>2020-09-20T10:19:11Z</time>
      </trkpt>
      <trkpt lat="48.74997" lon="7.62777">
        <ele>143.19500732</ele>
        <time>2020-09-20T10:19:13Z</time>
      </trkpt>
      <trkpt lat="48.74995" lon="7.62758">
        <ele>143.19500732</ele>
        <time>2020-09-20T10:19:15Z</time>
      </trkpt>
      <trkpt lat="48.74994" lon="7.62741">
        <ele>143.19500732</ele>
        <time>2020-09-20T10:19:17Z</time>
      </trkpt>
      <trkpt lat="48.74993" lon="7.62725">
        <ele>143.19500732</ele>
        <time>2020-09-20T10:19:19Z</time>
      </trkpt>
      <trkpt lat="48.74992" lon="7.62712">
        <ele>142.95800781</ele>
        <time>2020-09-20T10:19:21Z</time>
      </trkpt>
      <trkpt lat="48.74991" lon="7.62698">
        <ele>142.95800781</ele>
        <time>2020-09-20T10:19:22Z</time>
      </trkpt>
      <trkpt lat="48.7499" lon="7.62678">
        <ele>142.95800781</ele>
        <time>2020-09-20T10:19:24Z</time>
      </trkpt>
      <trkpt lat="48.74988" lon="7.62658">
        <ele>142.95800781</ele>
        <time>2020-09-20T10:19:26Z</time>
      </trkpt>
      <trkpt lat="48.74986" lon="7.62639">
        <ele>142.95800781</ele>
        <time>2020-09-20T10:19:28Z</time>
      </trkpt>
      <trkpt lat="48.74984" lon="7.62619">
        <ele>142.95800781</ele>
        <time>2020-09-20T10:19:31Z</time>
      </trkpt>
      <trkpt lat="48.74983" lon="7.62602">
        <ele>142.95800781</ele>
        <time>2020-09-20T10:19:33Z</time>
      </trkpt>
      <trkpt lat="48.74982" lon="7.62584">
        <ele>142.95800781</ele>
        <time>2020-09-20T10:19:34Z</time>
      </trkpt>
      <trkpt lat="48.74979" lon="7.62564">
        <ele>142.95800781</ele>
        <time>2020-09-20T10:19:36Z</time>
      </trkpt>
      <trkpt lat="48.74978" lon="7.62545">
        <ele>142.95800781</ele>
        <time>2020-09-20T10:19:38Z</time>
      </trkpt>
      <trkpt lat="48.74976" lon="7.62525">
        <ele>142.95800781</ele>
        <time>2020-09-20T10:19:40Z</time>
      </trkpt>
      <trkpt lat="48.74974" lon="7.62508">
        <ele>142.95800781</ele>
        <time>2020-09-20T10:19:42Z</time>
      </trkpt>
      <trkpt lat="48.74973" lon="7.62489">
        <ele>142.95800781</ele>
        <time>2020-09-20T10:19:44Z</time>
      </trkpt>
      <trkpt lat="48.7497" lon="7.62469">
        <ele>142.95800781</ele>
        <time>2020-09-20T10:19:46Z</time>
      </trkpt>
      <trkpt lat="48.74967" lon="7.62449">
        <ele>142.95800781</ele>
        <time>2020-09-20T10:19:48Z</time>
      </trkpt>
      <trkpt lat="48.74965" lon="7.62429">
        <ele>142.95800781</ele>
        <time>2020-09-20T10:19:50Z</time>
      </trkpt>
      <trkpt lat="48.74963" lon="7.62408">
        <ele>142.95800781</ele>
        <time>2020-09-20T10:19:52Z</time>
      </trkpt>
      <trkpt lat="48.74961" lon="7.62388">
        <ele>142.95800781</ele>
        <time>2020-09-20T10:19:54Z</time>
      </trkpt>
      <trkpt lat="48.74958" lon="7.62368">
        <ele>142.95800781</ele>
        <time>2020-09-20T10:19:56Z</time>
      </trkpt>
      <trkpt lat="48.74958" lon="7.62349">
        <ele>142.95800781</ele>
        <time>2020-09-20T10:19:58Z</time>
      </trkpt>
      <trkpt lat="48.74957" lon="7.62331">
        <ele>142.95800781</ele>
        <time>2020-09-20T10:20:00Z</time>
      </trkpt>
      <trkpt lat="48.74958" lon="7.62311">
        <ele>142.95800781</ele>
        <time>2020-09-20T10:20:02Z</time>
      </trkpt>
      <trkpt lat="48.7496" lon="7.6229">
        <ele>142.95800781</ele>
        <time>2020-09-20T10:20:04Z</time>
      </trkpt>
      <trkpt lat="48.74961" lon="7.62267">
        <ele>142.64387512</ele>
        <time>2020-09-20T10:20:06Z</time>
      </trkpt>
      <trkpt lat="48.74964" lon="7.62246">
        <ele>142.64387512</ele>
        <time>2020-09-20T10:20:08Z</time>
      </trkpt>
      <trkpt lat="48.74965" lon="7.62225">
        <ele>142.64387512</ele>
        <time>2020-09-20T10:20:10Z</time>
      </trkpt>
      <trkpt lat="48.74967" lon="7.62204">
        <ele>142.64387512</ele>
        <time>2020-09-20T10:20:12Z</time>
      </trkpt>
      <trkpt lat="48.74971" lon="7.62184">
        <ele>142.64387512</ele>
        <time>2020-09-20T10:20:14Z</time>
      </trkpt>
      <trkpt lat="48.74974" lon="7.62161">
        <ele>142.64387512</ele>
        <time>2020-09-20T10:20:16Z</time>
      </trkpt>
      <trkpt lat="48.74979" lon="7.62141">
        <ele>142.64387512</ele>
        <time>2020-09-20T10:20:18Z</time>
      </trkpt>
      <trkpt lat="48.74984" lon="7.62115">
        <ele>142.5164032</ele>
        <time>2020-09-20T10:20:21Z</time>
      </trkpt>
      <trkpt lat="48.74986" lon="7.62101">
        <ele>142.5164032</ele>
        <time>2020-09-20T10:20:22Z</time>
      </trkpt>
      <trkpt lat="48.74989" lon="7.62082">
        <ele>142.5164032</ele>
        <time>2020-09-20T10:20:24Z</time>
      </trkpt>
      <trkpt lat="48.74991" lon="7.62063">
        <ele>142.5164032</ele>
        <time>2020-09-20T10:20:26Z</time>
      </trkpt>
      <trkpt lat="48.74991" lon="7.62045">
        <ele>142.5164032</ele>
        <time>2020-09-20T10:20:28Z</time>
      </trkpt>
      <trkpt lat="48.74992" lon="7.62025">
        <ele>142.5164032</ele>
        <time>2020-09-20T10:20:30Z</time>
      </trkpt>
      <trkpt lat="48.74991" lon="7.62005">
        <ele>142.5164032</ele>
        <time>2020-09-20T10:20:32Z</time>
      </trkpt>
      <trkpt lat="48.74987" lon="7.61987">
        <ele>142.5164032</ele>
        <time>2020-09-20T10:20:34Z</time>
      </trkpt>
      <trkpt lat="48.74984" lon="7.61966">
        <ele>142.5164032</ele>
        <time>2020-09-20T10:20:36Z</time>
      </trkpt>
      <trkpt lat="48.7498" lon="7.61945">
        <ele>142.5164032</ele>
        <time>2020-09-20T10:20:38Z</time>
      </trkpt>
      <trkpt lat="48.74976" lon="7.61926">
        <ele>142.5164032</ele>
        <time>2020-09-20T10:20:40Z</time>
      </trkpt>
      <trkpt lat="48.74973" lon="7.61908">
        <ele>142.5164032</ele>
        <time>2020-09-20T10:20:42Z</time>
      </trkpt>
      <trkpt lat="48.74968" lon="7.61891">
        <ele>142.5164032</ele>
        <time>2020-09-20T10:20:44Z</time>
      </trkpt>
      <trkpt lat="48.74963" lon="7.61873">
        <ele>142.5164032</ele>
        <time>2020-09-20T10:20:46Z</time>
      </trkpt>
      <trkpt lat="48.74958" lon="7.61854">
        <ele>142.5164032</ele>
        <time>2020-09-20T10:20:48Z</time>
      </trkpt>
      <trkpt lat="48.74952" lon="7.61837">
        <ele>142.5164032</ele>
        <time>2020-09-20T10:20:50Z</time>
      </trkpt>
      <trkpt lat="48.74946" lon="7.61818">
        <ele>142.5164032</ele>
        <time>2020-09-20T10:20:52Z</time>
      </trkpt>
      <trkpt lat="48.7494" lon="7.618">
        <ele>142.5164032</ele>
        <time>2020-09-20T10:20:54Z</time>
      </trkpt>
      <trkpt lat="48.74933" lon="7.61782">
        <ele>142.5164032</ele>
        <time>2020-09-20T10:20:56Z</time>
      </trkpt>
      <trkpt lat="48.74927" lon="7.61766">
        <ele>142.5164032</ele>
        <time>2020-09-20T10:20:58Z</time>
      </trkpt>
      <trkpt lat="48.7492" lon="7.61749">
        <ele>142.5164032</ele>
        <time>2020-09-20T10:21:00Z</time>
      </trkpt>
      <trkpt lat="48.74914" lon="7.61732">
        <ele>142.5164032</ele>
        <time>2020-09-20T10:21:02Z</time>
      </trkpt>
      <trkpt lat="48.74909" lon="7.61713">
        <ele>142.5164032</ele>
        <time>2020-09-20T10:21:04Z</time>
      </trkpt>
      <trkpt lat="48.74904" lon="7.61693">
        <ele>142.5164032</ele>
        <time>2020-09-20T10:21:06Z</time>
      </trkpt>
      <trkpt lat="48.74899" lon="7.61672">
        <ele>142.5164032</ele>
        <time>2020-09-20T10:21:08Z</time>
      </trkpt>
      <trkpt lat="48.74894" lon="7.61652">
        <ele>142.5164032</ele>
        <time>2020-09-20T10:21:10Z</time>
      </trkpt>
      <trkpt lat="48.7489" lon="7.61634">
        <ele>142.5164032</ele>
        <time>2020-09-20T10:21:12Z</time>
      </trkpt>
      <trkpt lat="48.74887" lon="7.61613">
        <ele>142.5164032</ele>
        <time>2020-09-20T10:21:14Z</time>
      </trkpt>
      <trkpt lat="48.74885" lon="7.61592">
        <ele>142.5164032</ele>
        <time>2020-09-20T10:21:16Z</time>
      </trkpt>
      <trkpt lat="48.74884" lon="7.61572">
        <ele>142.5164032</ele>
        <time>2020-09-20T10:21:19Z</time>
      </trkpt>
      <trkpt lat="48.74882" lon="7.61549">
        <ele>142.5164032</ele>
        <time>2020-09-20T10:21:21Z</time>
      </trkpt>
      <trkpt lat="48.74881" lon="7.61527">
        <ele>143.0009613</ele>
        <time>2020-09-20T10:21:22Z</time>
      </trkpt>
      <trkpt lat="48.7488" lon="7.61505">
        <ele>143.0009613</ele>
        <time>2020-09-20T10:21:24Z</time>
      </trkpt>
      <trkpt lat="48.74881" lon="7.61486">
        <ele>143.0009613</ele>
        <time>2020-09-20T10:21:26Z</time>
      </trkpt>
      <trkpt lat="48.74881" lon="7.61467">
        <ele>143.0009613</ele>
        <time>2020-09-20T10:21:28Z</time>
      </trkpt>
      <trkpt lat="48.7488" lon="7.61447">
        <ele>143.0009613</ele>
        <time>2020-09-20T10:21:30Z</time>
      </trkpt>
      <trkpt lat="48.74879" lon="7.61426">
        <ele>143.0009613</ele>
        <time>2020-09-20T10:21:32Z</time>
      </trkpt>
      <trkpt lat="48.74877" lon="7.61405">
        <ele>143.0009613</ele>
        <time>2020-09-20T10:21:34Z</time>
      </trkpt>
      <trkpt lat="48.74876" lon="7.61385">
        <ele>143.0009613</ele>
        <time>2020-09-20T10:21:36Z</time>
      </trkpt>
      <trkpt lat="48.74877" lon="7.61366">
        <ele>143.0009613</ele>
        <time>2020-09-20T10:21:38Z</time>
      </trkpt>
      <trkpt lat="48.74878" lon="7.61347">
        <ele>143.0009613</ele>
        <time>2020-09-20T10:21:40Z</time>
      </trkpt>
      <trkpt lat="48.74877" lon="7.61327">
        <ele>143.0009613</ele>
        <time>2020-09-20T10:21:43Z</time>
      </trkpt>
      <trkpt lat="48.74877" lon="7.61306">
        <ele>143.0009613</ele>
        <time>2020-09-20T10:21:45Z</time>
      </trkpt>
      <trkpt lat="48.74876" lon="7.61285">
        <ele>142.62850952</ele>
        <time>2020-09-20T10:21:46Z</time>
      </trkpt>
      <trkpt lat="48.74876" lon="7.61264">
        <ele>142.62850952</ele>
        <time>2020-09-20T10:21:48Z</time>
      </trkpt>
      <trkpt lat="48.74875" lon="7.61245">
        <ele>142.62850952</ele>
        <time>2020-09-20T10:21:51Z</time>
      </trkpt>
      <trkpt lat="48.74874" lon="7.61226">
        <ele>142.62850952</ele>
        <time>2020-09-20T10:21:52Z</time>
      </trkpt>
      <trkpt lat="48.74873" lon="7.61207">
        <ele>142.62850952</ele>
        <time>2020-09-20T10:21:54Z</time>
      </trkpt>
      <trkpt lat="48.7487" lon="7.61188">
        <ele>142.62850952</ele>
        <time>2020-09-20T10:21:56Z</time>
      </trkpt>
      <trkpt lat="48.74871" lon="7.6117">
        <ele>142.62850952</ele>
        <time>2020-09-20T10:21:58Z</time>
      </trkpt>
      <trkpt lat="48.74871" lon="7.61151">
        <ele>142.62850952</ele>
        <time>2020-09-20T10:22:00Z</time>
      </trkpt>
      <trkpt lat="48.7487" lon="7.61131">
        <ele>142.62850952</ele>
        <time>2020-09-20T10:22:02Z</time>
      </trkpt>
      <trkpt lat="48.74868" lon="7.61113">
        <ele>142.62850952</ele>
        <time>2020-09-20T10:22:04Z</time>
      </trkpt>
      <trkpt lat="48.74867" lon="7.61093">
        <ele>142.62850952</ele>
        <time>2020-09-20T10:22:06Z</time>
      </trkpt>
      <trkpt lat="48.74866" lon="7.61073">
        <ele>142.62850952</ele>
        <time>2020-09-20T10:22:08Z</time>
      </trkpt>
      <trkpt lat="48.74865" lon="7.61054">
        <ele>142.62850952</ele>
        <time>2020-09-20T10:22:10Z</time>
      </trkpt>
      <trkpt lat="48.74863" lon="7.61034">
        <ele>142.62850952</ele>
        <time>2020-09-20T10:22:12Z</time>
      </trkpt>
      <trkpt lat="48.74863" lon="7.61015">
        <ele>142.62850952</ele>
        <time>2020-09-20T10:22:14Z</time>
      </trkpt>
      <trkpt lat="48.74863" lon="7.60995">
        <ele>142.62850952</ele>
        <time>2020-09-20T10:22:16Z</time>
      </trkpt>
      <trkpt lat="48.74862" lon="7.60975">
        <ele>142.62850952</ele>
        <time>2020-09-20T10:22:18Z</time>
      </trkpt>
      <trkpt lat="48.7486" lon="7.6095">
        <ele>142.14247131</ele>
        <time>2020-09-20T10:22:21Z</time>
      </trkpt>
      <trkpt lat="48.7486" lon="7.60934">
        <ele>142.14247131</ele>
        <time>2020-09-20T10:22:22Z</time>
      </trkpt>
      <trkpt lat="48.7486" lon="7.60914">
        <ele>142.14247131</ele>
        <time>2020-09-20T10:22:24Z</time>
      </trkpt>
      <trkpt lat="48.7486" lon="7.60894">
        <ele>142.14247131</ele>
        <time>2020-09-20T10:22:26Z</time>
      </trkpt>
      <trkpt lat="48.7486" lon="7.60874">
        <ele>142.14247131</ele>
        <time>2020-09-20T10:22:28Z</time>
      </trkpt>
      <trkpt lat="48.74859" lon="7.60853">
        <ele>142.14247131</ele>
        <time>2020-09-20T10:22:30Z</time>
      </trkpt>
      <trkpt lat="48.74858" lon="7.60834">
        <ele>142.14247131</ele>
        <time>2020-09-20T10:22:32Z</time>
      </trkpt>
      <trkpt lat="48.74858" lon="7.60814">
        <ele>142.14247131</ele>
        <time>2020-09-20T10:22:34Z</time>
      </trkpt>
      <trkpt lat="48.74857" lon="7.60794">
        <ele>142.14247131</ele>
        <time>2020-09-20T10:22:36Z</time>
      </trkpt>
      <trkpt lat="48.74855" lon="7.60776">
        <ele>142.14247131</ele>
        <time>2020-09-20T10:22:38Z</time>
      </trkpt>
      <trkpt lat="48.74855" lon="7.60759">
        <ele>142.14247131</ele>
        <time>2020-09-20T10:22:40Z</time>
      </trkpt>
      <trkpt lat="48.74854" lon="7.60742">
        <ele>142.69212341</ele>
        <time>2020-09-20T10:22:42Z</time>
      </trkpt>
      <trkpt lat="48.74855" lon="7.60723">
        <ele>142.69212341</ele>
        <time>2020-09-20T10:22:44Z</time>
      </trkpt>
      <trkpt lat="48.74855" lon="7.60705">
        <ele>142.69212341</ele>
        <time>2020-09-20T10:22:46Z</time>
      </trkpt>
      <trkpt lat="48.74855" lon="7.60689">
        <ele>144.4319458</ele>
        <time>2020-09-20T10:22:48Z</time>
      </trkpt>
      <trkpt lat="48.74854" lon="7.6067">
        <ele>144.4319458</ele>
        <time>2020-09-20T10:22:50Z</time>
      </trkpt>
      <trkpt lat="48.74852" lon="7.60651">
        <ele>144.4319458</ele>
        <time>2020-09-20T10:22:53Z</time>
      </trkpt>
      <trkpt lat="48.74852" lon="7.60633">
        <ele>144.4319458</ele>
        <time>2020-09-20T10:22:54Z</time>
      </trkpt>
      <trkpt lat="48.74851" lon="7.60615">
        <ele>144.4319458</ele>
        <time>2020-09-20T10:22:56Z</time>
      </trkpt>
      <trkpt lat="48.7485" lon="7.60598">
        <ele>144.4319458</ele>
        <time>2020-09-20T10:22:58Z</time>
      </trkpt>
      <trkpt lat="48.74847" lon="7.60579">
        <ele>144.4319458</ele>
        <time>2020-09-20T10:23:00Z</time>
      </trkpt>
      <trkpt lat="48.74842" lon="7.60561">
        <ele>144.4319458</ele>
        <time>2020-09-20T10:23:02Z</time>
      </trkpt>
      <trkpt lat="48.74836" lon="7.60544">
        <ele>144.4319458</ele>
        <time>2020-09-20T10:23:04Z</time>
      </trkpt>
      <trkpt lat="48.7483" lon="7.60526">
        <ele>144.4319458</ele>
        <time>2020-09-20T10:23:06Z</time>
      </trkpt>
      <trkpt lat="48.74825" lon="7.60511">
        <ele>144.4319458</ele>
        <time>2020-09-20T10:23:08Z</time>
      </trkpt>
      <trkpt lat="48.74819" lon="7.60497">
        <ele>144.4319458</ele>
        <time>2020-09-20T10:23:10Z</time>
      </trkpt>
      <trkpt lat="48.74813" lon="7.60484">
        <ele>144.4319458</ele>
        <time>2020-09-20T10:23:12Z</time>
      </trkpt>
      <trkpt lat="48.74806" lon="7.60469">
        <ele>144.4319458</ele>
        <time>2020-09-20T10:23:15Z</time>
      </trkpt>
      <trkpt lat="48.748" lon="7.60454">
        <ele>144.4319458</ele>
        <time>2020-09-20T10:23:16Z</time>
      </trkpt>
      <trkpt lat="48.74793" lon="7.60439">
        <ele>144.4319458</ele>
        <time>2020-09-20T10:23:18Z</time>
      </trkpt>
      <trkpt lat="48.74782" lon="7.60422">
        <ele>145.19613647</ele>
        <time>2020-09-20T10:23:21Z</time>
      </trkpt>
      <trkpt lat="48.74777" lon="7.60412">
        <ele>145.19613647</ele>
        <time>2020-09-20T10:23:22Z</time>
      </trkpt>
      <trkpt lat="48.7477" lon="7.60397">
        <ele>145.19613647</ele>
        <time>2020-09-20T10:23:24Z</time>
      </trkpt>
      <trkpt lat="48.74764" lon="7.60382">
        <ele>145.19613647</ele>
        <time>2020-09-20T10:23:26Z</time>
      </trkpt>
      <trkpt lat="48.7476" lon="7.60366">
        <ele>145.19613647</ele>
        <time>2020-09-20T10:23:28Z</time>
      </trkpt>
      <trkpt lat="48.74757" lon="7.60349">
        <ele>145.83891296</ele>
        <time>2020-09-20T10:23:31Z</time>
      </trkpt>
      <trkpt lat="48.74751" lon="7.60336">
        <ele>145.83891296</ele>
        <time>2020-09-20T10:23:33Z</time>
      </trkpt>
      <trkpt lat="48.74747" lon="7.60323">
        <ele>147.32495117</ele>
        <time>2020-09-20T10:23:39Z</time>
      </trkpt>
      <trkpt lat="48.74746" lon="7.60298">
        <ele>147.11576843</ele>
        <time>2020-09-20T10:23:41Z</time>
      </trkpt>
      <trkpt lat="48.74744" lon="7.60275">
        <ele>147.11576843</ele>
        <time>2020-09-20T10:23:42Z</time>
      </trkpt>
      <trkpt lat="48.74741" lon="7.60256">
        <ele>147.11576843</ele>
        <time>2020-09-20T10:23:44Z</time>
      </trkpt>
      <trkpt lat="48.74737" lon="7.60239">
        <ele>147.11576843</ele>
        <time>2020-09-20T10:23:46Z</time>
      </trkpt>
      <trkpt lat="48.74735" lon="7.6022">
        <ele>145.60031128</ele>
        <time>2020-09-20T10:23:48Z</time>
      </trkpt>
      <trkpt lat="48.74732" lon="7.60201">
        <ele>145.60031128</ele>
        <time>2020-09-20T10:23:50Z</time>
      </trkpt>
      <trkpt lat="48.74731" lon="7.60182">
        <ele>145.60031128</ele>
        <time>2020-09-20T10:23:52Z</time>
      </trkpt>
      <trkpt lat="48.7473" lon="7.60164">
        <ele>145.60031128</ele>
        <time>2020-09-20T10:23:54Z</time>
      </trkpt>
      <trkpt lat="48.74728" lon="7.60146">
        <ele>145.60031128</ele>
        <time>2020-09-20T10:23:57Z</time>
      </trkpt>
      <trkpt lat="48.74727" lon="7.60127">
        <ele>145.60031128</ele>
        <time>2020-09-20T10:23:58Z</time>
      </trkpt>
      <trkpt lat="48.74728" lon="7.60107">
        <ele>145.60031128</ele>
        <time>2020-09-20T10:24:00Z</time>
      </trkpt>
      <trkpt lat="48.74729" lon="7.60086">
        <ele>145.60031128</ele>
        <time>2020-09-20T10:24:02Z</time>
      </trkpt>
      <trkpt lat="48.7473" lon="7.60065">
        <ele>145.60031128</ele>
        <time>2020-09-20T10:24:04Z</time>
      </trkpt>
      <trkpt lat="48.74732" lon="7.60046">
        <ele>145.60031128</ele>
        <time>2020-09-20T10:24:06Z</time>
      </trkpt>
      <trkpt lat="48.74735" lon="7.60021">
        <ele>145.60031128</ele>
        <time>2020-09-20T10:24:08Z</time>
      </trkpt>
      <trkpt lat="48.74737" lon="7.60008">
        <ele>145.60031128</ele>
        <time>2020-09-20T10:24:10Z</time>
      </trkpt>
      <trkpt lat="48.74741" lon="7.59988">
        <ele>145.60031128</ele>
        <time>2020-09-20T10:24:12Z</time>
      </trkpt>
      <trkpt lat="48.74745" lon="7.59968">
        <ele>145.60031128</ele>
        <time>2020-09-20T10:24:14Z</time>
      </trkpt>
      <trkpt lat="48.7475" lon="7.5995">
        <ele>145.60031128</ele>
        <time>2020-09-20T10:24:16Z</time>
      </trkpt>
      <trkpt lat="48.74754" lon="7.59932">
        <ele>145.60031128</ele>
        <time>2020-09-20T10:24:18Z</time>
      </trkpt>
      <trkpt lat="48.7476" lon="7.59908">
        <ele>144.90968323</ele>
        <time>2020-09-20T10:24:21Z</time>
      </trkpt>
      <trkpt lat="48.74764" lon="7.59894">
        <ele>144.90968323</ele>
        <time>2020-09-20T10:24:22Z</time>
      </trkpt>
      <trkpt lat="48.74767" lon="7.59875">
        <ele>144.90968323</ele>
        <time>2020-09-20T10:24:24Z</time>
      </trkpt>
      <trkpt lat="48.74772" lon="7.59856">
        <ele>144.90968323</ele>
        <time>2020-09-20T10:24:26Z</time>
      </trkpt>
      <trkpt lat="48.74776" lon="7.59838">
        <ele>144.90968323</ele>
        <time>2020-09-20T10:24:28Z</time>
      </trkpt>
      <trkpt lat="48.7478" lon="7.59819">
        <ele>144.90968323</ele>
        <time>2020-09-20T10:24:30Z</time>
      </trkpt>
      <trkpt lat="48.74784" lon="7.59798">
        <ele>144.90968323</ele>
        <time>2020-09-20T10:24:32Z</time>
      </trkpt>
      <trkpt lat="48.74788" lon="7.59778">
        <ele>144.90968323</ele>
        <time>2020-09-20T10:24:34Z</time>
      </trkpt>
      <trkpt lat="48.74793" lon="7.59758">
        <ele>144.90968323</ele>
        <time>2020-09-20T10:24:36Z</time>
      </trkpt>
      <trkpt lat="48.74797" lon="7.59739">
        <ele>144.90968323</ele>
        <time>2020-09-20T10:24:38Z</time>
      </trkpt>
      <trkpt lat="48.74802" lon="7.5972">
        <ele>144.90968323</ele>
        <time>2020-09-20T10:24:40Z</time>
      </trkpt>
      <trkpt lat="48.74806" lon="7.59701">
        <ele>144.90968323</ele>
        <time>2020-09-20T10:24:42Z</time>
      </trkpt>
      <trkpt lat="48.74804" lon="7.59684">
        <ele>144.90968323</ele>
        <time>2020-09-20T10:24:44Z</time>
      </trkpt>
      <trkpt lat="48.74798" lon="7.59671">
        <ele>144.90968323</ele>
        <time>2020-09-20T10:24:46Z</time>
      </trkpt>
      <trkpt lat="48.74796" lon="7.59655">
        <ele>144.90968323</ele>
        <time>2020-09-20T10:24:48Z</time>
      </trkpt>
      <trkpt lat="48.74799" lon="7.59637">
        <ele>144.90968323</ele>
        <time>2020-09-20T10:24:50Z</time>
      </trkpt>
      <trkpt lat="48.74804" lon="7.5962">
        <ele>144.90968323</ele>
        <time>2020-09-20T10:24:52Z</time>
      </trkpt>
      <trkpt lat="48.74808" lon="7.59601">
        <ele>144.90968323</ele>
        <time>2020-09-20T10:24:54Z</time>
      </trkpt>
      <trkpt lat="48.74812" lon="7.59583">
        <ele>144.90968323</ele>
        <time>2020-09-20T10:24:56Z</time>
      </trkpt>
      <trkpt lat="48.74815" lon="7.59564">
        <ele>144.90968323</ele>
        <time>2020-09-20T10:24:58Z</time>
      </trkpt>
      <trkpt lat="48.74818" lon="7.59547">
        <ele>144.90968323</ele>
        <time>2020-09-20T10:25:00Z</time>
      </trkpt>
      <trkpt lat="48.74823" lon="7.5953">
        <ele>144.90968323</ele>
        <time>2020-09-20T10:25:02Z</time>
      </trkpt>
      <trkpt lat="48.74828" lon="7.59511">
        <ele>144.90968323</ele>
        <time>2020-09-20T10:25:04Z</time>
      </trkpt>
      <trkpt lat="48.74832" lon="7.59493">
        <ele>144.90968323</ele>
        <time>2020-09-20T10:25:06Z</time>
      </trkpt>
      <trkpt lat="48.74836" lon="7.59474">
        <ele>144.90968323</ele>
        <time>2020-09-20T10:25:08Z</time>
      </trkpt>
      <trkpt lat="48.7484" lon="7.59455">
        <ele>144.90968323</ele>
        <time>2020-09-20T10:25:10Z</time>
      </trkpt>
      <trkpt lat="48.74844" lon="7.59436">
        <ele>144.90968323</ele>
        <time>2020-09-20T10:25:12Z</time>
      </trkpt>
      <trkpt lat="48.74846" lon="7.59419">
        <ele>145.46043396</ele>
        <time>2020-09-20T10:25:14Z</time>
      </trkpt>
      <trkpt lat="48.7485" lon="7.59405">
        <ele>145.46043396</ele>
        <time>2020-09-20T10:25:16Z</time>
      </trkpt>
      <trkpt lat="48.74863" lon="7.59403">
        <ele>147.64691162</ele>
        <time>2020-09-20T10:25:21Z</time>
      </trkpt>
      <trkpt lat="48.7487" lon="7.59403">
        <ele>148.63339233</ele>
        <time>2020-09-20T10:25:24Z</time>
      </trkpt>
      <trkpt lat="48.74874" lon="7.59387">
        <ele>148.63339233</ele>
        <time>2020-09-20T10:25:27Z</time>
      </trkpt>
      <trkpt lat="48.7488" lon="7.59369">
        <ele>148.63339233</ele>
        <time>2020-09-20T10:25:30Z</time>
      </trkpt>
      <trkpt lat="48.74884" lon="7.59352">
        <ele>148.63339233</ele>
        <time>2020-09-20T10:25:33Z</time>
      </trkpt>
      <trkpt lat="48.74886" lon="7.59336">
        <ele>148.63339233</ele>
        <time>2020-09-20T10:25:36Z</time>
      </trkpt>
      <trkpt lat="48.74888" lon="7.5932">
        <ele>148.63339233</ele>
        <time>2020-09-20T10:25:39Z</time>
      </trkpt>
      <trkpt lat="48.74889" lon="7.59302">
        <ele>148.63339233</ele>
        <time>2020-09-20T10:25:42Z</time>
      </trkpt>
      <trkpt lat="48.74891" lon="7.59283">
        <ele>148.63339233</ele>
        <time>2020-09-20T10:25:44Z</time>
      </trkpt>
      <trkpt lat="48.74894" lon="7.59268">
        <ele>148.72755432</ele>
        <time>2020-09-20T10:25:47Z</time>
      </trkpt>
      <trkpt lat="48.74896" lon="7.59253">
        <ele>148.72755432</ele>
        <time>2020-09-20T10:25:48Z</time>
      </trkpt>
      <trkpt lat="48.74896" lon="7.59239">
        <ele>148.72755432</ele>
        <time>2020-09-20T10:25:50Z</time>
      </trkpt>
      <trkpt lat="48.74897" lon="7.59223">
        <ele>148.72755432</ele>
        <time>2020-09-20T10:25:52Z</time>
      </trkpt>
      <trkpt lat="48.74899" lon="7.59206">
        <ele>148.72755432</ele>
        <time>2020-09-20T10:25:54Z</time>
      </trkpt>
      <trkpt lat="48.74899" lon="7.59189">
        <ele>148.72755432</ele>
        <time>2020-09-20T10:25:56Z</time>
      </trkpt>
      <trkpt lat="48.74899" lon="7.59171">
        <ele>148.72755432</ele>
        <time>2020-09-20T10:25:59Z</time>
      </trkpt>
      <trkpt lat="48.74898" lon="7.59152">
        <ele>148.72755432</ele>
        <time>2020-09-20T10:26:01Z</time>
      </trkpt>
      <trkpt lat="48.74896" lon="7.59132">
        <ele>148.72755432</ele>
        <time>2020-09-20T10:26:02Z</time>
      </trkpt>
      <trkpt lat="48.74894" lon="7.59112">
        <ele>148.72755432</ele>
        <time>2020-09-20T10:26:04Z</time>
      </trkpt>
      <trkpt lat="48.74893" lon="7.59095">
        <ele>148.72755432</ele>
        <time>2020-09-20T10:26:06Z</time>
      </trkpt>
      <trkpt lat="48.74893" lon="7.59075">
        <ele>148.72755432</ele>
        <time>2020-09-20T10:26:09Z</time>
      </trkpt>
      <trkpt lat="48.74893" lon="7.59055">
        <ele>148.72755432</ele>
        <time>2020-09-20T10:26:10Z</time>
      </trkpt>
      <trkpt lat="48.74892" lon="7.59037">
        <ele>148.72755432</ele>
        <time>2020-09-20T10:26:13Z</time>
      </trkpt>
      <trkpt lat="48.74891" lon="7.59019">
        <ele>148.72755432</ele>
        <time>2020-09-20T10:26:14Z</time>
      </trkpt>
      <trkpt lat="48.74891" lon="7.59001">
        <ele>148.72755432</ele>
        <time>2020-09-20T10:26:16Z</time>
      </trkpt>
      <trkpt lat="48.74891" lon="7.58981">
        <ele>148.72755432</ele>
        <time>2020-09-20T10:26:18Z</time>
      </trkpt>
      <trkpt lat="48.74889" lon="7.58963">
        <ele>148.72755432</ele>
        <time>2020-09-20T10:26:21Z</time>
      </trkpt>
      <trkpt lat="48.74889" lon="7.58945">
        <ele>148.16253662</ele>
        <time>2020-09-20T10:26:22Z</time>
      </trkpt>
      <trkpt lat="48.74889" lon="7.58925">
        <ele>148.16253662</ele>
        <time>2020-09-20T10:26:24Z</time>
      </trkpt>
      <trkpt lat="48.74889" lon="7.58906">
        <ele>148.16253662</ele>
        <time>2020-09-20T10:26:26Z</time>
      </trkpt>
      <trkpt lat="48.74888" lon="7.58887">
        <ele>148.16253662</ele>
        <time>2020-09-20T10:26:28Z</time>
      </trkpt>
      <trkpt lat="48.74888" lon="7.5887">
        <ele>148.16253662</ele>
        <time>2020-09-20T10:26:31Z</time>
      </trkpt>
      <trkpt lat="48.74888" lon="7.58851">
        <ele>148.16253662</ele>
        <time>2020-09-20T10:26:32Z</time>
      </trkpt>
      <trkpt lat="48.74887" lon="7.5883">
        <ele>148.16253662</ele>
        <time>2020-09-20T10:26:34Z</time>
      </trkpt>
      <trkpt lat="48.74886" lon="7.58811">
        <ele>148.16253662</ele>
        <time>2020-09-20T10:26:37Z</time>
      </trkpt>
      <trkpt lat="48.74888" lon="7.58794">
        <ele>148.16253662</ele>
        <time>2020-09-20T10:26:38Z</time>
      </trkpt>
      <trkpt lat="48.74888" lon="7.58775">
        <ele>148.16253662</ele>
        <time>2020-09-20T10:26:41Z</time>
      </trkpt>
      <trkpt lat="48.74888" lon="7.58756">
        <ele>148.16253662</ele>
        <time>2020-09-20T10:26:42Z</time>
      </trkpt>
      <trkpt lat="48.74889" lon="7.58736">
        <ele>148.16253662</ele>
        <time>2020-09-20T10:26:45Z</time>
      </trkpt>
      <trkpt lat="48.74891" lon="7.58717">
        <ele>148.16253662</ele>
        <time>2020-09-20T10:26:46Z</time>
      </trkpt>
      <trkpt lat="48.74892" lon="7.58698">
        <ele>148.16253662</ele>
        <time>2020-09-20T10:26:48Z</time>
      </trkpt>
      <trkpt lat="48.74894" lon="7.58678">
        <ele>148.16253662</ele>
        <time>2020-09-20T10:26:51Z</time>
      </trkpt>
      <trkpt lat="48.74897" lon="7.58659">
        <ele>148.16253662</ele>
        <time>2020-09-20T10:26:52Z</time>
      </trkpt>
      <trkpt lat="48.74899" lon="7.58639">
        <ele>148.16253662</ele>
        <time>2020-09-20T10:26:54Z</time>
      </trkpt>
      <trkpt lat="48.74902" lon="7.58619">
        <ele>148.16253662</ele>
        <time>2020-09-20T10:26:56Z</time>
      </trkpt>
      <trkpt lat="48.74905" lon="7.58598">
        <ele>148.16253662</ele>
        <time>2020-09-20T10:26:59Z</time>
      </trkpt>
      <trkpt lat="48.74907" lon="7.58578">
        <ele>148.16253662</ele>
        <time>2020-09-20T10:27:00Z</time>
      </trkpt>
      <trkpt lat="48.74909" lon="7.58558">
        <ele>148.16253662</ele>
        <time>2020-09-20T10:27:02Z</time>
      </trkpt>
      <trkpt lat="48.74911" lon="7.58538">
        <ele>148.16253662</ele>
        <time>2020-09-20T10:27:04Z</time>
      </trkpt>
      <trkpt lat="48.74914" lon="7.58517">
        <ele>148.16253662</ele>
        <time>2020-09-20T10:27:06Z</time>
      </trkpt>
      <trkpt lat="48.74916" lon="7.58495">
        <ele>148.16253662</ele>
        <time>2020-09-20T10:27:08Z</time>
      </trkpt>
      <trkpt lat="48.74919" lon="7.58474">
        <ele>148.16253662</ele>
        <time>2020-09-20T10:27:10Z</time>
      </trkpt>
      <trkpt lat="48.74921" lon="7.58452">
        <ele>148.16253662</ele>
        <time>2020-09-20T10:27:12Z</time>
      </trkpt>
      <trkpt lat="48.74923" lon="7.58432">
        <ele>148.16253662</ele>
        <time>2020-09-20T10:27:14Z</time>
      </trkpt>
      <trkpt lat="48.74925" lon="7.58411">
        <ele>148.16253662</ele>
        <time>2020-09-20T10:27:16Z</time>
      </trkpt>
      <trkpt lat="48.74927" lon="7.58391">
        <ele>148.16253662</ele>
        <time>2020-09-20T10:27:18Z</time>
      </trkpt>
      <trkpt lat="48.7493" lon="7.58363">
        <ele>148.42637634</ele>
        <time>2020-09-20T10:27:21Z</time>
      </trkpt>
      <trkpt lat="48.74932" lon="7.58346">
        <ele>148.42637634</ele>
        <time>2020-09-20T10:27:22Z</time>
      </trkpt>
      <trkpt lat="48.74934" lon="7.58324">
        <ele>148.42637634</ele>
        <time>2020-09-20T10:27:24Z</time>
      </trkpt>
      <trkpt lat="48.74936" lon="7.58303">
        <ele>148.42637634</ele>
        <time>2020-09-20T10:27:27Z</time>
      </trkpt>
      <trkpt lat="48.74939" lon="7.5828">
        <ele>148.42637634</ele>
        <time>2020-09-20T10:27:28Z</time>
      </trkpt>
      <trkpt lat="48.74941" lon="7.58258">
        <ele>148.42637634</ele>
        <time>2020-09-20T10:27:30Z</time>
      </trkpt>
      <trkpt lat="48.74945" lon="7.58235">
        <ele>148.42637634</ele>
        <time>2020-09-20T10:27:32Z</time>
      </trkpt>
      <trkpt lat="48.74947" lon="7.58213">
        <ele>148.42637634</ele>
        <time>2020-09-20T10:27:34Z</time>
      </trkpt>
      <trkpt lat="48.74949" lon="7.58192">
        <ele>148.42637634</ele>
        <time>2020-09-20T10:27:36Z</time>
      </trkpt>
      <trkpt lat="48.74952" lon="7.58171">
        <ele>148.42637634</ele>
        <time>2020-09-20T10:27:38Z</time>
      </trkpt>
      <trkpt lat="48.74953" lon="7.58149">
        <ele>148.42637634</ele>
        <time>2020-09-20T10:27:40Z</time>
      </trkpt>
      <trkpt lat="48.74955" lon="7.58128">
        <ele>148.42637634</ele>
        <time>2020-09-20T10:27:42Z</time>
      </trkpt>
      <trkpt lat="48.74956" lon="7.58108">
        <ele>148.42637634</ele>
        <time>2020-09-20T10:27:44Z</time>
      </trkpt>
      <trkpt lat="48.74957" lon="7.58087">
        <ele>148.42637634</ele>
        <time>2020-09-20T10:27:46Z</time>
      </trkpt>
      <trkpt lat="48.74958" lon="7.58067">
        <ele>148.42637634</ele>
        <time>2020-09-20T10:27:48Z</time>
      </trkpt>
      <trkpt lat="48.74959" lon="7.58047">
        <ele>148.42637634</ele>
        <time>2020-09-20T10:27:50Z</time>
      </trkpt>
      <trkpt lat="48.7496" lon="7.58027">
        <ele>148.42637634</ele>
        <time>2020-09-20T10:27:52Z</time>
      </trkpt>
      <trkpt lat="48.74962" lon="7.58008">
        <ele>148.42637634</ele>
        <time>2020-09-20T10:27:54Z</time>
      </trkpt>
      <trkpt lat="48.74962" lon="7.57991">
        <ele>148.42637634</ele>
        <time>2020-09-20T10:27:56Z</time>
      </trkpt>
      <trkpt lat="48.74961" lon="7.57975">
        <ele>148.42637634</ele>
        <time>2020-09-20T10:27:58Z</time>
      </trkpt>
      <trkpt lat="48.7496" lon="7.57959">
        <ele>148.42637634</ele>
        <time>2020-09-20T10:28:01Z</time>
      </trkpt>
      <trkpt lat="48.74958" lon="7.57944">
        <ele>148.42637634</ele>
        <time>2020-09-20T10:28:02Z</time>
      </trkpt>
      <trkpt lat="48.74956" lon="7.57928">
        <ele>148.42637634</ele>
        <time>2020-09-20T10:28:04Z</time>
      </trkpt>
      <trkpt lat="48.74955" lon="7.57911">
        <ele>148.42637634</ele>
        <time>2020-09-20T10:28:06Z</time>
      </trkpt>
      <trkpt lat="48.74954" lon="7.57894">
        <ele>148.42637634</ele>
        <time>2020-09-20T10:28:08Z</time>
      </trkpt>
      <trkpt lat="48.74952" lon="7.57876">
        <ele>148.42637634</ele>
        <time>2020-09-20T10:28:10Z</time>
      </trkpt>
      <trkpt lat="48.74952" lon="7.57859">
        <ele>148.42637634</ele>
        <time>2020-09-20T10:28:12Z</time>
      </trkpt>
      <trkpt lat="48.74952" lon="7.57841">
        <ele>148.42637634</ele>
        <time>2020-09-20T10:28:14Z</time>
      </trkpt>
      <trkpt lat="48.74951" lon="7.57823">
        <ele>148.42637634</ele>
        <time>2020-09-20T10:28:16Z</time>
      </trkpt>
      <trkpt lat="48.7495" lon="7.57803">
        <ele>148.42637634</ele>
        <time>2020-09-20T10:28:18Z</time>
      </trkpt>
      <trkpt lat="48.74949" lon="7.5778">
        <ele>148.37927246</ele>
        <time>2020-09-20T10:28:21Z</time>
      </trkpt>
      <trkpt lat="48.74948" lon="7.57768">
        <ele>148.37927246</ele>
        <time>2020-09-20T10:28:22Z</time>
      </trkpt>
      <trkpt lat="48.74947" lon="7.57751">
        <ele>148.37927246</ele>
        <time>2020-09-20T10:28:25Z</time>
      </trkpt>
      <trkpt lat="48.74946" lon="7.57731">
        <ele>148.37927246</ele>
        <time>2020-09-20T10:28:26Z</time>
      </trkpt>
      <trkpt lat="48.74945" lon="7.57713">
        <ele>148.37927246</ele>
        <time>2020-09-20T10:28:28Z</time>
      </trkpt>
      <trkpt lat="48.74943" lon="7.57694">
        <ele>148.37927246</ele>
        <time>2020-09-20T10:28:30Z</time>
      </trkpt>
      <trkpt lat="48.74943" lon="7.57676">
        <ele>148.37927246</ele>
        <time>2020-09-20T10:28:32Z</time>
      </trkpt>
      <trkpt lat="48.74942" lon="7.57657">
        <ele>148.37927246</ele>
        <time>2020-09-20T10:28:34Z</time>
      </trkpt>
      <trkpt lat="48.74942" lon="7.57639">
        <ele>148.37927246</ele>
        <time>2020-09-20T10:28:36Z</time>
      </trkpt>
      <trkpt lat="48.7494" lon="7.5762">
        <ele>148.37927246</ele>
        <time>2020-09-20T10:28:38Z</time>
      </trkpt>
      <trkpt lat="48.74939" lon="7.57599">
        <ele>148.37927246</ele>
        <time>2020-09-20T10:28:40Z</time>
      </trkpt>
      <trkpt lat="48.74937" lon="7.5758">
        <ele>148.37927246</ele>
        <time>2020-09-20T10:28:42Z</time>
      </trkpt>
      <trkpt lat="48.74937" lon="7.57562">
        <ele>148.37927246</ele>
        <time>2020-09-20T10:28:45Z</time>
      </trkpt>
      <trkpt lat="48.74936" lon="7.57542">
        <ele>148.37927246</ele>
        <time>2020-09-20T10:28:46Z</time>
      </trkpt>
      <trkpt lat="48.74934" lon="7.57522">
        <ele>148.37927246</ele>
        <time>2020-09-20T10:28:48Z</time>
      </trkpt>
      <trkpt lat="48.74934" lon="7.57503">
        <ele>148.37927246</ele>
        <time>2020-09-20T10:28:51Z</time>
      </trkpt>
      <trkpt lat="48.74935" lon="7.57485">
        <ele>148.37927246</ele>
        <time>2020-09-20T10:28:52Z</time>
      </trkpt>
      <trkpt lat="48.74934" lon="7.57465">
        <ele>148.04522705</ele>
        <time>2020-09-20T10:28:55Z</time>
      </trkpt>
      <trkpt lat="48.7493" lon="7.57442">
        <ele>148.04522705</ele>
        <time>2020-09-20T10:28:56Z</time>
      </trkpt>
      <trkpt lat="48.74926" lon="7.5742">
        <ele>148.04522705</ele>
        <time>2020-09-20T10:28:58Z</time>
      </trkpt>
      <trkpt lat="48.74924" lon="7.57399">
        <ele>148.04522705</ele>
        <time>2020-09-20T10:29:01Z</time>
      </trkpt>
      <trkpt lat="48.74922" lon="7.57378">
        <ele>148.04522705</ele>
        <time>2020-09-20T10:29:02Z</time>
      </trkpt>
      <trkpt lat="48.7492" lon="7.5736">
        <ele>148.04522705</ele>
        <time>2020-09-20T10:29:05Z</time>
      </trkpt>
      <trkpt lat="48.74918" lon="7.57344">
        <ele>148.04522705</ele>
        <time>2020-09-20T10:29:06Z</time>
      </trkpt>
      <trkpt lat="48.74916" lon="7.57328">
        <ele>148.04522705</ele>
        <time>2020-09-20T10:29:08Z</time>
      </trkpt>
      <trkpt lat="48.74914" lon="7.57312">
        <ele>148.04522705</ele>
        <time>2020-09-20T10:29:10Z</time>
      </trkpt>
      <trkpt lat="48.74913" lon="7.57295">
        <ele>148.04522705</ele>
        <time>2020-09-20T10:29:12Z</time>
      </trkpt>
      <trkpt lat="48.74912" lon="7.57279">
        <ele>147.01879883</ele>
        <time>2020-09-20T10:29:14Z</time>
      </trkpt>
      <trkpt lat="48.74909" lon="7.57259">
        <ele>147.01879883</ele>
        <time>2020-09-20T10:29:16Z</time>
      </trkpt>
      <trkpt lat="48.74907" lon="7.57241">
        <ele>147.01879883</ele>
        <time>2020-09-20T10:29:18Z</time>
      </trkpt>
      <trkpt lat="48.74904" lon="7.57225">
        <ele>147.01879883</ele>
        <time>2020-09-20T10:29:21Z</time>
      </trkpt>
      <trkpt lat="48.74901" lon="7.57211">
        <ele>148.29518127</ele>
        <time>2020-09-20T10:29:22Z</time>
      </trkpt>
      <trkpt lat="48.74896" lon="7.57198">
        <ele>148.29518127</ele>
        <time>2020-09-20T10:29:24Z</time>
      </trkpt>
      <trkpt lat="48.74889" lon="7.57184">
        <ele>148.29518127</ele>
        <time>2020-09-20T10:29:26Z</time>
      </trkpt>
      <trkpt lat="48.74883" lon="7.57171">
        <ele>148.29518127</ele>
        <time>2020-09-20T10:29:28Z</time>
      </trkpt>
      <trkpt lat="48.74876" lon="7.57155">
        <ele>148.29518127</ele>
        <time>2020-09-20T10:29:31Z</time>
      </trkpt>
      <trkpt lat="48.74872" lon="7.57139">
        <ele>148.29518127</ele>
        <time>2020-09-20T10:29:32Z</time>
      </trkpt>
      <trkpt lat="48.74868" lon="7.57123">
        <ele>148.29518127</ele>
        <time>2020-09-20T10:29:34Z</time>
      </trkpt>
      <trkpt lat="48.74864" lon="7.57107">
        <ele>148.29518127</ele>
        <time>2020-09-20T10:29:36Z</time>
      </trkpt>
      <trkpt lat="48.74861" lon="7.5709">
        <ele>148.29518127</ele>
        <time>2020-09-20T10:29:38Z</time>
      </trkpt>
      <trkpt lat="48.74858" lon="7.57073">
        <ele>148.29518127</ele>
        <time>2020-09-20T10:29:41Z</time>
      </trkpt>
      <trkpt lat="48.74856" lon="7.57059">
        <ele>148.29518127</ele>
        <time>2020-09-20T10:29:42Z</time>
      </trkpt>
      <trkpt lat="48.74854" lon="7.57045">
        <ele>148.29518127</ele>
        <time>2020-09-20T10:29:44Z</time>
      </trkpt>
      <trkpt lat="48.74853" lon="7.5703">
        <ele>148.29518127</ele>
        <time>2020-09-20T10:29:46Z</time>
      </trkpt>
      <trkpt lat="48.74854" lon="7.57014">
        <ele>148.29518127</ele>
        <time>2020-09-20T10:29:49Z</time>
      </trkpt>
      <trkpt lat="48.74855" lon="7.56998">
        <ele>148.29518127</ele>
        <time>2020-09-20T10:29:50Z</time>
      </trkpt>
      <trkpt lat="48.74854" lon="7.56983">
        <ele>148.29518127</ele>
        <time>2020-09-20T10:29:52Z</time>
      </trkpt>
      <trkpt lat="48.74852" lon="7.56968">
        <ele>148.29518127</ele>
        <time>2020-09-20T10:29:54Z</time>
      </trkpt>
      <trkpt lat="48.74851" lon="7.56953">
        <ele>148.29518127</ele>
        <time>2020-09-20T10:29:56Z</time>
      </trkpt>
      <trkpt lat="48.74848" lon="7.5694">
        <ele>148.29518127</ele>
        <time>2020-09-20T10:29:58Z</time>
      </trkpt>
      <trkpt lat="48.74845" lon="7.56926">
        <ele>148.29518127</ele>
        <time>2020-09-20T10:30:01Z</time>
      </trkpt>
      <trkpt lat="48.74842" lon="7.5691">
        <ele>148.29518127</ele>
        <time>2020-09-20T10:30:04Z</time>
      </trkpt>
      <trkpt lat="48.74841" lon="7.56895">
        <ele>148.29518127</ele>
        <time>2020-09-20T10:30:07Z</time>
      </trkpt>
      <trkpt lat="48.7484" lon="7.5688">
        <ele>148.29518127</ele>
        <time>2020-09-20T10:30:11Z</time>
      </trkpt>
      <trkpt lat="48.74842" lon="7.56861">
        <ele>148.29518127</ele>
        <time>2020-09-20T10:30:14Z</time>
      </trkpt>
      <trkpt lat="48.74849" lon="7.56848">
        <ele>148.29518127</ele>
        <time>2020-09-20T10:30:16Z</time>
      </trkpt>
      <trkpt lat="48.7486" lon="7.56842">
        <ele>148.29518127</ele>
        <time>2020-09-20T10:30:17Z</time>
      </trkpt>
      <trkpt lat="48.74863" lon="7.56828">
        <ele>148.29518127</ele>
        <time>2020-09-20T10:30:19Z</time>
      </trkpt>
      <trkpt lat="48.74859" lon="7.56805">
        <ele>148.71951294</ele>
        <time>2020-09-20T10:30:22Z</time>
      </trkpt>
      <trkpt lat="48.74849" lon="7.56791">
        <ele>148.71951294</ele>
        <time>2020-09-20T10:30:24Z</time>
      </trkpt>
      <trkpt lat="48.74846" lon="7.56776">
        <ele>148.71951294</ele>
        <time>2020-09-20T10:30:26Z</time>
      </trkpt>
      <trkpt lat="48.74845" lon="7.5676">
        <ele>148.71951294</ele>
        <time>2020-09-20T10:30:29Z</time>
      </trkpt>
      <trkpt lat="48.74843" lon="7.56742">
        <ele>148.71951294</ele>
        <time>2020-09-20T10:30:31Z</time>
      </trkpt>
      <trkpt lat="48.74839" lon="7.56723">
        <ele>148.71951294</ele>
        <time>2020-09-20T10:30:32Z</time>
      </trkpt>
      <trkpt lat="48.74837" lon="7.56703">
        <ele>148.71951294</ele>
        <time>2020-09-20T10:30:34Z</time>
      </trkpt>
      <trkpt lat="48.74834" lon="7.56684">
        <ele>148.71951294</ele>
        <time>2020-09-20T10:30:36Z</time>
      </trkpt>
      <trkpt lat="48.7483" lon="7.56665">
        <ele>148.71951294</ele>
        <time>2020-09-20T10:30:38Z</time>
      </trkpt>
      <trkpt lat="48.74828" lon="7.56647">
        <ele>148.71951294</ele>
        <time>2020-09-20T10:30:41Z</time>
      </trkpt>
      <trkpt lat="48.74827" lon="7.5663">
        <ele>148.71951294</ele>
        <time>2020-09-20T10:30:42Z</time>
      </trkpt>
      <trkpt lat="48.74825" lon="7.56613">
        <ele>148.71951294</ele>
        <time>2020-09-20T10:30:44Z</time>
      </trkpt>
      <trkpt lat="48.74823" lon="7.56594">
        <ele>148.71951294</ele>
        <time>2020-09-20T10:30:46Z</time>
      </trkpt>
      <trkpt lat="48.74819" lon="7.56576">
        <ele>148.71951294</ele>
        <time>2020-09-20T10:30:48Z</time>
      </trkpt>
      <trkpt lat="48.74815" lon="7.56557">
        <ele>148.71951294</ele>
        <time>2020-09-20T10:30:51Z</time>
      </trkpt>
      <trkpt lat="48.74811" lon="7.56538">
        <ele>148.71951294</ele>
        <time>2020-09-20T10:30:52Z</time>
      </trkpt>
      <trkpt lat="48.74806" lon="7.5652">
        <ele>148.71951294</ele>
        <time>2020-09-20T10:30:54Z</time>
      </trkpt>
      <trkpt lat="48.74799" lon="7.56504">
        <ele>148.71951294</ele>
        <time>2020-09-20T10:30:56Z</time>
      </trkpt>
      <trkpt lat="48.74795" lon="7.56487">
        <ele>148.71951294</ele>
        <time>2020-09-20T10:30:58Z</time>
      </trkpt>
      <trkpt lat="48.74791" lon="7.56471">
        <ele>148.71951294</ele>
        <time>2020-09-20T10:31:01Z</time>
      </trkpt>
      <trkpt lat="48.74786" lon="7.56454">
        <ele>148.71951294</ele>
        <time>2020-09-20T10:31:03Z</time>
      </trkpt>
      <trkpt lat="48.74781" lon="7.56437">
        <ele>148.71951294</ele>
        <time>2020-09-20T10:31:04Z</time>
      </trkpt>
      <trkpt lat="48.74775" lon="7.5642">
        <ele>148.71951294</ele>
        <time>2020-09-20T10:31:06Z</time>
      </trkpt>
      <trkpt lat="48.7477" lon="7.56403">
        <ele>148.71951294</ele>
        <time>2020-09-20T10:31:08Z</time>
      </trkpt>
      <trkpt lat="48.74764" lon="7.56385">
        <ele>148.71951294</ele>
        <time>2020-09-20T10:31:10Z</time>
      </trkpt>
      <trkpt lat="48.7476" lon="7.56368">
        <ele>148.71951294</ele>
        <time>2020-09-20T10:31:12Z</time>
      </trkpt>
      <trkpt lat="48.74756" lon="7.56351">
        <ele>148.71951294</ele>
        <time>2020-09-20T10:31:14Z</time>
      </trkpt>
      <trkpt lat="48.74751" lon="7.56334">
        <ele>148.71951294</ele>
        <time>2020-09-20T10:31:16Z</time>
      </trkpt>
      <trkpt lat="48.74744" lon="7.56316">
        <ele>148.71951294</ele>
        <time>2020-09-20T10:31:18Z</time>
      </trkpt>
      <trkpt lat="48.74738" lon="7.56299">
        <ele>148.71951294</ele>
        <time>2020-09-20T10:31:21Z</time>
      </trkpt>
      <trkpt lat="48.74737" lon="7.56294">
        <ele>148.38600159</ele>
        <time>2020-09-20T10:31:22Z</time>
      </trkpt>
      <trkpt lat="48.74734" lon="7.5628">
        <ele>148.38600159</ele>
        <time>2020-09-20T10:31:23Z</time>
      </trkpt>
      <trkpt lat="48.74727" lon="7.56261">
        <ele>148.38600159</ele>
        <time>2020-09-20T10:31:24Z</time>
      </trkpt>
      <trkpt lat="48.74722" lon="7.56243">
        <ele>148.38600159</ele>
        <time>2020-09-20T10:31:26Z</time>
      </trkpt>
      <trkpt lat="48.74717" lon="7.56225">
        <ele>148.38600159</ele>
        <time>2020-09-20T10:31:28Z</time>
      </trkpt>
      <trkpt lat="48.74711" lon="7.56208">
        <ele>148.38600159</ele>
        <time>2020-09-20T10:31:30Z</time>
      </trkpt>
      <trkpt lat="48.74707" lon="7.56192">
        <ele>148.38600159</ele>
        <time>2020-09-20T10:31:32Z</time>
      </trkpt>
      <trkpt lat="48.74703" lon="7.56174">
        <ele>148.38600159</ele>
        <time>2020-09-20T10:31:34Z</time>
      </trkpt>
      <trkpt lat="48.74698" lon="7.56155">
        <ele>148.38600159</ele>
        <time>2020-09-20T10:31:36Z</time>
      </trkpt>
      <trkpt lat="48.74692" lon="7.56136">
        <ele>148.38600159</ele>
        <time>2020-09-20T10:31:38Z</time>
      </trkpt>
      <trkpt lat="48.74687" lon="7.56117">
        <ele>148.38600159</ele>
        <time>2020-09-20T10:31:41Z</time>
      </trkpt>
      <trkpt lat="48.74682" lon="7.56099">
        <ele>148.38600159</ele>
        <time>2020-09-20T10:31:42Z</time>
      </trkpt>
      <trkpt lat="48.74678" lon="7.56081">
        <ele>148.38600159</ele>
        <time>2020-09-20T10:31:44Z</time>
      </trkpt>
      <trkpt lat="48.74673" lon="7.56064">
        <ele>148.38600159</ele>
        <time>2020-09-20T10:31:46Z</time>
      </trkpt>
      <trkpt lat="48.74669" lon="7.56047">
        <ele>148.38600159</ele>
        <time>2020-09-20T10:31:49Z</time>
      </trkpt>
      <trkpt lat="48.74664" lon="7.56029">
        <ele>148.38600159</ele>
        <time>2020-09-20T10:31:50Z</time>
      </trkpt>
      <trkpt lat="48.74659" lon="7.56013">
        <ele>148.38600159</ele>
        <time>2020-09-20T10:31:52Z</time>
      </trkpt>
      <trkpt lat="48.74653" lon="7.55996">
        <ele>148.38600159</ele>
        <time>2020-09-20T10:31:54Z</time>
      </trkpt>
      <trkpt lat="48.74649" lon="7.5598">
        <ele>148.38600159</ele>
        <time>2020-09-20T10:31:57Z</time>
      </trkpt>
      <trkpt lat="48.74644" lon="7.55962">
        <ele>148.38600159</ele>
        <time>2020-09-20T10:31:58Z</time>
      </trkpt>
      <trkpt lat="48.74639" lon="7.55946">
        <ele>148.38600159</ele>
        <time>2020-09-20T10:32:01Z</time>
      </trkpt>
      <trkpt lat="48.74633" lon="7.55929">
        <ele>148.38600159</ele>
        <time>2020-09-20T10:32:02Z</time>
      </trkpt>
      <trkpt lat="48.74629" lon="7.55912">
        <ele>148.38600159</ele>
        <time>2020-09-20T10:32:05Z</time>
      </trkpt>
      <trkpt lat="48.74623" lon="7.55895">
        <ele>148.38600159</ele>
        <time>2020-09-20T10:32:07Z</time>
      </trkpt>
      <trkpt lat="48.74616" lon="7.55879">
        <ele>148.38600159</ele>
        <time>2020-09-20T10:32:08Z</time>
      </trkpt>
      <trkpt lat="48.74609" lon="7.55864">
        <ele>148.38600159</ele>
        <time>2020-09-20T10:32:11Z</time>
      </trkpt>
      <trkpt lat="48.746" lon="7.5585">
        <ele>148.38600159</ele>
        <time>2020-09-20T10:32:12Z</time>
      </trkpt>
      <trkpt lat="48.74591" lon="7.55836">
        <ele>148.38600159</ele>
        <time>2020-09-20T10:32:14Z</time>
      </trkpt>
      <trkpt lat="48.74581" lon="7.55821">
        <ele>148.38600159</ele>
        <time>2020-09-20T10:32:16Z</time>
      </trkpt>
      <trkpt lat="48.74572" lon="7.55807">
        <ele>148.38600159</ele>
        <time>2020-09-20T10:32:18Z</time>
      </trkpt>
      <trkpt lat="48.74562" lon="7.55795">
        <ele>148.38600159</ele>
        <time>2020-09-20T10:32:21Z</time>
      </trkpt>
      <trkpt lat="48.74552" lon="7.55784">
        <ele>148.62030029</ele>
        <time>2020-09-20T10:32:22Z</time>
      </trkpt>
      <trkpt lat="48.74541" lon="7.55771">
        <ele>148.62030029</ele>
        <time>2020-09-20T10:32:24Z</time>
      </trkpt>
      <trkpt lat="48.7453" lon="7.55758">
        <ele>148.62030029</ele>
        <time>2020-09-20T10:32:26Z</time>
      </trkpt>
      <trkpt lat="48.74518" lon="7.55746">
        <ele>148.62030029</ele>
        <time>2020-09-20T10:32:28Z</time>
      </trkpt>
      <trkpt lat="48.74507" lon="7.55735">
        <ele>148.62030029</ele>
        <time>2020-09-20T10:32:31Z</time>
      </trkpt>
      <trkpt lat="48.74497" lon="7.55723">
        <ele>148.62030029</ele>
        <time>2020-09-20T10:32:32Z</time>
      </trkpt>
      <trkpt lat="48.74488" lon="7.5571">
        <ele>148.62030029</ele>
        <time>2020-09-20T10:32:34Z</time>
      </trkpt>
      <trkpt lat="48.7448" lon="7.55699">
        <ele>148.62030029</ele>
        <time>2020-09-20T10:32:36Z</time>
      </trkpt>
      <trkpt lat="48.74472" lon="7.55688">
        <ele>148.62030029</ele>
        <time>2020-09-20T10:32:39Z</time>
      </trkpt>
      <trkpt lat="48.74463" lon="7.55676">
        <ele>148.62030029</ele>
        <time>2020-09-20T10:32:41Z</time>
      </trkpt>
      <trkpt lat="48.74453" lon="7.55663">
        <ele>148.62030029</ele>
        <time>2020-09-20T10:32:42Z</time>
      </trkpt>
      <trkpt lat="48.74444" lon="7.55651">
        <ele>148.62030029</ele>
        <time>2020-09-20T10:32:44Z</time>
      </trkpt>
      <trkpt lat="48.74437" lon="7.55637">
        <ele>148.62030029</ele>
        <time>2020-09-20T10:32:46Z</time>
      </trkpt>
      <trkpt lat="48.74429" lon="7.5562">
        <ele>148.62030029</ele>
        <time>2020-09-20T10:32:48Z</time>
      </trkpt>
      <trkpt lat="48.74423" lon="7.55604">
        <ele>148.62030029</ele>
        <time>2020-09-20T10:32:50Z</time>
      </trkpt>
      <trkpt lat="48.74418" lon="7.55586">
        <ele>148.62030029</ele>
        <time>2020-09-20T10:32:52Z</time>
      </trkpt>
      <trkpt lat="48.74412" lon="7.55567">
        <ele>148.62030029</ele>
        <time>2020-09-20T10:32:54Z</time>
      </trkpt>
      <trkpt lat="48.74406" lon="7.55548">
        <ele>148.62030029</ele>
        <time>2020-09-20T10:32:56Z</time>
      </trkpt>
      <trkpt lat="48.744" lon="7.55531">
        <ele>148.62030029</ele>
        <time>2020-09-20T10:32:58Z</time>
      </trkpt>
      <trkpt lat="48.74394" lon="7.55514">
        <ele>148.62030029</ele>
        <time>2020-09-20T10:33:01Z</time>
      </trkpt>
      <trkpt lat="48.74387" lon="7.55496">
        <ele>148.62030029</ele>
        <time>2020-09-20T10:33:03Z</time>
      </trkpt>
      <trkpt lat="48.74382" lon="7.55479">
        <ele>148.62030029</ele>
        <time>2020-09-20T10:33:04Z</time>
      </trkpt>
      <trkpt lat="48.74376" lon="7.55462">
        <ele>148.62030029</ele>
        <time>2020-09-20T10:33:06Z</time>
      </trkpt>
      <trkpt lat="48.74371" lon="7.55443">
        <ele>148.62030029</ele>
        <time>2020-09-20T10:33:08Z</time>
      </trkpt>
      <trkpt lat="48.74366" lon="7.55423">
        <ele>148.62030029</ele>
        <time>2020-09-20T10:33:11Z</time>
      </trkpt>
      <trkpt lat="48.74363" lon="7.55406">
        <ele>148.62030029</ele>
        <time>2020-09-20T10:33:12Z</time>
      </trkpt>
      <trkpt lat="48.74358" lon="7.55388">
        <ele>148.62030029</ele>
        <time>2020-09-20T10:33:14Z</time>
      </trkpt>
      <trkpt lat="48.74355" lon="7.5537">
        <ele>148.62030029</ele>
        <time>2020-09-20T10:33:17Z</time>
      </trkpt>
      <trkpt lat="48.74353" lon="7.55349">
        <ele>148.62030029</ele>
        <time>2020-09-20T10:33:18Z</time>
      </trkpt>
      <trkpt lat="48.74351" lon="7.55328">
        <ele>148.62030029</ele>
        <time>2020-09-20T10:33:21Z</time>
      </trkpt>
      <trkpt lat="48.7435" lon="7.55306">
        <ele>149.16183472</ele>
        <time>2020-09-20T10:33:22Z</time>
      </trkpt>
      <trkpt lat="48.74351" lon="7.55283">
        <ele>149.16183472</ele>
        <time>2020-09-20T10:33:24Z</time>
      </trkpt>
      <trkpt lat="48.74352" lon="7.5526">
        <ele>149.16183472</ele>
        <time>2020-09-20T10:33:26Z</time>
      </trkpt>
      <trkpt lat="48.74353" lon="7.5524">
        <ele>149.16183472</ele>
        <time>2020-09-20T10:33:29Z</time>
      </trkpt>
      <trkpt lat="48.74353" lon="7.55221">
        <ele>149.16183472</ele>
        <time>2020-09-20T10:33:31Z</time>
      </trkpt>
      <trkpt lat="48.74355" lon="7.55202">
        <ele>149.16183472</ele>
        <time>2020-09-20T10:33:32Z</time>
      </trkpt>
      <trkpt lat="48.74357" lon="7.55183">
        <ele>149.16183472</ele>
        <time>2020-09-20T10:33:34Z</time>
      </trkpt>
      <trkpt lat="48.74361" lon="7.55165">
        <ele>149.16183472</ele>
        <time>2020-09-20T10:33:36Z</time>
      </trkpt>
      <trkpt lat="48.74363" lon="7.55146">
        <ele>149.16183472</ele>
        <time>2020-09-20T10:33:38Z</time>
      </trkpt>
      <trkpt lat="48.74367" lon="7.55126">
        <ele>149.16183472</ele>
        <time>2020-09-20T10:33:40Z</time>
      </trkpt>
      <trkpt lat="48.74371" lon="7.55107">
        <ele>149.16183472</ele>
        <time>2020-09-20T10:33:42Z</time>
      </trkpt>
      <trkpt lat="48.74373" lon="7.55088">
        <ele>149.16183472</ele>
        <time>2020-09-20T10:33:44Z</time>
      </trkpt>
      <trkpt lat="48.74375" lon="7.5507">
        <ele>149.16183472</ele>
        <time>2020-09-20T10:33:46Z</time>
      </trkpt>
      <trkpt lat="48.74377" lon="7.55052">
        <ele>149.16183472</ele>
        <time>2020-09-20T10:33:48Z</time>
      </trkpt>
      <trkpt lat="48.74378" lon="7.55033">
        <ele>149.16183472</ele>
        <time>2020-09-20T10:33:50Z</time>
      </trkpt>
      <trkpt lat="48.7438" lon="7.55013">
        <ele>149.16183472</ele>
        <time>2020-09-20T10:33:53Z</time>
      </trkpt>
      <trkpt lat="48.74384" lon="7.54991">
        <ele>149.16183472</ele>
        <time>2020-09-20T10:33:55Z</time>
      </trkpt>
      <trkpt lat="48.74387" lon="7.54967">
        <ele>149.16183472</ele>
        <time>2020-09-20T10:33:56Z</time>
      </trkpt>
      <trkpt lat="48.74389" lon="7.54945">
        <ele>149.16183472</ele>
        <time>2020-09-20T10:33:58Z</time>
      </trkpt>
      <trkpt lat="48.74392" lon="7.54923">
        <ele>149.16183472</ele>
        <time>2020-09-20T10:34:01Z</time>
      </trkpt>
      <trkpt lat="48.74396" lon="7.54901">
        <ele>149.16183472</ele>
        <time>2020-09-20T10:34:02Z</time>
      </trkpt>
      <trkpt lat="48.744" lon="7.54879">
        <ele>149.16183472</ele>
        <time>2020-09-20T10:34:04Z</time>
      </trkpt>
      <trkpt lat="48.74404" lon="7.54856">
        <ele>149.16183472</ele>
        <time>2020-09-20T10:34:07Z</time>
      </trkpt>
      <trkpt lat="48.74406" lon="7.54833">
        <ele>149.16183472</ele>
        <time>2020-09-20T10:34:08Z</time>
      </trkpt>
      <trkpt lat="48.74408" lon="7.5481">
        <ele>149.16183472</ele>
        <time>2020-09-20T10:34:10Z</time>
      </trkpt>
      <trkpt lat="48.74408" lon="7.54787">
        <ele>149.16183472</ele>
        <time>2020-09-20T10:34:12Z</time>
      </trkpt>
      <trkpt lat="48.74407" lon="7.54764">
        <ele>149.16183472</ele>
        <time>2020-09-20T10:34:14Z</time>
      </trkpt>
      <trkpt lat="48.74406" lon="7.54741">
        <ele>149.16183472</ele>
        <time>2020-09-20T10:34:16Z</time>
      </trkpt>
      <trkpt lat="48.74405" lon="7.54718">
        <ele>149.16183472</ele>
        <time>2020-09-20T10:34:18Z</time>
      </trkpt>
      <trkpt lat="48.74403" lon="7.5469">
        <ele>148.61672974</ele>
        <time>2020-09-20T10:34:21Z</time>
      </trkpt>
      <trkpt lat="48.74401" lon="7.54673">
        <ele>148.61672974</ele>
        <time>2020-09-20T10:34:22Z</time>
      </trkpt>
      <trkpt lat="48.74397" lon="7.54652">
        <ele>148.61672974</ele>
        <time>2020-09-20T10:34:24Z</time>
      </trkpt>
      <trkpt lat="48.74393" lon="7.54631">
        <ele>148.61672974</ele>
        <time>2020-09-20T10:34:26Z</time>
      </trkpt>
      <trkpt lat="48.74389" lon="7.54611">
        <ele>148.61672974</ele>
        <time>2020-09-20T10:34:28Z</time>
      </trkpt>
      <trkpt lat="48.74385" lon="7.54592">
        <ele>148.61672974</ele>
        <time>2020-09-20T10:34:31Z</time>
      </trkpt>
      <trkpt lat="48.74381" lon="7.54571">
        <ele>148.61672974</ele>
        <time>2020-09-20T10:34:32Z</time>
      </trkpt>
      <trkpt lat="48.74376" lon="7.54549">
        <ele>148.74156189</ele>
        <time>2020-09-20T10:34:34Z</time>
      </trkpt>
      <trkpt lat="48.74371" lon="7.54527">
        <ele>148.74156189</ele>
        <time>2020-09-20T10:34:36Z</time>
      </trkpt>
      <trkpt lat="48.74367" lon="7.54504">
        <ele>148.74156189</ele>
        <time>2020-09-20T10:34:38Z</time>
      </trkpt>
      <trkpt lat="48.74361" lon="7.54481">
        <ele>148.74156189</ele>
        <time>2020-09-20T10:34:40Z</time>
      </trkpt>
      <trkpt lat="48.74356" lon="7.5446">
        <ele>148.74156189</ele>
        <time>2020-09-20T10:34:42Z</time>
      </trkpt>
      <trkpt lat="48.74352" lon="7.5444">
        <ele>148.74156189</ele>
        <time>2020-09-20T10:34:44Z</time>
      </trkpt>
      <trkpt lat="48.74348" lon="7.54419">
        <ele>148.74156189</ele>
        <time>2020-09-20T10:34:46Z</time>
      </trkpt>
      <trkpt lat="48.74343" lon="7.54396">
        <ele>148.74156189</ele>
        <time>2020-09-20T10:34:48Z</time>
      </trkpt>
      <trkpt lat="48.74336" lon="7.54374">
        <ele>148.74156189</ele>
        <time>2020-09-20T10:34:51Z</time>
      </trkpt>
      <trkpt lat="48.74331" lon="7.54351">
        <ele>148.60307312</ele>
        <time>2020-09-20T10:34:52Z</time>
      </trkpt>
      <trkpt lat="48.74326" lon="7.5433">
        <ele>148.60307312</ele>
        <time>2020-09-20T10:34:54Z</time>
      </trkpt>
      <trkpt lat="48.7432" lon="7.5431">
        <ele>148.60307312</ele>
        <time>2020-09-20T10:34:56Z</time>
      </trkpt>
      <trkpt lat="48.74314" lon="7.54291">
        <ele>148.60307312</ele>
        <time>2020-09-20T10:34:58Z</time>
      </trkpt>
      <trkpt lat="48.74307" lon="7.54271">
        <ele>148.60307312</ele>
        <time>2020-09-20T10:35:01Z</time>
      </trkpt>
      <trkpt lat="48.74299" lon="7.5425">
        <ele>148.60307312</ele>
        <time>2020-09-20T10:35:02Z</time>
      </trkpt>
      <trkpt lat="48.74292" lon="7.54229">
        <ele>148.60307312</ele>
        <time>2020-09-20T10:35:04Z</time>
      </trkpt>
      <trkpt lat="48.74286" lon="7.54209">
        <ele>148.60307312</ele>
        <time>2020-09-20T10:35:06Z</time>
      </trkpt>
      <trkpt lat="48.74279" lon="7.5419">
        <ele>148.60307312</ele>
        <time>2020-09-20T10:35:08Z</time>
      </trkpt>
      <trkpt lat="48.74271" lon="7.54169">
        <ele>148.60307312</ele>
        <time>2020-09-20T10:35:11Z</time>
      </trkpt>
      <trkpt lat="48.74264" lon="7.54149">
        <ele>148.60307312</ele>
        <time>2020-09-20T10:35:12Z</time>
      </trkpt>
      <trkpt lat="48.74255" lon="7.54127">
        <ele>148.60307312</ele>
        <time>2020-09-20T10:35:15Z</time>
      </trkpt>
      <trkpt lat="48.74248" lon="7.54106">
        <ele>148.60307312</ele>
        <time>2020-09-20T10:35:16Z</time>
      </trkpt>
      <trkpt lat="48.7424" lon="7.54085">
        <ele>148.60307312</ele>
        <time>2020-09-20T10:35:18Z</time>
      </trkpt>
      <trkpt lat="48.74232" lon="7.54064">
        <ele>148.60307312</ele>
        <time>2020-09-20T10:35:21Z</time>
      </trkpt>
      <trkpt lat="48.74225" lon="7.54045">
        <ele>148.2709198</ele>
        <time>2020-09-20T10:35:22Z</time>
      </trkpt>
      <trkpt lat="48.7422" lon="7.54027">
        <ele>148.2709198</ele>
        <time>2020-09-20T10:35:24Z</time>
      </trkpt>
      <trkpt lat="48.74213" lon="7.54008">
        <ele>148.2709198</ele>
        <time>2020-09-20T10:35:26Z</time>
      </trkpt>
      <trkpt lat="48.74206" lon="7.53988">
        <ele>148.2709198</ele>
        <time>2020-09-20T10:35:28Z</time>
      </trkpt>
      <trkpt lat="48.742" lon="7.53968">
        <ele>148.2709198</ele>
        <time>2020-09-20T10:35:31Z</time>
      </trkpt>
      <trkpt lat="48.74194" lon="7.53948">
        <ele>148.2709198</ele>
        <time>2020-09-20T10:35:33Z</time>
      </trkpt>
      <trkpt lat="48.74186" lon="7.53928">
        <ele>148.2709198</ele>
        <time>2020-09-20T10:35:35Z</time>
      </trkpt>
      <trkpt lat="48.74178" lon="7.53909">
        <ele>148.2709198</ele>
        <time>2020-09-20T10:35:36Z</time>
      </trkpt>
      <trkpt lat="48.74171" lon="7.53889">
        <ele>148.2709198</ele>
        <time>2020-09-20T10:35:38Z</time>
      </trkpt>
      <trkpt lat="48.74165" lon="7.5387">
        <ele>148.2709198</ele>
        <time>2020-09-20T10:35:40Z</time>
      </trkpt>
      <trkpt lat="48.74157" lon="7.53851">
        <ele>148.2709198</ele>
        <time>2020-09-20T10:35:42Z</time>
      </trkpt>
      <trkpt lat="48.74151" lon="7.53832">
        <ele>148.2709198</ele>
        <time>2020-09-20T10:35:45Z</time>
      </trkpt>
      <trkpt lat="48.74144" lon="7.53811">
        <ele>148.2709198</ele>
        <time>2020-09-20T10:35:46Z</time>
      </trkpt>
      <trkpt lat="48.74137" lon="7.53791">
        <ele>148.2709198</ele>
        <time>2020-09-20T10:35:49Z</time>
      </trkpt>
      <trkpt lat="48.7413" lon="7.5377">
        <ele>148.2709198</ele>
        <time>2020-09-20T10:35:51Z</time>
      </trkpt>
      <trkpt lat="48.74122" lon="7.53749">
        <ele>148.2709198</ele>
        <time>2020-09-20T10:35:52Z</time>
      </trkpt>
      <trkpt lat="48.74115" lon="7.5373">
        <ele>148.2709198</ele>
        <time>2020-09-20T10:35:54Z</time>
      </trkpt>
      <trkpt lat="48.74108" lon="7.53711">
        <ele>148.2709198</ele>
        <time>2020-09-20T10:35:56Z</time>
      </trkpt>
      <trkpt lat="48.74103" lon="7.53694">
        <ele>148.51283264</ele>
        <time>2020-09-20T10:35:58Z</time>
      </trkpt>
      <trkpt lat="48.74099" lon="7.53677">
        <ele>148.51283264</ele>
        <time>2020-09-20T10:36:01Z</time>
      </trkpt>
      <trkpt lat="48.74094" lon="7.53657">
        <ele>148.51283264</ele>
        <time>2020-09-20T10:36:02Z</time>
      </trkpt>
      <trkpt lat="48.74088" lon="7.53638">
        <ele>148.51283264</ele>
        <time>2020-09-20T10:36:04Z</time>
      </trkpt>
      <trkpt lat="48.74082" lon="7.53621">
        <ele>150.15826416</ele>
        <time>2020-09-20T10:36:07Z</time>
      </trkpt>
      <trkpt lat="48.74074" lon="7.53604">
        <ele>150.15826416</ele>
        <time>2020-09-20T10:36:08Z</time>
      </trkpt>
      <trkpt lat="48.74067" lon="7.53586">
        <ele>150.15826416</ele>
        <time>2020-09-20T10:36:11Z</time>
      </trkpt>
      <trkpt lat="48.74063" lon="7.53567">
        <ele>150.15826416</ele>
        <time>2020-09-20T10:36:12Z</time>
      </trkpt>
      <trkpt lat="48.74059" lon="7.53548">
        <ele>150.15826416</ele>
        <time>2020-09-20T10:36:14Z</time>
      </trkpt>
      <trkpt lat="48.74055" lon="7.5353">
        <ele>150.15826416</ele>
        <time>2020-09-20T10:36:16Z</time>
      </trkpt>
      <trkpt lat="48.74053" lon="7.53511">
        <ele>150.15826416</ele>
        <time>2020-09-20T10:36:18Z</time>
      </trkpt>
      <trkpt lat="48.7405" lon="7.53487">
        <ele>150.46777344</ele>
        <time>2020-09-20T10:36:21Z</time>
      </trkpt>
      <trkpt lat="48.74047" lon="7.53472">
        <ele>150.46777344</ele>
        <time>2020-09-20T10:36:22Z</time>
      </trkpt>
      <trkpt lat="48.74044" lon="7.53453">
        <ele>150.46777344</ele>
        <time>2020-09-20T10:36:24Z</time>
      </trkpt>
      <trkpt lat="48.74042" lon="7.53433">
        <ele>150.46777344</ele>
        <time>2020-09-20T10:36:26Z</time>
      </trkpt>
      <trkpt lat="48.74039" lon="7.53414">
        <ele>150.46777344</ele>
        <time>2020-09-20T10:36:28Z</time>
      </trkpt>
      <trkpt lat="48.74036" lon="7.53395">
        <ele>150.46777344</ele>
        <time>2020-09-20T10:36:30Z</time>
      </trkpt>
      <trkpt lat="48.74033" lon="7.53376">
        <ele>150.46777344</ele>
        <time>2020-09-20T10:36:33Z</time>
      </trkpt>
      <trkpt lat="48.7403" lon="7.53357">
        <ele>150.46777344</ele>
        <time>2020-09-20T10:36:34Z</time>
      </trkpt>
      <trkpt lat="48.74028" lon="7.53337">
        <ele>150.46777344</ele>
        <time>2020-09-20T10:36:37Z</time>
      </trkpt>
      <trkpt lat="48.74025" lon="7.53317">
        <ele>150.46777344</ele>
        <time>2020-09-20T10:36:38Z</time>
      </trkpt>
      <trkpt lat="48.74023" lon="7.53297">
        <ele>150.46777344</ele>
        <time>2020-09-20T10:36:40Z</time>
      </trkpt>
      <trkpt lat="48.74021" lon="7.53276">
        <ele>150.46777344</ele>
        <time>2020-09-20T10:36:42Z</time>
      </trkpt>
      <trkpt lat="48.7402" lon="7.53257">
        <ele>150.46777344</ele>
        <time>2020-09-20T10:36:44Z</time>
      </trkpt>
      <trkpt lat="48.74017" lon="7.53236">
        <ele>150.46777344</ele>
        <time>2020-09-20T10:36:46Z</time>
      </trkpt>
      <trkpt lat="48.74014" lon="7.53214">
        <ele>150.46777344</ele>
        <time>2020-09-20T10:36:48Z</time>
      </trkpt>
      <trkpt lat="48.74012" lon="7.53192">
        <ele>150.46777344</ele>
        <time>2020-09-20T10:36:50Z</time>
      </trkpt>
      <trkpt lat="48.7401" lon="7.53172">
        <ele>150.46777344</ele>
        <time>2020-09-20T10:36:53Z</time>
      </trkpt>
      <trkpt lat="48.74007" lon="7.53153">
        <ele>150.46777344</ele>
        <time>2020-09-20T10:36:54Z</time>
      </trkpt>
      <trkpt lat="48.74004" lon="7.53135">
        <ele>150.82453918</ele>
        <time>2020-09-20T10:36:56Z</time>
      </trkpt>
      <trkpt lat="48.74001" lon="7.53118">
        <ele>152.35112</ele>
        <time>2020-09-20T10:36:58Z</time>
      </trkpt>
      <trkpt lat="48.73997" lon="7.53105">
        <ele>152.35112</ele>
        <time>2020-09-20T10:37:01Z</time>
      </trkpt>
      <trkpt lat="48.73991" lon="7.53091">
        <ele>152.35112</ele>
        <time>2020-09-20T10:37:02Z</time>
      </trkpt>
      <trkpt lat="48.73991" lon="7.53072">
        <ele>152.35112</ele>
        <time>2020-09-20T10:37:05Z</time>
      </trkpt>
      <trkpt lat="48.73993" lon="7.53049">
        <ele>152.61380005</ele>
        <time>2020-09-20T10:37:07Z</time>
      </trkpt>
      <trkpt lat="48.73995" lon="7.53023">
        <ele>152.61380005</ele>
        <time>2020-09-20T10:37:08Z</time>
      </trkpt>
      <trkpt lat="48.73996" lon="7.52998">
        <ele>150.73822021</ele>
        <time>2020-09-20T10:37:11Z</time>
      </trkpt>
      <trkpt lat="48.73997" lon="7.52974">
        <ele>150.73822021</ele>
        <time>2020-09-20T10:37:12Z</time>
      </trkpt>
      <trkpt lat="48.73997" lon="7.5295">
        <ele>150.73822021</ele>
        <time>2020-09-20T10:37:14Z</time>
      </trkpt>
      <trkpt lat="48.73998" lon="7.52927">
        <ele>150.73822021</ele>
        <time>2020-09-20T10:37:16Z</time>
      </trkpt>
      <trkpt lat="48.74001" lon="7.52906">
        <ele>150.73822021</ele>
        <time>2020-09-20T10:37:18Z</time>
      </trkpt>
      <trkpt lat="48.74004" lon="7.52879">
        <ele>150.12278748</ele>
        <time>2020-09-20T10:37:21Z</time>
      </trkpt>
      <trkpt lat="48.74006" lon="7.52864">
        <ele>150.12278748</ele>
        <time>2020-09-20T10:37:22Z</time>
      </trkpt>
      <trkpt lat="48.74009" lon="7.52842">
        <ele>150.12278748</ele>
        <time>2020-09-20T10:37:24Z</time>
      </trkpt>
      <trkpt lat="48.74012" lon="7.5282">
        <ele>150.12278748</ele>
        <time>2020-09-20T10:37:27Z</time>
      </trkpt>
      <trkpt lat="48.74014" lon="7.528">
        <ele>150.12278748</ele>
        <time>2020-09-20T10:37:29Z</time>
      </trkpt>
      <trkpt lat="48.74016" lon="7.5278">
        <ele>150.12278748</ele>
        <time>2020-09-20T10:37:31Z</time>
      </trkpt>
      <trkpt lat="48.74018" lon="7.52761">
        <ele>150.12278748</ele>
        <time>2020-09-20T10:37:32Z</time>
      </trkpt>
      <trkpt lat="48.74019" lon="7.52742">
        <ele>150.12278748</ele>
        <time>2020-09-20T10:37:34Z</time>
      </trkpt>
      <trkpt lat="48.74021" lon="7.52722">
        <ele>150.12278748</ele>
        <time>2020-09-20T10:37:36Z</time>
      </trkpt>
      <trkpt lat="48.74024" lon="7.52701">
        <ele>150.12278748</ele>
        <time>2020-09-20T10:37:38Z</time>
      </trkpt>
      <trkpt lat="48.74027" lon="7.52682">
        <ele>150.12278748</ele>
        <time>2020-09-20T10:37:41Z</time>
      </trkpt>
      <trkpt lat="48.74029" lon="7.52661">
        <ele>150.12278748</ele>
        <time>2020-09-20T10:37:42Z</time>
      </trkpt>
      <trkpt lat="48.74031" lon="7.52643">
        <ele>150.12278748</ele>
        <time>2020-09-20T10:37:44Z</time>
      </trkpt>
      <trkpt lat="48.74033" lon="7.52624">
        <ele>150.12278748</ele>
        <time>2020-09-20T10:37:46Z</time>
      </trkpt>
      <trkpt lat="48.74035" lon="7.52604">
        <ele>150.12278748</ele>
        <time>2020-09-20T10:37:48Z</time>
      </trkpt>
      <trkpt lat="48.74037" lon="7.52585">
        <ele>150.12278748</ele>
        <time>2020-09-20T10:37:51Z</time>
      </trkpt>
      <trkpt lat="48.74039" lon="7.52561">
        <ele>150.12278748</ele>
        <time>2020-09-20T10:37:52Z</time>
      </trkpt>
      <trkpt lat="48.7404" lon="7.52548">
        <ele>150.12278748</ele>
        <time>2020-09-20T10:37:54Z</time>
      </trkpt>
      <trkpt lat="48.74043" lon="7.52527">
        <ele>150.12278748</ele>
        <time>2020-09-20T10:37:56Z</time>
      </trkpt>
      <trkpt lat="48.74044" lon="7.52507">
        <ele>150.12278748</ele>
        <time>2020-09-20T10:37:58Z</time>
      </trkpt>
      <trkpt lat="48.74045" lon="7.52488">
        <ele>150.12278748</ele>
        <time>2020-09-20T10:38:01Z</time>
      </trkpt>
      <trkpt lat="48.74047" lon="7.52468">
        <ele>150.12278748</ele>
        <time>2020-09-20T10:38:02Z</time>
      </trkpt>
      <trkpt lat="48.74051" lon="7.5245">
        <ele>150.12278748</ele>
        <time>2020-09-20T10:38:04Z</time>
      </trkpt>
      <trkpt lat="48.74053" lon="7.52431">
        <ele>150.12278748</ele>
        <time>2020-09-20T10:38:06Z</time>
      </trkpt>
      <trkpt lat="48.74054" lon="7.52411">
        <ele>150.12278748</ele>
        <time>2020-09-20T10:38:08Z</time>
      </trkpt>
      <trkpt lat="48.74057" lon="7.52393">
        <ele>150.12278748</ele>
        <time>2020-09-20T10:38:10Z</time>
      </trkpt>
      <trkpt lat="48.74059" lon="7.52376">
        <ele>150.12278748</ele>
        <time>2020-09-20T10:38:12Z</time>
      </trkpt>
      <trkpt lat="48.74061" lon="7.52358">
        <ele>150.12278748</ele>
        <time>2020-09-20T10:38:14Z</time>
      </trkpt>
      <trkpt lat="48.74062" lon="7.52338">
        <ele>150.12278748</ele>
        <time>2020-09-20T10:38:16Z</time>
      </trkpt>
      <trkpt lat="48.74065" lon="7.52319">
        <ele>150.12278748</ele>
        <time>2020-09-20T10:38:18Z</time>
      </trkpt>
      <trkpt lat="48.74067" lon="7.52295">
        <ele>150.27362061</ele>
        <time>2020-09-20T10:38:21Z</time>
      </trkpt>
      <trkpt lat="48.74068" lon="7.5228">
        <ele>150.27362061</ele>
        <time>2020-09-20T10:38:22Z</time>
      </trkpt>
      <trkpt lat="48.7407" lon="7.52259">
        <ele>150.27362061</ele>
        <time>2020-09-20T10:38:24Z</time>
      </trkpt>
      <trkpt lat="48.74073" lon="7.52239">
        <ele>150.27362061</ele>
        <time>2020-09-20T10:38:26Z</time>
      </trkpt>
      <trkpt lat="48.74075" lon="7.52219">
        <ele>150.27362061</ele>
        <time>2020-09-20T10:38:28Z</time>
      </trkpt>
      <trkpt lat="48.74076" lon="7.522">
        <ele>150.27362061</ele>
        <time>2020-09-20T10:38:31Z</time>
      </trkpt>
      <trkpt lat="48.74078" lon="7.52179">
        <ele>150.27362061</ele>
        <time>2020-09-20T10:38:32Z</time>
      </trkpt>
      <trkpt lat="48.7408" lon="7.52159">
        <ele>150.27362061</ele>
        <time>2020-09-20T10:38:34Z</time>
      </trkpt>
      <trkpt lat="48.74083" lon="7.52138">
        <ele>150.27362061</ele>
        <time>2020-09-20T10:38:36Z</time>
      </trkpt>
      <trkpt lat="48.74086" lon="7.52118">
        <ele>150.27362061</ele>
        <time>2020-09-20T10:38:38Z</time>
      </trkpt>
      <trkpt lat="48.74088" lon="7.52096">
        <ele>150.27362061</ele>
        <time>2020-09-20T10:38:41Z</time>
      </trkpt>
      <trkpt lat="48.7409" lon="7.52076">
        <ele>150.27362061</ele>
        <time>2020-09-20T10:38:42Z</time>
      </trkpt>
      <trkpt lat="48.74092" lon="7.52056">
        <ele>150.27362061</ele>
        <time>2020-09-20T10:38:45Z</time>
      </trkpt>
      <trkpt lat="48.74093" lon="7.52037">
        <ele>150.27362061</ele>
        <time>2020-09-20T10:38:46Z</time>
      </trkpt>
      <trkpt lat="48.74096" lon="7.52018">
        <ele>150.27362061</ele>
        <time>2020-09-20T10:38:48Z</time>
      </trkpt>
      <trkpt lat="48.74098" lon="7.51999">
        <ele>150.27362061</ele>
        <time>2020-09-20T10:38:50Z</time>
      </trkpt>
      <trkpt lat="48.741" lon="7.5198">
        <ele>150.27362061</ele>
        <time>2020-09-20T10:38:52Z</time>
      </trkpt>
      <trkpt lat="48.74101" lon="7.51959">
        <ele>150.27362061</ele>
        <time>2020-09-20T10:38:54Z</time>
      </trkpt>
      <trkpt lat="48.74104" lon="7.51938">
        <ele>150.27362061</ele>
        <time>2020-09-20T10:38:56Z</time>
      </trkpt>
      <trkpt lat="48.74106" lon="7.51918">
        <ele>150.27362061</ele>
        <time>2020-09-20T10:38:58Z</time>
      </trkpt>
      <trkpt lat="48.74108" lon="7.51898">
        <ele>150.27362061</ele>
        <time>2020-09-20T10:39:01Z</time>
      </trkpt>
      <trkpt lat="48.74111" lon="7.51879">
        <ele>150.27362061</ele>
        <time>2020-09-20T10:39:02Z</time>
      </trkpt>
      <trkpt lat="48.74114" lon="7.51858">
        <ele>150.27362061</ele>
        <time>2020-09-20T10:39:04Z</time>
      </trkpt>
      <trkpt lat="48.74115" lon="7.51838">
        <ele>150.27362061</ele>
        <time>2020-09-20T10:39:07Z</time>
      </trkpt>
      <trkpt lat="48.74118" lon="7.51818">
        <ele>150.27362061</ele>
        <time>2020-09-20T10:39:08Z</time>
      </trkpt>
      <trkpt lat="48.74121" lon="7.51797">
        <ele>150.27362061</ele>
        <time>2020-09-20T10:39:10Z</time>
      </trkpt>
      <trkpt lat="48.74123" lon="7.51777">
        <ele>150.27362061</ele>
        <time>2020-09-20T10:39:12Z</time>
      </trkpt>
      <trkpt lat="48.74124" lon="7.51756">
        <ele>150.27362061</ele>
        <time>2020-09-20T10:39:14Z</time>
      </trkpt>
      <trkpt lat="48.74125" lon="7.51736">
        <ele>150.27362061</ele>
        <time>2020-09-20T10:39:16Z</time>
      </trkpt>
      <trkpt lat="48.74128" lon="7.51716">
        <ele>150.27362061</ele>
        <time>2020-09-20T10:39:18Z</time>
      </trkpt>
      <trkpt lat="48.74131" lon="7.51691">
        <ele>150.66474915</ele>
        <time>2020-09-20T10:39:21Z</time>
      </trkpt>
      <trkpt lat="48.74132" lon="7.51676">
        <ele>150.66474915</ele>
        <time>2020-09-20T10:39:22Z</time>
      </trkpt>
      <trkpt lat="48.74134" lon="7.51654">
        <ele>150.66474915</ele>
        <time>2020-09-20T10:39:24Z</time>
      </trkpt>
      <trkpt lat="48.74138" lon="7.51634">
        <ele>150.66474915</ele>
        <time>2020-09-20T10:39:26Z</time>
      </trkpt>
      <trkpt lat="48.7414" lon="7.51613">
        <ele>150.66474915</ele>
        <time>2020-09-20T10:39:28Z</time>
      </trkpt>
      <trkpt lat="48.74142" lon="7.51593">
        <ele>150.66474915</ele>
        <time>2020-09-20T10:39:30Z</time>
      </trkpt>
      <trkpt lat="48.74144" lon="7.51573">
        <ele>150.66474915</ele>
        <time>2020-09-20T10:39:32Z</time>
      </trkpt>
      <trkpt lat="48.74147" lon="7.51553">
        <ele>150.66474915</ele>
        <time>2020-09-20T10:39:35Z</time>
      </trkpt>
      <trkpt lat="48.7415" lon="7.51533">
        <ele>150.66474915</ele>
        <time>2020-09-20T10:39:36Z</time>
      </trkpt>
      <trkpt lat="48.74153" lon="7.51513">
        <ele>150.66474915</ele>
        <time>2020-09-20T10:39:38Z</time>
      </trkpt>
      <trkpt lat="48.74155" lon="7.51491">
        <ele>150.66474915</ele>
        <time>2020-09-20T10:39:40Z</time>
      </trkpt>
      <trkpt lat="48.74157" lon="7.51468">
        <ele>150.66474915</ele>
        <time>2020-09-20T10:39:42Z</time>
      </trkpt>
      <trkpt lat="48.74159" lon="7.51448">
        <ele>150.66474915</ele>
        <time>2020-09-20T10:39:44Z</time>
      </trkpt>
      <trkpt lat="48.74161" lon="7.51427">
        <ele>150.66474915</ele>
        <time>2020-09-20T10:39:46Z</time>
      </trkpt>
      <trkpt lat="48.74162" lon="7.51407">
        <ele>150.66474915</ele>
        <time>2020-09-20T10:39:48Z</time>
      </trkpt>
      <trkpt lat="48.74164" lon="7.51389">
        <ele>150.66474915</ele>
        <time>2020-09-20T10:39:51Z</time>
      </trkpt>
      <trkpt lat="48.74165" lon="7.51372">
        <ele>150.66474915</ele>
        <time>2020-09-20T10:39:52Z</time>
      </trkpt>
      <trkpt lat="48.74166" lon="7.51355">
        <ele>150.95535278</ele>
        <time>2020-09-20T10:39:54Z</time>
      </trkpt>
      <trkpt lat="48.74167" lon="7.51341">
        <ele>152.84689331</ele>
        <time>2020-09-20T10:39:57Z</time>
      </trkpt>
      <trkpt lat="48.74166" lon="7.51329">
        <ele>154.05661011</ele>
        <time>2020-09-20T10:40:04Z</time>
      </trkpt>
      <trkpt lat="48.7417" lon="7.51303">
        <ele>154.36103821</ele>
        <time>2020-09-20T10:40:06Z</time>
      </trkpt>
      <trkpt lat="48.74173" lon="7.51282">
        <ele>151.89633179</ele>
        <time>2020-09-20T10:40:08Z</time>
      </trkpt>
      <trkpt lat="48.74177" lon="7.5126">
        <ele>151.89633179</ele>
        <time>2020-09-20T10:40:11Z</time>
      </trkpt>
      <trkpt lat="48.74179" lon="7.51238">
        <ele>151.89633179</ele>
        <time>2020-09-20T10:40:12Z</time>
      </trkpt>
      <trkpt lat="48.74181" lon="7.51219">
        <ele>151.89633179</ele>
        <time>2020-09-20T10:40:14Z</time>
      </trkpt>
      <trkpt lat="48.74182" lon="7.51202">
        <ele>151.89633179</ele>
        <time>2020-09-20T10:40:16Z</time>
      </trkpt>
      <trkpt lat="48.74185" lon="7.51183">
        <ele>151.89633179</ele>
        <time>2020-09-20T10:40:18Z</time>
      </trkpt>
      <trkpt lat="48.74186" lon="7.51161">
        <ele>150.55099487</ele>
        <time>2020-09-20T10:40:21Z</time>
      </trkpt>
      <trkpt lat="48.74187" lon="7.51147">
        <ele>150.55099487</ele>
        <time>2020-09-20T10:40:22Z</time>
      </trkpt>
      <trkpt lat="48.74189" lon="7.5113">
        <ele>150.55099487</ele>
        <time>2020-09-20T10:40:24Z</time>
      </trkpt>
      <trkpt lat="48.74191" lon="7.51112">
        <ele>150.55099487</ele>
        <time>2020-09-20T10:40:26Z</time>
      </trkpt>
      <trkpt lat="48.74193" lon="7.51092">
        <ele>150.55099487</ele>
        <time>2020-09-20T10:40:28Z</time>
      </trkpt>
      <trkpt lat="48.74196" lon="7.51073">
        <ele>150.55099487</ele>
        <time>2020-09-20T10:40:30Z</time>
      </trkpt>
      <trkpt lat="48.74199" lon="7.51054">
        <ele>150.55099487</ele>
        <time>2020-09-20T10:40:32Z</time>
      </trkpt>
      <trkpt lat="48.74202" lon="7.51034">
        <ele>150.55099487</ele>
        <time>2020-09-20T10:40:34Z</time>
      </trkpt>
      <trkpt lat="48.74205" lon="7.51014">
        <ele>150.55099487</ele>
        <time>2020-09-20T10:40:36Z</time>
      </trkpt>
      <trkpt lat="48.74207" lon="7.50995">
        <ele>150.55099487</ele>
        <time>2020-09-20T10:40:38Z</time>
      </trkpt>
      <trkpt lat="48.74209" lon="7.50976">
        <ele>150.55099487</ele>
        <time>2020-09-20T10:40:40Z</time>
      </trkpt>
      <trkpt lat="48.74211" lon="7.50956">
        <ele>150.55099487</ele>
        <time>2020-09-20T10:40:42Z</time>
      </trkpt>
      <trkpt lat="48.74213" lon="7.50938">
        <ele>150.55099487</ele>
        <time>2020-09-20T10:40:44Z</time>
      </trkpt>
      <trkpt lat="48.74215" lon="7.50918">
        <ele>150.55099487</ele>
        <time>2020-09-20T10:40:46Z</time>
      </trkpt>
      <trkpt lat="48.74217" lon="7.50898">
        <ele>150.55099487</ele>
        <time>2020-09-20T10:40:48Z</time>
      </trkpt>
      <trkpt lat="48.74219" lon="7.50879">
        <ele>150.55099487</ele>
        <time>2020-09-20T10:40:50Z</time>
      </trkpt>
      <trkpt lat="48.7422" lon="7.50862">
        <ele>150.55099487</ele>
        <time>2020-09-20T10:40:53Z</time>
      </trkpt>
      <trkpt lat="48.74223" lon="7.50844">
        <ele>150.55099487</ele>
        <time>2020-09-20T10:40:54Z</time>
      </trkpt>
      <trkpt lat="48.74225" lon="7.50826">
        <ele>150.71722412</ele>
        <time>2020-09-20T10:40:57Z</time>
      </trkpt>
      <trkpt lat="48.74226" lon="7.50811">
        <ele>150.71722412</ele>
        <time>2020-09-20T10:40:58Z</time>
      </trkpt>
      <trkpt lat="48.74228" lon="7.50795">
        <ele>152.69943237</ele>
        <time>2020-09-20T10:41:02Z</time>
      </trkpt>
      <trkpt lat="48.74229" lon="7.50778">
        <ele>153.89706421</ele>
        <time>2020-09-20T10:41:06Z</time>
      </trkpt>
      <trkpt lat="48.74232" lon="7.50762">
        <ele>153.89706421</ele>
        <time>2020-09-20T10:41:08Z</time>
      </trkpt>
      <trkpt lat="48.74236" lon="7.50746">
        <ele>153.89706421</ele>
        <time>2020-09-20T10:41:11Z</time>
      </trkpt>
      <trkpt lat="48.74238" lon="7.5073">
        <ele>153.89706421</ele>
        <time>2020-09-20T10:41:12Z</time>
      </trkpt>
      <trkpt lat="48.74239" lon="7.50715">
        <ele>153.89706421</ele>
        <time>2020-09-20T10:41:14Z</time>
      </trkpt>
      <trkpt lat="48.7424" lon="7.50699">
        <ele>153.89706421</ele>
        <time>2020-09-20T10:41:16Z</time>
      </trkpt>
      <trkpt lat="48.74242" lon="7.50682">
        <ele>153.89706421</ele>
        <time>2020-09-20T10:41:18Z</time>
      </trkpt>
      <trkpt lat="48.74242" lon="7.50664">
        <ele>153.89706421</ele>
        <time>2020-09-20T10:41:21Z</time>
      </trkpt>
      <trkpt lat="48.74245" lon="7.50648">
        <ele>153.94758606</ele>
        <time>2020-09-20T10:41:22Z</time>
      </trkpt>
      <trkpt lat="48.74246" lon="7.50631">
        <ele>153.94758606</ele>
        <time>2020-09-20T10:41:24Z</time>
      </trkpt>
      <trkpt lat="48.74248" lon="7.50613">
        <ele>153.94758606</ele>
        <time>2020-09-20T10:41:26Z</time>
      </trkpt>
      <trkpt lat="48.74249" lon="7.50594">
        <ele>153.94758606</ele>
        <time>2020-09-20T10:41:28Z</time>
      </trkpt>
      <trkpt lat="48.74248" lon="7.50576">
        <ele>153.94758606</ele>
        <time>2020-09-20T10:41:31Z</time>
      </trkpt>
      <trkpt lat="48.74248" lon="7.50557">
        <ele>153.94758606</ele>
        <time>2020-09-20T10:41:32Z</time>
      </trkpt>
      <trkpt lat="48.74249" lon="7.50539">
        <ele>153.94758606</ele>
        <time>2020-09-20T10:41:34Z</time>
      </trkpt>
      <trkpt lat="48.74248" lon="7.50521">
        <ele>153.94758606</ele>
        <time>2020-09-20T10:41:36Z</time>
      </trkpt>
      <trkpt lat="48.74247" lon="7.50503">
        <ele>153.94758606</ele>
        <time>2020-09-20T10:41:38Z</time>
      </trkpt>
      <trkpt lat="48.74247" lon="7.50484">
        <ele>153.94758606</ele>
        <time>2020-09-20T10:41:41Z</time>
      </trkpt>
      <trkpt lat="48.74246" lon="7.50465">
        <ele>153.94758606</ele>
        <time>2020-09-20T10:41:42Z</time>
      </trkpt>
      <trkpt lat="48.74245" lon="7.50446">
        <ele>153.94758606</ele>
        <time>2020-09-20T10:41:45Z</time>
      </trkpt>
      <trkpt lat="48.74243" lon="7.50427">
        <ele>153.94758606</ele>
        <time>2020-09-20T10:41:46Z</time>
      </trkpt>
      <trkpt lat="48.74241" lon="7.50407">
        <ele>153.94758606</ele>
        <time>2020-09-20T10:41:48Z</time>
      </trkpt>
      <trkpt lat="48.74237" lon="7.50387">
        <ele>153.94758606</ele>
        <time>2020-09-20T10:41:50Z</time>
      </trkpt>
      <trkpt lat="48.74234" lon="7.50367">
        <ele>153.94758606</ele>
        <time>2020-09-20T10:41:53Z</time>
      </trkpt>
      <trkpt lat="48.74232" lon="7.50346">
        <ele>153.94758606</ele>
        <time>2020-09-20T10:41:55Z</time>
      </trkpt>
      <trkpt lat="48.7423" lon="7.50328">
        <ele>153.94758606</ele>
        <time>2020-09-20T10:41:56Z</time>
      </trkpt>
      <trkpt lat="48.74228" lon="7.5031">
        <ele>153.94758606</ele>
        <time>2020-09-20T10:41:59Z</time>
      </trkpt>
      <trkpt lat="48.74226" lon="7.50293">
        <ele>153.94758606</ele>
        <time>2020-09-20T10:42:01Z</time>
      </trkpt>
      <trkpt lat="48.74224" lon="7.50276">
        <ele>153.94758606</ele>
        <time>2020-09-20T10:42:03Z</time>
      </trkpt>
      <trkpt lat="48.74222" lon="7.50257">
        <ele>153.94758606</ele>
        <time>2020-09-20T10:42:05Z</time>
      </trkpt>
      <trkpt lat="48.7422" lon="7.50237">
        <ele>153.94758606</ele>
        <time>2020-09-20T10:42:07Z</time>
      </trkpt>
      <trkpt lat="48.74217" lon="7.50218">
        <ele>153.94758606</ele>
        <time>2020-09-20T10:42:09Z</time>
      </trkpt>
      <trkpt lat="48.74214" lon="7.50198">
        <ele>153.94758606</ele>
        <time>2020-09-20T10:42:10Z</time>
      </trkpt>
      <trkpt lat="48.74211" lon="7.5018">
        <ele>153.94758606</ele>
        <time>2020-09-20T10:42:12Z</time>
      </trkpt>
      <trkpt lat="48.74206" lon="7.50162">
        <ele>153.94758606</ele>
        <time>2020-09-20T10:42:15Z</time>
      </trkpt>
      <trkpt lat="48.74202" lon="7.50144">
        <ele>153.94758606</ele>
        <time>2020-09-20T10:42:17Z</time>
      </trkpt>
      <trkpt lat="48.74197" lon="7.50127">
        <ele>153.94758606</ele>
        <time>2020-09-20T10:42:18Z</time>
      </trkpt>
      <trkpt lat="48.7419" lon="7.50103">
        <ele>153.57376099</ele>
        <time>2020-09-20T10:42:21Z</time>
      </trkpt>
      <trkpt lat="48.74187" lon="7.5009">
        <ele>153.57376099</ele>
        <time>2020-09-20T10:42:23Z</time>
      </trkpt>
      <trkpt lat="48.74184" lon="7.50072">
        <ele>153.57376099</ele>
        <time>2020-09-20T10:42:25Z</time>
      </trkpt>
      <trkpt lat="48.74178" lon="7.50052">
        <ele>153.57376099</ele>
        <time>2020-09-20T10:42:27Z</time>
      </trkpt>
      <trkpt lat="48.74172" lon="7.50035">
        <ele>153.57376099</ele>
        <time>2020-09-20T10:42:29Z</time>
      </trkpt>
      <trkpt lat="48.74165" lon="7.50021">
        <ele>153.57376099</ele>
        <time>2020-09-20T10:42:31Z</time>
      </trkpt>
      <trkpt lat="48.74162" lon="7.50003">
        <ele>153.57376099</ele>
        <time>2020-09-20T10:42:32Z</time>
      </trkpt>
      <trkpt lat="48.7416" lon="7.49984">
        <ele>153.57376099</ele>
        <time>2020-09-20T10:42:34Z</time>
      </trkpt>
      <trkpt lat="48.7416" lon="7.49965">
        <ele>153.57376099</ele>
        <time>2020-09-20T10:42:37Z</time>
      </trkpt>
      <trkpt lat="48.74159" lon="7.49945">
        <ele>153.57376099</ele>
        <time>2020-09-20T10:42:38Z</time>
      </trkpt>
      <trkpt lat="48.74157" lon="7.49925">
        <ele>153.57376099</ele>
        <time>2020-09-20T10:42:40Z</time>
      </trkpt>
      <trkpt lat="48.74157" lon="7.49907">
        <ele>153.57376099</ele>
        <time>2020-09-20T10:42:42Z</time>
      </trkpt>
      <trkpt lat="48.74157" lon="7.49888">
        <ele>153.57376099</ele>
        <time>2020-09-20T10:42:44Z</time>
      </trkpt>
      <trkpt lat="48.74158" lon="7.49868">
        <ele>153.57376099</ele>
        <time>2020-09-20T10:42:46Z</time>
      </trkpt>
      <trkpt lat="48.74159" lon="7.49848">
        <ele>153.57376099</ele>
        <time>2020-09-20T10:42:48Z</time>
      </trkpt>
      <trkpt lat="48.7416" lon="7.49825">
        <ele>153.57376099</ele>
        <time>2020-09-20T10:42:50Z</time>
      </trkpt>
      <trkpt lat="48.74161" lon="7.49803">
        <ele>153.57376099</ele>
        <time>2020-09-20T10:42:52Z</time>
      </trkpt>
      <trkpt lat="48.74162" lon="7.49782">
        <ele>153.57376099</ele>
        <time>2020-09-20T10:42:54Z</time>
      </trkpt>
      <trkpt lat="48.74164" lon="7.49762">
        <ele>153.57376099</ele>
        <time>2020-09-20T10:42:56Z</time>
      </trkpt>
      <trkpt lat="48.74165" lon="7.49741">
        <ele>153.57376099</ele>
        <time>2020-09-20T10:42:58Z</time>
      </trkpt>
      <trkpt lat="48.74166" lon="7.49721">
        <ele>153.57376099</ele>
        <time>2020-09-20T10:43:01Z</time>
      </trkpt>
      <trkpt lat="48.74166" lon="7.49702">
        <ele>153.57376099</ele>
        <time>2020-09-20T10:43:02Z</time>
      </trkpt>
      <trkpt lat="48.74167" lon="7.49685">
        <ele>153.57376099</ele>
        <time>2020-09-20T10:43:04Z</time>
      </trkpt>
      <trkpt lat="48.74168" lon="7.49666">
        <ele>153.57376099</ele>
        <time>2020-09-20T10:43:06Z</time>
      </trkpt>
      <trkpt lat="48.74169" lon="7.49648">
        <ele>153.57376099</ele>
        <time>2020-09-20T10:43:09Z</time>
      </trkpt>
      <trkpt lat="48.74168" lon="7.49629">
        <ele>153.57376099</ele>
        <time>2020-09-20T10:43:10Z</time>
      </trkpt>
      <trkpt lat="48.74169" lon="7.4961">
        <ele>153.57376099</ele>
        <time>2020-09-20T10:43:13Z</time>
      </trkpt>
      <trkpt lat="48.74169" lon="7.49592">
        <ele>153.57376099</ele>
        <time>2020-09-20T10:43:14Z</time>
      </trkpt>
      <trkpt lat="48.74169" lon="7.49573">
        <ele>153.57376099</ele>
        <time>2020-09-20T10:43:16Z</time>
      </trkpt>
      <trkpt lat="48.7417" lon="7.49554">
        <ele>153.57376099</ele>
        <time>2020-09-20T10:43:18Z</time>
      </trkpt>
      <trkpt lat="48.7417" lon="7.49528">
        <ele>153.8666687</ele>
        <time>2020-09-20T10:43:21Z</time>
      </trkpt>
      <trkpt lat="48.7417" lon="7.49513">
        <ele>153.8666687</ele>
        <time>2020-09-20T10:43:22Z</time>
      </trkpt>
      <trkpt lat="48.74171" lon="7.49495">
        <ele>153.8666687</ele>
        <time>2020-09-20T10:43:24Z</time>
      </trkpt>
      <trkpt lat="48.74173" lon="7.49475">
        <ele>153.8666687</ele>
        <time>2020-09-20T10:43:26Z</time>
      </trkpt>
      <trkpt lat="48.74173" lon="7.49456">
        <ele>153.8666687</ele>
        <time>2020-09-20T10:43:28Z</time>
      </trkpt>
      <trkpt lat="48.74173" lon="7.49438">
        <ele>153.8666687</ele>
        <time>2020-09-20T10:43:31Z</time>
      </trkpt>
      <trkpt lat="48.74174" lon="7.49419">
        <ele>153.8666687</ele>
        <time>2020-09-20T10:43:32Z</time>
      </trkpt>
      <trkpt lat="48.74175" lon="7.49399">
        <ele>153.8666687</ele>
        <time>2020-09-20T10:43:34Z</time>
      </trkpt>
      <trkpt lat="48.74175" lon="7.49379">
        <ele>153.8666687</ele>
        <time>2020-09-20T10:43:36Z</time>
      </trkpt>
      <trkpt lat="48.74176" lon="7.49359">
        <ele>153.8666687</ele>
        <time>2020-09-20T10:43:38Z</time>
      </trkpt>
      <trkpt lat="48.74177" lon="7.4934">
        <ele>153.8666687</ele>
        <time>2020-09-20T10:43:41Z</time>
      </trkpt>
      <trkpt lat="48.74176" lon="7.4932">
        <ele>153.8666687</ele>
        <time>2020-09-20T10:43:42Z</time>
      </trkpt>
      <trkpt lat="48.74175" lon="7.49302">
        <ele>153.8666687</ele>
        <time>2020-09-20T10:43:44Z</time>
      </trkpt>
      <trkpt lat="48.74175" lon="7.49282">
        <ele>153.8666687</ele>
        <time>2020-09-20T10:43:46Z</time>
      </trkpt>
      <trkpt lat="48.74175" lon="7.49263">
        <ele>153.8666687</ele>
        <time>2020-09-20T10:43:48Z</time>
      </trkpt>
      <trkpt lat="48.74175" lon="7.49244">
        <ele>153.8666687</ele>
        <time>2020-09-20T10:43:50Z</time>
      </trkpt>
      <trkpt lat="48.74175" lon="7.49224">
        <ele>153.8666687</ele>
        <time>2020-09-20T10:43:52Z</time>
      </trkpt>
      <trkpt lat="48.74175" lon="7.49204">
        <ele>153.8666687</ele>
        <time>2020-09-20T10:43:54Z</time>
      </trkpt>
      <trkpt lat="48.74175" lon="7.49185">
        <ele>153.8666687</ele>
        <time>2020-09-20T10:43:56Z</time>
      </trkpt>
      <trkpt lat="48.74175" lon="7.49164">
        <ele>153.8666687</ele>
        <time>2020-09-20T10:43:58Z</time>
      </trkpt>
      <trkpt lat="48.74174" lon="7.49145">
        <ele>153.8666687</ele>
        <time>2020-09-20T10:44:00Z</time>
      </trkpt>
      <trkpt lat="48.74174" lon="7.49125">
        <ele>153.8666687</ele>
        <time>2020-09-20T10:44:02Z</time>
      </trkpt>
      <trkpt lat="48.74173" lon="7.49103">
        <ele>153.8666687</ele>
        <time>2020-09-20T10:44:04Z</time>
      </trkpt>
      <trkpt lat="48.74172" lon="7.49084">
        <ele>153.8666687</ele>
        <time>2020-09-20T10:44:06Z</time>
      </trkpt>
      <trkpt lat="48.74171" lon="7.49065">
        <ele>153.8666687</ele>
        <time>2020-09-20T10:44:08Z</time>
      </trkpt>
      <trkpt lat="48.7417" lon="7.49046">
        <ele>153.77340698</ele>
        <time>2020-09-20T10:44:11Z</time>
      </trkpt>
      <trkpt lat="48.74169" lon="7.49028">
        <ele>153.77340698</ele>
        <time>2020-09-20T10:44:12Z</time>
      </trkpt>
      <trkpt lat="48.74168" lon="7.49012">
        <ele>153.77340698</ele>
        <time>2020-09-20T10:44:16Z</time>
      </trkpt>
      <trkpt lat="48.74168" lon="7.48994">
        <ele>153.77340698</ele>
        <time>2020-09-20T10:44:17Z</time>
      </trkpt>
      <trkpt lat="48.7417" lon="7.48974">
        <ele>153.77340698</ele>
        <time>2020-09-20T10:44:19Z</time>
      </trkpt>
      <trkpt lat="48.74171" lon="7.48958">
        <ele>155.40133667</ele>
        <time>2020-09-20T10:44:21Z</time>
      </trkpt>
      <trkpt lat="48.74172" lon="7.48941">
        <ele>155.40133667</ele>
        <time>2020-09-20T10:44:22Z</time>
      </trkpt>
      <trkpt lat="48.74173" lon="7.48919">
        <ele>155.40133667</ele>
        <time>2020-09-20T10:44:24Z</time>
      </trkpt>
      <trkpt lat="48.74174" lon="7.48896">
        <ele>155.40133667</ele>
        <time>2020-09-20T10:44:26Z</time>
      </trkpt>
      <trkpt lat="48.74174" lon="7.48874">
        <ele>155.40133667</ele>
        <time>2020-09-20T10:44:28Z</time>
      </trkpt>
      <trkpt lat="48.74173" lon="7.48853">
        <ele>155.40133667</ele>
        <time>2020-09-20T10:44:30Z</time>
      </trkpt>
      <trkpt lat="48.74173" lon="7.48832">
        <ele>155.40133667</ele>
        <time>2020-09-20T10:44:32Z</time>
      </trkpt>
      <trkpt lat="48.74173" lon="7.48811">
        <ele>155.40133667</ele>
        <time>2020-09-20T10:44:34Z</time>
      </trkpt>
      <trkpt lat="48.74172" lon="7.4879">
        <ele>155.40133667</ele>
        <time>2020-09-20T10:44:36Z</time>
      </trkpt>
      <trkpt lat="48.74171" lon="7.48768">
        <ele>155.40133667</ele>
        <time>2020-09-20T10:44:38Z</time>
      </trkpt>
      <trkpt lat="48.74171" lon="7.48747">
        <ele>155.40133667</ele>
        <time>2020-09-20T10:44:40Z</time>
      </trkpt>
      <trkpt lat="48.7417" lon="7.48726">
        <ele>153.83140564</ele>
        <time>2020-09-20T10:44:43Z</time>
      </trkpt>
      <trkpt lat="48.7417" lon="7.48706">
        <ele>153.83140564</ele>
        <time>2020-09-20T10:44:44Z</time>
      </trkpt>
      <trkpt lat="48.7417" lon="7.48684">
        <ele>153.83140564</ele>
        <time>2020-09-20T10:44:46Z</time>
      </trkpt>
      <trkpt lat="48.7417" lon="7.48663">
        <ele>153.83140564</ele>
        <time>2020-09-20T10:44:48Z</time>
      </trkpt>
      <trkpt lat="48.74169" lon="7.48643">
        <ele>153.83140564</ele>
        <time>2020-09-20T10:44:51Z</time>
      </trkpt>
      <trkpt lat="48.74168" lon="7.48622">
        <ele>153.83140564</ele>
        <time>2020-09-20T10:44:52Z</time>
      </trkpt>
      <trkpt lat="48.74168" lon="7.48603">
        <ele>153.65234375</ele>
        <time>2020-09-20T10:44:54Z</time>
      </trkpt>
      <trkpt lat="48.7417" lon="7.48588">
        <ele>153.65234375</ele>
        <time>2020-09-20T10:44:56Z</time>
      </trkpt>
      <trkpt lat="48.74171" lon="7.48571">
        <ele>155.3223114</ele>
        <time>2020-09-20T10:44:58Z</time>
      </trkpt>
      <trkpt lat="48.74172" lon="7.48553">
        <ele>155.3223114</ele>
        <time>2020-09-20T10:45:01Z</time>
      </trkpt>
      <trkpt lat="48.74171" lon="7.48534">
        <ele>155.3223114</ele>
        <time>2020-09-20T10:45:02Z</time>
      </trkpt>
      <trkpt lat="48.74171" lon="7.48514">
        <ele>155.3223114</ele>
        <time>2020-09-20T10:45:04Z</time>
      </trkpt>
      <trkpt lat="48.7417" lon="7.48494">
        <ele>155.3223114</ele>
        <time>2020-09-20T10:45:06Z</time>
      </trkpt>
      <trkpt lat="48.74169" lon="7.48476">
        <ele>155.3223114</ele>
        <time>2020-09-20T10:45:08Z</time>
      </trkpt>
      <trkpt lat="48.74168" lon="7.48458">
        <ele>155.3223114</ele>
        <time>2020-09-20T10:45:10Z</time>
      </trkpt>
      <trkpt lat="48.74169" lon="7.48443">
        <ele>155.3223114</ele>
        <time>2020-09-20T10:45:12Z</time>
      </trkpt>
      <trkpt lat="48.74169" lon="7.4843">
        <ele>155.3223114</ele>
        <time>2020-09-20T10:45:14Z</time>
      </trkpt>
      <trkpt lat="48.74169" lon="7.48414">
        <ele>155.3223114</ele>
        <time>2020-09-20T10:45:16Z</time>
      </trkpt>
      <trkpt lat="48.74169" lon="7.48399">
        <ele>155.3223114</ele>
        <time>2020-09-20T10:45:18Z</time>
      </trkpt>
      <trkpt lat="48.74168" lon="7.48382">
        <ele>155.3223114</ele>
        <time>2020-09-20T10:45:21Z</time>
      </trkpt>
      <trkpt lat="48.74167" lon="7.48364">
        <ele>156.0509491</ele>
        <time>2020-09-20T10:45:22Z</time>
      </trkpt>
      <trkpt lat="48.74167" lon="7.48346">
        <ele>156.0509491</ele>
        <time>2020-09-20T10:45:24Z</time>
      </trkpt>
      <trkpt lat="48.74168" lon="7.48327">
        <ele>156.0509491</ele>
        <time>2020-09-20T10:45:26Z</time>
      </trkpt>
      <trkpt lat="48.74167" lon="7.48308">
        <ele>156.0509491</ele>
        <time>2020-09-20T10:45:28Z</time>
      </trkpt>
      <trkpt lat="48.74167" lon="7.48291">
        <ele>156.0509491</ele>
        <time>2020-09-20T10:45:31Z</time>
      </trkpt>
      <trkpt lat="48.74167" lon="7.48273">
        <ele>156.0509491</ele>
        <time>2020-09-20T10:45:32Z</time>
      </trkpt>
      <trkpt lat="48.74168" lon="7.48254">
        <ele>156.0509491</ele>
        <time>2020-09-20T10:45:34Z</time>
      </trkpt>
      <trkpt lat="48.74167" lon="7.48236">
        <ele>156.0509491</ele>
        <time>2020-09-20T10:45:36Z</time>
      </trkpt>
      <trkpt lat="48.74167" lon="7.48217">
        <ele>156.0509491</ele>
        <time>2020-09-20T10:45:38Z</time>
      </trkpt>
      <trkpt lat="48.74167" lon="7.48199">
        <ele>156.0509491</ele>
        <time>2020-09-20T10:45:40Z</time>
      </trkpt>
      <trkpt lat="48.74167" lon="7.48181">
        <ele>156.0509491</ele>
        <time>2020-09-20T10:45:42Z</time>
      </trkpt>
      <trkpt lat="48.74167" lon="7.48164">
        <ele>156.0509491</ele>
        <time>2020-09-20T10:45:44Z</time>
      </trkpt>
      <trkpt lat="48.74167" lon="7.48146">
        <ele>156.0509491</ele>
        <time>2020-09-20T10:45:46Z</time>
      </trkpt>
      <trkpt lat="48.74169" lon="7.48127">
        <ele>156.0509491</ele>
        <time>2020-09-20T10:45:48Z</time>
      </trkpt>
      <trkpt lat="48.74172" lon="7.48108">
        <ele>156.0509491</ele>
        <time>2020-09-20T10:45:50Z</time>
      </trkpt>
      <trkpt lat="48.74175" lon="7.48089">
        <ele>156.0509491</ele>
        <time>2020-09-20T10:45:53Z</time>
      </trkpt>
      <trkpt lat="48.74178" lon="7.4807">
        <ele>156.0509491</ele>
        <time>2020-09-20T10:45:54Z</time>
      </trkpt>
      <trkpt lat="48.7418" lon="7.48052">
        <ele>156.0509491</ele>
        <time>2020-09-20T10:45:56Z</time>
      </trkpt>
      <trkpt lat="48.74184" lon="7.48035">
        <ele>156.0509491</ele>
        <time>2020-09-20T10:45:58Z</time>
      </trkpt>
      <trkpt lat="48.74188" lon="7.48018">
        <ele>156.0509491</ele>
        <time>2020-09-20T10:46:01Z</time>
      </trkpt>
      <trkpt lat="48.74192" lon="7.48">
        <ele>156.0509491</ele>
        <time>2020-09-20T10:46:02Z</time>
      </trkpt>
      <trkpt lat="48.74197" lon="7.47982">
        <ele>156.0509491</ele>
        <time>2020-09-20T10:46:04Z</time>
      </trkpt>
      <trkpt lat="48.74202" lon="7.47964">
        <ele>156.0509491</ele>
        <time>2020-09-20T10:46:06Z</time>
      </trkpt>
      <trkpt lat="48.74207" lon="7.47945">
        <ele>156.0509491</ele>
        <time>2020-09-20T10:46:08Z</time>
      </trkpt>
      <trkpt lat="48.74211" lon="7.47928">
        <ele>156.0509491</ele>
        <time>2020-09-20T10:46:11Z</time>
      </trkpt>
      <trkpt lat="48.74215" lon="7.47911">
        <ele>156.0509491</ele>
        <time>2020-09-20T10:46:12Z</time>
      </trkpt>
      <trkpt lat="48.74218" lon="7.47896">
        <ele>156.0509491</ele>
        <time>2020-09-20T10:46:14Z</time>
      </trkpt>
      <trkpt lat="48.74221" lon="7.4788">
        <ele>156.27178955</ele>
        <time>2020-09-20T10:46:16Z</time>
      </trkpt>
      <trkpt lat="48.74224" lon="7.47864">
        <ele>156.27178955</ele>
        <time>2020-09-20T10:46:20Z</time>
      </trkpt>
      <trkpt lat="48.74234" lon="7.47841">
        <ele>158.24435425</ele>
        <time>2020-09-20T10:46:22Z</time>
      </trkpt>
      <trkpt lat="48.74242" lon="7.47824">
        <ele>158.24435425</ele>
        <time>2020-09-20T10:46:24Z</time>
      </trkpt>
      <trkpt lat="48.7425" lon="7.47805">
        <ele>157.33135986</ele>
        <time>2020-09-20T10:46:26Z</time>
      </trkpt>
      <trkpt lat="48.74257" lon="7.47786">
        <ele>157.33135986</ele>
        <time>2020-09-20T10:46:28Z</time>
      </trkpt>
      <trkpt lat="48.74263" lon="7.47768">
        <ele>156.07516479</ele>
        <time>2020-09-20T10:46:31Z</time>
      </trkpt>
      <trkpt lat="48.74269" lon="7.47749">
        <ele>156.07516479</ele>
        <time>2020-09-20T10:46:32Z</time>
      </trkpt>
      <trkpt lat="48.74274" lon="7.4773">
        <ele>156.07516479</ele>
        <time>2020-09-20T10:46:34Z</time>
      </trkpt>
      <trkpt lat="48.74281" lon="7.47711">
        <ele>156.07516479</ele>
        <time>2020-09-20T10:46:36Z</time>
      </trkpt>
      <trkpt lat="48.74286" lon="7.47693">
        <ele>156.07516479</ele>
        <time>2020-09-20T10:46:38Z</time>
      </trkpt>
      <trkpt lat="48.74292" lon="7.47676">
        <ele>156.07516479</ele>
        <time>2020-09-20T10:46:40Z</time>
      </trkpt>
      <trkpt lat="48.74297" lon="7.47659">
        <ele>156.07516479</ele>
        <time>2020-09-20T10:46:43Z</time>
      </trkpt>
      <trkpt lat="48.74302" lon="7.47641">
        <ele>156.07516479</ele>
        <time>2020-09-20T10:46:44Z</time>
      </trkpt>
      <trkpt lat="48.74306" lon="7.47624">
        <ele>156.07516479</ele>
        <time>2020-09-20T10:46:46Z</time>
      </trkpt>
      <trkpt lat="48.74311" lon="7.47607">
        <ele>156.07516479</ele>
        <time>2020-09-20T10:46:48Z</time>
      </trkpt>
      <trkpt lat="48.74316" lon="7.4759">
        <ele>156.07516479</ele>
        <time>2020-09-20T10:46:50Z</time>
      </trkpt>
      <trkpt lat="48.74322" lon="7.47573">
        <ele>156.07516479</ele>
        <time>2020-09-20T10:46:52Z</time>
      </trkpt>
      <trkpt lat="48.74328" lon="7.47555">
        <ele>156.07516479</ele>
        <time>2020-09-20T10:46:55Z</time>
      </trkpt>
      <trkpt lat="48.74333" lon="7.47537">
        <ele>156.07516479</ele>
        <time>2020-09-20T10:46:56Z</time>
      </trkpt>
      <trkpt lat="48.74338" lon="7.4752">
        <ele>156.07516479</ele>
        <time>2020-09-20T10:46:58Z</time>
      </trkpt>
      <trkpt lat="48.74343" lon="7.47503">
        <ele>156.07516479</ele>
        <time>2020-09-20T10:47:01Z</time>
      </trkpt>
      <trkpt lat="48.74348" lon="7.47483">
        <ele>156.07516479</ele>
        <time>2020-09-20T10:47:02Z</time>
      </trkpt>
      <trkpt lat="48.74352" lon="7.47468">
        <ele>155.79866028</ele>
        <time>2020-09-20T10:47:04Z</time>
      </trkpt>
      <trkpt lat="48.74356" lon="7.47452">
        <ele>155.79866028</ele>
        <time>2020-09-20T10:47:07Z</time>
      </trkpt>
      <trkpt lat="48.74361" lon="7.47435">
        <ele>157.73712158</ele>
        <time>2020-09-20T10:47:09Z</time>
      </trkpt>
      <trkpt lat="48.74368" lon="7.47419">
        <ele>157.73712158</ele>
        <time>2020-09-20T10:47:10Z</time>
      </trkpt>
      <trkpt lat="48.74373" lon="7.47401">
        <ele>157.73712158</ele>
        <time>2020-09-20T10:47:12Z</time>
      </trkpt>
      <trkpt lat="48.74377" lon="7.47384">
        <ele>157.73712158</ele>
        <time>2020-09-20T10:47:14Z</time>
      </trkpt>
      <trkpt lat="48.74381" lon="7.47368">
        <ele>157.73712158</ele>
        <time>2020-09-20T10:47:16Z</time>
      </trkpt>
      <trkpt lat="48.74386" lon="7.4735">
        <ele>157.73712158</ele>
        <time>2020-09-20T10:47:18Z</time>
      </trkpt>
      <trkpt lat="48.74391" lon="7.47333">
        <ele>157.73712158</ele>
        <time>2020-09-20T10:47:21Z</time>
      </trkpt>
      <trkpt lat="48.74393" lon="7.47328">
        <ele>158.42474365</ele>
        <time>2020-09-20T10:47:22Z</time>
      </trkpt>
      <trkpt lat="48.74397" lon="7.47316">
        <ele>158.42474365</ele>
        <time>2020-09-20T10:47:23Z</time>
      </trkpt>
      <trkpt lat="48.74403" lon="7.47297">
        <ele>158.42474365</ele>
        <time>2020-09-20T10:47:25Z</time>
      </trkpt>
      <trkpt lat="48.74409" lon="7.4728">
        <ele>158.42474365</ele>
        <time>2020-09-20T10:47:26Z</time>
      </trkpt>
      <trkpt lat="48.74413" lon="7.47263">
        <ele>158.42474365</ele>
        <time>2020-09-20T10:47:28Z</time>
      </trkpt>
      <trkpt lat="48.74419" lon="7.47244">
        <ele>158.42474365</ele>
        <time>2020-09-20T10:47:30Z</time>
      </trkpt>
      <trkpt lat="48.74424" lon="7.47227">
        <ele>158.42474365</ele>
        <time>2020-09-20T10:47:32Z</time>
      </trkpt>
      <trkpt lat="48.7443" lon="7.47209">
        <ele>158.42474365</ele>
        <time>2020-09-20T10:47:35Z</time>
      </trkpt>
      <trkpt lat="48.74435" lon="7.47192">
        <ele>158.42474365</ele>
        <time>2020-09-20T10:47:37Z</time>
      </trkpt>
      <trkpt lat="48.7444" lon="7.47175">
        <ele>158.42474365</ele>
        <time>2020-09-20T10:47:38Z</time>
      </trkpt>
      <trkpt lat="48.74446" lon="7.47157">
        <ele>158.42474365</ele>
        <time>2020-09-20T10:47:41Z</time>
      </trkpt>
      <trkpt lat="48.74451" lon="7.47139">
        <ele>158.42474365</ele>
        <time>2020-09-20T10:47:42Z</time>
      </trkpt>
      <trkpt lat="48.74455" lon="7.47122">
        <ele>158.42474365</ele>
        <time>2020-09-20T10:47:44Z</time>
      </trkpt>
      <trkpt lat="48.74461" lon="7.47104">
        <ele>158.42474365</ele>
        <time>2020-09-20T10:47:47Z</time>
      </trkpt>
      <trkpt lat="48.74467" lon="7.47087">
        <ele>158.42474365</ele>
        <time>2020-09-20T10:47:49Z</time>
      </trkpt>
      <trkpt lat="48.74472" lon="7.47069">
        <ele>158.42474365</ele>
        <time>2020-09-20T10:47:51Z</time>
      </trkpt>
      <trkpt lat="48.74479" lon="7.47051">
        <ele>158.42474365</ele>
        <time>2020-09-20T10:47:52Z</time>
      </trkpt>
      <trkpt lat="48.74486" lon="7.47034">
        <ele>158.42474365</ele>
        <time>2020-09-20T10:47:54Z</time>
      </trkpt>
      <trkpt lat="48.74493" lon="7.47016">
        <ele>158.42474365</ele>
        <time>2020-09-20T10:47:56Z</time>
      </trkpt>
      <trkpt lat="48.74498" lon="7.46998">
        <ele>158.42474365</ele>
        <time>2020-09-20T10:47:58Z</time>
      </trkpt>
      <trkpt lat="48.74501" lon="7.46979">
        <ele>158.42474365</ele>
        <time>2020-09-20T10:48:01Z</time>
      </trkpt>
      <trkpt lat="48.74506" lon="7.46961">
        <ele>158.42474365</ele>
        <time>2020-09-20T10:48:02Z</time>
      </trkpt>
      <trkpt lat="48.74512" lon="7.46943">
        <ele>158.42474365</ele>
        <time>2020-09-20T10:48:04Z</time>
      </trkpt>
      <trkpt lat="48.74519" lon="7.46925">
        <ele>158.42474365</ele>
        <time>2020-09-20T10:48:06Z</time>
      </trkpt>
      <trkpt lat="48.74524" lon="7.46908">
        <ele>158.42474365</ele>
        <time>2020-09-20T10:48:08Z</time>
      </trkpt>
      <trkpt lat="48.74531" lon="7.46892">
        <ele>158.42474365</ele>
        <time>2020-09-20T10:48:11Z</time>
      </trkpt>
      <trkpt lat="48.74538" lon="7.46875">
        <ele>158.42474365</ele>
        <time>2020-09-20T10:48:13Z</time>
      </trkpt>
      <trkpt lat="48.74544" lon="7.46859">
        <ele>158.42474365</ele>
        <time>2020-09-20T10:48:14Z</time>
      </trkpt>
      <trkpt lat="48.7455" lon="7.46841">
        <ele>158.42474365</ele>
        <time>2020-09-20T10:48:16Z</time>
      </trkpt>
      <trkpt lat="48.74557" lon="7.46825">
        <ele>158.42474365</ele>
        <time>2020-09-20T10:48:18Z</time>
      </trkpt>
      <trkpt lat="48.74565" lon="7.46803">
        <ele>158.86779785</ele>
        <time>2020-09-20T10:48:21Z</time>
      </trkpt>
      <trkpt lat="48.7457" lon="7.46791">
        <ele>158.86779785</ele>
        <time>2020-09-20T10:48:23Z</time>
      </trkpt>
      <trkpt lat="48.74577" lon="7.46774">
        <ele>158.86779785</ele>
        <time>2020-09-20T10:48:24Z</time>
      </trkpt>
      <trkpt lat="48.74585" lon="7.46759">
        <ele>158.86779785</ele>
        <time>2020-09-20T10:48:26Z</time>
      </trkpt>
      <trkpt lat="48.74591" lon="7.46742">
        <ele>158.86779785</ele>
        <time>2020-09-20T10:48:28Z</time>
      </trkpt>
      <trkpt lat="48.74597" lon="7.46727">
        <ele>158.86779785</ele>
        <time>2020-09-20T10:48:30Z</time>
      </trkpt>
      <trkpt lat="48.74604" lon="7.46712">
        <ele>158.86779785</ele>
        <time>2020-09-20T10:48:32Z</time>
      </trkpt>
      <trkpt lat="48.74613" lon="7.46696">
        <ele>158.86779785</ele>
        <time>2020-09-20T10:48:34Z</time>
      </trkpt>
      <trkpt lat="48.7462" lon="7.46679">
        <ele>158.86779785</ele>
        <time>2020-09-20T10:48:37Z</time>
      </trkpt>
      <trkpt lat="48.74628" lon="7.46663">
        <ele>158.86779785</ele>
        <time>2020-09-20T10:48:39Z</time>
      </trkpt>
      <trkpt lat="48.74636" lon="7.46647">
        <ele>158.86779785</ele>
        <time>2020-09-20T10:48:41Z</time>
      </trkpt>
      <trkpt lat="48.74645" lon="7.46632">
        <ele>158.86779785</ele>
        <time>2020-09-20T10:48:42Z</time>
      </trkpt>
      <trkpt lat="48.74652" lon="7.46618">
        <ele>158.86779785</ele>
        <time>2020-09-20T10:48:44Z</time>
      </trkpt>
      <trkpt lat="48.7466" lon="7.46603">
        <ele>158.86779785</ele>
        <time>2020-09-20T10:48:46Z</time>
      </trkpt>
      <trkpt lat="48.74669" lon="7.46588">
        <ele>158.86779785</ele>
        <time>2020-09-20T10:48:48Z</time>
      </trkpt>
      <trkpt lat="48.74678" lon="7.46572">
        <ele>158.86779785</ele>
        <time>2020-09-20T10:48:51Z</time>
      </trkpt>
      <trkpt lat="48.74686" lon="7.46557">
        <ele>158.86779785</ele>
        <time>2020-09-20T10:48:52Z</time>
      </trkpt>
      <trkpt lat="48.74694" lon="7.46541">
        <ele>158.86779785</ele>
        <time>2020-09-20T10:48:54Z</time>
      </trkpt>
      <trkpt lat="48.74702" lon="7.46528">
        <ele>158.86779785</ele>
        <time>2020-09-20T10:48:57Z</time>
      </trkpt>
      <trkpt lat="48.74709" lon="7.46515">
        <ele>158.86779785</ele>
        <time>2020-09-20T10:48:59Z</time>
      </trkpt>
      <trkpt lat="48.74716" lon="7.46502">
        <ele>158.86779785</ele>
        <time>2020-09-20T10:49:01Z</time>
      </trkpt>
      <trkpt lat="48.74721" lon="7.46489">
        <ele>158.86779785</ele>
        <time>2020-09-20T10:49:05Z</time>
      </trkpt>
      <trkpt lat="48.74725" lon="7.46475">
        <ele>158.58335876</ele>
        <time>2020-09-20T10:49:07Z</time>
      </trkpt>
      <trkpt lat="48.74729" lon="7.46462">
        <ele>158.58335876</ele>
        <time>2020-09-20T10:49:11Z</time>
      </trkpt>
      <trkpt lat="48.74736" lon="7.46448">
        <ele>158.58335876</ele>
        <time>2020-09-20T10:49:14Z</time>
      </trkpt>
      <trkpt lat="48.74741" lon="7.4643">
        <ele>158.58335876</ele>
        <time>2020-09-20T10:49:16Z</time>
      </trkpt>
      <trkpt lat="48.74744" lon="7.46414">
        <ele>158.58335876</ele>
        <time>2020-09-20T10:49:18Z</time>
      </trkpt>
      <trkpt lat="48.74747" lon="7.46403">
        <ele>161.49754333</ele>
        <time>2020-09-20T10:49:22Z</time>
      </trkpt>
      <trkpt lat="48.74749" lon="7.46392">
        <ele>161.49754333</ele>
        <time>2020-09-20T10:49:24Z</time>
      </trkpt>
      <trkpt lat="48.74749" lon="7.46377">
        <ele>162.28926086</ele>
        <time>2020-09-20T10:49:29Z</time>
      </trkpt>
      <trkpt lat="48.74754" lon="7.46368">
        <ele>163.41267395</ele>
        <time>2020-09-20T10:49:56Z</time>
      </trkpt>
      <trkpt lat="48.74765" lon="7.46358">
        <ele>163.58190918</ele>
        <time>2020-09-20T10:49:58Z</time>
      </trkpt>
      <trkpt lat="48.74772" lon="7.46346">
        <ele>161.72045898</ele>
        <time>2020-09-20T10:50:01Z</time>
      </trkpt>
      <trkpt lat="48.74778" lon="7.46334">
        <ele>161.72045898</ele>
        <time>2020-09-20T10:50:02Z</time>
      </trkpt>
      <trkpt lat="48.74787" lon="7.46326">
        <ele>161.72045898</ele>
        <time>2020-09-20T10:50:04Z</time>
      </trkpt>
      <trkpt lat="48.74796" lon="7.4632">
        <ele>160.55889893</ele>
        <time>2020-09-20T10:50:06Z</time>
      </trkpt>
      <trkpt lat="48.74805" lon="7.4631">
        <ele>160.55889893</ele>
        <time>2020-09-20T10:50:08Z</time>
      </trkpt>
      <trkpt lat="48.74812" lon="7.46295">
        <ele>160.55889893</ele>
        <time>2020-09-20T10:50:10Z</time>
      </trkpt>
      <trkpt lat="48.74815" lon="7.46277">
        <ele>160.55889893</ele>
        <time>2020-09-20T10:50:12Z</time>
      </trkpt>
      <trkpt lat="48.74818" lon="7.46263">
        <ele>160.55889893</ele>
        <time>2020-09-20T10:50:14Z</time>
      </trkpt>
      <trkpt lat="48.7482" lon="7.46249">
        <ele>160.55889893</ele>
        <time>2020-09-20T10:50:17Z</time>
      </trkpt>
      <trkpt lat="48.74822" lon="7.46233">
        <ele>160.55889893</ele>
        <time>2020-09-20T10:50:19Z</time>
      </trkpt>
      <trkpt lat="48.74823" lon="7.4622">
        <ele>159.60705566</ele>
        <time>2020-09-20T10:50:21Z</time>
      </trkpt>
      <trkpt lat="48.74824" lon="7.46207">
        <ele>159.60705566</ele>
        <time>2020-09-20T10:50:23Z</time>
      </trkpt>
      <trkpt lat="48.74823" lon="7.46189">
        <ele>159.60705566</ele>
        <time>2020-09-20T10:50:26Z</time>
      </trkpt>
      <trkpt lat="48.74822" lon="7.46171">
        <ele>159.60705566</ele>
        <time>2020-09-20T10:50:29Z</time>
      </trkpt>
      <trkpt lat="48.74821" lon="7.46155">
        <ele>159.60705566</ele>
        <time>2020-09-20T10:50:32Z</time>
      </trkpt>
      <trkpt lat="48.74822" lon="7.4614">
        <ele>159.60705566</ele>
        <time>2020-09-20T10:50:36Z</time>
      </trkpt>
      <trkpt lat="48.74822" lon="7.46126">
        <ele>159.60705566</ele>
        <time>2020-09-20T10:50:40Z</time>
      </trkpt>
      <trkpt lat="48.74822" lon="7.46122">
        <ele>159.86346436</ele>
        <time>2020-09-20T10:51:55Z</time>
      </trkpt>
      <trkpt lat="48.74823" lon="7.46121">
        <ele>159.86346436</ele>
        <time>2020-09-20T10:52:02Z</time>
      </trkpt>
      <trkpt lat="48.74824" lon="7.46097">
        <ele>159.86346436</ele>
        <time>2020-09-20T10:52:04Z</time>
      </trkpt>
      <trkpt lat="48.74826" lon="7.46078">
        <ele>159.86346436</ele>
        <time>2020-09-20T10:52:06Z</time>
      </trkpt>
      <trkpt lat="48.74826" lon="7.46061">
        <ele>159.86346436</ele>
        <time>2020-09-20T10:52:08Z</time>
      </trkpt>
      <trkpt lat="48.74827" lon="7.46044">
        <ele>159.86346436</ele>
        <time>2020-09-20T10:52:11Z</time>
      </trkpt>
      <trkpt lat="48.74826" lon="7.46026">
        <ele>159.86346436</ele>
        <time>2020-09-20T10:52:12Z</time>
      </trkpt>
      <trkpt lat="48.74825" lon="7.46009">
        <ele>159.86346436</ele>
        <time>2020-09-20T10:52:14Z</time>
      </trkpt>
      <trkpt lat="48.74824" lon="7.4599">
        <ele>159.86346436</ele>
        <time>2020-09-20T10:52:16Z</time>
      </trkpt>
      <trkpt lat="48.74823" lon="7.45971">
        <ele>159.86346436</ele>
        <time>2020-09-20T10:52:18Z</time>
      </trkpt>
      <trkpt lat="48.74822" lon="7.45949">
        <ele>159.85136414</ele>
        <time>2020-09-20T10:52:21Z</time>
      </trkpt>
      <trkpt lat="48.74822" lon="7.45936">
        <ele>159.85136414</ele>
        <time>2020-09-20T10:52:22Z</time>
      </trkpt>
      <trkpt lat="48.74822" lon="7.45918">
        <ele>159.85136414</ele>
        <time>2020-09-20T10:52:25Z</time>
      </trkpt>
      <trkpt lat="48.74822" lon="7.45901">
        <ele>159.78338623</ele>
        <time>2020-09-20T10:52:26Z</time>
      </trkpt>
      <trkpt lat="48.74823" lon="7.45884">
        <ele>159.78338623</ele>
        <time>2020-09-20T10:52:28Z</time>
      </trkpt>
      <trkpt lat="48.74824" lon="7.45866">
        <ele>159.78338623</ele>
        <time>2020-09-20T10:52:30Z</time>
      </trkpt>
      <trkpt lat="48.74826" lon="7.45849">
        <ele>161.17199707</ele>
        <time>2020-09-20T10:52:32Z</time>
      </trkpt>
      <trkpt lat="48.74828" lon="7.45831">
        <ele>161.17199707</ele>
        <time>2020-09-20T10:52:34Z</time>
      </trkpt>
      <trkpt lat="48.74829" lon="7.45813">
        <ele>161.17199707</ele>
        <time>2020-09-20T10:52:36Z</time>
      </trkpt>
      <trkpt lat="48.74828" lon="7.45794">
        <ele>161.17199707</ele>
        <time>2020-09-20T10:52:38Z</time>
      </trkpt>
      <trkpt lat="48.74825" lon="7.45775">
        <ele>161.17199707</ele>
        <time>2020-09-20T10:52:40Z</time>
      </trkpt>
      <trkpt lat="48.74822" lon="7.45756">
        <ele>161.17199707</ele>
        <time>2020-09-20T10:52:42Z</time>
      </trkpt>
      <trkpt lat="48.74822" lon="7.45737">
        <ele>161.17199707</ele>
        <time>2020-09-20T10:52:44Z</time>
      </trkpt>
      <trkpt lat="48.74822" lon="7.45718">
        <ele>161.17199707</ele>
        <time>2020-09-20T10:52:46Z</time>
      </trkpt>
      <trkpt lat="48.74824" lon="7.45698">
        <ele>161.17199707</ele>
        <time>2020-09-20T10:52:49Z</time>
      </trkpt>
      <trkpt lat="48.74828" lon="7.4568">
        <ele>161.17199707</ele>
        <time>2020-09-20T10:52:51Z</time>
      </trkpt>
      <trkpt lat="48.74831" lon="7.45662">
        <ele>161.17199707</ele>
        <time>2020-09-20T10:52:52Z</time>
      </trkpt>
      <trkpt lat="48.74833" lon="7.45642">
        <ele>161.17199707</ele>
        <time>2020-09-20T10:52:54Z</time>
      </trkpt>
      <trkpt lat="48.74836" lon="7.45622">
        <ele>161.17199707</ele>
        <time>2020-09-20T10:52:56Z</time>
      </trkpt>
      <trkpt lat="48.74839" lon="7.45603">
        <ele>161.17199707</ele>
        <time>2020-09-20T10:52:58Z</time>
      </trkpt>
      <trkpt lat="48.74843" lon="7.45585">
        <ele>161.17199707</ele>
        <time>2020-09-20T10:53:01Z</time>
      </trkpt>
      <trkpt lat="48.74848" lon="7.45568">
        <ele>161.17199707</ele>
        <time>2020-09-20T10:53:02Z</time>
      </trkpt>
      <trkpt lat="48.74853" lon="7.45551">
        <ele>161.17199707</ele>
        <time>2020-09-20T10:53:04Z</time>
      </trkpt>
      <trkpt lat="48.74859" lon="7.45533">
        <ele>161.17199707</ele>
        <time>2020-09-20T10:53:06Z</time>
      </trkpt>
      <trkpt lat="48.74864" lon="7.45515">
        <ele>161.17199707</ele>
        <time>2020-09-20T10:53:08Z</time>
      </trkpt>
      <trkpt lat="48.74869" lon="7.45497">
        <ele>161.17199707</ele>
        <time>2020-09-20T10:53:10Z</time>
      </trkpt>
      <trkpt lat="48.74875" lon="7.4548">
        <ele>161.17199707</ele>
        <time>2020-09-20T10:53:12Z</time>
      </trkpt>
      <trkpt lat="48.74883" lon="7.45463">
        <ele>161.17199707</ele>
        <time>2020-09-20T10:53:14Z</time>
      </trkpt>
      <trkpt lat="48.7489" lon="7.45446">
        <ele>161.17199707</ele>
        <time>2020-09-20T10:53:16Z</time>
      </trkpt>
      <trkpt lat="48.74898" lon="7.45429">
        <ele>161.17199707</ele>
        <time>2020-09-20T10:53:18Z</time>
      </trkpt>
      <trkpt lat="48.74908" lon="7.4541">
        <ele>161.62988281</ele>
        <time>2020-09-20T10:53:21Z</time>
      </trkpt>
      <trkpt lat="48.74915" lon="7.454">
        <ele>161.62988281</ele>
        <time>2020-09-20T10:53:22Z</time>
      </trkpt>
      <trkpt lat="48.74924" lon="7.45387">
        <ele>161.62988281</ele>
        <time>2020-09-20T10:53:24Z</time>
      </trkpt>
      <trkpt lat="48.74933" lon="7.45374">
        <ele>161.62988281</ele>
        <time>2020-09-20T10:53:26Z</time>
      </trkpt>
      <trkpt lat="48.74942" lon="7.45363">
        <ele>161.62988281</ele>
        <time>2020-09-20T10:53:28Z</time>
      </trkpt>
      <trkpt lat="48.74952" lon="7.45355">
        <ele>161.62988281</ele>
        <time>2020-09-20T10:53:31Z</time>
      </trkpt>
      <trkpt lat="48.74961" lon="7.45342">
        <ele>161.62988281</ele>
        <time>2020-09-20T10:53:32Z</time>
      </trkpt>
      <trkpt lat="48.74971" lon="7.45326">
        <ele>161.62988281</ele>
        <time>2020-09-20T10:53:34Z</time>
      </trkpt>
      <trkpt lat="48.74981" lon="7.45313">
        <ele>161.62988281</ele>
        <time>2020-09-20T10:53:36Z</time>
      </trkpt>
      <trkpt lat="48.74992" lon="7.45302">
        <ele>161.62988281</ele>
        <time>2020-09-20T10:53:38Z</time>
      </trkpt>
      <trkpt lat="48.75003" lon="7.45291">
        <ele>161.62988281</ele>
        <time>2020-09-20T10:53:40Z</time>
      </trkpt>
      <trkpt lat="48.75018" lon="7.45278">
        <ele>161.62988281</ele>
        <time>2020-09-20T10:53:42Z</time>
      </trkpt>
      <trkpt lat="48.75029" lon="7.45266">
        <ele>161.62988281</ele>
        <time>2020-09-20T10:53:46Z</time>
      </trkpt>
      <trkpt lat="48.75036" lon="7.45253">
        <ele>161.66378784</ele>
        <time>2020-09-20T10:53:49Z</time>
      </trkpt>
      <trkpt lat="48.7503" lon="7.45236">
        <ele>161.66378784</ele>
        <time>2020-09-20T10:53:51Z</time>
      </trkpt>
      <trkpt lat="48.75024" lon="7.45219">
        <ele>161.66378784</ele>
        <time>2020-09-20T10:53:52Z</time>
      </trkpt>
      <trkpt lat="48.75023" lon="7.452">
        <ele>161.66378784</ele>
        <time>2020-09-20T10:53:54Z</time>
      </trkpt>
      <trkpt lat="48.75028" lon="7.45181">
        <ele>161.66378784</ele>
        <time>2020-09-20T10:53:56Z</time>
      </trkpt>
      <trkpt lat="48.75037" lon="7.45168">
        <ele>161.66378784</ele>
        <time>2020-09-20T10:53:58Z</time>
      </trkpt>
      <trkpt lat="48.75047" lon="7.45156">
        <ele>161.66378784</ele>
        <time>2020-09-20T10:54:00Z</time>
      </trkpt>
      <trkpt lat="48.75058" lon="7.45144">
        <ele>161.66378784</ele>
        <time>2020-09-20T10:54:02Z</time>
      </trkpt>
      <trkpt lat="48.75068" lon="7.45133">
        <ele>161.66378784</ele>
        <time>2020-09-20T10:54:04Z</time>
      </trkpt>
      <trkpt lat="48.75079" lon="7.45123">
        <ele>161.66378784</ele>
        <time>2020-09-20T10:54:06Z</time>
      </trkpt>
      <trkpt lat="48.75091" lon="7.45113">
        <ele>161.66378784</ele>
        <time>2020-09-20T10:54:08Z</time>
      </trkpt>
      <trkpt lat="48.75102" lon="7.45101">
        <ele>161.66378784</ele>
        <time>2020-09-20T10:54:10Z</time>
      </trkpt>
      <trkpt lat="48.75113" lon="7.4509">
        <ele>161.66378784</ele>
        <time>2020-09-20T10:54:12Z</time>
      </trkpt>
      <trkpt lat="48.75123" lon="7.45079">
        <ele>161.66378784</ele>
        <time>2020-09-20T10:54:14Z</time>
      </trkpt>
      <trkpt lat="48.75134" lon="7.45069">
        <ele>161.66378784</ele>
        <time>2020-09-20T10:54:16Z</time>
      </trkpt>
      <trkpt lat="48.75146" lon="7.45059">
        <ele>161.66378784</ele>
        <time>2020-09-20T10:54:18Z</time>
      </trkpt>
      <trkpt lat="48.75159" lon="7.45053">
        <ele>161.66378784</ele>
        <time>2020-09-20T10:54:21Z</time>
      </trkpt>
      <trkpt lat="48.75172" lon="7.45054">
        <ele>162.45979309</ele>
        <time>2020-09-20T10:54:22Z</time>
      </trkpt>
      <trkpt lat="48.75185" lon="7.45051">
        <ele>162.45979309</ele>
        <time>2020-09-20T10:54:24Z</time>
      </trkpt>
      <trkpt lat="48.75198" lon="7.45046">
        <ele>162.45979309</ele>
        <time>2020-09-20T10:54:26Z</time>
      </trkpt>
      <trkpt lat="48.7521" lon="7.45043">
        <ele>162.45979309</ele>
        <time>2020-09-20T10:54:29Z</time>
      </trkpt>
      <trkpt lat="48.75222" lon="7.45039">
        <ele>162.45979309</ele>
        <time>2020-09-20T10:54:30Z</time>
      </trkpt>
      <trkpt lat="48.75235" lon="7.45035">
        <ele>162.45979309</ele>
        <time>2020-09-20T10:54:33Z</time>
      </trkpt>
      <trkpt lat="48.75246" lon="7.45029">
        <ele>162.45979309</ele>
        <time>2020-09-20T10:54:34Z</time>
      </trkpt>
      <trkpt lat="48.75258" lon="7.45017">
        <ele>162.45979309</ele>
        <time>2020-09-20T10:54:36Z</time>
      </trkpt>
      <trkpt lat="48.75269" lon="7.45005">
        <ele>162.45979309</ele>
        <time>2020-09-20T10:54:38Z</time>
      </trkpt>
      <trkpt lat="48.75281" lon="7.44993">
        <ele>162.15447998</ele>
        <time>2020-09-20T10:54:41Z</time>
      </trkpt>
      <trkpt lat="48.75291" lon="7.44983">
        <ele>162.15447998</ele>
        <time>2020-09-20T10:54:42Z</time>
      </trkpt>
      <trkpt lat="48.75303" lon="7.44973">
        <ele>162.15447998</ele>
        <time>2020-09-20T10:54:44Z</time>
      </trkpt>
      <trkpt lat="48.75312" lon="7.44962">
        <ele>162.15447998</ele>
        <time>2020-09-20T10:54:47Z</time>
      </trkpt>
      <trkpt lat="48.75323" lon="7.44951">
        <ele>162.15447998</ele>
        <time>2020-09-20T10:54:48Z</time>
      </trkpt>
      <trkpt lat="48.75332" lon="7.4494">
        <ele>162.15447998</ele>
        <time>2020-09-20T10:54:50Z</time>
      </trkpt>
      <trkpt lat="48.75341" lon="7.44928">
        <ele>162.15447998</ele>
        <time>2020-09-20T10:54:52Z</time>
      </trkpt>
      <trkpt lat="48.7535" lon="7.44916">
        <ele>162.15447998</ele>
        <time>2020-09-20T10:54:54Z</time>
      </trkpt>
      <trkpt lat="48.7536" lon="7.44904">
        <ele>162.15447998</ele>
        <time>2020-09-20T10:54:56Z</time>
      </trkpt>
      <trkpt lat="48.7537" lon="7.44895">
        <ele>162.15447998</ele>
        <time>2020-09-20T10:54:58Z</time>
      </trkpt>
      <trkpt lat="48.75381" lon="7.44884">
        <ele>162.15447998</ele>
        <time>2020-09-20T10:55:00Z</time>
      </trkpt>
      <trkpt lat="48.75391" lon="7.44873">
        <ele>162.15447998</ele>
        <time>2020-09-20T10:55:02Z</time>
      </trkpt>
      <trkpt lat="48.75401" lon="7.44863">
        <ele>162.15447998</ele>
        <time>2020-09-20T10:55:04Z</time>
      </trkpt>
      <trkpt lat="48.75413" lon="7.44853">
        <ele>162.15447998</ele>
        <time>2020-09-20T10:55:06Z</time>
      </trkpt>
      <trkpt lat="48.75423" lon="7.44843">
        <ele>162.15447998</ele>
        <time>2020-09-20T10:55:08Z</time>
      </trkpt>
      <trkpt lat="48.75434" lon="7.44834">
        <ele>162.15447998</ele>
        <time>2020-09-20T10:55:10Z</time>
      </trkpt>
      <trkpt lat="48.75445" lon="7.44824">
        <ele>162.15447998</ele>
        <time>2020-09-20T10:55:12Z</time>
      </trkpt>
      <trkpt lat="48.75456" lon="7.44814">
        <ele>162.15447998</ele>
        <time>2020-09-20T10:55:14Z</time>
      </trkpt>
      <trkpt lat="48.75467" lon="7.44806">
        <ele>162.15447998</ele>
        <time>2020-09-20T10:55:16Z</time>
      </trkpt>
      <trkpt lat="48.75478" lon="7.44797">
        <ele>162.15447998</ele>
        <time>2020-09-20T10:55:18Z</time>
      </trkpt>
      <trkpt lat="48.75489" lon="7.44789">
        <ele>162.15447998</ele>
        <time>2020-09-20T10:55:21Z</time>
      </trkpt>
      <trkpt lat="48.75501" lon="7.44781">
        <ele>161.52755737</ele>
        <time>2020-09-20T10:55:22Z</time>
      </trkpt>
      <trkpt lat="48.75513" lon="7.44773">
        <ele>161.52755737</ele>
        <time>2020-09-20T10:55:24Z</time>
      </trkpt>
      <trkpt lat="48.75525" lon="7.44767">
        <ele>161.52755737</ele>
        <time>2020-09-20T10:55:27Z</time>
      </trkpt>
      <trkpt lat="48.75538" lon="7.4476">
        <ele>161.52755737</ele>
        <time>2020-09-20T10:55:28Z</time>
      </trkpt>
      <trkpt lat="48.75552" lon="7.44753">
        <ele>161.52755737</ele>
        <time>2020-09-20T10:55:31Z</time>
      </trkpt>
      <trkpt lat="48.75564" lon="7.44746">
        <ele>161.52755737</ele>
        <time>2020-09-20T10:55:32Z</time>
      </trkpt>
      <trkpt lat="48.75576" lon="7.44739">
        <ele>161.52755737</ele>
        <time>2020-09-20T10:55:35Z</time>
      </trkpt>
      <trkpt lat="48.75589" lon="7.44731">
        <ele>161.52755737</ele>
        <time>2020-09-20T10:55:36Z</time>
      </trkpt>
      <trkpt lat="48.75601" lon="7.44724">
        <ele>161.52755737</ele>
        <time>2020-09-20T10:55:38Z</time>
      </trkpt>
      <trkpt lat="48.75614" lon="7.44717">
        <ele>161.52755737</ele>
        <time>2020-09-20T10:55:40Z</time>
      </trkpt>
      <trkpt lat="48.75628" lon="7.44712">
        <ele>161.52755737</ele>
        <time>2020-09-20T10:55:42Z</time>
      </trkpt>
      <trkpt lat="48.7564" lon="7.44705">
        <ele>161.52755737</ele>
        <time>2020-09-20T10:55:44Z</time>
      </trkpt>
      <trkpt lat="48.7565" lon="7.44698">
        <ele>161.52755737</ele>
        <time>2020-09-20T10:55:46Z</time>
      </trkpt>
      <trkpt lat="48.75662" lon="7.44692">
        <ele>161.52755737</ele>
        <time>2020-09-20T10:55:48Z</time>
      </trkpt>
      <trkpt lat="48.75674" lon="7.44686">
        <ele>161.32000732</ele>
        <time>2020-09-20T10:55:50Z</time>
      </trkpt>
      <trkpt lat="48.75686" lon="7.44682">
        <ele>161.32000732</ele>
        <time>2020-09-20T10:55:52Z</time>
      </trkpt>
      <trkpt lat="48.75699" lon="7.44677">
        <ele>161.32000732</ele>
        <time>2020-09-20T10:55:54Z</time>
      </trkpt>
      <trkpt lat="48.7571" lon="7.44671">
        <ele>161.32000732</ele>
        <time>2020-09-20T10:55:57Z</time>
      </trkpt>
      <trkpt lat="48.7572" lon="7.44664">
        <ele>161.32000732</ele>
        <time>2020-09-20T10:55:58Z</time>
      </trkpt>
      <trkpt lat="48.75731" lon="7.44656">
        <ele>161.32000732</ele>
        <time>2020-09-20T10:56:00Z</time>
      </trkpt>
      <trkpt lat="48.75743" lon="7.44649">
        <ele>161.32000732</ele>
        <time>2020-09-20T10:56:02Z</time>
      </trkpt>
      <trkpt lat="48.75754" lon="7.4464">
        <ele>161.32000732</ele>
        <time>2020-09-20T10:56:04Z</time>
      </trkpt>
      <trkpt lat="48.75766" lon="7.44631">
        <ele>161.32000732</ele>
        <time>2020-09-20T10:56:06Z</time>
      </trkpt>
      <trkpt lat="48.75777" lon="7.44621">
        <ele>161.32000732</ele>
        <time>2020-09-20T10:56:08Z</time>
      </trkpt>
      <trkpt lat="48.75788" lon="7.44611">
        <ele>161.32000732</ele>
        <time>2020-09-20T10:56:10Z</time>
      </trkpt>
      <trkpt lat="48.75799" lon="7.446">
        <ele>161.32000732</ele>
        <time>2020-09-20T10:56:12Z</time>
      </trkpt>
      <trkpt lat="48.7581" lon="7.44589">
        <ele>161.32000732</ele>
        <time>2020-09-20T10:56:14Z</time>
      </trkpt>
      <trkpt lat="48.75821" lon="7.44577">
        <ele>161.18231201</ele>
        <time>2020-09-20T10:56:16Z</time>
      </trkpt>
      <trkpt lat="48.75831" lon="7.44564">
        <ele>161.18231201</ele>
        <time>2020-09-20T10:56:18Z</time>
      </trkpt>
      <trkpt lat="48.75843" lon="7.44547">
        <ele>161.97077942</ele>
        <time>2020-09-20T10:56:21Z</time>
      </trkpt>
      <trkpt lat="48.7585" lon="7.44538">
        <ele>161.97077942</ele>
        <time>2020-09-20T10:56:23Z</time>
      </trkpt>
      <trkpt lat="48.7586" lon="7.44525">
        <ele>161.97077942</ele>
        <time>2020-09-20T10:56:24Z</time>
      </trkpt>
      <trkpt lat="48.75869" lon="7.44511">
        <ele>161.97077942</ele>
        <time>2020-09-20T10:56:26Z</time>
      </trkpt>
      <trkpt lat="48.75877" lon="7.44496">
        <ele>161.97077942</ele>
        <time>2020-09-20T10:56:28Z</time>
      </trkpt>
      <trkpt lat="48.75885" lon="7.4448">
        <ele>161.97077942</ele>
        <time>2020-09-20T10:56:31Z</time>
      </trkpt>
      <trkpt lat="48.7589" lon="7.44464">
        <ele>161.97077942</ele>
        <time>2020-09-20T10:56:32Z</time>
      </trkpt>
      <trkpt lat="48.75897" lon="7.44447">
        <ele>161.97077942</ele>
        <time>2020-09-20T10:56:34Z</time>
      </trkpt>
      <trkpt lat="48.75904" lon="7.44428">
        <ele>161.97077942</ele>
        <time>2020-09-20T10:56:36Z</time>
      </trkpt>
      <trkpt lat="48.75911" lon="7.44411">
        <ele>161.97077942</ele>
        <time>2020-09-20T10:56:38Z</time>
      </trkpt>
      <trkpt lat="48.75918" lon="7.44394">
        <ele>161.97077942</ele>
        <time>2020-09-20T10:56:40Z</time>
      </trkpt>
      <trkpt lat="48.75925" lon="7.44376">
        <ele>161.97077942</ele>
        <time>2020-09-20T10:56:42Z</time>
      </trkpt>
      <trkpt lat="48.75931" lon="7.4436">
        <ele>161.97077942</ele>
        <time>2020-09-20T10:56:44Z</time>
      </trkpt>
      <trkpt lat="48.75938" lon="7.44342">
        <ele>161.97077942</ele>
        <time>2020-09-20T10:56:46Z</time>
      </trkpt>
      <trkpt lat="48.75944" lon="7.44324">
        <ele>161.97077942</ele>
        <time>2020-09-20T10:56:48Z</time>
      </trkpt>
      <trkpt lat="48.7595" lon="7.44305">
        <ele>161.97077942</ele>
        <time>2020-09-20T10:56:50Z</time>
      </trkpt>
      <trkpt lat="48.75956" lon="7.44288">
        <ele>161.97077942</ele>
        <time>2020-09-20T10:56:52Z</time>
      </trkpt>
      <trkpt lat="48.75962" lon="7.4427">
        <ele>161.97077942</ele>
        <time>2020-09-20T10:56:54Z</time>
      </trkpt>
      <trkpt lat="48.75969" lon="7.44252">
        <ele>161.97077942</ele>
        <time>2020-09-20T10:56:56Z</time>
      </trkpt>
      <trkpt lat="48.75976" lon="7.44233">
        <ele>161.97077942</ele>
        <time>2020-09-20T10:56:58Z</time>
      </trkpt>
      <trkpt lat="48.75982" lon="7.44214">
        <ele>161.97077942</ele>
        <time>2020-09-20T10:57:01Z</time>
      </trkpt>
      <trkpt lat="48.75989" lon="7.44197">
        <ele>161.97077942</ele>
        <time>2020-09-20T10:57:02Z</time>
      </trkpt>
      <trkpt lat="48.75996" lon="7.4418">
        <ele>161.97077942</ele>
        <time>2020-09-20T10:57:04Z</time>
      </trkpt>
      <trkpt lat="48.76003" lon="7.44162">
        <ele>161.97077942</ele>
        <time>2020-09-20T10:57:06Z</time>
      </trkpt>
      <trkpt lat="48.76011" lon="7.44142">
        <ele>161.97077942</ele>
        <time>2020-09-20T10:57:08Z</time>
      </trkpt>
      <trkpt lat="48.76019" lon="7.44122">
        <ele>161.97077942</ele>
        <time>2020-09-20T10:57:10Z</time>
      </trkpt>
      <trkpt lat="48.76026" lon="7.44101">
        <ele>161.97077942</ele>
        <time>2020-09-20T10:57:12Z</time>
      </trkpt>
      <trkpt lat="48.76033" lon="7.44081">
        <ele>161.97077942</ele>
        <time>2020-09-20T10:57:14Z</time>
      </trkpt>
      <trkpt lat="48.7604" lon="7.44061">
        <ele>161.97077942</ele>
        <time>2020-09-20T10:57:16Z</time>
      </trkpt>
      <trkpt lat="48.76047" lon="7.44043">
        <ele>161.97077942</ele>
        <time>2020-09-20T10:57:18Z</time>
      </trkpt>
      <trkpt lat="48.76056" lon="7.44019">
        <ele>161.70378113</ele>
        <time>2020-09-20T10:57:21Z</time>
      </trkpt>
      <trkpt lat="48.76061" lon="7.44004">
        <ele>161.70378113</ele>
        <time>2020-09-20T10:57:22Z</time>
      </trkpt>
      <trkpt lat="48.76068" lon="7.43984">
        <ele>161.70378113</ele>
        <time>2020-09-20T10:57:24Z</time>
      </trkpt>
      <trkpt lat="48.76076" lon="7.43965">
        <ele>161.70378113</ele>
        <time>2020-09-20T10:57:26Z</time>
      </trkpt>
      <trkpt lat="48.76083" lon="7.43946">
        <ele>161.70378113</ele>
        <time>2020-09-20T10:57:28Z</time>
      </trkpt>
      <trkpt lat="48.76089" lon="7.43927">
        <ele>161.70378113</ele>
        <time>2020-09-20T10:57:30Z</time>
      </trkpt>
      <trkpt lat="48.76095" lon="7.43908">
        <ele>161.70378113</ele>
        <time>2020-09-20T10:57:32Z</time>
      </trkpt>
      <trkpt lat="48.76102" lon="7.4389">
        <ele>161.70378113</ele>
        <time>2020-09-20T10:57:34Z</time>
      </trkpt>
      <trkpt lat="48.7611" lon="7.43871">
        <ele>161.70378113</ele>
        <time>2020-09-20T10:57:36Z</time>
      </trkpt>
      <trkpt lat="48.76118" lon="7.43851">
        <ele>161.70378113</ele>
        <time>2020-09-20T10:57:38Z</time>
      </trkpt>
      <trkpt lat="48.76125" lon="7.43832">
        <ele>161.70378113</ele>
        <time>2020-09-20T10:57:40Z</time>
      </trkpt>
      <trkpt lat="48.76132" lon="7.43811">
        <ele>161.70378113</ele>
        <time>2020-09-20T10:57:42Z</time>
      </trkpt>
      <trkpt lat="48.76139" lon="7.4379">
        <ele>161.70378113</ele>
        <time>2020-09-20T10:57:44Z</time>
      </trkpt>
      <trkpt lat="48.76147" lon="7.4377">
        <ele>161.70378113</ele>
        <time>2020-09-20T10:57:46Z</time>
      </trkpt>
      <trkpt lat="48.76154" lon="7.43752">
        <ele>161.70378113</ele>
        <time>2020-09-20T10:57:48Z</time>
      </trkpt>
      <trkpt lat="48.76162" lon="7.43733">
        <ele>161.70378113</ele>
        <time>2020-09-20T10:57:50Z</time>
      </trkpt>
      <trkpt lat="48.76169" lon="7.43715">
        <ele>161.70378113</ele>
        <time>2020-09-20T10:57:52Z</time>
      </trkpt>
      <trkpt lat="48.76176" lon="7.43696">
        <ele>161.70378113</ele>
        <time>2020-09-20T10:57:54Z</time>
      </trkpt>
      <trkpt lat="48.76183" lon="7.43678">
        <ele>161.70378113</ele>
        <time>2020-09-20T10:57:56Z</time>
      </trkpt>
      <trkpt lat="48.76189" lon="7.43659">
        <ele>161.70378113</ele>
        <time>2020-09-20T10:57:58Z</time>
      </trkpt>
      <trkpt lat="48.76196" lon="7.43641">
        <ele>161.46653748</ele>
        <time>2020-09-20T10:58:00Z</time>
      </trkpt>
      <trkpt lat="48.76202" lon="7.43622">
        <ele>161.46653748</ele>
        <time>2020-09-20T10:58:02Z</time>
      </trkpt>
      <trkpt lat="48.76208" lon="7.43603">
        <ele>161.46653748</ele>
        <time>2020-09-20T10:58:04Z</time>
      </trkpt>
      <trkpt lat="48.76214" lon="7.43585">
        <ele>161.46653748</ele>
        <time>2020-09-20T10:58:06Z</time>
      </trkpt>
      <trkpt lat="48.76221" lon="7.43567">
        <ele>161.46653748</ele>
        <time>2020-09-20T10:58:08Z</time>
      </trkpt>
      <trkpt lat="48.76226" lon="7.43548">
        <ele>161.46653748</ele>
        <time>2020-09-20T10:58:10Z</time>
      </trkpt>
      <trkpt lat="48.76232" lon="7.4353">
        <ele>161.46653748</ele>
        <time>2020-09-20T10:58:12Z</time>
      </trkpt>
      <trkpt lat="48.76236" lon="7.43513">
        <ele>161.46653748</ele>
        <time>2020-09-20T10:58:14Z</time>
      </trkpt>
      <trkpt lat="48.76239" lon="7.43496">
        <ele>161.46653748</ele>
        <time>2020-09-20T10:58:16Z</time>
      </trkpt>
      <trkpt lat="48.76244" lon="7.43478">
        <ele>161.46653748</ele>
        <time>2020-09-20T10:58:18Z</time>
      </trkpt>
      <trkpt lat="48.76248" lon="7.43461">
        <ele>161.46653748</ele>
        <time>2020-09-20T10:58:21Z</time>
      </trkpt>
      <trkpt lat="48.76252" lon="7.43443">
        <ele>162.05076599</ele>
        <time>2020-09-20T10:58:22Z</time>
      </trkpt>
      <trkpt lat="48.76257" lon="7.43424">
        <ele>162.05076599</ele>
        <time>2020-09-20T10:58:24Z</time>
      </trkpt>
      <trkpt lat="48.76261" lon="7.43405">
        <ele>162.05076599</ele>
        <time>2020-09-20T10:58:26Z</time>
      </trkpt>
      <trkpt lat="48.76266" lon="7.43387">
        <ele>162.05076599</ele>
        <time>2020-09-20T10:58:28Z</time>
      </trkpt>
      <trkpt lat="48.7627" lon="7.43368">
        <ele>162.05076599</ele>
        <time>2020-09-20T10:58:30Z</time>
      </trkpt>
      <trkpt lat="48.76274" lon="7.43348">
        <ele>162.05076599</ele>
        <time>2020-09-20T10:58:32Z</time>
      </trkpt>
      <trkpt lat="48.76278" lon="7.4333">
        <ele>162.05076599</ele>
        <time>2020-09-20T10:58:34Z</time>
      </trkpt>
      <trkpt lat="48.76282" lon="7.43311">
        <ele>162.05076599</ele>
        <time>2020-09-20T10:58:36Z</time>
      </trkpt>
      <trkpt lat="48.76286" lon="7.43291">
        <ele>162.05076599</ele>
        <time>2020-09-20T10:58:38Z</time>
      </trkpt>
      <trkpt lat="48.76289" lon="7.43272">
        <ele>162.05076599</ele>
        <time>2020-09-20T10:58:40Z</time>
      </trkpt>
      <trkpt lat="48.76293" lon="7.43253">
        <ele>162.05076599</ele>
        <time>2020-09-20T10:58:42Z</time>
      </trkpt>
      <trkpt lat="48.76296" lon="7.43234">
        <ele>162.05076599</ele>
        <time>2020-09-20T10:58:44Z</time>
      </trkpt>
      <trkpt lat="48.76299" lon="7.43213">
        <ele>162.05076599</ele>
        <time>2020-09-20T10:58:46Z</time>
      </trkpt>
      <trkpt lat="48.76301" lon="7.43193">
        <ele>162.05076599</ele>
        <time>2020-09-20T10:58:48Z</time>
      </trkpt>
      <trkpt lat="48.76304" lon="7.43174">
        <ele>162.05076599</ele>
        <time>2020-09-20T10:58:50Z</time>
      </trkpt>
      <trkpt lat="48.76307" lon="7.43155">
        <ele>162.05076599</ele>
        <time>2020-09-20T10:58:52Z</time>
      </trkpt>
      <trkpt lat="48.76308" lon="7.43135">
        <ele>162.05076599</ele>
        <time>2020-09-20T10:58:54Z</time>
      </trkpt>
      <trkpt lat="48.76311" lon="7.43116">
        <ele>162.05076599</ele>
        <time>2020-09-20T10:58:56Z</time>
      </trkpt>
      <trkpt lat="48.76314" lon="7.43097">
        <ele>162.05076599</ele>
        <time>2020-09-20T10:58:58Z</time>
      </trkpt>
      <trkpt lat="48.76317" lon="7.43077">
        <ele>162.05076599</ele>
        <time>2020-09-20T10:59:00Z</time>
      </trkpt>
      <trkpt lat="48.76318" lon="7.43058">
        <ele>162.05076599</ele>
        <time>2020-09-20T10:59:03Z</time>
      </trkpt>
      <trkpt lat="48.7632" lon="7.43039">
        <ele>162.05076599</ele>
        <time>2020-09-20T10:59:04Z</time>
      </trkpt>
      <trkpt lat="48.76322" lon="7.4302">
        <ele>162.05076599</ele>
        <time>2020-09-20T10:59:06Z</time>
      </trkpt>
      <trkpt lat="48.76323" lon="7.43001">
        <ele>162.05076599</ele>
        <time>2020-09-20T10:59:08Z</time>
      </trkpt>
      <trkpt lat="48.76325" lon="7.42981">
        <ele>162.05076599</ele>
        <time>2020-09-20T10:59:10Z</time>
      </trkpt>
      <trkpt lat="48.76326" lon="7.4296">
        <ele>162.05076599</ele>
        <time>2020-09-20T10:59:12Z</time>
      </trkpt>
      <trkpt lat="48.76328" lon="7.4294">
        <ele>162.05076599</ele>
        <time>2020-09-20T10:59:14Z</time>
      </trkpt>
      <trkpt lat="48.76328" lon="7.4292">
        <ele>162.05076599</ele>
        <time>2020-09-20T10:59:16Z</time>
      </trkpt>
      <trkpt lat="48.76329" lon="7.429">
        <ele>162.05076599</ele>
        <time>2020-09-20T10:59:18Z</time>
      </trkpt>
      <trkpt lat="48.76329" lon="7.42874">
        <ele>162.17782593</ele>
        <time>2020-09-20T10:59:21Z</time>
      </trkpt>
      <trkpt lat="48.76329" lon="7.42858">
        <ele>162.17782593</ele>
        <time>2020-09-20T10:59:22Z</time>
      </trkpt>
      <trkpt lat="48.76329" lon="7.42837">
        <ele>162.17782593</ele>
        <time>2020-09-20T10:59:24Z</time>
      </trkpt>
      <trkpt lat="48.7633" lon="7.42815">
        <ele>162.17782593</ele>
        <time>2020-09-20T10:59:26Z</time>
      </trkpt>
      <trkpt lat="48.7633" lon="7.42795">
        <ele>162.17782593</ele>
        <time>2020-09-20T10:59:28Z</time>
      </trkpt>
      <trkpt lat="48.76331" lon="7.42775">
        <ele>162.17782593</ele>
        <time>2020-09-20T10:59:30Z</time>
      </trkpt>
      <trkpt lat="48.76331" lon="7.42755">
        <ele>162.17782593</ele>
        <time>2020-09-20T10:59:32Z</time>
      </trkpt>
      <trkpt lat="48.76332" lon="7.42735">
        <ele>162.17782593</ele>
        <time>2020-09-20T10:59:34Z</time>
      </trkpt>
      <trkpt lat="48.76332" lon="7.42716">
        <ele>162.17782593</ele>
        <time>2020-09-20T10:59:36Z</time>
      </trkpt>
      <trkpt lat="48.76333" lon="7.42696">
        <ele>162.17782593</ele>
        <time>2020-09-20T10:59:38Z</time>
      </trkpt>
      <trkpt lat="48.76333" lon="7.42675">
        <ele>162.17782593</ele>
        <time>2020-09-20T10:59:40Z</time>
      </trkpt>
      <trkpt lat="48.76334" lon="7.42653">
        <ele>162.17782593</ele>
        <time>2020-09-20T10:59:42Z</time>
      </trkpt>
      <trkpt lat="48.76334" lon="7.42633">
        <ele>162.17782593</ele>
        <time>2020-09-20T10:59:45Z</time>
      </trkpt>
      <trkpt lat="48.76333" lon="7.42614">
        <ele>162.17782593</ele>
        <time>2020-09-20T10:59:46Z</time>
      </trkpt>
      <trkpt lat="48.76332" lon="7.42596">
        <ele>162.17782593</ele>
        <time>2020-09-20T10:59:48Z</time>
      </trkpt>
      <trkpt lat="48.76332" lon="7.42576">
        <ele>162.17782593</ele>
        <time>2020-09-20T10:59:50Z</time>
      </trkpt>
      <trkpt lat="48.76332" lon="7.42556">
        <ele>162.17782593</ele>
        <time>2020-09-20T10:59:52Z</time>
      </trkpt>
      <trkpt lat="48.76332" lon="7.42537">
        <ele>162.17782593</ele>
        <time>2020-09-20T10:59:54Z</time>
      </trkpt>
      <trkpt lat="48.76333" lon="7.42516">
        <ele>162.17782593</ele>
        <time>2020-09-20T10:59:56Z</time>
      </trkpt>
      <trkpt lat="48.76332" lon="7.42496">
        <ele>162.17782593</ele>
        <time>2020-09-20T10:59:58Z</time>
      </trkpt>
      <trkpt lat="48.76332" lon="7.42476">
        <ele>162.17782593</ele>
        <time>2020-09-20T11:00:00Z</time>
      </trkpt>
      <trkpt lat="48.76331" lon="7.42456">
        <ele>162.17782593</ele>
        <time>2020-09-20T11:00:02Z</time>
      </trkpt>
      <trkpt lat="48.76331" lon="7.42437">
        <ele>162.17782593</ele>
        <time>2020-09-20T11:00:04Z</time>
      </trkpt>
      <trkpt lat="48.76331" lon="7.42418">
        <ele>162.17782593</ele>
        <time>2020-09-20T11:00:06Z</time>
      </trkpt>
      <trkpt lat="48.76332" lon="7.42397">
        <ele>162.17782593</ele>
        <time>2020-09-20T11:00:08Z</time>
      </trkpt>
      <trkpt lat="48.76332" lon="7.42377">
        <ele>162.17782593</ele>
        <time>2020-09-20T11:00:10Z</time>
      </trkpt>
      <trkpt lat="48.76332" lon="7.42358">
        <ele>162.17782593</ele>
        <time>2020-09-20T11:00:12Z</time>
      </trkpt>
      <trkpt lat="48.76332" lon="7.42339">
        <ele>162.17782593</ele>
        <time>2020-09-20T11:00:14Z</time>
      </trkpt>
      <trkpt lat="48.76331" lon="7.42318">
        <ele>162.17782593</ele>
        <time>2020-09-20T11:00:16Z</time>
      </trkpt>
      <trkpt lat="48.7633" lon="7.42298">
        <ele>162.17782593</ele>
        <time>2020-09-20T11:00:18Z</time>
      </trkpt>
      <trkpt lat="48.7633" lon="7.42273">
        <ele>162.32804871</ele>
        <time>2020-09-20T11:00:21Z</time>
      </trkpt>
      <trkpt lat="48.7633" lon="7.4226">
        <ele>162.32804871</ele>
        <time>2020-09-20T11:00:22Z</time>
      </trkpt>
      <trkpt lat="48.76331" lon="7.42241">
        <ele>162.32804871</ele>
        <time>2020-09-20T11:00:24Z</time>
      </trkpt>
      <trkpt lat="48.7633" lon="7.42221">
        <ele>162.32804871</ele>
        <time>2020-09-20T11:00:26Z</time>
      </trkpt>
      <trkpt lat="48.76331" lon="7.42201">
        <ele>162.32804871</ele>
        <time>2020-09-20T11:00:28Z</time>
      </trkpt>
      <trkpt lat="48.76333" lon="7.42181">
        <ele>162.32804871</ele>
        <time>2020-09-20T11:00:30Z</time>
      </trkpt>
      <trkpt lat="48.76333" lon="7.4216">
        <ele>162.32804871</ele>
        <time>2020-09-20T11:00:32Z</time>
      </trkpt>
      <trkpt lat="48.76332" lon="7.4214">
        <ele>162.32804871</ele>
        <time>2020-09-20T11:00:34Z</time>
      </trkpt>
      <trkpt lat="48.76333" lon="7.4212">
        <ele>162.32804871</ele>
        <time>2020-09-20T11:00:36Z</time>
      </trkpt>
      <trkpt lat="48.76332" lon="7.42098">
        <ele>162.32804871</ele>
        <time>2020-09-20T11:00:38Z</time>
      </trkpt>
      <trkpt lat="48.76332" lon="7.42077">
        <ele>162.32804871</ele>
        <time>2020-09-20T11:00:40Z</time>
      </trkpt>
      <trkpt lat="48.76331" lon="7.42055">
        <ele>162.32804871</ele>
        <time>2020-09-20T11:00:42Z</time>
      </trkpt>
      <trkpt lat="48.7633" lon="7.42033">
        <ele>162.32804871</ele>
        <time>2020-09-20T11:00:44Z</time>
      </trkpt>
      <trkpt lat="48.7633" lon="7.42013">
        <ele>162.32804871</ele>
        <time>2020-09-20T11:00:46Z</time>
      </trkpt>
      <trkpt lat="48.7633" lon="7.41993">
        <ele>162.32804871</ele>
        <time>2020-09-20T11:00:48Z</time>
      </trkpt>
      <trkpt lat="48.76329" lon="7.41972">
        <ele>162.32804871</ele>
        <time>2020-09-20T11:00:50Z</time>
      </trkpt>
      <trkpt lat="48.76329" lon="7.41951">
        <ele>162.32804871</ele>
        <time>2020-09-20T11:00:52Z</time>
      </trkpt>
      <trkpt lat="48.76329" lon="7.41932">
        <ele>162.32804871</ele>
        <time>2020-09-20T11:00:54Z</time>
      </trkpt>
      <trkpt lat="48.76328" lon="7.41912">
        <ele>162.32804871</ele>
        <time>2020-09-20T11:00:56Z</time>
      </trkpt>
      <trkpt lat="48.76326" lon="7.41893">
        <ele>162.32804871</ele>
        <time>2020-09-20T11:00:58Z</time>
      </trkpt>
      <trkpt lat="48.76321" lon="7.41877">
        <ele>162.32804871</ele>
        <time>2020-09-20T11:01:01Z</time>
      </trkpt>
      <trkpt lat="48.76311" lon="7.41871">
        <ele>162.32804871</ele>
        <time>2020-09-20T11:01:02Z</time>
      </trkpt>
      <trkpt lat="48.76297" lon="7.41876">
        <ele>162.32804871</ele>
        <time>2020-09-20T11:01:04Z</time>
      </trkpt>
      <trkpt lat="48.76284" lon="7.41877">
        <ele>162.32804871</ele>
        <time>2020-09-20T11:01:06Z</time>
      </trkpt>
      <trkpt lat="48.76275" lon="7.41867">
        <ele>162.32804871</ele>
        <time>2020-09-20T11:01:09Z</time>
      </trkpt>
      <trkpt lat="48.7627" lon="7.41842">
        <ele>162.32804871</ele>
        <time>2020-09-20T11:01:10Z</time>
      </trkpt>
      <trkpt lat="48.76264" lon="7.41823">
        <ele>162.32804871</ele>
        <time>2020-09-20T11:01:11Z</time>
      </trkpt>
      <trkpt lat="48.76259" lon="7.41807">
        <ele>162.32804871</ele>
        <time>2020-09-20T11:01:13Z</time>
      </trkpt>
      <trkpt lat="48.76251" lon="7.41788">
        <ele>162.32804871</ele>
        <time>2020-09-20T11:01:15Z</time>
      </trkpt>
      <trkpt lat="48.76246" lon="7.41772">
        <ele>162.32804871</ele>
        <time>2020-09-20T11:01:17Z</time>
      </trkpt>
      <trkpt lat="48.76247" lon="7.41755">
        <ele>162.32804871</ele>
        <time>2020-09-20T11:01:19Z</time>
      </trkpt>
      <trkpt lat="48.76252" lon="7.41748">
        <ele>161.96846008</ele>
        <time>2020-09-20T11:01:21Z</time>
      </trkpt>
      <trkpt lat="48.76263" lon="7.41741">
        <ele>161.96846008</ele>
        <time>2020-09-20T11:01:22Z</time>
      </trkpt>
      <trkpt lat="48.76278" lon="7.41731">
        <ele>161.96846008</ele>
        <time>2020-09-20T11:01:24Z</time>
      </trkpt>
      <trkpt lat="48.76288" lon="7.41721">
        <ele>161.96846008</ele>
        <time>2020-09-20T11:01:27Z</time>
      </trkpt>
      <trkpt lat="48.76295" lon="7.41707">
        <ele>162.06614685</ele>
        <time>2020-09-20T11:01:29Z</time>
      </trkpt>
      <trkpt lat="48.76293" lon="7.41692">
        <ele>162.06614685</ele>
        <time>2020-09-20T11:01:31Z</time>
      </trkpt>
      <trkpt lat="48.76279" lon="7.41677">
        <ele>163.41268921</ele>
        <time>2020-09-20T11:01:32Z</time>
      </trkpt>
      <trkpt lat="48.7627" lon="7.41661">
        <ele>163.41268921</ele>
        <time>2020-09-20T11:01:34Z</time>
      </trkpt>
      <trkpt lat="48.76266" lon="7.41646">
        <ele>164.59196472</ele>
        <time>2020-09-20T11:01:37Z</time>
      </trkpt>
      <trkpt lat="48.76264" lon="7.41629">
        <ele>164.59196472</ele>
        <time>2020-09-20T11:01:40Z</time>
      </trkpt>
      <trkpt lat="48.7626" lon="7.41608">
        <ele>164.59196472</ele>
        <time>2020-09-20T11:01:42Z</time>
      </trkpt>
      <trkpt lat="48.76256" lon="7.41588">
        <ele>164.59196472</ele>
        <time>2020-09-20T11:01:44Z</time>
      </trkpt>
      <trkpt lat="48.76251" lon="7.41572">
        <ele>164.59196472</ele>
        <time>2020-09-20T11:01:46Z</time>
      </trkpt>
      <trkpt lat="48.76244" lon="7.41555">
        <ele>164.59196472</ele>
        <time>2020-09-20T11:01:48Z</time>
      </trkpt>
      <trkpt lat="48.76238" lon="7.41538">
        <ele>164.59196472</ele>
        <time>2020-09-20T11:01:50Z</time>
      </trkpt>
      <trkpt lat="48.76233" lon="7.4152">
        <ele>164.59196472</ele>
        <time>2020-09-20T11:01:52Z</time>
      </trkpt>
      <trkpt lat="48.76228" lon="7.41505">
        <ele>164.59196472</ele>
        <time>2020-09-20T11:01:54Z</time>
      </trkpt>
      <trkpt lat="48.76222" lon="7.41487">
        <ele>164.59196472</ele>
        <time>2020-09-20T11:01:56Z</time>
      </trkpt>
      <trkpt lat="48.76216" lon="7.41469">
        <ele>164.59196472</ele>
        <time>2020-09-20T11:01:59Z</time>
      </trkpt>
      <trkpt lat="48.7621" lon="7.41452">
        <ele>164.59196472</ele>
        <time>2020-09-20T11:02:01Z</time>
      </trkpt>
      <trkpt lat="48.76205" lon="7.41433">
        <ele>164.59196472</ele>
        <time>2020-09-20T11:02:02Z</time>
      </trkpt>
      <trkpt lat="48.762" lon="7.41415">
        <ele>164.59196472</ele>
        <time>2020-09-20T11:02:04Z</time>
      </trkpt>
      <trkpt lat="48.76194" lon="7.41397">
        <ele>164.59196472</ele>
        <time>2020-09-20T11:02:07Z</time>
      </trkpt>
      <trkpt lat="48.76189" lon="7.4138">
        <ele>164.59196472</ele>
        <time>2020-09-20T11:02:08Z</time>
      </trkpt>
      <trkpt lat="48.76183" lon="7.41362">
        <ele>164.59196472</ele>
        <time>2020-09-20T11:02:10Z</time>
      </trkpt>
      <trkpt lat="48.76178" lon="7.41342">
        <ele>164.59196472</ele>
        <time>2020-09-20T11:02:12Z</time>
      </trkpt>
      <trkpt lat="48.76173" lon="7.41326">
        <ele>164.59196472</ele>
        <time>2020-09-20T11:02:14Z</time>
      </trkpt>
      <trkpt lat="48.76168" lon="7.41309">
        <ele>164.59196472</ele>
        <time>2020-09-20T11:02:16Z</time>
      </trkpt>
      <trkpt lat="48.76164" lon="7.41293">
        <ele>164.59196472</ele>
        <time>2020-09-20T11:02:18Z</time>
      </trkpt>
      <trkpt lat="48.76158" lon="7.41273">
        <ele>165.38491821</ele>
        <time>2020-09-20T11:02:21Z</time>
      </trkpt>
      <trkpt lat="48.76154" lon="7.4126">
        <ele>165.38491821</ele>
        <time>2020-09-20T11:02:23Z</time>
      </trkpt>
      <trkpt lat="48.76148" lon="7.41241">
        <ele>165.38491821</ele>
        <time>2020-09-20T11:02:24Z</time>
      </trkpt>
      <trkpt lat="48.76142" lon="7.41223">
        <ele>165.38491821</ele>
        <time>2020-09-20T11:02:26Z</time>
      </trkpt>
      <trkpt lat="48.76136" lon="7.41206">
        <ele>165.38491821</ele>
        <time>2020-09-20T11:02:28Z</time>
      </trkpt>
      <trkpt lat="48.76131" lon="7.41189">
        <ele>165.38491821</ele>
        <time>2020-09-20T11:02:30Z</time>
      </trkpt>
      <trkpt lat="48.76126" lon="7.41173">
        <ele>165.38491821</ele>
        <time>2020-09-20T11:02:32Z</time>
      </trkpt>
      <trkpt lat="48.7612" lon="7.41154">
        <ele>165.38491821</ele>
        <time>2020-09-20T11:02:34Z</time>
      </trkpt>
      <trkpt lat="48.76115" lon="7.41138">
        <ele>165.38491821</ele>
        <time>2020-09-20T11:02:36Z</time>
      </trkpt>
      <trkpt lat="48.76111" lon="7.41122">
        <ele>165.38491821</ele>
        <time>2020-09-20T11:02:38Z</time>
      </trkpt>
      <trkpt lat="48.76105" lon="7.41105">
        <ele>165.38491821</ele>
        <time>2020-09-20T11:02:40Z</time>
      </trkpt>
      <trkpt lat="48.76099" lon="7.41087">
        <ele>165.38491821</ele>
        <time>2020-09-20T11:02:43Z</time>
      </trkpt>
      <trkpt lat="48.76093" lon="7.41069">
        <ele>165.38491821</ele>
        <time>2020-09-20T11:02:44Z</time>
      </trkpt>
      <trkpt lat="48.76089" lon="7.41053">
        <ele>165.38491821</ele>
        <time>2020-09-20T11:02:46Z</time>
      </trkpt>
      <trkpt lat="48.76085" lon="7.41036">
        <ele>165.38491821</ele>
        <time>2020-09-20T11:02:48Z</time>
      </trkpt>
      <trkpt lat="48.7608" lon="7.41017">
        <ele>165.38491821</ele>
        <time>2020-09-20T11:02:51Z</time>
      </trkpt>
      <trkpt lat="48.76074" lon="7.40998">
        <ele>165.38491821</ele>
        <time>2020-09-20T11:02:52Z</time>
      </trkpt>
      <trkpt lat="48.76068" lon="7.40981">
        <ele>165.38491821</ele>
        <time>2020-09-20T11:02:54Z</time>
      </trkpt>
      <trkpt lat="48.76064" lon="7.40965">
        <ele>165.38491821</ele>
        <time>2020-09-20T11:02:56Z</time>
      </trkpt>
      <trkpt lat="48.76059" lon="7.40948">
        <ele>165.38491821</ele>
        <time>2020-09-20T11:02:58Z</time>
      </trkpt>
      <trkpt lat="48.76056" lon="7.40932">
        <ele>165.38491821</ele>
        <time>2020-09-20T11:03:00Z</time>
      </trkpt>
      <trkpt lat="48.7605" lon="7.40916">
        <ele>165.38491821</ele>
        <time>2020-09-20T11:03:02Z</time>
      </trkpt>
      <trkpt lat="48.76044" lon="7.40897">
        <ele>165.38491821</ele>
        <time>2020-09-20T11:03:04Z</time>
      </trkpt>
      <trkpt lat="48.76038" lon="7.40881">
        <ele>165.38491821</ele>
        <time>2020-09-20T11:03:06Z</time>
      </trkpt>
      <trkpt lat="48.76033" lon="7.40863">
        <ele>165.38491821</ele>
        <time>2020-09-20T11:03:08Z</time>
      </trkpt>
      <trkpt lat="48.76028" lon="7.40847">
        <ele>165.38491821</ele>
        <time>2020-09-20T11:03:10Z</time>
      </trkpt>
      <trkpt lat="48.76023" lon="7.4083">
        <ele>165.38491821</ele>
        <time>2020-09-20T11:03:12Z</time>
      </trkpt>
      <trkpt lat="48.76018" lon="7.40814">
        <ele>165.38491821</ele>
        <time>2020-09-20T11:03:14Z</time>
      </trkpt>
      <trkpt lat="48.76014" lon="7.40797">
        <ele>165.38491821</ele>
        <time>2020-09-20T11:03:16Z</time>
      </trkpt>
      <trkpt lat="48.76009" lon="7.40783">
        <ele>165.38491821</ele>
        <time>2020-09-20T11:03:18Z</time>
      </trkpt>
      <trkpt lat="48.76002" lon="7.40762">
        <ele>165.66490173</ele>
        <time>2020-09-20T11:03:21Z</time>
      </trkpt>
      <trkpt lat="48.75998" lon="7.4075">
        <ele>165.66490173</ele>
        <time>2020-09-20T11:03:22Z</time>
      </trkpt>
      <trkpt lat="48.75994" lon="7.40735">
        <ele>165.66490173</ele>
        <time>2020-09-20T11:03:24Z</time>
      </trkpt>
      <trkpt lat="48.7599" lon="7.40719">
        <ele>165.66490173</ele>
        <time>2020-09-20T11:03:26Z</time>
      </trkpt>
      <trkpt lat="48.75985" lon="7.40702">
        <ele>165.66490173</ele>
        <time>2020-09-20T11:03:28Z</time>
      </trkpt>
      <trkpt lat="48.7598" lon="7.40685">
        <ele>165.66490173</ele>
        <time>2020-09-20T11:03:30Z</time>
      </trkpt>
      <trkpt lat="48.75974" lon="7.40668">
        <ele>165.66490173</ele>
        <time>2020-09-20T11:03:32Z</time>
      </trkpt>
      <trkpt lat="48.75969" lon="7.40652">
        <ele>165.66490173</ele>
        <time>2020-09-20T11:03:34Z</time>
      </trkpt>
      <trkpt lat="48.75963" lon="7.40631">
        <ele>165.66490173</ele>
        <time>2020-09-20T11:03:36Z</time>
      </trkpt>
      <trkpt lat="48.75957" lon="7.40612">
        <ele>165.66490173</ele>
        <time>2020-09-20T11:03:38Z</time>
      </trkpt>
      <trkpt lat="48.75951" lon="7.40593">
        <ele>165.66490173</ele>
        <time>2020-09-20T11:03:40Z</time>
      </trkpt>
      <trkpt lat="48.75946" lon="7.40575">
        <ele>165.66490173</ele>
        <time>2020-09-20T11:03:42Z</time>
      </trkpt>
      <trkpt lat="48.75941" lon="7.40557">
        <ele>165.66490173</ele>
        <time>2020-09-20T11:03:44Z</time>
      </trkpt>
      <trkpt lat="48.75935" lon="7.4054">
        <ele>165.66490173</ele>
        <time>2020-09-20T11:03:46Z</time>
      </trkpt>
      <trkpt lat="48.75929" lon="7.40523">
        <ele>165.66490173</ele>
        <time>2020-09-20T11:03:48Z</time>
      </trkpt>
      <trkpt lat="48.75922" lon="7.40504">
        <ele>165.66490173</ele>
        <time>2020-09-20T11:03:50Z</time>
      </trkpt>
      <trkpt lat="48.75915" lon="7.40486">
        <ele>165.66490173</ele>
        <time>2020-09-20T11:03:52Z</time>
      </trkpt>
      <trkpt lat="48.7591" lon="7.40468">
        <ele>165.66490173</ele>
        <time>2020-09-20T11:03:54Z</time>
      </trkpt>
      <trkpt lat="48.75905" lon="7.4045">
        <ele>165.66490173</ele>
        <time>2020-09-20T11:03:56Z</time>
      </trkpt>
      <trkpt lat="48.75901" lon="7.40432">
        <ele>165.66490173</ele>
        <time>2020-09-20T11:03:58Z</time>
      </trkpt>
      <trkpt lat="48.75895" lon="7.40416">
        <ele>165.66490173</ele>
        <time>2020-09-20T11:04:01Z</time>
      </trkpt>
      <trkpt lat="48.7589" lon="7.40402">
        <ele>165.66490173</ele>
        <time>2020-09-20T11:04:02Z</time>
      </trkpt>
      <trkpt lat="48.75884" lon="7.40386">
        <ele>165.66490173</ele>
        <time>2020-09-20T11:04:04Z</time>
      </trkpt>
      <trkpt lat="48.75881" lon="7.40369">
        <ele>165.66490173</ele>
        <time>2020-09-20T11:04:06Z</time>
      </trkpt>
      <trkpt lat="48.75877" lon="7.40351">
        <ele>165.66490173</ele>
        <time>2020-09-20T11:04:08Z</time>
      </trkpt>
      <trkpt lat="48.75872" lon="7.40334">
        <ele>165.66490173</ele>
        <time>2020-09-20T11:04:10Z</time>
      </trkpt>
      <trkpt lat="48.75866" lon="7.40315">
        <ele>165.66490173</ele>
        <time>2020-09-20T11:04:12Z</time>
      </trkpt>
      <trkpt lat="48.7586" lon="7.40298">
        <ele>165.66490173</ele>
        <time>2020-09-20T11:04:14Z</time>
      </trkpt>
      <trkpt lat="48.75856" lon="7.4028">
        <ele>165.66490173</ele>
        <time>2020-09-20T11:04:16Z</time>
      </trkpt>
      <trkpt lat="48.75851" lon="7.40263">
        <ele>165.66490173</ele>
        <time>2020-09-20T11:04:18Z</time>
      </trkpt>
      <trkpt lat="48.75845" lon="7.40244">
        <ele>166.03901672</ele>
        <time>2020-09-20T11:04:21Z</time>
      </trkpt>
      <trkpt lat="48.75841" lon="7.40233">
        <ele>166.03901672</ele>
        <time>2020-09-20T11:04:22Z</time>
      </trkpt>
      <trkpt lat="48.75836" lon="7.40219">
        <ele>166.03901672</ele>
        <time>2020-09-20T11:04:24Z</time>
      </trkpt>
      <trkpt lat="48.7583" lon="7.40206">
        <ele>167.24435425</ele>
        <time>2020-09-20T11:04:26Z</time>
      </trkpt>
      <trkpt lat="48.75826" lon="7.40192">
        <ele>167.24435425</ele>
        <time>2020-09-20T11:04:28Z</time>
      </trkpt>
      <trkpt lat="48.75821" lon="7.40176">
        <ele>167.24435425</ele>
        <time>2020-09-20T11:04:30Z</time>
      </trkpt>
      <trkpt lat="48.75817" lon="7.40159">
        <ele>167.24435425</ele>
        <time>2020-09-20T11:04:32Z</time>
      </trkpt>
      <trkpt lat="48.75812" lon="7.40144">
        <ele>167.24435425</ele>
        <time>2020-09-20T11:04:34Z</time>
      </trkpt>
      <trkpt lat="48.75808" lon="7.40129">
        <ele>167.24435425</ele>
        <time>2020-09-20T11:04:36Z</time>
      </trkpt>
      <trkpt lat="48.75804" lon="7.40114">
        <ele>167.24435425</ele>
        <time>2020-09-20T11:04:38Z</time>
      </trkpt>
      <trkpt lat="48.75799" lon="7.40098">
        <ele>167.24435425</ele>
        <time>2020-09-20T11:04:40Z</time>
      </trkpt>
      <trkpt lat="48.75792" lon="7.40083">
        <ele>168.14378357</ele>
        <time>2020-09-20T11:04:42Z</time>
      </trkpt>
      <trkpt lat="48.75784" lon="7.40066">
        <ele>168.14378357</ele>
        <time>2020-09-20T11:04:44Z</time>
      </trkpt>
      <trkpt lat="48.75779" lon="7.40048">
        <ele>168.14378357</ele>
        <time>2020-09-20T11:04:46Z</time>
      </trkpt>
      <trkpt lat="48.75775" lon="7.40032">
        <ele>168.14378357</ele>
        <time>2020-09-20T11:04:48Z</time>
      </trkpt>
      <trkpt lat="48.75771" lon="7.40016">
        <ele>168.14378357</ele>
        <time>2020-09-20T11:04:50Z</time>
      </trkpt>
      <trkpt lat="48.75768" lon="7.39999">
        <ele>168.14378357</ele>
        <time>2020-09-20T11:04:52Z</time>
      </trkpt>
      <trkpt lat="48.75763" lon="7.39983">
        <ele>168.14378357</ele>
        <time>2020-09-20T11:04:54Z</time>
      </trkpt>
      <trkpt lat="48.75757" lon="7.39966">
        <ele>168.14378357</ele>
        <time>2020-09-20T11:04:56Z</time>
      </trkpt>
      <trkpt lat="48.75752" lon="7.3995">
        <ele>168.14378357</ele>
        <time>2020-09-20T11:04:58Z</time>
      </trkpt>
      <trkpt lat="48.75749" lon="7.39935">
        <ele>168.14378357</ele>
        <time>2020-09-20T11:05:01Z</time>
      </trkpt>
      <trkpt lat="48.75745" lon="7.39921">
        <ele>168.14378357</ele>
        <time>2020-09-20T11:05:02Z</time>
      </trkpt>
      <trkpt lat="48.75741" lon="7.39905">
        <ele>168.14378357</ele>
        <time>2020-09-20T11:05:04Z</time>
      </trkpt>
      <trkpt lat="48.75737" lon="7.3989">
        <ele>168.14378357</ele>
        <time>2020-09-20T11:05:06Z</time>
      </trkpt>
      <trkpt lat="48.75732" lon="7.39875">
        <ele>168.14378357</ele>
        <time>2020-09-20T11:05:08Z</time>
      </trkpt>
      <trkpt lat="48.75726" lon="7.39861">
        <ele>168.14378357</ele>
        <time>2020-09-20T11:05:10Z</time>
      </trkpt>
      <trkpt lat="48.75722" lon="7.39848">
        <ele>168.14378357</ele>
        <time>2020-09-20T11:05:12Z</time>
      </trkpt>
      <trkpt lat="48.7572" lon="7.39834">
        <ele>168.89109802</ele>
        <time>2020-09-20T11:05:16Z</time>
      </trkpt>
      <trkpt lat="48.75716" lon="7.39809">
        <ele>171.07965088</ele>
        <time>2020-09-20T11:05:21Z</time>
      </trkpt>
      <trkpt lat="48.75712" lon="7.39798">
        <ele>171.07965088</ele>
        <time>2020-09-20T11:05:22Z</time>
      </trkpt>
      <trkpt lat="48.75708" lon="7.39785">
        <ele>171.07965088</ele>
        <time>2020-09-20T11:05:24Z</time>
      </trkpt>
      <trkpt lat="48.75704" lon="7.39772">
        <ele>171.07965088</ele>
        <time>2020-09-20T11:05:26Z</time>
      </trkpt>
      <trkpt lat="48.757" lon="7.39758">
        <ele>171.07965088</ele>
        <time>2020-09-20T11:05:28Z</time>
      </trkpt>
      <trkpt lat="48.75696" lon="7.39743">
        <ele>171.07965088</ele>
        <time>2020-09-20T11:05:31Z</time>
      </trkpt>
      <trkpt lat="48.75691" lon="7.39726">
        <ele>171.07965088</ele>
        <time>2020-09-20T11:05:32Z</time>
      </trkpt>
      <trkpt lat="48.75685" lon="7.39707">
        <ele>171.07965088</ele>
        <time>2020-09-20T11:05:34Z</time>
      </trkpt>
      <trkpt lat="48.75679" lon="7.39688">
        <ele>171.07965088</ele>
        <time>2020-09-20T11:05:36Z</time>
      </trkpt>
      <trkpt lat="48.75674" lon="7.3967">
        <ele>171.07965088</ele>
        <time>2020-09-20T11:05:38Z</time>
      </trkpt>
      <trkpt lat="48.75669" lon="7.39652">
        <ele>171.07965088</ele>
        <time>2020-09-20T11:05:40Z</time>
      </trkpt>
      <trkpt lat="48.75663" lon="7.39632">
        <ele>171.07965088</ele>
        <time>2020-09-20T11:05:42Z</time>
      </trkpt>
      <trkpt lat="48.75656" lon="7.39609">
        <ele>171.07965088</ele>
        <time>2020-09-20T11:05:43Z</time>
      </trkpt>
      <trkpt lat="48.75652" lon="7.39596">
        <ele>171.07965088</ele>
        <time>2020-09-20T11:05:47Z</time>
      </trkpt>
      <trkpt lat="48.75645" lon="7.39576">
        <ele>171.07965088</ele>
        <time>2020-09-20T11:05:49Z</time>
      </trkpt>
      <trkpt lat="48.75641" lon="7.39558">
        <ele>171.07965088</ele>
        <time>2020-09-20T11:05:50Z</time>
      </trkpt>
      <trkpt lat="48.75635" lon="7.39541">
        <ele>171.07965088</ele>
        <time>2020-09-20T11:05:53Z</time>
      </trkpt>
      <trkpt lat="48.75629" lon="7.39523">
        <ele>171.07965088</ele>
        <time>2020-09-20T11:05:54Z</time>
      </trkpt>
      <trkpt lat="48.75623" lon="7.39505">
        <ele>171.07965088</ele>
        <time>2020-09-20T11:05:56Z</time>
      </trkpt>
      <trkpt lat="48.75619" lon="7.39486">
        <ele>171.07965088</ele>
        <time>2020-09-20T11:05:58Z</time>
      </trkpt>
      <trkpt lat="48.75613" lon="7.39469">
        <ele>171.07965088</ele>
        <time>2020-09-20T11:06:00Z</time>
      </trkpt>
      <trkpt lat="48.75608" lon="7.39453">
        <ele>171.07965088</ele>
        <time>2020-09-20T11:06:02Z</time>
      </trkpt>
      <trkpt lat="48.75601" lon="7.39435">
        <ele>171.07965088</ele>
        <time>2020-09-20T11:06:04Z</time>
      </trkpt>
      <trkpt lat="48.75596" lon="7.39416">
        <ele>171.07965088</ele>
        <time>2020-09-20T11:06:06Z</time>
      </trkpt>
      <trkpt lat="48.75589" lon="7.39399">
        <ele>171.07965088</ele>
        <time>2020-09-20T11:06:08Z</time>
      </trkpt>
      <trkpt lat="48.75585" lon="7.39381">
        <ele>171.07965088</ele>
        <time>2020-09-20T11:06:10Z</time>
      </trkpt>
      <trkpt lat="48.75581" lon="7.39363">
        <ele>171.07965088</ele>
        <time>2020-09-20T11:06:12Z</time>
      </trkpt>
      <trkpt lat="48.75577" lon="7.39345">
        <ele>171.07965088</ele>
        <time>2020-09-20T11:06:14Z</time>
      </trkpt>
      <trkpt lat="48.75572" lon="7.39329">
        <ele>171.07965088</ele>
        <time>2020-09-20T11:06:17Z</time>
      </trkpt>
      <trkpt lat="48.75567" lon="7.39314">
        <ele>171.07965088</ele>
        <time>2020-09-20T11:06:18Z</time>
      </trkpt>
      <trkpt lat="48.75559" lon="7.3929">
        <ele>170.81884766</ele>
        <time>2020-09-20T11:06:21Z</time>
      </trkpt>
      <trkpt lat="48.75555" lon="7.39277">
        <ele>170.81884766</ele>
        <time>2020-09-20T11:06:22Z</time>
      </trkpt>
      <trkpt lat="48.75549" lon="7.39259">
        <ele>170.81884766</ele>
        <time>2020-09-20T11:06:24Z</time>
      </trkpt>
      <trkpt lat="48.75543" lon="7.39238">
        <ele>170.81884766</ele>
        <time>2020-09-20T11:06:26Z</time>
      </trkpt>
      <trkpt lat="48.75537" lon="7.39219">
        <ele>170.81884766</ele>
        <time>2020-09-20T11:06:28Z</time>
      </trkpt>
      <trkpt lat="48.7553" lon="7.39201">
        <ele>170.81884766</ele>
        <time>2020-09-20T11:06:30Z</time>
      </trkpt>
      <trkpt lat="48.75523" lon="7.39183">
        <ele>170.81884766</ele>
        <time>2020-09-20T11:06:32Z</time>
      </trkpt>
      <trkpt lat="48.75517" lon="7.39165">
        <ele>170.81884766</ele>
        <time>2020-09-20T11:06:34Z</time>
      </trkpt>
      <trkpt lat="48.7551" lon="7.39146">
        <ele>170.81884766</ele>
        <time>2020-09-20T11:06:36Z</time>
      </trkpt>
      <trkpt lat="48.75504" lon="7.39126">
        <ele>170.81884766</ele>
        <time>2020-09-20T11:06:39Z</time>
      </trkpt>
      <trkpt lat="48.755" lon="7.39108">
        <ele>170.81884766</ele>
        <time>2020-09-20T11:06:40Z</time>
      </trkpt>
      <trkpt lat="48.75496" lon="7.39091">
        <ele>170.81884766</ele>
        <time>2020-09-20T11:06:43Z</time>
      </trkpt>
      <trkpt lat="48.7549" lon="7.39074">
        <ele>170.81884766</ele>
        <time>2020-09-20T11:06:44Z</time>
      </trkpt>
      <trkpt lat="48.75483" lon="7.39058">
        <ele>170.81884766</ele>
        <time>2020-09-20T11:06:46Z</time>
      </trkpt>
      <trkpt lat="48.75478" lon="7.39045">
        <ele>170.81884766</ele>
        <time>2020-09-20T11:06:48Z</time>
      </trkpt>
      <trkpt lat="48.75474" lon="7.39029">
        <ele>170.81884766</ele>
        <time>2020-09-20T11:06:50Z</time>
      </trkpt>
      <trkpt lat="48.7547" lon="7.39011">
        <ele>170.81884766</ele>
        <time>2020-09-20T11:06:52Z</time>
      </trkpt>
      <trkpt lat="48.75467" lon="7.38995">
        <ele>170.81884766</ele>
        <time>2020-09-20T11:06:54Z</time>
      </trkpt>
      <trkpt lat="48.7546" lon="7.38978">
        <ele>170.81884766</ele>
        <time>2020-09-20T11:06:56Z</time>
      </trkpt>
      <trkpt lat="48.75454" lon="7.38962">
        <ele>170.81884766</ele>
        <time>2020-09-20T11:06:58Z</time>
      </trkpt>
      <trkpt lat="48.75448" lon="7.38947">
        <ele>170.81884766</ele>
        <time>2020-09-20T11:07:00Z</time>
      </trkpt>
      <trkpt lat="48.75442" lon="7.38933">
        <ele>170.81884766</ele>
        <time>2020-09-20T11:07:02Z</time>
      </trkpt>
      <trkpt lat="48.75435" lon="7.38917">
        <ele>170.81884766</ele>
        <time>2020-09-20T11:07:04Z</time>
      </trkpt>
      <trkpt lat="48.7543" lon="7.38902">
        <ele>170.81884766</ele>
        <time>2020-09-20T11:07:06Z</time>
      </trkpt>
      <trkpt lat="48.75425" lon="7.38888">
        <ele>170.81884766</ele>
        <time>2020-09-20T11:07:08Z</time>
      </trkpt>
      <trkpt lat="48.75417" lon="7.38872">
        <ele>170.81884766</ele>
        <time>2020-09-20T11:07:10Z</time>
      </trkpt>
      <trkpt lat="48.75412" lon="7.38857">
        <ele>170.81884766</ele>
        <time>2020-09-20T11:07:12Z</time>
      </trkpt>
      <trkpt lat="48.75406" lon="7.38842">
        <ele>170.81884766</ele>
        <time>2020-09-20T11:07:14Z</time>
      </trkpt>
      <trkpt lat="48.75399" lon="7.3883">
        <ele>170.81884766</ele>
        <time>2020-09-20T11:07:16Z</time>
      </trkpt>
      <trkpt lat="48.75391" lon="7.38817">
        <ele>170.81884766</ele>
        <time>2020-09-20T11:07:18Z</time>
      </trkpt>
      <trkpt lat="48.75383" lon="7.388">
        <ele>171.12965393</ele>
        <time>2020-09-20T11:07:21Z</time>
      </trkpt>
      <trkpt lat="48.75378" lon="7.38791">
        <ele>171.12965393</ele>
        <time>2020-09-20T11:07:22Z</time>
      </trkpt>
      <trkpt lat="48.7537" lon="7.38778">
        <ele>171.12965393</ele>
        <time>2020-09-20T11:07:24Z</time>
      </trkpt>
      <trkpt lat="48.75362" lon="7.38764">
        <ele>171.12965393</ele>
        <time>2020-09-20T11:07:26Z</time>
      </trkpt>
      <trkpt lat="48.75354" lon="7.38749">
        <ele>171.12965393</ele>
        <time>2020-09-20T11:07:28Z</time>
      </trkpt>
      <trkpt lat="48.75346" lon="7.38736">
        <ele>171.12965393</ele>
        <time>2020-09-20T11:07:30Z</time>
      </trkpt>
      <trkpt lat="48.75337" lon="7.38725">
        <ele>171.12965393</ele>
        <time>2020-09-20T11:07:32Z</time>
      </trkpt>
      <trkpt lat="48.75327" lon="7.38714">
        <ele>171.12965393</ele>
        <time>2020-09-20T11:07:34Z</time>
      </trkpt>
      <trkpt lat="48.75315" lon="7.387">
        <ele>171.12965393</ele>
        <time>2020-09-20T11:07:36Z</time>
      </trkpt>
      <trkpt lat="48.75303" lon="7.38687">
        <ele>171.12965393</ele>
        <time>2020-09-20T11:07:38Z</time>
      </trkpt>
      <trkpt lat="48.75292" lon="7.38675">
        <ele>171.12965393</ele>
        <time>2020-09-20T11:07:40Z</time>
      </trkpt>
      <trkpt lat="48.75282" lon="7.38663">
        <ele>171.12965393</ele>
        <time>2020-09-20T11:07:42Z</time>
      </trkpt>
      <trkpt lat="48.75272" lon="7.38652">
        <ele>171.12965393</ele>
        <time>2020-09-20T11:07:44Z</time>
      </trkpt>
      <trkpt lat="48.75262" lon="7.38642">
        <ele>171.12965393</ele>
        <time>2020-09-20T11:07:46Z</time>
      </trkpt>
      <trkpt lat="48.75251" lon="7.38632">
        <ele>171.12965393</ele>
        <time>2020-09-20T11:07:48Z</time>
      </trkpt>
      <trkpt lat="48.7524" lon="7.38622">
        <ele>171.12965393</ele>
        <time>2020-09-20T11:07:51Z</time>
      </trkpt>
      <trkpt lat="48.75229" lon="7.38612">
        <ele>171.12965393</ele>
        <time>2020-09-20T11:07:52Z</time>
      </trkpt>
      <trkpt lat="48.75219" lon="7.38602">
        <ele>171.12965393</ele>
        <time>2020-09-20T11:07:54Z</time>
      </trkpt>
      <trkpt lat="48.75209" lon="7.38591">
        <ele>171.12965393</ele>
        <time>2020-09-20T11:07:56Z</time>
      </trkpt>
      <trkpt lat="48.752" lon="7.3858">
        <ele>171.12965393</ele>
        <time>2020-09-20T11:07:58Z</time>
      </trkpt>
      <trkpt lat="48.75188" lon="7.38569">
        <ele>171.12965393</ele>
        <time>2020-09-20T11:08:00Z</time>
      </trkpt>
      <trkpt lat="48.75176" lon="7.38559">
        <ele>171.12965393</ele>
        <time>2020-09-20T11:08:02Z</time>
      </trkpt>
      <trkpt lat="48.75165" lon="7.38552">
        <ele>171.12965393</ele>
        <time>2020-09-20T11:08:04Z</time>
      </trkpt>
      <trkpt lat="48.75155" lon="7.38545">
        <ele>171.12965393</ele>
        <time>2020-09-20T11:08:06Z</time>
      </trkpt>
      <trkpt lat="48.75145" lon="7.38537">
        <ele>171.12965393</ele>
        <time>2020-09-20T11:08:08Z</time>
      </trkpt>
      <trkpt lat="48.75136" lon="7.38529">
        <ele>171.38664246</ele>
        <time>2020-09-20T11:08:11Z</time>
      </trkpt>
      <trkpt lat="48.75129" lon="7.38522">
        <ele>174.50788879</ele>
        <time>2020-09-20T11:08:19Z</time>
      </trkpt>
      <trkpt lat="48.75118" lon="7.38507">
        <ele>175.16218567</ele>
        <time>2020-09-20T11:08:22Z</time>
      </trkpt>
      <trkpt lat="48.75109" lon="7.38492">
        <ele>175.16218567</ele>
        <time>2020-09-20T11:08:25Z</time>
      </trkpt>
      <trkpt lat="48.751" lon="7.3848">
        <ele>175.16218567</ele>
        <time>2020-09-20T11:08:26Z</time>
      </trkpt>
      <trkpt lat="48.7509" lon="7.38472">
        <ele>174.15849304</ele>
        <time>2020-09-20T11:08:28Z</time>
      </trkpt>
      <trkpt lat="48.75081" lon="7.38465">
        <ele>174.15849304</ele>
        <time>2020-09-20T11:08:30Z</time>
      </trkpt>
      <trkpt lat="48.75071" lon="7.38456">
        <ele>174.15849304</ele>
        <time>2020-09-20T11:08:32Z</time>
      </trkpt>
      <trkpt lat="48.7506" lon="7.38445">
        <ele>174.15849304</ele>
        <time>2020-09-20T11:08:34Z</time>
      </trkpt>
      <trkpt lat="48.75047" lon="7.38434">
        <ele>174.15849304</ele>
        <time>2020-09-20T11:08:36Z</time>
      </trkpt>
      <trkpt lat="48.75036" lon="7.38424">
        <ele>174.15849304</ele>
        <time>2020-09-20T11:08:38Z</time>
      </trkpt>
      <trkpt lat="48.75026" lon="7.38415">
        <ele>174.15849304</ele>
        <time>2020-09-20T11:08:40Z</time>
      </trkpt>
      <trkpt lat="48.75015" lon="7.38404">
        <ele>174.15849304</ele>
        <time>2020-09-20T11:08:43Z</time>
      </trkpt>
      <trkpt lat="48.75006" lon="7.38394">
        <ele>174.15849304</ele>
        <time>2020-09-20T11:08:45Z</time>
      </trkpt>
      <trkpt lat="48.74996" lon="7.38384">
        <ele>174.15849304</ele>
        <time>2020-09-20T11:08:46Z</time>
      </trkpt>
      <trkpt lat="48.74986" lon="7.38373">
        <ele>174.15849304</ele>
        <time>2020-09-20T11:08:48Z</time>
      </trkpt>
      <trkpt lat="48.74977" lon="7.38361">
        <ele>174.15849304</ele>
        <time>2020-09-20T11:08:50Z</time>
      </trkpt>
      <trkpt lat="48.74966" lon="7.38349">
        <ele>174.15849304</ele>
        <time>2020-09-20T11:08:52Z</time>
      </trkpt>
      <trkpt lat="48.74957" lon="7.38337">
        <ele>174.15849304</ele>
        <time>2020-09-20T11:08:54Z</time>
      </trkpt>
      <trkpt lat="48.74947" lon="7.38325">
        <ele>174.15849304</ele>
        <time>2020-09-20T11:08:57Z</time>
      </trkpt>
      <trkpt lat="48.74938" lon="7.38313">
        <ele>174.15849304</ele>
        <time>2020-09-20T11:08:58Z</time>
      </trkpt>
      <trkpt lat="48.74928" lon="7.38302">
        <ele>174.15849304</ele>
        <time>2020-09-20T11:09:00Z</time>
      </trkpt>
      <trkpt lat="48.74919" lon="7.38289">
        <ele>174.15849304</ele>
        <time>2020-09-20T11:09:02Z</time>
      </trkpt>
      <trkpt lat="48.74909" lon="7.38275">
        <ele>174.15849304</ele>
        <time>2020-09-20T11:09:04Z</time>
      </trkpt>
      <trkpt lat="48.749" lon="7.38262">
        <ele>174.15849304</ele>
        <time>2020-09-20T11:09:06Z</time>
      </trkpt>
      <trkpt lat="48.74892" lon="7.38249">
        <ele>174.15849304</ele>
        <time>2020-09-20T11:09:08Z</time>
      </trkpt>
      <trkpt lat="48.74883" lon="7.38236">
        <ele>174.15849304</ele>
        <time>2020-09-20T11:09:10Z</time>
      </trkpt>
      <trkpt lat="48.74874" lon="7.38223">
        <ele>174.15849304</ele>
        <time>2020-09-20T11:09:12Z</time>
      </trkpt>
      <trkpt lat="48.74867" lon="7.3821">
        <ele>174.15849304</ele>
        <time>2020-09-20T11:09:14Z</time>
      </trkpt>
      <trkpt lat="48.74859" lon="7.38199">
        <ele>174.15849304</ele>
        <time>2020-09-20T11:09:16Z</time>
      </trkpt>
      <trkpt lat="48.74852" lon="7.38187">
        <ele>174.15849304</ele>
        <time>2020-09-20T11:09:19Z</time>
      </trkpt>
      <trkpt lat="48.7484" lon="7.38171">
        <ele>173.50109863</ele>
        <time>2020-09-20T11:09:21Z</time>
      </trkpt>
      <trkpt lat="48.74834" lon="7.38161">
        <ele>173.50109863</ele>
        <time>2020-09-20T11:09:23Z</time>
      </trkpt>
      <trkpt lat="48.74825" lon="7.38146">
        <ele>173.50109863</ele>
        <time>2020-09-20T11:09:24Z</time>
      </trkpt>
      <trkpt lat="48.74816" lon="7.3813">
        <ele>173.50109863</ele>
        <time>2020-09-20T11:09:26Z</time>
      </trkpt>
      <trkpt lat="48.74807" lon="7.38116">
        <ele>173.50109863</ele>
        <time>2020-09-20T11:09:28Z</time>
      </trkpt>
      <trkpt lat="48.74799" lon="7.38103">
        <ele>173.50109863</ele>
        <time>2020-09-20T11:09:30Z</time>
      </trkpt>
      <trkpt lat="48.74791" lon="7.3809">
        <ele>173.50109863</ele>
        <time>2020-09-20T11:09:32Z</time>
      </trkpt>
      <trkpt lat="48.74783" lon="7.38076">
        <ele>173.50109863</ele>
        <time>2020-09-20T11:09:34Z</time>
      </trkpt>
      <trkpt lat="48.74775" lon="7.38063">
        <ele>173.50109863</ele>
        <time>2020-09-20T11:09:37Z</time>
      </trkpt>
      <trkpt lat="48.74767" lon="7.3805">
        <ele>173.50109863</ele>
        <time>2020-09-20T11:09:38Z</time>
      </trkpt>
      <trkpt lat="48.74759" lon="7.38036">
        <ele>173.50109863</ele>
        <time>2020-09-20T11:09:40Z</time>
      </trkpt>
      <trkpt lat="48.7475" lon="7.38021">
        <ele>173.50109863</ele>
        <time>2020-09-20T11:09:42Z</time>
      </trkpt>
      <trkpt lat="48.74742" lon="7.38006">
        <ele>173.50109863</ele>
        <time>2020-09-20T11:09:44Z</time>
      </trkpt>
      <trkpt lat="48.74733" lon="7.37993">
        <ele>173.50109863</ele>
        <time>2020-09-20T11:09:47Z</time>
      </trkpt>
      <trkpt lat="48.74725" lon="7.37979">
        <ele>173.50109863</ele>
        <time>2020-09-20T11:09:48Z</time>
      </trkpt>
      <trkpt lat="48.74717" lon="7.37963">
        <ele>173.50109863</ele>
        <time>2020-09-20T11:09:51Z</time>
      </trkpt>
      <trkpt lat="48.74709" lon="7.37949">
        <ele>173.50109863</ele>
        <time>2020-09-20T11:09:52Z</time>
      </trkpt>
      <trkpt lat="48.74699" lon="7.37936">
        <ele>173.50109863</ele>
        <time>2020-09-20T11:09:54Z</time>
      </trkpt>
      <trkpt lat="48.74691" lon="7.37923">
        <ele>173.50109863</ele>
        <time>2020-09-20T11:09:56Z</time>
      </trkpt>
      <trkpt lat="48.74683" lon="7.37907">
        <ele>173.50109863</ele>
        <time>2020-09-20T11:09:58Z</time>
      </trkpt>
      <trkpt lat="48.74675" lon="7.37892">
        <ele>173.50109863</ele>
        <time>2020-09-20T11:10:00Z</time>
      </trkpt>
      <trkpt lat="48.74668" lon="7.37876">
        <ele>173.50109863</ele>
        <time>2020-09-20T11:10:02Z</time>
      </trkpt>
      <trkpt lat="48.7466" lon="7.37861">
        <ele>173.50109863</ele>
        <time>2020-09-20T11:10:04Z</time>
      </trkpt>
      <trkpt lat="48.74653" lon="7.37845">
        <ele>173.50109863</ele>
        <time>2020-09-20T11:10:06Z</time>
      </trkpt>
      <trkpt lat="48.74646" lon="7.37829">
        <ele>173.50109863</ele>
        <time>2020-09-20T11:10:08Z</time>
      </trkpt>
      <trkpt lat="48.74638" lon="7.37814">
        <ele>173.50109863</ele>
        <time>2020-09-20T11:10:10Z</time>
      </trkpt>
      <trkpt lat="48.7463" lon="7.37799">
        <ele>173.50109863</ele>
        <time>2020-09-20T11:10:12Z</time>
      </trkpt>
      <trkpt lat="48.74622" lon="7.37783">
        <ele>173.50109863</ele>
        <time>2020-09-20T11:10:14Z</time>
      </trkpt>
      <trkpt lat="48.74613" lon="7.37768">
        <ele>173.50109863</ele>
        <time>2020-09-20T11:10:16Z</time>
      </trkpt>
      <trkpt lat="48.74604" lon="7.37755">
        <ele>173.50109863</ele>
        <time>2020-09-20T11:10:18Z</time>
      </trkpt>
      <trkpt lat="48.74596" lon="7.37738">
        <ele>173.77352905</ele>
        <time>2020-09-20T11:10:21Z</time>
      </trkpt>
      <trkpt lat="48.74591" lon="7.37729">
        <ele>173.77352905</ele>
        <time>2020-09-20T11:10:22Z</time>
      </trkpt>
      <trkpt lat="48.74583" lon="7.37713">
        <ele>173.77352905</ele>
        <time>2020-09-20T11:10:25Z</time>
      </trkpt>
      <trkpt lat="48.74577" lon="7.37697">
        <ele>173.77352905</ele>
        <time>2020-09-20T11:10:26Z</time>
      </trkpt>
      <trkpt lat="48.74569" lon="7.37683">
        <ele>174.21003723</ele>
        <time>2020-09-20T11:10:29Z</time>
      </trkpt>
      <trkpt lat="48.74562" lon="7.37671">
        <ele>174.21003723</ele>
        <time>2020-09-20T11:10:30Z</time>
      </trkpt>
      <trkpt lat="48.74557" lon="7.37659">
        <ele>174.21003723</ele>
        <time>2020-09-20T11:10:32Z</time>
      </trkpt>
      <trkpt lat="48.74555" lon="7.37644">
        <ele>175.6499939</ele>
        <time>2020-09-20T11:10:36Z</time>
      </trkpt>
      <trkpt lat="48.74549" lon="7.3763">
        <ele>175.6499939</ele>
        <time>2020-09-20T11:10:37Z</time>
      </trkpt>
      <trkpt lat="48.74543" lon="7.37618">
        <ele>175.6499939</ele>
        <time>2020-09-20T11:10:40Z</time>
      </trkpt>
      <trkpt lat="48.74535" lon="7.37602">
        <ele>175.6499939</ele>
        <time>2020-09-20T11:10:43Z</time>
      </trkpt>
      <trkpt lat="48.74527" lon="7.37591">
        <ele>175.6499939</ele>
        <time>2020-09-20T11:10:46Z</time>
      </trkpt>
      <trkpt lat="48.74519" lon="7.37579">
        <ele>175.6499939</ele>
        <time>2020-09-20T11:10:49Z</time>
      </trkpt>
      <trkpt lat="48.74507" lon="7.37566">
        <ele>175.6499939</ele>
        <time>2020-09-20T11:10:52Z</time>
      </trkpt>
      <trkpt lat="48.74499" lon="7.37554">
        <ele>175.6499939</ele>
        <time>2020-09-20T11:10:53Z</time>
      </trkpt>
      <trkpt lat="48.7449" lon="7.3754">
        <ele>175.6499939</ele>
        <time>2020-09-20T11:10:56Z</time>
      </trkpt>
      <trkpt lat="48.74484" lon="7.37526">
        <ele>175.6499939</ele>
        <time>2020-09-20T11:10:57Z</time>
      </trkpt>
      <trkpt lat="48.74477" lon="7.37512">
        <ele>175.6499939</ele>
        <time>2020-09-20T11:10:59Z</time>
      </trkpt>
      <trkpt lat="48.74471" lon="7.37498">
        <ele>175.6499939</ele>
        <time>2020-09-20T11:11:01Z</time>
      </trkpt>
      <trkpt lat="48.74464" lon="7.37487">
        <ele>175.6499939</ele>
        <time>2020-09-20T11:11:03Z</time>
      </trkpt>
      <trkpt lat="48.74456" lon="7.37473">
        <ele>175.6499939</ele>
        <time>2020-09-20T11:11:05Z</time>
      </trkpt>
      <trkpt lat="48.74447" lon="7.37458">
        <ele>175.6499939</ele>
        <time>2020-09-20T11:11:07Z</time>
      </trkpt>
      <trkpt lat="48.74439" lon="7.37443">
        <ele>175.6499939</ele>
        <time>2020-09-20T11:11:09Z</time>
      </trkpt>
      <trkpt lat="48.74431" lon="7.37428">
        <ele>175.6499939</ele>
        <time>2020-09-20T11:11:11Z</time>
      </trkpt>
      <trkpt lat="48.74423" lon="7.37415">
        <ele>175.6499939</ele>
        <time>2020-09-20T11:11:13Z</time>
      </trkpt>
      <trkpt lat="48.74416" lon="7.37403">
        <ele>175.6499939</ele>
        <time>2020-09-20T11:11:16Z</time>
      </trkpt>
      <trkpt lat="48.74409" lon="7.3739">
        <ele>175.6499939</ele>
        <time>2020-09-20T11:11:17Z</time>
      </trkpt>
      <trkpt lat="48.74402" lon="7.37378">
        <ele>175.6499939</ele>
        <time>2020-09-20T11:11:19Z</time>
      </trkpt>
      <trkpt lat="48.74389" lon="7.37353">
        <ele>176.45501709</ele>
        <time>2020-09-20T11:11:22Z</time>
      </trkpt>
      <trkpt lat="48.74384" lon="7.37339">
        <ele>176.45501709</ele>
        <time>2020-09-20T11:11:24Z</time>
      </trkpt>
      <trkpt lat="48.74378" lon="7.37327">
        <ele>176.45501709</ele>
        <time>2020-09-20T11:11:26Z</time>
      </trkpt>
      <trkpt lat="48.74371" lon="7.37315">
        <ele>176.45501709</ele>
        <time>2020-09-20T11:11:29Z</time>
      </trkpt>
      <trkpt lat="48.74364" lon="7.37302">
        <ele>176.45501709</ele>
        <time>2020-09-20T11:11:30Z</time>
      </trkpt>
      <trkpt lat="48.74357" lon="7.37289">
        <ele>176.45501709</ele>
        <time>2020-09-20T11:11:32Z</time>
      </trkpt>
      <trkpt lat="48.74348" lon="7.37275">
        <ele>176.45501709</ele>
        <time>2020-09-20T11:11:34Z</time>
      </trkpt>
      <trkpt lat="48.74339" lon="7.3726">
        <ele>176.45501709</ele>
        <time>2020-09-20T11:11:37Z</time>
      </trkpt>
      <trkpt lat="48.74329" lon="7.37244">
        <ele>176.45501709</ele>
        <time>2020-09-20T11:11:38Z</time>
      </trkpt>
      <trkpt lat="48.7432" lon="7.37227">
        <ele>176.45501709</ele>
        <time>2020-09-20T11:11:40Z</time>
      </trkpt>
      <trkpt lat="48.74313" lon="7.37212">
        <ele>176.45501709</ele>
        <time>2020-09-20T11:11:42Z</time>
      </trkpt>
      <trkpt lat="48.74305" lon="7.37198">
        <ele>176.45501709</ele>
        <time>2020-09-20T11:11:45Z</time>
      </trkpt>
      <trkpt lat="48.74296" lon="7.37183">
        <ele>176.45501709</ele>
        <time>2020-09-20T11:11:46Z</time>
      </trkpt>
      <trkpt lat="48.7429" lon="7.37168">
        <ele>176.45501709</ele>
        <time>2020-09-20T11:11:48Z</time>
      </trkpt>
      <trkpt lat="48.74281" lon="7.37155">
        <ele>176.45501709</ele>
        <time>2020-09-20T11:11:51Z</time>
      </trkpt>
      <trkpt lat="48.74271" lon="7.3714">
        <ele>176.45501709</ele>
        <time>2020-09-20T11:11:52Z</time>
      </trkpt>
      <trkpt lat="48.74264" lon="7.37124">
        <ele>176.45501709</ele>
        <time>2020-09-20T11:11:54Z</time>
      </trkpt>
      <trkpt lat="48.74257" lon="7.37108">
        <ele>176.45501709</ele>
        <time>2020-09-20T11:11:56Z</time>
      </trkpt>
      <trkpt lat="48.74252" lon="7.37093">
        <ele>176.45501709</ele>
        <time>2020-09-20T11:11:58Z</time>
      </trkpt>
      <trkpt lat="48.74246" lon="7.37079">
        <ele>176.45501709</ele>
        <time>2020-09-20T11:12:00Z</time>
      </trkpt>
      <trkpt lat="48.74239" lon="7.37066">
        <ele>176.45501709</ele>
        <time>2020-09-20T11:12:02Z</time>
      </trkpt>
      <trkpt lat="48.74231" lon="7.37052">
        <ele>176.45501709</ele>
        <time>2020-09-20T11:12:04Z</time>
      </trkpt>
      <trkpt lat="48.74224" lon="7.37039">
        <ele>176.45501709</ele>
        <time>2020-09-20T11:12:07Z</time>
      </trkpt>
      <trkpt lat="48.74216" lon="7.37026">
        <ele>176.45501709</ele>
        <time>2020-09-20T11:12:08Z</time>
      </trkpt>
      <trkpt lat="48.74209" lon="7.37012">
        <ele>176.45501709</ele>
        <time>2020-09-20T11:12:11Z</time>
      </trkpt>
      <trkpt lat="48.74202" lon="7.36997">
        <ele>176.45501709</ele>
        <time>2020-09-20T11:12:13Z</time>
      </trkpt>
      <trkpt lat="48.74193" lon="7.36983">
        <ele>176.45501709</ele>
        <time>2020-09-20T11:12:14Z</time>
      </trkpt>
      <trkpt lat="48.74186" lon="7.36969">
        <ele>176.45501709</ele>
        <time>2020-09-20T11:12:17Z</time>
      </trkpt>
      <trkpt lat="48.74179" lon="7.36955">
        <ele>176.45501709</ele>
        <time>2020-09-20T11:12:18Z</time>
      </trkpt>
      <trkpt lat="48.74169" lon="7.36933">
        <ele>175.70437622</ele>
        <time>2020-09-20T11:12:21Z</time>
      </trkpt>
      <trkpt lat="48.74163" lon="7.36922">
        <ele>175.70437622</ele>
        <time>2020-09-20T11:12:22Z</time>
      </trkpt>
      <trkpt lat="48.74157" lon="7.36905">
        <ele>175.70437622</ele>
        <time>2020-09-20T11:12:24Z</time>
      </trkpt>
      <trkpt lat="48.74151" lon="7.36888">
        <ele>175.70437622</ele>
        <time>2020-09-20T11:12:26Z</time>
      </trkpt>
      <trkpt lat="48.74144" lon="7.36874">
        <ele>175.70437622</ele>
        <time>2020-09-20T11:12:28Z</time>
      </trkpt>
      <trkpt lat="48.74136" lon="7.36865">
        <ele>175.70437622</ele>
        <time>2020-09-20T11:12:31Z</time>
      </trkpt>
      <trkpt lat="48.74128" lon="7.36862">
        <ele>176.29016113</ele>
        <time>2020-09-20T11:12:46Z</time>
      </trkpt>
      <trkpt lat="48.74119" lon="7.36846">
        <ele>176.29016113</ele>
        <time>2020-09-20T11:12:49Z</time>
      </trkpt>
      <trkpt lat="48.74112" lon="7.3683">
        <ele>176.29016113</ele>
        <time>2020-09-20T11:12:52Z</time>
      </trkpt>
      <trkpt lat="48.74106" lon="7.36816">
        <ele>176.29016113</ele>
        <time>2020-09-20T11:12:55Z</time>
      </trkpt>
      <trkpt lat="48.74101" lon="7.36802">
        <ele>176.29016113</ele>
        <time>2020-09-20T11:12:57Z</time>
      </trkpt>
      <trkpt lat="48.74106" lon="7.36787">
        <ele>176.29016113</ele>
        <time>2020-09-20T11:13:01Z</time>
      </trkpt>
      <trkpt lat="48.74114" lon="7.36772">
        <ele>176.29016113</ele>
        <time>2020-09-20T11:13:04Z</time>
      </trkpt>
      <trkpt lat="48.74117" lon="7.36755">
        <ele>176.29016113</ele>
        <time>2020-09-20T11:13:06Z</time>
      </trkpt>
      <trkpt lat="48.74123" lon="7.36744">
        <ele>176.29016113</ele>
        <time>2020-09-20T11:13:08Z</time>
      </trkpt>
      <trkpt lat="48.7413" lon="7.36734">
        <ele>176.29016113</ele>
        <time>2020-09-20T11:13:10Z</time>
      </trkpt>
      <trkpt lat="48.74138" lon="7.36722">
        <ele>176.29016113</ele>
        <time>2020-09-20T11:13:12Z</time>
      </trkpt>
      <trkpt lat="48.74142" lon="7.36709">
        <ele>176.29016113</ele>
        <time>2020-09-20T11:13:16Z</time>
      </trkpt>
      <trkpt lat="48.74146" lon="7.36696">
        <ele>176.29016113</ele>
        <time>2020-09-20T11:13:19Z</time>
      </trkpt>
      <trkpt lat="48.74157" lon="7.36689">
        <ele>177.39283752</ele>
        <time>2020-09-20T11:13:22Z</time>
      </trkpt>
      <trkpt lat="48.74164" lon="7.36685">
        <ele>177.39283752</ele>
        <time>2020-09-20T11:13:24Z</time>
      </trkpt>
      <trkpt lat="48.74174" lon="7.36677">
        <ele>177.39283752</ele>
        <time>2020-09-20T11:13:26Z</time>
      </trkpt>
      <trkpt lat="48.74183" lon="7.36669">
        <ele>177.39283752</ele>
        <time>2020-09-20T11:13:28Z</time>
      </trkpt>
      <trkpt lat="48.74191" lon="7.3666">
        <ele>177.39283752</ele>
        <time>2020-09-20T11:13:30Z</time>
      </trkpt>
      <trkpt lat="48.74199" lon="7.36648">
        <ele>177.39283752</ele>
        <time>2020-09-20T11:13:33Z</time>
      </trkpt>
      <trkpt lat="48.74208" lon="7.36638">
        <ele>177.39283752</ele>
        <time>2020-09-20T11:13:36Z</time>
      </trkpt>
      <trkpt lat="48.74217" lon="7.3663">
        <ele>177.39283752</ele>
        <time>2020-09-20T11:13:39Z</time>
      </trkpt>
      <trkpt lat="48.74226" lon="7.3662">
        <ele>177.39283752</ele>
        <time>2020-09-20T11:13:42Z</time>
      </trkpt>
      <trkpt lat="48.74237" lon="7.36608">
        <ele>177.86360168</ele>
        <time>2020-09-20T11:13:46Z</time>
      </trkpt>
      <trkpt lat="48.74247" lon="7.36597">
        <ele>177.86360168</ele>
        <time>2020-09-20T11:13:49Z</time>
      </trkpt>
      <trkpt lat="48.74254" lon="7.36582">
        <ele>177.86360168</ele>
        <time>2020-09-20T11:13:51Z</time>
      </trkpt>
      <trkpt lat="48.7425" lon="7.36568">
        <ele>177.86360168</ele>
        <time>2020-09-20T11:13:54Z</time>
      </trkpt>
      <trkpt lat="48.74244" lon="7.36557">
        <ele>177.86360168</ele>
        <time>2020-09-20T11:13:57Z</time>
      </trkpt>
      <trkpt lat="48.74237" lon="7.36545">
        <ele>177.86360168</ele>
        <time>2020-09-20T11:14:00Z</time>
      </trkpt>
      <trkpt lat="48.74231" lon="7.36534">
        <ele>177.29800415</ele>
        <time>2020-09-20T11:14:05Z</time>
      </trkpt>
      <trkpt lat="48.7423" lon="7.36522">
        <ele>177.29800415</ele>
        <time>2020-09-20T11:14:11Z</time>
      </trkpt>
      <trkpt lat="48.74238" lon="7.36513">
        <ele>177.29800415</ele>
        <time>2020-09-20T11:14:16Z</time>
      </trkpt>
      <trkpt lat="48.74245" lon="7.36507">
        <ele>178.46839905</ele>
        <time>2020-09-20T11:14:21Z</time>
      </trkpt>
      <trkpt lat="48.74251" lon="7.36496">
        <ele>178.46839905</ele>
        <time>2020-09-20T11:14:26Z</time>
      </trkpt>
      <trkpt lat="48.74248" lon="7.36487">
        <ele>178.46839905</ele>
        <time>2020-09-20T11:14:31Z</time>
      </trkpt>
      <trkpt lat="48.74241" lon="7.36474">
        <ele>178.46839905</ele>
        <time>2020-09-20T11:14:37Z</time>
      </trkpt>
      <trkpt lat="48.74233" lon="7.36462">
        <ele>178.46839905</ele>
        <time>2020-09-20T11:14:42Z</time>
      </trkpt>
      <trkpt lat="48.74224" lon="7.36449">
        <ele>178.46839905</ele>
        <time>2020-09-20T11:14:47Z</time>
      </trkpt>
      <trkpt lat="48.7422" lon="7.36436">
        <ele>178.72814941</ele>
        <time>2020-09-20T11:14:52Z</time>
      </trkpt>
      <trkpt lat="48.74214" lon="7.3642">
        <ele>178.72814941</ele>
        <time>2020-09-20T11:14:55Z</time>
      </trkpt>
      <trkpt lat="48.74211" lon="7.36408">
        <ele>178.72814941</ele>
        <time>2020-09-20T11:15:08Z</time>
      </trkpt>
      <trkpt lat="48.74213" lon="7.3617">
        <ele>184.32717896</ele>
        <time>2020-09-20T12:29:44Z</time>
      </trkpt>
      <trkpt lat="48.74216" lon="7.36179">
        <ele>184.32717896</ele>
        <time>2020-09-20T12:29:47Z</time>
      </trkpt>
      <trkpt lat="48.74225" lon="7.36191">
        <ele>184.56639099</ele>
        <time>2020-09-20T12:29:49Z</time>
      </trkpt>
      <trkpt lat="48.74237" lon="7.36204">
        <ele>182.662323</ele>
        <time>2020-09-20T12:29:51Z</time>
      </trkpt>
      <trkpt lat="48.74241" lon="7.36215">
        <ele>182.662323</ele>
        <time>2020-09-20T12:29:55Z</time>
      </trkpt>
      <trkpt lat="48.74249" lon="7.36232">
        <ele>181.86001587</ele>
        <time>2020-09-20T12:29:56Z</time>
      </trkpt>
      <trkpt lat="48.74257" lon="7.36247">
        <ele>181.86001587</ele>
        <time>2020-09-20T12:29:58Z</time>
      </trkpt>
      <trkpt lat="48.74262" lon="7.36262">
        <ele>180.6728363</ele>
        <time>2020-09-20T12:30:00Z</time>
      </trkpt>
      <trkpt lat="48.74269" lon="7.36277">
        <ele>179.54203796</ele>
        <time>2020-09-20T12:30:02Z</time>
      </trkpt>
      <trkpt lat="48.74273" lon="7.36293">
        <ele>179.54203796</ele>
        <time>2020-09-20T12:30:04Z</time>
      </trkpt>
      <trkpt lat="48.74274" lon="7.36308">
        <ele>179.54203796</ele>
        <time>2020-09-20T12:30:06Z</time>
      </trkpt>
      <trkpt lat="48.74281" lon="7.36321">
        <ele>179.54203796</ele>
        <time>2020-09-20T12:30:08Z</time>
      </trkpt>
      <trkpt lat="48.7429" lon="7.36333">
        <ele>179.54203796</ele>
        <time>2020-09-20T12:30:10Z</time>
      </trkpt>
      <trkpt lat="48.74297" lon="7.36348">
        <ele>179.54203796</ele>
        <time>2020-09-20T12:30:13Z</time>
      </trkpt>
      <trkpt lat="48.74303" lon="7.36363">
        <ele>179.54203796</ele>
        <time>2020-09-20T12:30:16Z</time>
      </trkpt>
      <trkpt lat="48.74309" lon="7.36381">
        <ele>179.54203796</ele>
        <time>2020-09-20T12:30:19Z</time>
      </trkpt>
      <trkpt lat="48.74316" lon="7.36397">
        <ele>178.63821411</ele>
        <time>2020-09-20T12:30:21Z</time>
      </trkpt>
      <trkpt lat="48.74325" lon="7.36412">
        <ele>178.63821411</ele>
        <time>2020-09-20T12:30:23Z</time>
      </trkpt>
      <trkpt lat="48.74333" lon="7.36426">
        <ele>178.63821411</ele>
        <time>2020-09-20T12:30:25Z</time>
      </trkpt>
      <trkpt lat="48.74344" lon="7.36439">
        <ele>178.63821411</ele>
        <time>2020-09-20T12:30:27Z</time>
      </trkpt>
      <trkpt lat="48.74355" lon="7.36448">
        <ele>178.63821411</ele>
        <time>2020-09-20T12:30:29Z</time>
      </trkpt>
      <trkpt lat="48.74361" lon="7.36459">
        <ele>178.63821411</ele>
        <time>2020-09-20T12:30:31Z</time>
      </trkpt>
      <trkpt lat="48.7436" lon="7.36472">
        <ele>178.54620361</ele>
        <time>2020-09-20T12:30:33Z</time>
      </trkpt>
      <trkpt lat="48.74354" lon="7.36484">
        <ele>178.54620361</ele>
        <time>2020-09-20T12:30:36Z</time>
      </trkpt>
      <trkpt lat="48.74342" lon="7.36494">
        <ele>178.54620361</ele>
        <time>2020-09-20T12:30:38Z</time>
      </trkpt>
      <trkpt lat="48.74334" lon="7.36503">
        <ele>178.54620361</ele>
        <time>2020-09-20T12:30:41Z</time>
      </trkpt>
      <trkpt lat="48.74323" lon="7.36515">
        <ele>178.54620361</ele>
        <time>2020-09-20T12:30:44Z</time>
      </trkpt>
      <trkpt lat="48.74313" lon="7.36526">
        <ele>178.54620361</ele>
        <time>2020-09-20T12:30:47Z</time>
      </trkpt>
      <trkpt lat="48.74306" lon="7.36537">
        <ele>178.54620361</ele>
        <time>2020-09-20T12:30:50Z</time>
      </trkpt>
      <trkpt lat="48.74301" lon="7.36543">
        <ele>179.53323364</ele>
        <time>2020-09-20T12:30:51Z</time>
      </trkpt>
      <trkpt lat="48.74295" lon="7.36549">
        <ele>179.53323364</ele>
        <time>2020-09-20T12:30:55Z</time>
      </trkpt>
      <trkpt lat="48.74284" lon="7.36562">
        <ele>179.53323364</ele>
        <time>2020-09-20T12:30:58Z</time>
      </trkpt>
      <trkpt lat="48.74275" lon="7.36573">
        <ele>179.53323364</ele>
        <time>2020-09-20T12:31:00Z</time>
      </trkpt>
      <trkpt lat="48.74266" lon="7.36582">
        <ele>179.53323364</ele>
        <time>2020-09-20T12:31:02Z</time>
      </trkpt>
      <trkpt lat="48.74257" lon="7.36589">
        <ele>179.53323364</ele>
        <time>2020-09-20T12:31:05Z</time>
      </trkpt>
      <trkpt lat="48.74249" lon="7.36598">
        <ele>179.53323364</ele>
        <time>2020-09-20T12:31:09Z</time>
      </trkpt>
      <trkpt lat="48.74239" lon="7.36601">
        <ele>179.53323364</ele>
        <time>2020-09-20T12:31:13Z</time>
      </trkpt>
      <trkpt lat="48.74229" lon="7.36605">
        <ele>179.53323364</ele>
        <time>2020-09-20T12:31:18Z</time>
      </trkpt>
      <trkpt lat="48.74221" lon="7.36619">
        <ele>179.53323364</ele>
        <time>2020-09-20T12:31:21Z</time>
      </trkpt>
      <trkpt lat="48.74213" lon="7.36629">
        <ele>179.53323364</ele>
        <time>2020-09-20T12:31:24Z</time>
      </trkpt>
      <trkpt lat="48.74204" lon="7.36637">
        <ele>179.99694824</ele>
        <time>2020-09-20T12:31:27Z</time>
      </trkpt>
      <trkpt lat="48.74195" lon="7.36649">
        <ele>179.99694824</ele>
        <time>2020-09-20T12:31:30Z</time>
      </trkpt>
      <trkpt lat="48.74186" lon="7.36661">
        <ele>179.99694824</ele>
        <time>2020-09-20T12:31:33Z</time>
      </trkpt>
      <trkpt lat="48.74178" lon="7.36673">
        <ele>179.99694824</ele>
        <time>2020-09-20T12:31:37Z</time>
      </trkpt>
      <trkpt lat="48.7417" lon="7.36684">
        <ele>179.99694824</ele>
        <time>2020-09-20T12:31:40Z</time>
      </trkpt>
      <trkpt lat="48.74163" lon="7.36698">
        <ele>181.53286743</ele>
        <time>2020-09-20T12:31:43Z</time>
      </trkpt>
      <trkpt lat="48.74156" lon="7.36706">
        <ele>181.53286743</ele>
        <time>2020-09-20T12:31:47Z</time>
      </trkpt>
      <trkpt lat="48.74144" lon="7.36716">
        <ele>181.82823181</ele>
        <time>2020-09-20T12:31:51Z</time>
      </trkpt>
      <trkpt lat="48.74137" lon="7.36722">
        <ele>181.82823181</ele>
        <time>2020-09-20T12:31:55Z</time>
      </trkpt>
      <trkpt lat="48.74128" lon="7.36735">
        <ele>181.82823181</ele>
        <time>2020-09-20T12:31:58Z</time>
      </trkpt>
      <trkpt lat="48.7412" lon="7.36746">
        <ele>181.52235413</ele>
        <time>2020-09-20T12:32:01Z</time>
      </trkpt>
      <trkpt lat="48.74112" lon="7.36755">
        <ele>181.52235413</ele>
        <time>2020-09-20T12:32:04Z</time>
      </trkpt>
      <trkpt lat="48.74105" lon="7.36764">
        <ele>181.52235413</ele>
        <time>2020-09-20T12:32:08Z</time>
      </trkpt>
      <trkpt lat="48.741" lon="7.36772">
        <ele>181.52235413</ele>
        <time>2020-09-20T12:32:16Z</time>
      </trkpt>
      <trkpt lat="48.74099" lon="7.36777">
        <ele>181.52235413</ele>
        <time>2020-09-20T12:32:23Z</time>
      </trkpt>
      <trkpt lat="48.74105" lon="7.36759">
        <ele>182.49862671</ele>
        <time>2020-09-20T12:44:54Z</time>
      </trkpt>
      <trkpt lat="48.74106" lon="7.36757">
        <ele>182.49862671</ele>
        <time>2020-09-20T12:44:59Z</time>
      </trkpt>
      <trkpt lat="48.74115" lon="7.36744">
        <ele>182.49862671</ele>
        <time>2020-09-20T12:45:02Z</time>
      </trkpt>
      <trkpt lat="48.74124" lon="7.36734">
        <ele>182.49862671</ele>
        <time>2020-09-20T12:45:04Z</time>
      </trkpt>
      <trkpt lat="48.74132" lon="7.36723">
        <ele>182.49862671</ele>
        <time>2020-09-20T12:45:07Z</time>
      </trkpt>
      <trkpt lat="48.74141" lon="7.36715">
        <ele>182.49862671</ele>
        <time>2020-09-20T12:45:10Z</time>
      </trkpt>
      <trkpt lat="48.7415" lon="7.36703">
        <ele>182.49862671</ele>
        <time>2020-09-20T12:45:13Z</time>
      </trkpt>
      <trkpt lat="48.7416" lon="7.36693">
        <ele>182.49862671</ele>
        <time>2020-09-20T12:45:15Z</time>
      </trkpt>
      <trkpt lat="48.74168" lon="7.36685">
        <ele>182.49862671</ele>
        <time>2020-09-20T12:45:17Z</time>
      </trkpt>
      <trkpt lat="48.74178" lon="7.36673">
        <ele>182.49862671</ele>
        <time>2020-09-20T12:45:19Z</time>
      </trkpt>
      <trkpt lat="48.74187" lon="7.36662">
        <ele>182.49862671</ele>
        <time>2020-09-20T12:45:21Z</time>
      </trkpt>
      <trkpt lat="48.74198" lon="7.3665">
        <ele>182.49862671</ele>
        <time>2020-09-20T12:45:23Z</time>
      </trkpt>
      <trkpt lat="48.74208" lon="7.3664">
        <ele>182.49862671</ele>
        <time>2020-09-20T12:45:25Z</time>
      </trkpt>
      <trkpt lat="48.74217" lon="7.36631">
        <ele>182.49862671</ele>
        <time>2020-09-20T12:45:27Z</time>
      </trkpt>
      <trkpt lat="48.74226" lon="7.36619">
        <ele>182.17451477</ele>
        <time>2020-09-20T12:45:30Z</time>
      </trkpt>
      <trkpt lat="48.74236" lon="7.36605">
        <ele>182.17451477</ele>
        <time>2020-09-20T12:45:32Z</time>
      </trkpt>
      <trkpt lat="48.74245" lon="7.36595">
        <ele>182.17451477</ele>
        <time>2020-09-20T12:45:34Z</time>
      </trkpt>
      <trkpt lat="48.74258" lon="7.36586">
        <ele>180.94989014</ele>
        <time>2020-09-20T12:45:36Z</time>
      </trkpt>
      <trkpt lat="48.74269" lon="7.36576">
        <ele>180.94989014</ele>
        <time>2020-09-20T12:45:38Z</time>
      </trkpt>
      <trkpt lat="48.74278" lon="7.36566">
        <ele>180.94989014</ele>
        <time>2020-09-20T12:45:40Z</time>
      </trkpt>
      <trkpt lat="48.74287" lon="7.36555">
        <ele>180.94989014</ele>
        <time>2020-09-20T12:45:42Z</time>
      </trkpt>
      <trkpt lat="48.74294" lon="7.36545">
        <ele>180.94989014</ele>
        <time>2020-09-20T12:45:44Z</time>
      </trkpt>
      <trkpt lat="48.74302" lon="7.36536">
        <ele>180.94989014</ele>
        <time>2020-09-20T12:45:46Z</time>
      </trkpt>
      <trkpt lat="48.7431" lon="7.36527">
        <ele>180.94989014</ele>
        <time>2020-09-20T12:45:48Z</time>
      </trkpt>
      <trkpt lat="48.74319" lon="7.36518">
        <ele>180.94989014</ele>
        <time>2020-09-20T12:45:50Z</time>
      </trkpt>
      <trkpt lat="48.74327" lon="7.36511">
        <ele>180.45957947</ele>
        <time>2020-09-20T12:45:51Z</time>
      </trkpt>
      <trkpt lat="48.74335" lon="7.36502">
        <ele>180.45957947</ele>
        <time>2020-09-20T12:45:53Z</time>
      </trkpt>
      <trkpt lat="48.74346" lon="7.36489">
        <ele>180.45957947</ele>
        <time>2020-09-20T12:45:55Z</time>
      </trkpt>
      <trkpt lat="48.74354" lon="7.36475">
        <ele>180.45957947</ele>
        <time>2020-09-20T12:45:57Z</time>
      </trkpt>
      <trkpt lat="48.74362" lon="7.36464">
        <ele>180.45957947</ele>
        <time>2020-09-20T12:45:59Z</time>
      </trkpt>
      <trkpt lat="48.74368" lon="7.36452">
        <ele>180.45957947</ele>
        <time>2020-09-20T12:46:01Z</time>
      </trkpt>
      <trkpt lat="48.74368" lon="7.36436">
        <ele>180.45957947</ele>
        <time>2020-09-20T12:46:04Z</time>
      </trkpt>
      <trkpt lat="48.74357" lon="7.36414">
        <ele>180.45957947</ele>
        <time>2020-09-20T12:46:06Z</time>
      </trkpt>
      <trkpt lat="48.74348" lon="7.36397">
        <ele>180.45957947</ele>
        <time>2020-09-20T12:46:08Z</time>
      </trkpt>
      <trkpt lat="48.74338" lon="7.3638">
        <ele>180.45957947</ele>
        <time>2020-09-20T12:46:10Z</time>
      </trkpt>
      <trkpt lat="48.74328" lon="7.36363">
        <ele>180.45957947</ele>
        <time>2020-09-20T12:46:12Z</time>
      </trkpt>
      <trkpt lat="48.7432" lon="7.36348">
        <ele>180.45957947</ele>
        <time>2020-09-20T12:46:14Z</time>
      </trkpt>
      <trkpt lat="48.74311" lon="7.36331">
        <ele>180.45957947</ele>
        <time>2020-09-20T12:46:16Z</time>
      </trkpt>
      <trkpt lat="48.74303" lon="7.36317">
        <ele>180.45957947</ele>
        <time>2020-09-20T12:46:18Z</time>
      </trkpt>
      <trkpt lat="48.74294" lon="7.36302">
        <ele>180.45957947</ele>
        <time>2020-09-20T12:46:20Z</time>
      </trkpt>
      <trkpt lat="48.74284" lon="7.36285">
        <ele>180.45957947</ele>
        <time>2020-09-20T12:46:22Z</time>
      </trkpt>
      <trkpt lat="48.74276" lon="7.36269">
        <ele>180.45957947</ele>
        <time>2020-09-20T12:46:24Z</time>
      </trkpt>
      <trkpt lat="48.74268" lon="7.36257">
        <ele>180.45957947</ele>
        <time>2020-09-20T12:46:26Z</time>
      </trkpt>
      <trkpt lat="48.74263" lon="7.36244">
        <ele>180.06381226</ele>
        <time>2020-09-20T12:46:28Z</time>
      </trkpt>
      <trkpt lat="48.74257" lon="7.36235">
        <ele>180.06381226</ele>
        <time>2020-09-20T12:46:30Z</time>
      </trkpt>
      <trkpt lat="48.74248" lon="7.36222">
        <ele>180.06381226</ele>
        <time>2020-09-20T12:46:32Z</time>
      </trkpt>
      <trkpt lat="48.74237" lon="7.36208">
        <ele>180.06381226</ele>
        <time>2020-09-20T12:46:34Z</time>
      </trkpt>
      <trkpt lat="48.74229" lon="7.36196">
        <ele>181.83406067</ele>
        <time>2020-09-20T12:46:36Z</time>
      </trkpt>
      <trkpt lat="48.7422" lon="7.36184">
        <ele>182.95527649</ele>
        <time>2020-09-20T12:46:38Z</time>
      </trkpt>
      <trkpt lat="48.74213" lon="7.36169">
        <ele>182.95527649</ele>
        <time>2020-09-20T12:46:40Z</time>
      </trkpt>
      <trkpt lat="48.74206" lon="7.36157">
        <ele>184.0814209</ele>
        <time>2020-09-20T12:46:42Z</time>
      </trkpt>
      <trkpt lat="48.742" lon="7.36145">
        <ele>184.0814209</ele>
        <time>2020-09-20T12:46:45Z</time>
      </trkpt>
      <trkpt lat="48.74196" lon="7.36135">
        <ele>186.10366821</ele>
        <time>2020-09-20T12:47:10Z</time>
      </trkpt>
      <trkpt lat="48.74195" lon="7.36129">
        <ele>186.10366821</ele>
        <time>2020-09-20T12:47:17Z</time>
      </trkpt>
      <trkpt lat="48.74193" lon="7.36115">
        <ele>186.10366821</ele>
        <time>2020-09-20T12:47:45Z</time>
      </trkpt>
      <trkpt lat="48.74181" lon="7.36097">
        <ele>187.04112244</ele>
        <time>2020-09-20T12:47:51Z</time>
      </trkpt>
      <trkpt lat="48.74177" lon="7.3609">
        <ele>187.04112244</ele>
        <time>2020-09-20T12:47:56Z</time>
      </trkpt>
      <trkpt lat="48.74172" lon="7.36079">
        <ele>187.04112244</ele>
        <time>2020-09-20T12:48:04Z</time>
      </trkpt>
      <trkpt lat="48.74165" lon="7.36066">
        <ele>187.04112244</ele>
        <time>2020-09-20T12:48:11Z</time>
      </trkpt>
      <trkpt lat="48.74158" lon="7.36058">
        <ele>187.04112244</ele>
        <time>2020-09-20T12:48:17Z</time>
      </trkpt>
      <trkpt lat="48.74149" lon="7.3605">
        <ele>187.04112244</ele>
        <time>2020-09-20T12:48:45Z</time>
      </trkpt>
      <trkpt lat="48.74147" lon="7.36036">
        <ele>186.99876404</ele>
        <time>2020-09-20T12:48:51Z</time>
      </trkpt>
      <trkpt lat="48.74144" lon="7.36021">
        <ele>186.99876404</ele>
        <time>2020-09-20T12:49:28Z</time>
      </trkpt>
      <trkpt lat="48.74139" lon="7.36012">
        <ele>186.99876404</ele>
        <time>2020-09-20T12:49:32Z</time>
      </trkpt>
      <trkpt lat="48.74131" lon="7.35998">
        <ele>186.99876404</ele>
        <time>2020-09-20T12:49:35Z</time>
      </trkpt>
      <trkpt lat="48.74123" lon="7.35984">
        <ele>186.99876404</ele>
        <time>2020-09-20T12:49:38Z</time>
      </trkpt>
      <trkpt lat="48.74115" lon="7.35971">
        <ele>186.99876404</ele>
        <time>2020-09-20T12:49:41Z</time>
      </trkpt>
      <trkpt lat="48.74108" lon="7.35959">
        <ele>186.99876404</ele>
        <time>2020-09-20T12:49:43Z</time>
      </trkpt>
      <trkpt lat="48.74101" lon="7.35948">
        <ele>186.99876404</ele>
        <time>2020-09-20T12:49:46Z</time>
      </trkpt>
      <trkpt lat="48.74093" lon="7.35934">
        <ele>186.99876404</ele>
        <time>2020-09-20T12:49:48Z</time>
      </trkpt>
      <trkpt lat="48.74085" lon="7.35914">
        <ele>187.04122925</ele>
        <time>2020-09-20T12:49:51Z</time>
      </trkpt>
      <trkpt lat="48.74084" lon="7.35903">
        <ele>187.04122925</ele>
        <time>2020-09-20T12:49:54Z</time>
      </trkpt>
      <trkpt lat="48.74085" lon="7.35885">
        <ele>187.04122925</ele>
        <time>2020-09-20T12:49:56Z</time>
      </trkpt>
      <trkpt lat="48.74085" lon="7.35868">
        <ele>187.04122925</ele>
        <time>2020-09-20T12:49:58Z</time>
      </trkpt>
      <trkpt lat="48.74085" lon="7.35853">
        <ele>187.04122925</ele>
        <time>2020-09-20T12:50:00Z</time>
      </trkpt>
      <trkpt lat="48.74086" lon="7.35838">
        <ele>187.04122925</ele>
        <time>2020-09-20T12:50:02Z</time>
      </trkpt>
      <trkpt lat="48.74086" lon="7.35823">
        <ele>187.04122925</ele>
        <time>2020-09-20T12:50:05Z</time>
      </trkpt>
      <trkpt lat="48.74089" lon="7.35807">
        <ele>187.04122925</ele>
        <time>2020-09-20T12:50:07Z</time>
      </trkpt>
      <trkpt lat="48.74089" lon="7.3579">
        <ele>187.04122925</ele>
        <time>2020-09-20T12:50:09Z</time>
      </trkpt>
      <trkpt lat="48.74089" lon="7.35772">
        <ele>187.04122925</ele>
        <time>2020-09-20T12:50:11Z</time>
      </trkpt>
      <trkpt lat="48.74089" lon="7.35753">
        <ele>187.04122925</ele>
        <time>2020-09-20T12:50:13Z</time>
      </trkpt>
      <trkpt lat="48.74091" lon="7.35732">
        <ele>187.04122925</ele>
        <time>2020-09-20T12:50:15Z</time>
      </trkpt>
      <trkpt lat="48.7409" lon="7.35714">
        <ele>187.04122925</ele>
        <time>2020-09-20T12:50:17Z</time>
      </trkpt>
      <trkpt lat="48.74087" lon="7.35695">
        <ele>187.04122925</ele>
        <time>2020-09-20T12:50:19Z</time>
      </trkpt>
      <trkpt lat="48.74086" lon="7.35674">
        <ele>186.11192322</ele>
        <time>2020-09-20T12:50:21Z</time>
      </trkpt>
      <trkpt lat="48.74087" lon="7.35654">
        <ele>186.11192322</ele>
        <time>2020-09-20T12:50:23Z</time>
      </trkpt>
      <trkpt lat="48.74089" lon="7.35634">
        <ele>186.11192322</ele>
        <time>2020-09-20T12:50:25Z</time>
      </trkpt>
      <trkpt lat="48.74089" lon="7.35616">
        <ele>186.11192322</ele>
        <time>2020-09-20T12:50:27Z</time>
      </trkpt>
      <trkpt lat="48.7409" lon="7.356">
        <ele>186.11192322</ele>
        <time>2020-09-20T12:50:29Z</time>
      </trkpt>
      <trkpt lat="48.74092" lon="7.35582">
        <ele>186.11192322</ele>
        <time>2020-09-20T12:50:31Z</time>
      </trkpt>
      <trkpt lat="48.74091" lon="7.35565">
        <ele>186.11192322</ele>
        <time>2020-09-20T12:50:33Z</time>
      </trkpt>
      <trkpt lat="48.74089" lon="7.35545">
        <ele>186.11192322</ele>
        <time>2020-09-20T12:50:35Z</time>
      </trkpt>
      <trkpt lat="48.74092" lon="7.35526">
        <ele>186.11192322</ele>
        <time>2020-09-20T12:50:37Z</time>
      </trkpt>
      <trkpt lat="48.74092" lon="7.35506">
        <ele>186.11192322</ele>
        <time>2020-09-20T12:50:39Z</time>
      </trkpt>
      <trkpt lat="48.74091" lon="7.35489">
        <ele>186.11192322</ele>
        <time>2020-09-20T12:50:41Z</time>
      </trkpt>
      <trkpt lat="48.74091" lon="7.35472">
        <ele>186.11192322</ele>
        <time>2020-09-20T12:50:43Z</time>
      </trkpt>
      <trkpt lat="48.7409" lon="7.35456">
        <ele>186.11192322</ele>
        <time>2020-09-20T12:50:46Z</time>
      </trkpt>
      <trkpt lat="48.74079" lon="7.35446">
        <ele>187.11637878</ele>
        <time>2020-09-20T12:50:51Z</time>
      </trkpt>
      <trkpt lat="48.74075" lon="7.35453">
        <ele>187.11637878</ele>
        <time>2020-09-20T12:50:55Z</time>
      </trkpt>
      <trkpt lat="48.74067" lon="7.35462">
        <ele>187.88198853</ele>
        <time>2020-09-20T12:50:59Z</time>
      </trkpt>
      <trkpt lat="48.74056" lon="7.35466">
        <ele>189.07150269</ele>
        <time>2020-09-20T12:51:03Z</time>
      </trkpt>
      <trkpt lat="48.74044" lon="7.3547">
        <ele>191.21200562</ele>
        <time>2020-09-20T12:51:25Z</time>
      </trkpt>
      <trkpt lat="48.74041" lon="7.35474">
        <ele>191.21200562</ele>
        <time>2020-09-20T12:51:29Z</time>
      </trkpt>
      <trkpt lat="48.74041" lon="7.35494">
        <ele>191.21200562</ele>
        <time>2020-09-20T12:51:32Z</time>
      </trkpt>
      <trkpt lat="48.74043" lon="7.35508">
        <ele>191.21200562</ele>
        <time>2020-09-20T12:51:35Z</time>
      </trkpt>
      <trkpt lat="48.74047" lon="7.35522">
        <ele>191.21200562</ele>
        <time>2020-09-20T12:51:38Z</time>
      </trkpt>
      <trkpt lat="48.74052" lon="7.35536">
        <ele>191.81044006</ele>
        <time>2020-09-20T12:51:41Z</time>
      </trkpt>
      <trkpt lat="48.74054" lon="7.35556">
        <ele>191.81044006</ele>
        <time>2020-09-20T12:51:44Z</time>
      </trkpt>
      <trkpt lat="48.7406" lon="7.35571">
        <ele>191.81044006</ele>
        <time>2020-09-20T12:51:46Z</time>
      </trkpt>
      <trkpt lat="48.74067" lon="7.35584">
        <ele>191.81044006</ele>
        <time>2020-09-20T12:51:48Z</time>
      </trkpt>
      <trkpt lat="48.74072" lon="7.35597">
        <ele>191.81044006</ele>
        <time>2020-09-20T12:51:50Z</time>
      </trkpt>
      <trkpt lat="48.74075" lon="7.35607">
        <ele>189.84484863</ele>
        <time>2020-09-20T12:51:51Z</time>
      </trkpt>
      <trkpt lat="48.74079" lon="7.35618">
        <ele>189.84484863</ele>
        <time>2020-09-20T12:51:53Z</time>
      </trkpt>
      <trkpt lat="48.74081" lon="7.35633">
        <ele>189.84484863</ele>
        <time>2020-09-20T12:51:55Z</time>
      </trkpt>
      <trkpt lat="48.74082" lon="7.35649">
        <ele>189.84484863</ele>
        <time>2020-09-20T12:51:57Z</time>
      </trkpt>
      <trkpt lat="48.74081" lon="7.35664">
        <ele>190.34132385</ele>
        <time>2020-09-20T12:52:00Z</time>
      </trkpt>
      <trkpt lat="48.74083" lon="7.35681">
        <ele>190.34132385</ele>
        <time>2020-09-20T12:52:03Z</time>
      </trkpt>
      <trkpt lat="48.74081" lon="7.35697">
        <ele>191.55256653</ele>
        <time>2020-09-20T12:52:06Z</time>
      </trkpt>
      <trkpt lat="48.74079" lon="7.35717">
        <ele>191.55256653</ele>
        <time>2020-09-20T12:52:08Z</time>
      </trkpt>
      <trkpt lat="48.74078" lon="7.35732">
        <ele>191.55256653</ele>
        <time>2020-09-20T12:52:10Z</time>
      </trkpt>
      <trkpt lat="48.74078" lon="7.35748">
        <ele>192.63288879</ele>
        <time>2020-09-20T12:52:13Z</time>
      </trkpt>
      <trkpt lat="48.74076" lon="7.35766">
        <ele>192.63288879</ele>
        <time>2020-09-20T12:52:16Z</time>
      </trkpt>
      <trkpt lat="48.74073" lon="7.35785">
        <ele>193.59077454</ele>
        <time>2020-09-20T12:52:19Z</time>
      </trkpt>
      <trkpt lat="48.74073" lon="7.35806">
        <ele>193.59077454</ele>
        <time>2020-09-20T12:52:21Z</time>
      </trkpt>
      <trkpt lat="48.74073" lon="7.35822">
        <ele>194.7966156</ele>
        <time>2020-09-20T12:52:23Z</time>
      </trkpt>
      <trkpt lat="48.74072" lon="7.35836">
        <ele>194.7966156</ele>
        <time>2020-09-20T12:52:25Z</time>
      </trkpt>
      <trkpt lat="48.74071" lon="7.35851">
        <ele>194.7966156</ele>
        <time>2020-09-20T12:52:27Z</time>
      </trkpt>
      <trkpt lat="48.74067" lon="7.35867">
        <ele>194.7966156</ele>
        <time>2020-09-20T12:52:29Z</time>
      </trkpt>
      <trkpt lat="48.74066" lon="7.35882">
        <ele>194.7966156</ele>
        <time>2020-09-20T12:52:31Z</time>
      </trkpt>
      <trkpt lat="48.74069" lon="7.35896">
        <ele>194.7966156</ele>
        <time>2020-09-20T12:52:33Z</time>
      </trkpt>
      <trkpt lat="48.74072" lon="7.35909">
        <ele>195.79544067</ele>
        <time>2020-09-20T12:52:36Z</time>
      </trkpt>
      <trkpt lat="48.7407" lon="7.35922">
        <ele>195.79544067</ele>
        <time>2020-09-20T12:52:40Z</time>
      </trkpt>
      <trkpt lat="48.74057" lon="7.35922">
        <ele>195.79544067</ele>
        <time>2020-09-20T12:52:43Z</time>
      </trkpt>
      <trkpt lat="48.74048" lon="7.35913">
        <ele>196.84936523</ele>
        <time>2020-09-20T12:52:46Z</time>
      </trkpt>
      <trkpt lat="48.74036" lon="7.3591">
        <ele>198.15428162</ele>
        <time>2020-09-20T12:52:49Z</time>
      </trkpt>
      <trkpt lat="48.74027" lon="7.35908">
        <ele>199.11746216</ele>
        <time>2020-09-20T12:52:51Z</time>
      </trkpt>
      <trkpt lat="48.74019" lon="7.35903">
        <ele>199.11746216</ele>
        <time>2020-09-20T12:52:53Z</time>
      </trkpt>
      <trkpt lat="48.74011" lon="7.35899">
        <ele>199.9883728</ele>
        <time>2020-09-20T12:52:55Z</time>
      </trkpt>
      <trkpt lat="48.74001" lon="7.35893">
        <ele>199.9883728</ele>
        <time>2020-09-20T12:52:57Z</time>
      </trkpt>
      <trkpt lat="48.73991" lon="7.35891">
        <ele>199.9883728</ele>
        <time>2020-09-20T12:52:59Z</time>
      </trkpt>
      <trkpt lat="48.73981" lon="7.35889">
        <ele>201.0402832</ele>
        <time>2020-09-20T12:53:02Z</time>
      </trkpt>
      <trkpt lat="48.73969" lon="7.35887">
        <ele>201.0402832</ele>
        <time>2020-09-20T12:53:05Z</time>
      </trkpt>
      <trkpt lat="48.73957" lon="7.35887">
        <ele>202.14332581</ele>
        <time>2020-09-20T12:53:08Z</time>
      </trkpt>
      <trkpt lat="48.73946" lon="7.35891">
        <ele>203.25158691</ele>
        <time>2020-09-20T12:53:12Z</time>
      </trkpt>
      <trkpt lat="48.73932" lon="7.35889">
        <ele>203.25158691</ele>
        <time>2020-09-20T12:53:14Z</time>
      </trkpt>
      <trkpt lat="48.73924" lon="7.35891">
        <ele>204.49401855</ele>
        <time>2020-09-20T12:53:18Z</time>
      </trkpt>
      <trkpt lat="48.73912" lon="7.35891">
        <ele>205.58648682</ele>
        <time>2020-09-20T12:53:21Z</time>
      </trkpt>
      <trkpt lat="48.73901" lon="7.35891">
        <ele>206.68496704</ele>
        <time>2020-09-20T12:53:24Z</time>
      </trkpt>
      <trkpt lat="48.73888" lon="7.35891">
        <ele>206.68496704</ele>
        <time>2020-09-20T12:53:27Z</time>
      </trkpt>
      <trkpt lat="48.73875" lon="7.35888">
        <ele>207.7772522</ele>
        <time>2020-09-20T12:53:29Z</time>
      </trkpt>
      <trkpt lat="48.73865" lon="7.35884">
        <ele>207.7772522</ele>
        <time>2020-09-20T12:53:31Z</time>
      </trkpt>
      <trkpt lat="48.73855" lon="7.35878">
        <ele>208.87760925</ele>
        <time>2020-09-20T12:53:34Z</time>
      </trkpt>
      <trkpt lat="48.73845" lon="7.35878">
        <ele>210.07403564</ele>
        <time>2020-09-20T12:53:37Z</time>
      </trkpt>
      <trkpt lat="48.73833" lon="7.35874">
        <ele>211.31272888</ele>
        <time>2020-09-20T12:53:40Z</time>
      </trkpt>
      <trkpt lat="48.73822" lon="7.35881">
        <ele>212.41714478</ele>
        <time>2020-09-20T12:53:43Z</time>
      </trkpt>
      <trkpt lat="48.73818" lon="7.359">
        <ele>212.41714478</ele>
        <time>2020-09-20T12:53:46Z</time>
      </trkpt>
      <trkpt lat="48.73813" lon="7.35917">
        <ele>213.62327576</ele>
        <time>2020-09-20T12:53:49Z</time>
      </trkpt>
      <trkpt lat="48.73809" lon="7.35928">
        <ele>214.60844421</ele>
        <time>2020-09-20T12:53:51Z</time>
      </trkpt>
      <trkpt lat="48.73803" lon="7.35938">
        <ele>214.60844421</ele>
        <time>2020-09-20T12:53:54Z</time>
      </trkpt>
      <trkpt lat="48.73797" lon="7.35954">
        <ele>214.60844421</ele>
        <time>2020-09-20T12:53:57Z</time>
      </trkpt>
      <trkpt lat="48.73792" lon="7.35971">
        <ele>214.60844421</ele>
        <time>2020-09-20T12:54:00Z</time>
      </trkpt>
      <trkpt lat="48.73787" lon="7.35988">
        <ele>215.31524658</ele>
        <time>2020-09-20T12:54:03Z</time>
      </trkpt>
      <trkpt lat="48.73781" lon="7.36006">
        <ele>215.31524658</ele>
        <time>2020-09-20T12:54:05Z</time>
      </trkpt>
      <trkpt lat="48.73777" lon="7.3602">
        <ele>215.31524658</ele>
        <time>2020-09-20T12:54:07Z</time>
      </trkpt>
      <trkpt lat="48.73773" lon="7.36037">
        <ele>215.31524658</ele>
        <time>2020-09-20T12:54:09Z</time>
      </trkpt>
      <trkpt lat="48.73769" lon="7.36055">
        <ele>215.31524658</ele>
        <time>2020-09-20T12:54:11Z</time>
      </trkpt>
      <trkpt lat="48.73765" lon="7.36072">
        <ele>215.31524658</ele>
        <time>2020-09-20T12:54:13Z</time>
      </trkpt>
      <trkpt lat="48.7376" lon="7.36087">
        <ele>215.7335968</ele>
        <time>2020-09-20T12:54:15Z</time>
      </trkpt>
      <trkpt lat="48.73756" lon="7.36102">
        <ele>213.75178528</ele>
        <time>2020-09-20T12:54:17Z</time>
      </trkpt>
      <trkpt lat="48.7375" lon="7.36115">
        <ele>212.68991089</ele>
        <time>2020-09-20T12:54:19Z</time>
      </trkpt>
      <trkpt lat="48.73741" lon="7.36122">
        <ele>212.68991089</ele>
        <time>2020-09-20T12:54:21Z</time>
      </trkpt>
      <trkpt lat="48.7373" lon="7.36126">
        <ele>211.44506836</ele>
        <time>2020-09-20T12:54:24Z</time>
      </trkpt>
      <trkpt lat="48.73718" lon="7.36122">
        <ele>211.44506836</ele>
        <time>2020-09-20T12:54:26Z</time>
      </trkpt>
      <trkpt lat="48.73708" lon="7.36112">
        <ele>211.44506836</ele>
        <time>2020-09-20T12:54:28Z</time>
      </trkpt>
      <trkpt lat="48.73698" lon="7.36103">
        <ele>211.45727539</ele>
        <time>2020-09-20T12:54:30Z</time>
      </trkpt>
      <trkpt lat="48.73688" lon="7.36095">
        <ele>211.45727539</ele>
        <time>2020-09-20T12:54:32Z</time>
      </trkpt>
      <trkpt lat="48.73678" lon="7.36087">
        <ele>213.26370239</ele>
        <time>2020-09-20T12:54:34Z</time>
      </trkpt>
      <trkpt lat="48.73669" lon="7.36079">
        <ele>214.55781555</ele>
        <time>2020-09-20T12:54:36Z</time>
      </trkpt>
      <trkpt lat="48.7366" lon="7.36072">
        <ele>214.55781555</ele>
        <time>2020-09-20T12:54:38Z</time>
      </trkpt>
      <trkpt lat="48.73652" lon="7.36064">
        <ele>215.9838562</ele>
        <time>2020-09-20T12:54:40Z</time>
      </trkpt>
      <trkpt lat="48.73643" lon="7.36055">
        <ele>217.34693909</ele>
        <time>2020-09-20T12:54:42Z</time>
      </trkpt>
      <trkpt lat="48.73632" lon="7.3605">
        <ele>218.57266235</ele>
        <time>2020-09-20T12:54:45Z</time>
      </trkpt>
      <trkpt lat="48.73623" lon="7.36057">
        <ele>219.57910156</ele>
        <time>2020-09-20T12:54:49Z</time>
      </trkpt>
      <trkpt lat="48.73616" lon="7.36063">
        <ele>220.44171143</ele>
        <time>2020-09-20T12:54:51Z</time>
      </trkpt>
      <trkpt lat="48.73605" lon="7.36068">
        <ele>220.44171143</ele>
        <time>2020-09-20T12:54:53Z</time>
      </trkpt>
      <trkpt lat="48.73592" lon="7.36073">
        <ele>220.44171143</ele>
        <time>2020-09-20T12:54:55Z</time>
      </trkpt>
      <trkpt lat="48.73579" lon="7.36075">
        <ele>220.00756836</ele>
        <time>2020-09-20T12:54:57Z</time>
      </trkpt>
      <trkpt lat="48.73566" lon="7.36078">
        <ele>220.00756836</ele>
        <time>2020-09-20T12:54:59Z</time>
      </trkpt>
      <trkpt lat="48.73555" lon="7.36083">
        <ele>220.00756836</ele>
        <time>2020-09-20T12:55:01Z</time>
      </trkpt>
      <trkpt lat="48.73542" lon="7.36088">
        <ele>218.72195435</ele>
        <time>2020-09-20T12:55:03Z</time>
      </trkpt>
      <trkpt lat="48.73529" lon="7.36092">
        <ele>218.72195435</ele>
        <time>2020-09-20T12:55:05Z</time>
      </trkpt>
      <trkpt lat="48.73517" lon="7.36095">
        <ele>217.30487061</ele>
        <time>2020-09-20T12:55:07Z</time>
      </trkpt>
      <trkpt lat="48.73503" lon="7.36102">
        <ele>217.30487061</ele>
        <time>2020-09-20T12:55:09Z</time>
      </trkpt>
      <trkpt lat="48.73488" lon="7.36107">
        <ele>216.31904602</ele>
        <time>2020-09-20T12:55:11Z</time>
      </trkpt>
      <trkpt lat="48.73475" lon="7.36109">
        <ele>216.31904602</ele>
        <time>2020-09-20T12:55:13Z</time>
      </trkpt>
      <trkpt lat="48.73461" lon="7.36109">
        <ele>215.0400238</ele>
        <time>2020-09-20T12:55:15Z</time>
      </trkpt>
      <trkpt lat="48.73446" lon="7.36109">
        <ele>215.0400238</ele>
        <time>2020-09-20T12:55:17Z</time>
      </trkpt>
      <trkpt lat="48.73432" lon="7.36113">
        <ele>213.69670105</ele>
        <time>2020-09-20T12:55:19Z</time>
      </trkpt>
      <trkpt lat="48.73422" lon="7.36115">
        <ele>213.69670105</ele>
        <time>2020-09-20T12:55:21Z</time>
      </trkpt>
      <trkpt lat="48.73414" lon="7.36118">
        <ele>213.69670105</ele>
        <time>2020-09-20T12:55:26Z</time>
      </trkpt>
      <trkpt lat="48.73404" lon="7.36115">
        <ele>213.69670105</ele>
        <time>2020-09-20T12:55:31Z</time>
      </trkpt>
      <trkpt lat="48.73399" lon="7.36101">
        <ele>213.69670105</ele>
        <time>2020-09-20T12:55:36Z</time>
      </trkpt>
      <trkpt lat="48.73393" lon="7.3609">
        <ele>213.69670105</ele>
        <time>2020-09-20T12:55:41Z</time>
      </trkpt>
      <trkpt lat="48.73387" lon="7.36079">
        <ele>213.69670105</ele>
        <time>2020-09-20T12:55:44Z</time>
      </trkpt>
      <trkpt lat="48.73381" lon="7.36066">
        <ele>213.69670105</ele>
        <time>2020-09-20T12:55:47Z</time>
      </trkpt>
      <trkpt lat="48.73373" lon="7.36053">
        <ele>213.69670105</ele>
        <time>2020-09-20T12:55:49Z</time>
      </trkpt>
      <trkpt lat="48.73366" lon="7.36043">
        <ele>212.80755615</ele>
        <time>2020-09-20T12:55:51Z</time>
      </trkpt>
      <trkpt lat="48.73361" lon="7.3603">
        <ele>212.80755615</ele>
        <time>2020-09-20T12:55:53Z</time>
      </trkpt>
      <trkpt lat="48.73357" lon="7.36017">
        <ele>212.80755615</ele>
        <time>2020-09-20T12:55:55Z</time>
      </trkpt>
      <trkpt lat="48.73351" lon="7.36004">
        <ele>212.80755615</ele>
        <time>2020-09-20T12:55:57Z</time>
      </trkpt>
      <trkpt lat="48.73345" lon="7.35991">
        <ele>212.80755615</ele>
        <time>2020-09-20T12:55:59Z</time>
      </trkpt>
      <trkpt lat="48.73339" lon="7.35976">
        <ele>213.82609558</ele>
        <time>2020-09-20T12:56:02Z</time>
      </trkpt>
      <trkpt lat="48.73333" lon="7.3596">
        <ele>213.82609558</ele>
        <time>2020-09-20T12:56:05Z</time>
      </trkpt>
      <trkpt lat="48.73327" lon="7.35944">
        <ele>214.97958374</ele>
        <time>2020-09-20T12:56:07Z</time>
      </trkpt>
      <trkpt lat="48.73322" lon="7.3593">
        <ele>214.97958374</ele>
        <time>2020-09-20T12:56:09Z</time>
      </trkpt>
      <trkpt lat="48.73315" lon="7.35916">
        <ele>214.97958374</ele>
        <time>2020-09-20T12:56:11Z</time>
      </trkpt>
      <trkpt lat="48.7331" lon="7.35902">
        <ele>216.05116272</ele>
        <time>2020-09-20T12:56:14Z</time>
      </trkpt>
      <trkpt lat="48.73305" lon="7.35887">
        <ele>216.05116272</ele>
        <time>2020-09-20T12:56:16Z</time>
      </trkpt>
      <trkpt lat="48.73299" lon="7.35874">
        <ele>216.05116272</ele>
        <time>2020-09-20T12:56:18Z</time>
      </trkpt>
      <trkpt lat="48.73294" lon="7.35861">
        <ele>217.27268982</ele>
        <time>2020-09-20T12:56:20Z</time>
      </trkpt>
      <trkpt lat="48.73289" lon="7.35847">
        <ele>217.27268982</ele>
        <time>2020-09-20T12:56:22Z</time>
      </trkpt>
      <trkpt lat="48.73284" lon="7.35835">
        <ele>217.27268982</ele>
        <time>2020-09-20T12:56:24Z</time>
      </trkpt>
      <trkpt lat="48.73281" lon="7.35819">
        <ele>217.27268982</ele>
        <time>2020-09-20T12:56:26Z</time>
      </trkpt>
      <trkpt lat="48.73276" lon="7.35805">
        <ele>217.27268982</ele>
        <time>2020-09-20T12:56:28Z</time>
      </trkpt>
      <trkpt lat="48.73271" lon="7.35792">
        <ele>218.33387756</ele>
        <time>2020-09-20T12:56:30Z</time>
      </trkpt>
      <trkpt lat="48.73265" lon="7.35779">
        <ele>218.33387756</ele>
        <time>2020-09-20T12:56:32Z</time>
      </trkpt>
      <trkpt lat="48.7326" lon="7.35763">
        <ele>218.33387756</ele>
        <time>2020-09-20T12:56:34Z</time>
      </trkpt>
      <trkpt lat="48.73255" lon="7.3575">
        <ele>219.53793335</ele>
        <time>2020-09-20T12:56:36Z</time>
      </trkpt>
      <trkpt lat="48.73251" lon="7.35738">
        <ele>219.53793335</ele>
        <time>2020-09-20T12:56:38Z</time>
      </trkpt>
      <trkpt lat="48.73246" lon="7.35723">
        <ele>220.71177673</ele>
        <time>2020-09-20T12:56:40Z</time>
      </trkpt>
      <trkpt lat="48.7324" lon="7.35709">
        <ele>220.71177673</ele>
        <time>2020-09-20T12:56:42Z</time>
      </trkpt>
      <trkpt lat="48.73237" lon="7.35695">
        <ele>220.71177673</ele>
        <time>2020-09-20T12:56:44Z</time>
      </trkpt>
      <trkpt lat="48.73232" lon="7.35682">
        <ele>221.92301941</ele>
        <time>2020-09-20T12:56:46Z</time>
      </trkpt>
      <trkpt lat="48.73228" lon="7.35669">
        <ele>223.13432312</ele>
        <time>2020-09-20T12:56:49Z</time>
      </trkpt>
      <trkpt lat="48.73223" lon="7.35649">
        <ele>224.01538086</ele>
        <time>2020-09-20T12:56:51Z</time>
      </trkpt>
      <trkpt lat="48.73219" lon="7.35638">
        <ele>224.01538086</ele>
        <time>2020-09-20T12:56:53Z</time>
      </trkpt>
      <trkpt lat="48.73215" lon="7.35624">
        <ele>224.01538086</ele>
        <time>2020-09-20T12:56:55Z</time>
      </trkpt>
      <trkpt lat="48.73212" lon="7.35608">
        <ele>224.88574219</ele>
        <time>2020-09-20T12:56:58Z</time>
      </trkpt>
      <trkpt lat="48.73205" lon="7.35606">
        <ele>226.00550842</ele>
        <time>2020-09-20T12:57:03Z</time>
      </trkpt>
      <trkpt lat="48.73195" lon="7.35623">
        <ele>226.00550842</ele>
        <time>2020-09-20T12:57:05Z</time>
      </trkpt>
      <trkpt lat="48.73187" lon="7.35635">
        <ele>226.00550842</ele>
        <time>2020-09-20T12:57:07Z</time>
      </trkpt>
      <trkpt lat="48.7318" lon="7.35647">
        <ele>226.00550842</ele>
        <time>2020-09-20T12:57:09Z</time>
      </trkpt>
      <trkpt lat="48.73172" lon="7.35659">
        <ele>226.00550842</ele>
        <time>2020-09-20T12:57:11Z</time>
      </trkpt>
      <trkpt lat="48.73164" lon="7.35671">
        <ele>226.00550842</ele>
        <time>2020-09-20T12:57:13Z</time>
      </trkpt>
      <trkpt lat="48.73157" lon="7.35683">
        <ele>226.00550842</ele>
        <time>2020-09-20T12:57:15Z</time>
      </trkpt>
      <trkpt lat="48.73148" lon="7.35693">
        <ele>226.00550842</ele>
        <time>2020-09-20T12:57:17Z</time>
      </trkpt>
      <trkpt lat="48.73138" lon="7.35701">
        <ele>226.00550842</ele>
        <time>2020-09-20T12:57:19Z</time>
      </trkpt>
      <trkpt lat="48.73127" lon="7.35706">
        <ele>226.81617737</ele>
        <time>2020-09-20T12:57:21Z</time>
      </trkpt>
      <trkpt lat="48.73117" lon="7.35711">
        <ele>226.81617737</ele>
        <time>2020-09-20T12:57:23Z</time>
      </trkpt>
      <trkpt lat="48.73108" lon="7.35718">
        <ele>228.33050537</ele>
        <time>2020-09-20T12:57:25Z</time>
      </trkpt>
      <trkpt lat="48.731" lon="7.35726">
        <ele>228.33050537</ele>
        <time>2020-09-20T12:57:27Z</time>
      </trkpt>
      <trkpt lat="48.73095" lon="7.35738">
        <ele>228.33050537</ele>
        <time>2020-09-20T12:57:29Z</time>
      </trkpt>
      <trkpt lat="48.73092" lon="7.35752">
        <ele>228.33050537</ele>
        <time>2020-09-20T12:57:31Z</time>
      </trkpt>
      <trkpt lat="48.73085" lon="7.35759">
        <ele>229.2791748</ele>
        <time>2020-09-20T12:57:34Z</time>
      </trkpt>
      <trkpt lat="48.73073" lon="7.35749">
        <ele>229.2791748</ele>
        <time>2020-09-20T12:57:36Z</time>
      </trkpt>
      <trkpt lat="48.73064" lon="7.35741">
        <ele>229.2791748</ele>
        <time>2020-09-20T12:57:38Z</time>
      </trkpt>
      <trkpt lat="48.73055" lon="7.35734">
        <ele>229.2791748</ele>
        <time>2020-09-20T12:57:40Z</time>
      </trkpt>
      <trkpt lat="48.73044" lon="7.35731">
        <ele>229.2791748</ele>
        <time>2020-09-20T12:57:43Z</time>
      </trkpt>
      <trkpt lat="48.73038" lon="7.35744">
        <ele>229.2791748</ele>
        <time>2020-09-20T12:57:45Z</time>
      </trkpt>
      <trkpt lat="48.73035" lon="7.3576">
        <ele>229.2791748</ele>
        <time>2020-09-20T12:57:48Z</time>
      </trkpt>
      <trkpt lat="48.73031" lon="7.35781">
        <ele>229.80874634</ele>
        <time>2020-09-20T12:57:51Z</time>
      </trkpt>
      <trkpt lat="48.73028" lon="7.3579">
        <ele>229.80874634</ele>
        <time>2020-09-20T12:57:56Z</time>
      </trkpt>
      <trkpt lat="48.73027" lon="7.35805">
        <ele>229.80874634</ele>
        <time>2020-09-20T12:58:02Z</time>
      </trkpt>
      <trkpt lat="48.73026" lon="7.35821">
        <ele>229.80874634</ele>
        <time>2020-09-20T12:58:05Z</time>
      </trkpt>
      <trkpt lat="48.73021" lon="7.3584">
        <ele>229.80874634</ele>
        <time>2020-09-20T12:58:08Z</time>
      </trkpt>
      <trkpt lat="48.73018" lon="7.35857">
        <ele>229.80874634</ele>
        <time>2020-09-20T12:58:10Z</time>
      </trkpt>
      <trkpt lat="48.73015" lon="7.35873">
        <ele>229.80874634</ele>
        <time>2020-09-20T12:58:13Z</time>
      </trkpt>
      <trkpt lat="48.73011" lon="7.35892">
        <ele>229.80874634</ele>
        <time>2020-09-20T12:58:15Z</time>
      </trkpt>
      <trkpt lat="48.73008" lon="7.35907">
        <ele>229.80874634</ele>
        <time>2020-09-20T12:58:17Z</time>
      </trkpt>
      <trkpt lat="48.73003" lon="7.35924">
        <ele>229.80874634</ele>
        <time>2020-09-20T12:58:20Z</time>
      </trkpt>
      <trkpt lat="48.72998" lon="7.35941">
        <ele>229.80874634</ele>
        <time>2020-09-20T12:58:22Z</time>
      </trkpt>
      <trkpt lat="48.72994" lon="7.35958">
        <ele>229.80874634</ele>
        <time>2020-09-20T12:58:24Z</time>
      </trkpt>
      <trkpt lat="48.72991" lon="7.35974">
        <ele>229.80874634</ele>
        <time>2020-09-20T12:58:26Z</time>
      </trkpt>
      <trkpt lat="48.72986" lon="7.35988">
        <ele>230.06468201</ele>
        <time>2020-09-20T12:58:28Z</time>
      </trkpt>
      <trkpt lat="48.7298" lon="7.36002">
        <ele>230.06468201</ele>
        <time>2020-09-20T12:58:31Z</time>
      </trkpt>
      <trkpt lat="48.72972" lon="7.36019">
        <ele>230.06468201</ele>
        <time>2020-09-20T12:58:33Z</time>
      </trkpt>
      <trkpt lat="48.72966" lon="7.36034">
        <ele>230.06468201</ele>
        <time>2020-09-20T12:58:35Z</time>
      </trkpt>
      <trkpt lat="48.72958" lon="7.36049">
        <ele>230.06468201</ele>
        <time>2020-09-20T12:58:37Z</time>
      </trkpt>
      <trkpt lat="48.72951" lon="7.36066">
        <ele>230.06468201</ele>
        <time>2020-09-20T12:58:39Z</time>
      </trkpt>
      <trkpt lat="48.72942" lon="7.3608">
        <ele>231.38204956</ele>
        <time>2020-09-20T12:58:41Z</time>
      </trkpt>
      <trkpt lat="48.72934" lon="7.36092">
        <ele>231.38204956</ele>
        <time>2020-09-20T12:58:43Z</time>
      </trkpt>
      <trkpt lat="48.72926" lon="7.36105">
        <ele>231.38204956</ele>
        <time>2020-09-20T12:58:45Z</time>
      </trkpt>
      <trkpt lat="48.72918" lon="7.3612">
        <ele>231.38204956</ele>
        <time>2020-09-20T12:58:47Z</time>
      </trkpt>
      <trkpt lat="48.72909" lon="7.36134">
        <ele>231.38204956</ele>
        <time>2020-09-20T12:58:49Z</time>
      </trkpt>
      <trkpt lat="48.729" lon="7.36146">
        <ele>231.38204956</ele>
        <time>2020-09-20T12:58:51Z</time>
      </trkpt>
      <trkpt lat="48.72898" lon="7.3615">
        <ele>232.01452637</ele>
        <time>2020-09-20T12:58:52Z</time>
      </trkpt>
      <trkpt lat="48.72891" lon="7.36157">
        <ele>232.01452637</ele>
        <time>2020-09-20T12:58:53Z</time>
      </trkpt>
      <trkpt lat="48.72884" lon="7.36169">
        <ele>232.01452637</ele>
        <time>2020-09-20T12:58:55Z</time>
      </trkpt>
      <trkpt lat="48.72878" lon="7.36185">
        <ele>232.01452637</ele>
        <time>2020-09-20T12:58:57Z</time>
      </trkpt>
      <trkpt lat="48.72871" lon="7.36198">
        <ele>232.93927002</ele>
        <time>2020-09-20T12:58:59Z</time>
      </trkpt>
      <trkpt lat="48.72865" lon="7.36212">
        <ele>232.93927002</ele>
        <time>2020-09-20T12:59:01Z</time>
      </trkpt>
      <trkpt lat="48.72858" lon="7.36227">
        <ele>232.93927002</ele>
        <time>2020-09-20T12:59:03Z</time>
      </trkpt>
      <trkpt lat="48.72852" lon="7.3624">
        <ele>234.18991089</ele>
        <time>2020-09-20T12:59:05Z</time>
      </trkpt>
      <trkpt lat="48.72846" lon="7.36251">
        <ele>234.18991089</ele>
        <time>2020-09-20T12:59:07Z</time>
      </trkpt>
      <trkpt lat="48.72836" lon="7.3626">
        <ele>235.35513306</ele>
        <time>2020-09-20T12:59:10Z</time>
      </trkpt>
      <trkpt lat="48.72826" lon="7.36268">
        <ele>235.35513306</ele>
        <time>2020-09-20T12:59:13Z</time>
      </trkpt>
      <trkpt lat="48.72818" lon="7.36271">
        <ele>235.35513306</ele>
        <time>2020-09-20T12:59:17Z</time>
      </trkpt>
      <trkpt lat="48.72809" lon="7.36264">
        <ele>235.35513306</ele>
        <time>2020-09-20T12:59:20Z</time>
      </trkpt>
      <trkpt lat="48.72798" lon="7.36264">
        <ele>235.35513306</ele>
        <time>2020-09-20T12:59:22Z</time>
      </trkpt>
      <trkpt lat="48.72788" lon="7.36263">
        <ele>235.90365601</ele>
        <time>2020-09-20T12:59:24Z</time>
      </trkpt>
      <trkpt lat="48.72777" lon="7.36262">
        <ele>235.90365601</ele>
        <time>2020-09-20T12:59:26Z</time>
      </trkpt>
      <trkpt lat="48.72765" lon="7.36264">
        <ele>234.00257874</ele>
        <time>2020-09-20T12:59:28Z</time>
      </trkpt>
      <trkpt lat="48.72753" lon="7.36265">
        <ele>234.00257874</ele>
        <time>2020-09-20T12:59:30Z</time>
      </trkpt>
      <trkpt lat="48.72739" lon="7.36262">
        <ele>232.96847534</ele>
        <time>2020-09-20T12:59:32Z</time>
      </trkpt>
      <trkpt lat="48.72726" lon="7.3626">
        <ele>232.96847534</ele>
        <time>2020-09-20T12:59:34Z</time>
      </trkpt>
      <trkpt lat="48.72711" lon="7.36256">
        <ele>231.43531799</ele>
        <time>2020-09-20T12:59:36Z</time>
      </trkpt>
      <trkpt lat="48.72695" lon="7.3625">
        <ele>230.0410614</ele>
        <time>2020-09-20T12:59:38Z</time>
      </trkpt>
      <trkpt lat="48.72679" lon="7.36242">
        <ele>228.81097412</ele>
        <time>2020-09-20T12:59:40Z</time>
      </trkpt>
      <trkpt lat="48.72665" lon="7.36237">
        <ele>227.46130371</ele>
        <time>2020-09-20T12:59:41Z</time>
      </trkpt>
      <trkpt lat="48.72653" lon="7.36232">
        <ele>226.1541748</ele>
        <time>2020-09-20T12:59:43Z</time>
      </trkpt>
      <trkpt lat="48.7264" lon="7.36228">
        <ele>226.1541748</ele>
        <time>2020-09-20T12:59:44Z</time>
      </trkpt>
      <trkpt lat="48.7263" lon="7.36226">
        <ele>224.7326355</ele>
        <time>2020-09-20T12:59:45Z</time>
      </trkpt>
      <trkpt lat="48.7262" lon="7.36224">
        <ele>224.7326355</ele>
        <time>2020-09-20T12:59:46Z</time>
      </trkpt>
      <trkpt lat="48.72611" lon="7.36221">
        <ele>223.05725098</ele>
        <time>2020-09-20T12:59:47Z</time>
      </trkpt>
      <trkpt lat="48.72601" lon="7.36218">
        <ele>223.05725098</ele>
        <time>2020-09-20T12:59:48Z</time>
      </trkpt>
      <trkpt lat="48.72591" lon="7.36215">
        <ele>221.25991821</ele>
        <time>2020-09-20T12:59:49Z</time>
      </trkpt>
      <trkpt lat="48.7258" lon="7.36212">
        <ele>221.25991821</ele>
        <time>2020-09-20T12:59:50Z</time>
      </trkpt>
      <trkpt lat="48.72567" lon="7.36208">
        <ele>218.77679443</ele>
        <time>2020-09-20T12:59:51Z</time>
      </trkpt>
      <trkpt lat="48.72556" lon="7.36205">
        <ele>217.64353943</ele>
        <time>2020-09-20T12:59:52Z</time>
      </trkpt>
      <trkpt lat="48.72545" lon="7.36202">
        <ele>216.5222168</ele>
        <time>2020-09-20T12:59:53Z</time>
      </trkpt>
      <trkpt lat="48.72532" lon="7.36198">
        <ele>215.41488647</ele>
        <time>2020-09-20T12:59:54Z</time>
      </trkpt>
      <trkpt lat="48.7252" lon="7.36193">
        <ele>214.20552063</ele>
        <time>2020-09-20T12:59:55Z</time>
      </trkpt>
      <trkpt lat="48.72508" lon="7.3619">
        <ele>213.09739685</ele>
        <time>2020-09-20T12:59:56Z</time>
      </trkpt>
      <trkpt lat="48.72496" lon="7.36187">
        <ele>211.99916077</ele>
        <time>2020-09-20T12:59:57Z</time>
      </trkpt>
      <trkpt lat="48.72484" lon="7.36183">
        <ele>210.86151123</ele>
        <time>2020-09-20T12:59:58Z</time>
      </trkpt>
      <trkpt lat="48.72472" lon="7.3618">
        <ele>209.83276367</ele>
        <time>2020-09-20T12:59:59Z</time>
      </trkpt>
      <trkpt lat="48.72461" lon="7.36175">
        <ele>209.83276367</ele>
        <time>2020-09-20T13:00:00Z</time>
      </trkpt>
      <trkpt lat="48.7245" lon="7.36171">
        <ele>208.57659912</ele>
        <time>2020-09-20T13:00:01Z</time>
      </trkpt>
      <trkpt lat="48.72439" lon="7.36168">
        <ele>208.57659912</ele>
        <time>2020-09-20T13:00:02Z</time>
      </trkpt>
      <trkpt lat="48.72428" lon="7.36164">
        <ele>206.97283936</ele>
        <time>2020-09-20T13:00:03Z</time>
      </trkpt>
      <trkpt lat="48.72417" lon="7.36161">
        <ele>206.97283936</ele>
        <time>2020-09-20T13:00:04Z</time>
      </trkpt>
      <trkpt lat="48.72406" lon="7.36157">
        <ele>205.41853333</ele>
        <time>2020-09-20T13:00:05Z</time>
      </trkpt>
      <trkpt lat="48.72394" lon="7.36152">
        <ele>205.41853333</ele>
        <time>2020-09-20T13:00:06Z</time>
      </trkpt>
      <trkpt lat="48.72384" lon="7.36148">
        <ele>203.63269043</ele>
        <time>2020-09-20T13:00:07Z</time>
      </trkpt>
      <trkpt lat="48.72374" lon="7.36144">
        <ele>203.63269043</ele>
        <time>2020-09-20T13:00:08Z</time>
      </trkpt>
      <trkpt lat="48.72363" lon="7.36141">
        <ele>202.08171082</ele>
        <time>2020-09-20T13:00:09Z</time>
      </trkpt>
      <trkpt lat="48.72353" lon="7.36137">
        <ele>202.08171082</ele>
        <time>2020-09-20T13:00:10Z</time>
      </trkpt>
      <trkpt lat="48.72342" lon="7.36132">
        <ele>200.74343872</ele>
        <time>2020-09-20T13:00:11Z</time>
      </trkpt>
      <trkpt lat="48.7233" lon="7.36127">
        <ele>200.74343872</ele>
        <time>2020-09-20T13:00:12Z</time>
      </trkpt>
      <trkpt lat="48.72319" lon="7.36123">
        <ele>200.74343872</ele>
        <time>2020-09-20T13:00:13Z</time>
      </trkpt>
      <trkpt lat="48.7231" lon="7.3612">
        <ele>200.74343872</ele>
        <time>2020-09-20T13:00:14Z</time>
      </trkpt>
      <trkpt lat="48.72301" lon="7.36118">
        <ele>200.74343872</ele>
        <time>2020-09-20T13:00:15Z</time>
      </trkpt>
      <trkpt lat="48.7229" lon="7.36111">
        <ele>200.74343872</ele>
        <time>2020-09-20T13:00:17Z</time>
      </trkpt>
      <trkpt lat="48.72276" lon="7.36105">
        <ele>200.74343872</ele>
        <time>2020-09-20T13:00:19Z</time>
      </trkpt>
      <trkpt lat="48.72263" lon="7.36101">
        <ele>200.13804626</ele>
        <time>2020-09-20T13:00:21Z</time>
      </trkpt>
      <trkpt lat="48.72253" lon="7.36103">
        <ele>202.44955444</ele>
        <time>2020-09-20T13:00:23Z</time>
      </trkpt>
      <trkpt lat="48.72244" lon="7.36108">
        <ele>203.53961182</ele>
        <time>2020-09-20T13:00:26Z</time>
      </trkpt>
      <trkpt lat="48.72234" lon="7.36115">
        <ele>204.68013</ele>
        <time>2020-09-20T13:00:29Z</time>
      </trkpt>
      <trkpt lat="48.72221" lon="7.36123">
        <ele>204.68013</ele>
        <time>2020-09-20T13:00:32Z</time>
      </trkpt>
      <trkpt lat="48.72211" lon="7.36134">
        <ele>204.68013</ele>
        <time>2020-09-20T13:00:35Z</time>
      </trkpt>
      <trkpt lat="48.72202" lon="7.36148">
        <ele>204.68013</ele>
        <time>2020-09-20T13:00:38Z</time>
      </trkpt>
      <trkpt lat="48.72192" lon="7.36158">
        <ele>204.68013</ele>
        <time>2020-09-20T13:00:40Z</time>
      </trkpt>
      <trkpt lat="48.72182" lon="7.36164">
        <ele>204.68013</ele>
        <time>2020-09-20T13:00:42Z</time>
      </trkpt>
      <trkpt lat="48.72172" lon="7.36173">
        <ele>205.41233826</ele>
        <time>2020-09-20T13:00:44Z</time>
      </trkpt>
      <trkpt lat="48.72158" lon="7.36181">
        <ele>203.06021118</ele>
        <time>2020-09-20T13:00:46Z</time>
      </trkpt>
      <trkpt lat="48.72142" lon="7.36186">
        <ele>201.6149292</ele>
        <time>2020-09-20T13:00:48Z</time>
      </trkpt>
      <trkpt lat="48.72127" lon="7.36192">
        <ele>200.42433167</ele>
        <time>2020-09-20T13:00:50Z</time>
      </trkpt>
      <trkpt lat="48.72118" lon="7.36197">
        <ele>199.97787476</ele>
        <time>2020-09-20T13:00:51Z</time>
      </trkpt>
      <trkpt lat="48.7211" lon="7.36202">
        <ele>199.97787476</ele>
        <time>2020-09-20T13:00:54Z</time>
      </trkpt>
      <trkpt lat="48.72102" lon="7.36207">
        <ele>199.97787476</ele>
        <time>2020-09-20T13:00:58Z</time>
      </trkpt>
      <trkpt lat="48.72091" lon="7.36215">
        <ele>199.4614563</ele>
        <time>2020-09-20T13:01:01Z</time>
      </trkpt>
      <trkpt lat="48.72078" lon="7.36222">
        <ele>198.1131134</ele>
        <time>2020-09-20T13:01:03Z</time>
      </trkpt>
      <trkpt lat="48.72065" lon="7.36235">
        <ele>196.40762329</ele>
        <time>2020-09-20T13:01:05Z</time>
      </trkpt>
      <trkpt lat="48.72052" lon="7.36248">
        <ele>194.99040222</ele>
        <time>2020-09-20T13:01:07Z</time>
      </trkpt>
      <trkpt lat="48.72036" lon="7.36259">
        <ele>193.93650818</ele>
        <time>2020-09-20T13:01:09Z</time>
      </trkpt>
      <trkpt lat="48.72023" lon="7.36267">
        <ele>193.93650818</ele>
        <time>2020-09-20T13:01:10Z</time>
      </trkpt>
      <trkpt lat="48.72015" lon="7.36274">
        <ele>193.93650818</ele>
        <time>2020-09-20T13:01:11Z</time>
      </trkpt>
      <trkpt lat="48.72006" lon="7.36278">
        <ele>192.86265564</ele>
        <time>2020-09-20T13:01:12Z</time>
      </trkpt>
      <trkpt lat="48.71998" lon="7.36283">
        <ele>192.86265564</ele>
        <time>2020-09-20T13:01:13Z</time>
      </trkpt>
      <trkpt lat="48.71985" lon="7.36289">
        <ele>192.86265564</ele>
        <time>2020-09-20T13:01:15Z</time>
      </trkpt>
      <trkpt lat="48.71971" lon="7.36292">
        <ele>191.67871094</ele>
        <time>2020-09-20T13:01:16Z</time>
      </trkpt>
      <trkpt lat="48.71958" lon="7.3629">
        <ele>191.67871094</ele>
        <time>2020-09-20T13:01:18Z</time>
      </trkpt>
      <trkpt lat="48.71943" lon="7.36283">
        <ele>191.67871094</ele>
        <time>2020-09-20T13:01:20Z</time>
      </trkpt>
      <trkpt lat="48.71929" lon="7.36273">
        <ele>191.67871094</ele>
        <time>2020-09-20T13:01:22Z</time>
      </trkpt>
      <trkpt lat="48.71916" lon="7.36262">
        <ele>191.67871094</ele>
        <time>2020-09-20T13:01:24Z</time>
      </trkpt>
      <trkpt lat="48.71906" lon="7.36252">
        <ele>191.67871094</ele>
        <time>2020-09-20T13:01:26Z</time>
      </trkpt>
      <trkpt lat="48.71893" lon="7.36245">
        <ele>191.67871094</ele>
        <time>2020-09-20T13:01:28Z</time>
      </trkpt>
      <trkpt lat="48.71882" lon="7.36238">
        <ele>191.67871094</ele>
        <time>2020-09-20T13:01:30Z</time>
      </trkpt>
      <trkpt lat="48.71871" lon="7.36232">
        <ele>191.67871094</ele>
        <time>2020-09-20T13:01:32Z</time>
      </trkpt>
      <trkpt lat="48.71859" lon="7.36227">
        <ele>191.67871094</ele>
        <time>2020-09-20T13:01:34Z</time>
      </trkpt>
      <trkpt lat="48.71848" lon="7.36221">
        <ele>191.67871094</ele>
        <time>2020-09-20T13:01:36Z</time>
      </trkpt>
      <trkpt lat="48.71835" lon="7.36212">
        <ele>191.67871094</ele>
        <time>2020-09-20T13:01:38Z</time>
      </trkpt>
      <trkpt lat="48.71823" lon="7.36204">
        <ele>191.67871094</ele>
        <time>2020-09-20T13:01:40Z</time>
      </trkpt>
      <trkpt lat="48.71811" lon="7.362">
        <ele>191.67871094</ele>
        <time>2020-09-20T13:01:42Z</time>
      </trkpt>
      <trkpt lat="48.71799" lon="7.362">
        <ele>191.67871094</ele>
        <time>2020-09-20T13:01:44Z</time>
      </trkpt>
      <trkpt lat="48.71785" lon="7.36208">
        <ele>191.67871094</ele>
        <time>2020-09-20T13:01:46Z</time>
      </trkpt>
      <trkpt lat="48.71773" lon="7.36215">
        <ele>191.67871094</ele>
        <time>2020-09-20T13:01:48Z</time>
      </trkpt>
      <trkpt lat="48.7176" lon="7.36222">
        <ele>191.67871094</ele>
        <time>2020-09-20T13:01:50Z</time>
      </trkpt>
      <trkpt lat="48.71753" lon="7.36227">
        <ele>191.17362976</ele>
        <time>2020-09-20T13:01:51Z</time>
      </trkpt>
      <trkpt lat="48.71744" lon="7.36233">
        <ele>191.17362976</ele>
        <time>2020-09-20T13:01:53Z</time>
      </trkpt>
      <trkpt lat="48.71733" lon="7.3624">
        <ele>191.17362976</ele>
        <time>2020-09-20T13:01:55Z</time>
      </trkpt>
      <trkpt lat="48.71722" lon="7.36247">
        <ele>191.17362976</ele>
        <time>2020-09-20T13:01:57Z</time>
      </trkpt>
      <trkpt lat="48.71712" lon="7.36253">
        <ele>191.17362976</ele>
        <time>2020-09-20T13:01:59Z</time>
      </trkpt>
      <trkpt lat="48.71702" lon="7.36258">
        <ele>191.17362976</ele>
        <time>2020-09-20T13:02:01Z</time>
      </trkpt>
      <trkpt lat="48.71689" lon="7.36264">
        <ele>191.17362976</ele>
        <time>2020-09-20T13:02:03Z</time>
      </trkpt>
      <trkpt lat="48.71676" lon="7.3627">
        <ele>191.84191895</ele>
        <time>2020-09-20T13:02:05Z</time>
      </trkpt>
      <trkpt lat="48.71663" lon="7.36276">
        <ele>191.84191895</ele>
        <time>2020-09-20T13:02:07Z</time>
      </trkpt>
      <trkpt lat="48.71653" lon="7.36284">
        <ele>191.84191895</ele>
        <time>2020-09-20T13:02:10Z</time>
      </trkpt>
      <trkpt lat="48.71639" lon="7.3629">
        <ele>191.84191895</ele>
        <time>2020-09-20T13:02:12Z</time>
      </trkpt>
      <trkpt lat="48.71627" lon="7.36295">
        <ele>193.26544189</ele>
        <time>2020-09-20T13:02:14Z</time>
      </trkpt>
      <trkpt lat="48.71616" lon="7.36298">
        <ele>193.26544189</ele>
        <time>2020-09-20T13:02:16Z</time>
      </trkpt>
      <trkpt lat="48.71607" lon="7.36302">
        <ele>194.57620239</ele>
        <time>2020-09-20T13:02:18Z</time>
      </trkpt>
      <trkpt lat="48.71598" lon="7.36304">
        <ele>194.57620239</ele>
        <time>2020-09-20T13:02:20Z</time>
      </trkpt>
      <trkpt lat="48.71589" lon="7.36309">
        <ele>195.81054688</ele>
        <time>2020-09-20T13:02:22Z</time>
      </trkpt>
      <trkpt lat="48.71578" lon="7.36314">
        <ele>197.05880737</ele>
        <time>2020-09-20T13:02:25Z</time>
      </trkpt>
      <trkpt lat="48.71567" lon="7.36319">
        <ele>198.27693176</ele>
        <time>2020-09-20T13:02:28Z</time>
      </trkpt>
      <trkpt lat="48.71555" lon="7.36324">
        <ele>199.39111328</ele>
        <time>2020-09-20T13:02:31Z</time>
      </trkpt>
      <trkpt lat="48.71543" lon="7.36331">
        <ele>200.63809204</ele>
        <time>2020-09-20T13:02:34Z</time>
      </trkpt>
      <trkpt lat="48.71532" lon="7.36336">
        <ele>200.63809204</ele>
        <time>2020-09-20T13:02:36Z</time>
      </trkpt>
      <trkpt lat="48.71521" lon="7.36341">
        <ele>201.81562805</ele>
        <time>2020-09-20T13:02:39Z</time>
      </trkpt>
      <trkpt lat="48.7151" lon="7.36346">
        <ele>201.81562805</ele>
        <time>2020-09-20T13:02:41Z</time>
      </trkpt>
      <trkpt lat="48.71501" lon="7.3635">
        <ele>203.11328125</ele>
        <time>2020-09-20T13:02:43Z</time>
      </trkpt>
      <trkpt lat="48.71491" lon="7.36356">
        <ele>204.3399353</ele>
        <time>2020-09-20T13:02:46Z</time>
      </trkpt>
      <trkpt lat="48.71478" lon="7.36361">
        <ele>204.3399353</ele>
        <time>2020-09-20T13:02:48Z</time>
      </trkpt>
      <trkpt lat="48.71468" lon="7.36364">
        <ele>205.52903748</ele>
        <time>2020-09-20T13:02:50Z</time>
      </trkpt>
      <trkpt lat="48.71461" lon="7.36367">
        <ele>206.1860199</ele>
        <time>2020-09-20T13:02:51Z</time>
      </trkpt>
      <trkpt lat="48.71454" lon="7.36369">
        <ele>206.1860199</ele>
        <time>2020-09-20T13:02:53Z</time>
      </trkpt>
      <trkpt lat="48.71444" lon="7.36374">
        <ele>206.79919434</ele>
        <time>2020-09-20T13:02:55Z</time>
      </trkpt>
      <trkpt lat="48.71434" lon="7.36379">
        <ele>206.79919434</ele>
        <time>2020-09-20T13:02:57Z</time>
      </trkpt>
      <trkpt lat="48.71424" lon="7.36383">
        <ele>207.91343689</ele>
        <time>2020-09-20T13:02:59Z</time>
      </trkpt>
      <trkpt lat="48.71414" lon="7.36387">
        <ele>207.91343689</ele>
        <time>2020-09-20T13:03:01Z</time>
      </trkpt>
      <trkpt lat="48.71405" lon="7.36389">
        <ele>209.07995605</ele>
        <time>2020-09-20T13:03:03Z</time>
      </trkpt>
      <trkpt lat="48.71394" lon="7.36388">
        <ele>209.07995605</ele>
        <time>2020-09-20T13:03:05Z</time>
      </trkpt>
      <trkpt lat="48.71384" lon="7.3639">
        <ele>210.27632141</ele>
        <time>2020-09-20T13:03:07Z</time>
      </trkpt>
      <trkpt lat="48.71375" lon="7.36392">
        <ele>210.27632141</ele>
        <time>2020-09-20T13:03:09Z</time>
      </trkpt>
      <trkpt lat="48.71364" lon="7.36394">
        <ele>211.39085388</ele>
        <time>2020-09-20T13:03:12Z</time>
      </trkpt>
      <trkpt lat="48.71351" lon="7.36397">
        <ele>211.39085388</ele>
        <time>2020-09-20T13:03:15Z</time>
      </trkpt>
      <trkpt lat="48.71338" lon="7.364">
        <ele>212.40087891</ele>
        <time>2020-09-20T13:03:18Z</time>
      </trkpt>
      <trkpt lat="48.71326" lon="7.36402">
        <ele>212.40087891</ele>
        <time>2020-09-20T13:03:21Z</time>
      </trkpt>
      <trkpt lat="48.71313" lon="7.36401">
        <ele>213.52993774</ele>
        <time>2020-09-20T13:03:24Z</time>
      </trkpt>
      <trkpt lat="48.71302" lon="7.36399">
        <ele>213.52993774</ele>
        <time>2020-09-20T13:03:26Z</time>
      </trkpt>
      <trkpt lat="48.71291" lon="7.36398">
        <ele>213.52993774</ele>
        <time>2020-09-20T13:03:29Z</time>
      </trkpt>
      <trkpt lat="48.71277" lon="7.36398">
        <ele>214.61367798</ele>
        <time>2020-09-20T13:03:32Z</time>
      </trkpt>
      <trkpt lat="48.71266" lon="7.36398">
        <ele>214.61367798</ele>
        <time>2020-09-20T13:03:34Z</time>
      </trkpt>
      <trkpt lat="48.71257" lon="7.36397">
        <ele>214.61367798</ele>
        <time>2020-09-20T13:03:36Z</time>
      </trkpt>
      <trkpt lat="48.71246" lon="7.36398">
        <ele>215.52268982</ele>
        <time>2020-09-20T13:03:39Z</time>
      </trkpt>
      <trkpt lat="48.71235" lon="7.36398">
        <ele>215.52268982</ele>
        <time>2020-09-20T13:03:41Z</time>
      </trkpt>
      <trkpt lat="48.71224" lon="7.36398">
        <ele>216.67530823</ele>
        <time>2020-09-20T13:03:43Z</time>
      </trkpt>
      <trkpt lat="48.71213" lon="7.36398">
        <ele>216.67530823</ele>
        <time>2020-09-20T13:03:45Z</time>
      </trkpt>
      <trkpt lat="48.71203" lon="7.36398">
        <ele>216.67530823</ele>
        <time>2020-09-20T13:03:47Z</time>
      </trkpt>
      <trkpt lat="48.71193" lon="7.36397">
        <ele>216.67530823</ele>
        <time>2020-09-20T13:03:49Z</time>
      </trkpt>
      <trkpt lat="48.71181" lon="7.364">
        <ele>217.55964661</ele>
        <time>2020-09-20T13:03:51Z</time>
      </trkpt>
      <trkpt lat="48.71174" lon="7.364">
        <ele>217.55964661</ele>
        <time>2020-09-20T13:03:53Z</time>
      </trkpt>
      <trkpt lat="48.71163" lon="7.36399">
        <ele>217.55964661</ele>
        <time>2020-09-20T13:03:55Z</time>
      </trkpt>
      <trkpt lat="48.71151" lon="7.36398">
        <ele>217.55964661</ele>
        <time>2020-09-20T13:03:57Z</time>
      </trkpt>
      <trkpt lat="48.71141" lon="7.36398">
        <ele>217.55964661</ele>
        <time>2020-09-20T13:03:59Z</time>
      </trkpt>
      <trkpt lat="48.7113" lon="7.36396">
        <ele>217.55964661</ele>
        <time>2020-09-20T13:04:01Z</time>
      </trkpt>
      <trkpt lat="48.71119" lon="7.36397">
        <ele>217.55964661</ele>
        <time>2020-09-20T13:04:03Z</time>
      </trkpt>
      <trkpt lat="48.71108" lon="7.36397">
        <ele>217.55964661</ele>
        <time>2020-09-20T13:04:05Z</time>
      </trkpt>
      <trkpt lat="48.71096" lon="7.36396">
        <ele>217.55964661</ele>
        <time>2020-09-20T13:04:07Z</time>
      </trkpt>
      <trkpt lat="48.71085" lon="7.36397">
        <ele>218.2623291</ele>
        <time>2020-09-20T13:04:09Z</time>
      </trkpt>
      <trkpt lat="48.71075" lon="7.36397">
        <ele>218.2623291</ele>
        <time>2020-09-20T13:04:11Z</time>
      </trkpt>
      <trkpt lat="48.71063" lon="7.36398">
        <ele>218.2623291</ele>
        <time>2020-09-20T13:04:13Z</time>
      </trkpt>
      <trkpt lat="48.71053" lon="7.36397">
        <ele>218.2623291</ele>
        <time>2020-09-20T13:04:15Z</time>
      </trkpt>
      <trkpt lat="48.71044" lon="7.36397">
        <ele>218.2623291</ele>
        <time>2020-09-20T13:04:17Z</time>
      </trkpt>
      <trkpt lat="48.71031" lon="7.36396">
        <ele>218.2623291</ele>
        <time>2020-09-20T13:04:19Z</time>
      </trkpt>
      <trkpt lat="48.71019" lon="7.36396">
        <ele>218.2623291</ele>
        <time>2020-09-20T13:04:21Z</time>
      </trkpt>
      <trkpt lat="48.71008" lon="7.36397">
        <ele>218.2623291</ele>
        <time>2020-09-20T13:04:23Z</time>
      </trkpt>
      <trkpt lat="48.70997" lon="7.36398">
        <ele>218.2623291</ele>
        <time>2020-09-20T13:04:25Z</time>
      </trkpt>
      <trkpt lat="48.70987" lon="7.36398">
        <ele>219.65586853</ele>
        <time>2020-09-20T13:04:28Z</time>
      </trkpt>
      <trkpt lat="48.70976" lon="7.36394">
        <ele>219.65586853</ele>
        <time>2020-09-20T13:04:30Z</time>
      </trkpt>
      <trkpt lat="48.70966" lon="7.36391">
        <ele>219.65586853</ele>
        <time>2020-09-20T13:04:32Z</time>
      </trkpt>
      <trkpt lat="48.70955" lon="7.3639">
        <ele>219.65586853</ele>
        <time>2020-09-20T13:04:34Z</time>
      </trkpt>
      <trkpt lat="48.70944" lon="7.3639">
        <ele>219.65586853</ele>
        <time>2020-09-20T13:04:36Z</time>
      </trkpt>
      <trkpt lat="48.70934" lon="7.36392">
        <ele>220.96250916</ele>
        <time>2020-09-20T13:04:38Z</time>
      </trkpt>
      <trkpt lat="48.70924" lon="7.36396">
        <ele>220.96250916</ele>
        <time>2020-09-20T13:04:40Z</time>
      </trkpt>
      <trkpt lat="48.70915" lon="7.36403">
        <ele>220.96250916</ele>
        <time>2020-09-20T13:04:42Z</time>
      </trkpt>
      <trkpt lat="48.70906" lon="7.36409">
        <ele>220.96250916</ele>
        <time>2020-09-20T13:04:44Z</time>
      </trkpt>
      <trkpt lat="48.70898" lon="7.36419">
        <ele>220.96250916</ele>
        <time>2020-09-20T13:04:46Z</time>
      </trkpt>
      <trkpt lat="48.7089" lon="7.3643">
        <ele>220.96250916</ele>
        <time>2020-09-20T13:04:49Z</time>
      </trkpt>
      <trkpt lat="48.70881" lon="7.36433">
        <ele>221.42555237</ele>
        <time>2020-09-20T13:04:51Z</time>
      </trkpt>
      <trkpt lat="48.70871" lon="7.36439">
        <ele>221.42555237</ele>
        <time>2020-09-20T13:04:53Z</time>
      </trkpt>
      <trkpt lat="48.70862" lon="7.36448">
        <ele>221.42555237</ele>
        <time>2020-09-20T13:04:55Z</time>
      </trkpt>
      <trkpt lat="48.70853" lon="7.36456">
        <ele>221.42555237</ele>
        <time>2020-09-20T13:04:57Z</time>
      </trkpt>
      <trkpt lat="48.70843" lon="7.36466">
        <ele>221.42555237</ele>
        <time>2020-09-20T13:04:59Z</time>
      </trkpt>
      <trkpt lat="48.70833" lon="7.36474">
        <ele>221.42555237</ele>
        <time>2020-09-20T13:05:01Z</time>
      </trkpt>
      <trkpt lat="48.70823" lon="7.36483">
        <ele>221.42555237</ele>
        <time>2020-09-20T13:05:03Z</time>
      </trkpt>
      <trkpt lat="48.70813" lon="7.36493">
        <ele>221.42555237</ele>
        <time>2020-09-20T13:05:05Z</time>
      </trkpt>
      <trkpt lat="48.70803" lon="7.365">
        <ele>222.18202209</ele>
        <time>2020-09-20T13:05:08Z</time>
      </trkpt>
      <trkpt lat="48.70793" lon="7.36511">
        <ele>222.18202209</ele>
        <time>2020-09-20T13:05:10Z</time>
      </trkpt>
      <trkpt lat="48.70784" lon="7.36519">
        <ele>223.49932861</ele>
        <time>2020-09-20T13:05:12Z</time>
      </trkpt>
      <trkpt lat="48.70775" lon="7.36527">
        <ele>223.49932861</ele>
        <time>2020-09-20T13:05:14Z</time>
      </trkpt>
      <trkpt lat="48.70764" lon="7.36533">
        <ele>223.49932861</ele>
        <time>2020-09-20T13:05:16Z</time>
      </trkpt>
      <trkpt lat="48.70754" lon="7.36539">
        <ele>224.84721375</ele>
        <time>2020-09-20T13:05:19Z</time>
      </trkpt>
      <trkpt lat="48.70743" lon="7.3655">
        <ele>224.84721375</ele>
        <time>2020-09-20T13:05:21Z</time>
      </trkpt>
      <trkpt lat="48.70734" lon="7.36559">
        <ele>226.12060547</ele>
        <time>2020-09-20T13:05:23Z</time>
      </trkpt>
      <trkpt lat="48.70725" lon="7.36569">
        <ele>226.12060547</ele>
        <time>2020-09-20T13:05:25Z</time>
      </trkpt>
      <trkpt lat="48.70716" lon="7.36577">
        <ele>227.07296753</ele>
        <time>2020-09-20T13:05:27Z</time>
      </trkpt>
      <trkpt lat="48.70707" lon="7.36585">
        <ele>227.07296753</ele>
        <time>2020-09-20T13:05:29Z</time>
      </trkpt>
      <trkpt lat="48.70699" lon="7.36592">
        <ele>227.07296753</ele>
        <time>2020-09-20T13:05:31Z</time>
      </trkpt>
      <trkpt lat="48.70691" lon="7.36599">
        <ele>228.15882874</ele>
        <time>2020-09-20T13:05:33Z</time>
      </trkpt>
      <trkpt lat="48.70682" lon="7.36606">
        <ele>228.15882874</ele>
        <time>2020-09-20T13:05:35Z</time>
      </trkpt>
      <trkpt lat="48.70673" lon="7.36617">
        <ele>229.28131104</ele>
        <time>2020-09-20T13:05:37Z</time>
      </trkpt>
      <trkpt lat="48.70665" lon="7.36626">
        <ele>229.28131104</ele>
        <time>2020-09-20T13:05:39Z</time>
      </trkpt>
      <trkpt lat="48.70654" lon="7.36632">
        <ele>230.34992981</ele>
        <time>2020-09-20T13:05:42Z</time>
      </trkpt>
      <trkpt lat="48.70644" lon="7.36643">
        <ele>230.34992981</ele>
        <time>2020-09-20T13:05:44Z</time>
      </trkpt>
      <trkpt lat="48.70634" lon="7.36649">
        <ele>230.34992981</ele>
        <time>2020-09-20T13:05:46Z</time>
      </trkpt>
      <trkpt lat="48.70625" lon="7.36657">
        <ele>231.55519104</ele>
        <time>2020-09-20T13:05:48Z</time>
      </trkpt>
      <trkpt lat="48.70612" lon="7.3667">
        <ele>232.22299194</ele>
        <time>2020-09-20T13:05:51Z</time>
      </trkpt>
      <trkpt lat="48.70604" lon="7.36676">
        <ele>232.22299194</ele>
        <time>2020-09-20T13:05:53Z</time>
      </trkpt>
      <trkpt lat="48.70595" lon="7.36684">
        <ele>232.22299194</ele>
        <time>2020-09-20T13:05:55Z</time>
      </trkpt>
      <trkpt lat="48.70585" lon="7.36691">
        <ele>232.94616699</ele>
        <time>2020-09-20T13:05:57Z</time>
      </trkpt>
      <trkpt lat="48.70576" lon="7.36699">
        <ele>232.94616699</ele>
        <time>2020-09-20T13:05:59Z</time>
      </trkpt>
      <trkpt lat="48.70565" lon="7.36705">
        <ele>232.94616699</ele>
        <time>2020-09-20T13:06:01Z</time>
      </trkpt>
      <trkpt lat="48.70554" lon="7.36712">
        <ele>232.94616699</ele>
        <time>2020-09-20T13:06:03Z</time>
      </trkpt>
      <trkpt lat="48.70544" lon="7.36722">
        <ele>234.03305054</ele>
        <time>2020-09-20T13:06:06Z</time>
      </trkpt>
      <trkpt lat="48.70534" lon="7.36731">
        <ele>234.03305054</ele>
        <time>2020-09-20T13:06:08Z</time>
      </trkpt>
      <trkpt lat="48.70525" lon="7.36739">
        <ele>234.03305054</ele>
        <time>2020-09-20T13:06:10Z</time>
      </trkpt>
      <trkpt lat="48.70515" lon="7.36747">
        <ele>234.03305054</ele>
        <time>2020-09-20T13:06:12Z</time>
      </trkpt>
      <trkpt lat="48.70504" lon="7.36752">
        <ele>234.03305054</ele>
        <time>2020-09-20T13:06:14Z</time>
      </trkpt>
      <trkpt lat="48.70494" lon="7.36758">
        <ele>234.03305054</ele>
        <time>2020-09-20T13:06:16Z</time>
      </trkpt>
      <trkpt lat="48.70486" lon="7.36767">
        <ele>234.03305054</ele>
        <time>2020-09-20T13:06:18Z</time>
      </trkpt>
      <trkpt lat="48.70477" lon="7.36774">
        <ele>234.03305054</ele>
        <time>2020-09-20T13:06:20Z</time>
      </trkpt>
      <trkpt lat="48.70468" lon="7.36781">
        <ele>234.03305054</ele>
        <time>2020-09-20T13:06:22Z</time>
      </trkpt>
      <trkpt lat="48.70458" lon="7.3679">
        <ele>234.53414917</ele>
        <time>2020-09-20T13:06:24Z</time>
      </trkpt>
      <trkpt lat="48.70446" lon="7.36798">
        <ele>232.28967285</ele>
        <time>2020-09-20T13:06:26Z</time>
      </trkpt>
      <trkpt lat="48.70431" lon="7.36808">
        <ele>230.56954956</ele>
        <time>2020-09-20T13:06:28Z</time>
      </trkpt>
      <trkpt lat="48.70415" lon="7.36817">
        <ele>229.07620239</ele>
        <time>2020-09-20T13:06:30Z</time>
      </trkpt>
      <trkpt lat="48.704" lon="7.36825">
        <ele>229.07620239</ele>
        <time>2020-09-20T13:06:32Z</time>
      </trkpt>
      <trkpt lat="48.70384" lon="7.36837">
        <ele>229.07620239</ele>
        <time>2020-09-20T13:06:34Z</time>
      </trkpt>
      <trkpt lat="48.70373" lon="7.36847">
        <ele>227.92610168</ele>
        <time>2020-09-20T13:06:35Z</time>
      </trkpt>
      <trkpt lat="48.70364" lon="7.36852">
        <ele>227.92610168</ele>
        <time>2020-09-20T13:06:37Z</time>
      </trkpt>
      <trkpt lat="48.70351" lon="7.36861">
        <ele>227.92610168</ele>
        <time>2020-09-20T13:06:39Z</time>
      </trkpt>
      <trkpt lat="48.70339" lon="7.36868">
        <ele>227.92610168</ele>
        <time>2020-09-20T13:06:41Z</time>
      </trkpt>
      <trkpt lat="48.70329" lon="7.36876">
        <ele>227.92610168</ele>
        <time>2020-09-20T13:06:43Z</time>
      </trkpt>
      <trkpt lat="48.70318" lon="7.36882">
        <ele>227.92610168</ele>
        <time>2020-09-20T13:06:45Z</time>
      </trkpt>
      <trkpt lat="48.70307" lon="7.36888">
        <ele>227.92610168</ele>
        <time>2020-09-20T13:06:47Z</time>
      </trkpt>
      <trkpt lat="48.70296" lon="7.36894">
        <ele>227.92610168</ele>
        <time>2020-09-20T13:06:49Z</time>
      </trkpt>
      <trkpt lat="48.70281" lon="7.36905">
        <ele>227.41242981</ele>
        <time>2020-09-20T13:06:51Z</time>
      </trkpt>
      <trkpt lat="48.70272" lon="7.36911">
        <ele>227.41242981</ele>
        <time>2020-09-20T13:06:53Z</time>
      </trkpt>
      <trkpt lat="48.70262" lon="7.36919">
        <ele>227.41242981</ele>
        <time>2020-09-20T13:06:55Z</time>
      </trkpt>
      <trkpt lat="48.70251" lon="7.36929">
        <ele>227.41242981</ele>
        <time>2020-09-20T13:06:57Z</time>
      </trkpt>
      <trkpt lat="48.70239" lon="7.36938">
        <ele>227.41242981</ele>
        <time>2020-09-20T13:06:59Z</time>
      </trkpt>
      <trkpt lat="48.70227" lon="7.36945">
        <ele>227.41242981</ele>
        <time>2020-09-20T13:07:01Z</time>
      </trkpt>
      <trkpt lat="48.70215" lon="7.36953">
        <ele>227.41242981</ele>
        <time>2020-09-20T13:07:03Z</time>
      </trkpt>
      <trkpt lat="48.70202" lon="7.36961">
        <ele>227.41242981</ele>
        <time>2020-09-20T13:07:05Z</time>
      </trkpt>
      <trkpt lat="48.70188" lon="7.3697">
        <ele>227.41242981</ele>
        <time>2020-09-20T13:07:07Z</time>
      </trkpt>
      <trkpt lat="48.70173" lon="7.36978">
        <ele>227.7868042</ele>
        <time>2020-09-20T13:07:09Z</time>
      </trkpt>
      <trkpt lat="48.70158" lon="7.36988">
        <ele>225.55509949</ele>
        <time>2020-09-20T13:07:11Z</time>
      </trkpt>
      <trkpt lat="48.70145" lon="7.36999">
        <ele>225.55509949</ele>
        <time>2020-09-20T13:07:13Z</time>
      </trkpt>
      <trkpt lat="48.70133" lon="7.37013">
        <ele>225.55509949</ele>
        <time>2020-09-20T13:07:15Z</time>
      </trkpt>
      <trkpt lat="48.70125" lon="7.3703">
        <ele>225.55509949</ele>
        <time>2020-09-20T13:07:17Z</time>
      </trkpt>
      <trkpt lat="48.70116" lon="7.37046">
        <ele>225.55509949</ele>
        <time>2020-09-20T13:07:19Z</time>
      </trkpt>
      <trkpt lat="48.70104" lon="7.3705">
        <ele>225.55509949</ele>
        <time>2020-09-20T13:07:21Z</time>
      </trkpt>
      <trkpt lat="48.70091" lon="7.37047">
        <ele>225.55509949</ele>
        <time>2020-09-20T13:07:23Z</time>
      </trkpt>
      <trkpt lat="48.70078" lon="7.37046">
        <ele>225.55509949</ele>
        <time>2020-09-20T13:07:25Z</time>
      </trkpt>
      <trkpt lat="48.70065" lon="7.37051">
        <ele>224.35255432</ele>
        <time>2020-09-20T13:07:27Z</time>
      </trkpt>
      <trkpt lat="48.70052" lon="7.37058">
        <ele>224.35255432</ele>
        <time>2020-09-20T13:07:29Z</time>
      </trkpt>
      <trkpt lat="48.70039" lon="7.37065">
        <ele>224.35255432</ele>
        <time>2020-09-20T13:07:31Z</time>
      </trkpt>
      <trkpt lat="48.70028" lon="7.37073">
        <ele>224.35255432</ele>
        <time>2020-09-20T13:07:33Z</time>
      </trkpt>
      <trkpt lat="48.70017" lon="7.37078">
        <ele>224.35255432</ele>
        <time>2020-09-20T13:07:35Z</time>
      </trkpt>
      <trkpt lat="48.70006" lon="7.37085">
        <ele>224.35255432</ele>
        <time>2020-09-20T13:07:37Z</time>
      </trkpt>
      <trkpt lat="48.69996" lon="7.37091">
        <ele>224.40396118</ele>
        <time>2020-09-20T13:07:39Z</time>
      </trkpt>
      <trkpt lat="48.69985" lon="7.37097">
        <ele>224.40396118</ele>
        <time>2020-09-20T13:07:41Z</time>
      </trkpt>
      <trkpt lat="48.69973" lon="7.37102">
        <ele>224.40396118</ele>
        <time>2020-09-20T13:07:43Z</time>
      </trkpt>
      <trkpt lat="48.69962" lon="7.3711">
        <ele>224.40396118</ele>
        <time>2020-09-20T13:07:45Z</time>
      </trkpt>
      <trkpt lat="48.69949" lon="7.37116">
        <ele>224.40396118</ele>
        <time>2020-09-20T13:07:47Z</time>
      </trkpt>
      <trkpt lat="48.69934" lon="7.3712">
        <ele>224.40396118</ele>
        <time>2020-09-20T13:07:49Z</time>
      </trkpt>
      <trkpt lat="48.69918" lon="7.37125">
        <ele>224.40396118</ele>
        <time>2020-09-20T13:07:51Z</time>
      </trkpt>
      <trkpt lat="48.69914" lon="7.37126">
        <ele>225.26979065</ele>
        <time>2020-09-20T13:07:52Z</time>
      </trkpt>
      <trkpt lat="48.69902" lon="7.3713">
        <ele>225.26979065</ele>
        <time>2020-09-20T13:07:53Z</time>
      </trkpt>
      <trkpt lat="48.69886" lon="7.37136">
        <ele>225.26979065</ele>
        <time>2020-09-20T13:07:55Z</time>
      </trkpt>
      <trkpt lat="48.6987" lon="7.37143">
        <ele>223.48303223</ele>
        <time>2020-09-20T13:07:57Z</time>
      </trkpt>
      <trkpt lat="48.69853" lon="7.3715">
        <ele>222.56118774</ele>
        <time>2020-09-20T13:07:59Z</time>
      </trkpt>
      <trkpt lat="48.6984" lon="7.37156">
        <ele>222.56118774</ele>
        <time>2020-09-20T13:08:00Z</time>
      </trkpt>
      <trkpt lat="48.69831" lon="7.37162">
        <ele>221.34825134</ele>
        <time>2020-09-20T13:08:01Z</time>
      </trkpt>
      <trkpt lat="48.69823" lon="7.37168">
        <ele>221.34825134</ele>
        <time>2020-09-20T13:08:02Z</time>
      </trkpt>
      <trkpt lat="48.69812" lon="7.37177">
        <ele>220.10087585</ele>
        <time>2020-09-20T13:08:04Z</time>
      </trkpt>
      <trkpt lat="48.698" lon="7.37188">
        <ele>220.10087585</ele>
        <time>2020-09-20T13:08:05Z</time>
      </trkpt>
      <trkpt lat="48.6979" lon="7.37199">
        <ele>220.10087585</ele>
        <time>2020-09-20T13:08:07Z</time>
      </trkpt>
      <trkpt lat="48.69777" lon="7.37214">
        <ele>220.10087585</ele>
        <time>2020-09-20T13:08:09Z</time>
      </trkpt>
      <trkpt lat="48.69763" lon="7.3723">
        <ele>220.10087585</ele>
        <time>2020-09-20T13:08:11Z</time>
      </trkpt>
      <trkpt lat="48.6975" lon="7.37246">
        <ele>219.06756592</ele>
        <time>2020-09-20T13:08:13Z</time>
      </trkpt>
      <trkpt lat="48.69737" lon="7.37262">
        <ele>219.06756592</ele>
        <time>2020-09-20T13:08:15Z</time>
      </trkpt>
      <trkpt lat="48.69723" lon="7.37279">
        <ele>218.0388031</ele>
        <time>2020-09-20T13:08:17Z</time>
      </trkpt>
      <trkpt lat="48.69708" lon="7.37295">
        <ele>216.42211914</ele>
        <time>2020-09-20T13:08:19Z</time>
      </trkpt>
      <trkpt lat="48.69697" lon="7.37309">
        <ele>216.42211914</ele>
        <time>2020-09-20T13:08:20Z</time>
      </trkpt>
      <trkpt lat="48.69688" lon="7.37317">
        <ele>214.97598267</ele>
        <time>2020-09-20T13:08:21Z</time>
      </trkpt>
      <trkpt lat="48.6968" lon="7.37325">
        <ele>214.97598267</ele>
        <time>2020-09-20T13:08:22Z</time>
      </trkpt>
      <trkpt lat="48.69671" lon="7.37332">
        <ele>213.66145325</ele>
        <time>2020-09-20T13:08:23Z</time>
      </trkpt>
      <trkpt lat="48.69661" lon="7.37339">
        <ele>213.66145325</ele>
        <time>2020-09-20T13:08:24Z</time>
      </trkpt>
      <trkpt lat="48.69654" lon="7.37347">
        <ele>213.66145325</ele>
        <time>2020-09-20T13:08:25Z</time>
      </trkpt>
      <trkpt lat="48.69645" lon="7.37354">
        <ele>212.5665741</ele>
        <time>2020-09-20T13:08:26Z</time>
      </trkpt>
      <trkpt lat="48.69637" lon="7.3736">
        <ele>212.5665741</ele>
        <time>2020-09-20T13:08:27Z</time>
      </trkpt>
      <trkpt lat="48.69629" lon="7.37367">
        <ele>212.5665741</ele>
        <time>2020-09-20T13:08:28Z</time>
      </trkpt>
      <trkpt lat="48.69617" lon="7.37375">
        <ele>211.65419006</ele>
        <time>2020-09-20T13:08:30Z</time>
      </trkpt>
      <trkpt lat="48.69601" lon="7.37387">
        <ele>211.65419006</ele>
        <time>2020-09-20T13:08:32Z</time>
      </trkpt>
      <trkpt lat="48.69587" lon="7.37399">
        <ele>211.65419006</ele>
        <time>2020-09-20T13:08:34Z</time>
      </trkpt>
      <trkpt lat="48.69575" lon="7.37411">
        <ele>211.65419006</ele>
        <time>2020-09-20T13:08:36Z</time>
      </trkpt>
      <trkpt lat="48.69562" lon="7.37424">
        <ele>211.65419006</ele>
        <time>2020-09-20T13:08:38Z</time>
      </trkpt>
      <trkpt lat="48.69551" lon="7.37439">
        <ele>211.65419006</ele>
        <time>2020-09-20T13:08:40Z</time>
      </trkpt>
      <trkpt lat="48.6954" lon="7.37452">
        <ele>211.65419006</ele>
        <time>2020-09-20T13:08:42Z</time>
      </trkpt>
      <trkpt lat="48.6953" lon="7.37465">
        <ele>211.65419006</ele>
        <time>2020-09-20T13:08:44Z</time>
      </trkpt>
      <trkpt lat="48.69519" lon="7.37477">
        <ele>211.65419006</ele>
        <time>2020-09-20T13:08:46Z</time>
      </trkpt>
      <trkpt lat="48.69507" lon="7.37492">
        <ele>211.65419006</ele>
        <time>2020-09-20T13:08:48Z</time>
      </trkpt>
      <trkpt lat="48.69495" lon="7.37508">
        <ele>211.65419006</ele>
        <time>2020-09-20T13:08:50Z</time>
      </trkpt>
      <trkpt lat="48.69485" lon="7.37519">
        <ele>211.03697205</ele>
        <time>2020-09-20T13:08:51Z</time>
      </trkpt>
      <trkpt lat="48.69476" lon="7.3753">
        <ele>211.03697205</ele>
        <time>2020-09-20T13:08:53Z</time>
      </trkpt>
      <trkpt lat="48.69466" lon="7.37541">
        <ele>211.03697205</ele>
        <time>2020-09-20T13:08:55Z</time>
      </trkpt>
      <trkpt lat="48.6946" lon="7.37555">
        <ele>211.03697205</ele>
        <time>2020-09-20T13:08:57Z</time>
      </trkpt>
      <trkpt lat="48.69453" lon="7.37572">
        <ele>211.03697205</ele>
        <time>2020-09-20T13:08:59Z</time>
      </trkpt>
      <trkpt lat="48.69444" lon="7.37584">
        <ele>211.03697205</ele>
        <time>2020-09-20T13:09:01Z</time>
      </trkpt>
      <trkpt lat="48.69433" lon="7.37596">
        <ele>211.22999573</ele>
        <time>2020-09-20T13:09:03Z</time>
      </trkpt>
      <trkpt lat="48.69424" lon="7.37608">
        <ele>211.22999573</ele>
        <time>2020-09-20T13:09:05Z</time>
      </trkpt>
      <trkpt lat="48.69416" lon="7.3762">
        <ele>211.22999573</ele>
        <time>2020-09-20T13:09:08Z</time>
      </trkpt>
      <trkpt lat="48.69406" lon="7.37629">
        <ele>212.45140076</ele>
        <time>2020-09-20T13:09:11Z</time>
      </trkpt>
      <trkpt lat="48.69395" lon="7.37629">
        <ele>212.45140076</ele>
        <time>2020-09-20T13:09:13Z</time>
      </trkpt>
      <trkpt lat="48.69384" lon="7.37629">
        <ele>212.45140076</ele>
        <time>2020-09-20T13:09:15Z</time>
      </trkpt>
      <trkpt lat="48.69374" lon="7.3763">
        <ele>212.45140076</ele>
        <time>2020-09-20T13:09:17Z</time>
      </trkpt>
      <trkpt lat="48.69363" lon="7.37634">
        <ele>212.45140076</ele>
        <time>2020-09-20T13:09:19Z</time>
      </trkpt>
      <trkpt lat="48.69353" lon="7.3764">
        <ele>212.45140076</ele>
        <time>2020-09-20T13:09:21Z</time>
      </trkpt>
      <trkpt lat="48.69342" lon="7.37648">
        <ele>212.45140076</ele>
        <time>2020-09-20T13:09:23Z</time>
      </trkpt>
      <trkpt lat="48.6933" lon="7.37656">
        <ele>212.45140076</ele>
        <time>2020-09-20T13:09:25Z</time>
      </trkpt>
      <trkpt lat="48.6932" lon="7.37664">
        <ele>212.45140076</ele>
        <time>2020-09-20T13:09:28Z</time>
      </trkpt>
      <trkpt lat="48.6931" lon="7.37674">
        <ele>213.26942444</ele>
        <time>2020-09-20T13:09:30Z</time>
      </trkpt>
      <trkpt lat="48.69301" lon="7.37685">
        <ele>213.26942444</ele>
        <time>2020-09-20T13:09:32Z</time>
      </trkpt>
      <trkpt lat="48.69291" lon="7.37698">
        <ele>213.26942444</ele>
        <time>2020-09-20T13:09:34Z</time>
      </trkpt>
      <trkpt lat="48.69281" lon="7.37711">
        <ele>213.26942444</ele>
        <time>2020-09-20T13:09:36Z</time>
      </trkpt>
      <trkpt lat="48.69272" lon="7.37722">
        <ele>213.26942444</ele>
        <time>2020-09-20T13:09:38Z</time>
      </trkpt>
      <trkpt lat="48.69264" lon="7.37735">
        <ele>213.26942444</ele>
        <time>2020-09-20T13:09:40Z</time>
      </trkpt>
      <trkpt lat="48.69254" lon="7.37748">
        <ele>213.26942444</ele>
        <time>2020-09-20T13:09:42Z</time>
      </trkpt>
      <trkpt lat="48.69246" lon="7.37761">
        <ele>214.65194702</ele>
        <time>2020-09-20T13:09:44Z</time>
      </trkpt>
      <trkpt lat="48.69238" lon="7.37776">
        <ele>214.65194702</ele>
        <time>2020-09-20T13:09:46Z</time>
      </trkpt>
      <trkpt lat="48.69228" lon="7.37793">
        <ele>214.65194702</ele>
        <time>2020-09-20T13:09:48Z</time>
      </trkpt>
      <trkpt lat="48.69219" lon="7.37809">
        <ele>214.65194702</ele>
        <time>2020-09-20T13:09:50Z</time>
      </trkpt>
      <trkpt lat="48.69212" lon="7.37818">
        <ele>215.28155518</ele>
        <time>2020-09-20T13:09:51Z</time>
      </trkpt>
      <trkpt lat="48.69206" lon="7.37829">
        <ele>215.28155518</ele>
        <time>2020-09-20T13:09:53Z</time>
      </trkpt>
      <trkpt lat="48.692" lon="7.37846">
        <ele>215.28155518</ele>
        <time>2020-09-20T13:09:55Z</time>
      </trkpt>
      <trkpt lat="48.69194" lon="7.37861">
        <ele>215.28155518</ele>
        <time>2020-09-20T13:09:57Z</time>
      </trkpt>
      <trkpt lat="48.69189" lon="7.37876">
        <ele>215.28155518</ele>
        <time>2020-09-20T13:09:59Z</time>
      </trkpt>
      <trkpt lat="48.69181" lon="7.37889">
        <ele>215.28155518</ele>
        <time>2020-09-20T13:10:01Z</time>
      </trkpt>
      <trkpt lat="48.69174" lon="7.37902">
        <ele>215.28155518</ele>
        <time>2020-09-20T13:10:03Z</time>
      </trkpt>
      <trkpt lat="48.69166" lon="7.37913">
        <ele>215.28155518</ele>
        <time>2020-09-20T13:10:05Z</time>
      </trkpt>
      <trkpt lat="48.69163" lon="7.37926">
        <ele>215.28155518</ele>
        <time>2020-09-20T13:10:07Z</time>
      </trkpt>
      <trkpt lat="48.69159" lon="7.37945">
        <ele>215.28155518</ele>
        <time>2020-09-20T13:10:09Z</time>
      </trkpt>
      <trkpt lat="48.69153" lon="7.37961">
        <ele>215.28155518</ele>
        <time>2020-09-20T13:10:11Z</time>
      </trkpt>
      <trkpt lat="48.69146" lon="7.37978">
        <ele>215.28155518</ele>
        <time>2020-09-20T13:10:13Z</time>
      </trkpt>
      <trkpt lat="48.69143" lon="7.37997">
        <ele>215.28155518</ele>
        <time>2020-09-20T13:10:15Z</time>
      </trkpt>
      <trkpt lat="48.69136" lon="7.38013">
        <ele>215.28155518</ele>
        <time>2020-09-20T13:10:17Z</time>
      </trkpt>
      <trkpt lat="48.69128" lon="7.38026">
        <ele>215.66593933</ele>
        <time>2020-09-20T13:10:19Z</time>
      </trkpt>
      <trkpt lat="48.69122" lon="7.38042">
        <ele>215.66593933</ele>
        <time>2020-09-20T13:10:21Z</time>
      </trkpt>
      <trkpt lat="48.69117" lon="7.38056">
        <ele>215.66593933</ele>
        <time>2020-09-20T13:10:23Z</time>
      </trkpt>
      <trkpt lat="48.69111" lon="7.38068">
        <ele>216.71864319</ele>
        <time>2020-09-20T13:10:25Z</time>
      </trkpt>
      <trkpt lat="48.69104" lon="7.3808">
        <ele>216.71864319</ele>
        <time>2020-09-20T13:10:27Z</time>
      </trkpt>
      <trkpt lat="48.69098" lon="7.38091">
        <ele>216.71864319</ele>
        <time>2020-09-20T13:10:30Z</time>
      </trkpt>
      <trkpt lat="48.69087" lon="7.381">
        <ele>217.90663147</ele>
        <time>2020-09-20T13:10:33Z</time>
      </trkpt>
      <trkpt lat="48.69075" lon="7.38107">
        <ele>217.90663147</ele>
        <time>2020-09-20T13:10:36Z</time>
      </trkpt>
      <trkpt lat="48.69058" lon="7.38108">
        <ele>217.90663147</ele>
        <time>2020-09-20T13:10:38Z</time>
      </trkpt>
      <trkpt lat="48.69046" lon="7.3811">
        <ele>217.90663147</ele>
        <time>2020-09-20T13:10:41Z</time>
      </trkpt>
      <trkpt lat="48.69036" lon="7.38112">
        <ele>217.90663147</ele>
        <time>2020-09-20T13:10:43Z</time>
      </trkpt>
      <trkpt lat="48.69026" lon="7.38121">
        <ele>217.90663147</ele>
        <time>2020-09-20T13:10:46Z</time>
      </trkpt>
      <trkpt lat="48.69019" lon="7.38135">
        <ele>217.90663147</ele>
        <time>2020-09-20T13:10:48Z</time>
      </trkpt>
      <trkpt lat="48.69009" lon="7.38146">
        <ele>218.36474609</ele>
        <time>2020-09-20T13:10:51Z</time>
      </trkpt>
      <trkpt lat="48.69005" lon="7.38154">
        <ele>218.36474609</ele>
        <time>2020-09-20T13:10:54Z</time>
      </trkpt>
      <trkpt lat="48.68999" lon="7.38171">
        <ele>218.36474609</ele>
        <time>2020-09-20T13:10:56Z</time>
      </trkpt>
      <trkpt lat="48.68992" lon="7.38192">
        <ele>218.36474609</ele>
        <time>2020-09-20T13:10:58Z</time>
      </trkpt>
      <trkpt lat="48.68984" lon="7.38211">
        <ele>218.36474609</ele>
        <time>2020-09-20T13:11:00Z</time>
      </trkpt>
      <trkpt lat="48.68978" lon="7.38226">
        <ele>218.36474609</ele>
        <time>2020-09-20T13:11:02Z</time>
      </trkpt>
      <trkpt lat="48.68972" lon="7.38238">
        <ele>218.36474609</ele>
        <time>2020-09-20T13:11:04Z</time>
      </trkpt>
      <trkpt lat="48.6896" lon="7.38251">
        <ele>218.36474609</ele>
        <time>2020-09-20T13:11:06Z</time>
      </trkpt>
      <trkpt lat="48.68945" lon="7.38257">
        <ele>218.36474609</ele>
        <time>2020-09-20T13:11:08Z</time>
      </trkpt>
      <trkpt lat="48.68932" lon="7.38256">
        <ele>218.36474609</ele>
        <time>2020-09-20T13:11:10Z</time>
      </trkpt>
      <trkpt lat="48.6892" lon="7.38253">
        <ele>218.36474609</ele>
        <time>2020-09-20T13:11:12Z</time>
      </trkpt>
      <trkpt lat="48.68909" lon="7.38246">
        <ele>218.36474609</ele>
        <time>2020-09-20T13:11:14Z</time>
      </trkpt>
      <trkpt lat="48.68897" lon="7.3824">
        <ele>218.36474609</ele>
        <time>2020-09-20T13:11:16Z</time>
      </trkpt>
      <trkpt lat="48.68885" lon="7.38234">
        <ele>218.36474609</ele>
        <time>2020-09-20T13:11:18Z</time>
      </trkpt>
      <trkpt lat="48.68873" lon="7.38227">
        <ele>218.36474609</ele>
        <time>2020-09-20T13:11:20Z</time>
      </trkpt>
      <trkpt lat="48.6886" lon="7.38219">
        <ele>218.36474609</ele>
        <time>2020-09-20T13:11:22Z</time>
      </trkpt>
      <trkpt lat="48.68847" lon="7.38212">
        <ele>218.36474609</ele>
        <time>2020-09-20T13:11:24Z</time>
      </trkpt>
      <trkpt lat="48.68834" lon="7.38209">
        <ele>218.36474609</ele>
        <time>2020-09-20T13:11:26Z</time>
      </trkpt>
      <trkpt lat="48.68822" lon="7.38205">
        <ele>218.36474609</ele>
        <time>2020-09-20T13:11:28Z</time>
      </trkpt>
      <trkpt lat="48.68811" lon="7.38201">
        <ele>218.36474609</ele>
        <time>2020-09-20T13:11:30Z</time>
      </trkpt>
      <trkpt lat="48.68802" lon="7.382">
        <ele>217.58850098</ele>
        <time>2020-09-20T13:11:32Z</time>
      </trkpt>
      <trkpt lat="48.68793" lon="7.38202">
        <ele>217.58850098</ele>
        <time>2020-09-20T13:11:34Z</time>
      </trkpt>
      <trkpt lat="48.68783" lon="7.38206">
        <ele>219.60707092</ele>
        <time>2020-09-20T13:11:36Z</time>
      </trkpt>
      <trkpt lat="48.68772" lon="7.3821">
        <ele>219.60707092</ele>
        <time>2020-09-20T13:11:38Z</time>
      </trkpt>
      <trkpt lat="48.68761" lon="7.38213">
        <ele>219.60707092</ele>
        <time>2020-09-20T13:11:40Z</time>
      </trkpt>
      <trkpt lat="48.68751" lon="7.38216">
        <ele>220.95861816</ele>
        <time>2020-09-20T13:11:42Z</time>
      </trkpt>
      <trkpt lat="48.6874" lon="7.38217">
        <ele>220.95861816</ele>
        <time>2020-09-20T13:11:44Z</time>
      </trkpt>
      <trkpt lat="48.6873" lon="7.3822">
        <ele>222.24653625</ele>
        <time>2020-09-20T13:11:46Z</time>
      </trkpt>
      <trkpt lat="48.6872" lon="7.38223">
        <ele>222.24653625</ele>
        <time>2020-09-20T13:11:48Z</time>
      </trkpt>
      <trkpt lat="48.68709" lon="7.38224">
        <ele>222.24653625</ele>
        <time>2020-09-20T13:11:50Z</time>
      </trkpt>
      <trkpt lat="48.687" lon="7.38227">
        <ele>222.98995972</ele>
        <time>2020-09-20T13:11:51Z</time>
      </trkpt>
      <trkpt lat="48.68693" lon="7.3823">
        <ele>222.98995972</ele>
        <time>2020-09-20T13:11:53Z</time>
      </trkpt>
      <trkpt lat="48.68684" lon="7.38225">
        <ele>224.10145569</ele>
        <time>2020-09-20T13:11:55Z</time>
      </trkpt>
      <trkpt lat="48.68678" lon="7.38208">
        <ele>224.10145569</ele>
        <time>2020-09-20T13:11:57Z</time>
      </trkpt>
      <trkpt lat="48.6867" lon="7.38195">
        <ele>225.35829163</ele>
        <time>2020-09-20T13:11:59Z</time>
      </trkpt>
      <trkpt lat="48.68664" lon="7.3818">
        <ele>226.3927002</ele>
        <time>2020-09-20T13:12:01Z</time>
      </trkpt>
      <trkpt lat="48.68657" lon="7.38165">
        <ele>226.3927002</ele>
        <time>2020-09-20T13:12:03Z</time>
      </trkpt>
      <trkpt lat="48.68652" lon="7.38151">
        <ele>226.3927002</ele>
        <time>2020-09-20T13:12:05Z</time>
      </trkpt>
      <trkpt lat="48.68643" lon="7.38143">
        <ele>227.41462708</ele>
        <time>2020-09-20T13:12:07Z</time>
      </trkpt>
      <trkpt lat="48.68633" lon="7.38138">
        <ele>227.41462708</ele>
        <time>2020-09-20T13:12:09Z</time>
      </trkpt>
      <trkpt lat="48.68624" lon="7.38139">
        <ele>228.51928711</ele>
        <time>2020-09-20T13:12:11Z</time>
      </trkpt>
      <trkpt lat="48.68614" lon="7.3814">
        <ele>228.51928711</ele>
        <time>2020-09-20T13:12:13Z</time>
      </trkpt>
      <trkpt lat="48.68603" lon="7.3814">
        <ele>229.62223816</ele>
        <time>2020-09-20T13:12:15Z</time>
      </trkpt>
      <trkpt lat="48.68593" lon="7.38138">
        <ele>229.62223816</ele>
        <time>2020-09-20T13:12:18Z</time>
      </trkpt>
      <trkpt lat="48.6858" lon="7.38136">
        <ele>230.72737122</ele>
        <time>2020-09-20T13:12:20Z</time>
      </trkpt>
      <trkpt lat="48.68569" lon="7.38136">
        <ele>231.91848755</ele>
        <time>2020-09-20T13:12:23Z</time>
      </trkpt>
      <trkpt lat="48.68556" lon="7.38135">
        <ele>231.91848755</ele>
        <time>2020-09-20T13:12:26Z</time>
      </trkpt>
      <trkpt lat="48.68544" lon="7.38135">
        <ele>233.06486511</ele>
        <time>2020-09-20T13:12:29Z</time>
      </trkpt>
      <trkpt lat="48.68533" lon="7.38136">
        <ele>234.22846985</ele>
        <time>2020-09-20T13:12:32Z</time>
      </trkpt>
      <trkpt lat="48.68524" lon="7.38132">
        <ele>234.22846985</ele>
        <time>2020-09-20T13:12:35Z</time>
      </trkpt>
      <trkpt lat="48.68514" lon="7.38127">
        <ele>235.30882263</ele>
        <time>2020-09-20T13:12:38Z</time>
      </trkpt>
      <trkpt lat="48.68503" lon="7.38122">
        <ele>236.63581848</ele>
        <time>2020-09-20T13:12:41Z</time>
      </trkpt>
      <trkpt lat="48.68492" lon="7.38115">
        <ele>237.78721619</ele>
        <time>2020-09-20T13:12:44Z</time>
      </trkpt>
      <trkpt lat="48.68481" lon="7.38107">
        <ele>237.78721619</ele>
        <time>2020-09-20T13:12:47Z</time>
      </trkpt>
      <trkpt lat="48.6847" lon="7.38097">
        <ele>238.93464661</ele>
        <time>2020-09-20T13:12:50Z</time>
      </trkpt>
      <trkpt lat="48.68464" lon="7.38089">
        <ele>239.94792175</ele>
        <time>2020-09-20T13:12:51Z</time>
      </trkpt>
      <trkpt lat="48.68459" lon="7.38082">
        <ele>239.94792175</ele>
        <time>2020-09-20T13:12:54Z</time>
      </trkpt>
      <trkpt lat="48.68449" lon="7.38071">
        <ele>240.85740662</ele>
        <time>2020-09-20T13:12:57Z</time>
      </trkpt>
      <trkpt lat="48.6844" lon="7.3806">
        <ele>241.92784119</ele>
        <time>2020-09-20T13:13:00Z</time>
      </trkpt>
      <trkpt lat="48.68429" lon="7.38052">
        <ele>241.92784119</ele>
        <time>2020-09-20T13:13:03Z</time>
      </trkpt>
      <trkpt lat="48.68419" lon="7.38046">
        <ele>242.95146179</ele>
        <time>2020-09-20T13:13:06Z</time>
      </trkpt>
      <trkpt lat="48.68409" lon="7.38043">
        <ele>244.20942688</ele>
        <time>2020-09-20T13:13:09Z</time>
      </trkpt>
      <trkpt lat="48.684" lon="7.38043">
        <ele>245.51591492</ele>
        <time>2020-09-20T13:13:12Z</time>
      </trkpt>
      <trkpt lat="48.68393" lon="7.38034">
        <ele>245.51591492</ele>
        <time>2020-09-20T13:13:15Z</time>
      </trkpt>
      <trkpt lat="48.68388" lon="7.38018">
        <ele>246.67634583</ele>
        <time>2020-09-20T13:13:17Z</time>
      </trkpt>
      <trkpt lat="48.68382" lon="7.38004">
        <ele>246.67634583</ele>
        <time>2020-09-20T13:13:20Z</time>
      </trkpt>
      <trkpt lat="48.68374" lon="7.38">
        <ele>247.48460388</ele>
        <time>2020-09-20T13:13:25Z</time>
      </trkpt>
      <trkpt lat="48.68362" lon="7.38">
        <ele>247.48460388</ele>
        <time>2020-09-20T13:13:28Z</time>
      </trkpt>
      <trkpt lat="48.68352" lon="7.37995">
        <ele>248.80111694</ele>
        <time>2020-09-20T13:13:31Z</time>
      </trkpt>
      <trkpt lat="48.68342" lon="7.37993">
        <ele>249.96359253</ele>
        <time>2020-09-20T13:13:34Z</time>
      </trkpt>
      <trkpt lat="48.68333" lon="7.37988">
        <ele>251.12792969</ele>
        <time>2020-09-20T13:13:38Z</time>
      </trkpt>
      <trkpt lat="48.68321" lon="7.37984">
        <ele>252.09046936</ele>
        <time>2020-09-20T13:13:41Z</time>
      </trkpt>
      <trkpt lat="48.68311" lon="7.37979">
        <ele>252.09046936</ele>
        <time>2020-09-20T13:13:44Z</time>
      </trkpt>
      <trkpt lat="48.68303" lon="7.37974">
        <ele>253.19189453</ele>
        <time>2020-09-20T13:13:47Z</time>
      </trkpt>
      <trkpt lat="48.68292" lon="7.37969">
        <ele>253.19189453</ele>
        <time>2020-09-20T13:13:50Z</time>
      </trkpt>
      <trkpt lat="48.68285" lon="7.37966">
        <ele>254.60346985</ele>
        <time>2020-09-20T13:13:51Z</time>
      </trkpt>
      <trkpt lat="48.6828" lon="7.3796">
        <ele>254.60346985</ele>
        <time>2020-09-20T13:13:54Z</time>
      </trkpt>
      <trkpt lat="48.68269" lon="7.37953">
        <ele>255.19306946</ele>
        <time>2020-09-20T13:13:57Z</time>
      </trkpt>
      <trkpt lat="48.68261" lon="7.37944">
        <ele>255.19306946</ele>
        <time>2020-09-20T13:14:00Z</time>
      </trkpt>
      <trkpt lat="48.68252" lon="7.37935">
        <ele>255.19306946</ele>
        <time>2020-09-20T13:14:03Z</time>
      </trkpt>
      <trkpt lat="48.68242" lon="7.37927">
        <ele>255.19306946</ele>
        <time>2020-09-20T13:14:06Z</time>
      </trkpt>
      <trkpt lat="48.68232" lon="7.37918">
        <ele>256.20269775</ele>
        <time>2020-09-20T13:14:09Z</time>
      </trkpt>
      <trkpt lat="48.68221" lon="7.37909">
        <ele>256.20269775</ele>
        <time>2020-09-20T13:14:12Z</time>
      </trkpt>
      <trkpt lat="48.6821" lon="7.37901">
        <ele>256.20269775</ele>
        <time>2020-09-20T13:14:14Z</time>
      </trkpt>
      <trkpt lat="48.68203" lon="7.37892">
        <ele>256.20269775</ele>
        <time>2020-09-20T13:14:17Z</time>
      </trkpt>
      <trkpt lat="48.68192" lon="7.37882">
        <ele>256.20269775</ele>
        <time>2020-09-20T13:14:20Z</time>
      </trkpt>
      <trkpt lat="48.68179" lon="7.37876">
        <ele>257.15179443</ele>
        <time>2020-09-20T13:14:23Z</time>
      </trkpt>
      <trkpt lat="48.68168" lon="7.3787">
        <ele>257.15179443</ele>
        <time>2020-09-20T13:14:26Z</time>
      </trkpt>
      <trkpt lat="48.68156" lon="7.37864">
        <ele>257.15179443</ele>
        <time>2020-09-20T13:14:29Z</time>
      </trkpt>
      <trkpt lat="48.68145" lon="7.37859">
        <ele>258.31942749</ele>
        <time>2020-09-20T13:14:32Z</time>
      </trkpt>
      <trkpt lat="48.68134" lon="7.37855">
        <ele>258.31942749</ele>
        <time>2020-09-20T13:14:34Z</time>
      </trkpt>
      <trkpt lat="48.68124" lon="7.37852">
        <ele>258.31942749</ele>
        <time>2020-09-20T13:14:37Z</time>
      </trkpt>
      <trkpt lat="48.68114" lon="7.37847">
        <ele>258.31942749</ele>
        <time>2020-09-20T13:14:40Z</time>
      </trkpt>
      <trkpt lat="48.68101" lon="7.37842">
        <ele>258.31942749</ele>
        <time>2020-09-20T13:14:43Z</time>
      </trkpt>
      <trkpt lat="48.68089" lon="7.37836">
        <ele>259.36428833</ele>
        <time>2020-09-20T13:14:46Z</time>
      </trkpt>
      <trkpt lat="48.68079" lon="7.37834">
        <ele>259.36428833</ele>
        <time>2020-09-20T13:14:48Z</time>
      </trkpt>
      <trkpt lat="48.68065" lon="7.37829">
        <ele>260.36950684</ele>
        <time>2020-09-20T13:14:51Z</time>
      </trkpt>
      <trkpt lat="48.68057" lon="7.37826">
        <ele>260.36950684</ele>
        <time>2020-09-20T13:14:54Z</time>
      </trkpt>
      <trkpt lat="48.68045" lon="7.37821">
        <ele>260.36950684</ele>
        <time>2020-09-20T13:14:57Z</time>
      </trkpt>
      <trkpt lat="48.68033" lon="7.37816">
        <ele>260.36950684</ele>
        <time>2020-09-20T13:15:00Z</time>
      </trkpt>
      <trkpt lat="48.6802" lon="7.37811">
        <ele>261.22006226</ele>
        <time>2020-09-20T13:15:03Z</time>
      </trkpt>
      <trkpt lat="48.68008" lon="7.37805">
        <ele>261.22006226</ele>
        <time>2020-09-20T13:15:06Z</time>
      </trkpt>
      <trkpt lat="48.67997" lon="7.37801">
        <ele>262.35037231</ele>
        <time>2020-09-20T13:15:09Z</time>
      </trkpt>
      <trkpt lat="48.67985" lon="7.37797">
        <ele>263.58624268</ele>
        <time>2020-09-20T13:15:12Z</time>
      </trkpt>
      <trkpt lat="48.67975" lon="7.37792">
        <ele>263.58624268</ele>
        <time>2020-09-20T13:15:15Z</time>
      </trkpt>
      <trkpt lat="48.67965" lon="7.37786">
        <ele>264.77224731</ele>
        <time>2020-09-20T13:15:18Z</time>
      </trkpt>
      <trkpt lat="48.67955" lon="7.37781">
        <ele>265.84609985</ele>
        <time>2020-09-20T13:15:21Z</time>
      </trkpt>
      <trkpt lat="48.67944" lon="7.37776">
        <ele>267.02832031</ele>
        <time>2020-09-20T13:15:24Z</time>
      </trkpt>
      <trkpt lat="48.67934" lon="7.3777">
        <ele>268.19921875</ele>
        <time>2020-09-20T13:15:27Z</time>
      </trkpt>
      <trkpt lat="48.67925" lon="7.37763">
        <ele>269.47940063</ele>
        <time>2020-09-20T13:15:31Z</time>
      </trkpt>
      <trkpt lat="48.67915" lon="7.37757">
        <ele>269.47940063</ele>
        <time>2020-09-20T13:15:34Z</time>
      </trkpt>
      <trkpt lat="48.67905" lon="7.37752">
        <ele>270.73318481</ele>
        <time>2020-09-20T13:15:37Z</time>
      </trkpt>
      <trkpt lat="48.67896" lon="7.37745">
        <ele>271.94876099</ele>
        <time>2020-09-20T13:15:41Z</time>
      </trkpt>
      <trkpt lat="48.67885" lon="7.37738">
        <ele>273.17959595</ele>
        <time>2020-09-20T13:15:44Z</time>
      </trkpt>
      <trkpt lat="48.67875" lon="7.37733">
        <ele>274.37921143</ele>
        <time>2020-09-20T13:15:47Z</time>
      </trkpt>
      <trkpt lat="48.67862" lon="7.37724">
        <ele>276.09106445</ele>
        <time>2020-09-20T13:15:51Z</time>
      </trkpt>
      <trkpt lat="48.67856" lon="7.3772">
        <ele>276.09106445</ele>
        <time>2020-09-20T13:15:54Z</time>
      </trkpt>
      <trkpt lat="48.67846" lon="7.37711">
        <ele>276.92681885</ele>
        <time>2020-09-20T13:15:58Z</time>
      </trkpt>
      <trkpt lat="48.67836" lon="7.37702">
        <ele>278.27468872</ele>
        <time>2020-09-20T13:16:01Z</time>
      </trkpt>
      <trkpt lat="48.67825" lon="7.37695">
        <ele>279.38729858</ele>
        <time>2020-09-20T13:16:04Z</time>
      </trkpt>
      <trkpt lat="48.67818" lon="7.37687">
        <ele>280.45492554</ele>
        <time>2020-09-20T13:16:07Z</time>
      </trkpt>
      <trkpt lat="48.6781" lon="7.37681">
        <ele>280.45492554</ele>
        <time>2020-09-20T13:16:10Z</time>
      </trkpt>
      <trkpt lat="48.67802" lon="7.37673">
        <ele>281.6076355</ele>
        <time>2020-09-20T13:16:13Z</time>
      </trkpt>
      <trkpt lat="48.67794" lon="7.37664">
        <ele>282.80419922</ele>
        <time>2020-09-20T13:16:17Z</time>
      </trkpt>
      <trkpt lat="48.67783" lon="7.37658">
        <ele>284.0854187</ele>
        <time>2020-09-20T13:16:20Z</time>
      </trkpt>
      <trkpt lat="48.67772" lon="7.37653">
        <ele>285.41601562</ele>
        <time>2020-09-20T13:16:23Z</time>
      </trkpt>
      <trkpt lat="48.67764" lon="7.37646">
        <ele>286.51708984</ele>
        <time>2020-09-20T13:16:27Z</time>
      </trkpt>
      <trkpt lat="48.67754" lon="7.37645">
        <ele>287.49890137</ele>
        <time>2020-09-20T13:16:31Z</time>
      </trkpt>
      <trkpt lat="48.67743" lon="7.37648">
        <ele>287.49890137</ele>
        <time>2020-09-20T13:16:34Z</time>
      </trkpt>
      <trkpt lat="48.67732" lon="7.37651">
        <ele>288.4649353</ele>
        <time>2020-09-20T13:16:38Z</time>
      </trkpt>
      <trkpt lat="48.67724" lon="7.37648">
        <ele>288.4649353</ele>
        <time>2020-09-20T13:16:42Z</time>
      </trkpt>
      <trkpt lat="48.67712" lon="7.37645">
        <ele>289.64526367</ele>
        <time>2020-09-20T13:16:46Z</time>
      </trkpt>
      <trkpt lat="48.67703" lon="7.3764">
        <ele>290.78814697</ele>
        <time>2020-09-20T13:16:50Z</time>
      </trkpt>
      <trkpt lat="48.67698" lon="7.37635">
        <ele>291.6293335</ele>
        <time>2020-09-20T13:16:51Z</time>
      </trkpt>
      <trkpt lat="48.67691" lon="7.37631">
        <ele>292.38293457</ele>
        <time>2020-09-20T13:16:55Z</time>
      </trkpt>
      <trkpt lat="48.6768" lon="7.37626">
        <ele>293.49414062</ele>
        <time>2020-09-20T13:16:59Z</time>
      </trkpt>
      <trkpt lat="48.6767" lon="7.37621">
        <ele>294.63375854</ele>
        <time>2020-09-20T13:17:03Z</time>
      </trkpt>
      <trkpt lat="48.67661" lon="7.37614">
        <ele>294.63375854</ele>
        <time>2020-09-20T13:17:07Z</time>
      </trkpt>
      <trkpt lat="48.67651" lon="7.37608">
        <ele>295.86233521</ele>
        <time>2020-09-20T13:17:11Z</time>
      </trkpt>
      <trkpt lat="48.67642" lon="7.37601">
        <ele>296.87850952</ele>
        <time>2020-09-20T13:17:15Z</time>
      </trkpt>
      <trkpt lat="48.67633" lon="7.37597">
        <ele>297.95239258</ele>
        <time>2020-09-20T13:17:19Z</time>
      </trkpt>
      <trkpt lat="48.67624" lon="7.3759">
        <ele>299.03094482</ele>
        <time>2020-09-20T13:17:24Z</time>
      </trkpt>
      <trkpt lat="48.67614" lon="7.37581">
        <ele>300.20501709</ele>
        <time>2020-09-20T13:17:28Z</time>
      </trkpt>
      <trkpt lat="48.67606" lon="7.37575">
        <ele>300.20501709</ele>
        <time>2020-09-20T13:17:31Z</time>
      </trkpt>
      <trkpt lat="48.67596" lon="7.37572">
        <ele>301.23278809</ele>
        <time>2020-09-20T13:17:34Z</time>
      </trkpt>
      <trkpt lat="48.67588" lon="7.37565">
        <ele>301.23278809</ele>
        <time>2020-09-20T13:17:37Z</time>
      </trkpt>
      <trkpt lat="48.67579" lon="7.3756">
        <ele>301.23278809</ele>
        <time>2020-09-20T13:17:40Z</time>
      </trkpt>
      <trkpt lat="48.6757" lon="7.37555">
        <ele>301.23278809</ele>
        <time>2020-09-20T13:17:43Z</time>
      </trkpt>
      <trkpt lat="48.67559" lon="7.3755">
        <ele>302.15356445</ele>
        <time>2020-09-20T13:17:46Z</time>
      </trkpt>
      <trkpt lat="48.67549" lon="7.37547">
        <ele>302.15356445</ele>
        <time>2020-09-20T13:17:49Z</time>
      </trkpt>
      <trkpt lat="48.67541" lon="7.37545">
        <ele>302.84936523</ele>
        <time>2020-09-20T13:17:51Z</time>
      </trkpt>
      <trkpt lat="48.67532" lon="7.37543">
        <ele>302.84936523</ele>
        <time>2020-09-20T13:17:54Z</time>
      </trkpt>
      <trkpt lat="48.67521" lon="7.3754">
        <ele>303.47180176</ele>
        <time>2020-09-20T13:17:58Z</time>
      </trkpt>
      <trkpt lat="48.6751" lon="7.37533">
        <ele>303.47180176</ele>
        <time>2020-09-20T13:18:02Z</time>
      </trkpt>
      <trkpt lat="48.67501" lon="7.37528">
        <ele>304.68618774</ele>
        <time>2020-09-20T13:18:05Z</time>
      </trkpt>
      <trkpt lat="48.67492" lon="7.37518">
        <ele>306.05664062</ele>
        <time>2020-09-20T13:18:09Z</time>
      </trkpt>
      <trkpt lat="48.67483" lon="7.37508">
        <ele>307.22024536</ele>
        <time>2020-09-20T13:18:12Z</time>
      </trkpt>
      <trkpt lat="48.67476" lon="7.375">
        <ele>307.22024536</ele>
        <time>2020-09-20T13:18:15Z</time>
      </trkpt>
      <trkpt lat="48.67466" lon="7.37492">
        <ele>308.29040527</ele>
        <time>2020-09-20T13:18:18Z</time>
      </trkpt>
      <trkpt lat="48.67458" lon="7.37484">
        <ele>308.29040527</ele>
        <time>2020-09-20T13:18:21Z</time>
      </trkpt>
      <trkpt lat="48.67448" lon="7.37475">
        <ele>308.29040527</ele>
        <time>2020-09-20T13:18:24Z</time>
      </trkpt>
      <trkpt lat="48.67439" lon="7.37465">
        <ele>309.28567505</ele>
        <time>2020-09-20T13:18:27Z</time>
      </trkpt>
      <trkpt lat="48.67429" lon="7.37457">
        <ele>309.28567505</ele>
        <time>2020-09-20T13:18:30Z</time>
      </trkpt>
      <trkpt lat="48.67421" lon="7.37448">
        <ele>310.40411377</ele>
        <time>2020-09-20T13:18:33Z</time>
      </trkpt>
      <trkpt lat="48.67413" lon="7.3744">
        <ele>310.40411377</ele>
        <time>2020-09-20T13:18:36Z</time>
      </trkpt>
      <trkpt lat="48.67405" lon="7.37431">
        <ele>311.58529663</ele>
        <time>2020-09-20T13:18:39Z</time>
      </trkpt>
      <trkpt lat="48.67399" lon="7.37421">
        <ele>311.58529663</ele>
        <time>2020-09-20T13:18:42Z</time>
      </trkpt>
      <trkpt lat="48.67391" lon="7.37412">
        <ele>312.81985474</ele>
        <time>2020-09-20T13:18:45Z</time>
      </trkpt>
      <trkpt lat="48.67381" lon="7.37402">
        <ele>312.81985474</ele>
        <time>2020-09-20T13:18:48Z</time>
      </trkpt>
      <trkpt lat="48.67371" lon="7.37394">
        <ele>313.89694214</ele>
        <time>2020-09-20T13:18:50Z</time>
      </trkpt>
      <trkpt lat="48.67364" lon="7.37388">
        <ele>314.35455322</ele>
        <time>2020-09-20T13:18:51Z</time>
      </trkpt>
      <trkpt lat="48.67357" lon="7.37379">
        <ele>314.35455322</ele>
        <time>2020-09-20T13:18:54Z</time>
      </trkpt>
      <trkpt lat="48.67347" lon="7.37367">
        <ele>314.35455322</ele>
        <time>2020-09-20T13:18:57Z</time>
      </trkpt>
      <trkpt lat="48.67338" lon="7.37357">
        <ele>314.35455322</ele>
        <time>2020-09-20T13:19:00Z</time>
      </trkpt>
      <trkpt lat="48.67328" lon="7.37349">
        <ele>314.35455322</ele>
        <time>2020-09-20T13:19:02Z</time>
      </trkpt>
      <trkpt lat="48.67318" lon="7.37343">
        <ele>314.98779297</ele>
        <time>2020-09-20T13:19:05Z</time>
      </trkpt>
      <trkpt lat="48.67308" lon="7.37335">
        <ele>314.98779297</ele>
        <time>2020-09-20T13:19:07Z</time>
      </trkpt>
      <trkpt lat="48.673" lon="7.37329">
        <ele>314.98779297</ele>
        <time>2020-09-20T13:19:09Z</time>
      </trkpt>
      <trkpt lat="48.6729" lon="7.37324">
        <ele>314.98779297</ele>
        <time>2020-09-20T13:19:12Z</time>
      </trkpt>
      <trkpt lat="48.6728" lon="7.37319">
        <ele>314.98779297</ele>
        <time>2020-09-20T13:19:14Z</time>
      </trkpt>
      <trkpt lat="48.67272" lon="7.37313">
        <ele>314.98779297</ele>
        <time>2020-09-20T13:19:17Z</time>
      </trkpt>
      <trkpt lat="48.67265" lon="7.37305">
        <ele>315.09341431</ele>
        <time>2020-09-20T13:20:30Z</time>
      </trkpt>
      <trkpt lat="48.67266" lon="7.37303">
        <ele>315.09341431</ele>
        <time>2020-09-20T13:20:35Z</time>
      </trkpt>
      <trkpt lat="48.67249" lon="7.37289">
        <ele>314.86312866</ele>
        <time>2020-09-20T13:20:37Z</time>
      </trkpt>
      <trkpt lat="48.67239" lon="7.37281">
        <ele>314.86312866</ele>
        <time>2020-09-20T13:20:39Z</time>
      </trkpt>
      <trkpt lat="48.67229" lon="7.3727">
        <ele>313.06655884</ele>
        <time>2020-09-20T13:20:41Z</time>
      </trkpt>
      <trkpt lat="48.67218" lon="7.37258">
        <ele>311.71206665</ele>
        <time>2020-09-20T13:20:43Z</time>
      </trkpt>
      <trkpt lat="48.67204" lon="7.37247">
        <ele>310.3081665</ele>
        <time>2020-09-20T13:20:45Z</time>
      </trkpt>
      <trkpt lat="48.67189" lon="7.37234">
        <ele>308.89758301</ele>
        <time>2020-09-20T13:20:47Z</time>
      </trkpt>
      <trkpt lat="48.67174" lon="7.37221">
        <ele>307.28106689</ele>
        <time>2020-09-20T13:20:49Z</time>
      </trkpt>
      <trkpt lat="48.6716" lon="7.37213">
        <ele>307.28106689</ele>
        <time>2020-09-20T13:20:50Z</time>
      </trkpt>
      <trkpt lat="48.67151" lon="7.37208">
        <ele>305.2131958</ele>
        <time>2020-09-20T13:20:51Z</time>
      </trkpt>
      <trkpt lat="48.67141" lon="7.37203">
        <ele>305.2131958</ele>
        <time>2020-09-20T13:20:52Z</time>
      </trkpt>
      <trkpt lat="48.67131" lon="7.37198">
        <ele>304.09298706</ele>
        <time>2020-09-20T13:20:53Z</time>
      </trkpt>
      <trkpt lat="48.67122" lon="7.37193">
        <ele>304.09298706</ele>
        <time>2020-09-20T13:20:54Z</time>
      </trkpt>
      <trkpt lat="48.67112" lon="7.37187">
        <ele>302.4151001</ele>
        <time>2020-09-20T13:20:55Z</time>
      </trkpt>
      <trkpt lat="48.67102" lon="7.37181">
        <ele>300.7951355</ele>
        <time>2020-09-20T13:20:56Z</time>
      </trkpt>
      <trkpt lat="48.67091" lon="7.37175">
        <ele>299.74139404</ele>
        <time>2020-09-20T13:20:57Z</time>
      </trkpt>
      <trkpt lat="48.6708" lon="7.37171">
        <ele>299.74139404</ele>
        <time>2020-09-20T13:20:58Z</time>
      </trkpt>
      <trkpt lat="48.67068" lon="7.37167">
        <ele>298.29238892</ele>
        <time>2020-09-20T13:20:59Z</time>
      </trkpt>
      <trkpt lat="48.67057" lon="7.37162">
        <ele>298.29238892</ele>
        <time>2020-09-20T13:21:00Z</time>
      </trkpt>
      <trkpt lat="48.67046" lon="7.37158">
        <ele>296.46746826</ele>
        <time>2020-09-20T13:21:01Z</time>
      </trkpt>
      <trkpt lat="48.67036" lon="7.37155">
        <ele>296.46746826</ele>
        <time>2020-09-20T13:21:02Z</time>
      </trkpt>
      <trkpt lat="48.67025" lon="7.37153">
        <ele>294.99664307</ele>
        <time>2020-09-20T13:21:03Z</time>
      </trkpt>
      <trkpt lat="48.67013" lon="7.37152">
        <ele>294.99664307</ele>
        <time>2020-09-20T13:21:05Z</time>
      </trkpt>
      <trkpt lat="48.67001" lon="7.3715">
        <ele>294.99664307</ele>
        <time>2020-09-20T13:21:07Z</time>
      </trkpt>
      <trkpt lat="48.6699" lon="7.37149">
        <ele>294.99664307</ele>
        <time>2020-09-20T13:21:09Z</time>
      </trkpt>
      <trkpt lat="48.66982" lon="7.37152">
        <ele>294.04318237</ele>
        <time>2020-09-20T13:21:12Z</time>
      </trkpt>
      <trkpt lat="48.6697" lon="7.37151">
        <ele>294.04318237</ele>
        <time>2020-09-20T13:21:14Z</time>
      </trkpt>
      <trkpt lat="48.66958" lon="7.37148">
        <ele>292.80871582</ele>
        <time>2020-09-20T13:21:16Z</time>
      </trkpt>
      <trkpt lat="48.66945" lon="7.3714">
        <ele>292.80871582</ele>
        <time>2020-09-20T13:21:18Z</time>
      </trkpt>
      <trkpt lat="48.66932" lon="7.37132">
        <ele>291.41342163</ele>
        <time>2020-09-20T13:21:20Z</time>
      </trkpt>
      <trkpt lat="48.66916" lon="7.37124">
        <ele>288.43572998</ele>
        <time>2020-09-20T13:21:22Z</time>
      </trkpt>
      <trkpt lat="48.66903" lon="7.37118">
        <ele>288.43572998</ele>
        <time>2020-09-20T13:21:23Z</time>
      </trkpt>
      <trkpt lat="48.66894" lon="7.37115">
        <ele>287.00640869</ele>
        <time>2020-09-20T13:21:24Z</time>
      </trkpt>
      <trkpt lat="48.66885" lon="7.37109">
        <ele>287.00640869</ele>
        <time>2020-09-20T13:21:25Z</time>
      </trkpt>
      <trkpt lat="48.66876" lon="7.37105">
        <ele>285.3963623</ele>
        <time>2020-09-20T13:21:26Z</time>
      </trkpt>
      <trkpt lat="48.66864" lon="7.37098">
        <ele>283.90829468</ele>
        <time>2020-09-20T13:21:28Z</time>
      </trkpt>
      <trkpt lat="48.6685" lon="7.3709">
        <ele>283.90829468</ele>
        <time>2020-09-20T13:21:29Z</time>
      </trkpt>
      <trkpt lat="48.6684" lon="7.37086">
        <ele>282.33181763</ele>
        <time>2020-09-20T13:21:30Z</time>
      </trkpt>
      <trkpt lat="48.6683" lon="7.37082">
        <ele>282.33181763</ele>
        <time>2020-09-20T13:21:31Z</time>
      </trkpt>
      <trkpt lat="48.66817" lon="7.37075">
        <ele>280.56781006</ele>
        <time>2020-09-20T13:21:33Z</time>
      </trkpt>
      <trkpt lat="48.66803" lon="7.37068">
        <ele>278.86761475</ele>
        <time>2020-09-20T13:21:34Z</time>
      </trkpt>
      <trkpt lat="48.66792" lon="7.37065">
        <ele>278.86761475</ele>
        <time>2020-09-20T13:21:35Z</time>
      </trkpt>
      <trkpt lat="48.66782" lon="7.37061">
        <ele>277.14447021</ele>
        <time>2020-09-20T13:21:36Z</time>
      </trkpt>
      <trkpt lat="48.66772" lon="7.37056">
        <ele>277.14447021</ele>
        <time>2020-09-20T13:21:37Z</time>
      </trkpt>
      <trkpt lat="48.66761" lon="7.37053">
        <ele>275.61499023</ele>
        <time>2020-09-20T13:21:38Z</time>
      </trkpt>
      <trkpt lat="48.6675" lon="7.37049">
        <ele>275.61499023</ele>
        <time>2020-09-20T13:21:39Z</time>
      </trkpt>
      <trkpt lat="48.6674" lon="7.37044">
        <ele>274.17840576</ele>
        <time>2020-09-20T13:21:40Z</time>
      </trkpt>
      <trkpt lat="48.66729" lon="7.37041">
        <ele>274.17840576</ele>
        <time>2020-09-20T13:21:41Z</time>
      </trkpt>
      <trkpt lat="48.6672" lon="7.37038">
        <ele>274.17840576</ele>
        <time>2020-09-20T13:21:42Z</time>
      </trkpt>
      <trkpt lat="48.66711" lon="7.37036">
        <ele>272.95965576</ele>
        <time>2020-09-20T13:21:43Z</time>
      </trkpt>
      <trkpt lat="48.667" lon="7.37031">
        <ele>272.95965576</ele>
        <time>2020-09-20T13:21:45Z</time>
      </trkpt>
      <trkpt lat="48.66692" lon="7.37033">
        <ele>273.90914917</ele>
        <time>2020-09-20T13:22:04Z</time>
      </trkpt>
      <trkpt lat="48.66692" lon="7.37035">
        <ele>273.90914917</ele>
        <time>2020-09-20T13:22:09Z</time>
      </trkpt>
      <trkpt lat="48.66682" lon="7.37052">
        <ele>273.90914917</ele>
        <time>2020-09-20T13:22:12Z</time>
      </trkpt>
      <trkpt lat="48.66678" lon="7.37066">
        <ele>273.90914917</ele>
        <time>2020-09-20T13:22:16Z</time>
      </trkpt>
      <trkpt lat="48.66671" lon="7.37081">
        <ele>273.90914917</ele>
        <time>2020-09-20T13:22:21Z</time>
      </trkpt>
      <trkpt lat="48.66665" lon="7.37093">
        <ele>273.93615723</ele>
        <time>2020-09-20T13:22:53Z</time>
      </trkpt>
      <trkpt lat="48.66663" lon="7.37093">
        <ele>273.93615723</ele>
        <time>2020-09-20T13:22:56Z</time>
      </trkpt>
      <trkpt lat="48.66649" lon="7.37092">
        <ele>274.07562256</ele>
        <time>2020-09-20T13:22:59Z</time>
      </trkpt>
      <trkpt lat="48.66636" lon="7.37093">
        <ele>274.07562256</ele>
        <time>2020-09-20T13:23:02Z</time>
      </trkpt>
      <trkpt lat="48.66623" lon="7.37093">
        <ele>272.54397583</ele>
        <time>2020-09-20T13:23:04Z</time>
      </trkpt>
      <trkpt lat="48.66608" lon="7.37095">
        <ele>272.54397583</ele>
        <time>2020-09-20T13:23:06Z</time>
      </trkpt>
      <trkpt lat="48.66592" lon="7.37098">
        <ele>271.33688354</ele>
        <time>2020-09-20T13:23:08Z</time>
      </trkpt>
      <trkpt lat="48.66576" lon="7.37101">
        <ele>271.33688354</ele>
        <time>2020-09-20T13:23:10Z</time>
      </trkpt>
      <trkpt lat="48.6656" lon="7.37104">
        <ele>270.07467651</ele>
        <time>2020-09-20T13:23:12Z</time>
      </trkpt>
      <trkpt lat="48.66543" lon="7.37105">
        <ele>268.63394165</ele>
        <time>2020-09-20T13:23:14Z</time>
      </trkpt>
      <trkpt lat="48.66528" lon="7.37105">
        <ele>267.5032959</ele>
        <time>2020-09-20T13:23:16Z</time>
      </trkpt>
      <trkpt lat="48.66517" lon="7.37103">
        <ele>267.5032959</ele>
        <time>2020-09-20T13:23:18Z</time>
      </trkpt>
      <trkpt lat="48.66511" lon="7.37102">
        <ele>267.5032959</ele>
        <time>2020-09-20T13:23:34Z</time>
      </trkpt>
      <trkpt lat="48.66497" lon="7.37094">
        <ele>267.0687561</ele>
        <time>2020-09-20T13:23:37Z</time>
      </trkpt>
      <trkpt lat="48.66484" lon="7.3709">
        <ele>267.0687561</ele>
        <time>2020-09-20T13:23:39Z</time>
      </trkpt>
      <trkpt lat="48.66472" lon="7.37086">
        <ele>265.18615723</ele>
        <time>2020-09-20T13:23:41Z</time>
      </trkpt>
      <trkpt lat="48.6646" lon="7.37081">
        <ele>264.00192261</ele>
        <time>2020-09-20T13:23:43Z</time>
      </trkpt>
      <trkpt lat="48.66447" lon="7.37077">
        <ele>264.00192261</ele>
        <time>2020-09-20T13:23:45Z</time>
      </trkpt>
      <trkpt lat="48.66433" lon="7.37073">
        <ele>262.93954468</ele>
        <time>2020-09-20T13:23:47Z</time>
      </trkpt>
      <trkpt lat="48.66419" lon="7.37068">
        <ele>261.83666992</ele>
        <time>2020-09-20T13:23:49Z</time>
      </trkpt>
      <trkpt lat="48.66399" lon="7.37063">
        <ele>260.96405029</ele>
        <time>2020-09-20T13:23:51Z</time>
      </trkpt>
      <trkpt lat="48.66387" lon="7.3706">
        <ele>260.96405029</ele>
        <time>2020-09-20T13:23:53Z</time>
      </trkpt>
      <trkpt lat="48.6637" lon="7.37057">
        <ele>260.009552</ele>
        <time>2020-09-20T13:23:55Z</time>
      </trkpt>
      <trkpt lat="48.66356" lon="7.37056">
        <ele>260.009552</ele>
        <time>2020-09-20T13:23:56Z</time>
      </trkpt>
      <trkpt lat="48.66343" lon="7.37058">
        <ele>258.82366943</ele>
        <time>2020-09-20T13:23:58Z</time>
      </trkpt>
      <trkpt lat="48.66324" lon="7.37059">
        <ele>257.64428711</ele>
        <time>2020-09-20T13:24:00Z</time>
      </trkpt>
      <trkpt lat="48.66306" lon="7.37061">
        <ele>257.64428711</ele>
        <time>2020-09-20T13:24:02Z</time>
      </trkpt>
      <trkpt lat="48.66293" lon="7.37066">
        <ele>256.45333862</ele>
        <time>2020-09-20T13:24:03Z</time>
      </trkpt>
      <trkpt lat="48.66284" lon="7.3707">
        <ele>256.45333862</ele>
        <time>2020-09-20T13:24:04Z</time>
      </trkpt>
      <trkpt lat="48.66274" lon="7.37073">
        <ele>256.45333862</ele>
        <time>2020-09-20T13:24:05Z</time>
      </trkpt>
      <trkpt lat="48.66265" lon="7.37077">
        <ele>255.34310913</ele>
        <time>2020-09-20T13:24:06Z</time>
      </trkpt>
      <trkpt lat="48.66256" lon="7.37081">
        <ele>255.34310913</ele>
        <time>2020-09-20T13:24:07Z</time>
      </trkpt>
      <trkpt lat="48.66243" lon="7.37085">
        <ele>255.34310913</ele>
        <time>2020-09-20T13:24:09Z</time>
      </trkpt>
      <trkpt lat="48.66226" lon="7.37092">
        <ele>254.21340942</ele>
        <time>2020-09-20T13:24:11Z</time>
      </trkpt>
      <trkpt lat="48.66211" lon="7.37097">
        <ele>254.21340942</ele>
        <time>2020-09-20T13:24:12Z</time>
      </trkpt>
      <trkpt lat="48.66202" lon="7.37101">
        <ele>254.21340942</ele>
        <time>2020-09-20T13:24:13Z</time>
      </trkpt>
      <trkpt lat="48.6619" lon="7.37109">
        <ele>254.21340942</ele>
        <time>2020-09-20T13:24:15Z</time>
      </trkpt>
      <trkpt lat="48.66176" lon="7.37125">
        <ele>253.21951294</ele>
        <time>2020-09-20T13:24:17Z</time>
      </trkpt>
      <trkpt lat="48.66164" lon="7.37137">
        <ele>253.21951294</ele>
        <time>2020-09-20T13:24:18Z</time>
      </trkpt>
      <trkpt lat="48.66156" lon="7.37145">
        <ele>253.21951294</ele>
        <time>2020-09-20T13:24:19Z</time>
      </trkpt>
      <trkpt lat="48.66148" lon="7.37154">
        <ele>253.21951294</ele>
        <time>2020-09-20T13:24:20Z</time>
      </trkpt>
      <trkpt lat="48.6614" lon="7.37163">
        <ele>253.21951294</ele>
        <time>2020-09-20T13:24:21Z</time>
      </trkpt>
      <trkpt lat="48.66132" lon="7.37172">
        <ele>252.21411133</ele>
        <time>2020-09-20T13:24:22Z</time>
      </trkpt>
      <trkpt lat="48.66125" lon="7.37182">
        <ele>252.21411133</ele>
        <time>2020-09-20T13:24:23Z</time>
      </trkpt>
      <trkpt lat="48.66116" lon="7.37191">
        <ele>252.21411133</ele>
        <time>2020-09-20T13:24:24Z</time>
      </trkpt>
      <trkpt lat="48.66107" lon="7.37199">
        <ele>252.21411133</ele>
        <time>2020-09-20T13:24:25Z</time>
      </trkpt>
      <trkpt lat="48.66098" lon="7.37206">
        <ele>252.21411133</ele>
        <time>2020-09-20T13:24:26Z</time>
      </trkpt>
      <trkpt lat="48.66089" lon="7.37214">
        <ele>251.27474976</ele>
        <time>2020-09-20T13:24:27Z</time>
      </trkpt>
      <trkpt lat="48.6608" lon="7.37221">
        <ele>251.27474976</ele>
        <time>2020-09-20T13:24:28Z</time>
      </trkpt>
      <trkpt lat="48.66071" lon="7.37229">
        <ele>251.27474976</ele>
        <time>2020-09-20T13:24:29Z</time>
      </trkpt>
      <trkpt lat="48.6606" lon="7.37236">
        <ele>251.27474976</ele>
        <time>2020-09-20T13:24:30Z</time>
      </trkpt>
      <trkpt lat="48.66049" lon="7.37243">
        <ele>250.07470703</ele>
        <time>2020-09-20T13:24:31Z</time>
      </trkpt>
      <trkpt lat="48.66039" lon="7.37249">
        <ele>250.07470703</ele>
        <time>2020-09-20T13:24:32Z</time>
      </trkpt>
      <trkpt lat="48.66028" lon="7.37253">
        <ele>250.07470703</ele>
        <time>2020-09-20T13:24:33Z</time>
      </trkpt>
      <trkpt lat="48.66018" lon="7.37257">
        <ele>250.07470703</ele>
        <time>2020-09-20T13:24:34Z</time>
      </trkpt>
      <trkpt lat="48.66009" lon="7.37261">
        <ele>250.07470703</ele>
        <time>2020-09-20T13:24:35Z</time>
      </trkpt>
      <trkpt lat="48.65997" lon="7.37267">
        <ele>250.07470703</ele>
        <time>2020-09-20T13:24:37Z</time>
      </trkpt>
      <trkpt lat="48.65981" lon="7.37273">
        <ele>250.07470703</ele>
        <time>2020-09-20T13:24:39Z</time>
      </trkpt>
      <trkpt lat="48.65968" lon="7.3728">
        <ele>250.07470703</ele>
        <time>2020-09-20T13:24:41Z</time>
      </trkpt>
      <trkpt lat="48.65952" lon="7.37288">
        <ele>249.42417908</ele>
        <time>2020-09-20T13:24:43Z</time>
      </trkpt>
      <trkpt lat="48.65939" lon="7.37297">
        <ele>249.42417908</ele>
        <time>2020-09-20T13:24:45Z</time>
      </trkpt>
      <trkpt lat="48.65925" lon="7.37306">
        <ele>247.94049072</ele>
        <time>2020-09-20T13:24:47Z</time>
      </trkpt>
      <trkpt lat="48.65912" lon="7.3732">
        <ele>247.94049072</ele>
        <time>2020-09-20T13:24:49Z</time>
      </trkpt>
      <trkpt lat="48.65899" lon="7.37346">
        <ele>247.06460571</ele>
        <time>2020-09-20T13:24:51Z</time>
      </trkpt>
      <trkpt lat="48.65892" lon="7.37361">
        <ele>247.06460571</ele>
        <time>2020-09-20T13:24:53Z</time>
      </trkpt>
      <trkpt lat="48.65882" lon="7.37382">
        <ele>247.06460571</ele>
        <time>2020-09-20T13:24:55Z</time>
      </trkpt>
      <trkpt lat="48.65871" lon="7.37402">
        <ele>247.06460571</ele>
        <time>2020-09-20T13:24:57Z</time>
      </trkpt>
      <trkpt lat="48.6586" lon="7.3742">
        <ele>246.19387817</ele>
        <time>2020-09-20T13:24:59Z</time>
      </trkpt>
      <trkpt lat="48.6585" lon="7.37437">
        <ele>246.19387817</ele>
        <time>2020-09-20T13:25:01Z</time>
      </trkpt>
      <trkpt lat="48.65841" lon="7.37456">
        <ele>246.19387817</ele>
        <time>2020-09-20T13:25:03Z</time>
      </trkpt>
      <trkpt lat="48.65831" lon="7.37473">
        <ele>246.19387817</ele>
        <time>2020-09-20T13:25:05Z</time>
      </trkpt>
      <trkpt lat="48.6582" lon="7.37489">
        <ele>245.05575562</ele>
        <time>2020-09-20T13:25:07Z</time>
      </trkpt>
      <trkpt lat="48.65808" lon="7.37501">
        <ele>243.89157104</ele>
        <time>2020-09-20T13:25:09Z</time>
      </trkpt>
      <trkpt lat="48.65797" lon="7.37514">
        <ele>243.89157104</ele>
        <time>2020-09-20T13:25:11Z</time>
      </trkpt>
      <trkpt lat="48.65785" lon="7.37528">
        <ele>243.89157104</ele>
        <time>2020-09-20T13:25:13Z</time>
      </trkpt>
      <trkpt lat="48.65775" lon="7.37542">
        <ele>243.89157104</ele>
        <time>2020-09-20T13:25:15Z</time>
      </trkpt>
      <trkpt lat="48.65764" lon="7.37555">
        <ele>243.89157104</ele>
        <time>2020-09-20T13:25:17Z</time>
      </trkpt>
      <trkpt lat="48.65752" lon="7.37568">
        <ele>243.89157104</ele>
        <time>2020-09-20T13:25:19Z</time>
      </trkpt>
      <trkpt lat="48.65742" lon="7.3758">
        <ele>243.89157104</ele>
        <time>2020-09-20T13:25:21Z</time>
      </trkpt>
      <trkpt lat="48.65731" lon="7.37592">
        <ele>243.89157104</ele>
        <time>2020-09-20T13:25:23Z</time>
      </trkpt>
      <trkpt lat="48.65721" lon="7.37606">
        <ele>243.08639526</ele>
        <time>2020-09-20T13:25:25Z</time>
      </trkpt>
      <trkpt lat="48.6571" lon="7.37619">
        <ele>243.08639526</ele>
        <time>2020-09-20T13:25:27Z</time>
      </trkpt>
      <trkpt lat="48.65702" lon="7.37633">
        <ele>243.08639526</ele>
        <time>2020-09-20T13:25:29Z</time>
      </trkpt>
      <trkpt lat="48.65693" lon="7.37646">
        <ele>243.08639526</ele>
        <time>2020-09-20T13:25:31Z</time>
      </trkpt>
      <trkpt lat="48.65685" lon="7.3766">
        <ele>243.08639526</ele>
        <time>2020-09-20T13:25:33Z</time>
      </trkpt>
      <trkpt lat="48.65676" lon="7.37675">
        <ele>243.08639526</ele>
        <time>2020-09-20T13:25:35Z</time>
      </trkpt>
      <trkpt lat="48.65668" lon="7.37691">
        <ele>243.08639526</ele>
        <time>2020-09-20T13:25:37Z</time>
      </trkpt>
      <trkpt lat="48.65659" lon="7.37707">
        <ele>243.08639526</ele>
        <time>2020-09-20T13:25:39Z</time>
      </trkpt>
      <trkpt lat="48.65651" lon="7.3772">
        <ele>242.0372467</ele>
        <time>2020-09-20T13:25:41Z</time>
      </trkpt>
      <trkpt lat="48.65642" lon="7.37731">
        <ele>242.0372467</ele>
        <time>2020-09-20T13:25:43Z</time>
      </trkpt>
      <trkpt lat="48.65632" lon="7.37741">
        <ele>242.0372467</ele>
        <time>2020-09-20T13:25:45Z</time>
      </trkpt>
      <trkpt lat="48.65623" lon="7.37752">
        <ele>242.0372467</ele>
        <time>2020-09-20T13:25:47Z</time>
      </trkpt>
      <trkpt lat="48.65611" lon="7.37763">
        <ele>242.0372467</ele>
        <time>2020-09-20T13:25:49Z</time>
      </trkpt>
      <trkpt lat="48.65598" lon="7.37769">
        <ele>242.0372467</ele>
        <time>2020-09-20T13:25:51Z</time>
      </trkpt>
      <trkpt lat="48.65595" lon="7.37771">
        <ele>240.63766479</ele>
        <time>2020-09-20T13:25:52Z</time>
      </trkpt>
      <trkpt lat="48.65585" lon="7.37776">
        <ele>240.63766479</ele>
        <time>2020-09-20T13:25:53Z</time>
      </trkpt>
      <trkpt lat="48.65571" lon="7.37784">
        <ele>240.63766479</ele>
        <time>2020-09-20T13:25:55Z</time>
      </trkpt>
      <trkpt lat="48.6556" lon="7.37794">
        <ele>240.63766479</ele>
        <time>2020-09-20T13:25:57Z</time>
      </trkpt>
      <trkpt lat="48.65551" lon="7.37804">
        <ele>240.63766479</ele>
        <time>2020-09-20T13:25:59Z</time>
      </trkpt>
      <trkpt lat="48.65542" lon="7.37815">
        <ele>240.63766479</ele>
        <time>2020-09-20T13:26:01Z</time>
      </trkpt>
      <trkpt lat="48.65533" lon="7.37825">
        <ele>240.63766479</ele>
        <time>2020-09-20T13:26:03Z</time>
      </trkpt>
      <trkpt lat="48.65522" lon="7.37838">
        <ele>240.63766479</ele>
        <time>2020-09-20T13:26:05Z</time>
      </trkpt>
      <trkpt lat="48.6551" lon="7.37853">
        <ele>239.90103149</ele>
        <time>2020-09-20T13:26:07Z</time>
      </trkpt>
      <trkpt lat="48.65496" lon="7.37868">
        <ele>239.90103149</ele>
        <time>2020-09-20T13:26:09Z</time>
      </trkpt>
      <trkpt lat="48.65485" lon="7.37878">
        <ele>238.43711853</ele>
        <time>2020-09-20T13:26:10Z</time>
      </trkpt>
      <trkpt lat="48.65474" lon="7.37885">
        <ele>238.43711853</ele>
        <time>2020-09-20T13:26:12Z</time>
      </trkpt>
      <trkpt lat="48.65459" lon="7.37886">
        <ele>237.41618347</ele>
        <time>2020-09-20T13:26:14Z</time>
      </trkpt>
      <trkpt lat="48.65443" lon="7.37888">
        <ele>237.41618347</ele>
        <time>2020-09-20T13:26:16Z</time>
      </trkpt>
      <trkpt lat="48.65427" lon="7.37894">
        <ele>237.41618347</ele>
        <time>2020-09-20T13:26:18Z</time>
      </trkpt>
      <trkpt lat="48.65412" lon="7.37905">
        <ele>236.31365967</ele>
        <time>2020-09-20T13:26:20Z</time>
      </trkpt>
      <trkpt lat="48.65396" lon="7.37915">
        <ele>236.31365967</ele>
        <time>2020-09-20T13:26:22Z</time>
      </trkpt>
      <trkpt lat="48.6538" lon="7.37925">
        <ele>236.31365967</ele>
        <time>2020-09-20T13:26:24Z</time>
      </trkpt>
      <trkpt lat="48.65367" lon="7.3794">
        <ele>236.31365967</ele>
        <time>2020-09-20T13:26:26Z</time>
      </trkpt>
      <trkpt lat="48.65356" lon="7.37955">
        <ele>236.31365967</ele>
        <time>2020-09-20T13:26:28Z</time>
      </trkpt>
      <trkpt lat="48.65345" lon="7.37972">
        <ele>236.31365967</ele>
        <time>2020-09-20T13:26:30Z</time>
      </trkpt>
      <trkpt lat="48.65335" lon="7.3799">
        <ele>236.31365967</ele>
        <time>2020-09-20T13:26:32Z</time>
      </trkpt>
      <trkpt lat="48.65324" lon="7.38008">
        <ele>236.31365967</ele>
        <time>2020-09-20T13:26:34Z</time>
      </trkpt>
      <trkpt lat="48.65314" lon="7.38027">
        <ele>236.31365967</ele>
        <time>2020-09-20T13:26:36Z</time>
      </trkpt>
      <trkpt lat="48.65305" lon="7.38047">
        <ele>236.31365967</ele>
        <time>2020-09-20T13:26:38Z</time>
      </trkpt>
      <trkpt lat="48.65297" lon="7.38065">
        <ele>235.18676758</ele>
        <time>2020-09-20T13:26:40Z</time>
      </trkpt>
      <trkpt lat="48.65288" lon="7.38082">
        <ele>235.18676758</ele>
        <time>2020-09-20T13:26:42Z</time>
      </trkpt>
      <trkpt lat="48.6528" lon="7.38098">
        <ele>235.18676758</ele>
        <time>2020-09-20T13:26:44Z</time>
      </trkpt>
      <trkpt lat="48.65273" lon="7.38115">
        <ele>235.18676758</ele>
        <time>2020-09-20T13:26:46Z</time>
      </trkpt>
      <trkpt lat="48.65266" lon="7.38131">
        <ele>235.18676758</ele>
        <time>2020-09-20T13:26:48Z</time>
      </trkpt>
      <trkpt lat="48.65259" lon="7.38145">
        <ele>235.22050476</ele>
        <time>2020-09-20T13:26:50Z</time>
      </trkpt>
      <trkpt lat="48.65254" lon="7.38158">
        <ele>236.43751526</ele>
        <time>2020-09-20T13:26:51Z</time>
      </trkpt>
      <trkpt lat="48.6525" lon="7.38171">
        <ele>236.43751526</ele>
        <time>2020-09-20T13:26:53Z</time>
      </trkpt>
      <trkpt lat="48.65245" lon="7.38186">
        <ele>237.37039185</ele>
        <time>2020-09-20T13:26:55Z</time>
      </trkpt>
      <trkpt lat="48.6524" lon="7.38201">
        <ele>237.37039185</ele>
        <time>2020-09-20T13:26:57Z</time>
      </trkpt>
      <trkpt lat="48.65234" lon="7.38216">
        <ele>238.59378052</ele>
        <time>2020-09-20T13:26:59Z</time>
      </trkpt>
      <trkpt lat="48.65229" lon="7.38231">
        <ele>238.59378052</ele>
        <time>2020-09-20T13:27:01Z</time>
      </trkpt>
      <trkpt lat="48.65224" lon="7.38247">
        <ele>238.59378052</ele>
        <time>2020-09-20T13:27:03Z</time>
      </trkpt>
      <trkpt lat="48.65218" lon="7.38263">
        <ele>238.59378052</ele>
        <time>2020-09-20T13:27:05Z</time>
      </trkpt>
      <trkpt lat="48.65212" lon="7.3828">
        <ele>238.59378052</ele>
        <time>2020-09-20T13:27:07Z</time>
      </trkpt>
      <trkpt lat="48.65207" lon="7.38297">
        <ele>238.59378052</ele>
        <time>2020-09-20T13:27:09Z</time>
      </trkpt>
      <trkpt lat="48.65202" lon="7.38316">
        <ele>238.59378052</ele>
        <time>2020-09-20T13:27:11Z</time>
      </trkpt>
      <trkpt lat="48.65196" lon="7.38336">
        <ele>238.59378052</ele>
        <time>2020-09-20T13:27:13Z</time>
      </trkpt>
      <trkpt lat="48.6519" lon="7.38357">
        <ele>238.59378052</ele>
        <time>2020-09-20T13:27:15Z</time>
      </trkpt>
      <trkpt lat="48.65184" lon="7.38379">
        <ele>239.11724854</ele>
        <time>2020-09-20T13:27:17Z</time>
      </trkpt>
      <trkpt lat="48.65179" lon="7.38399">
        <ele>239.11724854</ele>
        <time>2020-09-20T13:27:19Z</time>
      </trkpt>
      <trkpt lat="48.65174" lon="7.38419">
        <ele>239.11724854</ele>
        <time>2020-09-20T13:27:21Z</time>
      </trkpt>
      <trkpt lat="48.65165" lon="7.38436">
        <ele>239.11724854</ele>
        <time>2020-09-20T13:27:23Z</time>
      </trkpt>
      <trkpt lat="48.65154" lon="7.38449">
        <ele>239.11724854</ele>
        <time>2020-09-20T13:27:25Z</time>
      </trkpt>
      <trkpt lat="48.65142" lon="7.38456">
        <ele>239.11724854</ele>
        <time>2020-09-20T13:27:27Z</time>
      </trkpt>
      <trkpt lat="48.65133" lon="7.38458">
        <ele>239.11724854</ele>
        <time>2020-09-20T13:27:29Z</time>
      </trkpt>
      <trkpt lat="48.65121" lon="7.38461">
        <ele>237.93128967</ele>
        <time>2020-09-20T13:27:31Z</time>
      </trkpt>
      <trkpt lat="48.65109" lon="7.38464">
        <ele>239.79046631</ele>
        <time>2020-09-20T13:27:33Z</time>
      </trkpt>
      <trkpt lat="48.65099" lon="7.38467">
        <ele>239.79046631</ele>
        <time>2020-09-20T13:27:35Z</time>
      </trkpt>
      <trkpt lat="48.65089" lon="7.38472">
        <ele>240.91876221</ele>
        <time>2020-09-20T13:27:37Z</time>
      </trkpt>
      <trkpt lat="48.6508" lon="7.38477">
        <ele>240.91876221</ele>
        <time>2020-09-20T13:27:39Z</time>
      </trkpt>
      <trkpt lat="48.65068" lon="7.38483">
        <ele>242.06216431</ele>
        <time>2020-09-20T13:27:42Z</time>
      </trkpt>
      <trkpt lat="48.65056" lon="7.38491">
        <ele>242.06216431</ele>
        <time>2020-09-20T13:27:45Z</time>
      </trkpt>
      <trkpt lat="48.65044" lon="7.38505">
        <ele>243.14828491</ele>
        <time>2020-09-20T13:27:47Z</time>
      </trkpt>
      <trkpt lat="48.65038" lon="7.38518">
        <ele>243.14828491</ele>
        <time>2020-09-20T13:27:49Z</time>
      </trkpt>
      <trkpt lat="48.65029" lon="7.38534">
        <ele>244.72961426</ele>
        <time>2020-09-20T13:27:51Z</time>
      </trkpt>
      <trkpt lat="48.65024" lon="7.38544">
        <ele>244.72961426</ele>
        <time>2020-09-20T13:27:53Z</time>
      </trkpt>
      <trkpt lat="48.65016" lon="7.38556">
        <ele>244.72961426</ele>
        <time>2020-09-20T13:27:55Z</time>
      </trkpt>
      <trkpt lat="48.65008" lon="7.38568">
        <ele>245.37399292</ele>
        <time>2020-09-20T13:27:57Z</time>
      </trkpt>
      <trkpt lat="48.65" lon="7.38581">
        <ele>245.37399292</ele>
        <time>2020-09-20T13:27:59Z</time>
      </trkpt>
      <trkpt lat="48.64991" lon="7.38593">
        <ele>245.37399292</ele>
        <time>2020-09-20T13:28:01Z</time>
      </trkpt>
      <trkpt lat="48.64982" lon="7.38605">
        <ele>245.37399292</ele>
        <time>2020-09-20T13:28:03Z</time>
      </trkpt>
      <trkpt lat="48.64973" lon="7.38617">
        <ele>245.37399292</ele>
        <time>2020-09-20T13:28:05Z</time>
      </trkpt>
      <trkpt lat="48.64963" lon="7.38631">
        <ele>245.37399292</ele>
        <time>2020-09-20T13:28:07Z</time>
      </trkpt>
      <trkpt lat="48.64954" lon="7.38648">
        <ele>245.91093445</ele>
        <time>2020-09-20T13:28:09Z</time>
      </trkpt>
      <trkpt lat="48.64945" lon="7.38669">
        <ele>243.90213013</ele>
        <time>2020-09-20T13:28:11Z</time>
      </trkpt>
      <trkpt lat="48.64938" lon="7.38691">
        <ele>242.59112549</ele>
        <time>2020-09-20T13:28:13Z</time>
      </trkpt>
      <trkpt lat="48.64934" lon="7.3871">
        <ele>242.59112549</ele>
        <time>2020-09-20T13:28:14Z</time>
      </trkpt>
      <trkpt lat="48.6493" lon="7.3873">
        <ele>241.24504089</ele>
        <time>2020-09-20T13:28:16Z</time>
      </trkpt>
      <trkpt lat="48.64926" lon="7.38756">
        <ele>238.05281067</ele>
        <time>2020-09-20T13:28:18Z</time>
      </trkpt>
      <trkpt lat="48.64922" lon="7.38778">
        <ele>237.00643921</ele>
        <time>2020-09-20T13:28:19Z</time>
      </trkpt>
      <trkpt lat="48.6492" lon="7.38793">
        <ele>237.00643921</ele>
        <time>2020-09-20T13:28:20Z</time>
      </trkpt>
      <trkpt lat="48.64919" lon="7.38808">
        <ele>235.44044495</ele>
        <time>2020-09-20T13:28:21Z</time>
      </trkpt>
      <trkpt lat="48.64917" lon="7.38825">
        <ele>233.5630188</ele>
        <time>2020-09-20T13:28:22Z</time>
      </trkpt>
      <trkpt lat="48.64914" lon="7.38842">
        <ele>232.34074402</ele>
        <time>2020-09-20T13:28:23Z</time>
      </trkpt>
      <trkpt lat="48.64912" lon="7.38858">
        <ele>231.23838806</ele>
        <time>2020-09-20T13:28:24Z</time>
      </trkpt>
      <trkpt lat="48.64909" lon="7.38874">
        <ele>230.16444397</ele>
        <time>2020-09-20T13:28:25Z</time>
      </trkpt>
      <trkpt lat="48.64905" lon="7.3889">
        <ele>230.16444397</ele>
        <time>2020-09-20T13:28:26Z</time>
      </trkpt>
      <trkpt lat="48.64901" lon="7.38906">
        <ele>228.88063049</ele>
        <time>2020-09-20T13:28:27Z</time>
      </trkpt>
      <trkpt lat="48.64896" lon="7.38921">
        <ele>228.88063049</ele>
        <time>2020-09-20T13:28:28Z</time>
      </trkpt>
      <trkpt lat="48.64891" lon="7.38935">
        <ele>227.64141846</ele>
        <time>2020-09-20T13:28:29Z</time>
      </trkpt>
      <trkpt lat="48.64883" lon="7.38948">
        <ele>227.64141846</ele>
        <time>2020-09-20T13:28:30Z</time>
      </trkpt>
      <trkpt lat="48.64877" lon="7.38959">
        <ele>227.64141846</ele>
        <time>2020-09-20T13:28:31Z</time>
      </trkpt>
      <trkpt lat="48.6487" lon="7.38972">
        <ele>226.59414673</ele>
        <time>2020-09-20T13:28:32Z</time>
      </trkpt>
      <trkpt lat="48.64863" lon="7.38984">
        <ele>226.59414673</ele>
        <time>2020-09-20T13:28:33Z</time>
      </trkpt>
      <trkpt lat="48.64856" lon="7.38995">
        <ele>226.59414673</ele>
        <time>2020-09-20T13:28:34Z</time>
      </trkpt>
      <trkpt lat="48.64849" lon="7.39007">
        <ele>226.59414673</ele>
        <time>2020-09-20T13:28:35Z</time>
      </trkpt>
      <trkpt lat="48.64842" lon="7.39017">
        <ele>226.59414673</ele>
        <time>2020-09-20T13:28:36Z</time>
      </trkpt>
      <trkpt lat="48.64835" lon="7.39027">
        <ele>226.59414673</ele>
        <time>2020-09-20T13:28:37Z</time>
      </trkpt>
      <trkpt lat="48.64828" lon="7.39038">
        <ele>225.66967773</ele>
        <time>2020-09-20T13:28:38Z</time>
      </trkpt>
      <trkpt lat="48.64818" lon="7.3905">
        <ele>225.66967773</ele>
        <time>2020-09-20T13:28:40Z</time>
      </trkpt>
      <trkpt lat="48.64808" lon="7.39064">
        <ele>224.26576233</ele>
        <time>2020-09-20T13:28:41Z</time>
      </trkpt>
      <trkpt lat="48.64799" lon="7.39077">
        <ele>224.26576233</ele>
        <time>2020-09-20T13:28:43Z</time>
      </trkpt>
      <trkpt lat="48.64788" lon="7.39094">
        <ele>224.26576233</ele>
        <time>2020-09-20T13:28:45Z</time>
      </trkpt>
      <trkpt lat="48.64777" lon="7.39112">
        <ele>224.26576233</ele>
        <time>2020-09-20T13:28:47Z</time>
      </trkpt>
      <trkpt lat="48.64767" lon="7.39129">
        <ele>224.26576233</ele>
        <time>2020-09-20T13:28:49Z</time>
      </trkpt>
      <trkpt lat="48.64754" lon="7.39152">
        <ele>223.94320679</ele>
        <time>2020-09-20T13:28:51Z</time>
      </trkpt>
      <trkpt lat="48.64748" lon="7.39163">
        <ele>223.94320679</ele>
        <time>2020-09-20T13:28:53Z</time>
      </trkpt>
      <trkpt lat="48.64743" lon="7.39183">
        <ele>223.94320679</ele>
        <time>2020-09-20T13:28:55Z</time>
      </trkpt>
      <trkpt lat="48.64739" lon="7.39203">
        <ele>223.94320679</ele>
        <time>2020-09-20T13:28:57Z</time>
      </trkpt>
      <trkpt lat="48.64734" lon="7.39221">
        <ele>223.94320679</ele>
        <time>2020-09-20T13:28:59Z</time>
      </trkpt>
      <trkpt lat="48.64728" lon="7.39239">
        <ele>224.52449036</ele>
        <time>2020-09-20T13:29:01Z</time>
      </trkpt>
      <trkpt lat="48.64722" lon="7.39261">
        <ele>224.52449036</ele>
        <time>2020-09-20T13:29:03Z</time>
      </trkpt>
      <trkpt lat="48.64716" lon="7.39278">
        <ele>224.52449036</ele>
        <time>2020-09-20T13:29:05Z</time>
      </trkpt>
      <trkpt lat="48.6471" lon="7.39294">
        <ele>224.52449036</ele>
        <time>2020-09-20T13:29:07Z</time>
      </trkpt>
      <trkpt lat="48.64702" lon="7.39312">
        <ele>224.52449036</ele>
        <time>2020-09-20T13:29:09Z</time>
      </trkpt>
      <trkpt lat="48.64693" lon="7.39328">
        <ele>224.52449036</ele>
        <time>2020-09-20T13:29:11Z</time>
      </trkpt>
      <trkpt lat="48.64684" lon="7.39346">
        <ele>224.97219849</ele>
        <time>2020-09-20T13:29:13Z</time>
      </trkpt>
      <trkpt lat="48.64674" lon="7.39359">
        <ele>224.97219849</ele>
        <time>2020-09-20T13:29:15Z</time>
      </trkpt>
      <trkpt lat="48.64661" lon="7.39367">
        <ele>223.26570129</ele>
        <time>2020-09-20T13:29:17Z</time>
      </trkpt>
      <trkpt lat="48.64646" lon="7.39369">
        <ele>223.26570129</ele>
        <time>2020-09-20T13:29:19Z</time>
      </trkpt>
      <trkpt lat="48.64631" lon="7.39371">
        <ele>223.26570129</ele>
        <time>2020-09-20T13:29:20Z</time>
      </trkpt>
      <trkpt lat="48.6462" lon="7.39372">
        <ele>222.1815033</ele>
        <time>2020-09-20T13:29:21Z</time>
      </trkpt>
      <trkpt lat="48.64607" lon="7.39373">
        <ele>222.1815033</ele>
        <time>2020-09-20T13:29:23Z</time>
      </trkpt>
      <trkpt lat="48.64591" lon="7.3937">
        <ele>222.1815033</ele>
        <time>2020-09-20T13:29:25Z</time>
      </trkpt>
      <trkpt lat="48.64574" lon="7.39364">
        <ele>222.1815033</ele>
        <time>2020-09-20T13:29:27Z</time>
      </trkpt>
      <trkpt lat="48.64561" lon="7.39357">
        <ele>222.1815033</ele>
        <time>2020-09-20T13:29:29Z</time>
      </trkpt>
      <trkpt lat="48.64548" lon="7.39351">
        <ele>222.1815033</ele>
        <time>2020-09-20T13:29:31Z</time>
      </trkpt>
      <trkpt lat="48.64534" lon="7.39346">
        <ele>222.1815033</ele>
        <time>2020-09-20T13:29:33Z</time>
      </trkpt>
      <trkpt lat="48.64521" lon="7.39341">
        <ele>222.1815033</ele>
        <time>2020-09-20T13:29:35Z</time>
      </trkpt>
      <trkpt lat="48.64508" lon="7.39334">
        <ele>222.1815033</ele>
        <time>2020-09-20T13:29:37Z</time>
      </trkpt>
      <trkpt lat="48.64496" lon="7.39329">
        <ele>222.1815033</ele>
        <time>2020-09-20T13:29:39Z</time>
      </trkpt>
      <trkpt lat="48.64482" lon="7.39325">
        <ele>222.1815033</ele>
        <time>2020-09-20T13:29:41Z</time>
      </trkpt>
      <trkpt lat="48.6447" lon="7.3932">
        <ele>222.1815033</ele>
        <time>2020-09-20T13:29:43Z</time>
      </trkpt>
      <trkpt lat="48.64459" lon="7.39315">
        <ele>222.1815033</ele>
        <time>2020-09-20T13:29:45Z</time>
      </trkpt>
      <trkpt lat="48.64447" lon="7.3931">
        <ele>222.1815033</ele>
        <time>2020-09-20T13:29:47Z</time>
      </trkpt>
      <trkpt lat="48.64435" lon="7.39305">
        <ele>222.1815033</ele>
        <time>2020-09-20T13:29:49Z</time>
      </trkpt>
      <trkpt lat="48.64422" lon="7.39297">
        <ele>221.69973755</ele>
        <time>2020-09-20T13:29:51Z</time>
      </trkpt>
      <trkpt lat="48.64415" lon="7.39294">
        <ele>221.69973755</ele>
        <time>2020-09-20T13:29:53Z</time>
      </trkpt>
      <trkpt lat="48.64406" lon="7.3929">
        <ele>221.69973755</ele>
        <time>2020-09-20T13:29:56Z</time>
      </trkpt>
      <trkpt lat="48.64396" lon="7.39293">
        <ele>221.69973755</ele>
        <time>2020-09-20T13:29:58Z</time>
      </trkpt>
      <trkpt lat="48.64386" lon="7.393">
        <ele>221.69973755</ele>
        <time>2020-09-20T13:30:00Z</time>
      </trkpt>
      <trkpt lat="48.6438" lon="7.39312">
        <ele>221.69973755</ele>
        <time>2020-09-20T13:30:02Z</time>
      </trkpt>
      <trkpt lat="48.64369" lon="7.39321">
        <ele>221.69973755</ele>
        <time>2020-09-20T13:30:04Z</time>
      </trkpt>
      <trkpt lat="48.64356" lon="7.39326">
        <ele>221.69973755</ele>
        <time>2020-09-20T13:30:06Z</time>
      </trkpt>
      <trkpt lat="48.64343" lon="7.3933">
        <ele>221.69973755</ele>
        <time>2020-09-20T13:30:08Z</time>
      </trkpt>
      <trkpt lat="48.6433" lon="7.39336">
        <ele>221.69973755</ele>
        <time>2020-09-20T13:30:10Z</time>
      </trkpt>
      <trkpt lat="48.64319" lon="7.39343">
        <ele>221.69973755</ele>
        <time>2020-09-20T13:30:12Z</time>
      </trkpt>
      <trkpt lat="48.64308" lon="7.39352">
        <ele>221.69973755</ele>
        <time>2020-09-20T13:30:14Z</time>
      </trkpt>
      <trkpt lat="48.64299" lon="7.39363">
        <ele>221.69973755</ele>
        <time>2020-09-20T13:30:17Z</time>
      </trkpt>
      <trkpt lat="48.64289" lon="7.39379">
        <ele>221.69973755</ele>
        <time>2020-09-20T13:30:19Z</time>
      </trkpt>
      <trkpt lat="48.6428" lon="7.39393">
        <ele>221.69973755</ele>
        <time>2020-09-20T13:30:21Z</time>
      </trkpt>
      <trkpt lat="48.64271" lon="7.39407">
        <ele>221.69973755</ele>
        <time>2020-09-20T13:30:23Z</time>
      </trkpt>
      <trkpt lat="48.64263" lon="7.39419">
        <ele>221.69973755</ele>
        <time>2020-09-20T13:30:25Z</time>
      </trkpt>
      <trkpt lat="48.64257" lon="7.39433">
        <ele>222.35287476</ele>
        <time>2020-09-20T13:30:27Z</time>
      </trkpt>
      <trkpt lat="48.6425" lon="7.39446">
        <ele>224.11540222</ele>
        <time>2020-09-20T13:30:29Z</time>
      </trkpt>
      <trkpt lat="48.64243" lon="7.39458">
        <ele>224.11540222</ele>
        <time>2020-09-20T13:30:32Z</time>
      </trkpt>
      <trkpt lat="48.64238" lon="7.39471">
        <ele>225.15988159</ele>
        <time>2020-09-20T13:30:35Z</time>
      </trkpt>
      <trkpt lat="48.64244" lon="7.39486">
        <ele>225.15988159</ele>
        <time>2020-09-20T13:30:37Z</time>
      </trkpt>
      <trkpt lat="48.64253" lon="7.39498">
        <ele>225.15988159</ele>
        <time>2020-09-20T13:30:39Z</time>
      </trkpt>
      <trkpt lat="48.64262" lon="7.39506">
        <ele>225.15988159</ele>
        <time>2020-09-20T13:30:41Z</time>
      </trkpt>
      <trkpt lat="48.6427" lon="7.39515">
        <ele>226.28814697</ele>
        <time>2020-09-20T13:30:43Z</time>
      </trkpt>
      <trkpt lat="48.64277" lon="7.39525">
        <ele>226.28814697</ele>
        <time>2020-09-20T13:30:45Z</time>
      </trkpt>
      <trkpt lat="48.64284" lon="7.39535">
        <ele>227.40208435</ele>
        <time>2020-09-20T13:30:47Z</time>
      </trkpt>
      <trkpt lat="48.64291" lon="7.39546">
        <ele>227.40208435</ele>
        <time>2020-09-20T13:30:49Z</time>
      </trkpt>
      <trkpt lat="48.64299" lon="7.39558">
        <ele>227.40208435</ele>
        <time>2020-09-20T13:30:51Z</time>
      </trkpt>
      <trkpt lat="48.64301" lon="7.3956">
        <ele>228.20730591</ele>
        <time>2020-09-20T13:30:52Z</time>
      </trkpt>
      <trkpt lat="48.64304" lon="7.39571">
        <ele>228.20730591</ele>
        <time>2020-09-20T13:30:54Z</time>
      </trkpt>
      <trkpt lat="48.64308" lon="7.39588">
        <ele>228.20730591</ele>
        <time>2020-09-20T13:30:56Z</time>
      </trkpt>
      <trkpt lat="48.64311" lon="7.39604">
        <ele>228.20730591</ele>
        <time>2020-09-20T13:30:59Z</time>
      </trkpt>
      <trkpt lat="48.64316" lon="7.39623">
        <ele>229.10438538</ele>
        <time>2020-09-20T13:31:01Z</time>
      </trkpt>
      <trkpt lat="48.64319" lon="7.39638">
        <ele>229.10438538</ele>
        <time>2020-09-20T13:31:03Z</time>
      </trkpt>
      <trkpt lat="48.64323" lon="7.39655">
        <ele>229.10438538</ele>
        <time>2020-09-20T13:31:05Z</time>
      </trkpt>
      <trkpt lat="48.64326" lon="7.39672">
        <ele>229.10438538</ele>
        <time>2020-09-20T13:31:07Z</time>
      </trkpt>
      <trkpt lat="48.64329" lon="7.3969">
        <ele>229.10438538</ele>
        <time>2020-09-20T13:31:09Z</time>
      </trkpt>
      <trkpt lat="48.64333" lon="7.39708">
        <ele>229.10438538</ele>
        <time>2020-09-20T13:31:11Z</time>
      </trkpt>
      <trkpt lat="48.64337" lon="7.39724">
        <ele>229.10438538</ele>
        <time>2020-09-20T13:31:13Z</time>
      </trkpt>
      <trkpt lat="48.64335" lon="7.39737">
        <ele>229.10438538</ele>
        <time>2020-09-20T13:31:15Z</time>
      </trkpt>
      <trkpt lat="48.64332" lon="7.39755">
        <ele>229.10438538</ele>
        <time>2020-09-20T13:31:17Z</time>
      </trkpt>
      <trkpt lat="48.64333" lon="7.39773">
        <ele>229.10438538</ele>
        <time>2020-09-20T13:31:19Z</time>
      </trkpt>
      <trkpt lat="48.64334" lon="7.39791">
        <ele>229.77876282</ele>
        <time>2020-09-20T13:31:21Z</time>
      </trkpt>
      <trkpt lat="48.64336" lon="7.39808">
        <ele>229.77876282</ele>
        <time>2020-09-20T13:31:23Z</time>
      </trkpt>
      <trkpt lat="48.64337" lon="7.39826">
        <ele>229.77876282</ele>
        <time>2020-09-20T13:31:25Z</time>
      </trkpt>
      <trkpt lat="48.64339" lon="7.39843">
        <ele>229.77876282</ele>
        <time>2020-09-20T13:31:27Z</time>
      </trkpt>
      <trkpt lat="48.6434" lon="7.39859">
        <ele>229.77876282</ele>
        <time>2020-09-20T13:31:29Z</time>
      </trkpt>
      <trkpt lat="48.64342" lon="7.39872">
        <ele>231.14379883</ele>
        <time>2020-09-20T13:31:31Z</time>
      </trkpt>
      <trkpt lat="48.64343" lon="7.39888">
        <ele>231.14379883</ele>
        <time>2020-09-20T13:31:34Z</time>
      </trkpt>
      <trkpt lat="48.64348" lon="7.39906">
        <ele>231.14379883</ele>
        <time>2020-09-20T13:31:36Z</time>
      </trkpt>
      <trkpt lat="48.64354" lon="7.39918">
        <ele>231.14379883</ele>
        <time>2020-09-20T13:31:38Z</time>
      </trkpt>
      <trkpt lat="48.64356" lon="7.39932">
        <ele>231.14379883</ele>
        <time>2020-09-20T13:31:40Z</time>
      </trkpt>
      <trkpt lat="48.64358" lon="7.39947">
        <ele>231.14379883</ele>
        <time>2020-09-20T13:31:42Z</time>
      </trkpt>
      <trkpt lat="48.6436" lon="7.39961">
        <ele>231.14379883</ele>
        <time>2020-09-20T13:31:44Z</time>
      </trkpt>
      <trkpt lat="48.64361" lon="7.39976">
        <ele>231.14379883</ele>
        <time>2020-09-20T13:31:46Z</time>
      </trkpt>
      <trkpt lat="48.6436" lon="7.39989">
        <ele>231.14379883</ele>
        <time>2020-09-20T13:31:48Z</time>
      </trkpt>
      <trkpt lat="48.64356" lon="7.40004">
        <ele>231.14379883</ele>
        <time>2020-09-20T13:31:50Z</time>
      </trkpt>
      <trkpt lat="48.64354" lon="7.40013">
        <ele>231.80979919</ele>
        <time>2020-09-20T13:31:51Z</time>
      </trkpt>
      <trkpt lat="48.64349" lon="7.40022">
        <ele>231.80979919</ele>
        <time>2020-09-20T13:31:53Z</time>
      </trkpt>
      <trkpt lat="48.64344" lon="7.40034">
        <ele>231.80979919</ele>
        <time>2020-09-20T13:31:55Z</time>
      </trkpt>
      <trkpt lat="48.64338" lon="7.40047">
        <ele>231.80979919</ele>
        <time>2020-09-20T13:31:58Z</time>
      </trkpt>
      <trkpt lat="48.64335" lon="7.4006">
        <ele>231.80979919</ele>
        <time>2020-09-20T13:32:01Z</time>
      </trkpt>
      <trkpt lat="48.64327" lon="7.40074">
        <ele>231.80979919</ele>
        <time>2020-09-20T13:32:04Z</time>
      </trkpt>
      <trkpt lat="48.64322" lon="7.40091">
        <ele>231.80979919</ele>
        <time>2020-09-20T13:32:06Z</time>
      </trkpt>
      <trkpt lat="48.64317" lon="7.40104">
        <ele>231.80979919</ele>
        <time>2020-09-20T13:32:08Z</time>
      </trkpt>
      <trkpt lat="48.64316" lon="7.40121">
        <ele>231.80979919</ele>
        <time>2020-09-20T13:32:11Z</time>
      </trkpt>
      <trkpt lat="48.64318" lon="7.4014">
        <ele>230.67958069</ele>
        <time>2020-09-20T13:32:13Z</time>
      </trkpt>
      <trkpt lat="48.64317" lon="7.40156">
        <ele>230.67958069</ele>
        <time>2020-09-20T13:32:15Z</time>
      </trkpt>
      <trkpt lat="48.64315" lon="7.40173">
        <ele>230.67958069</ele>
        <time>2020-09-20T13:32:17Z</time>
      </trkpt>
      <trkpt lat="48.64312" lon="7.40189">
        <ele>230.67958069</ele>
        <time>2020-09-20T13:32:19Z</time>
      </trkpt>
      <trkpt lat="48.64307" lon="7.40203">
        <ele>230.67958069</ele>
        <time>2020-09-20T13:32:21Z</time>
      </trkpt>
      <trkpt lat="48.64301" lon="7.40219">
        <ele>230.67958069</ele>
        <time>2020-09-20T13:32:23Z</time>
      </trkpt>
      <trkpt lat="48.64293" lon="7.40236">
        <ele>230.67958069</ele>
        <time>2020-09-20T13:32:25Z</time>
      </trkpt>
      <trkpt lat="48.64288" lon="7.40253">
        <ele>230.67958069</ele>
        <time>2020-09-20T13:32:27Z</time>
      </trkpt>
      <trkpt lat="48.64283" lon="7.40269">
        <ele>230.67958069</ele>
        <time>2020-09-20T13:32:29Z</time>
      </trkpt>
      <trkpt lat="48.64279" lon="7.40283">
        <ele>230.67958069</ele>
        <time>2020-09-20T13:32:31Z</time>
      </trkpt>
      <trkpt lat="48.64274" lon="7.40298">
        <ele>230.67958069</ele>
        <time>2020-09-20T13:32:33Z</time>
      </trkpt>
      <trkpt lat="48.64268" lon="7.40314">
        <ele>230.67958069</ele>
        <time>2020-09-20T13:32:36Z</time>
      </trkpt>
      <trkpt lat="48.64258" lon="7.40329">
        <ele>230.67958069</ele>
        <time>2020-09-20T13:32:39Z</time>
      </trkpt>
      <trkpt lat="48.64248" lon="7.40334">
        <ele>230.67958069</ele>
        <time>2020-09-20T13:32:42Z</time>
      </trkpt>
      <trkpt lat="48.6424" lon="7.40323">
        <ele>230.67958069</ele>
        <time>2020-09-20T13:32:45Z</time>
      </trkpt>
      <trkpt lat="48.64232" lon="7.40324">
        <ele>230.67958069</ele>
        <time>2020-09-20T13:32:48Z</time>
      </trkpt>
      <trkpt lat="48.64225" lon="7.40332">
        <ele>230.10194397</ele>
        <time>2020-09-20T13:32:51Z</time>
      </trkpt>
      <trkpt lat="48.64221" lon="7.40343">
        <ele>230.10194397</ele>
        <time>2020-09-20T13:32:54Z</time>
      </trkpt>
      <trkpt lat="48.64217" lon="7.40359">
        <ele>230.10194397</ele>
        <time>2020-09-20T13:32:57Z</time>
      </trkpt>
      <trkpt lat="48.64212" lon="7.40376">
        <ele>230.10194397</ele>
        <time>2020-09-20T13:32:59Z</time>
      </trkpt>
      <trkpt lat="48.64206" lon="7.40389">
        <ele>230.10194397</ele>
        <time>2020-09-20T13:33:01Z</time>
      </trkpt>
      <trkpt lat="48.64199" lon="7.40404">
        <ele>230.10194397</ele>
        <time>2020-09-20T13:33:03Z</time>
      </trkpt>
      <trkpt lat="48.64193" lon="7.4042">
        <ele>230.10194397</ele>
        <time>2020-09-20T13:33:05Z</time>
      </trkpt>
      <trkpt lat="48.6419" lon="7.40435">
        <ele>230.10194397</ele>
        <time>2020-09-20T13:33:07Z</time>
      </trkpt>
      <trkpt lat="48.64185" lon="7.40451">
        <ele>230.31121826</ele>
        <time>2020-09-20T13:33:09Z</time>
      </trkpt>
      <trkpt lat="48.64179" lon="7.40466">
        <ele>230.31121826</ele>
        <time>2020-09-20T13:33:11Z</time>
      </trkpt>
      <trkpt lat="48.64174" lon="7.40482">
        <ele>230.31121826</ele>
        <time>2020-09-20T13:33:13Z</time>
      </trkpt>
      <trkpt lat="48.6417" lon="7.40497">
        <ele>230.31121826</ele>
        <time>2020-09-20T13:33:15Z</time>
      </trkpt>
      <trkpt lat="48.64164" lon="7.40511">
        <ele>230.31121826</ele>
        <time>2020-09-20T13:33:17Z</time>
      </trkpt>
      <trkpt lat="48.64158" lon="7.40525">
        <ele>230.31121826</ele>
        <time>2020-09-20T13:33:19Z</time>
      </trkpt>
      <trkpt lat="48.64153" lon="7.40542">
        <ele>230.31121826</ele>
        <time>2020-09-20T13:33:21Z</time>
      </trkpt>
      <trkpt lat="48.64148" lon="7.40558">
        <ele>230.31121826</ele>
        <time>2020-09-20T13:33:23Z</time>
      </trkpt>
      <trkpt lat="48.64143" lon="7.40574">
        <ele>230.31121826</ele>
        <time>2020-09-20T13:33:25Z</time>
      </trkpt>
      <trkpt lat="48.64138" lon="7.40589">
        <ele>230.31121826</ele>
        <time>2020-09-20T13:33:27Z</time>
      </trkpt>
      <trkpt lat="48.64133" lon="7.40605">
        <ele>230.31121826</ele>
        <time>2020-09-20T13:33:29Z</time>
      </trkpt>
      <trkpt lat="48.64128" lon="7.4062">
        <ele>230.31121826</ele>
        <time>2020-09-20T13:33:31Z</time>
      </trkpt>
      <trkpt lat="48.64124" lon="7.40633">
        <ele>230.31121826</ele>
        <time>2020-09-20T13:33:33Z</time>
      </trkpt>
      <trkpt lat="48.64117" lon="7.4065">
        <ele>230.31121826</ele>
        <time>2020-09-20T13:33:35Z</time>
      </trkpt>
      <trkpt lat="48.6411" lon="7.40667">
        <ele>230.31121826</ele>
        <time>2020-09-20T13:33:37Z</time>
      </trkpt>
      <trkpt lat="48.64105" lon="7.40683">
        <ele>230.31121826</ele>
        <time>2020-09-20T13:33:39Z</time>
      </trkpt>
      <trkpt lat="48.64101" lon="7.40699">
        <ele>230.31121826</ele>
        <time>2020-09-20T13:33:41Z</time>
      </trkpt>
      <trkpt lat="48.64096" lon="7.40712">
        <ele>230.31121826</ele>
        <time>2020-09-20T13:33:43Z</time>
      </trkpt>
      <trkpt lat="48.6409" lon="7.40727">
        <ele>230.31121826</ele>
        <time>2020-09-20T13:33:46Z</time>
      </trkpt>
      <trkpt lat="48.64084" lon="7.40743">
        <ele>230.31121826</ele>
        <time>2020-09-20T13:33:48Z</time>
      </trkpt>
      <trkpt lat="48.64075" lon="7.40762">
        <ele>229.40344238</ele>
        <time>2020-09-20T13:33:51Z</time>
      </trkpt>
      <trkpt lat="48.64071" lon="7.40774">
        <ele>229.40344238</ele>
        <time>2020-09-20T13:33:54Z</time>
      </trkpt>
      <trkpt lat="48.64065" lon="7.40795">
        <ele>229.40344238</ele>
        <time>2020-09-20T13:33:56Z</time>
      </trkpt>
      <trkpt lat="48.6406" lon="7.40811">
        <ele>229.40344238</ele>
        <time>2020-09-20T13:33:58Z</time>
      </trkpt>
      <trkpt lat="48.64055" lon="7.40827">
        <ele>229.40344238</ele>
        <time>2020-09-20T13:34:00Z</time>
      </trkpt>
      <trkpt lat="48.6405" lon="7.40842">
        <ele>229.40344238</ele>
        <time>2020-09-20T13:34:02Z</time>
      </trkpt>
      <trkpt lat="48.64045" lon="7.40859">
        <ele>229.40344238</ele>
        <time>2020-09-20T13:34:04Z</time>
      </trkpt>
      <trkpt lat="48.64041" lon="7.40873">
        <ele>229.40344238</ele>
        <time>2020-09-20T13:34:06Z</time>
      </trkpt>
      <trkpt lat="48.64037" lon="7.40886">
        <ele>228.56750488</ele>
        <time>2020-09-20T13:34:08Z</time>
      </trkpt>
      <trkpt lat="48.64033" lon="7.409">
        <ele>228.56750488</ele>
        <time>2020-09-20T13:34:10Z</time>
      </trkpt>
      <trkpt lat="48.64027" lon="7.40916">
        <ele>228.56750488</ele>
        <time>2020-09-20T13:34:12Z</time>
      </trkpt>
      <trkpt lat="48.64021" lon="7.4093">
        <ele>228.56750488</ele>
        <time>2020-09-20T13:34:14Z</time>
      </trkpt>
      <trkpt lat="48.64015" lon="7.40944">
        <ele>228.56750488</ele>
        <time>2020-09-20T13:34:16Z</time>
      </trkpt>
      <trkpt lat="48.6401" lon="7.40959">
        <ele>228.56750488</ele>
        <time>2020-09-20T13:34:18Z</time>
      </trkpt>
      <trkpt lat="48.64005" lon="7.40974">
        <ele>228.56750488</ele>
        <time>2020-09-20T13:34:20Z</time>
      </trkpt>
      <trkpt lat="48.63999" lon="7.40994">
        <ele>227.34403992</ele>
        <time>2020-09-20T13:34:22Z</time>
      </trkpt>
      <trkpt lat="48.63993" lon="7.4101">
        <ele>227.34403992</ele>
        <time>2020-09-20T13:34:24Z</time>
      </trkpt>
      <trkpt lat="48.63985" lon="7.41028">
        <ele>227.34403992</ele>
        <time>2020-09-20T13:34:26Z</time>
      </trkpt>
      <trkpt lat="48.63979" lon="7.41044">
        <ele>227.34403992</ele>
        <time>2020-09-20T13:34:28Z</time>
      </trkpt>
      <trkpt lat="48.63976" lon="7.41062">
        <ele>227.34403992</ele>
        <time>2020-09-20T13:34:30Z</time>
      </trkpt>
      <trkpt lat="48.63971" lon="7.4108">
        <ele>227.34403992</ele>
        <time>2020-09-20T13:34:32Z</time>
      </trkpt>
      <trkpt lat="48.63965" lon="7.41097">
        <ele>227.34403992</ele>
        <time>2020-09-20T13:34:34Z</time>
      </trkpt>
      <trkpt lat="48.63955" lon="7.41112">
        <ele>227.34403992</ele>
        <time>2020-09-20T13:34:36Z</time>
      </trkpt>
      <trkpt lat="48.63947" lon="7.41127">
        <ele>227.34403992</ele>
        <time>2020-09-20T13:34:37Z</time>
      </trkpt>
      <trkpt lat="48.63942" lon="7.41138">
        <ele>227.34403992</ele>
        <time>2020-09-20T13:34:39Z</time>
      </trkpt>
      <trkpt lat="48.63934" lon="7.41155">
        <ele>226.22688293</ele>
        <time>2020-09-20T13:34:41Z</time>
      </trkpt>
      <trkpt lat="48.63925" lon="7.41171">
        <ele>226.22688293</ele>
        <time>2020-09-20T13:34:43Z</time>
      </trkpt>
      <trkpt lat="48.63916" lon="7.41186">
        <ele>226.22688293</ele>
        <time>2020-09-20T13:34:45Z</time>
      </trkpt>
      <trkpt lat="48.63907" lon="7.41201">
        <ele>226.22688293</ele>
        <time>2020-09-20T13:34:47Z</time>
      </trkpt>
      <trkpt lat="48.63898" lon="7.41217">
        <ele>226.22688293</ele>
        <time>2020-09-20T13:34:49Z</time>
      </trkpt>
      <trkpt lat="48.63887" lon="7.41234">
        <ele>225.08891296</ele>
        <time>2020-09-20T13:34:51Z</time>
      </trkpt>
      <trkpt lat="48.6388" lon="7.41245">
        <ele>225.08891296</ele>
        <time>2020-09-20T13:34:53Z</time>
      </trkpt>
      <trkpt lat="48.6387" lon="7.41258">
        <ele>225.08891296</ele>
        <time>2020-09-20T13:34:55Z</time>
      </trkpt>
      <trkpt lat="48.6386" lon="7.41271">
        <ele>225.08891296</ele>
        <time>2020-09-20T13:34:57Z</time>
      </trkpt>
      <trkpt lat="48.63852" lon="7.41285">
        <ele>225.08891296</ele>
        <time>2020-09-20T13:34:59Z</time>
      </trkpt>
      <trkpt lat="48.63842" lon="7.41297">
        <ele>225.08891296</ele>
        <time>2020-09-20T13:35:01Z</time>
      </trkpt>
      <trkpt lat="48.63832" lon="7.41308">
        <ele>225.08891296</ele>
        <time>2020-09-20T13:35:03Z</time>
      </trkpt>
      <trkpt lat="48.63821" lon="7.4132">
        <ele>224.15359497</ele>
        <time>2020-09-20T13:35:05Z</time>
      </trkpt>
      <trkpt lat="48.63811" lon="7.41331">
        <ele>224.15359497</ele>
        <time>2020-09-20T13:35:07Z</time>
      </trkpt>
      <trkpt lat="48.638" lon="7.41341">
        <ele>224.15359497</ele>
        <time>2020-09-20T13:35:09Z</time>
      </trkpt>
      <trkpt lat="48.63788" lon="7.41353">
        <ele>224.15359497</ele>
        <time>2020-09-20T13:35:11Z</time>
      </trkpt>
      <trkpt lat="48.63777" lon="7.41364">
        <ele>224.15359497</ele>
        <time>2020-09-20T13:35:13Z</time>
      </trkpt>
      <trkpt lat="48.63763" lon="7.41373">
        <ele>224.15359497</ele>
        <time>2020-09-20T13:35:15Z</time>
      </trkpt>
      <trkpt lat="48.63752" lon="7.41382">
        <ele>224.15359497</ele>
        <time>2020-09-20T13:35:17Z</time>
      </trkpt>
      <trkpt lat="48.63743" lon="7.41391">
        <ele>223.26890564</ele>
        <time>2020-09-20T13:35:19Z</time>
      </trkpt>
      <trkpt lat="48.63733" lon="7.41402">
        <ele>223.26890564</ele>
        <time>2020-09-20T13:35:21Z</time>
      </trkpt>
      <trkpt lat="48.63722" lon="7.41412">
        <ele>223.26890564</ele>
        <time>2020-09-20T13:35:23Z</time>
      </trkpt>
      <trkpt lat="48.6371" lon="7.41422">
        <ele>223.26890564</ele>
        <time>2020-09-20T13:35:25Z</time>
      </trkpt>
      <trkpt lat="48.63699" lon="7.41433">
        <ele>223.26890564</ele>
        <time>2020-09-20T13:35:27Z</time>
      </trkpt>
      <trkpt lat="48.63688" lon="7.41441">
        <ele>223.26890564</ele>
        <time>2020-09-20T13:35:29Z</time>
      </trkpt>
      <trkpt lat="48.63677" lon="7.41449">
        <ele>223.26890564</ele>
        <time>2020-09-20T13:35:31Z</time>
      </trkpt>
      <trkpt lat="48.63665" lon="7.41458">
        <ele>223.26890564</ele>
        <time>2020-09-20T13:35:33Z</time>
      </trkpt>
      <trkpt lat="48.63655" lon="7.41466">
        <ele>223.26890564</ele>
        <time>2020-09-20T13:35:35Z</time>
      </trkpt>
      <trkpt lat="48.63644" lon="7.41474">
        <ele>223.26890564</ele>
        <time>2020-09-20T13:35:37Z</time>
      </trkpt>
      <trkpt lat="48.63632" lon="7.41484">
        <ele>223.26890564</ele>
        <time>2020-09-20T13:35:39Z</time>
      </trkpt>
      <trkpt lat="48.63621" lon="7.41493">
        <ele>222.15158081</ele>
        <time>2020-09-20T13:35:41Z</time>
      </trkpt>
      <trkpt lat="48.6361" lon="7.41504">
        <ele>222.15158081</ele>
        <time>2020-09-20T13:35:43Z</time>
      </trkpt>
      <trkpt lat="48.63598" lon="7.41511">
        <ele>222.15158081</ele>
        <time>2020-09-20T13:35:45Z</time>
      </trkpt>
      <trkpt lat="48.63585" lon="7.41517">
        <ele>222.15158081</ele>
        <time>2020-09-20T13:35:47Z</time>
      </trkpt>
      <trkpt lat="48.63572" lon="7.41526">
        <ele>222.15158081</ele>
        <time>2020-09-20T13:35:49Z</time>
      </trkpt>
      <trkpt lat="48.63558" lon="7.41536">
        <ele>221.19297791</ele>
        <time>2020-09-20T13:35:51Z</time>
      </trkpt>
      <trkpt lat="48.63549" lon="7.41546">
        <ele>221.19297791</ele>
        <time>2020-09-20T13:35:53Z</time>
      </trkpt>
      <trkpt lat="48.63536" lon="7.41557">
        <ele>221.19297791</ele>
        <time>2020-09-20T13:35:55Z</time>
      </trkpt>
      <trkpt lat="48.63525" lon="7.41567">
        <ele>221.19297791</ele>
        <time>2020-09-20T13:35:57Z</time>
      </trkpt>
      <trkpt lat="48.63514" lon="7.41578">
        <ele>220.16874695</ele>
        <time>2020-09-20T13:35:59Z</time>
      </trkpt>
      <trkpt lat="48.63503" lon="7.4159">
        <ele>220.16874695</ele>
        <time>2020-09-20T13:36:01Z</time>
      </trkpt>
      <trkpt lat="48.63491" lon="7.41597">
        <ele>220.16874695</ele>
        <time>2020-09-20T13:36:03Z</time>
      </trkpt>
      <trkpt lat="48.63479" lon="7.41604">
        <ele>220.16874695</ele>
        <time>2020-09-20T13:36:05Z</time>
      </trkpt>
      <trkpt lat="48.63467" lon="7.41614">
        <ele>220.16874695</ele>
        <time>2020-09-20T13:36:07Z</time>
      </trkpt>
      <trkpt lat="48.63455" lon="7.41624">
        <ele>220.16874695</ele>
        <time>2020-09-20T13:36:09Z</time>
      </trkpt>
      <trkpt lat="48.63443" lon="7.41635">
        <ele>219.05940247</ele>
        <time>2020-09-20T13:36:11Z</time>
      </trkpt>
      <trkpt lat="48.6343" lon="7.41646">
        <ele>219.05940247</ele>
        <time>2020-09-20T13:36:13Z</time>
      </trkpt>
      <trkpt lat="48.6342" lon="7.41656">
        <ele>219.05940247</ele>
        <time>2020-09-20T13:36:15Z</time>
      </trkpt>
      <trkpt lat="48.63407" lon="7.41667">
        <ele>219.05940247</ele>
        <time>2020-09-20T13:36:17Z</time>
      </trkpt>
      <trkpt lat="48.63395" lon="7.41678">
        <ele>219.05940247</ele>
        <time>2020-09-20T13:36:19Z</time>
      </trkpt>
      <trkpt lat="48.63384" lon="7.41689">
        <ele>219.05940247</ele>
        <time>2020-09-20T13:36:21Z</time>
      </trkpt>
      <trkpt lat="48.63374" lon="7.41699">
        <ele>219.05940247</ele>
        <time>2020-09-20T13:36:23Z</time>
      </trkpt>
      <trkpt lat="48.63362" lon="7.41713">
        <ele>219.05940247</ele>
        <time>2020-09-20T13:36:25Z</time>
      </trkpt>
      <trkpt lat="48.63351" lon="7.41726">
        <ele>218.03384399</ele>
        <time>2020-09-20T13:36:27Z</time>
      </trkpt>
      <trkpt lat="48.63341" lon="7.41738">
        <ele>218.03384399</ele>
        <time>2020-09-20T13:36:29Z</time>
      </trkpt>
      <trkpt lat="48.63332" lon="7.41752">
        <ele>218.03384399</ele>
        <time>2020-09-20T13:36:31Z</time>
      </trkpt>
      <trkpt lat="48.63329" lon="7.41765">
        <ele>218.03384399</ele>
        <time>2020-09-20T13:36:34Z</time>
      </trkpt>
      <trkpt lat="48.63328" lon="7.41781">
        <ele>218.00205994</ele>
        <time>2020-09-20T13:36:37Z</time>
      </trkpt>
      <trkpt lat="48.63321" lon="7.41788">
        <ele>218.00205994</ele>
        <time>2020-09-20T13:36:41Z</time>
      </trkpt>
      <trkpt lat="48.6331" lon="7.41788">
        <ele>218.00205994</ele>
        <time>2020-09-20T13:36:44Z</time>
      </trkpt>
      <trkpt lat="48.633" lon="7.41795">
        <ele>218.00205994</ele>
        <time>2020-09-20T13:36:46Z</time>
      </trkpt>
      <trkpt lat="48.63291" lon="7.41805">
        <ele>218.00205994</ele>
        <time>2020-09-20T13:36:48Z</time>
      </trkpt>
      <trkpt lat="48.63285" lon="7.41817">
        <ele>218.00205994</ele>
        <time>2020-09-20T13:36:50Z</time>
      </trkpt>
      <trkpt lat="48.63278" lon="7.41829">
        <ele>218.36654663</ele>
        <time>2020-09-20T13:36:51Z</time>
      </trkpt>
      <trkpt lat="48.63272" lon="7.4184">
        <ele>218.36654663</ele>
        <time>2020-09-20T13:36:53Z</time>
      </trkpt>
      <trkpt lat="48.63264" lon="7.41855">
        <ele>218.36654663</ele>
        <time>2020-09-20T13:36:55Z</time>
      </trkpt>
      <trkpt lat="48.63258" lon="7.4187">
        <ele>218.36654663</ele>
        <time>2020-09-20T13:36:57Z</time>
      </trkpt>
      <trkpt lat="48.63252" lon="7.41882">
        <ele>218.36654663</ele>
        <time>2020-09-20T13:36:59Z</time>
      </trkpt>
      <trkpt lat="48.63243" lon="7.41894">
        <ele>218.36654663</ele>
        <time>2020-09-20T13:37:01Z</time>
      </trkpt>
      <trkpt lat="48.63236" lon="7.41909">
        <ele>218.36654663</ele>
        <time>2020-09-20T13:37:04Z</time>
      </trkpt>
      <trkpt lat="48.63231" lon="7.41925">
        <ele>218.36654663</ele>
        <time>2020-09-20T13:37:06Z</time>
      </trkpt>
      <trkpt lat="48.63225" lon="7.41943">
        <ele>218.36654663</ele>
        <time>2020-09-20T13:37:08Z</time>
      </trkpt>
      <trkpt lat="48.63221" lon="7.41956">
        <ele>218.36654663</ele>
        <time>2020-09-20T13:37:10Z</time>
      </trkpt>
      <trkpt lat="48.63217" lon="7.4197">
        <ele>218.36654663</ele>
        <time>2020-09-20T13:37:12Z</time>
      </trkpt>
      <trkpt lat="48.63213" lon="7.41985">
        <ele>218.36654663</ele>
        <time>2020-09-20T13:37:15Z</time>
      </trkpt>
      <trkpt lat="48.63206" lon="7.42001">
        <ele>218.36654663</ele>
        <time>2020-09-20T13:37:17Z</time>
      </trkpt>
      <trkpt lat="48.63203" lon="7.42019">
        <ele>218.36654663</ele>
        <time>2020-09-20T13:37:19Z</time>
      </trkpt>
      <trkpt lat="48.63201" lon="7.42039">
        <ele>218.36654663</ele>
        <time>2020-09-20T13:37:21Z</time>
      </trkpt>
      <trkpt lat="48.63198" lon="7.42053">
        <ele>218.36654663</ele>
        <time>2020-09-20T13:37:23Z</time>
      </trkpt>
      <trkpt lat="48.63192" lon="7.42072">
        <ele>218.36654663</ele>
        <time>2020-09-20T13:37:25Z</time>
      </trkpt>
      <trkpt lat="48.6319" lon="7.42094">
        <ele>218.36654663</ele>
        <time>2020-09-20T13:37:27Z</time>
      </trkpt>
      <trkpt lat="48.63188" lon="7.42115">
        <ele>218.36654663</ele>
        <time>2020-09-20T13:37:28Z</time>
      </trkpt>
      <trkpt lat="48.63189" lon="7.42133">
        <ele>218.36654663</ele>
        <time>2020-09-20T13:37:30Z</time>
      </trkpt>
      <trkpt lat="48.63187" lon="7.42154">
        <ele>218.36654663</ele>
        <time>2020-09-20T13:37:31Z</time>
      </trkpt>
      <trkpt lat="48.63186" lon="7.42171">
        <ele>218.36654663</ele>
        <time>2020-09-20T13:37:33Z</time>
      </trkpt>
      <trkpt lat="48.63189" lon="7.4219">
        <ele>218.36654663</ele>
        <time>2020-09-20T13:37:35Z</time>
      </trkpt>
      <trkpt lat="48.63191" lon="7.42211">
        <ele>218.36654663</ele>
        <time>2020-09-20T13:37:37Z</time>
      </trkpt>
      <trkpt lat="48.63197" lon="7.42228">
        <ele>218.36654663</ele>
        <time>2020-09-20T13:37:38Z</time>
      </trkpt>
      <trkpt lat="48.632" lon="7.42243">
        <ele>218.36654663</ele>
        <time>2020-09-20T13:37:40Z</time>
      </trkpt>
      <trkpt lat="48.63202" lon="7.42261">
        <ele>218.36654663</ele>
        <time>2020-09-20T13:37:42Z</time>
      </trkpt>
      <trkpt lat="48.63201" lon="7.42279">
        <ele>217.42167664</ele>
        <time>2020-09-20T13:37:44Z</time>
      </trkpt>
      <trkpt lat="48.63198" lon="7.42299">
        <ele>217.42167664</ele>
        <time>2020-09-20T13:37:46Z</time>
      </trkpt>
      <trkpt lat="48.63195" lon="7.42319">
        <ele>217.42167664</ele>
        <time>2020-09-20T13:37:48Z</time>
      </trkpt>
      <trkpt lat="48.63195" lon="7.42337">
        <ele>217.42167664</ele>
        <time>2020-09-20T13:37:50Z</time>
      </trkpt>
      <trkpt lat="48.63195" lon="7.42351">
        <ele>216.05221558</ele>
        <time>2020-09-20T13:37:51Z</time>
      </trkpt>
      <trkpt lat="48.63195" lon="7.42369">
        <ele>216.05221558</ele>
        <time>2020-09-20T13:37:53Z</time>
      </trkpt>
      <trkpt lat="48.63195" lon="7.42391">
        <ele>216.05221558</ele>
        <time>2020-09-20T13:37:55Z</time>
      </trkpt>
      <trkpt lat="48.632" lon="7.42412">
        <ele>216.05221558</ele>
        <time>2020-09-20T13:37:57Z</time>
      </trkpt>
      <trkpt lat="48.63205" lon="7.42433">
        <ele>216.05221558</ele>
        <time>2020-09-20T13:37:59Z</time>
      </trkpt>
      <trkpt lat="48.63205" lon="7.42454">
        <ele>216.05221558</ele>
        <time>2020-09-20T13:38:01Z</time>
      </trkpt>
      <trkpt lat="48.63205" lon="7.42474">
        <ele>215.14039612</ele>
        <time>2020-09-20T13:38:03Z</time>
      </trkpt>
      <trkpt lat="48.63206" lon="7.42494">
        <ele>215.14039612</ele>
        <time>2020-09-20T13:38:05Z</time>
      </trkpt>
      <trkpt lat="48.6321" lon="7.42513">
        <ele>215.14039612</ele>
        <time>2020-09-20T13:38:07Z</time>
      </trkpt>
      <trkpt lat="48.63214" lon="7.42535">
        <ele>215.14039612</ele>
        <time>2020-09-20T13:38:09Z</time>
      </trkpt>
      <trkpt lat="48.63215" lon="7.42559">
        <ele>215.14039612</ele>
        <time>2020-09-20T13:38:11Z</time>
      </trkpt>
      <trkpt lat="48.63218" lon="7.42582">
        <ele>215.14039612</ele>
        <time>2020-09-20T13:38:13Z</time>
      </trkpt>
      <trkpt lat="48.6322" lon="7.42602">
        <ele>215.14039612</ele>
        <time>2020-09-20T13:38:15Z</time>
      </trkpt>
      <trkpt lat="48.63219" lon="7.42625">
        <ele>215.14039612</ele>
        <time>2020-09-20T13:38:17Z</time>
      </trkpt>
      <trkpt lat="48.63215" lon="7.42646">
        <ele>214.13754272</ele>
        <time>2020-09-20T13:38:19Z</time>
      </trkpt>
      <trkpt lat="48.63213" lon="7.42666">
        <ele>214.13754272</ele>
        <time>2020-09-20T13:38:21Z</time>
      </trkpt>
      <trkpt lat="48.63215" lon="7.42685">
        <ele>214.13754272</ele>
        <time>2020-09-20T13:38:23Z</time>
      </trkpt>
      <trkpt lat="48.63222" lon="7.42706">
        <ele>214.13754272</ele>
        <time>2020-09-20T13:38:25Z</time>
      </trkpt>
      <trkpt lat="48.63227" lon="7.42726">
        <ele>214.13754272</ele>
        <time>2020-09-20T13:38:27Z</time>
      </trkpt>
      <trkpt lat="48.63233" lon="7.42748">
        <ele>214.13754272</ele>
        <time>2020-09-20T13:38:29Z</time>
      </trkpt>
      <trkpt lat="48.63233" lon="7.42771">
        <ele>214.13754272</ele>
        <time>2020-09-20T13:38:31Z</time>
      </trkpt>
      <trkpt lat="48.63231" lon="7.42792">
        <ele>214.13754272</ele>
        <time>2020-09-20T13:38:33Z</time>
      </trkpt>
      <trkpt lat="48.63232" lon="7.42813">
        <ele>213.02783203</ele>
        <time>2020-09-20T13:38:35Z</time>
      </trkpt>
      <trkpt lat="48.63233" lon="7.42837">
        <ele>213.02783203</ele>
        <time>2020-09-20T13:38:37Z</time>
      </trkpt>
      <trkpt lat="48.63237" lon="7.42857">
        <ele>213.02783203</ele>
        <time>2020-09-20T13:38:39Z</time>
      </trkpt>
      <trkpt lat="48.63239" lon="7.42879">
        <ele>213.02783203</ele>
        <time>2020-09-20T13:38:41Z</time>
      </trkpt>
      <trkpt lat="48.63242" lon="7.42899">
        <ele>213.02783203</ele>
        <time>2020-09-20T13:38:43Z</time>
      </trkpt>
      <trkpt lat="48.6324" lon="7.42918">
        <ele>213.02783203</ele>
        <time>2020-09-20T13:38:45Z</time>
      </trkpt>
      <trkpt lat="48.63237" lon="7.42937">
        <ele>213.02783203</ele>
        <time>2020-09-20T13:38:47Z</time>
      </trkpt>
      <trkpt lat="48.63235" lon="7.42955">
        <ele>211.86579895</ele>
        <time>2020-09-20T13:38:49Z</time>
      </trkpt>
      <trkpt lat="48.63241" lon="7.42984">
        <ele>211.28433228</ele>
        <time>2020-09-20T13:38:51Z</time>
      </trkpt>
      <trkpt lat="48.63243" lon="7.43002">
        <ele>211.28433228</ele>
        <time>2020-09-20T13:38:53Z</time>
      </trkpt>
      <trkpt lat="48.63244" lon="7.43027">
        <ele>211.28433228</ele>
        <time>2020-09-20T13:38:55Z</time>
      </trkpt>
      <trkpt lat="48.63249" lon="7.43049">
        <ele>211.28433228</ele>
        <time>2020-09-20T13:38:57Z</time>
      </trkpt>
      <trkpt lat="48.63256" lon="7.43073">
        <ele>210.66938782</ele>
        <time>2020-09-20T13:38:59Z</time>
      </trkpt>
      <trkpt lat="48.63261" lon="7.43094">
        <ele>210.66938782</ele>
        <time>2020-09-20T13:39:01Z</time>
      </trkpt>
      <trkpt lat="48.6326" lon="7.43118">
        <ele>210.66938782</ele>
        <time>2020-09-20T13:39:03Z</time>
      </trkpt>
      <trkpt lat="48.63259" lon="7.43139">
        <ele>210.66938782</ele>
        <time>2020-09-20T13:39:05Z</time>
      </trkpt>
      <trkpt lat="48.63264" lon="7.43161">
        <ele>210.66938782</ele>
        <time>2020-09-20T13:39:07Z</time>
      </trkpt>
      <trkpt lat="48.63264" lon="7.43182">
        <ele>210.66938782</ele>
        <time>2020-09-20T13:39:09Z</time>
      </trkpt>
      <trkpt lat="48.63264" lon="7.43203">
        <ele>210.66938782</ele>
        <time>2020-09-20T13:39:11Z</time>
      </trkpt>
      <trkpt lat="48.63266" lon="7.43224">
        <ele>210.66938782</ele>
        <time>2020-09-20T13:39:13Z</time>
      </trkpt>
      <trkpt lat="48.63268" lon="7.43246">
        <ele>210.66938782</ele>
        <time>2020-09-20T13:39:15Z</time>
      </trkpt>
      <trkpt lat="48.63271" lon="7.43263">
        <ele>210.66938782</ele>
        <time>2020-09-20T13:39:17Z</time>
      </trkpt>
      <trkpt lat="48.63273" lon="7.43284">
        <ele>210.66938782</ele>
        <time>2020-09-20T13:39:19Z</time>
      </trkpt>
      <trkpt lat="48.63277" lon="7.43303">
        <ele>210.66938782</ele>
        <time>2020-09-20T13:39:20Z</time>
      </trkpt>
      <trkpt lat="48.63277" lon="7.43317">
        <ele>210.66938782</ele>
        <time>2020-09-20T13:39:22Z</time>
      </trkpt>
      <trkpt lat="48.63274" lon="7.43333">
        <ele>210.66938782</ele>
        <time>2020-09-20T13:39:24Z</time>
      </trkpt>
      <trkpt lat="48.63271" lon="7.43351">
        <ele>210.66938782</ele>
        <time>2020-09-20T13:39:26Z</time>
      </trkpt>
      <trkpt lat="48.63268" lon="7.43367">
        <ele>210.66938782</ele>
        <time>2020-09-20T13:39:28Z</time>
      </trkpt>
      <trkpt lat="48.63269" lon="7.43385">
        <ele>210.00765991</ele>
        <time>2020-09-20T13:39:31Z</time>
      </trkpt>
      <trkpt lat="48.63267" lon="7.43404">
        <ele>210.00765991</ele>
        <time>2020-09-20T13:39:33Z</time>
      </trkpt>
      <trkpt lat="48.63267" lon="7.43419">
        <ele>210.00765991</ele>
        <time>2020-09-20T13:39:35Z</time>
      </trkpt>
      <trkpt lat="48.63264" lon="7.43435">
        <ele>210.00765991</ele>
        <time>2020-09-20T13:39:37Z</time>
      </trkpt>
      <trkpt lat="48.63262" lon="7.4345">
        <ele>212.04270935</ele>
        <time>2020-09-20T13:39:39Z</time>
      </trkpt>
      <trkpt lat="48.63261" lon="7.43465">
        <ele>212.04270935</ele>
        <time>2020-09-20T13:39:41Z</time>
      </trkpt>
      <trkpt lat="48.6326" lon="7.43482">
        <ele>212.93922424</ele>
        <time>2020-09-20T13:39:44Z</time>
      </trkpt>
      <trkpt lat="48.6326" lon="7.43496">
        <ele>212.93922424</ele>
        <time>2020-09-20T13:39:47Z</time>
      </trkpt>
      <trkpt lat="48.63261" lon="7.43516">
        <ele>212.93922424</ele>
        <time>2020-09-20T13:39:50Z</time>
      </trkpt>
      <trkpt lat="48.6326" lon="7.4353">
        <ele>213.68756104</ele>
        <time>2020-09-20T13:39:51Z</time>
      </trkpt>
      <trkpt lat="48.63258" lon="7.43543">
        <ele>213.68756104</ele>
        <time>2020-09-20T13:39:53Z</time>
      </trkpt>
      <trkpt lat="48.63253" lon="7.4356">
        <ele>213.68756104</ele>
        <time>2020-09-20T13:39:55Z</time>
      </trkpt>
      <trkpt lat="48.63246" lon="7.43576">
        <ele>212.53355408</ele>
        <time>2020-09-20T13:39:57Z</time>
      </trkpt>
      <trkpt lat="48.63241" lon="7.43595">
        <ele>212.53355408</ele>
        <time>2020-09-20T13:39:59Z</time>
      </trkpt>
      <trkpt lat="48.63236" lon="7.43614">
        <ele>211.20188904</ele>
        <time>2020-09-20T13:40:01Z</time>
      </trkpt>
      <trkpt lat="48.63232" lon="7.43632">
        <ele>211.20188904</ele>
        <time>2020-09-20T13:40:03Z</time>
      </trkpt>
      <trkpt lat="48.63227" lon="7.43648">
        <ele>210.15087891</ele>
        <time>2020-09-20T13:40:05Z</time>
      </trkpt>
      <trkpt lat="48.63222" lon="7.43663">
        <ele>210.15087891</ele>
        <time>2020-09-20T13:40:07Z</time>
      </trkpt>
      <trkpt lat="48.6322" lon="7.43685">
        <ele>208.89556885</ele>
        <time>2020-09-20T13:40:09Z</time>
      </trkpt>
      <trkpt lat="48.63218" lon="7.43708">
        <ele>208.89556885</ele>
        <time>2020-09-20T13:40:11Z</time>
      </trkpt>
      <trkpt lat="48.63215" lon="7.43729">
        <ele>208.89556885</ele>
        <time>2020-09-20T13:40:13Z</time>
      </trkpt>
      <trkpt lat="48.63215" lon="7.43749">
        <ele>208.89556885</ele>
        <time>2020-09-20T13:40:15Z</time>
      </trkpt>
      <trkpt lat="48.63216" lon="7.43764">
        <ele>208.89556885</ele>
        <time>2020-09-20T13:40:19Z</time>
      </trkpt>
      <trkpt lat="48.63216" lon="7.4378">
        <ele>207.82250977</ele>
        <time>2020-09-20T13:40:23Z</time>
      </trkpt>
      <trkpt lat="48.63213" lon="7.43794">
        <ele>207.82250977</ele>
        <time>2020-09-20T13:40:26Z</time>
      </trkpt>
      <trkpt lat="48.63211" lon="7.43809">
        <ele>207.82250977</ele>
        <time>2020-09-20T13:40:29Z</time>
      </trkpt>
      <trkpt lat="48.63208" lon="7.43824">
        <ele>207.82250977</ele>
        <time>2020-09-20T13:40:31Z</time>
      </trkpt>
      <trkpt lat="48.63203" lon="7.43838">
        <ele>207.82250977</ele>
        <time>2020-09-20T13:40:33Z</time>
      </trkpt>
      <trkpt lat="48.632" lon="7.43853">
        <ele>207.82250977</ele>
        <time>2020-09-20T13:40:35Z</time>
      </trkpt>
      <trkpt lat="48.63197" lon="7.43869">
        <ele>207.82250977</ele>
        <time>2020-09-20T13:40:37Z</time>
      </trkpt>
      <trkpt lat="48.63195" lon="7.43886">
        <ele>207.82250977</ele>
        <time>2020-09-20T13:40:39Z</time>
      </trkpt>
      <trkpt lat="48.63192" lon="7.43901">
        <ele>207.82250977</ele>
        <time>2020-09-20T13:40:41Z</time>
      </trkpt>
      <trkpt lat="48.6319" lon="7.43915">
        <ele>207.82250977</ele>
        <time>2020-09-20T13:40:43Z</time>
      </trkpt>
      <trkpt lat="48.6319" lon="7.43929">
        <ele>207.82250977</ele>
        <time>2020-09-20T13:40:45Z</time>
      </trkpt>
      <trkpt lat="48.63192" lon="7.43945">
        <ele>207.82250977</ele>
        <time>2020-09-20T13:40:47Z</time>
      </trkpt>
      <trkpt lat="48.632" lon="7.43964">
        <ele>207.82250977</ele>
        <time>2020-09-20T13:40:49Z</time>
      </trkpt>
      <trkpt lat="48.63205" lon="7.4398">
        <ele>207.82250977</ele>
        <time>2020-09-20T13:40:51Z</time>
      </trkpt>
      <trkpt lat="48.63206" lon="7.43985">
        <ele>206.86624146</ele>
        <time>2020-09-20T13:40:52Z</time>
      </trkpt>
      <trkpt lat="48.63209" lon="7.44">
        <ele>206.86624146</ele>
        <time>2020-09-20T13:40:53Z</time>
      </trkpt>
      <trkpt lat="48.63211" lon="7.4402">
        <ele>206.86624146</ele>
        <time>2020-09-20T13:40:55Z</time>
      </trkpt>
      <trkpt lat="48.63212" lon="7.4404">
        <ele>206.86624146</ele>
        <time>2020-09-20T13:40:57Z</time>
      </trkpt>
      <trkpt lat="48.63214" lon="7.4406">
        <ele>206.86624146</ele>
        <time>2020-09-20T13:40:59Z</time>
      </trkpt>
      <trkpt lat="48.63221" lon="7.44077">
        <ele>206.86624146</ele>
        <time>2020-09-20T13:41:01Z</time>
      </trkpt>
      <trkpt lat="48.63221" lon="7.44091">
        <ele>208.18804932</ele>
        <time>2020-09-20T13:41:04Z</time>
      </trkpt>
      <trkpt lat="48.63224" lon="7.44106">
        <ele>208.18804932</ele>
        <time>2020-09-20T13:41:06Z</time>
      </trkpt>
      <trkpt lat="48.63227" lon="7.44123">
        <ele>208.18804932</ele>
        <time>2020-09-20T13:41:08Z</time>
      </trkpt>
      <trkpt lat="48.63234" lon="7.44145">
        <ele>208.44854736</ele>
        <time>2020-09-20T13:41:10Z</time>
      </trkpt>
      <trkpt lat="48.63239" lon="7.44167">
        <ele>208.44854736</ele>
        <time>2020-09-20T13:41:11Z</time>
      </trkpt>
      <trkpt lat="48.63241" lon="7.44182">
        <ele>206.16653442</ele>
        <time>2020-09-20T13:41:12Z</time>
      </trkpt>
      <trkpt lat="48.63243" lon="7.44196">
        <ele>206.16653442</ele>
        <time>2020-09-20T13:41:13Z</time>
      </trkpt>
      <trkpt lat="48.63243" lon="7.4421">
        <ele>204.69825745</ele>
        <time>2020-09-20T13:41:14Z</time>
      </trkpt>
      <trkpt lat="48.63245" lon="7.44224">
        <ele>204.69825745</ele>
        <time>2020-09-20T13:41:15Z</time>
      </trkpt>
      <trkpt lat="48.63247" lon="7.44238">
        <ele>203.10224915</ele>
        <time>2020-09-20T13:41:16Z</time>
      </trkpt>
      <trkpt lat="48.6325" lon="7.44252">
        <ele>203.10224915</ele>
        <time>2020-09-20T13:41:17Z</time>
      </trkpt>
      <trkpt lat="48.63253" lon="7.44269">
        <ele>203.10224915</ele>
        <time>2020-09-20T13:41:18Z</time>
      </trkpt>
      <trkpt lat="48.63258" lon="7.44285">
        <ele>201.83151245</ele>
        <time>2020-09-20T13:41:19Z</time>
      </trkpt>
      <trkpt lat="48.63262" lon="7.44301">
        <ele>201.83151245</ele>
        <time>2020-09-20T13:41:20Z</time>
      </trkpt>
      <trkpt lat="48.63265" lon="7.44315">
        <ele>201.83151245</ele>
        <time>2020-09-20T13:41:21Z</time>
      </trkpt>
      <trkpt lat="48.63268" lon="7.44328">
        <ele>201.83151245</ele>
        <time>2020-09-20T13:41:22Z</time>
      </trkpt>
      <trkpt lat="48.63269" lon="7.44342">
        <ele>201.83151245</ele>
        <time>2020-09-20T13:41:23Z</time>
      </trkpt>
      <trkpt lat="48.63272" lon="7.44355">
        <ele>200.66946411</ele>
        <time>2020-09-20T13:41:24Z</time>
      </trkpt>
      <trkpt lat="48.63276" lon="7.44367">
        <ele>200.66946411</ele>
        <time>2020-09-20T13:41:25Z</time>
      </trkpt>
      <trkpt lat="48.6328" lon="7.44385">
        <ele>200.66946411</ele>
        <time>2020-09-20T13:41:27Z</time>
      </trkpt>
      <trkpt lat="48.63283" lon="7.44404">
        <ele>200.66946411</ele>
        <time>2020-09-20T13:41:28Z</time>
      </trkpt>
      <trkpt lat="48.63286" lon="7.44421">
        <ele>200.66946411</ele>
        <time>2020-09-20T13:41:30Z</time>
      </trkpt>
      <trkpt lat="48.6329" lon="7.44445">
        <ele>200.66946411</ele>
        <time>2020-09-20T13:41:32Z</time>
      </trkpt>
      <trkpt lat="48.63297" lon="7.44471">
        <ele>200.66946411</ele>
        <time>2020-09-20T13:41:34Z</time>
      </trkpt>
      <trkpt lat="48.63301" lon="7.44497">
        <ele>200.66946411</ele>
        <time>2020-09-20T13:41:36Z</time>
      </trkpt>
      <trkpt lat="48.63306" lon="7.44521">
        <ele>200.04814148</ele>
        <time>2020-09-20T13:41:38Z</time>
      </trkpt>
      <trkpt lat="48.63312" lon="7.44543">
        <ele>200.04814148</ele>
        <time>2020-09-20T13:41:40Z</time>
      </trkpt>
      <trkpt lat="48.63316" lon="7.44567">
        <ele>200.04814148</ele>
        <time>2020-09-20T13:41:42Z</time>
      </trkpt>
      <trkpt lat="48.63313" lon="7.44589">
        <ele>200.04814148</ele>
        <time>2020-09-20T13:41:44Z</time>
      </trkpt>
      <trkpt lat="48.63311" lon="7.44611">
        <ele>200.04814148</ele>
        <time>2020-09-20T13:41:46Z</time>
      </trkpt>
      <trkpt lat="48.63308" lon="7.4463">
        <ele>200.04814148</ele>
        <time>2020-09-20T13:41:48Z</time>
      </trkpt>
      <trkpt lat="48.63308" lon="7.44649">
        <ele>198.71948242</ele>
        <time>2020-09-20T13:41:50Z</time>
      </trkpt>
      <trkpt lat="48.6331" lon="7.44665">
        <ele>198.08047485</ele>
        <time>2020-09-20T13:41:51Z</time>
      </trkpt>
      <trkpt lat="48.63311" lon="7.44681">
        <ele>198.08047485</ele>
        <time>2020-09-20T13:41:53Z</time>
      </trkpt>
      <trkpt lat="48.63311" lon="7.44703">
        <ele>198.08047485</ele>
        <time>2020-09-20T13:41:55Z</time>
      </trkpt>
      <trkpt lat="48.6331" lon="7.44724">
        <ele>198.08047485</ele>
        <time>2020-09-20T13:41:57Z</time>
      </trkpt>
      <trkpt lat="48.63309" lon="7.44741">
        <ele>198.08047485</ele>
        <time>2020-09-20T13:41:59Z</time>
      </trkpt>
      <trkpt lat="48.63308" lon="7.44758">
        <ele>198.08047485</ele>
        <time>2020-09-20T13:42:01Z</time>
      </trkpt>
      <trkpt lat="48.63308" lon="7.44777">
        <ele>198.08047485</ele>
        <time>2020-09-20T13:42:03Z</time>
      </trkpt>
      <trkpt lat="48.63307" lon="7.44793">
        <ele>198.08047485</ele>
        <time>2020-09-20T13:42:05Z</time>
      </trkpt>
      <trkpt lat="48.63306" lon="7.44811">
        <ele>198.08047485</ele>
        <time>2020-09-20T13:42:07Z</time>
      </trkpt>
      <trkpt lat="48.63307" lon="7.44832">
        <ele>198.08047485</ele>
        <time>2020-09-20T13:42:09Z</time>
      </trkpt>
      <trkpt lat="48.63306" lon="7.4485">
        <ele>198.08047485</ele>
        <time>2020-09-20T13:42:11Z</time>
      </trkpt>
      <trkpt lat="48.63303" lon="7.44869">
        <ele>198.08047485</ele>
        <time>2020-09-20T13:42:13Z</time>
      </trkpt>
      <trkpt lat="48.63298" lon="7.44886">
        <ele>198.08047485</ele>
        <time>2020-09-20T13:42:15Z</time>
      </trkpt>
      <trkpt lat="48.63291" lon="7.44904">
        <ele>198.08047485</ele>
        <time>2020-09-20T13:42:17Z</time>
      </trkpt>
      <trkpt lat="48.63287" lon="7.44923">
        <ele>198.08047485</ele>
        <time>2020-09-20T13:42:19Z</time>
      </trkpt>
      <trkpt lat="48.63284" lon="7.44941">
        <ele>198.08047485</ele>
        <time>2020-09-20T13:42:21Z</time>
      </trkpt>
      <trkpt lat="48.63283" lon="7.44958">
        <ele>198.08047485</ele>
        <time>2020-09-20T13:42:23Z</time>
      </trkpt>
      <trkpt lat="48.63279" lon="7.44973">
        <ele>198.08047485</ele>
        <time>2020-09-20T13:42:25Z</time>
      </trkpt>
      <trkpt lat="48.63273" lon="7.44985">
        <ele>198.08047485</ele>
        <time>2020-09-20T13:42:27Z</time>
      </trkpt>
      <trkpt lat="48.63264" lon="7.44991">
        <ele>198.27449036</ele>
        <time>2020-09-20T13:42:29Z</time>
      </trkpt>
      <trkpt lat="48.63254" lon="7.44987">
        <ele>198.27449036</ele>
        <time>2020-09-20T13:42:31Z</time>
      </trkpt>
      <trkpt lat="48.63246" lon="7.44991">
        <ele>198.27449036</ele>
        <time>2020-09-20T13:42:35Z</time>
      </trkpt>
      <trkpt lat="48.63245" lon="7.4501">
        <ele>198.27449036</ele>
        <time>2020-09-20T13:42:37Z</time>
      </trkpt>
      <trkpt lat="48.63243" lon="7.45026">
        <ele>198.27449036</ele>
        <time>2020-09-20T13:42:39Z</time>
      </trkpt>
      <trkpt lat="48.63242" lon="7.45041">
        <ele>198.27449036</ele>
        <time>2020-09-20T13:42:41Z</time>
      </trkpt>
      <trkpt lat="48.63237" lon="7.45057">
        <ele>198.27449036</ele>
        <time>2020-09-20T13:42:43Z</time>
      </trkpt>
      <trkpt lat="48.63236" lon="7.45073">
        <ele>198.27449036</ele>
        <time>2020-09-20T13:42:45Z</time>
      </trkpt>
      <trkpt lat="48.63232" lon="7.45087">
        <ele>198.27449036</ele>
        <time>2020-09-20T13:42:48Z</time>
      </trkpt>
      <trkpt lat="48.6323" lon="7.45104">
        <ele>198.27449036</ele>
        <time>2020-09-20T13:42:50Z</time>
      </trkpt>
      <trkpt lat="48.63228" lon="7.45114">
        <ele>199.58018494</ele>
        <time>2020-09-20T13:42:51Z</time>
      </trkpt>
      <trkpt lat="48.63228" lon="7.45124">
        <ele>199.58018494</ele>
        <time>2020-09-20T13:42:53Z</time>
      </trkpt>
      <trkpt lat="48.63226" lon="7.45139">
        <ele>199.58018494</ele>
        <time>2020-09-20T13:42:56Z</time>
      </trkpt>
      <trkpt lat="48.63222" lon="7.45156">
        <ele>199.58018494</ele>
        <time>2020-09-20T13:42:59Z</time>
      </trkpt>
      <trkpt lat="48.63217" lon="7.45172">
        <ele>199.58018494</ele>
        <time>2020-09-20T13:43:02Z</time>
      </trkpt>
      <trkpt lat="48.63214" lon="7.45186">
        <ele>199.58018494</ele>
        <time>2020-09-20T13:43:05Z</time>
      </trkpt>
      <trkpt lat="48.63211" lon="7.45201">
        <ele>199.58018494</ele>
        <time>2020-09-20T13:43:09Z</time>
      </trkpt>
      <trkpt lat="48.63208" lon="7.45216">
        <ele>199.58018494</ele>
        <time>2020-09-20T13:43:12Z</time>
      </trkpt>
      <trkpt lat="48.63207" lon="7.45232">
        <ele>199.58018494</ele>
        <time>2020-09-20T13:43:15Z</time>
      </trkpt>
      <trkpt lat="48.63204" lon="7.4525">
        <ele>199.04289246</ele>
        <time>2020-09-20T13:43:17Z</time>
      </trkpt>
      <trkpt lat="48.632" lon="7.45264">
        <ele>199.04289246</ele>
        <time>2020-09-20T13:43:19Z</time>
      </trkpt>
      <trkpt lat="48.63195" lon="7.4528">
        <ele>199.04289246</ele>
        <time>2020-09-20T13:43:21Z</time>
      </trkpt>
      <trkpt lat="48.6319" lon="7.45296">
        <ele>199.04289246</ele>
        <time>2020-09-20T13:43:23Z</time>
      </trkpt>
      <trkpt lat="48.63186" lon="7.45313">
        <ele>199.04289246</ele>
        <time>2020-09-20T13:43:25Z</time>
      </trkpt>
      <trkpt lat="48.63182" lon="7.45328">
        <ele>199.04289246</ele>
        <time>2020-09-20T13:43:27Z</time>
      </trkpt>
      <trkpt lat="48.63177" lon="7.45343">
        <ele>199.04289246</ele>
        <time>2020-09-20T13:43:29Z</time>
      </trkpt>
      <trkpt lat="48.63173" lon="7.45359">
        <ele>199.04289246</ele>
        <time>2020-09-20T13:43:32Z</time>
      </trkpt>
      <trkpt lat="48.63173" lon="7.4538">
        <ele>199.04289246</ele>
        <time>2020-09-20T13:43:34Z</time>
      </trkpt>
      <trkpt lat="48.63174" lon="7.45398">
        <ele>199.04289246</ele>
        <time>2020-09-20T13:43:36Z</time>
      </trkpt>
      <trkpt lat="48.63178" lon="7.45415">
        <ele>199.04289246</ele>
        <time>2020-09-20T13:43:38Z</time>
      </trkpt>
      <trkpt lat="48.63186" lon="7.45431">
        <ele>199.04289246</ele>
        <time>2020-09-20T13:43:40Z</time>
      </trkpt>
      <trkpt lat="48.63189" lon="7.45447">
        <ele>199.04289246</ele>
        <time>2020-09-20T13:43:42Z</time>
      </trkpt>
      <trkpt lat="48.63189" lon="7.45465">
        <ele>199.04289246</ele>
        <time>2020-09-20T13:43:44Z</time>
      </trkpt>
      <trkpt lat="48.63189" lon="7.45485">
        <ele>199.04289246</ele>
        <time>2020-09-20T13:43:46Z</time>
      </trkpt>
      <trkpt lat="48.63189" lon="7.45505">
        <ele>199.04289246</ele>
        <time>2020-09-20T13:43:48Z</time>
      </trkpt>
      <trkpt lat="48.63189" lon="7.45523">
        <ele>199.04289246</ele>
        <time>2020-09-20T13:43:50Z</time>
      </trkpt>
      <trkpt lat="48.63192" lon="7.45538">
        <ele>198.68965149</ele>
        <time>2020-09-20T13:43:51Z</time>
      </trkpt>
      <trkpt lat="48.63195" lon="7.45552">
        <ele>198.68965149</ele>
        <time>2020-09-20T13:43:53Z</time>
      </trkpt>
      <trkpt lat="48.63201" lon="7.45568">
        <ele>198.68965149</ele>
        <time>2020-09-20T13:43:55Z</time>
      </trkpt>
      <trkpt lat="48.63206" lon="7.45587">
        <ele>198.68965149</ele>
        <time>2020-09-20T13:43:57Z</time>
      </trkpt>
      <trkpt lat="48.63211" lon="7.45605">
        <ele>198.68965149</ele>
        <time>2020-09-20T13:43:59Z</time>
      </trkpt>
      <trkpt lat="48.63211" lon="7.45625">
        <ele>198.68965149</ele>
        <time>2020-09-20T13:44:01Z</time>
      </trkpt>
      <trkpt lat="48.6321" lon="7.45645">
        <ele>197.89985657</ele>
        <time>2020-09-20T13:44:03Z</time>
      </trkpt>
      <trkpt lat="48.6321" lon="7.45665">
        <ele>197.89985657</ele>
        <time>2020-09-20T13:44:05Z</time>
      </trkpt>
      <trkpt lat="48.63212" lon="7.45686">
        <ele>197.89985657</ele>
        <time>2020-09-20T13:44:07Z</time>
      </trkpt>
      <trkpt lat="48.63214" lon="7.45706">
        <ele>197.89985657</ele>
        <time>2020-09-20T13:44:09Z</time>
      </trkpt>
      <trkpt lat="48.63217" lon="7.45725">
        <ele>197.89985657</ele>
        <time>2020-09-20T13:44:11Z</time>
      </trkpt>
      <trkpt lat="48.63219" lon="7.45744">
        <ele>197.89985657</ele>
        <time>2020-09-20T13:44:13Z</time>
      </trkpt>
      <trkpt lat="48.6322" lon="7.45761">
        <ele>197.14559937</ele>
        <time>2020-09-20T13:44:15Z</time>
      </trkpt>
      <trkpt lat="48.6322" lon="7.45776">
        <ele>197.14559937</ele>
        <time>2020-09-20T13:44:17Z</time>
      </trkpt>
      <trkpt lat="48.63221" lon="7.45795">
        <ele>197.14559937</ele>
        <time>2020-09-20T13:44:19Z</time>
      </trkpt>
      <trkpt lat="48.63223" lon="7.45816">
        <ele>197.14559937</ele>
        <time>2020-09-20T13:44:21Z</time>
      </trkpt>
      <trkpt lat="48.63225" lon="7.45836">
        <ele>197.14559937</ele>
        <time>2020-09-20T13:44:23Z</time>
      </trkpt>
      <trkpt lat="48.63226" lon="7.45859">
        <ele>197.14559937</ele>
        <time>2020-09-20T13:44:25Z</time>
      </trkpt>
      <trkpt lat="48.63229" lon="7.4588">
        <ele>197.14559937</ele>
        <time>2020-09-20T13:44:27Z</time>
      </trkpt>
      <trkpt lat="48.63231" lon="7.45901">
        <ele>197.14559937</ele>
        <time>2020-09-20T13:44:29Z</time>
      </trkpt>
      <trkpt lat="48.63233" lon="7.45922">
        <ele>196.1734314</ele>
        <time>2020-09-20T13:44:31Z</time>
      </trkpt>
      <trkpt lat="48.63235" lon="7.45943">
        <ele>196.1734314</ele>
        <time>2020-09-20T13:44:33Z</time>
      </trkpt>
      <trkpt lat="48.63236" lon="7.45963">
        <ele>196.1734314</ele>
        <time>2020-09-20T13:44:35Z</time>
      </trkpt>
      <trkpt lat="48.63239" lon="7.45983">
        <ele>196.1734314</ele>
        <time>2020-09-20T13:44:37Z</time>
      </trkpt>
      <trkpt lat="48.63242" lon="7.46003">
        <ele>196.1734314</ele>
        <time>2020-09-20T13:44:39Z</time>
      </trkpt>
      <trkpt lat="48.63242" lon="7.46025">
        <ele>195.02159119</ele>
        <time>2020-09-20T13:44:41Z</time>
      </trkpt>
      <trkpt lat="48.63245" lon="7.46045">
        <ele>195.02159119</ele>
        <time>2020-09-20T13:44:43Z</time>
      </trkpt>
      <trkpt lat="48.6325" lon="7.46065">
        <ele>195.02159119</ele>
        <time>2020-09-20T13:44:45Z</time>
      </trkpt>
      <trkpt lat="48.63252" lon="7.46085">
        <ele>195.02159119</ele>
        <time>2020-09-20T13:44:47Z</time>
      </trkpt>
      <trkpt lat="48.63253" lon="7.46104">
        <ele>195.02159119</ele>
        <time>2020-09-20T13:44:49Z</time>
      </trkpt>
      <trkpt lat="48.63255" lon="7.4613">
        <ele>194.62434387</ele>
        <time>2020-09-20T13:44:51Z</time>
      </trkpt>
      <trkpt lat="48.63257" lon="7.46146">
        <ele>194.62434387</ele>
        <time>2020-09-20T13:44:53Z</time>
      </trkpt>
      <trkpt lat="48.63258" lon="7.46167">
        <ele>194.62434387</ele>
        <time>2020-09-20T13:44:55Z</time>
      </trkpt>
      <trkpt lat="48.63258" lon="7.4619">
        <ele>194.62434387</ele>
        <time>2020-09-20T13:44:57Z</time>
      </trkpt>
      <trkpt lat="48.63257" lon="7.46211">
        <ele>194.62434387</ele>
        <time>2020-09-20T13:44:59Z</time>
      </trkpt>
      <trkpt lat="48.63253" lon="7.4623">
        <ele>194.62434387</ele>
        <time>2020-09-20T13:45:01Z</time>
      </trkpt>
      <trkpt lat="48.6325" lon="7.46248">
        <ele>194.62434387</ele>
        <time>2020-09-20T13:45:03Z</time>
      </trkpt>
      <trkpt lat="48.63245" lon="7.46266">
        <ele>194.62434387</ele>
        <time>2020-09-20T13:45:05Z</time>
      </trkpt>
      <trkpt lat="48.63247" lon="7.46286">
        <ele>194.62434387</ele>
        <time>2020-09-20T13:45:07Z</time>
      </trkpt>
      <trkpt lat="48.63244" lon="7.46306">
        <ele>194.62434387</ele>
        <time>2020-09-20T13:45:09Z</time>
      </trkpt>
      <trkpt lat="48.63241" lon="7.4633">
        <ele>194.62434387</ele>
        <time>2020-09-20T13:45:11Z</time>
      </trkpt>
      <trkpt lat="48.63242" lon="7.46354">
        <ele>194.62434387</ele>
        <time>2020-09-20T13:45:13Z</time>
      </trkpt>
      <trkpt lat="48.63242" lon="7.46376">
        <ele>194.62434387</ele>
        <time>2020-09-20T13:45:15Z</time>
      </trkpt>
      <trkpt lat="48.63236" lon="7.46398">
        <ele>194.62434387</ele>
        <time>2020-09-20T13:45:17Z</time>
      </trkpt>
      <trkpt lat="48.63231" lon="7.46418">
        <ele>194.62434387</ele>
        <time>2020-09-20T13:45:19Z</time>
      </trkpt>
      <trkpt lat="48.63228" lon="7.46436">
        <ele>194.62434387</ele>
        <time>2020-09-20T13:45:21Z</time>
      </trkpt>
      <trkpt lat="48.63223" lon="7.46455">
        <ele>194.62434387</ele>
        <time>2020-09-20T13:45:23Z</time>
      </trkpt>
      <trkpt lat="48.63218" lon="7.46475">
        <ele>194.62434387</ele>
        <time>2020-09-20T13:45:25Z</time>
      </trkpt>
      <trkpt lat="48.63212" lon="7.46495">
        <ele>194.62434387</ele>
        <time>2020-09-20T13:45:27Z</time>
      </trkpt>
      <trkpt lat="48.63205" lon="7.46513">
        <ele>194.23683167</ele>
        <time>2020-09-20T13:45:29Z</time>
      </trkpt>
      <trkpt lat="48.63199" lon="7.4653">
        <ele>194.23683167</ele>
        <time>2020-09-20T13:45:31Z</time>
      </trkpt>
      <trkpt lat="48.63192" lon="7.46549">
        <ele>194.23683167</ele>
        <time>2020-09-20T13:45:33Z</time>
      </trkpt>
      <trkpt lat="48.63186" lon="7.46565">
        <ele>194.23683167</ele>
        <time>2020-09-20T13:45:35Z</time>
      </trkpt>
      <trkpt lat="48.63178" lon="7.46583">
        <ele>194.23683167</ele>
        <time>2020-09-20T13:45:37Z</time>
      </trkpt>
      <trkpt lat="48.63166" lon="7.466">
        <ele>194.23683167</ele>
        <time>2020-09-20T13:45:39Z</time>
      </trkpt>
      <trkpt lat="48.63158" lon="7.46618">
        <ele>194.23683167</ele>
        <time>2020-09-20T13:45:41Z</time>
      </trkpt>
      <trkpt lat="48.63151" lon="7.46635">
        <ele>194.23683167</ele>
        <time>2020-09-20T13:45:43Z</time>
      </trkpt>
      <trkpt lat="48.63142" lon="7.4665">
        <ele>192.93997192</ele>
        <time>2020-09-20T13:45:45Z</time>
      </trkpt>
      <trkpt lat="48.63134" lon="7.46665">
        <ele>192.93997192</ele>
        <time>2020-09-20T13:45:47Z</time>
      </trkpt>
      <trkpt lat="48.63123" lon="7.4668">
        <ele>192.93997192</ele>
        <time>2020-09-20T13:45:49Z</time>
      </trkpt>
      <trkpt lat="48.63112" lon="7.467">
        <ele>192.40429688</ele>
        <time>2020-09-20T13:45:51Z</time>
      </trkpt>
      <trkpt lat="48.63105" lon="7.46712">
        <ele>192.40429688</ele>
        <time>2020-09-20T13:45:53Z</time>
      </trkpt>
      <trkpt lat="48.63097" lon="7.46728">
        <ele>192.40429688</ele>
        <time>2020-09-20T13:45:55Z</time>
      </trkpt>
      <trkpt lat="48.63089" lon="7.46743">
        <ele>192.40429688</ele>
        <time>2020-09-20T13:45:57Z</time>
      </trkpt>
      <trkpt lat="48.63084" lon="7.46757">
        <ele>192.40429688</ele>
        <time>2020-09-20T13:45:59Z</time>
      </trkpt>
      <trkpt lat="48.6308" lon="7.46773">
        <ele>192.40429688</ele>
        <time>2020-09-20T13:46:02Z</time>
      </trkpt>
      <trkpt lat="48.63078" lon="7.46791">
        <ele>192.40429688</ele>
        <time>2020-09-20T13:46:05Z</time>
      </trkpt>
      <trkpt lat="48.63074" lon="7.46809">
        <ele>192.40429688</ele>
        <time>2020-09-20T13:46:07Z</time>
      </trkpt>
      <trkpt lat="48.63067" lon="7.46824">
        <ele>192.40429688</ele>
        <time>2020-09-20T13:46:09Z</time>
      </trkpt>
      <trkpt lat="48.63065" lon="7.46839">
        <ele>192.40429688</ele>
        <time>2020-09-20T13:46:11Z</time>
      </trkpt>
      <trkpt lat="48.63066" lon="7.46853">
        <ele>192.40429688</ele>
        <time>2020-09-20T13:46:14Z</time>
      </trkpt>
      <trkpt lat="48.6307" lon="7.46867">
        <ele>192.40429688</ele>
        <time>2020-09-20T13:46:17Z</time>
      </trkpt>
      <trkpt lat="48.63067" lon="7.46883">
        <ele>192.40429688</ele>
        <time>2020-09-20T13:46:20Z</time>
      </trkpt>
      <trkpt lat="48.63058" lon="7.46899">
        <ele>192.40429688</ele>
        <time>2020-09-20T13:46:22Z</time>
      </trkpt>
      <trkpt lat="48.63048" lon="7.46916">
        <ele>192.40429688</ele>
        <time>2020-09-20T13:46:24Z</time>
      </trkpt>
      <trkpt lat="48.63042" lon="7.46931">
        <ele>192.40429688</ele>
        <time>2020-09-20T13:46:26Z</time>
      </trkpt>
      <trkpt lat="48.63035" lon="7.46948">
        <ele>192.40429688</ele>
        <time>2020-09-20T13:46:28Z</time>
      </trkpt>
      <trkpt lat="48.63024" lon="7.46965">
        <ele>192.40429688</ele>
        <time>2020-09-20T13:46:29Z</time>
      </trkpt>
      <trkpt lat="48.63018" lon="7.46978">
        <ele>192.40429688</ele>
        <time>2020-09-20T13:46:31Z</time>
      </trkpt>
      <trkpt lat="48.62997" lon="7.46996">
        <ele>192.40429688</ele>
        <time>2020-09-20T13:46:32Z</time>
      </trkpt>
      <trkpt lat="48.62972" lon="7.47013">
        <ele>192.40429688</ele>
        <time>2020-09-20T13:46:33Z</time>
      </trkpt>
      <trkpt lat="48.62965" lon="7.47023">
        <ele>192.40429688</ele>
        <time>2020-09-20T13:46:35Z</time>
      </trkpt>
      <trkpt lat="48.62957" lon="7.47034">
        <ele>192.40429688</ele>
        <time>2020-09-20T13:46:37Z</time>
      </trkpt>
      <trkpt lat="48.62941" lon="7.47049">
        <ele>192.40429688</ele>
        <time>2020-09-20T13:46:38Z</time>
      </trkpt>
      <trkpt lat="48.62928" lon="7.47058">
        <ele>192.40429688</ele>
        <time>2020-09-20T13:46:39Z</time>
      </trkpt>
      <trkpt lat="48.62914" lon="7.47066">
        <ele>192.40429688</ele>
        <time>2020-09-20T13:46:40Z</time>
      </trkpt>
      <trkpt lat="48.62902" lon="7.47076">
        <ele>192.40429688</ele>
        <time>2020-09-20T13:46:41Z</time>
      </trkpt>
      <trkpt lat="48.62891" lon="7.47084">
        <ele>192.40429688</ele>
        <time>2020-09-20T13:46:42Z</time>
      </trkpt>
      <trkpt lat="48.62882" lon="7.47094">
        <ele>192.40429688</ele>
        <time>2020-09-20T13:46:44Z</time>
      </trkpt>
      <trkpt lat="48.62869" lon="7.47106">
        <ele>192.25657654</ele>
        <time>2020-09-20T13:46:46Z</time>
      </trkpt>
      <trkpt lat="48.62859" lon="7.47118">
        <ele>192.25657654</ele>
        <time>2020-09-20T13:46:48Z</time>
      </trkpt>
      <trkpt lat="48.6285" lon="7.47129">
        <ele>192.25657654</ele>
        <time>2020-09-20T13:46:50Z</time>
      </trkpt>
      <trkpt lat="48.62845" lon="7.47137">
        <ele>191.22355652</ele>
        <time>2020-09-20T13:46:51Z</time>
      </trkpt>
      <trkpt lat="48.62839" lon="7.47143">
        <ele>191.22355652</ele>
        <time>2020-09-20T13:46:53Z</time>
      </trkpt>
      <trkpt lat="48.6283" lon="7.47151">
        <ele>191.22355652</ele>
        <time>2020-09-20T13:46:55Z</time>
      </trkpt>
      <trkpt lat="48.62817" lon="7.47158">
        <ele>191.22355652</ele>
        <time>2020-09-20T13:46:57Z</time>
      </trkpt>
      <trkpt lat="48.62805" lon="7.47164">
        <ele>191.22355652</ele>
        <time>2020-09-20T13:46:59Z</time>
      </trkpt>
      <trkpt lat="48.62795" lon="7.47168">
        <ele>191.22355652</ele>
        <time>2020-09-20T13:47:01Z</time>
      </trkpt>
      <trkpt lat="48.62785" lon="7.47173">
        <ele>191.22355652</ele>
        <time>2020-09-20T13:47:03Z</time>
      </trkpt>
      <trkpt lat="48.62772" lon="7.47177">
        <ele>191.22355652</ele>
        <time>2020-09-20T13:47:05Z</time>
      </trkpt>
      <trkpt lat="48.62757" lon="7.47181">
        <ele>191.22355652</ele>
        <time>2020-09-20T13:47:07Z</time>
      </trkpt>
      <trkpt lat="48.62743" lon="7.47185">
        <ele>191.22355652</ele>
        <time>2020-09-20T13:47:09Z</time>
      </trkpt>
      <trkpt lat="48.6273" lon="7.47186">
        <ele>191.22355652</ele>
        <time>2020-09-20T13:47:11Z</time>
      </trkpt>
      <trkpt lat="48.62717" lon="7.47184">
        <ele>191.22355652</ele>
        <time>2020-09-20T13:47:12Z</time>
      </trkpt>
      <trkpt lat="48.62704" lon="7.47185">
        <ele>191.22355652</ele>
        <time>2020-09-20T13:47:14Z</time>
      </trkpt>
      <trkpt lat="48.6269" lon="7.47188">
        <ele>191.22355652</ele>
        <time>2020-09-20T13:47:15Z</time>
      </trkpt>
      <trkpt lat="48.62677" lon="7.47191">
        <ele>191.22355652</ele>
        <time>2020-09-20T13:47:17Z</time>
      </trkpt>
      <trkpt lat="48.6266" lon="7.47193">
        <ele>190.66143799</ele>
        <time>2020-09-20T13:47:19Z</time>
      </trkpt>
      <trkpt lat="48.62646" lon="7.47193">
        <ele>190.66143799</ele>
        <time>2020-09-20T13:47:20Z</time>
      </trkpt>
      <trkpt lat="48.62636" lon="7.47194">
        <ele>190.66143799</ele>
        <time>2020-09-20T13:47:21Z</time>
      </trkpt>
      <trkpt lat="48.62624" lon="7.47194">
        <ele>190.66143799</ele>
        <time>2020-09-20T13:47:23Z</time>
      </trkpt>
      <trkpt lat="48.62608" lon="7.47195">
        <ele>190.66143799</ele>
        <time>2020-09-20T13:47:25Z</time>
      </trkpt>
      <trkpt lat="48.62592" lon="7.47195">
        <ele>190.66143799</ele>
        <time>2020-09-20T13:47:27Z</time>
      </trkpt>
      <trkpt lat="48.62578" lon="7.47193">
        <ele>190.66143799</ele>
        <time>2020-09-20T13:47:29Z</time>
      </trkpt>
      <trkpt lat="48.62565" lon="7.47192">
        <ele>190.66143799</ele>
        <time>2020-09-20T13:47:31Z</time>
      </trkpt>
      <trkpt lat="48.6255" lon="7.47189">
        <ele>190.66143799</ele>
        <time>2020-09-20T13:47:33Z</time>
      </trkpt>
      <trkpt lat="48.62539" lon="7.47188">
        <ele>190.66143799</ele>
        <time>2020-09-20T13:47:35Z</time>
      </trkpt>
      <trkpt lat="48.6253" lon="7.4719">
        <ele>190.66143799</ele>
        <time>2020-09-20T13:47:37Z</time>
      </trkpt>
      <trkpt lat="48.6252" lon="7.47191">
        <ele>190.66143799</ele>
        <time>2020-09-20T13:47:39Z</time>
      </trkpt>
      <trkpt lat="48.62509" lon="7.47193">
        <ele>190.66143799</ele>
        <time>2020-09-20T13:47:41Z</time>
      </trkpt>
      <trkpt lat="48.62496" lon="7.47198">
        <ele>190.66143799</ele>
        <time>2020-09-20T13:47:43Z</time>
      </trkpt>
      <trkpt lat="48.62481" lon="7.47203">
        <ele>190.66143799</ele>
        <time>2020-09-20T13:47:45Z</time>
      </trkpt>
      <trkpt lat="48.62464" lon="7.47212">
        <ele>190.66143799</ele>
        <time>2020-09-20T13:47:46Z</time>
      </trkpt>
      <trkpt lat="48.62453" lon="7.47217">
        <ele>190.66143799</ele>
        <time>2020-09-20T13:47:48Z</time>
      </trkpt>
      <trkpt lat="48.62439" lon="7.4722">
        <ele>190.66143799</ele>
        <time>2020-09-20T13:47:49Z</time>
      </trkpt>
      <trkpt lat="48.62425" lon="7.47227">
        <ele>189.38519287</ele>
        <time>2020-09-20T13:47:51Z</time>
      </trkpt>
      <trkpt lat="48.62414" lon="7.47234">
        <ele>189.38519287</ele>
        <time>2020-09-20T13:47:53Z</time>
      </trkpt>
      <trkpt lat="48.62401" lon="7.47242">
        <ele>189.38519287</ele>
        <time>2020-09-20T13:47:55Z</time>
      </trkpt>
      <trkpt lat="48.62389" lon="7.47247">
        <ele>189.38519287</ele>
        <time>2020-09-20T13:47:56Z</time>
      </trkpt>
      <trkpt lat="48.62381" lon="7.47254">
        <ele>189.38519287</ele>
        <time>2020-09-20T13:47:58Z</time>
      </trkpt>
      <trkpt lat="48.62369" lon="7.47263">
        <ele>189.38519287</ele>
        <time>2020-09-20T13:48:00Z</time>
      </trkpt>
      <trkpt lat="48.62357" lon="7.47274">
        <ele>189.38519287</ele>
        <time>2020-09-20T13:48:02Z</time>
      </trkpt>
      <trkpt lat="48.62347" lon="7.47285">
        <ele>189.38519287</ele>
        <time>2020-09-20T13:48:04Z</time>
      </trkpt>
      <trkpt lat="48.62335" lon="7.47297">
        <ele>189.38519287</ele>
        <time>2020-09-20T13:48:06Z</time>
      </trkpt>
      <trkpt lat="48.62325" lon="7.47309">
        <ele>189.38519287</ele>
        <time>2020-09-20T13:48:08Z</time>
      </trkpt>
      <trkpt lat="48.62314" lon="7.47321">
        <ele>189.38519287</ele>
        <time>2020-09-20T13:48:10Z</time>
      </trkpt>
      <trkpt lat="48.62304" lon="7.47334">
        <ele>189.38519287</ele>
        <time>2020-09-20T13:48:12Z</time>
      </trkpt>
      <trkpt lat="48.62295" lon="7.47347">
        <ele>188.33406067</ele>
        <time>2020-09-20T13:48:14Z</time>
      </trkpt>
      <trkpt lat="48.62286" lon="7.47357">
        <ele>188.33406067</ele>
        <time>2020-09-20T13:48:16Z</time>
      </trkpt>
      <trkpt lat="48.62277" lon="7.47368">
        <ele>188.33406067</ele>
        <time>2020-09-20T13:48:18Z</time>
      </trkpt>
      <trkpt lat="48.62265" lon="7.47379">
        <ele>188.33406067</ele>
        <time>2020-09-20T13:48:20Z</time>
      </trkpt>
      <trkpt lat="48.62256" lon="7.47389">
        <ele>188.33406067</ele>
        <time>2020-09-20T13:48:22Z</time>
      </trkpt>
      <trkpt lat="48.62244" lon="7.47402">
        <ele>188.33406067</ele>
        <time>2020-09-20T13:48:24Z</time>
      </trkpt>
      <trkpt lat="48.62232" lon="7.47414">
        <ele>188.33406067</ele>
        <time>2020-09-20T13:48:26Z</time>
      </trkpt>
      <trkpt lat="48.62222" lon="7.47425">
        <ele>187.55014038</ele>
        <time>2020-09-20T13:48:28Z</time>
      </trkpt>
      <trkpt lat="48.62211" lon="7.47438">
        <ele>187.55014038</ele>
        <time>2020-09-20T13:48:30Z</time>
      </trkpt>
      <trkpt lat="48.62201" lon="7.4745">
        <ele>187.55014038</ele>
        <time>2020-09-20T13:48:32Z</time>
      </trkpt>
      <trkpt lat="48.62191" lon="7.47461">
        <ele>187.55014038</ele>
        <time>2020-09-20T13:48:34Z</time>
      </trkpt>
      <trkpt lat="48.62182" lon="7.47471">
        <ele>187.55014038</ele>
        <time>2020-09-20T13:48:36Z</time>
      </trkpt>
      <trkpt lat="48.62175" lon="7.4748">
        <ele>187.55014038</ele>
        <time>2020-09-20T13:48:38Z</time>
      </trkpt>
      <trkpt lat="48.62166" lon="7.47491">
        <ele>187.55014038</ele>
        <time>2020-09-20T13:48:40Z</time>
      </trkpt>
      <trkpt lat="48.62156" lon="7.47494">
        <ele>187.55014038</ele>
        <time>2020-09-20T13:48:44Z</time>
      </trkpt>
      <trkpt lat="48.62146" lon="7.47498">
        <ele>187.17138672</ele>
        <time>2020-09-20T13:48:48Z</time>
      </trkpt>
      <trkpt lat="48.62136" lon="7.47501">
        <ele>188.39425659</ele>
        <time>2020-09-20T13:48:51Z</time>
      </trkpt>
      <trkpt lat="48.62126" lon="7.47505">
        <ele>188.39425659</ele>
        <time>2020-09-20T13:48:57Z</time>
      </trkpt>
      <trkpt lat="48.62118" lon="7.47515">
        <ele>188.39425659</ele>
        <time>2020-09-20T13:49:00Z</time>
      </trkpt>
      <trkpt lat="48.62106" lon="7.47521">
        <ele>188.39425659</ele>
        <time>2020-09-20T13:49:02Z</time>
      </trkpt>
      <trkpt lat="48.62095" lon="7.47527">
        <ele>188.47463989</ele>
        <time>2020-09-20T13:49:05Z</time>
      </trkpt>
      <trkpt lat="48.62083" lon="7.4753">
        <ele>188.47463989</ele>
        <time>2020-09-20T13:49:07Z</time>
      </trkpt>
      <trkpt lat="48.62072" lon="7.47529">
        <ele>186.64915466</ele>
        <time>2020-09-20T13:49:09Z</time>
      </trkpt>
      <trkpt lat="48.62061" lon="7.47528">
        <ele>186.64915466</ele>
        <time>2020-09-20T13:49:11Z</time>
      </trkpt>
      <trkpt lat="48.62049" lon="7.4753">
        <ele>185.35842896</ele>
        <time>2020-09-20T13:49:13Z</time>
      </trkpt>
      <trkpt lat="48.62037" lon="7.47528">
        <ele>185.35842896</ele>
        <time>2020-09-20T13:49:15Z</time>
      </trkpt>
      <trkpt lat="48.62026" lon="7.47525">
        <ele>185.35842896</ele>
        <time>2020-09-20T13:49:17Z</time>
      </trkpt>
      <trkpt lat="48.62015" lon="7.47525">
        <ele>185.35842896</ele>
        <time>2020-09-20T13:49:19Z</time>
      </trkpt>
      <trkpt lat="48.62003" lon="7.47527">
        <ele>185.35842896</ele>
        <time>2020-09-20T13:49:21Z</time>
      </trkpt>
      <trkpt lat="48.61993" lon="7.47528">
        <ele>185.35842896</ele>
        <time>2020-09-20T13:49:23Z</time>
      </trkpt>
      <trkpt lat="48.61982" lon="7.47529">
        <ele>185.35842896</ele>
        <time>2020-09-20T13:49:25Z</time>
      </trkpt>
      <trkpt lat="48.61972" lon="7.47529">
        <ele>185.35842896</ele>
        <time>2020-09-20T13:49:27Z</time>
      </trkpt>
      <trkpt lat="48.61961" lon="7.4753">
        <ele>185.35842896</ele>
        <time>2020-09-20T13:49:30Z</time>
      </trkpt>
      <trkpt lat="48.61951" lon="7.47532">
        <ele>185.35842896</ele>
        <time>2020-09-20T13:49:32Z</time>
      </trkpt>
      <trkpt lat="48.6194" lon="7.47535">
        <ele>185.35842896</ele>
        <time>2020-09-20T13:49:34Z</time>
      </trkpt>
      <trkpt lat="48.61931" lon="7.4754">
        <ele>185.35842896</ele>
        <time>2020-09-20T13:49:36Z</time>
      </trkpt>
      <trkpt lat="48.61923" lon="7.47552">
        <ele>185.35842896</ele>
        <time>2020-09-20T13:49:39Z</time>
      </trkpt>
      <trkpt lat="48.61921" lon="7.4757">
        <ele>185.35842896</ele>
        <time>2020-09-20T13:49:41Z</time>
      </trkpt>
      <trkpt lat="48.61923" lon="7.47585">
        <ele>185.35842896</ele>
        <time>2020-09-20T13:49:43Z</time>
      </trkpt>
      <trkpt lat="48.61934" lon="7.47596">
        <ele>185.35842896</ele>
        <time>2020-09-20T13:49:45Z</time>
      </trkpt>
      <trkpt lat="48.61945" lon="7.47607">
        <ele>185.35842896</ele>
        <time>2020-09-20T13:49:47Z</time>
      </trkpt>
      <trkpt lat="48.61955" lon="7.47616">
        <ele>185.35842896</ele>
        <time>2020-09-20T13:49:49Z</time>
      </trkpt>
      <trkpt lat="48.61967" lon="7.4762">
        <ele>184.81164551</ele>
        <time>2020-09-20T13:49:51Z</time>
      </trkpt>
      <trkpt lat="48.61975" lon="7.47622">
        <ele>184.81164551</ele>
        <time>2020-09-20T13:49:53Z</time>
      </trkpt>
      <trkpt lat="48.61984" lon="7.4763">
        <ele>184.81164551</ele>
        <time>2020-09-20T13:49:55Z</time>
      </trkpt>
      <trkpt lat="48.6199" lon="7.47644">
        <ele>184.81164551</ele>
        <time>2020-09-20T13:49:57Z</time>
      </trkpt>
      <trkpt lat="48.61993" lon="7.47659">
        <ele>184.81164551</ele>
        <time>2020-09-20T13:49:59Z</time>
      </trkpt>
      <trkpt lat="48.61996" lon="7.47677">
        <ele>184.81164551</ele>
        <time>2020-09-20T13:50:01Z</time>
      </trkpt>
      <trkpt lat="48.61999" lon="7.47693">
        <ele>184.81164551</ele>
        <time>2020-09-20T13:50:03Z</time>
      </trkpt>
      <trkpt lat="48.62002" lon="7.47708">
        <ele>184.81164551</ele>
        <time>2020-09-20T13:50:06Z</time>
      </trkpt>
      <trkpt lat="48.62006" lon="7.47727">
        <ele>184.81164551</ele>
        <time>2020-09-20T13:50:08Z</time>
      </trkpt>
      <trkpt lat="48.62009" lon="7.47742">
        <ele>184.81164551</ele>
        <time>2020-09-20T13:50:10Z</time>
      </trkpt>
      <trkpt lat="48.62013" lon="7.47757">
        <ele>184.81164551</ele>
        <time>2020-09-20T13:50:12Z</time>
      </trkpt>
      <trkpt lat="48.62017" lon="7.47772">
        <ele>184.81164551</ele>
        <time>2020-09-20T13:50:14Z</time>
      </trkpt>
      <trkpt lat="48.62021" lon="7.47788">
        <ele>184.81164551</ele>
        <time>2020-09-20T13:50:16Z</time>
      </trkpt>
      <trkpt lat="48.62022" lon="7.47802">
        <ele>184.81164551</ele>
        <time>2020-09-20T13:50:18Z</time>
      </trkpt>
      <trkpt lat="48.62026" lon="7.4782">
        <ele>184.81164551</ele>
        <time>2020-09-20T13:50:20Z</time>
      </trkpt>
      <trkpt lat="48.6203" lon="7.47838">
        <ele>184.81164551</ele>
        <time>2020-09-20T13:50:22Z</time>
      </trkpt>
      <trkpt lat="48.62035" lon="7.47856">
        <ele>184.81164551</ele>
        <time>2020-09-20T13:50:24Z</time>
      </trkpt>
      <trkpt lat="48.62041" lon="7.47873">
        <ele>184.83956909</ele>
        <time>2020-09-20T13:50:26Z</time>
      </trkpt>
      <trkpt lat="48.6204" lon="7.4789">
        <ele>184.83956909</ele>
        <time>2020-09-20T13:50:29Z</time>
      </trkpt>
      <trkpt lat="48.62038" lon="7.47909">
        <ele>184.83956909</ele>
        <time>2020-09-20T13:50:31Z</time>
      </trkpt>
      <trkpt lat="48.62034" lon="7.47923">
        <ele>184.83956909</ele>
        <time>2020-09-20T13:50:33Z</time>
      </trkpt>
      <trkpt lat="48.6203" lon="7.47936">
        <ele>184.83956909</ele>
        <time>2020-09-20T13:50:35Z</time>
      </trkpt>
      <trkpt lat="48.62026" lon="7.47949">
        <ele>185.02268982</ele>
        <time>2020-09-20T13:50:37Z</time>
      </trkpt>
      <trkpt lat="48.62022" lon="7.47964">
        <ele>185.02268982</ele>
        <time>2020-09-20T13:50:40Z</time>
      </trkpt>
      <trkpt lat="48.62017" lon="7.4798">
        <ele>185.02268982</ele>
        <time>2020-09-20T13:50:43Z</time>
      </trkpt>
      <trkpt lat="48.62014" lon="7.47996">
        <ele>185.02268982</ele>
        <time>2020-09-20T13:50:45Z</time>
      </trkpt>
      <trkpt lat="48.6201" lon="7.48008">
        <ele>185.02268982</ele>
        <time>2020-09-20T13:50:47Z</time>
      </trkpt>
      <trkpt lat="48.62008" lon="7.48022">
        <ele>185.02268982</ele>
        <time>2020-09-20T13:50:49Z</time>
      </trkpt>
      <trkpt lat="48.62002" lon="7.48042">
        <ele>184.20169067</ele>
        <time>2020-09-20T13:50:51Z</time>
      </trkpt>
      <trkpt lat="48.62" lon="7.48055">
        <ele>184.20169067</ele>
        <time>2020-09-20T13:50:53Z</time>
      </trkpt>
      <trkpt lat="48.61995" lon="7.48071">
        <ele>184.20169067</ele>
        <time>2020-09-20T13:50:55Z</time>
      </trkpt>
      <trkpt lat="48.61992" lon="7.48086">
        <ele>184.20169067</ele>
        <time>2020-09-20T13:50:57Z</time>
      </trkpt>
      <trkpt lat="48.61987" lon="7.48103">
        <ele>184.20169067</ele>
        <time>2020-09-20T13:50:59Z</time>
      </trkpt>
      <trkpt lat="48.61982" lon="7.48117">
        <ele>184.20169067</ele>
        <time>2020-09-20T13:51:01Z</time>
      </trkpt>
      <trkpt lat="48.61978" lon="7.4813">
        <ele>184.20169067</ele>
        <time>2020-09-20T13:51:03Z</time>
      </trkpt>
      <trkpt lat="48.61974" lon="7.48148">
        <ele>184.20169067</ele>
        <time>2020-09-20T13:51:05Z</time>
      </trkpt>
      <trkpt lat="48.6197" lon="7.48166">
        <ele>182.91305542</ele>
        <time>2020-09-20T13:51:07Z</time>
      </trkpt>
      <trkpt lat="48.61965" lon="7.48183">
        <ele>182.91305542</ele>
        <time>2020-09-20T13:51:09Z</time>
      </trkpt>
      <trkpt lat="48.6196" lon="7.48201">
        <ele>182.91305542</ele>
        <time>2020-09-20T13:51:11Z</time>
      </trkpt>
      <trkpt lat="48.61956" lon="7.48218">
        <ele>182.91305542</ele>
        <time>2020-09-20T13:51:13Z</time>
      </trkpt>
      <trkpt lat="48.61951" lon="7.48235">
        <ele>182.91305542</ele>
        <time>2020-09-20T13:51:15Z</time>
      </trkpt>
      <trkpt lat="48.61946" lon="7.48252">
        <ele>182.91305542</ele>
        <time>2020-09-20T13:51:17Z</time>
      </trkpt>
      <trkpt lat="48.61942" lon="7.48268">
        <ele>182.91305542</ele>
        <time>2020-09-20T13:51:19Z</time>
      </trkpt>
      <trkpt lat="48.61938" lon="7.48285">
        <ele>182.91305542</ele>
        <time>2020-09-20T13:51:21Z</time>
      </trkpt>
      <trkpt lat="48.61933" lon="7.48302">
        <ele>182.91305542</ele>
        <time>2020-09-20T13:51:23Z</time>
      </trkpt>
      <trkpt lat="48.61927" lon="7.48318">
        <ele>182.91305542</ele>
        <time>2020-09-20T13:51:25Z</time>
      </trkpt>
      <trkpt lat="48.61923" lon="7.48335">
        <ele>182.91305542</ele>
        <time>2020-09-20T13:51:27Z</time>
      </trkpt>
      <trkpt lat="48.61917" lon="7.48352">
        <ele>182.91305542</ele>
        <time>2020-09-20T13:51:29Z</time>
      </trkpt>
      <trkpt lat="48.6191" lon="7.48366">
        <ele>182.91305542</ele>
        <time>2020-09-20T13:51:31Z</time>
      </trkpt>
      <trkpt lat="48.61902" lon="7.48379">
        <ele>182.91305542</ele>
        <time>2020-09-20T13:51:33Z</time>
      </trkpt>
      <trkpt lat="48.61893" lon="7.48394">
        <ele>182.91305542</ele>
        <time>2020-09-20T13:51:35Z</time>
      </trkpt>
      <trkpt lat="48.61887" lon="7.4841">
        <ele>182.91305542</ele>
        <time>2020-09-20T13:51:37Z</time>
      </trkpt>
      <trkpt lat="48.61885" lon="7.48429">
        <ele>182.91305542</ele>
        <time>2020-09-20T13:51:39Z</time>
      </trkpt>
      <trkpt lat="48.61883" lon="7.48449">
        <ele>182.91305542</ele>
        <time>2020-09-20T13:51:41Z</time>
      </trkpt>
      <trkpt lat="48.61882" lon="7.48468">
        <ele>182.91305542</ele>
        <time>2020-09-20T13:51:43Z</time>
      </trkpt>
      <trkpt lat="48.6188" lon="7.48486">
        <ele>182.91305542</ele>
        <time>2020-09-20T13:51:45Z</time>
      </trkpt>
      <trkpt lat="48.61879" lon="7.48503">
        <ele>182.91305542</ele>
        <time>2020-09-20T13:51:47Z</time>
      </trkpt>
      <trkpt lat="48.61876" lon="7.4852">
        <ele>182.91305542</ele>
        <time>2020-09-20T13:51:49Z</time>
      </trkpt>
      <trkpt lat="48.61871" lon="7.48539">
        <ele>181.99143982</ele>
        <time>2020-09-20T13:51:51Z</time>
      </trkpt>
      <trkpt lat="48.61868" lon="7.48549">
        <ele>181.99143982</ele>
        <time>2020-09-20T13:51:53Z</time>
      </trkpt>
      <trkpt lat="48.61865" lon="7.48563">
        <ele>181.99143982</ele>
        <time>2020-09-20T13:51:55Z</time>
      </trkpt>
      <trkpt lat="48.61861" lon="7.48576">
        <ele>181.99143982</ele>
        <time>2020-09-20T13:51:57Z</time>
      </trkpt>
      <trkpt lat="48.61858" lon="7.4859">
        <ele>181.99143982</ele>
        <time>2020-09-20T13:52:00Z</time>
      </trkpt>
      <trkpt lat="48.61855" lon="7.48607">
        <ele>181.99143982</ele>
        <time>2020-09-20T13:52:02Z</time>
      </trkpt>
      <trkpt lat="48.61849" lon="7.48623">
        <ele>181.99143982</ele>
        <time>2020-09-20T13:52:04Z</time>
      </trkpt>
      <trkpt lat="48.61844" lon="7.4864">
        <ele>181.99143982</ele>
        <time>2020-09-20T13:52:06Z</time>
      </trkpt>
      <trkpt lat="48.61839" lon="7.48656">
        <ele>181.99143982</ele>
        <time>2020-09-20T13:52:08Z</time>
      </trkpt>
      <trkpt lat="48.61836" lon="7.48673">
        <ele>181.99143982</ele>
        <time>2020-09-20T13:52:10Z</time>
      </trkpt>
      <trkpt lat="48.61833" lon="7.48691">
        <ele>181.99143982</ele>
        <time>2020-09-20T13:52:12Z</time>
      </trkpt>
      <trkpt lat="48.61828" lon="7.48707">
        <ele>181.99143982</ele>
        <time>2020-09-20T13:52:14Z</time>
      </trkpt>
      <trkpt lat="48.61823" lon="7.48723">
        <ele>181.57637024</ele>
        <time>2020-09-20T13:52:16Z</time>
      </trkpt>
      <trkpt lat="48.61817" lon="7.48738">
        <ele>181.57637024</ele>
        <time>2020-09-20T13:52:18Z</time>
      </trkpt>
      <trkpt lat="48.61811" lon="7.48754">
        <ele>181.57637024</ele>
        <time>2020-09-20T13:52:20Z</time>
      </trkpt>
      <trkpt lat="48.61805" lon="7.4877">
        <ele>181.57637024</ele>
        <time>2020-09-20T13:52:22Z</time>
      </trkpt>
      <trkpt lat="48.61802" lon="7.48786">
        <ele>181.57637024</ele>
        <time>2020-09-20T13:52:24Z</time>
      </trkpt>
      <trkpt lat="48.61801" lon="7.48805">
        <ele>181.57637024</ele>
        <time>2020-09-20T13:52:26Z</time>
      </trkpt>
      <trkpt lat="48.61797" lon="7.48821">
        <ele>180.47694397</ele>
        <time>2020-09-20T13:52:28Z</time>
      </trkpt>
      <trkpt lat="48.61792" lon="7.48836">
        <ele>180.47694397</ele>
        <time>2020-09-20T13:52:30Z</time>
      </trkpt>
      <trkpt lat="48.61787" lon="7.48852">
        <ele>180.47694397</ele>
        <time>2020-09-20T13:52:32Z</time>
      </trkpt>
      <trkpt lat="48.61782" lon="7.48866">
        <ele>180.47694397</ele>
        <time>2020-09-20T13:52:34Z</time>
      </trkpt>
      <trkpt lat="48.61778" lon="7.48883">
        <ele>180.47694397</ele>
        <time>2020-09-20T13:52:36Z</time>
      </trkpt>
      <trkpt lat="48.61772" lon="7.489">
        <ele>180.47694397</ele>
        <time>2020-09-20T13:52:38Z</time>
      </trkpt>
      <trkpt lat="48.61768" lon="7.48917">
        <ele>180.47694397</ele>
        <time>2020-09-20T13:52:40Z</time>
      </trkpt>
      <trkpt lat="48.61765" lon="7.48933">
        <ele>180.47694397</ele>
        <time>2020-09-20T13:52:42Z</time>
      </trkpt>
      <trkpt lat="48.6176" lon="7.48949">
        <ele>180.47694397</ele>
        <time>2020-09-20T13:52:44Z</time>
      </trkpt>
      <trkpt lat="48.61755" lon="7.48966">
        <ele>180.47694397</ele>
        <time>2020-09-20T13:52:46Z</time>
      </trkpt>
      <trkpt lat="48.61752" lon="7.48983">
        <ele>180.47694397</ele>
        <time>2020-09-20T13:52:48Z</time>
      </trkpt>
      <trkpt lat="48.61749" lon="7.49002">
        <ele>180.47694397</ele>
        <time>2020-09-20T13:52:50Z</time>
      </trkpt>
      <trkpt lat="48.61746" lon="7.49016">
        <ele>179.63819885</ele>
        <time>2020-09-20T13:52:51Z</time>
      </trkpt>
      <trkpt lat="48.61743" lon="7.49028">
        <ele>179.63819885</ele>
        <time>2020-09-20T13:52:53Z</time>
      </trkpt>
      <trkpt lat="48.61737" lon="7.49045">
        <ele>179.63819885</ele>
        <time>2020-09-20T13:52:55Z</time>
      </trkpt>
      <trkpt lat="48.61735" lon="7.4906">
        <ele>179.63819885</ele>
        <time>2020-09-20T13:52:57Z</time>
      </trkpt>
      <trkpt lat="48.61733" lon="7.49076">
        <ele>180.64555359</ele>
        <time>2020-09-20T13:53:00Z</time>
      </trkpt>
      <trkpt lat="48.61729" lon="7.49089">
        <ele>180.64555359</ele>
        <time>2020-09-20T13:53:03Z</time>
      </trkpt>
      <trkpt lat="48.61721" lon="7.49088">
        <ele>182.51493835</ele>
        <time>2020-09-20T13:58:56Z</time>
      </trkpt>
      <trkpt lat="48.61719" lon="7.49092">
        <ele>182.51493835</ele>
        <time>2020-09-20T13:59:01Z</time>
      </trkpt>
      <trkpt lat="48.61707" lon="7.49099">
        <ele>182.51493835</ele>
        <time>2020-09-20T13:59:05Z</time>
      </trkpt>
      <trkpt lat="48.61696" lon="7.49107">
        <ele>182.51493835</ele>
        <time>2020-09-20T13:59:07Z</time>
      </trkpt>
      <trkpt lat="48.61685" lon="7.49113">
        <ele>182.51493835</ele>
        <time>2020-09-20T13:59:09Z</time>
      </trkpt>
      <trkpt lat="48.61672" lon="7.4912">
        <ele>182.51493835</ele>
        <time>2020-09-20T13:59:11Z</time>
      </trkpt>
      <trkpt lat="48.61663" lon="7.49127">
        <ele>182.51493835</ele>
        <time>2020-09-20T13:59:13Z</time>
      </trkpt>
      <trkpt lat="48.61655" lon="7.49136">
        <ele>182.51493835</ele>
        <time>2020-09-20T13:59:15Z</time>
      </trkpt>
      <trkpt lat="48.61649" lon="7.49146">
        <ele>182.51493835</ele>
        <time>2020-09-20T13:59:18Z</time>
      </trkpt>
      <trkpt lat="48.61641" lon="7.49152">
        <ele>182.51493835</ele>
        <time>2020-09-20T13:59:21Z</time>
      </trkpt>
      <trkpt lat="48.61628" lon="7.49152">
        <ele>182.51493835</ele>
        <time>2020-09-20T13:59:24Z</time>
      </trkpt>
      <trkpt lat="48.61616" lon="7.49155">
        <ele>182.51493835</ele>
        <time>2020-09-20T13:59:27Z</time>
      </trkpt>
      <trkpt lat="48.61605" lon="7.49157">
        <ele>182.51493835</ele>
        <time>2020-09-20T13:59:29Z</time>
      </trkpt>
      <trkpt lat="48.61595" lon="7.49161">
        <ele>182.51493835</ele>
        <time>2020-09-20T13:59:31Z</time>
      </trkpt>
      <trkpt lat="48.61583" lon="7.49162">
        <ele>182.51493835</ele>
        <time>2020-09-20T13:59:33Z</time>
      </trkpt>
      <trkpt lat="48.6157" lon="7.49163">
        <ele>182.51493835</ele>
        <time>2020-09-20T13:59:35Z</time>
      </trkpt>
      <trkpt lat="48.61561" lon="7.49161">
        <ele>182.51493835</ele>
        <time>2020-09-20T13:59:37Z</time>
      </trkpt>
      <trkpt lat="48.6155" lon="7.49162">
        <ele>182.51493835</ele>
        <time>2020-09-20T13:59:39Z</time>
      </trkpt>
      <trkpt lat="48.61536" lon="7.49167">
        <ele>182.51493835</ele>
        <time>2020-09-20T13:59:41Z</time>
      </trkpt>
      <trkpt lat="48.61523" lon="7.4917">
        <ele>182.51493835</ele>
        <time>2020-09-20T13:59:43Z</time>
      </trkpt>
      <trkpt lat="48.61511" lon="7.49174">
        <ele>182.51493835</ele>
        <time>2020-09-20T13:59:45Z</time>
      </trkpt>
      <trkpt lat="48.615" lon="7.49175">
        <ele>182.51493835</ele>
        <time>2020-09-20T13:59:47Z</time>
      </trkpt>
      <trkpt lat="48.61489" lon="7.4918">
        <ele>182.51493835</ele>
        <time>2020-09-20T13:59:50Z</time>
      </trkpt>
      <trkpt lat="48.61476" lon="7.49184">
        <ele>181.99468994</ele>
        <time>2020-09-20T13:59:51Z</time>
      </trkpt>
      <trkpt lat="48.61466" lon="7.49187">
        <ele>181.99468994</ele>
        <time>2020-09-20T13:59:53Z</time>
      </trkpt>
      <trkpt lat="48.61454" lon="7.49189">
        <ele>181.99468994</ele>
        <time>2020-09-20T13:59:55Z</time>
      </trkpt>
      <trkpt lat="48.6144" lon="7.49193">
        <ele>181.99468994</ele>
        <time>2020-09-20T13:59:57Z</time>
      </trkpt>
      <trkpt lat="48.61426" lon="7.49196">
        <ele>181.99468994</ele>
        <time>2020-09-20T13:59:59Z</time>
      </trkpt>
      <trkpt lat="48.61414" lon="7.492">
        <ele>181.99468994</ele>
        <time>2020-09-20T14:00:01Z</time>
      </trkpt>
      <trkpt lat="48.614" lon="7.49203">
        <ele>181.99468994</ele>
        <time>2020-09-20T14:00:03Z</time>
      </trkpt>
      <trkpt lat="48.61387" lon="7.4921">
        <ele>181.99468994</ele>
        <time>2020-09-20T14:00:05Z</time>
      </trkpt>
      <trkpt lat="48.61377" lon="7.49217">
        <ele>181.99468994</ele>
        <time>2020-09-20T14:00:07Z</time>
      </trkpt>
      <trkpt lat="48.61366" lon="7.49221">
        <ele>181.99468994</ele>
        <time>2020-09-20T14:00:09Z</time>
      </trkpt>
      <trkpt lat="48.61354" lon="7.49226">
        <ele>181.99468994</ele>
        <time>2020-09-20T14:00:11Z</time>
      </trkpt>
      <trkpt lat="48.61342" lon="7.49229">
        <ele>181.99468994</ele>
        <time>2020-09-20T14:00:13Z</time>
      </trkpt>
      <trkpt lat="48.61329" lon="7.49233">
        <ele>181.99468994</ele>
        <time>2020-09-20T14:00:15Z</time>
      </trkpt>
      <trkpt lat="48.61316" lon="7.49233">
        <ele>181.99468994</ele>
        <time>2020-09-20T14:00:17Z</time>
      </trkpt>
      <trkpt lat="48.61303" lon="7.49235">
        <ele>181.99468994</ele>
        <time>2020-09-20T14:00:19Z</time>
      </trkpt>
      <trkpt lat="48.61291" lon="7.49236">
        <ele>181.99468994</ele>
        <time>2020-09-20T14:00:21Z</time>
      </trkpt>
      <trkpt lat="48.61279" lon="7.49238">
        <ele>181.99468994</ele>
        <time>2020-09-20T14:00:23Z</time>
      </trkpt>
      <trkpt lat="48.61267" lon="7.49241">
        <ele>181.99468994</ele>
        <time>2020-09-20T14:00:25Z</time>
      </trkpt>
      <trkpt lat="48.61257" lon="7.49244">
        <ele>181.99468994</ele>
        <time>2020-09-20T14:00:27Z</time>
      </trkpt>
      <trkpt lat="48.61246" lon="7.49247">
        <ele>181.99468994</ele>
        <time>2020-09-20T14:00:29Z</time>
      </trkpt>
      <trkpt lat="48.61235" lon="7.4925">
        <ele>181.99468994</ele>
        <time>2020-09-20T14:00:31Z</time>
      </trkpt>
      <trkpt lat="48.61222" lon="7.49255">
        <ele>181.99468994</ele>
        <time>2020-09-20T14:00:33Z</time>
      </trkpt>
      <trkpt lat="48.61209" lon="7.49259">
        <ele>181.99468994</ele>
        <time>2020-09-20T14:00:35Z</time>
      </trkpt>
      <trkpt lat="48.61196" lon="7.49263">
        <ele>181.99468994</ele>
        <time>2020-09-20T14:00:37Z</time>
      </trkpt>
      <trkpt lat="48.61183" lon="7.49265">
        <ele>181.99468994</ele>
        <time>2020-09-20T14:00:39Z</time>
      </trkpt>
      <trkpt lat="48.6117" lon="7.49267">
        <ele>181.99468994</ele>
        <time>2020-09-20T14:00:41Z</time>
      </trkpt>
      <trkpt lat="48.61157" lon="7.49268">
        <ele>181.99468994</ele>
        <time>2020-09-20T14:00:43Z</time>
      </trkpt>
      <trkpt lat="48.61144" lon="7.49269">
        <ele>181.99468994</ele>
        <time>2020-09-20T14:00:45Z</time>
      </trkpt>
      <trkpt lat="48.61132" lon="7.4927">
        <ele>181.99468994</ele>
        <time>2020-09-20T14:00:47Z</time>
      </trkpt>
      <trkpt lat="48.61118" lon="7.49273">
        <ele>181.99468994</ele>
        <time>2020-09-20T14:00:49Z</time>
      </trkpt>
      <trkpt lat="48.61101" lon="7.49276">
        <ele>181.47045898</ele>
        <time>2020-09-20T14:00:51Z</time>
      </trkpt>
      <trkpt lat="48.61092" lon="7.4928">
        <ele>181.47045898</ele>
        <time>2020-09-20T14:00:53Z</time>
      </trkpt>
      <trkpt lat="48.61079" lon="7.49283">
        <ele>181.47045898</ele>
        <time>2020-09-20T14:00:55Z</time>
      </trkpt>
      <trkpt lat="48.61067" lon="7.49286">
        <ele>181.47045898</ele>
        <time>2020-09-20T14:00:57Z</time>
      </trkpt>
      <trkpt lat="48.61055" lon="7.4929">
        <ele>181.47045898</ele>
        <time>2020-09-20T14:00:59Z</time>
      </trkpt>
      <trkpt lat="48.61043" lon="7.49293">
        <ele>181.47045898</ele>
        <time>2020-09-20T14:01:01Z</time>
      </trkpt>
      <trkpt lat="48.61034" lon="7.49296">
        <ele>181.47045898</ele>
        <time>2020-09-20T14:01:03Z</time>
      </trkpt>
      <trkpt lat="48.61023" lon="7.49299">
        <ele>181.47045898</ele>
        <time>2020-09-20T14:01:05Z</time>
      </trkpt>
      <trkpt lat="48.61009" lon="7.49303">
        <ele>181.47045898</ele>
        <time>2020-09-20T14:01:07Z</time>
      </trkpt>
      <trkpt lat="48.60993" lon="7.49307">
        <ele>181.47045898</ele>
        <time>2020-09-20T14:01:09Z</time>
      </trkpt>
      <trkpt lat="48.60981" lon="7.49311">
        <ele>181.47045898</ele>
        <time>2020-09-20T14:01:11Z</time>
      </trkpt>
      <trkpt lat="48.60968" lon="7.49313">
        <ele>181.47045898</ele>
        <time>2020-09-20T14:01:13Z</time>
      </trkpt>
      <trkpt lat="48.60957" lon="7.49313">
        <ele>181.47045898</ele>
        <time>2020-09-20T14:01:15Z</time>
      </trkpt>
      <trkpt lat="48.60946" lon="7.49318">
        <ele>181.47045898</ele>
        <time>2020-09-20T14:01:17Z</time>
      </trkpt>
      <trkpt lat="48.60934" lon="7.49324">
        <ele>181.47045898</ele>
        <time>2020-09-20T14:01:19Z</time>
      </trkpt>
      <trkpt lat="48.6092" lon="7.49329">
        <ele>181.47045898</ele>
        <time>2020-09-20T14:01:21Z</time>
      </trkpt>
      <trkpt lat="48.60906" lon="7.49333">
        <ele>181.47045898</ele>
        <time>2020-09-20T14:01:23Z</time>
      </trkpt>
      <trkpt lat="48.60891" lon="7.49334">
        <ele>181.47045898</ele>
        <time>2020-09-20T14:01:25Z</time>
      </trkpt>
      <trkpt lat="48.60879" lon="7.49335">
        <ele>181.47045898</ele>
        <time>2020-09-20T14:01:27Z</time>
      </trkpt>
      <trkpt lat="48.60867" lon="7.49339">
        <ele>181.47045898</ele>
        <time>2020-09-20T14:01:29Z</time>
      </trkpt>
      <trkpt lat="48.60856" lon="7.49342">
        <ele>181.47045898</ele>
        <time>2020-09-20T14:01:31Z</time>
      </trkpt>
      <trkpt lat="48.60845" lon="7.49345">
        <ele>181.47045898</ele>
        <time>2020-09-20T14:01:33Z</time>
      </trkpt>
      <trkpt lat="48.60833" lon="7.4935">
        <ele>181.47045898</ele>
        <time>2020-09-20T14:01:35Z</time>
      </trkpt>
      <trkpt lat="48.60822" lon="7.49352">
        <ele>181.47045898</ele>
        <time>2020-09-20T14:01:37Z</time>
      </trkpt>
      <trkpt lat="48.60809" lon="7.49354">
        <ele>181.47045898</ele>
        <time>2020-09-20T14:01:39Z</time>
      </trkpt>
      <trkpt lat="48.60798" lon="7.4936">
        <ele>181.47045898</ele>
        <time>2020-09-20T14:01:41Z</time>
      </trkpt>
      <trkpt lat="48.60787" lon="7.49367">
        <ele>181.47045898</ele>
        <time>2020-09-20T14:01:44Z</time>
      </trkpt>
      <trkpt lat="48.60778" lon="7.49374">
        <ele>181.4803009</ele>
        <time>2020-09-20T14:01:47Z</time>
      </trkpt>
      <trkpt lat="48.6077" lon="7.49375">
        <ele>182.33865356</ele>
        <time>2020-09-20T14:01:51Z</time>
      </trkpt>
      <trkpt lat="48.60762" lon="7.49374">
        <ele>182.33865356</ele>
        <time>2020-09-20T14:01:54Z</time>
      </trkpt>
      <trkpt lat="48.60753" lon="7.49381">
        <ele>182.33865356</ele>
        <time>2020-09-20T14:01:57Z</time>
      </trkpt>
      <trkpt lat="48.60742" lon="7.49385">
        <ele>182.33865356</ele>
        <time>2020-09-20T14:02:00Z</time>
      </trkpt>
      <trkpt lat="48.60732" lon="7.49384">
        <ele>182.33865356</ele>
        <time>2020-09-20T14:02:02Z</time>
      </trkpt>
      <trkpt lat="48.60721" lon="7.49385">
        <ele>182.33865356</ele>
        <time>2020-09-20T14:02:04Z</time>
      </trkpt>
      <trkpt lat="48.60706" lon="7.49386">
        <ele>182.33865356</ele>
        <time>2020-09-20T14:02:06Z</time>
      </trkpt>
      <trkpt lat="48.6069" lon="7.49388">
        <ele>182.33865356</ele>
        <time>2020-09-20T14:02:07Z</time>
      </trkpt>
      <trkpt lat="48.60679" lon="7.49394">
        <ele>182.33865356</ele>
        <time>2020-09-20T14:02:09Z</time>
      </trkpt>
      <trkpt lat="48.60669" lon="7.49397">
        <ele>182.33865356</ele>
        <time>2020-09-20T14:02:11Z</time>
      </trkpt>
      <trkpt lat="48.60655" lon="7.49397">
        <ele>182.33865356</ele>
        <time>2020-09-20T14:02:13Z</time>
      </trkpt>
      <trkpt lat="48.60644" lon="7.494">
        <ele>181.76982117</ele>
        <time>2020-09-20T14:02:15Z</time>
      </trkpt>
      <trkpt lat="48.60632" lon="7.49404">
        <ele>181.76982117</ele>
        <time>2020-09-20T14:02:17Z</time>
      </trkpt>
      <trkpt lat="48.60617" lon="7.49408">
        <ele>181.76982117</ele>
        <time>2020-09-20T14:02:19Z</time>
      </trkpt>
      <trkpt lat="48.60603" lon="7.49414">
        <ele>181.76982117</ele>
        <time>2020-09-20T14:02:21Z</time>
      </trkpt>
      <trkpt lat="48.6059" lon="7.49417">
        <ele>181.76982117</ele>
        <time>2020-09-20T14:02:23Z</time>
      </trkpt>
      <trkpt lat="48.60577" lon="7.49419">
        <ele>181.76982117</ele>
        <time>2020-09-20T14:02:25Z</time>
      </trkpt>
      <trkpt lat="48.60564" lon="7.49423">
        <ele>181.76982117</ele>
        <time>2020-09-20T14:02:27Z</time>
      </trkpt>
      <trkpt lat="48.6055" lon="7.49426">
        <ele>181.76982117</ele>
        <time>2020-09-20T14:02:29Z</time>
      </trkpt>
      <trkpt lat="48.60536" lon="7.49428">
        <ele>181.76982117</ele>
        <time>2020-09-20T14:02:31Z</time>
      </trkpt>
      <trkpt lat="48.60523" lon="7.49429">
        <ele>181.76982117</ele>
        <time>2020-09-20T14:02:33Z</time>
      </trkpt>
      <trkpt lat="48.60508" lon="7.49434">
        <ele>180.80464172</ele>
        <time>2020-09-20T14:02:35Z</time>
      </trkpt>
      <trkpt lat="48.60494" lon="7.49438">
        <ele>180.80464172</ele>
        <time>2020-09-20T14:02:37Z</time>
      </trkpt>
      <trkpt lat="48.60479" lon="7.49443">
        <ele>180.80464172</ele>
        <time>2020-09-20T14:02:39Z</time>
      </trkpt>
      <trkpt lat="48.60465" lon="7.49448">
        <ele>180.80464172</ele>
        <time>2020-09-20T14:02:41Z</time>
      </trkpt>
      <trkpt lat="48.6045" lon="7.49453">
        <ele>180.80464172</ele>
        <time>2020-09-20T14:02:43Z</time>
      </trkpt>
      <trkpt lat="48.60436" lon="7.49457">
        <ele>179.65037537</ele>
        <time>2020-09-20T14:02:45Z</time>
      </trkpt>
      <trkpt lat="48.60421" lon="7.49459">
        <ele>179.65037537</ele>
        <time>2020-09-20T14:02:47Z</time>
      </trkpt>
      <trkpt lat="48.60408" lon="7.49463">
        <ele>179.65037537</ele>
        <time>2020-09-20T14:02:49Z</time>
      </trkpt>
      <trkpt lat="48.60391" lon="7.49467">
        <ele>178.8890686</ele>
        <time>2020-09-20T14:02:51Z</time>
      </trkpt>
      <trkpt lat="48.60381" lon="7.4947">
        <ele>178.8890686</ele>
        <time>2020-09-20T14:02:53Z</time>
      </trkpt>
      <trkpt lat="48.60369" lon="7.49471">
        <ele>178.8890686</ele>
        <time>2020-09-20T14:02:55Z</time>
      </trkpt>
      <trkpt lat="48.60356" lon="7.49471">
        <ele>178.8890686</ele>
        <time>2020-09-20T14:02:57Z</time>
      </trkpt>
      <trkpt lat="48.60341" lon="7.49471">
        <ele>178.8890686</ele>
        <time>2020-09-20T14:02:59Z</time>
      </trkpt>
      <trkpt lat="48.60326" lon="7.49474">
        <ele>178.8890686</ele>
        <time>2020-09-20T14:03:01Z</time>
      </trkpt>
      <trkpt lat="48.60309" lon="7.49479">
        <ele>178.8890686</ele>
        <time>2020-09-20T14:03:03Z</time>
      </trkpt>
      <trkpt lat="48.60296" lon="7.49483">
        <ele>178.8890686</ele>
        <time>2020-09-20T14:03:04Z</time>
      </trkpt>
      <trkpt lat="48.60284" lon="7.49487">
        <ele>178.8890686</ele>
        <time>2020-09-20T14:03:06Z</time>
      </trkpt>
      <trkpt lat="48.6027" lon="7.49493">
        <ele>178.8890686</ele>
        <time>2020-09-20T14:03:08Z</time>
      </trkpt>
      <trkpt lat="48.60255" lon="7.49498">
        <ele>178.8890686</ele>
        <time>2020-09-20T14:03:10Z</time>
      </trkpt>
      <trkpt lat="48.60238" lon="7.49501">
        <ele>178.8890686</ele>
        <time>2020-09-20T14:03:12Z</time>
      </trkpt>
      <trkpt lat="48.60224" lon="7.49502">
        <ele>178.33706665</ele>
        <time>2020-09-20T14:03:14Z</time>
      </trkpt>
      <trkpt lat="48.6021" lon="7.49501">
        <ele>178.33706665</ele>
        <time>2020-09-20T14:03:16Z</time>
      </trkpt>
      <trkpt lat="48.60195" lon="7.49501">
        <ele>178.33706665</ele>
        <time>2020-09-20T14:03:18Z</time>
      </trkpt>
      <trkpt lat="48.60181" lon="7.49498">
        <ele>178.33706665</ele>
        <time>2020-09-20T14:03:20Z</time>
      </trkpt>
      <trkpt lat="48.60169" lon="7.49495">
        <ele>178.33706665</ele>
        <time>2020-09-20T14:03:22Z</time>
      </trkpt>
      <trkpt lat="48.60156" lon="7.49491">
        <ele>178.33706665</ele>
        <time>2020-09-20T14:03:24Z</time>
      </trkpt>
      <trkpt lat="48.60144" lon="7.49489">
        <ele>178.33706665</ele>
        <time>2020-09-20T14:03:26Z</time>
      </trkpt>
      <trkpt lat="48.60133" lon="7.49486">
        <ele>178.33706665</ele>
        <time>2020-09-20T14:03:28Z</time>
      </trkpt>
      <trkpt lat="48.60121" lon="7.49484">
        <ele>178.33706665</ele>
        <time>2020-09-20T14:03:30Z</time>
      </trkpt>
      <trkpt lat="48.6011" lon="7.4948">
        <ele>178.33706665</ele>
        <time>2020-09-20T14:03:32Z</time>
      </trkpt>
      <trkpt lat="48.60098" lon="7.49474">
        <ele>178.33706665</ele>
        <time>2020-09-20T14:03:34Z</time>
      </trkpt>
      <trkpt lat="48.60086" lon="7.49467">
        <ele>178.33706665</ele>
        <time>2020-09-20T14:03:36Z</time>
      </trkpt>
      <trkpt lat="48.60074" lon="7.4946">
        <ele>178.33706665</ele>
        <time>2020-09-20T14:03:38Z</time>
      </trkpt>
      <trkpt lat="48.6006" lon="7.49451">
        <ele>178.33706665</ele>
        <time>2020-09-20T14:03:40Z</time>
      </trkpt>
      <trkpt lat="48.60046" lon="7.49445">
        <ele>178.33706665</ele>
        <time>2020-09-20T14:03:42Z</time>
      </trkpt>
      <trkpt lat="48.60037" lon="7.49442">
        <ele>178.33706665</ele>
        <time>2020-09-20T14:03:46Z</time>
      </trkpt>
      <trkpt lat="48.60027" lon="7.49433">
        <ele>178.33706665</ele>
        <time>2020-09-20T14:03:48Z</time>
      </trkpt>
      <trkpt lat="48.60017" lon="7.49426">
        <ele>178.33706665</ele>
        <time>2020-09-20T14:03:50Z</time>
      </trkpt>
      <trkpt lat="48.60007" lon="7.49419">
        <ele>177.51669312</ele>
        <time>2020-09-20T14:03:51Z</time>
      </trkpt>
      <trkpt lat="48.59998" lon="7.49412">
        <ele>177.51669312</ele>
        <time>2020-09-20T14:03:53Z</time>
      </trkpt>
      <trkpt lat="48.59988" lon="7.49403">
        <ele>177.51669312</ele>
        <time>2020-09-20T14:03:55Z</time>
      </trkpt>
      <trkpt lat="48.59978" lon="7.49394">
        <ele>177.51669312</ele>
        <time>2020-09-20T14:03:57Z</time>
      </trkpt>
      <trkpt lat="48.59967" lon="7.49385">
        <ele>177.51669312</ele>
        <time>2020-09-20T14:03:59Z</time>
      </trkpt>
      <trkpt lat="48.59956" lon="7.49376">
        <ele>177.51669312</ele>
        <time>2020-09-20T14:04:01Z</time>
      </trkpt>
      <trkpt lat="48.59943" lon="7.49367">
        <ele>177.51669312</ele>
        <time>2020-09-20T14:04:03Z</time>
      </trkpt>
      <trkpt lat="48.59932" lon="7.4936">
        <ele>177.51669312</ele>
        <time>2020-09-20T14:04:05Z</time>
      </trkpt>
      <trkpt lat="48.59921" lon="7.49349">
        <ele>177.51669312</ele>
        <time>2020-09-20T14:04:07Z</time>
      </trkpt>
      <trkpt lat="48.5991" lon="7.49339">
        <ele>177.51669312</ele>
        <time>2020-09-20T14:04:09Z</time>
      </trkpt>
      <trkpt lat="48.59898" lon="7.49332">
        <ele>177.51669312</ele>
        <time>2020-09-20T14:04:11Z</time>
      </trkpt>
      <trkpt lat="48.59887" lon="7.49322">
        <ele>177.51669312</ele>
        <time>2020-09-20T14:04:13Z</time>
      </trkpt>
      <trkpt lat="48.59875" lon="7.49313">
        <ele>177.51669312</ele>
        <time>2020-09-20T14:04:15Z</time>
      </trkpt>
      <trkpt lat="48.59864" lon="7.49303">
        <ele>177.51669312</ele>
        <time>2020-09-20T14:04:17Z</time>
      </trkpt>
      <trkpt lat="48.59853" lon="7.49294">
        <ele>177.51669312</ele>
        <time>2020-09-20T14:04:19Z</time>
      </trkpt>
      <trkpt lat="48.59843" lon="7.49287">
        <ele>177.51669312</ele>
        <time>2020-09-20T14:04:21Z</time>
      </trkpt>
      <trkpt lat="48.59833" lon="7.49278">
        <ele>177.51669312</ele>
        <time>2020-09-20T14:04:23Z</time>
      </trkpt>
      <trkpt lat="48.59822" lon="7.49269">
        <ele>177.51669312</ele>
        <time>2020-09-20T14:04:25Z</time>
      </trkpt>
      <trkpt lat="48.59811" lon="7.4926">
        <ele>177.51669312</ele>
        <time>2020-09-20T14:04:27Z</time>
      </trkpt>
      <trkpt lat="48.598" lon="7.49251">
        <ele>177.51669312</ele>
        <time>2020-09-20T14:04:29Z</time>
      </trkpt>
      <trkpt lat="48.5979" lon="7.49244">
        <ele>177.51669312</ele>
        <time>2020-09-20T14:04:31Z</time>
      </trkpt>
      <trkpt lat="48.59781" lon="7.49236">
        <ele>177.51669312</ele>
        <time>2020-09-20T14:04:34Z</time>
      </trkpt>
      <trkpt lat="48.5977" lon="7.49229">
        <ele>177.51669312</ele>
        <time>2020-09-20T14:04:36Z</time>
      </trkpt>
      <trkpt lat="48.59759" lon="7.49223">
        <ele>177.51669312</ele>
        <time>2020-09-20T14:04:38Z</time>
      </trkpt>
      <trkpt lat="48.59748" lon="7.49214">
        <ele>177.51669312</ele>
        <time>2020-09-20T14:04:40Z</time>
      </trkpt>
      <trkpt lat="48.59737" lon="7.49205">
        <ele>177.51669312</ele>
        <time>2020-09-20T14:04:42Z</time>
      </trkpt>
      <trkpt lat="48.59725" lon="7.49195">
        <ele>177.51669312</ele>
        <time>2020-09-20T14:04:44Z</time>
      </trkpt>
      <trkpt lat="48.59714" lon="7.49186">
        <ele>177.51669312</ele>
        <time>2020-09-20T14:04:46Z</time>
      </trkpt>
      <trkpt lat="48.59703" lon="7.49178">
        <ele>177.51669312</ele>
        <time>2020-09-20T14:04:48Z</time>
      </trkpt>
      <trkpt lat="48.59692" lon="7.4917">
        <ele>177.51669312</ele>
        <time>2020-09-20T14:04:50Z</time>
      </trkpt>
      <trkpt lat="48.59684" lon="7.49163">
        <ele>176.70825195</ele>
        <time>2020-09-20T14:04:51Z</time>
      </trkpt>
      <trkpt lat="48.59676" lon="7.49157">
        <ele>176.70825195</ele>
        <time>2020-09-20T14:04:53Z</time>
      </trkpt>
      <trkpt lat="48.59664" lon="7.49147">
        <ele>176.70825195</ele>
        <time>2020-09-20T14:04:55Z</time>
      </trkpt>
      <trkpt lat="48.59653" lon="7.4914">
        <ele>176.70825195</ele>
        <time>2020-09-20T14:04:57Z</time>
      </trkpt>
      <trkpt lat="48.59641" lon="7.49132">
        <ele>176.70825195</ele>
        <time>2020-09-20T14:04:59Z</time>
      </trkpt>
      <trkpt lat="48.59632" lon="7.49124">
        <ele>176.70825195</ele>
        <time>2020-09-20T14:05:01Z</time>
      </trkpt>
      <trkpt lat="48.59621" lon="7.49117">
        <ele>176.70825195</ele>
        <time>2020-09-20T14:05:03Z</time>
      </trkpt>
      <trkpt lat="48.5961" lon="7.49105">
        <ele>176.70825195</ele>
        <time>2020-09-20T14:05:05Z</time>
      </trkpt>
      <trkpt lat="48.596" lon="7.49098">
        <ele>176.70825195</ele>
        <time>2020-09-20T14:05:07Z</time>
      </trkpt>
      <trkpt lat="48.59588" lon="7.49089">
        <ele>176.70825195</ele>
        <time>2020-09-20T14:05:09Z</time>
      </trkpt>
      <trkpt lat="48.59575" lon="7.49079">
        <ele>176.70825195</ele>
        <time>2020-09-20T14:05:11Z</time>
      </trkpt>
      <trkpt lat="48.59563" lon="7.49069">
        <ele>176.70825195</ele>
        <time>2020-09-20T14:05:13Z</time>
      </trkpt>
      <trkpt lat="48.59551" lon="7.49059">
        <ele>176.70825195</ele>
        <time>2020-09-20T14:05:15Z</time>
      </trkpt>
      <trkpt lat="48.59541" lon="7.49051">
        <ele>176.70825195</ele>
        <time>2020-09-20T14:05:17Z</time>
      </trkpt>
      <trkpt lat="48.5953" lon="7.49041">
        <ele>176.70825195</ele>
        <time>2020-09-20T14:05:19Z</time>
      </trkpt>
      <trkpt lat="48.59518" lon="7.49032">
        <ele>176.70825195</ele>
        <time>2020-09-20T14:05:21Z</time>
      </trkpt>
      <trkpt lat="48.59507" lon="7.49023">
        <ele>176.70825195</ele>
        <time>2020-09-20T14:05:23Z</time>
      </trkpt>
      <trkpt lat="48.59496" lon="7.49012">
        <ele>176.70825195</ele>
        <time>2020-09-20T14:05:25Z</time>
      </trkpt>
      <trkpt lat="48.59485" lon="7.49002">
        <ele>176.70825195</ele>
        <time>2020-09-20T14:05:27Z</time>
      </trkpt>
      <trkpt lat="48.59473" lon="7.48993">
        <ele>176.70825195</ele>
        <time>2020-09-20T14:05:29Z</time>
      </trkpt>
      <trkpt lat="48.59462" lon="7.48985">
        <ele>176.70825195</ele>
        <time>2020-09-20T14:05:31Z</time>
      </trkpt>
      <trkpt lat="48.59451" lon="7.48976">
        <ele>176.70825195</ele>
        <time>2020-09-20T14:05:33Z</time>
      </trkpt>
      <trkpt lat="48.59439" lon="7.48969">
        <ele>176.70825195</ele>
        <time>2020-09-20T14:05:35Z</time>
      </trkpt>
      <trkpt lat="48.59427" lon="7.4896">
        <ele>176.70825195</ele>
        <time>2020-09-20T14:05:37Z</time>
      </trkpt>
      <trkpt lat="48.59414" lon="7.48953">
        <ele>176.70825195</ele>
        <time>2020-09-20T14:05:39Z</time>
      </trkpt>
      <trkpt lat="48.59402" lon="7.48945">
        <ele>176.70825195</ele>
        <time>2020-09-20T14:05:41Z</time>
      </trkpt>
      <trkpt lat="48.59391" lon="7.48937">
        <ele>176.70825195</ele>
        <time>2020-09-20T14:05:43Z</time>
      </trkpt>
      <trkpt lat="48.59382" lon="7.48928">
        <ele>176.70825195</ele>
        <time>2020-09-20T14:05:45Z</time>
      </trkpt>
      <trkpt lat="48.59372" lon="7.48919">
        <ele>176.70825195</ele>
        <time>2020-09-20T14:05:47Z</time>
      </trkpt>
      <trkpt lat="48.59361" lon="7.48911">
        <ele>176.70825195</ele>
        <time>2020-09-20T14:05:49Z</time>
      </trkpt>
      <trkpt lat="48.59349" lon="7.48903">
        <ele>176.37359619</ele>
        <time>2020-09-20T14:05:51Z</time>
      </trkpt>
      <trkpt lat="48.59343" lon="7.48898">
        <ele>176.37359619</ele>
        <time>2020-09-20T14:05:53Z</time>
      </trkpt>
      <trkpt lat="48.59335" lon="7.48891">
        <ele>176.37359619</ele>
        <time>2020-09-20T14:05:55Z</time>
      </trkpt>
      <trkpt lat="48.59325" lon="7.48885">
        <ele>176.37359619</ele>
        <time>2020-09-20T14:05:58Z</time>
      </trkpt>
      <trkpt lat="48.59315" lon="7.48879">
        <ele>176.37359619</ele>
        <time>2020-09-20T14:06:00Z</time>
      </trkpt>
      <trkpt lat="48.59307" lon="7.48868">
        <ele>176.37359619</ele>
        <time>2020-09-20T14:06:03Z</time>
      </trkpt>
      <trkpt lat="48.59296" lon="7.48858">
        <ele>176.37359619</ele>
        <time>2020-09-20T14:06:06Z</time>
      </trkpt>
      <trkpt lat="48.59281" lon="7.48849">
        <ele>176.37359619</ele>
        <time>2020-09-20T14:06:08Z</time>
      </trkpt>
      <trkpt lat="48.59269" lon="7.48841">
        <ele>176.37359619</ele>
        <time>2020-09-20T14:06:10Z</time>
      </trkpt>
      <trkpt lat="48.59259" lon="7.48831">
        <ele>176.37359619</ele>
        <time>2020-09-20T14:06:12Z</time>
      </trkpt>
      <trkpt lat="48.59248" lon="7.48827">
        <ele>176.37359619</ele>
        <time>2020-09-20T14:06:14Z</time>
      </trkpt>
      <trkpt lat="48.59237" lon="7.48817">
        <ele>176.37359619</ele>
        <time>2020-09-20T14:06:16Z</time>
      </trkpt>
      <trkpt lat="48.59227" lon="7.48807">
        <ele>176.37359619</ele>
        <time>2020-09-20T14:06:18Z</time>
      </trkpt>
      <trkpt lat="48.59216" lon="7.48799">
        <ele>176.37359619</ele>
        <time>2020-09-20T14:06:20Z</time>
      </trkpt>
      <trkpt lat="48.59205" lon="7.4879">
        <ele>176.37359619</ele>
        <time>2020-09-20T14:06:22Z</time>
      </trkpt>
      <trkpt lat="48.59194" lon="7.48779">
        <ele>176.37359619</ele>
        <time>2020-09-20T14:06:24Z</time>
      </trkpt>
      <trkpt lat="48.59184" lon="7.48772">
        <ele>176.37359619</ele>
        <time>2020-09-20T14:06:26Z</time>
      </trkpt>
      <trkpt lat="48.59173" lon="7.48764">
        <ele>176.37359619</ele>
        <time>2020-09-20T14:06:28Z</time>
      </trkpt>
      <trkpt lat="48.59164" lon="7.48757">
        <ele>176.37359619</ele>
        <time>2020-09-20T14:06:30Z</time>
      </trkpt>
      <trkpt lat="48.59154" lon="7.48751">
        <ele>176.37359619</ele>
        <time>2020-09-20T14:06:32Z</time>
      </trkpt>
      <trkpt lat="48.59142" lon="7.48743">
        <ele>176.37359619</ele>
        <time>2020-09-20T14:06:34Z</time>
      </trkpt>
      <trkpt lat="48.59134" lon="7.48735">
        <ele>176.37359619</ele>
        <time>2020-09-20T14:06:37Z</time>
      </trkpt>
      <trkpt lat="48.59127" lon="7.4873">
        <ele>176.37359619</ele>
        <time>2020-09-20T14:06:44Z</time>
      </trkpt>
      <trkpt lat="48.59123" lon="7.48715">
        <ele>176.37359619</ele>
        <time>2020-09-20T14:06:48Z</time>
      </trkpt>
      <trkpt lat="48.59113" lon="7.48705">
        <ele>176.37359619</ele>
        <time>2020-09-20T14:06:50Z</time>
      </trkpt>
      <trkpt lat="48.59106" lon="7.487">
        <ele>177.19914246</ele>
        <time>2020-09-20T14:06:51Z</time>
      </trkpt>
      <trkpt lat="48.591" lon="7.48695">
        <ele>177.19914246</ele>
        <time>2020-09-20T14:06:53Z</time>
      </trkpt>
      <trkpt lat="48.59088" lon="7.48687">
        <ele>177.19914246</ele>
        <time>2020-09-20T14:06:55Z</time>
      </trkpt>
      <trkpt lat="48.59077" lon="7.48677">
        <ele>177.19914246</ele>
        <time>2020-09-20T14:06:57Z</time>
      </trkpt>
      <trkpt lat="48.59064" lon="7.48667">
        <ele>177.19914246</ele>
        <time>2020-09-20T14:06:59Z</time>
      </trkpt>
      <trkpt lat="48.59053" lon="7.48659">
        <ele>177.19914246</ele>
        <time>2020-09-20T14:07:01Z</time>
      </trkpt>
      <trkpt lat="48.59044" lon="7.4865">
        <ele>177.19914246</ele>
        <time>2020-09-20T14:07:03Z</time>
      </trkpt>
      <trkpt lat="48.59035" lon="7.48643">
        <ele>177.19914246</ele>
        <time>2020-09-20T14:07:05Z</time>
      </trkpt>
      <trkpt lat="48.59022" lon="7.48634">
        <ele>177.19914246</ele>
        <time>2020-09-20T14:07:07Z</time>
      </trkpt>
      <trkpt lat="48.59008" lon="7.48625">
        <ele>177.19914246</ele>
        <time>2020-09-20T14:07:09Z</time>
      </trkpt>
      <trkpt lat="48.58998" lon="7.48617">
        <ele>177.19914246</ele>
        <time>2020-09-20T14:07:11Z</time>
      </trkpt>
      <trkpt lat="48.58987" lon="7.48608">
        <ele>177.19914246</ele>
        <time>2020-09-20T14:07:13Z</time>
      </trkpt>
      <trkpt lat="48.58976" lon="7.48601">
        <ele>177.19914246</ele>
        <time>2020-09-20T14:07:15Z</time>
      </trkpt>
      <trkpt lat="48.58966" lon="7.48594">
        <ele>177.19914246</ele>
        <time>2020-09-20T14:07:17Z</time>
      </trkpt>
      <trkpt lat="48.58954" lon="7.48591">
        <ele>177.19914246</ele>
        <time>2020-09-20T14:07:19Z</time>
      </trkpt>
      <trkpt lat="48.58939" lon="7.48588">
        <ele>177.19914246</ele>
        <time>2020-09-20T14:07:21Z</time>
      </trkpt>
      <trkpt lat="48.58929" lon="7.48581">
        <ele>177.19914246</ele>
        <time>2020-09-20T14:07:23Z</time>
      </trkpt>
      <trkpt lat="48.58921" lon="7.4857">
        <ele>177.19914246</ele>
        <time>2020-09-20T14:07:26Z</time>
      </trkpt>
      <trkpt lat="48.58909" lon="7.48559">
        <ele>177.19914246</ele>
        <time>2020-09-20T14:07:28Z</time>
      </trkpt>
      <trkpt lat="48.58899" lon="7.48551">
        <ele>177.19914246</ele>
        <time>2020-09-20T14:07:30Z</time>
      </trkpt>
      <trkpt lat="48.58888" lon="7.48541">
        <ele>177.19914246</ele>
        <time>2020-09-20T14:07:32Z</time>
      </trkpt>
      <trkpt lat="48.58879" lon="7.48529">
        <ele>177.19914246</ele>
        <time>2020-09-20T14:07:34Z</time>
      </trkpt>
      <trkpt lat="48.58867" lon="7.4852">
        <ele>177.19914246</ele>
        <time>2020-09-20T14:07:36Z</time>
      </trkpt>
      <trkpt lat="48.58856" lon="7.48514">
        <ele>177.19914246</ele>
        <time>2020-09-20T14:07:38Z</time>
      </trkpt>
      <trkpt lat="48.58841" lon="7.48507">
        <ele>177.19914246</ele>
        <time>2020-09-20T14:07:40Z</time>
      </trkpt>
      <trkpt lat="48.5883" lon="7.485">
        <ele>176.94400024</ele>
        <time>2020-09-20T14:07:42Z</time>
      </trkpt>
      <trkpt lat="48.5882" lon="7.48491">
        <ele>176.94400024</ele>
        <time>2020-09-20T14:07:44Z</time>
      </trkpt>
      <trkpt lat="48.58811" lon="7.48483">
        <ele>176.94400024</ele>
        <time>2020-09-20T14:07:46Z</time>
      </trkpt>
      <trkpt lat="48.58802" lon="7.48476">
        <ele>176.94400024</ele>
        <time>2020-09-20T14:07:48Z</time>
      </trkpt>
      <trkpt lat="48.58793" lon="7.4847">
        <ele>176.94400024</ele>
        <time>2020-09-20T14:07:50Z</time>
      </trkpt>
      <trkpt lat="48.58784" lon="7.48465">
        <ele>176.36288452</ele>
        <time>2020-09-20T14:07:51Z</time>
      </trkpt>
      <trkpt lat="48.58776" lon="7.48461">
        <ele>176.36288452</ele>
        <time>2020-09-20T14:07:53Z</time>
      </trkpt>
      <trkpt lat="48.58764" lon="7.48453">
        <ele>176.36288452</ele>
        <time>2020-09-20T14:07:55Z</time>
      </trkpt>
      <trkpt lat="48.58754" lon="7.48444">
        <ele>176.36288452</ele>
        <time>2020-09-20T14:07:57Z</time>
      </trkpt>
      <trkpt lat="48.58743" lon="7.48435">
        <ele>176.36288452</ele>
        <time>2020-09-20T14:07:59Z</time>
      </trkpt>
      <trkpt lat="48.58733" lon="7.48427">
        <ele>176.36288452</ele>
        <time>2020-09-20T14:08:01Z</time>
      </trkpt>
      <trkpt lat="48.58723" lon="7.48418">
        <ele>176.36288452</ele>
        <time>2020-09-20T14:08:04Z</time>
      </trkpt>
      <trkpt lat="48.58714" lon="7.4841">
        <ele>176.36288452</ele>
        <time>2020-09-20T14:08:06Z</time>
      </trkpt>
      <trkpt lat="48.58706" lon="7.48405">
        <ele>176.36288452</ele>
        <time>2020-09-20T14:08:08Z</time>
      </trkpt>
      <trkpt lat="48.58695" lon="7.48394">
        <ele>175.77075195</ele>
        <time>2020-09-20T14:08:10Z</time>
      </trkpt>
      <trkpt lat="48.58683" lon="7.48385">
        <ele>175.77075195</ele>
        <time>2020-09-20T14:08:12Z</time>
      </trkpt>
      <trkpt lat="48.58672" lon="7.48376">
        <ele>175.77075195</ele>
        <time>2020-09-20T14:08:14Z</time>
      </trkpt>
      <trkpt lat="48.5866" lon="7.48367">
        <ele>175.77075195</ele>
        <time>2020-09-20T14:08:16Z</time>
      </trkpt>
      <trkpt lat="48.58647" lon="7.48356">
        <ele>175.77075195</ele>
        <time>2020-09-20T14:08:18Z</time>
      </trkpt>
      <trkpt lat="48.58636" lon="7.48349">
        <ele>175.77075195</ele>
        <time>2020-09-20T14:08:20Z</time>
      </trkpt>
      <trkpt lat="48.58624" lon="7.48341">
        <ele>175.77075195</ele>
        <time>2020-09-20T14:08:22Z</time>
      </trkpt>
      <trkpt lat="48.58612" lon="7.48332">
        <ele>175.77075195</ele>
        <time>2020-09-20T14:08:24Z</time>
      </trkpt>
      <trkpt lat="48.58601" lon="7.48323">
        <ele>174.57891846</ele>
        <time>2020-09-20T14:08:26Z</time>
      </trkpt>
      <trkpt lat="48.5859" lon="7.48314">
        <ele>174.57891846</ele>
        <time>2020-09-20T14:08:28Z</time>
      </trkpt>
      <trkpt lat="48.58579" lon="7.48304">
        <ele>174.57891846</ele>
        <time>2020-09-20T14:08:30Z</time>
      </trkpt>
      <trkpt lat="48.58569" lon="7.48296">
        <ele>174.57891846</ele>
        <time>2020-09-20T14:08:32Z</time>
      </trkpt>
      <trkpt lat="48.58558" lon="7.48288">
        <ele>174.57891846</ele>
        <time>2020-09-20T14:08:34Z</time>
      </trkpt>
      <trkpt lat="48.58546" lon="7.4828">
        <ele>174.57891846</ele>
        <time>2020-09-20T14:08:36Z</time>
      </trkpt>
      <trkpt lat="48.58535" lon="7.48271">
        <ele>174.57891846</ele>
        <time>2020-09-20T14:08:38Z</time>
      </trkpt>
      <trkpt lat="48.58523" lon="7.48262">
        <ele>174.57891846</ele>
        <time>2020-09-20T14:08:40Z</time>
      </trkpt>
      <trkpt lat="48.5851" lon="7.48257">
        <ele>174.57891846</ele>
        <time>2020-09-20T14:08:42Z</time>
      </trkpt>
      <trkpt lat="48.58499" lon="7.48251">
        <ele>174.57891846</ele>
        <time>2020-09-20T14:08:44Z</time>
      </trkpt>
      <trkpt lat="48.58487" lon="7.48243">
        <ele>174.57891846</ele>
        <time>2020-09-20T14:08:46Z</time>
      </trkpt>
      <trkpt lat="48.58476" lon="7.48234">
        <ele>174.57891846</ele>
        <time>2020-09-20T14:08:48Z</time>
      </trkpt>
      <trkpt lat="48.58465" lon="7.48228">
        <ele>174.57891846</ele>
        <time>2020-09-20T14:08:50Z</time>
      </trkpt>
      <trkpt lat="48.58456" lon="7.48223">
        <ele>174.09490967</ele>
        <time>2020-09-20T14:08:51Z</time>
      </trkpt>
      <trkpt lat="48.58448" lon="7.48219">
        <ele>174.09490967</ele>
        <time>2020-09-20T14:08:53Z</time>
      </trkpt>
      <trkpt lat="48.58436" lon="7.48212">
        <ele>174.09490967</ele>
        <time>2020-09-20T14:08:55Z</time>
      </trkpt>
      <trkpt lat="48.58422" lon="7.48206">
        <ele>174.09490967</ele>
        <time>2020-09-20T14:08:57Z</time>
      </trkpt>
      <trkpt lat="48.58407" lon="7.48202">
        <ele>174.09490967</ele>
        <time>2020-09-20T14:08:59Z</time>
      </trkpt>
      <trkpt lat="48.58393" lon="7.48199">
        <ele>174.09490967</ele>
        <time>2020-09-20T14:09:01Z</time>
      </trkpt>
      <trkpt lat="48.5838" lon="7.48195">
        <ele>174.09490967</ele>
        <time>2020-09-20T14:09:03Z</time>
      </trkpt>
      <trkpt lat="48.58368" lon="7.48193">
        <ele>174.09490967</ele>
        <time>2020-09-20T14:09:05Z</time>
      </trkpt>
      <trkpt lat="48.58357" lon="7.48192">
        <ele>174.09490967</ele>
        <time>2020-09-20T14:09:07Z</time>
      </trkpt>
      <trkpt lat="48.58344" lon="7.48189">
        <ele>174.09490967</ele>
        <time>2020-09-20T14:09:09Z</time>
      </trkpt>
      <trkpt lat="48.5833" lon="7.48188">
        <ele>174.09490967</ele>
        <time>2020-09-20T14:09:11Z</time>
      </trkpt>
      <trkpt lat="48.58316" lon="7.48188">
        <ele>174.09490967</ele>
        <time>2020-09-20T14:09:13Z</time>
      </trkpt>
      <trkpt lat="48.58301" lon="7.48186">
        <ele>174.09490967</ele>
        <time>2020-09-20T14:09:15Z</time>
      </trkpt>
      <trkpt lat="48.58286" lon="7.48183">
        <ele>174.09490967</ele>
        <time>2020-09-20T14:09:17Z</time>
      </trkpt>
      <trkpt lat="48.58275" lon="7.48186">
        <ele>174.09490967</ele>
        <time>2020-09-20T14:09:19Z</time>
      </trkpt>
      <trkpt lat="48.58265" lon="7.48189">
        <ele>174.09490967</ele>
        <time>2020-09-20T14:09:21Z</time>
      </trkpt>
      <trkpt lat="48.58252" lon="7.48192">
        <ele>174.09490967</ele>
        <time>2020-09-20T14:09:23Z</time>
      </trkpt>
      <trkpt lat="48.58239" lon="7.48195">
        <ele>174.09490967</ele>
        <time>2020-09-20T14:09:25Z</time>
      </trkpt>
      <trkpt lat="48.58228" lon="7.48199">
        <ele>174.09490967</ele>
        <time>2020-09-20T14:09:27Z</time>
      </trkpt>
      <trkpt lat="48.58217" lon="7.48205">
        <ele>174.09490967</ele>
        <time>2020-09-20T14:09:30Z</time>
      </trkpt>
      <trkpt lat="48.58202" lon="7.48212">
        <ele>174.09490967</ele>
        <time>2020-09-20T14:09:32Z</time>
      </trkpt>
      <trkpt lat="48.58189" lon="7.48218">
        <ele>174.09490967</ele>
        <time>2020-09-20T14:09:34Z</time>
      </trkpt>
      <trkpt lat="48.58177" lon="7.48223">
        <ele>174.09490967</ele>
        <time>2020-09-20T14:09:36Z</time>
      </trkpt>
      <trkpt lat="48.58164" lon="7.48229">
        <ele>174.09490967</ele>
        <time>2020-09-20T14:09:38Z</time>
      </trkpt>
      <trkpt lat="48.58153" lon="7.48234">
        <ele>174.09490967</ele>
        <time>2020-09-20T14:09:40Z</time>
      </trkpt>
      <trkpt lat="48.58138" lon="7.48243">
        <ele>174.09490967</ele>
        <time>2020-09-20T14:09:42Z</time>
      </trkpt>
      <trkpt lat="48.58126" lon="7.48252">
        <ele>174.09490967</ele>
        <time>2020-09-20T14:09:44Z</time>
      </trkpt>
      <trkpt lat="48.58116" lon="7.48259">
        <ele>174.09490967</ele>
        <time>2020-09-20T14:09:46Z</time>
      </trkpt>
      <trkpt lat="48.58105" lon="7.48267">
        <ele>174.09490967</ele>
        <time>2020-09-20T14:09:48Z</time>
      </trkpt>
      <trkpt lat="48.58095" lon="7.48274">
        <ele>174.09490967</ele>
        <time>2020-09-20T14:09:50Z</time>
      </trkpt>
      <trkpt lat="48.58089" lon="7.48279">
        <ele>173.84773254</ele>
        <time>2020-09-20T14:09:51Z</time>
      </trkpt>
      <trkpt lat="48.58083" lon="7.48283">
        <ele>173.84773254</ele>
        <time>2020-09-20T14:09:53Z</time>
      </trkpt>
      <trkpt lat="48.58072" lon="7.48287">
        <ele>173.84773254</ele>
        <time>2020-09-20T14:09:56Z</time>
      </trkpt>
      <trkpt lat="48.58062" lon="7.48289">
        <ele>173.84773254</ele>
        <time>2020-09-20T14:09:59Z</time>
      </trkpt>
      <trkpt lat="48.5805" lon="7.48297">
        <ele>173.84773254</ele>
        <time>2020-09-20T14:10:02Z</time>
      </trkpt>
      <trkpt lat="48.58037" lon="7.48309">
        <ele>173.84773254</ele>
        <time>2020-09-20T14:10:04Z</time>
      </trkpt>
      <trkpt lat="48.58026" lon="7.48318">
        <ele>173.84773254</ele>
        <time>2020-09-20T14:10:06Z</time>
      </trkpt>
      <trkpt lat="48.58014" lon="7.48326">
        <ele>173.84773254</ele>
        <time>2020-09-20T14:10:08Z</time>
      </trkpt>
      <trkpt lat="48.58003" lon="7.48336">
        <ele>173.84773254</ele>
        <time>2020-09-20T14:10:10Z</time>
      </trkpt>
      <trkpt lat="48.57991" lon="7.48343">
        <ele>173.84773254</ele>
        <time>2020-09-20T14:10:12Z</time>
      </trkpt>
      <trkpt lat="48.57981" lon="7.48351">
        <ele>173.84773254</ele>
        <time>2020-09-20T14:10:14Z</time>
      </trkpt>
      <trkpt lat="48.57969" lon="7.48358">
        <ele>173.84773254</ele>
        <time>2020-09-20T14:10:16Z</time>
      </trkpt>
      <trkpt lat="48.57956" lon="7.48367">
        <ele>173.84773254</ele>
        <time>2020-09-20T14:10:18Z</time>
      </trkpt>
      <trkpt lat="48.57945" lon="7.48375">
        <ele>173.84773254</ele>
        <time>2020-09-20T14:10:20Z</time>
      </trkpt>
      <trkpt lat="48.57933" lon="7.48384">
        <ele>173.84773254</ele>
        <time>2020-09-20T14:10:22Z</time>
      </trkpt>
      <trkpt lat="48.57922" lon="7.48393">
        <ele>173.84773254</ele>
        <time>2020-09-20T14:10:24Z</time>
      </trkpt>
      <trkpt lat="48.57912" lon="7.48403">
        <ele>173.84773254</ele>
        <time>2020-09-20T14:10:26Z</time>
      </trkpt>
      <trkpt lat="48.579" lon="7.48409">
        <ele>173.84773254</ele>
        <time>2020-09-20T14:10:28Z</time>
      </trkpt>
      <trkpt lat="48.57888" lon="7.48414">
        <ele>173.84773254</ele>
        <time>2020-09-20T14:10:30Z</time>
      </trkpt>
      <trkpt lat="48.57876" lon="7.48421">
        <ele>173.84773254</ele>
        <time>2020-09-20T14:10:32Z</time>
      </trkpt>
      <trkpt lat="48.57864" lon="7.4843">
        <ele>173.84773254</ele>
        <time>2020-09-20T14:10:34Z</time>
      </trkpt>
      <trkpt lat="48.57853" lon="7.4844">
        <ele>173.84773254</ele>
        <time>2020-09-20T14:10:36Z</time>
      </trkpt>
      <trkpt lat="48.57837" lon="7.4845">
        <ele>173.84773254</ele>
        <time>2020-09-20T14:10:38Z</time>
      </trkpt>
      <trkpt lat="48.57822" lon="7.48455">
        <ele>173.84773254</ele>
        <time>2020-09-20T14:10:40Z</time>
      </trkpt>
      <trkpt lat="48.57811" lon="7.48461">
        <ele>173.84773254</ele>
        <time>2020-09-20T14:10:42Z</time>
      </trkpt>
      <trkpt lat="48.57799" lon="7.48468">
        <ele>173.84773254</ele>
        <time>2020-09-20T14:10:44Z</time>
      </trkpt>
      <trkpt lat="48.57789" lon="7.48476">
        <ele>173.84773254</ele>
        <time>2020-09-20T14:10:46Z</time>
      </trkpt>
      <trkpt lat="48.57779" lon="7.48486">
        <ele>173.84773254</ele>
        <time>2020-09-20T14:10:48Z</time>
      </trkpt>
      <trkpt lat="48.57768" lon="7.48495">
        <ele>173.84773254</ele>
        <time>2020-09-20T14:10:50Z</time>
      </trkpt>
      <trkpt lat="48.57761" lon="7.48502">
        <ele>172.85899353</ele>
        <time>2020-09-20T14:10:51Z</time>
      </trkpt>
      <trkpt lat="48.57753" lon="7.48509">
        <ele>172.85899353</ele>
        <time>2020-09-20T14:10:53Z</time>
      </trkpt>
      <trkpt lat="48.57742" lon="7.48519">
        <ele>172.85899353</ele>
        <time>2020-09-20T14:10:55Z</time>
      </trkpt>
      <trkpt lat="48.57732" lon="7.48527">
        <ele>172.85899353</ele>
        <time>2020-09-20T14:10:57Z</time>
      </trkpt>
      <trkpt lat="48.57721" lon="7.48533">
        <ele>172.85899353</ele>
        <time>2020-09-20T14:10:59Z</time>
      </trkpt>
      <trkpt lat="48.57709" lon="7.48541">
        <ele>172.85899353</ele>
        <time>2020-09-20T14:11:01Z</time>
      </trkpt>
      <trkpt lat="48.57697" lon="7.48549">
        <ele>172.85899353</ele>
        <time>2020-09-20T14:11:03Z</time>
      </trkpt>
      <trkpt lat="48.57684" lon="7.48556">
        <ele>172.85899353</ele>
        <time>2020-09-20T14:11:05Z</time>
      </trkpt>
      <trkpt lat="48.57673" lon="7.48563">
        <ele>172.85899353</ele>
        <time>2020-09-20T14:11:07Z</time>
      </trkpt>
      <trkpt lat="48.57662" lon="7.48571">
        <ele>172.85899353</ele>
        <time>2020-09-20T14:11:09Z</time>
      </trkpt>
      <trkpt lat="48.57648" lon="7.4858">
        <ele>172.85899353</ele>
        <time>2020-09-20T14:11:11Z</time>
      </trkpt>
      <trkpt lat="48.57636" lon="7.48587">
        <ele>172.85899353</ele>
        <time>2020-09-20T14:11:13Z</time>
      </trkpt>
      <trkpt lat="48.57625" lon="7.48591">
        <ele>172.85899353</ele>
        <time>2020-09-20T14:11:16Z</time>
      </trkpt>
      <trkpt lat="48.57612" lon="7.48599">
        <ele>172.85899353</ele>
        <time>2020-09-20T14:11:18Z</time>
      </trkpt>
      <trkpt lat="48.57601" lon="7.48608">
        <ele>172.85899353</ele>
        <time>2020-09-20T14:11:20Z</time>
      </trkpt>
      <trkpt lat="48.5759" lon="7.4862">
        <ele>172.85899353</ele>
        <time>2020-09-20T14:11:22Z</time>
      </trkpt>
      <trkpt lat="48.57579" lon="7.48632">
        <ele>172.85899353</ele>
        <time>2020-09-20T14:11:24Z</time>
      </trkpt>
      <trkpt lat="48.57568" lon="7.48643">
        <ele>172.85899353</ele>
        <time>2020-09-20T14:11:26Z</time>
      </trkpt>
      <trkpt lat="48.57558" lon="7.48655">
        <ele>172.85899353</ele>
        <time>2020-09-20T14:11:28Z</time>
      </trkpt>
      <trkpt lat="48.57547" lon="7.4867">
        <ele>172.85899353</ele>
        <time>2020-09-20T14:11:30Z</time>
      </trkpt>
      <trkpt lat="48.57534" lon="7.48684">
        <ele>172.85899353</ele>
        <time>2020-09-20T14:11:32Z</time>
      </trkpt>
      <trkpt lat="48.57521" lon="7.48696">
        <ele>172.85899353</ele>
        <time>2020-09-20T14:11:34Z</time>
      </trkpt>
      <trkpt lat="48.57512" lon="7.48709">
        <ele>172.85899353</ele>
        <time>2020-09-20T14:11:36Z</time>
      </trkpt>
      <trkpt lat="48.57504" lon="7.48723">
        <ele>172.85899353</ele>
        <time>2020-09-20T14:11:38Z</time>
      </trkpt>
      <trkpt lat="48.57497" lon="7.48737">
        <ele>172.85899353</ele>
        <time>2020-09-20T14:11:40Z</time>
      </trkpt>
      <trkpt lat="48.5749" lon="7.48751">
        <ele>172.85899353</ele>
        <time>2020-09-20T14:11:42Z</time>
      </trkpt>
      <trkpt lat="48.57483" lon="7.48764">
        <ele>172.85899353</ele>
        <time>2020-09-20T14:11:44Z</time>
      </trkpt>
      <trkpt lat="48.57475" lon="7.48777">
        <ele>172.85899353</ele>
        <time>2020-09-20T14:11:46Z</time>
      </trkpt>
      <trkpt lat="48.57465" lon="7.4879">
        <ele>172.85899353</ele>
        <time>2020-09-20T14:11:48Z</time>
      </trkpt>
      <trkpt lat="48.57457" lon="7.48804">
        <ele>172.85899353</ele>
        <time>2020-09-20T14:11:50Z</time>
      </trkpt>
      <trkpt lat="48.5745" lon="7.48813">
        <ele>172.41952515</ele>
        <time>2020-09-20T14:11:51Z</time>
      </trkpt>
      <trkpt lat="48.57443" lon="7.48823">
        <ele>172.41952515</ele>
        <time>2020-09-20T14:11:53Z</time>
      </trkpt>
      <trkpt lat="48.57433" lon="7.48834">
        <ele>172.41952515</ele>
        <time>2020-09-20T14:11:55Z</time>
      </trkpt>
      <trkpt lat="48.57423" lon="7.48847">
        <ele>172.41952515</ele>
        <time>2020-09-20T14:11:57Z</time>
      </trkpt>
      <trkpt lat="48.57413" lon="7.4886">
        <ele>172.41952515</ele>
        <time>2020-09-20T14:11:59Z</time>
      </trkpt>
      <trkpt lat="48.57405" lon="7.48874">
        <ele>171.75257874</ele>
        <time>2020-09-20T14:12:01Z</time>
      </trkpt>
      <trkpt lat="48.57396" lon="7.48889">
        <ele>171.75257874</ele>
        <time>2020-09-20T14:12:03Z</time>
      </trkpt>
      <trkpt lat="48.57386" lon="7.48902">
        <ele>171.75257874</ele>
        <time>2020-09-20T14:12:05Z</time>
      </trkpt>
      <trkpt lat="48.57377" lon="7.48912">
        <ele>171.75257874</ele>
        <time>2020-09-20T14:12:07Z</time>
      </trkpt>
      <trkpt lat="48.57366" lon="7.48923">
        <ele>171.75257874</ele>
        <time>2020-09-20T14:12:09Z</time>
      </trkpt>
      <trkpt lat="48.57357" lon="7.48932">
        <ele>171.75257874</ele>
        <time>2020-09-20T14:12:11Z</time>
      </trkpt>
      <trkpt lat="48.57347" lon="7.48941">
        <ele>171.75257874</ele>
        <time>2020-09-20T14:12:13Z</time>
      </trkpt>
      <trkpt lat="48.57338" lon="7.48946">
        <ele>171.75257874</ele>
        <time>2020-09-20T14:12:15Z</time>
      </trkpt>
      <trkpt lat="48.57328" lon="7.48952">
        <ele>171.75257874</ele>
        <time>2020-09-20T14:12:17Z</time>
      </trkpt>
      <trkpt lat="48.5732" lon="7.48958">
        <ele>171.75257874</ele>
        <time>2020-09-20T14:12:20Z</time>
      </trkpt>
      <trkpt lat="48.57314" lon="7.48968">
        <ele>171.75257874</ele>
        <time>2020-09-20T14:12:22Z</time>
      </trkpt>
      <trkpt lat="48.57309" lon="7.48981">
        <ele>171.75257874</ele>
        <time>2020-09-20T14:12:24Z</time>
      </trkpt>
      <trkpt lat="48.57303" lon="7.4899">
        <ele>171.75257874</ele>
        <time>2020-09-20T14:12:26Z</time>
      </trkpt>
      <trkpt lat="48.57294" lon="7.48997">
        <ele>171.75257874</ele>
        <time>2020-09-20T14:12:28Z</time>
      </trkpt>
      <trkpt lat="48.57285" lon="7.49003">
        <ele>171.75257874</ele>
        <time>2020-09-20T14:12:31Z</time>
      </trkpt>
      <trkpt lat="48.57273" lon="7.49008">
        <ele>171.75257874</ele>
        <time>2020-09-20T14:12:33Z</time>
      </trkpt>
      <trkpt lat="48.57259" lon="7.49012">
        <ele>171.75257874</ele>
        <time>2020-09-20T14:12:34Z</time>
      </trkpt>
      <trkpt lat="48.57247" lon="7.49017">
        <ele>171.75257874</ele>
        <time>2020-09-20T14:12:36Z</time>
      </trkpt>
      <trkpt lat="48.57233" lon="7.49022">
        <ele>171.75257874</ele>
        <time>2020-09-20T14:12:38Z</time>
      </trkpt>
      <trkpt lat="48.57221" lon="7.49029">
        <ele>171.75257874</ele>
        <time>2020-09-20T14:12:40Z</time>
      </trkpt>
      <trkpt lat="48.57208" lon="7.49034">
        <ele>171.75257874</ele>
        <time>2020-09-20T14:12:42Z</time>
      </trkpt>
      <trkpt lat="48.57194" lon="7.49038">
        <ele>171.75257874</ele>
        <time>2020-09-20T14:12:43Z</time>
      </trkpt>
      <trkpt lat="48.57184" lon="7.49042">
        <ele>171.75257874</ele>
        <time>2020-09-20T14:12:45Z</time>
      </trkpt>
      <trkpt lat="48.57173" lon="7.49048">
        <ele>171.75257874</ele>
        <time>2020-09-20T14:12:47Z</time>
      </trkpt>
      <trkpt lat="48.5716" lon="7.49055">
        <ele>171.75257874</ele>
        <time>2020-09-20T14:12:49Z</time>
      </trkpt>
      <trkpt lat="48.57146" lon="7.49063">
        <ele>171.51060486</ele>
        <time>2020-09-20T14:12:51Z</time>
      </trkpt>
      <trkpt lat="48.57137" lon="7.49068">
        <ele>171.51060486</ele>
        <time>2020-09-20T14:12:53Z</time>
      </trkpt>
      <trkpt lat="48.57123" lon="7.49075">
        <ele>171.51060486</ele>
        <time>2020-09-20T14:12:55Z</time>
      </trkpt>
      <trkpt lat="48.5711" lon="7.49082">
        <ele>171.51060486</ele>
        <time>2020-09-20T14:12:57Z</time>
      </trkpt>
      <trkpt lat="48.57098" lon="7.49086">
        <ele>171.51060486</ele>
        <time>2020-09-20T14:12:59Z</time>
      </trkpt>
      <trkpt lat="48.57087" lon="7.49092">
        <ele>171.51060486</ele>
        <time>2020-09-20T14:13:01Z</time>
      </trkpt>
      <trkpt lat="48.57075" lon="7.49098">
        <ele>171.51060486</ele>
        <time>2020-09-20T14:13:03Z</time>
      </trkpt>
      <trkpt lat="48.57062" lon="7.49106">
        <ele>171.51060486</ele>
        <time>2020-09-20T14:13:05Z</time>
      </trkpt>
      <trkpt lat="48.57052" lon="7.4911">
        <ele>171.51060486</ele>
        <time>2020-09-20T14:13:07Z</time>
      </trkpt>
      <trkpt lat="48.57041" lon="7.49115">
        <ele>171.51060486</ele>
        <time>2020-09-20T14:13:09Z</time>
      </trkpt>
      <trkpt lat="48.57031" lon="7.49123">
        <ele>171.51060486</ele>
        <time>2020-09-20T14:13:11Z</time>
      </trkpt>
      <trkpt lat="48.57021" lon="7.49129">
        <ele>171.51060486</ele>
        <time>2020-09-20T14:13:13Z</time>
      </trkpt>
      <trkpt lat="48.5701" lon="7.49134">
        <ele>171.51060486</ele>
        <time>2020-09-20T14:13:15Z</time>
      </trkpt>
      <trkpt lat="48.56998" lon="7.4914">
        <ele>171.51060486</ele>
        <time>2020-09-20T14:13:17Z</time>
      </trkpt>
      <trkpt lat="48.56988" lon="7.49147">
        <ele>171.51060486</ele>
        <time>2020-09-20T14:13:19Z</time>
      </trkpt>
      <trkpt lat="48.56978" lon="7.49154">
        <ele>171.51060486</ele>
        <time>2020-09-20T14:13:21Z</time>
      </trkpt>
      <trkpt lat="48.56968" lon="7.49159">
        <ele>171.51060486</ele>
        <time>2020-09-20T14:13:23Z</time>
      </trkpt>
      <trkpt lat="48.5696" lon="7.49163">
        <ele>171.51060486</ele>
        <time>2020-09-20T14:13:25Z</time>
      </trkpt>
      <trkpt lat="48.5695" lon="7.49167">
        <ele>171.51060486</ele>
        <time>2020-09-20T14:13:27Z</time>
      </trkpt>
      <trkpt lat="48.56941" lon="7.49173">
        <ele>171.51060486</ele>
        <time>2020-09-20T14:13:30Z</time>
      </trkpt>
      <trkpt lat="48.56926" lon="7.49181">
        <ele>171.51060486</ele>
        <time>2020-09-20T14:13:32Z</time>
      </trkpt>
      <trkpt lat="48.56914" lon="7.49186">
        <ele>171.51060486</ele>
        <time>2020-09-20T14:13:34Z</time>
      </trkpt>
      <trkpt lat="48.56904" lon="7.49194">
        <ele>171.51060486</ele>
        <time>2020-09-20T14:13:36Z</time>
      </trkpt>
      <trkpt lat="48.56892" lon="7.49203">
        <ele>171.51060486</ele>
        <time>2020-09-20T14:13:38Z</time>
      </trkpt>
      <trkpt lat="48.56878" lon="7.49212">
        <ele>171.51060486</ele>
        <time>2020-09-20T14:13:40Z</time>
      </trkpt>
      <trkpt lat="48.56874" lon="7.49215">
        <ele>171.73484802</ele>
        <time>2020-09-20T14:13:51Z</time>
      </trkpt>
      <trkpt lat="48.56877" lon="7.4922">
        <ele>171.73484802</ele>
        <time>2020-09-20T14:13:57Z</time>
      </trkpt>
      <trkpt lat="48.56886" lon="7.49229">
        <ele>171.73484802</ele>
        <time>2020-09-20T14:14:01Z</time>
      </trkpt>
      <trkpt lat="48.56889" lon="7.4924">
        <ele>171.73484802</ele>
        <time>2020-09-20T14:14:06Z</time>
      </trkpt>
      <trkpt lat="48.56897" lon="7.49248">
        <ele>171.73484802</ele>
        <time>2020-09-20T14:14:12Z</time>
      </trkpt>
      <trkpt lat="48.56908" lon="7.4924">
        <ele>171.17466736</ele>
        <time>2020-09-20T14:14:16Z</time>
      </trkpt>
      <trkpt lat="48.56916" lon="7.49243">
        <ele>171.17466736</ele>
        <time>2020-09-20T14:14:19Z</time>
      </trkpt>
      <trkpt lat="48.56925" lon="7.49258">
        <ele>171.17466736</ele>
        <time>2020-09-20T14:14:21Z</time>
      </trkpt>
      <trkpt lat="48.56931" lon="7.49275">
        <ele>170.17297363</ele>
        <time>2020-09-20T14:14:23Z</time>
      </trkpt>
      <trkpt lat="48.56935" lon="7.49293">
        <ele>170.17297363</ele>
        <time>2020-09-20T14:14:25Z</time>
      </trkpt>
      <trkpt lat="48.56937" lon="7.49309">
        <ele>170.17297363</ele>
        <time>2020-09-20T14:14:27Z</time>
      </trkpt>
      <trkpt lat="48.56934" lon="7.49325">
        <ele>170.17297363</ele>
        <time>2020-09-20T14:14:29Z</time>
      </trkpt>
      <trkpt lat="48.56929" lon="7.49341">
        <ele>170.17297363</ele>
        <time>2020-09-20T14:14:31Z</time>
      </trkpt>
      <trkpt lat="48.56926" lon="7.49356">
        <ele>170.17297363</ele>
        <time>2020-09-20T14:14:33Z</time>
      </trkpt>
      <trkpt lat="48.56923" lon="7.49369">
        <ele>170.17297363</ele>
        <time>2020-09-20T14:14:35Z</time>
      </trkpt>
      <trkpt lat="48.56921" lon="7.49383">
        <ele>170.17297363</ele>
        <time>2020-09-20T14:14:37Z</time>
      </trkpt>
      <trkpt lat="48.56917" lon="7.49396">
        <ele>170.17297363</ele>
        <time>2020-09-20T14:14:39Z</time>
      </trkpt>
      <trkpt lat="48.56913" lon="7.49411">
        <ele>170.17297363</ele>
        <time>2020-09-20T14:14:41Z</time>
      </trkpt>
      <trkpt lat="48.56908" lon="7.49426">
        <ele>170.17297363</ele>
        <time>2020-09-20T14:14:43Z</time>
      </trkpt>
      <trkpt lat="48.56899" lon="7.49439">
        <ele>170.17297363</ele>
        <time>2020-09-20T14:14:45Z</time>
      </trkpt>
      <trkpt lat="48.56888" lon="7.49451">
        <ele>170.17297363</ele>
        <time>2020-09-20T14:14:47Z</time>
      </trkpt>
      <trkpt lat="48.56876" lon="7.49463">
        <ele>170.17297363</ele>
        <time>2020-09-20T14:14:49Z</time>
      </trkpt>
      <trkpt lat="48.56864" lon="7.49469">
        <ele>170.17297363</ele>
        <time>2020-09-20T14:14:50Z</time>
      </trkpt>
      <trkpt lat="48.5686" lon="7.49474">
        <ele>169.18598938</ele>
        <time>2020-09-20T14:14:51Z</time>
      </trkpt>
      <trkpt lat="48.56852" lon="7.49483">
        <ele>169.18598938</ele>
        <time>2020-09-20T14:14:53Z</time>
      </trkpt>
      <trkpt lat="48.56838" lon="7.49495">
        <ele>169.18598938</ele>
        <time>2020-09-20T14:14:55Z</time>
      </trkpt>
      <trkpt lat="48.56825" lon="7.49506">
        <ele>169.18598938</ele>
        <time>2020-09-20T14:14:57Z</time>
      </trkpt>
      <trkpt lat="48.56811" lon="7.49515">
        <ele>169.18598938</ele>
        <time>2020-09-20T14:14:59Z</time>
      </trkpt>
      <trkpt lat="48.56796" lon="7.49526">
        <ele>169.18598938</ele>
        <time>2020-09-20T14:15:01Z</time>
      </trkpt>
      <trkpt lat="48.56783" lon="7.49537">
        <ele>169.18598938</ele>
        <time>2020-09-20T14:15:03Z</time>
      </trkpt>
      <trkpt lat="48.56773" lon="7.49548">
        <ele>169.18598938</ele>
        <time>2020-09-20T14:15:05Z</time>
      </trkpt>
      <trkpt lat="48.56763" lon="7.49561">
        <ele>169.1103363</ele>
        <time>2020-09-20T14:15:07Z</time>
      </trkpt>
      <trkpt lat="48.56752" lon="7.49574">
        <ele>169.1103363</ele>
        <time>2020-09-20T14:15:09Z</time>
      </trkpt>
      <trkpt lat="48.56741" lon="7.49588">
        <ele>169.1103363</ele>
        <time>2020-09-20T14:15:11Z</time>
      </trkpt>
      <trkpt lat="48.56727" lon="7.49599">
        <ele>169.1103363</ele>
        <time>2020-09-20T14:15:13Z</time>
      </trkpt>
      <trkpt lat="48.56715" lon="7.4961">
        <ele>169.1103363</ele>
        <time>2020-09-20T14:15:15Z</time>
      </trkpt>
      <trkpt lat="48.56707" lon="7.49623">
        <ele>169.1103363</ele>
        <time>2020-09-20T14:15:17Z</time>
      </trkpt>
      <trkpt lat="48.56698" lon="7.49635">
        <ele>169.1103363</ele>
        <time>2020-09-20T14:15:19Z</time>
      </trkpt>
      <trkpt lat="48.5669" lon="7.49651">
        <ele>169.1103363</ele>
        <time>2020-09-20T14:15:21Z</time>
      </trkpt>
      <trkpt lat="48.56683" lon="7.49667">
        <ele>169.1103363</ele>
        <time>2020-09-20T14:15:23Z</time>
      </trkpt>
      <trkpt lat="48.56677" lon="7.49684">
        <ele>169.1103363</ele>
        <time>2020-09-20T14:15:25Z</time>
      </trkpt>
      <trkpt lat="48.5667" lon="7.49699">
        <ele>169.1103363</ele>
        <time>2020-09-20T14:15:27Z</time>
      </trkpt>
      <trkpt lat="48.56664" lon="7.49715">
        <ele>169.1103363</ele>
        <time>2020-09-20T14:15:30Z</time>
      </trkpt>
      <trkpt lat="48.56659" lon="7.49735">
        <ele>169.1103363</ele>
        <time>2020-09-20T14:15:32Z</time>
      </trkpt>
      <trkpt lat="48.56656" lon="7.49754">
        <ele>169.1103363</ele>
        <time>2020-09-20T14:15:34Z</time>
      </trkpt>
      <trkpt lat="48.56651" lon="7.49774">
        <ele>169.1103363</ele>
        <time>2020-09-20T14:15:36Z</time>
      </trkpt>
      <trkpt lat="48.56646" lon="7.49794">
        <ele>168.11058044</ele>
        <time>2020-09-20T14:15:38Z</time>
      </trkpt>
      <trkpt lat="48.56639" lon="7.49808">
        <ele>168.11058044</ele>
        <time>2020-09-20T14:15:40Z</time>
      </trkpt>
      <trkpt lat="48.56633" lon="7.49823">
        <ele>168.11058044</ele>
        <time>2020-09-20T14:15:42Z</time>
      </trkpt>
      <trkpt lat="48.56629" lon="7.49839">
        <ele>168.11058044</ele>
        <time>2020-09-20T14:15:44Z</time>
      </trkpt>
      <trkpt lat="48.56624" lon="7.49855">
        <ele>168.11058044</ele>
        <time>2020-09-20T14:15:46Z</time>
      </trkpt>
      <trkpt lat="48.5662" lon="7.49872">
        <ele>168.11058044</ele>
        <time>2020-09-20T14:15:48Z</time>
      </trkpt>
      <trkpt lat="48.56618" lon="7.49887">
        <ele>168.11058044</ele>
        <time>2020-09-20T14:15:50Z</time>
      </trkpt>
      <trkpt lat="48.56617" lon="7.499">
        <ele>167.60661316</ele>
        <time>2020-09-20T14:15:51Z</time>
      </trkpt>
      <trkpt lat="48.56616" lon="7.49914">
        <ele>167.60661316</ele>
        <time>2020-09-20T14:15:53Z</time>
      </trkpt>
      <trkpt lat="48.56612" lon="7.4993">
        <ele>167.60661316</ele>
        <time>2020-09-20T14:15:55Z</time>
      </trkpt>
      <trkpt lat="48.56609" lon="7.49944">
        <ele>167.60661316</ele>
        <time>2020-09-20T14:15:57Z</time>
      </trkpt>
      <trkpt lat="48.56609" lon="7.49959">
        <ele>167.60661316</ele>
        <time>2020-09-20T14:15:59Z</time>
      </trkpt>
      <trkpt lat="48.56611" lon="7.49975">
        <ele>168.30178833</ele>
        <time>2020-09-20T14:16:02Z</time>
      </trkpt>
      <trkpt lat="48.56609" lon="7.49989">
        <ele>168.30178833</ele>
        <time>2020-09-20T14:16:05Z</time>
      </trkpt>
      <trkpt lat="48.56607" lon="7.50005">
        <ele>168.30178833</ele>
        <time>2020-09-20T14:16:08Z</time>
      </trkpt>
      <trkpt lat="48.56607" lon="7.50024">
        <ele>168.39080811</ele>
        <time>2020-09-20T14:16:11Z</time>
      </trkpt>
      <trkpt lat="48.56609" lon="7.5004">
        <ele>168.39080811</ele>
        <time>2020-09-20T14:16:15Z</time>
      </trkpt>
      <trkpt lat="48.5661" lon="7.50058">
        <ele>168.39080811</ele>
        <time>2020-09-20T14:16:18Z</time>
      </trkpt>
      <trkpt lat="48.56612" lon="7.50078">
        <ele>168.39080811</ele>
        <time>2020-09-20T14:16:20Z</time>
      </trkpt>
      <trkpt lat="48.56616" lon="7.50099">
        <ele>168.39080811</ele>
        <time>2020-09-20T14:16:22Z</time>
      </trkpt>
      <trkpt lat="48.56621" lon="7.50119">
        <ele>168.39080811</ele>
        <time>2020-09-20T14:16:24Z</time>
      </trkpt>
      <trkpt lat="48.56624" lon="7.50134">
        <ele>168.39080811</ele>
        <time>2020-09-20T14:16:26Z</time>
      </trkpt>
      <trkpt lat="48.56629" lon="7.50148">
        <ele>168.39080811</ele>
        <time>2020-09-20T14:16:28Z</time>
      </trkpt>
      <trkpt lat="48.56633" lon="7.50162">
        <ele>168.39080811</ele>
        <time>2020-09-20T14:16:30Z</time>
      </trkpt>
      <trkpt lat="48.56638" lon="7.50177">
        <ele>168.39080811</ele>
        <time>2020-09-20T14:16:32Z</time>
      </trkpt>
      <trkpt lat="48.56643" lon="7.50192">
        <ele>168.39080811</ele>
        <time>2020-09-20T14:16:34Z</time>
      </trkpt>
      <trkpt lat="48.56645" lon="7.50208">
        <ele>167.37475586</ele>
        <time>2020-09-20T14:16:36Z</time>
      </trkpt>
      <trkpt lat="48.56649" lon="7.50227">
        <ele>167.37475586</ele>
        <time>2020-09-20T14:16:38Z</time>
      </trkpt>
      <trkpt lat="48.56652" lon="7.50245">
        <ele>167.37475586</ele>
        <time>2020-09-20T14:16:40Z</time>
      </trkpt>
      <trkpt lat="48.56654" lon="7.50264">
        <ele>167.37475586</ele>
        <time>2020-09-20T14:16:42Z</time>
      </trkpt>
      <trkpt lat="48.56656" lon="7.50282">
        <ele>167.37475586</ele>
        <time>2020-09-20T14:16:44Z</time>
      </trkpt>
      <trkpt lat="48.5666" lon="7.503">
        <ele>167.37475586</ele>
        <time>2020-09-20T14:16:46Z</time>
      </trkpt>
      <trkpt lat="48.56665" lon="7.50313">
        <ele>167.37475586</ele>
        <time>2020-09-20T14:16:49Z</time>
      </trkpt>
      <trkpt lat="48.56672" lon="7.50333">
        <ele>167.37475586</ele>
        <time>2020-09-20T14:16:51Z</time>
      </trkpt>
      <trkpt lat="48.56674" lon="7.50338">
        <ele>166.67871094</ele>
        <time>2020-09-20T14:16:52Z</time>
      </trkpt>
      <trkpt lat="48.56678" lon="7.50349">
        <ele>166.67871094</ele>
        <time>2020-09-20T14:16:53Z</time>
      </trkpt>
      <trkpt lat="48.56683" lon="7.50367">
        <ele>166.67871094</ele>
        <time>2020-09-20T14:16:55Z</time>
      </trkpt>
      <trkpt lat="48.56687" lon="7.50386">
        <ele>166.67871094</ele>
        <time>2020-09-20T14:16:57Z</time>
      </trkpt>
      <trkpt lat="48.5669" lon="7.50402">
        <ele>166.67871094</ele>
        <time>2020-09-20T14:16:59Z</time>
      </trkpt>
      <trkpt lat="48.56694" lon="7.50419">
        <ele>166.67871094</ele>
        <time>2020-09-20T14:17:01Z</time>
      </trkpt>
      <trkpt lat="48.56698" lon="7.50438">
        <ele>166.67871094</ele>
        <time>2020-09-20T14:17:03Z</time>
      </trkpt>
      <trkpt lat="48.567" lon="7.50454">
        <ele>166.67871094</ele>
        <time>2020-09-20T14:17:05Z</time>
      </trkpt>
      <trkpt lat="48.56701" lon="7.50472">
        <ele>166.67871094</ele>
        <time>2020-09-20T14:17:07Z</time>
      </trkpt>
      <trkpt lat="48.56703" lon="7.50492">
        <ele>166.67871094</ele>
        <time>2020-09-20T14:17:09Z</time>
      </trkpt>
      <trkpt lat="48.56705" lon="7.50511">
        <ele>166.67871094</ele>
        <time>2020-09-20T14:17:11Z</time>
      </trkpt>
      <trkpt lat="48.56707" lon="7.5053">
        <ele>166.67871094</ele>
        <time>2020-09-20T14:17:13Z</time>
      </trkpt>
      <trkpt lat="48.56709" lon="7.50546">
        <ele>166.67871094</ele>
        <time>2020-09-20T14:17:15Z</time>
      </trkpt>
      <trkpt lat="48.5671" lon="7.50562">
        <ele>166.67871094</ele>
        <time>2020-09-20T14:17:17Z</time>
      </trkpt>
      <trkpt lat="48.56712" lon="7.50577">
        <ele>166.67871094</ele>
        <time>2020-09-20T14:17:19Z</time>
      </trkpt>
      <trkpt lat="48.56716" lon="7.50592">
        <ele>166.67871094</ele>
        <time>2020-09-20T14:17:21Z</time>
      </trkpt>
      <trkpt lat="48.56719" lon="7.50608">
        <ele>166.67871094</ele>
        <time>2020-09-20T14:17:23Z</time>
      </trkpt>
      <trkpt lat="48.56718" lon="7.50626">
        <ele>166.67871094</ele>
        <time>2020-09-20T14:17:25Z</time>
      </trkpt>
      <trkpt lat="48.56718" lon="7.50645">
        <ele>166.67871094</ele>
        <time>2020-09-20T14:17:27Z</time>
      </trkpt>
      <trkpt lat="48.56715" lon="7.50665">
        <ele>166.67871094</ele>
        <time>2020-09-20T14:17:29Z</time>
      </trkpt>
      <trkpt lat="48.56714" lon="7.50681">
        <ele>166.67871094</ele>
        <time>2020-09-20T14:17:31Z</time>
      </trkpt>
      <trkpt lat="48.56715" lon="7.50696">
        <ele>166.67871094</ele>
        <time>2020-09-20T14:17:34Z</time>
      </trkpt>
      <trkpt lat="48.56717" lon="7.50715">
        <ele>166.67871094</ele>
        <time>2020-09-20T14:17:36Z</time>
      </trkpt>
      <trkpt lat="48.56719" lon="7.50734">
        <ele>166.67871094</ele>
        <time>2020-09-20T14:17:38Z</time>
      </trkpt>
      <trkpt lat="48.5672" lon="7.50755">
        <ele>166.67871094</ele>
        <time>2020-09-20T14:17:40Z</time>
      </trkpt>
      <trkpt lat="48.56723" lon="7.50777">
        <ele>166.67871094</ele>
        <time>2020-09-20T14:17:42Z</time>
      </trkpt>
      <trkpt lat="48.56725" lon="7.50797">
        <ele>166.67871094</ele>
        <time>2020-09-20T14:17:44Z</time>
      </trkpt>
      <trkpt lat="48.56727" lon="7.50815">
        <ele>166.67871094</ele>
        <time>2020-09-20T14:17:46Z</time>
      </trkpt>
      <trkpt lat="48.56729" lon="7.50835">
        <ele>166.67871094</ele>
        <time>2020-09-20T14:17:48Z</time>
      </trkpt>
      <trkpt lat="48.5673" lon="7.50854">
        <ele>166.67871094</ele>
        <time>2020-09-20T14:17:50Z</time>
      </trkpt>
      <trkpt lat="48.56731" lon="7.50869">
        <ele>166.75492859</ele>
        <time>2020-09-20T14:17:52Z</time>
      </trkpt>
      <trkpt lat="48.56731" lon="7.50884">
        <ele>166.75492859</ele>
        <time>2020-09-20T14:17:53Z</time>
      </trkpt>
      <trkpt lat="48.56731" lon="7.50905">
        <ele>166.75492859</ele>
        <time>2020-09-20T14:17:55Z</time>
      </trkpt>
      <trkpt lat="48.5673" lon="7.50924">
        <ele>166.75492859</ele>
        <time>2020-09-20T14:17:57Z</time>
      </trkpt>
      <trkpt lat="48.56726" lon="7.50939">
        <ele>166.75492859</ele>
        <time>2020-09-20T14:17:59Z</time>
      </trkpt>
      <trkpt lat="48.5672" lon="7.50949">
        <ele>166.75492859</ele>
        <time>2020-09-20T14:18:01Z</time>
      </trkpt>
      <trkpt lat="48.56707" lon="7.50961">
        <ele>166.75492859</ele>
        <time>2020-09-20T14:18:03Z</time>
      </trkpt>
      <trkpt lat="48.56697" lon="7.50971">
        <ele>166.75492859</ele>
        <time>2020-09-20T14:18:05Z</time>
      </trkpt>
      <trkpt lat="48.56683" lon="7.50981">
        <ele>166.75492859</ele>
        <time>2020-09-20T14:18:07Z</time>
      </trkpt>
      <trkpt lat="48.5667" lon="7.50992">
        <ele>166.75492859</ele>
        <time>2020-09-20T14:18:09Z</time>
      </trkpt>
      <trkpt lat="48.56657" lon="7.51005">
        <ele>166.75492859</ele>
        <time>2020-09-20T14:18:11Z</time>
      </trkpt>
      <trkpt lat="48.56644" lon="7.51019">
        <ele>166.75492859</ele>
        <time>2020-09-20T14:18:13Z</time>
      </trkpt>
      <trkpt lat="48.56634" lon="7.51029">
        <ele>166.75492859</ele>
        <time>2020-09-20T14:18:15Z</time>
      </trkpt>
      <trkpt lat="48.56624" lon="7.5104">
        <ele>166.75492859</ele>
        <time>2020-09-20T14:18:17Z</time>
      </trkpt>
      <trkpt lat="48.56617" lon="7.51051">
        <ele>166.75492859</ele>
        <time>2020-09-20T14:18:19Z</time>
      </trkpt>
      <trkpt lat="48.56609" lon="7.51064">
        <ele>166.75492859</ele>
        <time>2020-09-20T14:18:21Z</time>
      </trkpt>
      <trkpt lat="48.56601" lon="7.5108">
        <ele>166.75492859</ele>
        <time>2020-09-20T14:18:23Z</time>
      </trkpt>
      <trkpt lat="48.56598" lon="7.51095">
        <ele>166.75492859</ele>
        <time>2020-09-20T14:18:25Z</time>
      </trkpt>
      <trkpt lat="48.56599" lon="7.51111">
        <ele>166.75492859</ele>
        <time>2020-09-20T14:18:27Z</time>
      </trkpt>
      <trkpt lat="48.56598" lon="7.51127">
        <ele>166.75492859</ele>
        <time>2020-09-20T14:18:29Z</time>
      </trkpt>
      <trkpt lat="48.56596" lon="7.51143">
        <ele>166.75492859</ele>
        <time>2020-09-20T14:18:32Z</time>
      </trkpt>
      <trkpt lat="48.56598" lon="7.51161">
        <ele>166.75492859</ele>
        <time>2020-09-20T14:18:34Z</time>
      </trkpt>
      <trkpt lat="48.56603" lon="7.51176">
        <ele>166.75492859</ele>
        <time>2020-09-20T14:18:36Z</time>
      </trkpt>
      <trkpt lat="48.56609" lon="7.51193">
        <ele>166.75492859</ele>
        <time>2020-09-20T14:18:38Z</time>
      </trkpt>
      <trkpt lat="48.56611" lon="7.51212">
        <ele>166.75492859</ele>
        <time>2020-09-20T14:18:40Z</time>
      </trkpt>
      <trkpt lat="48.56613" lon="7.51229">
        <ele>166.75492859</ele>
        <time>2020-09-20T14:18:42Z</time>
      </trkpt>
      <trkpt lat="48.56615" lon="7.51245">
        <ele>166.75492859</ele>
        <time>2020-09-20T14:18:44Z</time>
      </trkpt>
      <trkpt lat="48.56617" lon="7.51261">
        <ele>166.75492859</ele>
        <time>2020-09-20T14:18:46Z</time>
      </trkpt>
      <trkpt lat="48.56622" lon="7.51279">
        <ele>166.75492859</ele>
        <time>2020-09-20T14:18:48Z</time>
      </trkpt>
      <trkpt lat="48.56624" lon="7.51303">
        <ele>166.72441101</ele>
        <time>2020-09-20T14:18:51Z</time>
      </trkpt>
      <trkpt lat="48.56629" lon="7.51317">
        <ele>166.72441101</ele>
        <time>2020-09-20T14:18:53Z</time>
      </trkpt>
      <trkpt lat="48.56632" lon="7.51341">
        <ele>166.72441101</ele>
        <time>2020-09-20T14:18:55Z</time>
      </trkpt>
      <trkpt lat="48.56639" lon="7.51363">
        <ele>166.72441101</ele>
        <time>2020-09-20T14:18:57Z</time>
      </trkpt>
      <trkpt lat="48.56649" lon="7.51382">
        <ele>166.72441101</ele>
        <time>2020-09-20T14:18:59Z</time>
      </trkpt>
      <trkpt lat="48.56653" lon="7.51398">
        <ele>166.72441101</ele>
        <time>2020-09-20T14:19:01Z</time>
      </trkpt>
      <trkpt lat="48.56656" lon="7.5141">
        <ele>166.99427795</ele>
        <time>2020-09-20T14:19:05Z</time>
      </trkpt>
      <trkpt lat="48.56656" lon="7.51424">
        <ele>166.99427795</ele>
        <time>2020-09-20T14:19:09Z</time>
      </trkpt>
      <trkpt lat="48.56661" lon="7.51442">
        <ele>166.99427795</ele>
        <time>2020-09-20T14:19:11Z</time>
      </trkpt>
      <trkpt lat="48.56665" lon="7.51458">
        <ele>166.99427795</ele>
        <time>2020-09-20T14:19:14Z</time>
      </trkpt>
      <trkpt lat="48.56669" lon="7.51474">
        <ele>166.99427795</ele>
        <time>2020-09-20T14:19:16Z</time>
      </trkpt>
      <trkpt lat="48.56672" lon="7.51488">
        <ele>166.99427795</ele>
        <time>2020-09-20T14:19:19Z</time>
      </trkpt>
      <trkpt lat="48.56677" lon="7.51505">
        <ele>166.99427795</ele>
        <time>2020-09-20T14:19:22Z</time>
      </trkpt>
      <trkpt lat="48.56681" lon="7.51519">
        <ele>166.99427795</ele>
        <time>2020-09-20T14:19:24Z</time>
      </trkpt>
      <trkpt lat="48.56685" lon="7.51534">
        <ele>166.99427795</ele>
        <time>2020-09-20T14:19:27Z</time>
      </trkpt>
      <trkpt lat="48.56686" lon="7.51551">
        <ele>166.99427795</ele>
        <time>2020-09-20T14:19:30Z</time>
      </trkpt>
      <trkpt lat="48.56688" lon="7.51569">
        <ele>166.99427795</ele>
        <time>2020-09-20T14:19:32Z</time>
      </trkpt>
      <trkpt lat="48.56691" lon="7.51587">
        <ele>166.99427795</ele>
        <time>2020-09-20T14:19:34Z</time>
      </trkpt>
      <trkpt lat="48.56694" lon="7.51606">
        <ele>168.01324463</ele>
        <time>2020-09-20T14:19:36Z</time>
      </trkpt>
      <trkpt lat="48.56698" lon="7.51625">
        <ele>168.01324463</ele>
        <time>2020-09-20T14:19:38Z</time>
      </trkpt>
      <trkpt lat="48.56701" lon="7.51648">
        <ele>168.01324463</ele>
        <time>2020-09-20T14:19:40Z</time>
      </trkpt>
      <trkpt lat="48.56703" lon="7.51672">
        <ele>168.01324463</ele>
        <time>2020-09-20T14:19:42Z</time>
      </trkpt>
      <trkpt lat="48.56707" lon="7.51696">
        <ele>168.01324463</ele>
        <time>2020-09-20T14:19:44Z</time>
      </trkpt>
      <trkpt lat="48.56709" lon="7.51715">
        <ele>168.01324463</ele>
        <time>2020-09-20T14:19:46Z</time>
      </trkpt>
      <trkpt lat="48.5671" lon="7.51734">
        <ele>168.01324463</ele>
        <time>2020-09-20T14:19:48Z</time>
      </trkpt>
      <trkpt lat="48.56715" lon="7.51753">
        <ele>168.01324463</ele>
        <time>2020-09-20T14:19:50Z</time>
      </trkpt>
      <trkpt lat="48.56719" lon="7.51767">
        <ele>166.09985352</ele>
        <time>2020-09-20T14:19:51Z</time>
      </trkpt>
      <trkpt lat="48.56723" lon="7.51779">
        <ele>166.09985352</ele>
        <time>2020-09-20T14:19:53Z</time>
      </trkpt>
      <trkpt lat="48.56725" lon="7.51797">
        <ele>166.09985352</ele>
        <time>2020-09-20T14:19:55Z</time>
      </trkpt>
      <trkpt lat="48.56729" lon="7.51812">
        <ele>166.09985352</ele>
        <time>2020-09-20T14:19:57Z</time>
      </trkpt>
      <trkpt lat="48.56735" lon="7.51828">
        <ele>166.09985352</ele>
        <time>2020-09-20T14:19:59Z</time>
      </trkpt>
      <trkpt lat="48.56737" lon="7.51845">
        <ele>166.09985352</ele>
        <time>2020-09-20T14:20:01Z</time>
      </trkpt>
      <trkpt lat="48.56738" lon="7.51862">
        <ele>166.09985352</ele>
        <time>2020-09-20T14:20:03Z</time>
      </trkpt>
      <trkpt lat="48.56738" lon="7.51879">
        <ele>166.09985352</ele>
        <time>2020-09-20T14:20:06Z</time>
      </trkpt>
      <trkpt lat="48.5674" lon="7.51901">
        <ele>166.09985352</ele>
        <time>2020-09-20T14:20:08Z</time>
      </trkpt>
      <trkpt lat="48.56741" lon="7.51921">
        <ele>166.09985352</ele>
        <time>2020-09-20T14:20:10Z</time>
      </trkpt>
      <trkpt lat="48.56741" lon="7.51941">
        <ele>166.09985352</ele>
        <time>2020-09-20T14:20:12Z</time>
      </trkpt>
      <trkpt lat="48.56742" lon="7.51961">
        <ele>166.09985352</ele>
        <time>2020-09-20T14:20:14Z</time>
      </trkpt>
      <trkpt lat="48.56742" lon="7.51981">
        <ele>166.09985352</ele>
        <time>2020-09-20T14:20:16Z</time>
      </trkpt>
      <trkpt lat="48.56741" lon="7.51998">
        <ele>166.09985352</ele>
        <time>2020-09-20T14:20:18Z</time>
      </trkpt>
      <trkpt lat="48.56743" lon="7.52015">
        <ele>166.09985352</ele>
        <time>2020-09-20T14:20:20Z</time>
      </trkpt>
      <trkpt lat="48.56744" lon="7.52034">
        <ele>166.09985352</ele>
        <time>2020-09-20T14:20:22Z</time>
      </trkpt>
      <trkpt lat="48.56745" lon="7.52053">
        <ele>166.09985352</ele>
        <time>2020-09-20T14:20:24Z</time>
      </trkpt>
      <trkpt lat="48.56744" lon="7.52072">
        <ele>166.09985352</ele>
        <time>2020-09-20T14:20:26Z</time>
      </trkpt>
      <trkpt lat="48.56747" lon="7.52089">
        <ele>166.09985352</ele>
        <time>2020-09-20T14:20:28Z</time>
      </trkpt>
      <trkpt lat="48.56748" lon="7.52109">
        <ele>166.09985352</ele>
        <time>2020-09-20T14:20:30Z</time>
      </trkpt>
      <trkpt lat="48.56749" lon="7.52128">
        <ele>166.09985352</ele>
        <time>2020-09-20T14:20:32Z</time>
      </trkpt>
      <trkpt lat="48.56749" lon="7.52145">
        <ele>166.09985352</ele>
        <time>2020-09-20T14:20:34Z</time>
      </trkpt>
      <trkpt lat="48.5675" lon="7.52163">
        <ele>166.09985352</ele>
        <time>2020-09-20T14:20:36Z</time>
      </trkpt>
      <trkpt lat="48.56751" lon="7.52181">
        <ele>166.09985352</ele>
        <time>2020-09-20T14:20:38Z</time>
      </trkpt>
      <trkpt lat="48.56751" lon="7.52199">
        <ele>166.09985352</ele>
        <time>2020-09-20T14:20:40Z</time>
      </trkpt>
      <trkpt lat="48.56751" lon="7.52219">
        <ele>166.09985352</ele>
        <time>2020-09-20T14:20:42Z</time>
      </trkpt>
      <trkpt lat="48.56753" lon="7.52239">
        <ele>166.09985352</ele>
        <time>2020-09-20T14:20:44Z</time>
      </trkpt>
      <trkpt lat="48.56754" lon="7.52257">
        <ele>166.09985352</ele>
        <time>2020-09-20T14:20:46Z</time>
      </trkpt>
      <trkpt lat="48.56754" lon="7.52274">
        <ele>166.09985352</ele>
        <time>2020-09-20T14:20:48Z</time>
      </trkpt>
      <trkpt lat="48.56751" lon="7.52293">
        <ele>166.09985352</ele>
        <time>2020-09-20T14:20:50Z</time>
      </trkpt>
      <trkpt lat="48.56749" lon="7.52306">
        <ele>165.19648743</ele>
        <time>2020-09-20T14:20:51Z</time>
      </trkpt>
      <trkpt lat="48.56751" lon="7.5232">
        <ele>165.19648743</ele>
        <time>2020-09-20T14:20:53Z</time>
      </trkpt>
      <trkpt lat="48.56753" lon="7.52339">
        <ele>165.19648743</ele>
        <time>2020-09-20T14:20:55Z</time>
      </trkpt>
      <trkpt lat="48.56755" lon="7.5236">
        <ele>165.19648743</ele>
        <time>2020-09-20T14:20:57Z</time>
      </trkpt>
      <trkpt lat="48.56757" lon="7.5238">
        <ele>165.19648743</ele>
        <time>2020-09-20T14:20:59Z</time>
      </trkpt>
      <trkpt lat="48.56759" lon="7.524">
        <ele>165.19648743</ele>
        <time>2020-09-20T14:21:01Z</time>
      </trkpt>
      <trkpt lat="48.56761" lon="7.52418">
        <ele>165.19648743</ele>
        <time>2020-09-20T14:21:03Z</time>
      </trkpt>
      <trkpt lat="48.5676" lon="7.52436">
        <ele>165.19648743</ele>
        <time>2020-09-20T14:21:05Z</time>
      </trkpt>
      <trkpt lat="48.56761" lon="7.52454">
        <ele>165.19648743</ele>
        <time>2020-09-20T14:21:07Z</time>
      </trkpt>
      <trkpt lat="48.56763" lon="7.52474">
        <ele>165.19648743</ele>
        <time>2020-09-20T14:21:09Z</time>
      </trkpt>
      <trkpt lat="48.56762" lon="7.52493">
        <ele>165.19648743</ele>
        <time>2020-09-20T14:21:11Z</time>
      </trkpt>
      <trkpt lat="48.56759" lon="7.52511">
        <ele>165.19648743</ele>
        <time>2020-09-20T14:21:13Z</time>
      </trkpt>
      <trkpt lat="48.56756" lon="7.52528">
        <ele>165.19648743</ele>
        <time>2020-09-20T14:21:15Z</time>
      </trkpt>
      <trkpt lat="48.56752" lon="7.52547">
        <ele>165.19648743</ele>
        <time>2020-09-20T14:21:17Z</time>
      </trkpt>
      <trkpt lat="48.56751" lon="7.52565">
        <ele>165.19648743</ele>
        <time>2020-09-20T14:21:19Z</time>
      </trkpt>
      <trkpt lat="48.56748" lon="7.52585">
        <ele>165.19648743</ele>
        <time>2020-09-20T14:21:21Z</time>
      </trkpt>
      <trkpt lat="48.56744" lon="7.52607">
        <ele>165.19648743</ele>
        <time>2020-09-20T14:21:23Z</time>
      </trkpt>
      <trkpt lat="48.56741" lon="7.52624">
        <ele>165.19648743</ele>
        <time>2020-09-20T14:21:25Z</time>
      </trkpt>
      <trkpt lat="48.56738" lon="7.52641">
        <ele>165.19648743</ele>
        <time>2020-09-20T14:21:27Z</time>
      </trkpt>
      <trkpt lat="48.56737" lon="7.52659">
        <ele>165.19648743</ele>
        <time>2020-09-20T14:21:29Z</time>
      </trkpt>
      <trkpt lat="48.56734" lon="7.52677">
        <ele>165.19648743</ele>
        <time>2020-09-20T14:21:31Z</time>
      </trkpt>
      <trkpt lat="48.56731" lon="7.52696">
        <ele>165.19648743</ele>
        <time>2020-09-20T14:21:33Z</time>
      </trkpt>
      <trkpt lat="48.56726" lon="7.52715">
        <ele>165.19648743</ele>
        <time>2020-09-20T14:21:35Z</time>
      </trkpt>
      <trkpt lat="48.56723" lon="7.52734">
        <ele>165.19648743</ele>
        <time>2020-09-20T14:21:37Z</time>
      </trkpt>
      <trkpt lat="48.5672" lon="7.52751">
        <ele>165.19648743</ele>
        <time>2020-09-20T14:21:39Z</time>
      </trkpt>
      <trkpt lat="48.56717" lon="7.52767">
        <ele>165.19648743</ele>
        <time>2020-09-20T14:21:41Z</time>
      </trkpt>
      <trkpt lat="48.56713" lon="7.52784">
        <ele>165.19648743</ele>
        <time>2020-09-20T14:21:43Z</time>
      </trkpt>
      <trkpt lat="48.56711" lon="7.528">
        <ele>165.19648743</ele>
        <time>2020-09-20T14:21:45Z</time>
      </trkpt>
      <trkpt lat="48.56709" lon="7.52818">
        <ele>165.19648743</ele>
        <time>2020-09-20T14:21:48Z</time>
      </trkpt>
      <trkpt lat="48.56706" lon="7.52842">
        <ele>164.84570312</ele>
        <time>2020-09-20T14:21:51Z</time>
      </trkpt>
      <trkpt lat="48.56704" lon="7.52852">
        <ele>164.84570312</ele>
        <time>2020-09-20T14:21:55Z</time>
      </trkpt>
      <trkpt lat="48.56699" lon="7.52864">
        <ele>165.76876831</ele>
        <time>2020-09-20T14:22:07Z</time>
      </trkpt>
      <trkpt lat="48.56697" lon="7.5288">
        <ele>165.76876831</ele>
        <time>2020-09-20T14:22:11Z</time>
      </trkpt>
      <trkpt lat="48.56697" lon="7.529">
        <ele>165.76876831</ele>
        <time>2020-09-20T14:22:14Z</time>
      </trkpt>
      <trkpt lat="48.56695" lon="7.52918">
        <ele>165.76876831</ele>
        <time>2020-09-20T14:22:16Z</time>
      </trkpt>
      <trkpt lat="48.56694" lon="7.52934">
        <ele>165.76876831</ele>
        <time>2020-09-20T14:22:19Z</time>
      </trkpt>
      <trkpt lat="48.56696" lon="7.52951">
        <ele>165.76876831</ele>
        <time>2020-09-20T14:22:21Z</time>
      </trkpt>
      <trkpt lat="48.56693" lon="7.5296">
        <ele>165.76876831</ele>
        <time>2020-09-20T14:22:25Z</time>
      </trkpt>
      <trkpt lat="48.5669" lon="7.52975">
        <ele>165.76876831</ele>
        <time>2020-09-20T14:22:29Z</time>
      </trkpt>
      <trkpt lat="48.56691" lon="7.52992">
        <ele>165.89781189</ele>
        <time>2020-09-20T14:22:32Z</time>
      </trkpt>
      <trkpt lat="48.56688" lon="7.53008">
        <ele>165.89781189</ele>
        <time>2020-09-20T14:22:35Z</time>
      </trkpt>
      <trkpt lat="48.56684" lon="7.53025">
        <ele>165.89781189</ele>
        <time>2020-09-20T14:22:37Z</time>
      </trkpt>
      <trkpt lat="48.56681" lon="7.5304">
        <ele>165.89781189</ele>
        <time>2020-09-20T14:22:39Z</time>
      </trkpt>
      <trkpt lat="48.56679" lon="7.53058">
        <ele>165.89781189</ele>
        <time>2020-09-20T14:22:41Z</time>
      </trkpt>
      <trkpt lat="48.56677" lon="7.53077">
        <ele>165.89781189</ele>
        <time>2020-09-20T14:22:43Z</time>
      </trkpt>
      <trkpt lat="48.56675" lon="7.53095">
        <ele>165.89781189</ele>
        <time>2020-09-20T14:22:46Z</time>
      </trkpt>
      <trkpt lat="48.56673" lon="7.53116">
        <ele>165.89781189</ele>
        <time>2020-09-20T14:22:48Z</time>
      </trkpt>
      <trkpt lat="48.56671" lon="7.53133">
        <ele>165.89781189</ele>
        <time>2020-09-20T14:22:50Z</time>
      </trkpt>
      <trkpt lat="48.56669" lon="7.53145">
        <ele>164.95986938</ele>
        <time>2020-09-20T14:22:51Z</time>
      </trkpt>
      <trkpt lat="48.56668" lon="7.53157">
        <ele>164.95986938</ele>
        <time>2020-09-20T14:22:53Z</time>
      </trkpt>
      <trkpt lat="48.56667" lon="7.53172">
        <ele>164.95986938</ele>
        <time>2020-09-20T14:22:55Z</time>
      </trkpt>
      <trkpt lat="48.56665" lon="7.53188">
        <ele>164.95986938</ele>
        <time>2020-09-20T14:22:57Z</time>
      </trkpt>
      <trkpt lat="48.56663" lon="7.53204">
        <ele>164.95986938</ele>
        <time>2020-09-20T14:22:59Z</time>
      </trkpt>
      <trkpt lat="48.56662" lon="7.53221">
        <ele>164.95986938</ele>
        <time>2020-09-20T14:23:01Z</time>
      </trkpt>
      <trkpt lat="48.56661" lon="7.53238">
        <ele>164.95986938</ele>
        <time>2020-09-20T14:23:03Z</time>
      </trkpt>
      <trkpt lat="48.56658" lon="7.53254">
        <ele>164.95986938</ele>
        <time>2020-09-20T14:23:05Z</time>
      </trkpt>
      <trkpt lat="48.56654" lon="7.5327">
        <ele>164.95986938</ele>
        <time>2020-09-20T14:23:07Z</time>
      </trkpt>
      <trkpt lat="48.56651" lon="7.53287">
        <ele>164.95986938</ele>
        <time>2020-09-20T14:23:09Z</time>
      </trkpt>
      <trkpt lat="48.56651" lon="7.53305">
        <ele>164.95986938</ele>
        <time>2020-09-20T14:23:11Z</time>
      </trkpt>
      <trkpt lat="48.56651" lon="7.53323">
        <ele>164.95986938</ele>
        <time>2020-09-20T14:23:13Z</time>
      </trkpt>
      <trkpt lat="48.56653" lon="7.53342">
        <ele>164.95986938</ele>
        <time>2020-09-20T14:23:15Z</time>
      </trkpt>
      <trkpt lat="48.56656" lon="7.53361">
        <ele>164.95986938</ele>
        <time>2020-09-20T14:23:17Z</time>
      </trkpt>
      <trkpt lat="48.56659" lon="7.5338">
        <ele>164.95986938</ele>
        <time>2020-09-20T14:23:19Z</time>
      </trkpt>
      <trkpt lat="48.56659" lon="7.53396">
        <ele>164.95986938</ele>
        <time>2020-09-20T14:23:21Z</time>
      </trkpt>
      <trkpt lat="48.56659" lon="7.53415">
        <ele>164.95986938</ele>
        <time>2020-09-20T14:23:23Z</time>
      </trkpt>
      <trkpt lat="48.56659" lon="7.53437">
        <ele>164.87460327</ele>
        <time>2020-09-20T14:23:25Z</time>
      </trkpt>
      <trkpt lat="48.56661" lon="7.5346">
        <ele>164.87460327</ele>
        <time>2020-09-20T14:23:27Z</time>
      </trkpt>
      <trkpt lat="48.56665" lon="7.53483">
        <ele>164.87460327</ele>
        <time>2020-09-20T14:23:29Z</time>
      </trkpt>
      <trkpt lat="48.56668" lon="7.53505">
        <ele>164.87460327</ele>
        <time>2020-09-20T14:23:31Z</time>
      </trkpt>
      <trkpt lat="48.56671" lon="7.53524">
        <ele>162.91226196</ele>
        <time>2020-09-20T14:23:33Z</time>
      </trkpt>
      <trkpt lat="48.56674" lon="7.53544">
        <ele>162.91226196</ele>
        <time>2020-09-20T14:23:35Z</time>
      </trkpt>
      <trkpt lat="48.56677" lon="7.5356">
        <ele>162.91226196</ele>
        <time>2020-09-20T14:23:37Z</time>
      </trkpt>
      <trkpt lat="48.5668" lon="7.53576">
        <ele>162.91226196</ele>
        <time>2020-09-20T14:23:39Z</time>
      </trkpt>
      <trkpt lat="48.56682" lon="7.53593">
        <ele>162.91226196</ele>
        <time>2020-09-20T14:23:41Z</time>
      </trkpt>
      <trkpt lat="48.56683" lon="7.53606">
        <ele>162.91226196</ele>
        <time>2020-09-20T14:23:43Z</time>
      </trkpt>
      <trkpt lat="48.56684" lon="7.53621">
        <ele>162.91226196</ele>
        <time>2020-09-20T14:23:45Z</time>
      </trkpt>
      <trkpt lat="48.56685" lon="7.53636">
        <ele>162.91226196</ele>
        <time>2020-09-20T14:23:47Z</time>
      </trkpt>
      <trkpt lat="48.56687" lon="7.53653">
        <ele>162.91226196</ele>
        <time>2020-09-20T14:23:49Z</time>
      </trkpt>
      <trkpt lat="48.56691" lon="7.53673">
        <ele>162.95626831</ele>
        <time>2020-09-20T14:23:51Z</time>
      </trkpt>
      <trkpt lat="48.56693" lon="7.53685">
        <ele>162.95626831</ele>
        <time>2020-09-20T14:23:53Z</time>
      </trkpt>
      <trkpt lat="48.56696" lon="7.53701">
        <ele>162.95626831</ele>
        <time>2020-09-20T14:23:55Z</time>
      </trkpt>
      <trkpt lat="48.56701" lon="7.53716">
        <ele>162.95626831</ele>
        <time>2020-09-20T14:23:57Z</time>
      </trkpt>
      <trkpt lat="48.56705" lon="7.5373">
        <ele>162.95626831</ele>
        <time>2020-09-20T14:23:59Z</time>
      </trkpt>
      <trkpt lat="48.5671" lon="7.53746">
        <ele>162.95626831</ele>
        <time>2020-09-20T14:24:01Z</time>
      </trkpt>
      <trkpt lat="48.56714" lon="7.53764">
        <ele>162.95626831</ele>
        <time>2020-09-20T14:24:03Z</time>
      </trkpt>
      <trkpt lat="48.56722" lon="7.53782">
        <ele>162.95626831</ele>
        <time>2020-09-20T14:24:05Z</time>
      </trkpt>
      <trkpt lat="48.56728" lon="7.53801">
        <ele>162.95626831</ele>
        <time>2020-09-20T14:24:07Z</time>
      </trkpt>
      <trkpt lat="48.56731" lon="7.53819">
        <ele>162.95626831</ele>
        <time>2020-09-20T14:24:09Z</time>
      </trkpt>
      <trkpt lat="48.56735" lon="7.53838">
        <ele>162.95626831</ele>
        <time>2020-09-20T14:24:11Z</time>
      </trkpt>
      <trkpt lat="48.56737" lon="7.53857">
        <ele>162.95626831</ele>
        <time>2020-09-20T14:24:13Z</time>
      </trkpt>
      <trkpt lat="48.56738" lon="7.53879">
        <ele>162.95626831</ele>
        <time>2020-09-20T14:24:15Z</time>
      </trkpt>
      <trkpt lat="48.56741" lon="7.539">
        <ele>162.95626831</ele>
        <time>2020-09-20T14:24:17Z</time>
      </trkpt>
      <trkpt lat="48.56739" lon="7.53919">
        <ele>162.95626831</ele>
        <time>2020-09-20T14:24:19Z</time>
      </trkpt>
      <trkpt lat="48.56738" lon="7.53936">
        <ele>162.95626831</ele>
        <time>2020-09-20T14:24:21Z</time>
      </trkpt>
      <trkpt lat="48.56738" lon="7.53954">
        <ele>162.95626831</ele>
        <time>2020-09-20T14:24:23Z</time>
      </trkpt>
      <trkpt lat="48.56738" lon="7.53973">
        <ele>162.95626831</ele>
        <time>2020-09-20T14:24:25Z</time>
      </trkpt>
      <trkpt lat="48.56741" lon="7.53991">
        <ele>162.95626831</ele>
        <time>2020-09-20T14:24:27Z</time>
      </trkpt>
      <trkpt lat="48.56741" lon="7.54007">
        <ele>162.95626831</ele>
        <time>2020-09-20T14:24:29Z</time>
      </trkpt>
      <trkpt lat="48.56741" lon="7.54023">
        <ele>162.95626831</ele>
        <time>2020-09-20T14:24:31Z</time>
      </trkpt>
      <trkpt lat="48.56744" lon="7.54037">
        <ele>162.95626831</ele>
        <time>2020-09-20T14:24:33Z</time>
      </trkpt>
      <trkpt lat="48.56745" lon="7.54051">
        <ele>162.95626831</ele>
        <time>2020-09-20T14:24:35Z</time>
      </trkpt>
      <trkpt lat="48.56746" lon="7.54068">
        <ele>162.95626831</ele>
        <time>2020-09-20T14:24:37Z</time>
      </trkpt>
      <trkpt lat="48.56745" lon="7.54088">
        <ele>162.95626831</ele>
        <time>2020-09-20T14:24:39Z</time>
      </trkpt>
      <trkpt lat="48.56746" lon="7.54107">
        <ele>162.95626831</ele>
        <time>2020-09-20T14:24:41Z</time>
      </trkpt>
      <trkpt lat="48.56746" lon="7.54123">
        <ele>162.95626831</ele>
        <time>2020-09-20T14:24:43Z</time>
      </trkpt>
      <trkpt lat="48.56746" lon="7.54142">
        <ele>162.95626831</ele>
        <time>2020-09-20T14:24:45Z</time>
      </trkpt>
      <trkpt lat="48.56746" lon="7.5416">
        <ele>162.95626831</ele>
        <time>2020-09-20T14:24:47Z</time>
      </trkpt>
      <trkpt lat="48.56746" lon="7.5418">
        <ele>162.95626831</ele>
        <time>2020-09-20T14:24:49Z</time>
      </trkpt>
      <trkpt lat="48.56747" lon="7.54201">
        <ele>163.15426636</ele>
        <time>2020-09-20T14:24:51Z</time>
      </trkpt>
      <trkpt lat="48.56748" lon="7.54212">
        <ele>163.15426636</ele>
        <time>2020-09-20T14:24:53Z</time>
      </trkpt>
      <trkpt lat="48.56752" lon="7.54229">
        <ele>163.15426636</ele>
        <time>2020-09-20T14:24:55Z</time>
      </trkpt>
      <trkpt lat="48.56755" lon="7.54244">
        <ele>163.15426636</ele>
        <time>2020-09-20T14:24:57Z</time>
      </trkpt>
      <trkpt lat="48.56758" lon="7.54262">
        <ele>163.15426636</ele>
        <time>2020-09-20T14:24:59Z</time>
      </trkpt>
      <trkpt lat="48.56762" lon="7.54282">
        <ele>163.15426636</ele>
        <time>2020-09-20T14:25:01Z</time>
      </trkpt>
      <trkpt lat="48.56763" lon="7.54303">
        <ele>163.15426636</ele>
        <time>2020-09-20T14:25:03Z</time>
      </trkpt>
      <trkpt lat="48.56762" lon="7.5432">
        <ele>163.15426636</ele>
        <time>2020-09-20T14:25:05Z</time>
      </trkpt>
      <trkpt lat="48.56764" lon="7.54338">
        <ele>163.15426636</ele>
        <time>2020-09-20T14:25:07Z</time>
      </trkpt>
      <trkpt lat="48.56766" lon="7.54358">
        <ele>163.15426636</ele>
        <time>2020-09-20T14:25:09Z</time>
      </trkpt>
      <trkpt lat="48.56768" lon="7.54378">
        <ele>163.15426636</ele>
        <time>2020-09-20T14:25:11Z</time>
      </trkpt>
      <trkpt lat="48.56768" lon="7.54398">
        <ele>163.15426636</ele>
        <time>2020-09-20T14:25:13Z</time>
      </trkpt>
      <trkpt lat="48.56769" lon="7.5442">
        <ele>163.15426636</ele>
        <time>2020-09-20T14:25:15Z</time>
      </trkpt>
      <trkpt lat="48.56766" lon="7.54441">
        <ele>163.15426636</ele>
        <time>2020-09-20T14:25:17Z</time>
      </trkpt>
      <trkpt lat="48.56764" lon="7.54461">
        <ele>163.15426636</ele>
        <time>2020-09-20T14:25:19Z</time>
      </trkpt>
      <trkpt lat="48.56764" lon="7.54481">
        <ele>163.15426636</ele>
        <time>2020-09-20T14:25:21Z</time>
      </trkpt>
      <trkpt lat="48.56764" lon="7.545">
        <ele>163.15426636</ele>
        <time>2020-09-20T14:25:23Z</time>
      </trkpt>
      <trkpt lat="48.56765" lon="7.54516">
        <ele>163.15426636</ele>
        <time>2020-09-20T14:25:25Z</time>
      </trkpt>
      <trkpt lat="48.56767" lon="7.54533">
        <ele>163.15426636</ele>
        <time>2020-09-20T14:25:27Z</time>
      </trkpt>
      <trkpt lat="48.56767" lon="7.54551">
        <ele>163.15426636</ele>
        <time>2020-09-20T14:25:29Z</time>
      </trkpt>
      <trkpt lat="48.56766" lon="7.54566">
        <ele>163.15426636</ele>
        <time>2020-09-20T14:25:31Z</time>
      </trkpt>
      <trkpt lat="48.56764" lon="7.54584">
        <ele>163.15426636</ele>
        <time>2020-09-20T14:25:33Z</time>
      </trkpt>
      <trkpt lat="48.56763" lon="7.54603">
        <ele>163.15426636</ele>
        <time>2020-09-20T14:25:35Z</time>
      </trkpt>
      <trkpt lat="48.56764" lon="7.54619">
        <ele>163.15426636</ele>
        <time>2020-09-20T14:25:37Z</time>
      </trkpt>
      <trkpt lat="48.56767" lon="7.54634">
        <ele>163.15426636</ele>
        <time>2020-09-20T14:25:39Z</time>
      </trkpt>
      <trkpt lat="48.56769" lon="7.5465">
        <ele>163.15426636</ele>
        <time>2020-09-20T14:25:41Z</time>
      </trkpt>
      <trkpt lat="48.56767" lon="7.5467">
        <ele>163.15426636</ele>
        <time>2020-09-20T14:25:43Z</time>
      </trkpt>
      <trkpt lat="48.56766" lon="7.54689">
        <ele>163.15426636</ele>
        <time>2020-09-20T14:25:45Z</time>
      </trkpt>
      <trkpt lat="48.56763" lon="7.54708">
        <ele>163.15426636</ele>
        <time>2020-09-20T14:25:47Z</time>
      </trkpt>
      <trkpt lat="48.5676" lon="7.54729">
        <ele>163.15426636</ele>
        <time>2020-09-20T14:25:49Z</time>
      </trkpt>
      <trkpt lat="48.5676" lon="7.54753">
        <ele>163.09707642</ele>
        <time>2020-09-20T14:25:51Z</time>
      </trkpt>
      <trkpt lat="48.56757" lon="7.54765">
        <ele>163.09707642</ele>
        <time>2020-09-20T14:25:53Z</time>
      </trkpt>
      <trkpt lat="48.56754" lon="7.54783">
        <ele>163.09707642</ele>
        <time>2020-09-20T14:25:55Z</time>
      </trkpt>
      <trkpt lat="48.56748" lon="7.54799">
        <ele>163.09707642</ele>
        <time>2020-09-20T14:25:57Z</time>
      </trkpt>
      <trkpt lat="48.56741" lon="7.54813">
        <ele>163.09707642</ele>
        <time>2020-09-20T14:25:59Z</time>
      </trkpt>
      <trkpt lat="48.56732" lon="7.54826">
        <ele>163.09707642</ele>
        <time>2020-09-20T14:26:01Z</time>
      </trkpt>
      <trkpt lat="48.56725" lon="7.54838">
        <ele>163.09707642</ele>
        <time>2020-09-20T14:26:03Z</time>
      </trkpt>
      <trkpt lat="48.56719" lon="7.54853">
        <ele>163.09707642</ele>
        <time>2020-09-20T14:26:05Z</time>
      </trkpt>
      <trkpt lat="48.56712" lon="7.54868">
        <ele>163.09707642</ele>
        <time>2020-09-20T14:26:07Z</time>
      </trkpt>
      <trkpt lat="48.56704" lon="7.54883">
        <ele>163.25830078</ele>
        <time>2020-09-20T14:26:09Z</time>
      </trkpt>
      <trkpt lat="48.56695" lon="7.54898">
        <ele>163.25830078</ele>
        <time>2020-09-20T14:26:11Z</time>
      </trkpt>
      <trkpt lat="48.56687" lon="7.5491">
        <ele>163.25830078</ele>
        <time>2020-09-20T14:26:13Z</time>
      </trkpt>
      <trkpt lat="48.56679" lon="7.54921">
        <ele>163.25830078</ele>
        <time>2020-09-20T14:26:15Z</time>
      </trkpt>
      <trkpt lat="48.5667" lon="7.54932">
        <ele>163.25830078</ele>
        <time>2020-09-20T14:26:17Z</time>
      </trkpt>
      <trkpt lat="48.56663" lon="7.54943">
        <ele>163.25830078</ele>
        <time>2020-09-20T14:26:19Z</time>
      </trkpt>
      <trkpt lat="48.56655" lon="7.54954">
        <ele>163.25830078</ele>
        <time>2020-09-20T14:26:21Z</time>
      </trkpt>
      <trkpt lat="48.56648" lon="7.54964">
        <ele>163.25830078</ele>
        <time>2020-09-20T14:26:23Z</time>
      </trkpt>
      <trkpt lat="48.5664" lon="7.54975">
        <ele>163.25830078</ele>
        <time>2020-09-20T14:26:26Z</time>
      </trkpt>
      <trkpt lat="48.5663" lon="7.54989">
        <ele>163.25830078</ele>
        <time>2020-09-20T14:26:29Z</time>
      </trkpt>
      <trkpt lat="48.56619" lon="7.54998">
        <ele>163.25830078</ele>
        <time>2020-09-20T14:26:31Z</time>
      </trkpt>
      <trkpt lat="48.56609" lon="7.55006">
        <ele>163.25830078</ele>
        <time>2020-09-20T14:26:33Z</time>
      </trkpt>
      <trkpt lat="48.56598" lon="7.55017">
        <ele>163.25830078</ele>
        <time>2020-09-20T14:26:35Z</time>
      </trkpt>
      <trkpt lat="48.56587" lon="7.55027">
        <ele>163.25830078</ele>
        <time>2020-09-20T14:26:37Z</time>
      </trkpt>
      <trkpt lat="48.56576" lon="7.5504">
        <ele>163.25830078</ele>
        <time>2020-09-20T14:26:39Z</time>
      </trkpt>
      <trkpt lat="48.56567" lon="7.55053">
        <ele>163.25830078</ele>
        <time>2020-09-20T14:26:41Z</time>
      </trkpt>
      <trkpt lat="48.56557" lon="7.5507">
        <ele>163.25830078</ele>
        <time>2020-09-20T14:26:43Z</time>
      </trkpt>
      <trkpt lat="48.56548" lon="7.5509">
        <ele>163.25830078</ele>
        <time>2020-09-20T14:26:45Z</time>
      </trkpt>
      <trkpt lat="48.56543" lon="7.55106">
        <ele>163.25830078</ele>
        <time>2020-09-20T14:26:47Z</time>
      </trkpt>
      <trkpt lat="48.5654" lon="7.55123">
        <ele>163.25830078</ele>
        <time>2020-09-20T14:26:49Z</time>
      </trkpt>
      <trkpt lat="48.56535" lon="7.55145">
        <ele>162.58139038</ele>
        <time>2020-09-20T14:26:51Z</time>
      </trkpt>
      <trkpt lat="48.56532" lon="7.55158">
        <ele>162.58139038</ele>
        <time>2020-09-20T14:26:53Z</time>
      </trkpt>
      <trkpt lat="48.56529" lon="7.55175">
        <ele>162.58139038</ele>
        <time>2020-09-20T14:26:55Z</time>
      </trkpt>
      <trkpt lat="48.56524" lon="7.55194">
        <ele>162.58139038</ele>
        <time>2020-09-20T14:26:57Z</time>
      </trkpt>
      <trkpt lat="48.56521" lon="7.55211">
        <ele>162.58139038</ele>
        <time>2020-09-20T14:26:59Z</time>
      </trkpt>
      <trkpt lat="48.56517" lon="7.55228">
        <ele>162.58139038</ele>
        <time>2020-09-20T14:27:01Z</time>
      </trkpt>
      <trkpt lat="48.56516" lon="7.55243">
        <ele>162.58139038</ele>
        <time>2020-09-20T14:27:03Z</time>
      </trkpt>
      <trkpt lat="48.56515" lon="7.55261">
        <ele>162.58139038</ele>
        <time>2020-09-20T14:27:05Z</time>
      </trkpt>
      <trkpt lat="48.56516" lon="7.55277">
        <ele>162.58139038</ele>
        <time>2020-09-20T14:27:07Z</time>
      </trkpt>
      <trkpt lat="48.56516" lon="7.55298">
        <ele>162.58139038</ele>
        <time>2020-09-20T14:27:09Z</time>
      </trkpt>
      <trkpt lat="48.56515" lon="7.55316">
        <ele>162.58139038</ele>
        <time>2020-09-20T14:27:11Z</time>
      </trkpt>
      <trkpt lat="48.56511" lon="7.5533">
        <ele>162.58139038</ele>
        <time>2020-09-20T14:27:13Z</time>
      </trkpt>
      <trkpt lat="48.56507" lon="7.55344">
        <ele>162.58139038</ele>
        <time>2020-09-20T14:27:15Z</time>
      </trkpt>
      <trkpt lat="48.565" lon="7.5536">
        <ele>162.58139038</ele>
        <time>2020-09-20T14:27:17Z</time>
      </trkpt>
      <trkpt lat="48.56495" lon="7.55377">
        <ele>162.58139038</ele>
        <time>2020-09-20T14:27:19Z</time>
      </trkpt>
      <trkpt lat="48.56489" lon="7.55391">
        <ele>162.58139038</ele>
        <time>2020-09-20T14:27:21Z</time>
      </trkpt>
      <trkpt lat="48.56484" lon="7.55404">
        <ele>162.58139038</ele>
        <time>2020-09-20T14:27:23Z</time>
      </trkpt>
      <trkpt lat="48.56477" lon="7.55415">
        <ele>162.58139038</ele>
        <time>2020-09-20T14:27:26Z</time>
      </trkpt>
      <trkpt lat="48.56472" lon="7.55429">
        <ele>162.58139038</ele>
        <time>2020-09-20T14:27:29Z</time>
      </trkpt>
      <trkpt lat="48.56464" lon="7.55445">
        <ele>162.58139038</ele>
        <time>2020-09-20T14:27:31Z</time>
      </trkpt>
      <trkpt lat="48.56458" lon="7.55457">
        <ele>162.58139038</ele>
        <time>2020-09-20T14:27:33Z</time>
      </trkpt>
      <trkpt lat="48.56451" lon="7.55471">
        <ele>162.58139038</ele>
        <time>2020-09-20T14:27:35Z</time>
      </trkpt>
      <trkpt lat="48.56446" lon="7.55486">
        <ele>162.58139038</ele>
        <time>2020-09-20T14:27:37Z</time>
      </trkpt>
      <trkpt lat="48.5644" lon="7.55501">
        <ele>162.58139038</ele>
        <time>2020-09-20T14:27:39Z</time>
      </trkpt>
      <trkpt lat="48.56436" lon="7.55515">
        <ele>162.58139038</ele>
        <time>2020-09-20T14:27:41Z</time>
      </trkpt>
      <trkpt lat="48.56432" lon="7.55529">
        <ele>162.58139038</ele>
        <time>2020-09-20T14:27:43Z</time>
      </trkpt>
      <trkpt lat="48.56427" lon="7.55544">
        <ele>162.58139038</ele>
        <time>2020-09-20T14:27:46Z</time>
      </trkpt>
      <trkpt lat="48.56421" lon="7.5556">
        <ele>162.58139038</ele>
        <time>2020-09-20T14:27:48Z</time>
      </trkpt>
      <trkpt lat="48.56414" lon="7.55575">
        <ele>162.65466309</ele>
        <time>2020-09-20T14:27:51Z</time>
      </trkpt>
      <trkpt lat="48.56413" lon="7.55586">
        <ele>162.65466309</ele>
        <time>2020-09-20T14:27:54Z</time>
      </trkpt>
      <trkpt lat="48.56417" lon="7.55599">
        <ele>163.12995911</ele>
        <time>2020-09-20T14:28:18Z</time>
      </trkpt>
      <trkpt lat="48.56421" lon="7.55598">
        <ele>163.12995911</ele>
        <time>2020-09-20T14:28:38Z</time>
      </trkpt>
      <trkpt lat="48.56435" lon="7.5561">
        <ele>163.59550476</ele>
        <time>2020-09-20T14:28:48Z</time>
      </trkpt>
      <trkpt lat="48.56441" lon="7.55609">
        <ele>162.32020569</ele>
        <time>2020-09-20T14:29:09Z</time>
      </trkpt>
      <trkpt lat="48.56444" lon="7.55605">
        <ele>162.32020569</ele>
        <time>2020-09-20T14:29:15Z</time>
      </trkpt>
      <trkpt lat="48.5645" lon="7.55591">
        <ele>162.32020569</ele>
        <time>2020-09-20T14:29:42Z</time>
      </trkpt>
      <trkpt lat="48.56447" lon="7.55588">
        <ele>162.32020569</ele>
        <time>2020-09-20T14:29:47Z</time>
      </trkpt>
      <trkpt lat="48.56443" lon="7.55591">
        <ele>162.26126099</ele>
        <time>2020-09-20T14:29:51Z</time>
      </trkpt>
      <trkpt lat="48.56438" lon="7.55598">
        <ele>162.26126099</ele>
        <time>2020-09-20T14:30:08Z</time>
      </trkpt>
      <trkpt lat="48.56429" lon="7.55592">
        <ele>162.26126099</ele>
        <time>2020-09-20T14:30:14Z</time>
      </trkpt>
      <trkpt lat="48.56419" lon="7.55593">
        <ele>162.64472961</ele>
        <time>2020-09-20T14:30:43Z</time>
      </trkpt>
      <trkpt lat="48.5641" lon="7.55591">
        <ele>163.7071991</ele>
        <time>2020-09-20T14:31:38Z</time>
      </trkpt>
      <trkpt lat="48.56401" lon="7.55598">
        <ele>163.7071991</ele>
        <time>2020-09-20T14:31:43Z</time>
      </trkpt>
      <trkpt lat="48.56393" lon="7.55623">
        <ele>163.68562317</ele>
        <time>2020-09-20T14:31:46Z</time>
      </trkpt>
      <trkpt lat="48.56385" lon="7.55639">
        <ele>163.68562317</ele>
        <time>2020-09-20T14:31:49Z</time>
      </trkpt>
      <trkpt lat="48.56381" lon="7.55654">
        <ele>162.4462738</ele>
        <time>2020-09-20T14:31:51Z</time>
      </trkpt>
      <trkpt lat="48.56379" lon="7.55669">
        <ele>162.4462738</ele>
        <time>2020-09-20T14:31:53Z</time>
      </trkpt>
      <trkpt lat="48.56376" lon="7.55686">
        <ele>162.4462738</ele>
        <time>2020-09-20T14:31:55Z</time>
      </trkpt>
      <trkpt lat="48.56374" lon="7.55701">
        <ele>162.4462738</ele>
        <time>2020-09-20T14:31:57Z</time>
      </trkpt>
      <trkpt lat="48.56373" lon="7.55717">
        <ele>162.4462738</ele>
        <time>2020-09-20T14:31:59Z</time>
      </trkpt>
      <trkpt lat="48.56371" lon="7.55733">
        <ele>162.4462738</ele>
        <time>2020-09-20T14:32:01Z</time>
      </trkpt>
      <trkpt lat="48.56371" lon="7.55747">
        <ele>162.4462738</ele>
        <time>2020-09-20T14:32:03Z</time>
      </trkpt>
      <trkpt lat="48.56374" lon="7.55761">
        <ele>162.4462738</ele>
        <time>2020-09-20T14:32:05Z</time>
      </trkpt>
      <trkpt lat="48.56375" lon="7.55778">
        <ele>162.4462738</ele>
        <time>2020-09-20T14:32:08Z</time>
      </trkpt>
      <trkpt lat="48.56377" lon="7.55801">
        <ele>162.4462738</ele>
        <time>2020-09-20T14:32:10Z</time>
      </trkpt>
      <trkpt lat="48.56378" lon="7.5582">
        <ele>162.4462738</ele>
        <time>2020-09-20T14:32:12Z</time>
      </trkpt>
      <trkpt lat="48.56381" lon="7.55841">
        <ele>162.4462738</ele>
        <time>2020-09-20T14:32:14Z</time>
      </trkpt>
      <trkpt lat="48.56384" lon="7.55861">
        <ele>162.4462738</ele>
        <time>2020-09-20T14:32:16Z</time>
      </trkpt>
      <trkpt lat="48.56386" lon="7.55877">
        <ele>162.4462738</ele>
        <time>2020-09-20T14:32:19Z</time>
      </trkpt>
      <trkpt lat="48.56387" lon="7.55896">
        <ele>162.4462738</ele>
        <time>2020-09-20T14:32:22Z</time>
      </trkpt>
      <trkpt lat="48.56388" lon="7.55917">
        <ele>162.4462738</ele>
        <time>2020-09-20T14:32:24Z</time>
      </trkpt>
      <trkpt lat="48.56387" lon="7.55934">
        <ele>162.4462738</ele>
        <time>2020-09-20T14:32:27Z</time>
      </trkpt>
      <trkpt lat="48.56385" lon="7.55954">
        <ele>162.4462738</ele>
        <time>2020-09-20T14:32:30Z</time>
      </trkpt>
      <trkpt lat="48.56381" lon="7.55972">
        <ele>162.4462738</ele>
        <time>2020-09-20T14:32:32Z</time>
      </trkpt>
      <trkpt lat="48.56379" lon="7.55994">
        <ele>162.4462738</ele>
        <time>2020-09-20T14:32:34Z</time>
      </trkpt>
      <trkpt lat="48.56377" lon="7.56014">
        <ele>162.4462738</ele>
        <time>2020-09-20T14:32:36Z</time>
      </trkpt>
      <trkpt lat="48.56377" lon="7.56034">
        <ele>162.4462738</ele>
        <time>2020-09-20T14:32:38Z</time>
      </trkpt>
      <trkpt lat="48.56373" lon="7.56052">
        <ele>162.4462738</ele>
        <time>2020-09-20T14:32:40Z</time>
      </trkpt>
      <trkpt lat="48.56363" lon="7.56065">
        <ele>162.4462738</ele>
        <time>2020-09-20T14:32:42Z</time>
      </trkpt>
      <trkpt lat="48.56356" lon="7.56084">
        <ele>161.83998108</ele>
        <time>2020-09-20T14:32:44Z</time>
      </trkpt>
      <trkpt lat="48.56347" lon="7.56103">
        <ele>161.83998108</ele>
        <time>2020-09-20T14:32:46Z</time>
      </trkpt>
      <trkpt lat="48.56337" lon="7.56115">
        <ele>161.83998108</ele>
        <time>2020-09-20T14:32:48Z</time>
      </trkpt>
      <trkpt lat="48.56327" lon="7.56126">
        <ele>161.83998108</ele>
        <time>2020-09-20T14:32:50Z</time>
      </trkpt>
      <trkpt lat="48.56317" lon="7.56136">
        <ele>160.85647583</ele>
        <time>2020-09-20T14:32:52Z</time>
      </trkpt>
      <trkpt lat="48.56309" lon="7.56145">
        <ele>160.85647583</ele>
        <time>2020-09-20T14:32:53Z</time>
      </trkpt>
      <trkpt lat="48.563" lon="7.56156">
        <ele>160.85647583</ele>
        <time>2020-09-20T14:32:55Z</time>
      </trkpt>
      <trkpt lat="48.56291" lon="7.56167">
        <ele>160.85647583</ele>
        <time>2020-09-20T14:32:57Z</time>
      </trkpt>
      <trkpt lat="48.56282" lon="7.56178">
        <ele>160.85647583</ele>
        <time>2020-09-20T14:32:59Z</time>
      </trkpt>
      <trkpt lat="48.56273" lon="7.56189">
        <ele>160.85647583</ele>
        <time>2020-09-20T14:33:01Z</time>
      </trkpt>
      <trkpt lat="48.56264" lon="7.56202">
        <ele>160.85647583</ele>
        <time>2020-09-20T14:33:03Z</time>
      </trkpt>
      <trkpt lat="48.56255" lon="7.56212">
        <ele>160.85647583</ele>
        <time>2020-09-20T14:33:05Z</time>
      </trkpt>
      <trkpt lat="48.56247" lon="7.56224">
        <ele>160.85647583</ele>
        <time>2020-09-20T14:33:07Z</time>
      </trkpt>
      <trkpt lat="48.56239" lon="7.56235">
        <ele>160.85647583</ele>
        <time>2020-09-20T14:33:09Z</time>
      </trkpt>
      <trkpt lat="48.56229" lon="7.56247">
        <ele>160.85647583</ele>
        <time>2020-09-20T14:33:11Z</time>
      </trkpt>
      <trkpt lat="48.56219" lon="7.56259">
        <ele>160.85647583</ele>
        <time>2020-09-20T14:33:13Z</time>
      </trkpt>
      <trkpt lat="48.56209" lon="7.56268">
        <ele>160.85647583</ele>
        <time>2020-09-20T14:33:15Z</time>
      </trkpt>
      <trkpt lat="48.56197" lon="7.56277">
        <ele>160.85647583</ele>
        <time>2020-09-20T14:33:17Z</time>
      </trkpt>
      <trkpt lat="48.56187" lon="7.56286">
        <ele>160.85647583</ele>
        <time>2020-09-20T14:33:19Z</time>
      </trkpt>
      <trkpt lat="48.56176" lon="7.56295">
        <ele>160.85647583</ele>
        <time>2020-09-20T14:33:21Z</time>
      </trkpt>
      <trkpt lat="48.56164" lon="7.56306">
        <ele>160.85647583</ele>
        <time>2020-09-20T14:33:23Z</time>
      </trkpt>
      <trkpt lat="48.56155" lon="7.56317">
        <ele>160.85647583</ele>
        <time>2020-09-20T14:33:25Z</time>
      </trkpt>
      <trkpt lat="48.56145" lon="7.56332">
        <ele>160.85647583</ele>
        <time>2020-09-20T14:33:27Z</time>
      </trkpt>
      <trkpt lat="48.56134" lon="7.56346">
        <ele>160.85647583</ele>
        <time>2020-09-20T14:33:29Z</time>
      </trkpt>
      <trkpt lat="48.56123" lon="7.56359">
        <ele>160.85647583</ele>
        <time>2020-09-20T14:33:31Z</time>
      </trkpt>
      <trkpt lat="48.56114" lon="7.5637">
        <ele>160.85647583</ele>
        <time>2020-09-20T14:33:33Z</time>
      </trkpt>
      <trkpt lat="48.56105" lon="7.56384">
        <ele>160.85647583</ele>
        <time>2020-09-20T14:33:35Z</time>
      </trkpt>
      <trkpt lat="48.56098" lon="7.56401">
        <ele>160.85647583</ele>
        <time>2020-09-20T14:33:37Z</time>
      </trkpt>
      <trkpt lat="48.5609" lon="7.56414">
        <ele>160.85647583</ele>
        <time>2020-09-20T14:33:39Z</time>
      </trkpt>
      <trkpt lat="48.56081" lon="7.56424">
        <ele>160.85647583</ele>
        <time>2020-09-20T14:33:41Z</time>
      </trkpt>
      <trkpt lat="48.56072" lon="7.56436">
        <ele>160.85647583</ele>
        <time>2020-09-20T14:33:43Z</time>
      </trkpt>
      <trkpt lat="48.56062" lon="7.56451">
        <ele>160.85647583</ele>
        <time>2020-09-20T14:33:45Z</time>
      </trkpt>
      <trkpt lat="48.56052" lon="7.56463">
        <ele>160.85647583</ele>
        <time>2020-09-20T14:33:47Z</time>
      </trkpt>
      <trkpt lat="48.56041" lon="7.56472">
        <ele>160.85647583</ele>
        <time>2020-09-20T14:33:49Z</time>
      </trkpt>
      <trkpt lat="48.56029" lon="7.56482">
        <ele>161.31158447</ele>
        <time>2020-09-20T14:33:51Z</time>
      </trkpt>
      <trkpt lat="48.5602" lon="7.56493">
        <ele>161.31158447</ele>
        <time>2020-09-20T14:33:53Z</time>
      </trkpt>
      <trkpt lat="48.5601" lon="7.56505">
        <ele>161.31158447</ele>
        <time>2020-09-20T14:33:55Z</time>
      </trkpt>
      <trkpt lat="48.56001" lon="7.56516">
        <ele>161.31158447</ele>
        <time>2020-09-20T14:33:57Z</time>
      </trkpt>
      <trkpt lat="48.55991" lon="7.56526">
        <ele>161.31158447</ele>
        <time>2020-09-20T14:33:59Z</time>
      </trkpt>
      <trkpt lat="48.55983" lon="7.56535">
        <ele>161.31158447</ele>
        <time>2020-09-20T14:34:01Z</time>
      </trkpt>
      <trkpt lat="48.55973" lon="7.56545">
        <ele>161.31158447</ele>
        <time>2020-09-20T14:34:03Z</time>
      </trkpt>
      <trkpt lat="48.55965" lon="7.56551">
        <ele>161.31158447</ele>
        <time>2020-09-20T14:34:05Z</time>
      </trkpt>
      <trkpt lat="48.55956" lon="7.5656">
        <ele>161.31158447</ele>
        <time>2020-09-20T14:34:07Z</time>
      </trkpt>
      <trkpt lat="48.55944" lon="7.56571">
        <ele>161.31158447</ele>
        <time>2020-09-20T14:34:09Z</time>
      </trkpt>
      <trkpt lat="48.55933" lon="7.56583">
        <ele>161.31158447</ele>
        <time>2020-09-20T14:34:11Z</time>
      </trkpt>
      <trkpt lat="48.55927" lon="7.56594">
        <ele>161.31158447</ele>
        <time>2020-09-20T14:34:14Z</time>
      </trkpt>
      <trkpt lat="48.55916" lon="7.56607">
        <ele>161.31158447</ele>
        <time>2020-09-20T14:34:17Z</time>
      </trkpt>
      <trkpt lat="48.55905" lon="7.56624">
        <ele>161.43527222</ele>
        <time>2020-09-20T14:34:19Z</time>
      </trkpt>
      <trkpt lat="48.55899" lon="7.56637">
        <ele>161.43527222</ele>
        <time>2020-09-20T14:34:21Z</time>
      </trkpt>
      <trkpt lat="48.55893" lon="7.56649">
        <ele>162.78735352</ele>
        <time>2020-09-20T14:34:24Z</time>
      </trkpt>
      <trkpt lat="48.55891" lon="7.5666">
        <ele>162.78735352</ele>
        <time>2020-09-20T14:34:29Z</time>
      </trkpt>
      <trkpt lat="48.55886" lon="7.56682">
        <ele>162.78735352</ele>
        <time>2020-09-20T14:34:32Z</time>
      </trkpt>
      <trkpt lat="48.55882" lon="7.567">
        <ele>162.93644714</ele>
        <time>2020-09-20T14:34:34Z</time>
      </trkpt>
      <trkpt lat="48.55879" lon="7.56719">
        <ele>162.93644714</ele>
        <time>2020-09-20T14:34:36Z</time>
      </trkpt>
      <trkpt lat="48.55875" lon="7.56737">
        <ele>162.93644714</ele>
        <time>2020-09-20T14:34:38Z</time>
      </trkpt>
      <trkpt lat="48.55872" lon="7.56753">
        <ele>162.93644714</ele>
        <time>2020-09-20T14:34:40Z</time>
      </trkpt>
      <trkpt lat="48.55868" lon="7.56768">
        <ele>162.93644714</ele>
        <time>2020-09-20T14:34:42Z</time>
      </trkpt>
      <trkpt lat="48.55863" lon="7.56784">
        <ele>162.93644714</ele>
        <time>2020-09-20T14:34:44Z</time>
      </trkpt>
      <trkpt lat="48.55857" lon="7.56802">
        <ele>162.93644714</ele>
        <time>2020-09-20T14:34:46Z</time>
      </trkpt>
      <trkpt lat="48.55851" lon="7.56816">
        <ele>162.93644714</ele>
        <time>2020-09-20T14:34:48Z</time>
      </trkpt>
      <trkpt lat="48.55844" lon="7.56833">
        <ele>161.57710266</ele>
        <time>2020-09-20T14:34:50Z</time>
      </trkpt>
      <trkpt lat="48.55841" lon="7.56847">
        <ele>160.70141602</ele>
        <time>2020-09-20T14:34:51Z</time>
      </trkpt>
      <trkpt lat="48.55838" lon="7.5686">
        <ele>160.70141602</ele>
        <time>2020-09-20T14:34:53Z</time>
      </trkpt>
      <trkpt lat="48.55835" lon="7.56878">
        <ele>160.70141602</ele>
        <time>2020-09-20T14:34:55Z</time>
      </trkpt>
      <trkpt lat="48.55831" lon="7.56895">
        <ele>160.70141602</ele>
        <time>2020-09-20T14:34:57Z</time>
      </trkpt>
      <trkpt lat="48.55828" lon="7.5691">
        <ele>160.70141602</ele>
        <time>2020-09-20T14:34:59Z</time>
      </trkpt>
      <trkpt lat="48.55824" lon="7.56926">
        <ele>161.14309692</ele>
        <time>2020-09-20T14:35:01Z</time>
      </trkpt>
      <trkpt lat="48.55819" lon="7.56944">
        <ele>161.14309692</ele>
        <time>2020-09-20T14:35:03Z</time>
      </trkpt>
      <trkpt lat="48.55815" lon="7.56962">
        <ele>161.14309692</ele>
        <time>2020-09-20T14:35:05Z</time>
      </trkpt>
      <trkpt lat="48.55809" lon="7.56978">
        <ele>161.14309692</ele>
        <time>2020-09-20T14:35:07Z</time>
      </trkpt>
      <trkpt lat="48.55804" lon="7.56994">
        <ele>161.14309692</ele>
        <time>2020-09-20T14:35:09Z</time>
      </trkpt>
      <trkpt lat="48.55802" lon="7.57011">
        <ele>161.14309692</ele>
        <time>2020-09-20T14:35:11Z</time>
      </trkpt>
      <trkpt lat="48.558" lon="7.57029">
        <ele>161.14309692</ele>
        <time>2020-09-20T14:35:13Z</time>
      </trkpt>
      <trkpt lat="48.55797" lon="7.57046">
        <ele>161.14309692</ele>
        <time>2020-09-20T14:35:15Z</time>
      </trkpt>
      <trkpt lat="48.55791" lon="7.57064">
        <ele>161.14309692</ele>
        <time>2020-09-20T14:35:17Z</time>
      </trkpt>
      <trkpt lat="48.55785" lon="7.5708">
        <ele>161.14309692</ele>
        <time>2020-09-20T14:35:19Z</time>
      </trkpt>
      <trkpt lat="48.55782" lon="7.57098">
        <ele>161.14309692</ele>
        <time>2020-09-20T14:35:21Z</time>
      </trkpt>
      <trkpt lat="48.55777" lon="7.57117">
        <ele>161.14309692</ele>
        <time>2020-09-20T14:35:23Z</time>
      </trkpt>
      <trkpt lat="48.55773" lon="7.57135">
        <ele>161.14309692</ele>
        <time>2020-09-20T14:35:25Z</time>
      </trkpt>
      <trkpt lat="48.55769" lon="7.57152">
        <ele>161.14309692</ele>
        <time>2020-09-20T14:35:27Z</time>
      </trkpt>
      <trkpt lat="48.55767" lon="7.57169">
        <ele>161.14309692</ele>
        <time>2020-09-20T14:35:29Z</time>
      </trkpt>
      <trkpt lat="48.55764" lon="7.57185">
        <ele>161.14309692</ele>
        <time>2020-09-20T14:35:31Z</time>
      </trkpt>
      <trkpt lat="48.55764" lon="7.57201">
        <ele>161.14309692</ele>
        <time>2020-09-20T14:35:33Z</time>
      </trkpt>
      <trkpt lat="48.55765" lon="7.5722">
        <ele>161.14309692</ele>
        <time>2020-09-20T14:35:35Z</time>
      </trkpt>
      <trkpt lat="48.55767" lon="7.57238">
        <ele>161.14309692</ele>
        <time>2020-09-20T14:35:37Z</time>
      </trkpt>
      <trkpt lat="48.55769" lon="7.57254">
        <ele>161.14309692</ele>
        <time>2020-09-20T14:35:39Z</time>
      </trkpt>
      <trkpt lat="48.5577" lon="7.57269">
        <ele>161.44125366</ele>
        <time>2020-09-20T14:35:41Z</time>
      </trkpt>
      <trkpt lat="48.55772" lon="7.57284">
        <ele>161.44125366</ele>
        <time>2020-09-20T14:35:43Z</time>
      </trkpt>
      <trkpt lat="48.55774" lon="7.57301">
        <ele>161.44125366</ele>
        <time>2020-09-20T14:35:45Z</time>
      </trkpt>
      <trkpt lat="48.55774" lon="7.57319">
        <ele>161.44125366</ele>
        <time>2020-09-20T14:35:47Z</time>
      </trkpt>
      <trkpt lat="48.55771" lon="7.57337">
        <ele>161.44125366</ele>
        <time>2020-09-20T14:35:49Z</time>
      </trkpt>
      <trkpt lat="48.55767" lon="7.57358">
        <ele>160.69595337</ele>
        <time>2020-09-20T14:35:51Z</time>
      </trkpt>
      <trkpt lat="48.55762" lon="7.57371">
        <ele>160.69595337</ele>
        <time>2020-09-20T14:35:53Z</time>
      </trkpt>
      <trkpt lat="48.55753" lon="7.57388">
        <ele>160.69595337</ele>
        <time>2020-09-20T14:35:55Z</time>
      </trkpt>
      <trkpt lat="48.55746" lon="7.57405">
        <ele>160.69595337</ele>
        <time>2020-09-20T14:35:57Z</time>
      </trkpt>
      <trkpt lat="48.5574" lon="7.5742">
        <ele>160.69595337</ele>
        <time>2020-09-20T14:35:59Z</time>
      </trkpt>
      <trkpt lat="48.55734" lon="7.57438">
        <ele>160.69595337</ele>
        <time>2020-09-20T14:36:01Z</time>
      </trkpt>
      <trkpt lat="48.55731" lon="7.57456">
        <ele>160.69595337</ele>
        <time>2020-09-20T14:36:03Z</time>
      </trkpt>
      <trkpt lat="48.55727" lon="7.57469">
        <ele>160.69595337</ele>
        <time>2020-09-20T14:36:05Z</time>
      </trkpt>
      <trkpt lat="48.55719" lon="7.57484">
        <ele>160.69595337</ele>
        <time>2020-09-20T14:36:07Z</time>
      </trkpt>
      <trkpt lat="48.55712" lon="7.57501">
        <ele>160.69595337</ele>
        <time>2020-09-20T14:36:09Z</time>
      </trkpt>
      <trkpt lat="48.55706" lon="7.57516">
        <ele>160.47462463</ele>
        <time>2020-09-20T14:36:11Z</time>
      </trkpt>
      <trkpt lat="48.557" lon="7.57531">
        <ele>160.47462463</ele>
        <time>2020-09-20T14:36:13Z</time>
      </trkpt>
      <trkpt lat="48.55697" lon="7.57544">
        <ele>160.47462463</ele>
        <time>2020-09-20T14:36:15Z</time>
      </trkpt>
      <trkpt lat="48.55694" lon="7.57559">
        <ele>160.47462463</ele>
        <time>2020-09-20T14:36:17Z</time>
      </trkpt>
      <trkpt lat="48.55689" lon="7.57577">
        <ele>160.47462463</ele>
        <time>2020-09-20T14:36:19Z</time>
      </trkpt>
      <trkpt lat="48.55685" lon="7.57595">
        <ele>160.47462463</ele>
        <time>2020-09-20T14:36:21Z</time>
      </trkpt>
      <trkpt lat="48.55681" lon="7.57615">
        <ele>159.75610352</ele>
        <time>2020-09-20T14:36:23Z</time>
      </trkpt>
      <trkpt lat="48.55676" lon="7.57631">
        <ele>159.75610352</ele>
        <time>2020-09-20T14:36:25Z</time>
      </trkpt>
      <trkpt lat="48.55672" lon="7.57645">
        <ele>159.75610352</ele>
        <time>2020-09-20T14:36:28Z</time>
      </trkpt>
      <trkpt lat="48.55666" lon="7.57658">
        <ele>159.75610352</ele>
        <time>2020-09-20T14:36:30Z</time>
      </trkpt>
      <trkpt lat="48.55662" lon="7.57672">
        <ele>159.14877319</ele>
        <time>2020-09-20T14:36:32Z</time>
      </trkpt>
      <trkpt lat="48.55662" lon="7.57689">
        <ele>159.14877319</ele>
        <time>2020-09-20T14:36:35Z</time>
      </trkpt>
      <trkpt lat="48.55669" lon="7.57706">
        <ele>159.14877319</ele>
        <time>2020-09-20T14:36:37Z</time>
      </trkpt>
      <trkpt lat="48.55675" lon="7.57722">
        <ele>159.14877319</ele>
        <time>2020-09-20T14:36:39Z</time>
      </trkpt>
      <trkpt lat="48.55682" lon="7.57738">
        <ele>159.14877319</ele>
        <time>2020-09-20T14:36:41Z</time>
      </trkpt>
      <trkpt lat="48.55689" lon="7.57753">
        <ele>159.14877319</ele>
        <time>2020-09-20T14:36:43Z</time>
      </trkpt>
      <trkpt lat="48.55697" lon="7.57768">
        <ele>159.14877319</ele>
        <time>2020-09-20T14:36:45Z</time>
      </trkpt>
      <trkpt lat="48.55704" lon="7.57784">
        <ele>159.14877319</ele>
        <time>2020-09-20T14:36:47Z</time>
      </trkpt>
      <trkpt lat="48.55711" lon="7.57799">
        <ele>159.14877319</ele>
        <time>2020-09-20T14:36:49Z</time>
      </trkpt>
      <trkpt lat="48.55716" lon="7.57817">
        <ele>159.14877319</ele>
        <time>2020-09-20T14:36:51Z</time>
      </trkpt>
      <trkpt lat="48.55718" lon="7.57822">
        <ele>159.90620422</ele>
        <time>2020-09-20T14:36:52Z</time>
      </trkpt>
      <trkpt lat="48.55721" lon="7.57837">
        <ele>159.90620422</ele>
        <time>2020-09-20T14:36:53Z</time>
      </trkpt>
      <trkpt lat="48.55725" lon="7.57855">
        <ele>159.90620422</ele>
        <time>2020-09-20T14:36:55Z</time>
      </trkpt>
      <trkpt lat="48.55727" lon="7.57873">
        <ele>159.90620422</ele>
        <time>2020-09-20T14:36:57Z</time>
      </trkpt>
      <trkpt lat="48.55732" lon="7.5789">
        <ele>159.90620422</ele>
        <time>2020-09-20T14:36:59Z</time>
      </trkpt>
      <trkpt lat="48.55738" lon="7.57905">
        <ele>159.90620422</ele>
        <time>2020-09-20T14:37:01Z</time>
      </trkpt>
      <trkpt lat="48.55745" lon="7.57923">
        <ele>159.90620422</ele>
        <time>2020-09-20T14:37:03Z</time>
      </trkpt>
      <trkpt lat="48.55748" lon="7.57942">
        <ele>159.90620422</ele>
        <time>2020-09-20T14:37:05Z</time>
      </trkpt>
      <trkpt lat="48.55753" lon="7.57959">
        <ele>159.90620422</ele>
        <time>2020-09-20T14:37:07Z</time>
      </trkpt>
      <trkpt lat="48.55756" lon="7.57978">
        <ele>159.90620422</ele>
        <time>2020-09-20T14:37:09Z</time>
      </trkpt>
      <trkpt lat="48.55762" lon="7.57996">
        <ele>159.90620422</ele>
        <time>2020-09-20T14:37:11Z</time>
      </trkpt>
      <trkpt lat="48.55767" lon="7.58013">
        <ele>159.90620422</ele>
        <time>2020-09-20T14:37:13Z</time>
      </trkpt>
      <trkpt lat="48.55772" lon="7.58028">
        <ele>159.90620422</ele>
        <time>2020-09-20T14:37:15Z</time>
      </trkpt>
      <trkpt lat="48.55777" lon="7.58044">
        <ele>159.90620422</ele>
        <time>2020-09-20T14:37:17Z</time>
      </trkpt>
      <trkpt lat="48.5578" lon="7.58063">
        <ele>159.90620422</ele>
        <time>2020-09-20T14:37:19Z</time>
      </trkpt>
      <trkpt lat="48.55785" lon="7.58082">
        <ele>159.90620422</ele>
        <time>2020-09-20T14:37:20Z</time>
      </trkpt>
      <trkpt lat="48.55788" lon="7.58097">
        <ele>159.90620422</ele>
        <time>2020-09-20T14:37:22Z</time>
      </trkpt>
      <trkpt lat="48.55793" lon="7.58117">
        <ele>159.90620422</ele>
        <time>2020-09-20T14:37:24Z</time>
      </trkpt>
      <trkpt lat="48.55798" lon="7.58135">
        <ele>159.90620422</ele>
        <time>2020-09-20T14:37:26Z</time>
      </trkpt>
      <trkpt lat="48.55802" lon="7.58152">
        <ele>159.43267822</ele>
        <time>2020-09-20T14:37:28Z</time>
      </trkpt>
      <trkpt lat="48.55806" lon="7.58168">
        <ele>159.43267822</ele>
        <time>2020-09-20T14:37:30Z</time>
      </trkpt>
      <trkpt lat="48.55809" lon="7.58186">
        <ele>159.43267822</ele>
        <time>2020-09-20T14:37:32Z</time>
      </trkpt>
      <trkpt lat="48.55815" lon="7.58201">
        <ele>159.43267822</ele>
        <time>2020-09-20T14:37:34Z</time>
      </trkpt>
      <trkpt lat="48.55819" lon="7.58216">
        <ele>159.43267822</ele>
        <time>2020-09-20T14:37:36Z</time>
      </trkpt>
      <trkpt lat="48.55822" lon="7.58234">
        <ele>159.43267822</ele>
        <time>2020-09-20T14:37:38Z</time>
      </trkpt>
      <trkpt lat="48.55819" lon="7.58253">
        <ele>159.43267822</ele>
        <time>2020-09-20T14:37:40Z</time>
      </trkpt>
      <trkpt lat="48.55809" lon="7.58272">
        <ele>159.43267822</ele>
        <time>2020-09-20T14:37:42Z</time>
      </trkpt>
      <trkpt lat="48.55798" lon="7.58284">
        <ele>159.43267822</ele>
        <time>2020-09-20T14:37:43Z</time>
      </trkpt>
      <trkpt lat="48.55793" lon="7.58296">
        <ele>159.43267822</ele>
        <time>2020-09-20T14:37:45Z</time>
      </trkpt>
      <trkpt lat="48.55784" lon="7.58306">
        <ele>159.43267822</ele>
        <time>2020-09-20T14:37:47Z</time>
      </trkpt>
      <trkpt lat="48.55773" lon="7.58314">
        <ele>159.43267822</ele>
        <time>2020-09-20T14:37:49Z</time>
      </trkpt>
      <trkpt lat="48.55759" lon="7.58325">
        <ele>158.53738403</ele>
        <time>2020-09-20T14:37:51Z</time>
      </trkpt>
      <trkpt lat="48.55751" lon="7.58334">
        <ele>158.53738403</ele>
        <time>2020-09-20T14:37:53Z</time>
      </trkpt>
      <trkpt lat="48.55742" lon="7.58345">
        <ele>158.53738403</ele>
        <time>2020-09-20T14:37:55Z</time>
      </trkpt>
      <trkpt lat="48.55733" lon="7.58356">
        <ele>158.53738403</ele>
        <time>2020-09-20T14:37:58Z</time>
      </trkpt>
      <trkpt lat="48.55727" lon="7.5837">
        <ele>158.53738403</ele>
        <time>2020-09-20T14:38:00Z</time>
      </trkpt>
      <trkpt lat="48.55721" lon="7.58383">
        <ele>158.53738403</ele>
        <time>2020-09-20T14:38:02Z</time>
      </trkpt>
      <trkpt lat="48.55715" lon="7.58398">
        <ele>158.53738403</ele>
        <time>2020-09-20T14:38:04Z</time>
      </trkpt>
      <trkpt lat="48.5571" lon="7.58413">
        <ele>158.53738403</ele>
        <time>2020-09-20T14:38:06Z</time>
      </trkpt>
      <trkpt lat="48.55705" lon="7.58428">
        <ele>158.53738403</ele>
        <time>2020-09-20T14:38:09Z</time>
      </trkpt>
      <trkpt lat="48.55701" lon="7.58447">
        <ele>158.53738403</ele>
        <time>2020-09-20T14:38:11Z</time>
      </trkpt>
      <trkpt lat="48.55698" lon="7.58465">
        <ele>158.53738403</ele>
        <time>2020-09-20T14:38:13Z</time>
      </trkpt>
      <trkpt lat="48.5569" lon="7.58481">
        <ele>158.53738403</ele>
        <time>2020-09-20T14:38:15Z</time>
      </trkpt>
      <trkpt lat="48.55685" lon="7.58497">
        <ele>158.53738403</ele>
        <time>2020-09-20T14:38:17Z</time>
      </trkpt>
      <trkpt lat="48.55679" lon="7.58515">
        <ele>158.53738403</ele>
        <time>2020-09-20T14:38:19Z</time>
      </trkpt>
      <trkpt lat="48.55676" lon="7.58532">
        <ele>158.53738403</ele>
        <time>2020-09-20T14:38:21Z</time>
      </trkpt>
      <trkpt lat="48.55673" lon="7.5855">
        <ele>158.53738403</ele>
        <time>2020-09-20T14:38:23Z</time>
      </trkpt>
      <trkpt lat="48.5567" lon="7.58568">
        <ele>158.53738403</ele>
        <time>2020-09-20T14:38:25Z</time>
      </trkpt>
      <trkpt lat="48.55667" lon="7.58587">
        <ele>158.53738403</ele>
        <time>2020-09-20T14:38:27Z</time>
      </trkpt>
      <trkpt lat="48.55665" lon="7.58604">
        <ele>158.53738403</ele>
        <time>2020-09-20T14:38:29Z</time>
      </trkpt>
      <trkpt lat="48.55662" lon="7.5862">
        <ele>158.53738403</ele>
        <time>2020-09-20T14:38:31Z</time>
      </trkpt>
      <trkpt lat="48.55658" lon="7.58639">
        <ele>158.53738403</ele>
        <time>2020-09-20T14:38:33Z</time>
      </trkpt>
      <trkpt lat="48.55652" lon="7.58656">
        <ele>158.53738403</ele>
        <time>2020-09-20T14:38:35Z</time>
      </trkpt>
      <trkpt lat="48.55646" lon="7.58673">
        <ele>158.53738403</ele>
        <time>2020-09-20T14:38:37Z</time>
      </trkpt>
      <trkpt lat="48.5564" lon="7.58691">
        <ele>158.53738403</ele>
        <time>2020-09-20T14:38:39Z</time>
      </trkpt>
      <trkpt lat="48.55633" lon="7.58709">
        <ele>158.53738403</ele>
        <time>2020-09-20T14:38:41Z</time>
      </trkpt>
      <trkpt lat="48.55625" lon="7.58724">
        <ele>158.53738403</ele>
        <time>2020-09-20T14:38:43Z</time>
      </trkpt>
      <trkpt lat="48.55618" lon="7.58739">
        <ele>158.53738403</ele>
        <time>2020-09-20T14:38:45Z</time>
      </trkpt>
      <trkpt lat="48.55613" lon="7.58755">
        <ele>158.53738403</ele>
        <time>2020-09-20T14:38:47Z</time>
      </trkpt>
      <trkpt lat="48.55608" lon="7.58772">
        <ele>158.53738403</ele>
        <time>2020-09-20T14:38:49Z</time>
      </trkpt>
      <trkpt lat="48.55603" lon="7.58794">
        <ele>158.84684753</ele>
        <time>2020-09-20T14:38:51Z</time>
      </trkpt>
      <trkpt lat="48.55599" lon="7.58809">
        <ele>158.84684753</ele>
        <time>2020-09-20T14:38:53Z</time>
      </trkpt>
      <trkpt lat="48.55594" lon="7.58827">
        <ele>158.84684753</ele>
        <time>2020-09-20T14:38:55Z</time>
      </trkpt>
      <trkpt lat="48.55589" lon="7.58843">
        <ele>158.84684753</ele>
        <time>2020-09-20T14:38:57Z</time>
      </trkpt>
      <trkpt lat="48.55582" lon="7.58856">
        <ele>158.84684753</ele>
        <time>2020-09-20T14:38:59Z</time>
      </trkpt>
      <trkpt lat="48.55574" lon="7.58867">
        <ele>158.84684753</ele>
        <time>2020-09-20T14:39:01Z</time>
      </trkpt>
      <trkpt lat="48.55564" lon="7.58878">
        <ele>158.84684753</ele>
        <time>2020-09-20T14:39:03Z</time>
      </trkpt>
      <trkpt lat="48.55554" lon="7.58886">
        <ele>158.84684753</ele>
        <time>2020-09-20T14:39:05Z</time>
      </trkpt>
      <trkpt lat="48.55549" lon="7.58902">
        <ele>158.84684753</ele>
        <time>2020-09-20T14:39:07Z</time>
      </trkpt>
      <trkpt lat="48.55547" lon="7.5892">
        <ele>158.84684753</ele>
        <time>2020-09-20T14:39:09Z</time>
      </trkpt>
      <trkpt lat="48.55539" lon="7.58936">
        <ele>158.84684753</ele>
        <time>2020-09-20T14:39:11Z</time>
      </trkpt>
      <trkpt lat="48.55531" lon="7.5895">
        <ele>158.84684753</ele>
        <time>2020-09-20T14:39:13Z</time>
      </trkpt>
      <trkpt lat="48.55523" lon="7.58962">
        <ele>158.84684753</ele>
        <time>2020-09-20T14:39:15Z</time>
      </trkpt>
      <trkpt lat="48.55512" lon="7.5897">
        <ele>158.84684753</ele>
        <time>2020-09-20T14:39:18Z</time>
      </trkpt>
      <trkpt lat="48.55502" lon="7.58984">
        <ele>158.84684753</ele>
        <time>2020-09-20T14:39:20Z</time>
      </trkpt>
      <trkpt lat="48.55494" lon="7.58992">
        <ele>159.00456238</ele>
        <time>2020-09-20T14:39:24Z</time>
      </trkpt>
      <trkpt lat="48.55488" lon="7.59002">
        <ele>159.00456238</ele>
        <time>2020-09-20T14:39:27Z</time>
      </trkpt>
      <trkpt lat="48.55483" lon="7.59014">
        <ele>159.00456238</ele>
        <time>2020-09-20T14:39:30Z</time>
      </trkpt>
      <trkpt lat="48.55473" lon="7.59029">
        <ele>159.97354126</ele>
        <time>2020-09-20T14:39:32Z</time>
      </trkpt>
      <trkpt lat="48.55463" lon="7.59043">
        <ele>159.97354126</ele>
        <time>2020-09-20T14:39:34Z</time>
      </trkpt>
      <trkpt lat="48.55452" lon="7.59059">
        <ele>159.97354126</ele>
        <time>2020-09-20T14:39:36Z</time>
      </trkpt>
      <trkpt lat="48.55442" lon="7.59074">
        <ele>158.11143494</ele>
        <time>2020-09-20T14:39:38Z</time>
      </trkpt>
      <trkpt lat="48.55432" lon="7.59089">
        <ele>158.11143494</ele>
        <time>2020-09-20T14:39:40Z</time>
      </trkpt>
      <trkpt lat="48.55422" lon="7.59104">
        <ele>158.11143494</ele>
        <time>2020-09-20T14:39:42Z</time>
      </trkpt>
      <trkpt lat="48.55413" lon="7.59116">
        <ele>158.11143494</ele>
        <time>2020-09-20T14:39:44Z</time>
      </trkpt>
      <trkpt lat="48.55404" lon="7.59129">
        <ele>158.11143494</ele>
        <time>2020-09-20T14:39:46Z</time>
      </trkpt>
      <trkpt lat="48.55396" lon="7.59142">
        <ele>158.11143494</ele>
        <time>2020-09-20T14:39:48Z</time>
      </trkpt>
      <trkpt lat="48.55387" lon="7.59155">
        <ele>158.11143494</ele>
        <time>2020-09-20T14:39:50Z</time>
      </trkpt>
      <trkpt lat="48.5538" lon="7.59164">
        <ele>157.64303589</ele>
        <time>2020-09-20T14:39:51Z</time>
      </trkpt>
      <trkpt lat="48.55372" lon="7.59175">
        <ele>157.64303589</ele>
        <time>2020-09-20T14:39:53Z</time>
      </trkpt>
      <trkpt lat="48.55361" lon="7.59187">
        <ele>157.64303589</ele>
        <time>2020-09-20T14:39:55Z</time>
      </trkpt>
      <trkpt lat="48.55351" lon="7.592">
        <ele>157.64303589</ele>
        <time>2020-09-20T14:39:57Z</time>
      </trkpt>
      <trkpt lat="48.55342" lon="7.59213">
        <ele>157.64303589</ele>
        <time>2020-09-20T14:39:59Z</time>
      </trkpt>
      <trkpt lat="48.55332" lon="7.59224">
        <ele>157.64303589</ele>
        <time>2020-09-20T14:40:01Z</time>
      </trkpt>
      <trkpt lat="48.55322" lon="7.59236">
        <ele>157.64303589</ele>
        <time>2020-09-20T14:40:03Z</time>
      </trkpt>
      <trkpt lat="48.55314" lon="7.59249">
        <ele>157.64303589</ele>
        <time>2020-09-20T14:40:05Z</time>
      </trkpt>
      <trkpt lat="48.55304" lon="7.59263">
        <ele>157.64303589</ele>
        <time>2020-09-20T14:40:07Z</time>
      </trkpt>
      <trkpt lat="48.55296" lon="7.59277">
        <ele>157.64303589</ele>
        <time>2020-09-20T14:40:09Z</time>
      </trkpt>
      <trkpt lat="48.55288" lon="7.59293">
        <ele>157.64303589</ele>
        <time>2020-09-20T14:40:11Z</time>
      </trkpt>
      <trkpt lat="48.55285" lon="7.5931">
        <ele>157.64303589</ele>
        <time>2020-09-20T14:40:13Z</time>
      </trkpt>
      <trkpt lat="48.55281" lon="7.59326">
        <ele>157.64303589</ele>
        <time>2020-09-20T14:40:15Z</time>
      </trkpt>
      <trkpt lat="48.55278" lon="7.59342">
        <ele>157.64303589</ele>
        <time>2020-09-20T14:40:17Z</time>
      </trkpt>
      <trkpt lat="48.55276" lon="7.59359">
        <ele>157.64303589</ele>
        <time>2020-09-20T14:40:19Z</time>
      </trkpt>
      <trkpt lat="48.55275" lon="7.59377">
        <ele>157.64303589</ele>
        <time>2020-09-20T14:40:21Z</time>
      </trkpt>
      <trkpt lat="48.55277" lon="7.59396">
        <ele>157.64303589</ele>
        <time>2020-09-20T14:40:23Z</time>
      </trkpt>
      <trkpt lat="48.55278" lon="7.59414">
        <ele>157.64303589</ele>
        <time>2020-09-20T14:40:25Z</time>
      </trkpt>
      <trkpt lat="48.55277" lon="7.59434">
        <ele>157.64303589</ele>
        <time>2020-09-20T14:40:27Z</time>
      </trkpt>
      <trkpt lat="48.55274" lon="7.59456">
        <ele>157.64303589</ele>
        <time>2020-09-20T14:40:29Z</time>
      </trkpt>
      <trkpt lat="48.55272" lon="7.59474">
        <ele>157.64303589</ele>
        <time>2020-09-20T14:40:31Z</time>
      </trkpt>
      <trkpt lat="48.55271" lon="7.59493">
        <ele>157.64303589</ele>
        <time>2020-09-20T14:40:33Z</time>
      </trkpt>
      <trkpt lat="48.55271" lon="7.59514">
        <ele>157.64303589</ele>
        <time>2020-09-20T14:40:35Z</time>
      </trkpt>
      <trkpt lat="48.55267" lon="7.59532">
        <ele>157.64303589</ele>
        <time>2020-09-20T14:40:37Z</time>
      </trkpt>
      <trkpt lat="48.55265" lon="7.59551">
        <ele>157.64303589</ele>
        <time>2020-09-20T14:40:39Z</time>
      </trkpt>
      <trkpt lat="48.55264" lon="7.59569">
        <ele>157.64303589</ele>
        <time>2020-09-20T14:40:41Z</time>
      </trkpt>
      <trkpt lat="48.55266" lon="7.59588">
        <ele>157.64303589</ele>
        <time>2020-09-20T14:40:43Z</time>
      </trkpt>
      <trkpt lat="48.55265" lon="7.59604">
        <ele>157.64303589</ele>
        <time>2020-09-20T14:40:45Z</time>
      </trkpt>
      <trkpt lat="48.55262" lon="7.5962">
        <ele>157.64303589</ele>
        <time>2020-09-20T14:40:47Z</time>
      </trkpt>
      <trkpt lat="48.55262" lon="7.59639">
        <ele>157.64303589</ele>
        <time>2020-09-20T14:40:49Z</time>
      </trkpt>
      <trkpt lat="48.55267" lon="7.59662">
        <ele>157.72598267</ele>
        <time>2020-09-20T14:40:51Z</time>
      </trkpt>
      <trkpt lat="48.55269" lon="7.59675">
        <ele>157.72598267</ele>
        <time>2020-09-20T14:40:53Z</time>
      </trkpt>
      <trkpt lat="48.55273" lon="7.59689">
        <ele>157.72598267</ele>
        <time>2020-09-20T14:40:55Z</time>
      </trkpt>
      <trkpt lat="48.55279" lon="7.59703">
        <ele>157.72598267</ele>
        <time>2020-09-20T14:40:58Z</time>
      </trkpt>
      <trkpt lat="48.55288" lon="7.59715">
        <ele>157.72598267</ele>
        <time>2020-09-20T14:41:01Z</time>
      </trkpt>
      <trkpt lat="48.55296" lon="7.59725">
        <ele>157.72598267</ele>
        <time>2020-09-20T14:41:03Z</time>
      </trkpt>
      <trkpt lat="48.55304" lon="7.59735">
        <ele>157.04214478</ele>
        <time>2020-09-20T14:41:05Z</time>
      </trkpt>
      <trkpt lat="48.55314" lon="7.59747">
        <ele>157.04214478</ele>
        <time>2020-09-20T14:41:07Z</time>
      </trkpt>
      <trkpt lat="48.55322" lon="7.5976">
        <ele>157.04214478</ele>
        <time>2020-09-20T14:41:09Z</time>
      </trkpt>
      <trkpt lat="48.55331" lon="7.59774">
        <ele>157.04214478</ele>
        <time>2020-09-20T14:41:11Z</time>
      </trkpt>
      <trkpt lat="48.5534" lon="7.59788">
        <ele>157.04214478</ele>
        <time>2020-09-20T14:41:13Z</time>
      </trkpt>
      <trkpt lat="48.55347" lon="7.59801">
        <ele>157.04214478</ele>
        <time>2020-09-20T14:41:15Z</time>
      </trkpt>
      <trkpt lat="48.55356" lon="7.59814">
        <ele>157.04214478</ele>
        <time>2020-09-20T14:41:17Z</time>
      </trkpt>
      <trkpt lat="48.55363" lon="7.59827">
        <ele>157.04214478</ele>
        <time>2020-09-20T14:41:19Z</time>
      </trkpt>
      <trkpt lat="48.55372" lon="7.59842">
        <ele>157.04214478</ele>
        <time>2020-09-20T14:41:21Z</time>
      </trkpt>
      <trkpt lat="48.5538" lon="7.59859">
        <ele>157.04214478</ele>
        <time>2020-09-20T14:41:23Z</time>
      </trkpt>
      <trkpt lat="48.55384" lon="7.59879">
        <ele>157.04214478</ele>
        <time>2020-09-20T14:41:25Z</time>
      </trkpt>
      <trkpt lat="48.55386" lon="7.59899">
        <ele>157.04214478</ele>
        <time>2020-09-20T14:41:27Z</time>
      </trkpt>
      <trkpt lat="48.55386" lon="7.59921">
        <ele>157.04214478</ele>
        <time>2020-09-20T14:41:29Z</time>
      </trkpt>
      <trkpt lat="48.55386" lon="7.59941">
        <ele>157.04214478</ele>
        <time>2020-09-20T14:41:31Z</time>
      </trkpt>
      <trkpt lat="48.55384" lon="7.5996">
        <ele>157.04214478</ele>
        <time>2020-09-20T14:41:33Z</time>
      </trkpt>
      <trkpt lat="48.55384" lon="7.59978">
        <ele>157.04214478</ele>
        <time>2020-09-20T14:41:35Z</time>
      </trkpt>
      <trkpt lat="48.55385" lon="7.59996">
        <ele>157.04214478</ele>
        <time>2020-09-20T14:41:37Z</time>
      </trkpt>
      <trkpt lat="48.55388" lon="7.60015">
        <ele>157.04214478</ele>
        <time>2020-09-20T14:41:39Z</time>
      </trkpt>
      <trkpt lat="48.55391" lon="7.60034">
        <ele>157.04214478</ele>
        <time>2020-09-20T14:41:41Z</time>
      </trkpt>
      <trkpt lat="48.55395" lon="7.60055">
        <ele>157.04214478</ele>
        <time>2020-09-20T14:41:43Z</time>
      </trkpt>
      <trkpt lat="48.55398" lon="7.60071">
        <ele>157.04214478</ele>
        <time>2020-09-20T14:41:45Z</time>
      </trkpt>
      <trkpt lat="48.55399" lon="7.60085">
        <ele>157.04214478</ele>
        <time>2020-09-20T14:41:47Z</time>
      </trkpt>
      <trkpt lat="48.55398" lon="7.60101">
        <ele>157.04214478</ele>
        <time>2020-09-20T14:41:49Z</time>
      </trkpt>
      <trkpt lat="48.55396" lon="7.60121">
        <ele>156.03071594</ele>
        <time>2020-09-20T14:41:51Z</time>
      </trkpt>
      <trkpt lat="48.55397" lon="7.60135">
        <ele>156.03071594</ele>
        <time>2020-09-20T14:41:53Z</time>
      </trkpt>
      <trkpt lat="48.55399" lon="7.60153">
        <ele>156.03071594</ele>
        <time>2020-09-20T14:41:55Z</time>
      </trkpt>
      <trkpt lat="48.55397" lon="7.6017">
        <ele>156.03071594</ele>
        <time>2020-09-20T14:41:57Z</time>
      </trkpt>
      <trkpt lat="48.55394" lon="7.60187">
        <ele>156.03071594</ele>
        <time>2020-09-20T14:41:59Z</time>
      </trkpt>
      <trkpt lat="48.55391" lon="7.60203">
        <ele>156.03071594</ele>
        <time>2020-09-20T14:42:01Z</time>
      </trkpt>
      <trkpt lat="48.55388" lon="7.60219">
        <ele>156.03071594</ele>
        <time>2020-09-20T14:42:03Z</time>
      </trkpt>
      <trkpt lat="48.55388" lon="7.60236">
        <ele>156.03071594</ele>
        <time>2020-09-20T14:42:05Z</time>
      </trkpt>
      <trkpt lat="48.55386" lon="7.60253">
        <ele>156.03071594</ele>
        <time>2020-09-20T14:42:07Z</time>
      </trkpt>
      <trkpt lat="48.55383" lon="7.6027">
        <ele>156.03071594</ele>
        <time>2020-09-20T14:42:09Z</time>
      </trkpt>
      <trkpt lat="48.55381" lon="7.60287">
        <ele>156.03071594</ele>
        <time>2020-09-20T14:42:11Z</time>
      </trkpt>
      <trkpt lat="48.5538" lon="7.60306">
        <ele>156.03071594</ele>
        <time>2020-09-20T14:42:13Z</time>
      </trkpt>
      <trkpt lat="48.55378" lon="7.60324">
        <ele>156.03071594</ele>
        <time>2020-09-20T14:42:15Z</time>
      </trkpt>
      <trkpt lat="48.55378" lon="7.60342">
        <ele>156.03071594</ele>
        <time>2020-09-20T14:42:17Z</time>
      </trkpt>
      <trkpt lat="48.55378" lon="7.60359">
        <ele>156.03071594</ele>
        <time>2020-09-20T14:42:19Z</time>
      </trkpt>
      <trkpt lat="48.55376" lon="7.60377">
        <ele>156.03071594</ele>
        <time>2020-09-20T14:42:21Z</time>
      </trkpt>
      <trkpt lat="48.55375" lon="7.60395">
        <ele>156.03071594</ele>
        <time>2020-09-20T14:42:23Z</time>
      </trkpt>
      <trkpt lat="48.55375" lon="7.60416">
        <ele>156.03071594</ele>
        <time>2020-09-20T14:42:25Z</time>
      </trkpt>
      <trkpt lat="48.55375" lon="7.60435">
        <ele>156.03071594</ele>
        <time>2020-09-20T14:42:27Z</time>
      </trkpt>
      <trkpt lat="48.55375" lon="7.60455">
        <ele>156.03071594</ele>
        <time>2020-09-20T14:42:29Z</time>
      </trkpt>
      <trkpt lat="48.55375" lon="7.60475">
        <ele>156.03071594</ele>
        <time>2020-09-20T14:42:31Z</time>
      </trkpt>
      <trkpt lat="48.55376" lon="7.60491">
        <ele>156.03071594</ele>
        <time>2020-09-20T14:42:33Z</time>
      </trkpt>
      <trkpt lat="48.55377" lon="7.60509">
        <ele>156.03071594</ele>
        <time>2020-09-20T14:42:35Z</time>
      </trkpt>
      <trkpt lat="48.55379" lon="7.60528">
        <ele>156.03071594</ele>
        <time>2020-09-20T14:42:37Z</time>
      </trkpt>
      <trkpt lat="48.5538" lon="7.60547">
        <ele>156.03071594</ele>
        <time>2020-09-20T14:42:40Z</time>
      </trkpt>
      <trkpt lat="48.55377" lon="7.60567">
        <ele>156.03071594</ele>
        <time>2020-09-20T14:42:42Z</time>
      </trkpt>
      <trkpt lat="48.55375" lon="7.60586">
        <ele>156.03071594</ele>
        <time>2020-09-20T14:42:44Z</time>
      </trkpt>
      <trkpt lat="48.55373" lon="7.60602">
        <ele>156.03071594</ele>
        <time>2020-09-20T14:42:46Z</time>
      </trkpt>
      <trkpt lat="48.55372" lon="7.60619">
        <ele>156.03071594</ele>
        <time>2020-09-20T14:42:48Z</time>
      </trkpt>
      <trkpt lat="48.55371" lon="7.60637">
        <ele>156.03071594</ele>
        <time>2020-09-20T14:42:50Z</time>
      </trkpt>
      <trkpt lat="48.55369" lon="7.6065">
        <ele>155.73509216</ele>
        <time>2020-09-20T14:42:51Z</time>
      </trkpt>
      <trkpt lat="48.55368" lon="7.60662">
        <ele>155.73509216</ele>
        <time>2020-09-20T14:42:53Z</time>
      </trkpt>
      <trkpt lat="48.5537" lon="7.6068">
        <ele>155.73509216</ele>
        <time>2020-09-20T14:42:55Z</time>
      </trkpt>
      <trkpt lat="48.55373" lon="7.60698">
        <ele>155.85673523</ele>
        <time>2020-09-20T14:42:57Z</time>
      </trkpt>
      <trkpt lat="48.55374" lon="7.60716">
        <ele>155.85673523</ele>
        <time>2020-09-20T14:42:59Z</time>
      </trkpt>
      <trkpt lat="48.55376" lon="7.60737">
        <ele>155.85673523</ele>
        <time>2020-09-20T14:43:01Z</time>
      </trkpt>
      <trkpt lat="48.55379" lon="7.60757">
        <ele>155.85673523</ele>
        <time>2020-09-20T14:43:03Z</time>
      </trkpt>
      <trkpt lat="48.55378" lon="7.60776">
        <ele>155.85673523</ele>
        <time>2020-09-20T14:43:05Z</time>
      </trkpt>
      <trkpt lat="48.5538" lon="7.60796">
        <ele>155.85673523</ele>
        <time>2020-09-20T14:43:07Z</time>
      </trkpt>
      <trkpt lat="48.55381" lon="7.60817">
        <ele>155.85673523</ele>
        <time>2020-09-20T14:43:09Z</time>
      </trkpt>
      <trkpt lat="48.5538" lon="7.60836">
        <ele>155.85673523</ele>
        <time>2020-09-20T14:43:11Z</time>
      </trkpt>
      <trkpt lat="48.55382" lon="7.60853">
        <ele>155.85673523</ele>
        <time>2020-09-20T14:43:13Z</time>
      </trkpt>
      <trkpt lat="48.55385" lon="7.6087">
        <ele>155.85673523</ele>
        <time>2020-09-20T14:43:15Z</time>
      </trkpt>
      <trkpt lat="48.55386" lon="7.60889">
        <ele>155.85673523</ele>
        <time>2020-09-20T14:43:17Z</time>
      </trkpt>
      <trkpt lat="48.55387" lon="7.60907">
        <ele>155.85673523</ele>
        <time>2020-09-20T14:43:19Z</time>
      </trkpt>
      <trkpt lat="48.55389" lon="7.60925">
        <ele>155.85673523</ele>
        <time>2020-09-20T14:43:21Z</time>
      </trkpt>
      <trkpt lat="48.5539" lon="7.60943">
        <ele>155.85673523</ele>
        <time>2020-09-20T14:43:23Z</time>
      </trkpt>
      <trkpt lat="48.55393" lon="7.60961">
        <ele>155.85673523</ele>
        <time>2020-09-20T14:43:25Z</time>
      </trkpt>
      <trkpt lat="48.55394" lon="7.60982">
        <ele>155.85673523</ele>
        <time>2020-09-20T14:43:27Z</time>
      </trkpt>
      <trkpt lat="48.55394" lon="7.61">
        <ele>155.85673523</ele>
        <time>2020-09-20T14:43:29Z</time>
      </trkpt>
      <trkpt lat="48.55397" lon="7.61019">
        <ele>155.85673523</ele>
        <time>2020-09-20T14:43:31Z</time>
      </trkpt>
      <trkpt lat="48.554" lon="7.61037">
        <ele>155.85673523</ele>
        <time>2020-09-20T14:43:33Z</time>
      </trkpt>
      <trkpt lat="48.55404" lon="7.61055">
        <ele>155.85673523</ele>
        <time>2020-09-20T14:43:35Z</time>
      </trkpt>
      <trkpt lat="48.5541" lon="7.61073">
        <ele>155.85673523</ele>
        <time>2020-09-20T14:43:37Z</time>
      </trkpt>
      <trkpt lat="48.55416" lon="7.61091">
        <ele>155.85673523</ele>
        <time>2020-09-20T14:43:39Z</time>
      </trkpt>
      <trkpt lat="48.5542" lon="7.61107">
        <ele>155.85673523</ele>
        <time>2020-09-20T14:43:41Z</time>
      </trkpt>
      <trkpt lat="48.55416" lon="7.61116">
        <ele>155.85673523</ele>
        <time>2020-09-20T14:43:43Z</time>
      </trkpt>
      <trkpt lat="48.55405" lon="7.61117">
        <ele>155.85673523</ele>
        <time>2020-09-20T14:43:45Z</time>
      </trkpt>
      <trkpt lat="48.55396" lon="7.61125">
        <ele>155.85673523</ele>
        <time>2020-09-20T14:43:48Z</time>
      </trkpt>
      <trkpt lat="48.55388" lon="7.61134">
        <ele>155.25177002</ele>
        <time>2020-09-20T14:43:51Z</time>
      </trkpt>
      <trkpt lat="48.5539" lon="7.61136">
        <ele>155.25177002</ele>
        <time>2020-09-20T14:43:58Z</time>
      </trkpt>
      <trkpt lat="48.55397" lon="7.61122">
        <ele>155.25177002</ele>
        <time>2020-09-20T14:44:03Z</time>
      </trkpt>
      <trkpt lat="48.55407" lon="7.6111">
        <ele>155.25177002</ele>
        <time>2020-09-20T14:44:07Z</time>
      </trkpt>
      <trkpt lat="48.55414" lon="7.61098">
        <ele>155.25177002</ele>
        <time>2020-09-20T14:44:11Z</time>
      </trkpt>
      <trkpt lat="48.55416" lon="7.61084">
        <ele>155.25177002</ele>
        <time>2020-09-20T14:44:24Z</time>
      </trkpt>
      <trkpt lat="48.5542" lon="7.61093">
        <ele>155.68165588</ele>
        <time>2020-09-20T14:49:04Z</time>
      </trkpt>
      <trkpt lat="48.55421" lon="7.61099">
        <ele>155.68165588</ele>
        <time>2020-09-20T14:49:08Z</time>
      </trkpt>
      <trkpt lat="48.55428" lon="7.61121">
        <ele>155.73840332</ele>
        <time>2020-09-20T14:49:11Z</time>
      </trkpt>
      <trkpt lat="48.55432" lon="7.61137">
        <ele>155.73840332</ele>
        <time>2020-09-20T14:49:13Z</time>
      </trkpt>
      <trkpt lat="48.55436" lon="7.61154">
        <ele>155.73840332</ele>
        <time>2020-09-20T14:49:15Z</time>
      </trkpt>
      <trkpt lat="48.55439" lon="7.61171">
        <ele>154.01922607</ele>
        <time>2020-09-20T14:49:17Z</time>
      </trkpt>
      <trkpt lat="48.55443" lon="7.61193">
        <ele>154.01922607</ele>
        <time>2020-09-20T14:49:19Z</time>
      </trkpt>
      <trkpt lat="48.55447" lon="7.61213">
        <ele>154.01922607</ele>
        <time>2020-09-20T14:49:21Z</time>
      </trkpt>
      <trkpt lat="48.55454" lon="7.61232">
        <ele>154.01922607</ele>
        <time>2020-09-20T14:49:23Z</time>
      </trkpt>
      <trkpt lat="48.55462" lon="7.61255">
        <ele>154.01922607</ele>
        <time>2020-09-20T14:49:25Z</time>
      </trkpt>
      <trkpt lat="48.55468" lon="7.61273">
        <ele>154.01922607</ele>
        <time>2020-09-20T14:49:26Z</time>
      </trkpt>
      <trkpt lat="48.55474" lon="7.61286">
        <ele>154.01922607</ele>
        <time>2020-09-20T14:49:27Z</time>
      </trkpt>
      <trkpt lat="48.55478" lon="7.61298">
        <ele>154.01922607</ele>
        <time>2020-09-20T14:49:29Z</time>
      </trkpt>
      <trkpt lat="48.55479" lon="7.61313">
        <ele>154.01922607</ele>
        <time>2020-09-20T14:49:31Z</time>
      </trkpt>
      <trkpt lat="48.55484" lon="7.61332">
        <ele>154.01922607</ele>
        <time>2020-09-20T14:49:33Z</time>
      </trkpt>
      <trkpt lat="48.55492" lon="7.61349">
        <ele>154.01922607</ele>
        <time>2020-09-20T14:49:35Z</time>
      </trkpt>
      <trkpt lat="48.55496" lon="7.61363">
        <ele>154.01922607</ele>
        <time>2020-09-20T14:49:37Z</time>
      </trkpt>
      <trkpt lat="48.55498" lon="7.6138">
        <ele>154.01922607</ele>
        <time>2020-09-20T14:49:39Z</time>
      </trkpt>
      <trkpt lat="48.55499" lon="7.61398">
        <ele>154.01922607</ele>
        <time>2020-09-20T14:49:41Z</time>
      </trkpt>
      <trkpt lat="48.55502" lon="7.61417">
        <ele>154.01922607</ele>
        <time>2020-09-20T14:49:43Z</time>
      </trkpt>
      <trkpt lat="48.55508" lon="7.61437">
        <ele>154.01922607</ele>
        <time>2020-09-20T14:49:45Z</time>
      </trkpt>
      <trkpt lat="48.55514" lon="7.61456">
        <ele>154.01922607</ele>
        <time>2020-09-20T14:49:47Z</time>
      </trkpt>
      <trkpt lat="48.5552" lon="7.61476">
        <ele>154.01922607</ele>
        <time>2020-09-20T14:49:49Z</time>
      </trkpt>
      <trkpt lat="48.55526" lon="7.61492">
        <ele>154.01922607</ele>
        <time>2020-09-20T14:49:51Z</time>
      </trkpt>
      <trkpt lat="48.55528" lon="7.61495">
        <ele>153.41165161</ele>
        <time>2020-09-20T14:49:52Z</time>
      </trkpt>
      <trkpt lat="48.55532" lon="7.61508">
        <ele>153.41165161</ele>
        <time>2020-09-20T14:49:53Z</time>
      </trkpt>
      <trkpt lat="48.55538" lon="7.61525">
        <ele>153.41165161</ele>
        <time>2020-09-20T14:49:55Z</time>
      </trkpt>
      <trkpt lat="48.55544" lon="7.61542">
        <ele>153.41165161</ele>
        <time>2020-09-20T14:49:57Z</time>
      </trkpt>
      <trkpt lat="48.55552" lon="7.61559">
        <ele>153.41165161</ele>
        <time>2020-09-20T14:49:59Z</time>
      </trkpt>
      <trkpt lat="48.55562" lon="7.61574">
        <ele>153.41165161</ele>
        <time>2020-09-20T14:50:01Z</time>
      </trkpt>
      <trkpt lat="48.55572" lon="7.61588">
        <ele>153.41165161</ele>
        <time>2020-09-20T14:50:03Z</time>
      </trkpt>
      <trkpt lat="48.55579" lon="7.61603">
        <ele>153.41165161</ele>
        <time>2020-09-20T14:50:05Z</time>
      </trkpt>
      <trkpt lat="48.55582" lon="7.61619">
        <ele>153.41165161</ele>
        <time>2020-09-20T14:50:07Z</time>
      </trkpt>
      <trkpt lat="48.55588" lon="7.61637">
        <ele>153.41165161</ele>
        <time>2020-09-20T14:50:09Z</time>
      </trkpt>
      <trkpt lat="48.55594" lon="7.61655">
        <ele>153.41165161</ele>
        <time>2020-09-20T14:50:11Z</time>
      </trkpt>
      <trkpt lat="48.55602" lon="7.61672">
        <ele>153.41165161</ele>
        <time>2020-09-20T14:50:13Z</time>
      </trkpt>
      <trkpt lat="48.55608" lon="7.61688">
        <ele>153.41165161</ele>
        <time>2020-09-20T14:50:15Z</time>
      </trkpt>
      <trkpt lat="48.55613" lon="7.61701">
        <ele>153.41165161</ele>
        <time>2020-09-20T14:50:17Z</time>
      </trkpt>
      <trkpt lat="48.55624" lon="7.61711">
        <ele>153.41165161</ele>
        <time>2020-09-20T14:50:19Z</time>
      </trkpt>
      <trkpt lat="48.55634" lon="7.61721">
        <ele>153.41165161</ele>
        <time>2020-09-20T14:50:21Z</time>
      </trkpt>
      <trkpt lat="48.55644" lon="7.61729">
        <ele>153.41165161</ele>
        <time>2020-09-20T14:50:23Z</time>
      </trkpt>
      <trkpt lat="48.55652" lon="7.61738">
        <ele>153.9181366</ele>
        <time>2020-09-20T14:50:26Z</time>
      </trkpt>
      <trkpt lat="48.55661" lon="7.61746">
        <ele>153.9181366</ele>
        <time>2020-09-20T14:50:29Z</time>
      </trkpt>
      <trkpt lat="48.55671" lon="7.61747">
        <ele>155.83093262</ele>
        <time>2020-09-20T14:50:33Z</time>
      </trkpt>
      <trkpt lat="48.55682" lon="7.61744">
        <ele>155.83093262</ele>
        <time>2020-09-20T14:50:36Z</time>
      </trkpt>
      <trkpt lat="48.55693" lon="7.61747">
        <ele>155.54159546</ele>
        <time>2020-09-20T14:50:38Z</time>
      </trkpt>
      <trkpt lat="48.55704" lon="7.61754">
        <ele>155.54159546</ele>
        <time>2020-09-20T14:50:40Z</time>
      </trkpt>
      <trkpt lat="48.55716" lon="7.61762">
        <ele>155.54159546</ele>
        <time>2020-09-20T14:50:42Z</time>
      </trkpt>
      <trkpt lat="48.55726" lon="7.6177">
        <ele>155.54159546</ele>
        <time>2020-09-20T14:50:44Z</time>
      </trkpt>
      <trkpt lat="48.55736" lon="7.61776">
        <ele>155.54159546</ele>
        <time>2020-09-20T14:50:46Z</time>
      </trkpt>
      <trkpt lat="48.5575" lon="7.61784">
        <ele>155.54159546</ele>
        <time>2020-09-20T14:50:48Z</time>
      </trkpt>
      <trkpt lat="48.55761" lon="7.61793">
        <ele>155.54159546</ele>
        <time>2020-09-20T14:50:50Z</time>
      </trkpt>
      <trkpt lat="48.55768" lon="7.61797">
        <ele>154.58822632</ele>
        <time>2020-09-20T14:50:51Z</time>
      </trkpt>
      <trkpt lat="48.55776" lon="7.61801">
        <ele>154.58822632</ele>
        <time>2020-09-20T14:50:53Z</time>
      </trkpt>
      <trkpt lat="48.55787" lon="7.61807">
        <ele>154.58822632</ele>
        <time>2020-09-20T14:50:55Z</time>
      </trkpt>
      <trkpt lat="48.558" lon="7.61813">
        <ele>154.58822632</ele>
        <time>2020-09-20T14:50:57Z</time>
      </trkpt>
      <trkpt lat="48.5581" lon="7.61822">
        <ele>154.58822632</ele>
        <time>2020-09-20T14:50:59Z</time>
      </trkpt>
      <trkpt lat="48.5582" lon="7.61828">
        <ele>154.58822632</ele>
        <time>2020-09-20T14:51:01Z</time>
      </trkpt>
      <trkpt lat="48.5583" lon="7.61833">
        <ele>154.58822632</ele>
        <time>2020-09-20T14:51:04Z</time>
      </trkpt>
      <trkpt lat="48.55845" lon="7.61841">
        <ele>154.58822632</ele>
        <time>2020-09-20T14:51:07Z</time>
      </trkpt>
      <trkpt lat="48.55856" lon="7.61849">
        <ele>154.58822632</ele>
        <time>2020-09-20T14:51:09Z</time>
      </trkpt>
      <trkpt lat="48.55867" lon="7.61855">
        <ele>154.58822632</ele>
        <time>2020-09-20T14:51:11Z</time>
      </trkpt>
      <trkpt lat="48.5588" lon="7.61864">
        <ele>154.58822632</ele>
        <time>2020-09-20T14:51:13Z</time>
      </trkpt>
      <trkpt lat="48.55895" lon="7.61873">
        <ele>154.58822632</ele>
        <time>2020-09-20T14:51:15Z</time>
      </trkpt>
      <trkpt lat="48.55907" lon="7.61878">
        <ele>154.58822632</ele>
        <time>2020-09-20T14:51:17Z</time>
      </trkpt>
      <trkpt lat="48.5592" lon="7.61885">
        <ele>154.58822632</ele>
        <time>2020-09-20T14:51:19Z</time>
      </trkpt>
      <trkpt lat="48.55934" lon="7.61891">
        <ele>154.58822632</ele>
        <time>2020-09-20T14:51:21Z</time>
      </trkpt>
      <trkpt lat="48.55948" lon="7.61898">
        <ele>154.58822632</ele>
        <time>2020-09-20T14:51:23Z</time>
      </trkpt>
      <trkpt lat="48.55961" lon="7.61904">
        <ele>154.77890015</ele>
        <time>2020-09-20T14:51:25Z</time>
      </trkpt>
      <trkpt lat="48.55971" lon="7.61909">
        <ele>154.77890015</ele>
        <time>2020-09-20T14:51:27Z</time>
      </trkpt>
      <trkpt lat="48.55981" lon="7.6191">
        <ele>154.77890015</ele>
        <time>2020-09-20T14:51:29Z</time>
      </trkpt>
      <trkpt lat="48.55992" lon="7.61908">
        <ele>154.77890015</ele>
        <time>2020-09-20T14:51:31Z</time>
      </trkpt>
      <trkpt lat="48.56005" lon="7.61908">
        <ele>154.77890015</ele>
        <time>2020-09-20T14:51:33Z</time>
      </trkpt>
      <trkpt lat="48.56017" lon="7.61908">
        <ele>154.77890015</ele>
        <time>2020-09-20T14:51:35Z</time>
      </trkpt>
      <trkpt lat="48.56029" lon="7.61904">
        <ele>154.77890015</ele>
        <time>2020-09-20T14:51:37Z</time>
      </trkpt>
      <trkpt lat="48.56039" lon="7.619">
        <ele>154.77890015</ele>
        <time>2020-09-20T14:51:39Z</time>
      </trkpt>
      <trkpt lat="48.56049" lon="7.61897">
        <ele>154.77890015</ele>
        <time>2020-09-20T14:51:41Z</time>
      </trkpt>
      <trkpt lat="48.5606" lon="7.61895">
        <ele>154.77890015</ele>
        <time>2020-09-20T14:51:43Z</time>
      </trkpt>
      <trkpt lat="48.56071" lon="7.61891">
        <ele>154.77890015</ele>
        <time>2020-09-20T14:51:45Z</time>
      </trkpt>
      <trkpt lat="48.5608" lon="7.61889">
        <ele>154.77890015</ele>
        <time>2020-09-20T14:51:47Z</time>
      </trkpt>
      <trkpt lat="48.56091" lon="7.6189">
        <ele>154.77890015</ele>
        <time>2020-09-20T14:51:49Z</time>
      </trkpt>
      <trkpt lat="48.56105" lon="7.61901">
        <ele>153.30723572</ele>
        <time>2020-09-20T14:51:51Z</time>
      </trkpt>
      <trkpt lat="48.56114" lon="7.61905">
        <ele>153.30723572</ele>
        <time>2020-09-20T14:51:53Z</time>
      </trkpt>
      <trkpt lat="48.56124" lon="7.61908">
        <ele>153.30723572</ele>
        <time>2020-09-20T14:51:55Z</time>
      </trkpt>
      <trkpt lat="48.56134" lon="7.6191">
        <ele>153.30723572</ele>
        <time>2020-09-20T14:51:57Z</time>
      </trkpt>
      <trkpt lat="48.56146" lon="7.6191">
        <ele>153.30723572</ele>
        <time>2020-09-20T14:52:00Z</time>
      </trkpt>
      <trkpt lat="48.56159" lon="7.61907">
        <ele>153.30723572</ele>
        <time>2020-09-20T14:52:02Z</time>
      </trkpt>
      <trkpt lat="48.56172" lon="7.61906">
        <ele>153.30723572</ele>
        <time>2020-09-20T14:52:04Z</time>
      </trkpt>
      <trkpt lat="48.56185" lon="7.61905">
        <ele>153.30723572</ele>
        <time>2020-09-20T14:52:06Z</time>
      </trkpt>
      <trkpt lat="48.56197" lon="7.61903">
        <ele>153.30723572</ele>
        <time>2020-09-20T14:52:09Z</time>
      </trkpt>
      <trkpt lat="48.56211" lon="7.61899">
        <ele>153.30723572</ele>
        <time>2020-09-20T14:52:11Z</time>
      </trkpt>
      <trkpt lat="48.56223" lon="7.61894">
        <ele>153.30723572</ele>
        <time>2020-09-20T14:52:13Z</time>
      </trkpt>
      <trkpt lat="48.56233" lon="7.61888">
        <ele>153.30723572</ele>
        <time>2020-09-20T14:52:15Z</time>
      </trkpt>
      <trkpt lat="48.56245" lon="7.61882">
        <ele>153.30723572</ele>
        <time>2020-09-20T14:52:17Z</time>
      </trkpt>
      <trkpt lat="48.56256" lon="7.61875">
        <ele>153.30723572</ele>
        <time>2020-09-20T14:52:19Z</time>
      </trkpt>
      <trkpt lat="48.56265" lon="7.61869">
        <ele>153.30723572</ele>
        <time>2020-09-20T14:52:21Z</time>
      </trkpt>
      <trkpt lat="48.56275" lon="7.6186">
        <ele>153.30723572</ele>
        <time>2020-09-20T14:52:23Z</time>
      </trkpt>
      <trkpt lat="48.56284" lon="7.61847">
        <ele>153.30723572</ele>
        <time>2020-09-20T14:52:25Z</time>
      </trkpt>
      <trkpt lat="48.56292" lon="7.61834">
        <ele>153.30723572</ele>
        <time>2020-09-20T14:52:27Z</time>
      </trkpt>
      <trkpt lat="48.56301" lon="7.61824">
        <ele>153.30723572</ele>
        <time>2020-09-20T14:52:29Z</time>
      </trkpt>
      <trkpt lat="48.56312" lon="7.61814">
        <ele>153.30723572</ele>
        <time>2020-09-20T14:52:31Z</time>
      </trkpt>
      <trkpt lat="48.56322" lon="7.61811">
        <ele>153.30723572</ele>
        <time>2020-09-20T14:52:33Z</time>
      </trkpt>
      <trkpt lat="48.56333" lon="7.61812">
        <ele>153.30723572</ele>
        <time>2020-09-20T14:52:36Z</time>
      </trkpt>
      <trkpt lat="48.56347" lon="7.61816">
        <ele>153.30723572</ele>
        <time>2020-09-20T14:52:38Z</time>
      </trkpt>
      <trkpt lat="48.56359" lon="7.61822">
        <ele>153.30723572</ele>
        <time>2020-09-20T14:52:40Z</time>
      </trkpt>
      <trkpt lat="48.5637" lon="7.61827">
        <ele>153.30723572</ele>
        <time>2020-09-20T14:52:42Z</time>
      </trkpt>
      <trkpt lat="48.56379" lon="7.61834">
        <ele>153.30723572</ele>
        <time>2020-09-20T14:52:44Z</time>
      </trkpt>
      <trkpt lat="48.56388" lon="7.61842">
        <ele>153.30723572</ele>
        <time>2020-09-20T14:52:46Z</time>
      </trkpt>
      <trkpt lat="48.56395" lon="7.61851">
        <ele>153.30723572</ele>
        <time>2020-09-20T14:52:48Z</time>
      </trkpt>
      <trkpt lat="48.56406" lon="7.61863">
        <ele>153.30723572</ele>
        <time>2020-09-20T14:52:50Z</time>
      </trkpt>
      <trkpt lat="48.56415" lon="7.61871">
        <ele>152.86328125</ele>
        <time>2020-09-20T14:52:51Z</time>
      </trkpt>
      <trkpt lat="48.56422" lon="7.61878">
        <ele>152.86328125</ele>
        <time>2020-09-20T14:52:53Z</time>
      </trkpt>
      <trkpt lat="48.56432" lon="7.61886">
        <ele>152.86328125</ele>
        <time>2020-09-20T14:52:55Z</time>
      </trkpt>
      <trkpt lat="48.56442" lon="7.61893">
        <ele>152.86328125</ele>
        <time>2020-09-20T14:52:57Z</time>
      </trkpt>
      <trkpt lat="48.5645" lon="7.619">
        <ele>152.86328125</ele>
        <time>2020-09-20T14:52:59Z</time>
      </trkpt>
      <trkpt lat="48.5646" lon="7.61908">
        <ele>152.86328125</ele>
        <time>2020-09-20T14:53:01Z</time>
      </trkpt>
      <trkpt lat="48.56471" lon="7.61917">
        <ele>152.86328125</ele>
        <time>2020-09-20T14:53:03Z</time>
      </trkpt>
      <trkpt lat="48.56484" lon="7.61928">
        <ele>152.86328125</ele>
        <time>2020-09-20T14:53:05Z</time>
      </trkpt>
      <trkpt lat="48.56494" lon="7.61937">
        <ele>152.86328125</ele>
        <time>2020-09-20T14:53:07Z</time>
      </trkpt>
      <trkpt lat="48.56505" lon="7.61947">
        <ele>152.86328125</ele>
        <time>2020-09-20T14:53:09Z</time>
      </trkpt>
      <trkpt lat="48.56516" lon="7.61955">
        <ele>152.86328125</ele>
        <time>2020-09-20T14:53:11Z</time>
      </trkpt>
      <trkpt lat="48.56528" lon="7.61965">
        <ele>152.86328125</ele>
        <time>2020-09-20T14:53:13Z</time>
      </trkpt>
      <trkpt lat="48.56539" lon="7.61976">
        <ele>152.86328125</ele>
        <time>2020-09-20T14:53:15Z</time>
      </trkpt>
      <trkpt lat="48.5655" lon="7.61987">
        <ele>152.86328125</ele>
        <time>2020-09-20T14:53:17Z</time>
      </trkpt>
      <trkpt lat="48.56561" lon="7.61995">
        <ele>152.86328125</ele>
        <time>2020-09-20T14:53:19Z</time>
      </trkpt>
      <trkpt lat="48.56572" lon="7.62002">
        <ele>152.86328125</ele>
        <time>2020-09-20T14:53:21Z</time>
      </trkpt>
      <trkpt lat="48.56584" lon="7.6201">
        <ele>152.86328125</ele>
        <time>2020-09-20T14:53:23Z</time>
      </trkpt>
      <trkpt lat="48.56595" lon="7.62016">
        <ele>152.86328125</ele>
        <time>2020-09-20T14:53:25Z</time>
      </trkpt>
      <trkpt lat="48.56607" lon="7.62024">
        <ele>152.86328125</ele>
        <time>2020-09-20T14:53:27Z</time>
      </trkpt>
      <trkpt lat="48.56619" lon="7.62032">
        <ele>152.86328125</ele>
        <time>2020-09-20T14:53:29Z</time>
      </trkpt>
      <trkpt lat="48.5663" lon="7.62039">
        <ele>152.86328125</ele>
        <time>2020-09-20T14:53:31Z</time>
      </trkpt>
      <trkpt lat="48.56642" lon="7.62049">
        <ele>152.86328125</ele>
        <time>2020-09-20T14:53:33Z</time>
      </trkpt>
      <trkpt lat="48.5665" lon="7.62058">
        <ele>152.86328125</ele>
        <time>2020-09-20T14:53:35Z</time>
      </trkpt>
      <trkpt lat="48.56659" lon="7.62067">
        <ele>152.86328125</ele>
        <time>2020-09-20T14:53:37Z</time>
      </trkpt>
      <trkpt lat="48.56672" lon="7.62074">
        <ele>152.86328125</ele>
        <time>2020-09-20T14:53:39Z</time>
      </trkpt>
      <trkpt lat="48.56685" lon="7.62081">
        <ele>152.86328125</ele>
        <time>2020-09-20T14:53:41Z</time>
      </trkpt>
      <trkpt lat="48.56696" lon="7.6209">
        <ele>152.86328125</ele>
        <time>2020-09-20T14:53:43Z</time>
      </trkpt>
      <trkpt lat="48.56707" lon="7.62099">
        <ele>152.86328125</ele>
        <time>2020-09-20T14:53:45Z</time>
      </trkpt>
      <trkpt lat="48.56714" lon="7.62108">
        <ele>152.86328125</ele>
        <time>2020-09-20T14:53:47Z</time>
      </trkpt>
      <trkpt lat="48.5672" lon="7.6212">
        <ele>152.86328125</ele>
        <time>2020-09-20T14:53:50Z</time>
      </trkpt>
      <trkpt lat="48.56733" lon="7.62132">
        <ele>152.35964966</ele>
        <time>2020-09-20T14:53:51Z</time>
      </trkpt>
      <trkpt lat="48.56741" lon="7.62142">
        <ele>152.35964966</ele>
        <time>2020-09-20T14:53:53Z</time>
      </trkpt>
      <trkpt lat="48.56748" lon="7.62155">
        <ele>152.35964966</ele>
        <time>2020-09-20T14:53:55Z</time>
      </trkpt>
      <trkpt lat="48.56756" lon="7.62165">
        <ele>152.35964966</ele>
        <time>2020-09-20T14:53:57Z</time>
      </trkpt>
      <trkpt lat="48.56767" lon="7.62178">
        <ele>152.35964966</ele>
        <time>2020-09-20T14:53:59Z</time>
      </trkpt>
      <trkpt lat="48.56777" lon="7.62191">
        <ele>152.35964966</ele>
        <time>2020-09-20T14:54:01Z</time>
      </trkpt>
      <trkpt lat="48.56789" lon="7.62201">
        <ele>152.35964966</ele>
        <time>2020-09-20T14:54:03Z</time>
      </trkpt>
      <trkpt lat="48.56799" lon="7.6221">
        <ele>152.35964966</ele>
        <time>2020-09-20T14:54:05Z</time>
      </trkpt>
      <trkpt lat="48.56809" lon="7.62215">
        <ele>152.35964966</ele>
        <time>2020-09-20T14:54:07Z</time>
      </trkpt>
      <trkpt lat="48.56823" lon="7.6222">
        <ele>152.35964966</ele>
        <time>2020-09-20T14:54:09Z</time>
      </trkpt>
      <trkpt lat="48.56836" lon="7.62226">
        <ele>152.35964966</ele>
        <time>2020-09-20T14:54:11Z</time>
      </trkpt>
      <trkpt lat="48.56847" lon="7.6223">
        <ele>152.35964966</ele>
        <time>2020-09-20T14:54:13Z</time>
      </trkpt>
      <trkpt lat="48.56858" lon="7.62239">
        <ele>152.35964966</ele>
        <time>2020-09-20T14:54:15Z</time>
      </trkpt>
      <trkpt lat="48.56868" lon="7.62246">
        <ele>152.35964966</ele>
        <time>2020-09-20T14:54:18Z</time>
      </trkpt>
      <trkpt lat="48.56879" lon="7.62255">
        <ele>152.35964966</ele>
        <time>2020-09-20T14:54:20Z</time>
      </trkpt>
      <trkpt lat="48.56891" lon="7.6226">
        <ele>152.35964966</ele>
        <time>2020-09-20T14:54:22Z</time>
      </trkpt>
      <trkpt lat="48.56905" lon="7.62267">
        <ele>152.35964966</ele>
        <time>2020-09-20T14:54:24Z</time>
      </trkpt>
      <trkpt lat="48.56918" lon="7.62274">
        <ele>152.35964966</ele>
        <time>2020-09-20T14:54:26Z</time>
      </trkpt>
      <trkpt lat="48.56927" lon="7.62286">
        <ele>152.35964966</ele>
        <time>2020-09-20T14:54:28Z</time>
      </trkpt>
      <trkpt lat="48.56937" lon="7.62298">
        <ele>152.35964966</ele>
        <time>2020-09-20T14:54:30Z</time>
      </trkpt>
      <trkpt lat="48.56949" lon="7.6231">
        <ele>152.35964966</ele>
        <time>2020-09-20T14:54:32Z</time>
      </trkpt>
      <trkpt lat="48.5696" lon="7.62323">
        <ele>152.35964966</ele>
        <time>2020-09-20T14:54:34Z</time>
      </trkpt>
      <trkpt lat="48.56969" lon="7.62336">
        <ele>152.35964966</ele>
        <time>2020-09-20T14:54:36Z</time>
      </trkpt>
      <trkpt lat="48.56978" lon="7.62348">
        <ele>152.35964966</ele>
        <time>2020-09-20T14:54:38Z</time>
      </trkpt>
      <trkpt lat="48.56987" lon="7.62361">
        <ele>152.35964966</ele>
        <time>2020-09-20T14:54:40Z</time>
      </trkpt>
      <trkpt lat="48.56997" lon="7.62374">
        <ele>152.35964966</ele>
        <time>2020-09-20T14:54:42Z</time>
      </trkpt>
      <trkpt lat="48.57007" lon="7.62389">
        <ele>152.35964966</ele>
        <time>2020-09-20T14:54:44Z</time>
      </trkpt>
      <trkpt lat="48.57015" lon="7.62403">
        <ele>152.35964966</ele>
        <time>2020-09-20T14:54:46Z</time>
      </trkpt>
      <trkpt lat="48.57025" lon="7.62416">
        <ele>152.35964966</ele>
        <time>2020-09-20T14:54:48Z</time>
      </trkpt>
      <trkpt lat="48.57035" lon="7.62428">
        <ele>152.35964966</ele>
        <time>2020-09-20T14:54:50Z</time>
      </trkpt>
      <trkpt lat="48.57042" lon="7.62437">
        <ele>152.39219666</ele>
        <time>2020-09-20T14:54:51Z</time>
      </trkpt>
      <trkpt lat="48.57047" lon="7.62446">
        <ele>152.39219666</ele>
        <time>2020-09-20T14:54:53Z</time>
      </trkpt>
      <trkpt lat="48.57056" lon="7.62462">
        <ele>152.39219666</ele>
        <time>2020-09-20T14:54:55Z</time>
      </trkpt>
      <trkpt lat="48.57064" lon="7.62476">
        <ele>152.39219666</ele>
        <time>2020-09-20T14:54:57Z</time>
      </trkpt>
      <trkpt lat="48.57072" lon="7.62491">
        <ele>152.39219666</ele>
        <time>2020-09-20T14:54:59Z</time>
      </trkpt>
      <trkpt lat="48.5708" lon="7.62503">
        <ele>152.39219666</ele>
        <time>2020-09-20T14:55:01Z</time>
      </trkpt>
      <trkpt lat="48.5709" lon="7.62512">
        <ele>152.39219666</ele>
        <time>2020-09-20T14:55:03Z</time>
      </trkpt>
      <trkpt lat="48.57101" lon="7.6252">
        <ele>152.39219666</ele>
        <time>2020-09-20T14:55:05Z</time>
      </trkpt>
      <trkpt lat="48.57111" lon="7.62527">
        <ele>152.39219666</ele>
        <time>2020-09-20T14:55:07Z</time>
      </trkpt>
      <trkpt lat="48.57122" lon="7.62532">
        <ele>152.39219666</ele>
        <time>2020-09-20T14:55:09Z</time>
      </trkpt>
      <trkpt lat="48.57134" lon="7.62537">
        <ele>152.39219666</ele>
        <time>2020-09-20T14:55:11Z</time>
      </trkpt>
      <trkpt lat="48.57147" lon="7.62543">
        <ele>152.39219666</ele>
        <time>2020-09-20T14:55:13Z</time>
      </trkpt>
      <trkpt lat="48.57161" lon="7.62549">
        <ele>152.39219666</ele>
        <time>2020-09-20T14:55:15Z</time>
      </trkpt>
      <trkpt lat="48.57175" lon="7.62554">
        <ele>152.39219666</ele>
        <time>2020-09-20T14:55:17Z</time>
      </trkpt>
      <trkpt lat="48.57186" lon="7.62558">
        <ele>152.39219666</ele>
        <time>2020-09-20T14:55:19Z</time>
      </trkpt>
      <trkpt lat="48.57197" lon="7.62561">
        <ele>152.39219666</ele>
        <time>2020-09-20T14:55:21Z</time>
      </trkpt>
      <trkpt lat="48.57207" lon="7.62565">
        <ele>152.39219666</ele>
        <time>2020-09-20T14:55:23Z</time>
      </trkpt>
      <trkpt lat="48.57217" lon="7.62572">
        <ele>152.39219666</ele>
        <time>2020-09-20T14:55:25Z</time>
      </trkpt>
      <trkpt lat="48.57232" lon="7.62577">
        <ele>152.39219666</ele>
        <time>2020-09-20T14:55:27Z</time>
      </trkpt>
      <trkpt lat="48.57244" lon="7.62582">
        <ele>152.22373962</ele>
        <time>2020-09-20T14:55:29Z</time>
      </trkpt>
      <trkpt lat="48.57256" lon="7.62587">
        <ele>152.22373962</ele>
        <time>2020-09-20T14:55:31Z</time>
      </trkpt>
      <trkpt lat="48.57267" lon="7.62593">
        <ele>152.22373962</ele>
        <time>2020-09-20T14:55:33Z</time>
      </trkpt>
      <trkpt lat="48.57278" lon="7.62596">
        <ele>152.22373962</ele>
        <time>2020-09-20T14:55:35Z</time>
      </trkpt>
      <trkpt lat="48.5729" lon="7.62601">
        <ele>152.22373962</ele>
        <time>2020-09-20T14:55:37Z</time>
      </trkpt>
      <trkpt lat="48.57299" lon="7.62608">
        <ele>152.22373962</ele>
        <time>2020-09-20T14:55:39Z</time>
      </trkpt>
      <trkpt lat="48.57312" lon="7.62615">
        <ele>152.22373962</ele>
        <time>2020-09-20T14:55:41Z</time>
      </trkpt>
      <trkpt lat="48.57326" lon="7.62619">
        <ele>152.22373962</ele>
        <time>2020-09-20T14:55:43Z</time>
      </trkpt>
      <trkpt lat="48.57337" lon="7.62624">
        <ele>152.22373962</ele>
        <time>2020-09-20T14:55:45Z</time>
      </trkpt>
      <trkpt lat="48.5735" lon="7.62629">
        <ele>152.22373962</ele>
        <time>2020-09-20T14:55:47Z</time>
      </trkpt>
      <trkpt lat="48.57362" lon="7.62635">
        <ele>152.22373962</ele>
        <time>2020-09-20T14:55:49Z</time>
      </trkpt>
      <trkpt lat="48.57378" lon="7.62642">
        <ele>151.03982544</ele>
        <time>2020-09-20T14:55:51Z</time>
      </trkpt>
      <trkpt lat="48.57387" lon="7.62646">
        <ele>151.03982544</ele>
        <time>2020-09-20T14:55:53Z</time>
      </trkpt>
      <trkpt lat="48.57399" lon="7.62653">
        <ele>151.03982544</ele>
        <time>2020-09-20T14:55:55Z</time>
      </trkpt>
      <trkpt lat="48.57409" lon="7.62657">
        <ele>151.03982544</ele>
        <time>2020-09-20T14:55:57Z</time>
      </trkpt>
      <trkpt lat="48.5742" lon="7.62661">
        <ele>151.03982544</ele>
        <time>2020-09-20T14:55:59Z</time>
      </trkpt>
      <trkpt lat="48.5743" lon="7.62667">
        <ele>151.03982544</ele>
        <time>2020-09-20T14:56:01Z</time>
      </trkpt>
      <trkpt lat="48.57442" lon="7.62671">
        <ele>151.03982544</ele>
        <time>2020-09-20T14:56:03Z</time>
      </trkpt>
      <trkpt lat="48.57455" lon="7.62678">
        <ele>151.03982544</ele>
        <time>2020-09-20T14:56:05Z</time>
      </trkpt>
      <trkpt lat="48.57466" lon="7.62685">
        <ele>151.03982544</ele>
        <time>2020-09-20T14:56:07Z</time>
      </trkpt>
      <trkpt lat="48.5748" lon="7.62688">
        <ele>151.03982544</ele>
        <time>2020-09-20T14:56:09Z</time>
      </trkpt>
      <trkpt lat="48.57493" lon="7.62693">
        <ele>151.03982544</ele>
        <time>2020-09-20T14:56:11Z</time>
      </trkpt>
      <trkpt lat="48.57504" lon="7.62704">
        <ele>151.03982544</ele>
        <time>2020-09-20T14:56:13Z</time>
      </trkpt>
      <trkpt lat="48.5751" lon="7.62719">
        <ele>151.03982544</ele>
        <time>2020-09-20T14:56:15Z</time>
      </trkpt>
      <trkpt lat="48.57517" lon="7.62735">
        <ele>151.03982544</ele>
        <time>2020-09-20T14:56:17Z</time>
      </trkpt>
      <trkpt lat="48.57522" lon="7.62749">
        <ele>151.03982544</ele>
        <time>2020-09-20T14:56:19Z</time>
      </trkpt>
      <trkpt lat="48.57529" lon="7.62761">
        <ele>151.03982544</ele>
        <time>2020-09-20T14:56:21Z</time>
      </trkpt>
      <trkpt lat="48.57534" lon="7.62774">
        <ele>151.03982544</ele>
        <time>2020-09-20T14:56:23Z</time>
      </trkpt>
      <trkpt lat="48.57539" lon="7.62788">
        <ele>151.03982544</ele>
        <time>2020-09-20T14:56:25Z</time>
      </trkpt>
      <trkpt lat="48.57547" lon="7.62803">
        <ele>151.03982544</ele>
        <time>2020-09-20T14:56:27Z</time>
      </trkpt>
      <trkpt lat="48.57554" lon="7.62816">
        <ele>151.03982544</ele>
        <time>2020-09-20T14:56:29Z</time>
      </trkpt>
      <trkpt lat="48.57563" lon="7.62826">
        <ele>151.03982544</ele>
        <time>2020-09-20T14:56:31Z</time>
      </trkpt>
      <trkpt lat="48.57575" lon="7.62833">
        <ele>151.03982544</ele>
        <time>2020-09-20T14:56:33Z</time>
      </trkpt>
      <trkpt lat="48.57589" lon="7.6284">
        <ele>151.03982544</ele>
        <time>2020-09-20T14:56:35Z</time>
      </trkpt>
      <trkpt lat="48.57601" lon="7.62847">
        <ele>151.03982544</ele>
        <time>2020-09-20T14:56:37Z</time>
      </trkpt>
      <trkpt lat="48.57611" lon="7.62853">
        <ele>151.03982544</ele>
        <time>2020-09-20T14:56:39Z</time>
      </trkpt>
      <trkpt lat="48.57621" lon="7.6286">
        <ele>151.03982544</ele>
        <time>2020-09-20T14:56:42Z</time>
      </trkpt>
      <trkpt lat="48.57628" lon="7.62865">
        <ele>151.09281921</ele>
        <time>2020-09-20T14:56:51Z</time>
      </trkpt>
      <trkpt lat="48.57632" lon="7.6287">
        <ele>152.29022217</ele>
        <time>2020-09-20T14:56:52Z</time>
      </trkpt>
      <trkpt lat="48.57638" lon="7.62874">
        <ele>151.50552368</ele>
        <time>2020-09-20T14:56:54Z</time>
      </trkpt>
      <trkpt lat="48.5765" lon="7.62883">
        <ele>151.50552368</ele>
        <time>2020-09-20T14:56:56Z</time>
      </trkpt>
      <trkpt lat="48.57662" lon="7.62891">
        <ele>150.12452698</ele>
        <time>2020-09-20T14:56:58Z</time>
      </trkpt>
      <trkpt lat="48.57672" lon="7.62898">
        <ele>150.12452698</ele>
        <time>2020-09-20T14:57:00Z</time>
      </trkpt>
      <trkpt lat="48.57681" lon="7.62907">
        <ele>150.12452698</ele>
        <time>2020-09-20T14:57:02Z</time>
      </trkpt>
      <trkpt lat="48.57691" lon="7.62919">
        <ele>150.12452698</ele>
        <time>2020-09-20T14:57:04Z</time>
      </trkpt>
      <trkpt lat="48.577" lon="7.62927">
        <ele>150.12452698</ele>
        <time>2020-09-20T14:57:06Z</time>
      </trkpt>
      <trkpt lat="48.57708" lon="7.62935">
        <ele>150.12452698</ele>
        <time>2020-09-20T14:57:08Z</time>
      </trkpt>
      <trkpt lat="48.57718" lon="7.62945">
        <ele>150.12452698</ele>
        <time>2020-09-20T14:57:10Z</time>
      </trkpt>
      <trkpt lat="48.57726" lon="7.62956">
        <ele>150.12452698</ele>
        <time>2020-09-20T14:57:12Z</time>
      </trkpt>
      <trkpt lat="48.57736" lon="7.62965">
        <ele>150.12452698</ele>
        <time>2020-09-20T14:57:14Z</time>
      </trkpt>
      <trkpt lat="48.57745" lon="7.62975">
        <ele>150.12452698</ele>
        <time>2020-09-20T14:57:16Z</time>
      </trkpt>
      <trkpt lat="48.57755" lon="7.62985">
        <ele>150.12452698</ele>
        <time>2020-09-20T14:57:18Z</time>
      </trkpt>
      <trkpt lat="48.57764" lon="7.62996">
        <ele>150.12452698</ele>
        <time>2020-09-20T14:57:20Z</time>
      </trkpt>
      <trkpt lat="48.57774" lon="7.63008">
        <ele>150.12452698</ele>
        <time>2020-09-20T14:57:22Z</time>
      </trkpt>
      <trkpt lat="48.57784" lon="7.6302">
        <ele>150.12452698</ele>
        <time>2020-09-20T14:57:24Z</time>
      </trkpt>
      <trkpt lat="48.57795" lon="7.63032">
        <ele>150.12452698</ele>
        <time>2020-09-20T14:57:26Z</time>
      </trkpt>
      <trkpt lat="48.57807" lon="7.63042">
        <ele>148.93470764</ele>
        <time>2020-09-20T14:57:28Z</time>
      </trkpt>
      <trkpt lat="48.57816" lon="7.63053">
        <ele>148.93470764</ele>
        <time>2020-09-20T14:57:30Z</time>
      </trkpt>
      <trkpt lat="48.57826" lon="7.63063">
        <ele>148.93470764</ele>
        <time>2020-09-20T14:57:32Z</time>
      </trkpt>
      <trkpt lat="48.57837" lon="7.63073">
        <ele>148.93470764</ele>
        <time>2020-09-20T14:57:34Z</time>
      </trkpt>
      <trkpt lat="48.57848" lon="7.63083">
        <ele>148.93470764</ele>
        <time>2020-09-20T14:57:36Z</time>
      </trkpt>
      <trkpt lat="48.57862" lon="7.63094">
        <ele>148.93470764</ele>
        <time>2020-09-20T14:57:38Z</time>
      </trkpt>
      <trkpt lat="48.57875" lon="7.63104">
        <ele>148.93470764</ele>
        <time>2020-09-20T14:57:40Z</time>
      </trkpt>
      <trkpt lat="48.57882" lon="7.63116">
        <ele>148.93470764</ele>
        <time>2020-09-20T14:57:42Z</time>
      </trkpt>
      <trkpt lat="48.5789" lon="7.63128">
        <ele>148.93470764</ele>
        <time>2020-09-20T14:57:44Z</time>
      </trkpt>
      <trkpt lat="48.579" lon="7.63138">
        <ele>148.93470764</ele>
        <time>2020-09-20T14:57:46Z</time>
      </trkpt>
      <trkpt lat="48.57909" lon="7.63147">
        <ele>148.93470764</ele>
        <time>2020-09-20T14:57:48Z</time>
      </trkpt>
      <trkpt lat="48.57917" lon="7.6316">
        <ele>148.93470764</ele>
        <time>2020-09-20T14:57:50Z</time>
      </trkpt>
      <trkpt lat="48.57923" lon="7.6317">
        <ele>147.87187195</ele>
        <time>2020-09-20T14:57:51Z</time>
      </trkpt>
      <trkpt lat="48.57931" lon="7.63177">
        <ele>147.87187195</ele>
        <time>2020-09-20T14:57:53Z</time>
      </trkpt>
      <trkpt lat="48.57941" lon="7.63188">
        <ele>147.87187195</ele>
        <time>2020-09-20T14:57:55Z</time>
      </trkpt>
      <trkpt lat="48.5795" lon="7.63198">
        <ele>147.87187195</ele>
        <time>2020-09-20T14:57:57Z</time>
      </trkpt>
      <trkpt lat="48.57959" lon="7.63208">
        <ele>147.87187195</ele>
        <time>2020-09-20T14:57:59Z</time>
      </trkpt>
      <trkpt lat="48.57967" lon="7.6322">
        <ele>147.87187195</ele>
        <time>2020-09-20T14:58:01Z</time>
      </trkpt>
      <trkpt lat="48.57975" lon="7.63235">
        <ele>147.87187195</ele>
        <time>2020-09-20T14:58:03Z</time>
      </trkpt>
      <trkpt lat="48.57976" lon="7.63254">
        <ele>147.87187195</ele>
        <time>2020-09-20T14:58:05Z</time>
      </trkpt>
      <trkpt lat="48.57974" lon="7.63275">
        <ele>147.87187195</ele>
        <time>2020-09-20T14:58:07Z</time>
      </trkpt>
      <trkpt lat="48.57971" lon="7.63295">
        <ele>147.87187195</ele>
        <time>2020-09-20T14:58:09Z</time>
      </trkpt>
      <trkpt lat="48.57965" lon="7.63314">
        <ele>147.87187195</ele>
        <time>2020-09-20T14:58:11Z</time>
      </trkpt>
      <trkpt lat="48.57957" lon="7.6333">
        <ele>147.87187195</ele>
        <time>2020-09-20T14:58:13Z</time>
      </trkpt>
      <trkpt lat="48.57949" lon="7.63347">
        <ele>147.87187195</ele>
        <time>2020-09-20T14:58:15Z</time>
      </trkpt>
      <trkpt lat="48.5794" lon="7.63365">
        <ele>147.87187195</ele>
        <time>2020-09-20T14:58:17Z</time>
      </trkpt>
      <trkpt lat="48.5793" lon="7.6338">
        <ele>147.87187195</ele>
        <time>2020-09-20T14:58:19Z</time>
      </trkpt>
      <trkpt lat="48.57921" lon="7.63394">
        <ele>147.87187195</ele>
        <time>2020-09-20T14:58:21Z</time>
      </trkpt>
      <trkpt lat="48.57912" lon="7.6341">
        <ele>147.87187195</ele>
        <time>2020-09-20T14:58:23Z</time>
      </trkpt>
      <trkpt lat="48.57904" lon="7.63424">
        <ele>147.87187195</ele>
        <time>2020-09-20T14:58:25Z</time>
      </trkpt>
      <trkpt lat="48.57896" lon="7.6344">
        <ele>147.87187195</ele>
        <time>2020-09-20T14:58:27Z</time>
      </trkpt>
      <trkpt lat="48.57888" lon="7.63454">
        <ele>147.87187195</ele>
        <time>2020-09-20T14:58:29Z</time>
      </trkpt>
      <trkpt lat="48.57881" lon="7.63465">
        <ele>147.87187195</ele>
        <time>2020-09-20T14:58:31Z</time>
      </trkpt>
      <trkpt lat="48.57873" lon="7.6348">
        <ele>147.87187195</ele>
        <time>2020-09-20T14:58:33Z</time>
      </trkpt>
      <trkpt lat="48.57866" lon="7.63498">
        <ele>147.87187195</ele>
        <time>2020-09-20T14:58:35Z</time>
      </trkpt>
      <trkpt lat="48.57858" lon="7.63515">
        <ele>147.87187195</ele>
        <time>2020-09-20T14:58:37Z</time>
      </trkpt>
      <trkpt lat="48.57851" lon="7.63531">
        <ele>147.87187195</ele>
        <time>2020-09-20T14:58:39Z</time>
      </trkpt>
      <trkpt lat="48.57844" lon="7.63547">
        <ele>147.87187195</ele>
        <time>2020-09-20T14:58:41Z</time>
      </trkpt>
      <trkpt lat="48.57836" lon="7.63561">
        <ele>147.87187195</ele>
        <time>2020-09-20T14:58:43Z</time>
      </trkpt>
      <trkpt lat="48.57827" lon="7.63573">
        <ele>147.87187195</ele>
        <time>2020-09-20T14:58:45Z</time>
      </trkpt>
      <trkpt lat="48.57818" lon="7.63586">
        <ele>147.87187195</ele>
        <time>2020-09-20T14:58:47Z</time>
      </trkpt>
      <trkpt lat="48.57811" lon="7.636">
        <ele>147.87187195</ele>
        <time>2020-09-20T14:58:49Z</time>
      </trkpt>
      <trkpt lat="48.57797" lon="7.63619">
        <ele>148.12232971</ele>
        <time>2020-09-20T14:58:51Z</time>
      </trkpt>
      <trkpt lat="48.57791" lon="7.63627">
        <ele>148.12232971</ele>
        <time>2020-09-20T14:58:53Z</time>
      </trkpt>
      <trkpt lat="48.57782" lon="7.63642">
        <ele>148.12232971</ele>
        <time>2020-09-20T14:58:55Z</time>
      </trkpt>
      <trkpt lat="48.57774" lon="7.63656">
        <ele>148.12232971</ele>
        <time>2020-09-20T14:58:57Z</time>
      </trkpt>
      <trkpt lat="48.57764" lon="7.63671">
        <ele>148.12232971</ele>
        <time>2020-09-20T14:58:59Z</time>
      </trkpt>
      <trkpt lat="48.57756" lon="7.63685">
        <ele>148.12232971</ele>
        <time>2020-09-20T14:59:01Z</time>
      </trkpt>
      <trkpt lat="48.57749" lon="7.63699">
        <ele>148.12232971</ele>
        <time>2020-09-20T14:59:03Z</time>
      </trkpt>
      <trkpt lat="48.57741" lon="7.63711">
        <ele>148.12232971</ele>
        <time>2020-09-20T14:59:05Z</time>
      </trkpt>
      <trkpt lat="48.57732" lon="7.63723">
        <ele>148.12232971</ele>
        <time>2020-09-20T14:59:07Z</time>
      </trkpt>
      <trkpt lat="48.57724" lon="7.63734">
        <ele>148.12232971</ele>
        <time>2020-09-20T14:59:09Z</time>
      </trkpt>
      <trkpt lat="48.57716" lon="7.63747">
        <ele>148.12232971</ele>
        <time>2020-09-20T14:59:11Z</time>
      </trkpt>
      <trkpt lat="48.57707" lon="7.63759">
        <ele>148.12232971</ele>
        <time>2020-09-20T14:59:13Z</time>
      </trkpt>
      <trkpt lat="48.577" lon="7.6377">
        <ele>148.12232971</ele>
        <time>2020-09-20T14:59:15Z</time>
      </trkpt>
      <trkpt lat="48.57691" lon="7.6378">
        <ele>148.12232971</ele>
        <time>2020-09-20T14:59:17Z</time>
      </trkpt>
      <trkpt lat="48.57684" lon="7.63792">
        <ele>148.12232971</ele>
        <time>2020-09-20T14:59:19Z</time>
      </trkpt>
      <trkpt lat="48.57676" lon="7.63804">
        <ele>148.12232971</ele>
        <time>2020-09-20T14:59:21Z</time>
      </trkpt>
      <trkpt lat="48.5767" lon="7.63816">
        <ele>148.12232971</ele>
        <time>2020-09-20T14:59:23Z</time>
      </trkpt>
      <trkpt lat="48.57673" lon="7.6383">
        <ele>148.12232971</ele>
        <time>2020-09-20T14:59:25Z</time>
      </trkpt>
      <trkpt lat="48.57683" lon="7.63842">
        <ele>148.12232971</ele>
        <time>2020-09-20T14:59:27Z</time>
      </trkpt>
      <trkpt lat="48.57692" lon="7.63855">
        <ele>148.12232971</ele>
        <time>2020-09-20T14:59:29Z</time>
      </trkpt>
      <trkpt lat="48.57699" lon="7.6387">
        <ele>148.12232971</ele>
        <time>2020-09-20T14:59:31Z</time>
      </trkpt>
      <trkpt lat="48.57706" lon="7.63885">
        <ele>148.12232971</ele>
        <time>2020-09-20T14:59:33Z</time>
      </trkpt>
      <trkpt lat="48.57712" lon="7.63901">
        <ele>148.12232971</ele>
        <time>2020-09-20T14:59:35Z</time>
      </trkpt>
      <trkpt lat="48.57719" lon="7.63916">
        <ele>148.12232971</ele>
        <time>2020-09-20T14:59:37Z</time>
      </trkpt>
      <trkpt lat="48.57727" lon="7.6393">
        <ele>148.12232971</ele>
        <time>2020-09-20T14:59:39Z</time>
      </trkpt>
      <trkpt lat="48.57734" lon="7.63945">
        <ele>148.12232971</ele>
        <time>2020-09-20T14:59:41Z</time>
      </trkpt>
      <trkpt lat="48.57739" lon="7.6396">
        <ele>148.12232971</ele>
        <time>2020-09-20T14:59:43Z</time>
      </trkpt>
      <trkpt lat="48.57744" lon="7.63974">
        <ele>148.12232971</ele>
        <time>2020-09-20T14:59:45Z</time>
      </trkpt>
      <trkpt lat="48.5775" lon="7.63988">
        <ele>148.12232971</ele>
        <time>2020-09-20T14:59:47Z</time>
      </trkpt>
      <trkpt lat="48.57753" lon="7.64003">
        <ele>148.12232971</ele>
        <time>2020-09-20T14:59:49Z</time>
      </trkpt>
      <trkpt lat="48.57757" lon="7.64024">
        <ele>147.77371216</ele>
        <time>2020-09-20T14:59:51Z</time>
      </trkpt>
      <trkpt lat="48.57761" lon="7.64036">
        <ele>147.77371216</ele>
        <time>2020-09-20T14:59:53Z</time>
      </trkpt>
      <trkpt lat="48.57764" lon="7.64054">
        <ele>147.77371216</ele>
        <time>2020-09-20T14:59:55Z</time>
      </trkpt>
      <trkpt lat="48.57764" lon="7.64071">
        <ele>147.77371216</ele>
        <time>2020-09-20T14:59:57Z</time>
      </trkpt>
      <trkpt lat="48.57764" lon="7.64089">
        <ele>147.77371216</ele>
        <time>2020-09-20T14:59:59Z</time>
      </trkpt>
      <trkpt lat="48.57764" lon="7.64105">
        <ele>147.77371216</ele>
        <time>2020-09-20T15:00:01Z</time>
      </trkpt>
      <trkpt lat="48.57762" lon="7.64119">
        <ele>147.77371216</ele>
        <time>2020-09-20T15:00:03Z</time>
      </trkpt>
      <trkpt lat="48.57756" lon="7.64138">
        <ele>147.77371216</ele>
        <time>2020-09-20T15:00:05Z</time>
      </trkpt>
      <trkpt lat="48.57758" lon="7.64153">
        <ele>147.77371216</ele>
        <time>2020-09-20T15:00:07Z</time>
      </trkpt>
      <trkpt lat="48.57765" lon="7.64167">
        <ele>147.77371216</ele>
        <time>2020-09-20T15:00:09Z</time>
      </trkpt>
      <trkpt lat="48.57772" lon="7.64184">
        <ele>147.77371216</ele>
        <time>2020-09-20T15:00:11Z</time>
      </trkpt>
      <trkpt lat="48.57779" lon="7.64201">
        <ele>147.77371216</ele>
        <time>2020-09-20T15:00:13Z</time>
      </trkpt>
      <trkpt lat="48.57782" lon="7.64218">
        <ele>147.77371216</ele>
        <time>2020-09-20T15:00:15Z</time>
      </trkpt>
      <trkpt lat="48.57788" lon="7.64233">
        <ele>147.77371216</ele>
        <time>2020-09-20T15:00:17Z</time>
      </trkpt>
      <trkpt lat="48.57795" lon="7.64246">
        <ele>147.77371216</ele>
        <time>2020-09-20T15:00:19Z</time>
      </trkpt>
      <trkpt lat="48.57803" lon="7.64255">
        <ele>147.77371216</ele>
        <time>2020-09-20T15:00:21Z</time>
      </trkpt>
      <trkpt lat="48.57814" lon="7.64263">
        <ele>147.77371216</ele>
        <time>2020-09-20T15:00:23Z</time>
      </trkpt>
      <trkpt lat="48.57826" lon="7.64271">
        <ele>147.77371216</ele>
        <time>2020-09-20T15:00:25Z</time>
      </trkpt>
      <trkpt lat="48.57837" lon="7.64278">
        <ele>147.77371216</ele>
        <time>2020-09-20T15:00:27Z</time>
      </trkpt>
      <trkpt lat="48.57846" lon="7.64285">
        <ele>147.77371216</ele>
        <time>2020-09-20T15:00:29Z</time>
      </trkpt>
      <trkpt lat="48.57853" lon="7.64297">
        <ele>147.77371216</ele>
        <time>2020-09-20T15:00:31Z</time>
      </trkpt>
      <trkpt lat="48.57857" lon="7.64314">
        <ele>147.77371216</ele>
        <time>2020-09-20T15:00:33Z</time>
      </trkpt>
      <trkpt lat="48.57856" lon="7.64333">
        <ele>147.77371216</ele>
        <time>2020-09-20T15:00:35Z</time>
      </trkpt>
      <trkpt lat="48.57857" lon="7.6435">
        <ele>147.77371216</ele>
        <time>2020-09-20T15:00:37Z</time>
      </trkpt>
      <trkpt lat="48.57856" lon="7.64371">
        <ele>147.77371216</ele>
        <time>2020-09-20T15:00:39Z</time>
      </trkpt>
      <trkpt lat="48.57856" lon="7.6439">
        <ele>147.77371216</ele>
        <time>2020-09-20T15:00:41Z</time>
      </trkpt>
      <trkpt lat="48.57856" lon="7.64408">
        <ele>147.77371216</ele>
        <time>2020-09-20T15:00:43Z</time>
      </trkpt>
      <trkpt lat="48.57857" lon="7.64426">
        <ele>147.77371216</ele>
        <time>2020-09-20T15:00:45Z</time>
      </trkpt>
      <trkpt lat="48.57858" lon="7.64444">
        <ele>147.77371216</ele>
        <time>2020-09-20T15:00:47Z</time>
      </trkpt>
      <trkpt lat="48.57859" lon="7.6446">
        <ele>147.77371216</ele>
        <time>2020-09-20T15:00:49Z</time>
      </trkpt>
      <trkpt lat="48.57864" lon="7.64469">
        <ele>146.92681885</ele>
        <time>2020-09-20T15:00:52Z</time>
      </trkpt>
      <trkpt lat="48.57871" lon="7.64478">
        <ele>146.92681885</ele>
        <time>2020-09-20T15:00:54Z</time>
      </trkpt>
      <trkpt lat="48.57883" lon="7.64486">
        <ele>146.92681885</ele>
        <time>2020-09-20T15:00:56Z</time>
      </trkpt>
      <trkpt lat="48.57896" lon="7.64492">
        <ele>146.92681885</ele>
        <time>2020-09-20T15:00:58Z</time>
      </trkpt>
      <trkpt lat="48.5791" lon="7.64498">
        <ele>146.92681885</ele>
        <time>2020-09-20T15:01:00Z</time>
      </trkpt>
      <trkpt lat="48.57922" lon="7.64502">
        <ele>146.92681885</ele>
        <time>2020-09-20T15:01:02Z</time>
      </trkpt>
      <trkpt lat="48.57934" lon="7.64509">
        <ele>146.92681885</ele>
        <time>2020-09-20T15:01:04Z</time>
      </trkpt>
      <trkpt lat="48.57942" lon="7.64528">
        <ele>146.92681885</ele>
        <time>2020-09-20T15:01:06Z</time>
      </trkpt>
      <trkpt lat="48.5795" lon="7.64545">
        <ele>146.92681885</ele>
        <time>2020-09-20T15:01:08Z</time>
      </trkpt>
      <trkpt lat="48.57957" lon="7.64562">
        <ele>146.92681885</ele>
        <time>2020-09-20T15:01:10Z</time>
      </trkpt>
      <trkpt lat="48.57964" lon="7.64578">
        <ele>146.92681885</ele>
        <time>2020-09-20T15:01:12Z</time>
      </trkpt>
      <trkpt lat="48.57971" lon="7.64595">
        <ele>146.92681885</ele>
        <time>2020-09-20T15:01:14Z</time>
      </trkpt>
      <trkpt lat="48.57971" lon="7.64611">
        <ele>146.92681885</ele>
        <time>2020-09-20T15:01:17Z</time>
      </trkpt>
      <trkpt lat="48.57974" lon="7.64626">
        <ele>146.92681885</ele>
        <time>2020-09-20T15:01:20Z</time>
      </trkpt>
      <trkpt lat="48.57986" lon="7.64635">
        <ele>147.54298401</ele>
        <time>2020-09-20T15:01:22Z</time>
      </trkpt>
      <trkpt lat="48.57996" lon="7.6464">
        <ele>147.54298401</ele>
        <time>2020-09-20T15:01:25Z</time>
      </trkpt>
      <trkpt lat="48.58009" lon="7.6464">
        <ele>149.30288696</ele>
        <time>2020-09-20T15:01:28Z</time>
      </trkpt>
      <trkpt lat="48.58022" lon="7.64639">
        <ele>149.30288696</ele>
        <time>2020-09-20T15:01:31Z</time>
      </trkpt>
      <trkpt lat="48.58033" lon="7.64643">
        <ele>149.30288696</ele>
        <time>2020-09-20T15:01:33Z</time>
      </trkpt>
      <trkpt lat="48.58043" lon="7.6465">
        <ele>149.30288696</ele>
        <time>2020-09-20T15:01:35Z</time>
      </trkpt>
      <trkpt lat="48.58055" lon="7.64655">
        <ele>150.04450989</ele>
        <time>2020-09-20T15:01:37Z</time>
      </trkpt>
      <trkpt lat="48.58067" lon="7.64667">
        <ele>150.04450989</ele>
        <time>2020-09-20T15:01:39Z</time>
      </trkpt>
      <trkpt lat="48.58075" lon="7.64687">
        <ele>147.99014282</ele>
        <time>2020-09-20T15:01:41Z</time>
      </trkpt>
      <trkpt lat="48.58083" lon="7.64707">
        <ele>147.99014282</ele>
        <time>2020-09-20T15:01:43Z</time>
      </trkpt>
      <trkpt lat="48.58095" lon="7.64717">
        <ele>147.99014282</ele>
        <time>2020-09-20T15:01:45Z</time>
      </trkpt>
      <trkpt lat="48.58106" lon="7.64716">
        <ele>147.99014282</ele>
        <time>2020-09-20T15:01:47Z</time>
      </trkpt>
      <trkpt lat="48.58117" lon="7.64712">
        <ele>147.99014282</ele>
        <time>2020-09-20T15:01:49Z</time>
      </trkpt>
      <trkpt lat="48.58131" lon="7.64711">
        <ele>147.35095215</ele>
        <time>2020-09-20T15:01:51Z</time>
      </trkpt>
      <trkpt lat="48.58139" lon="7.64711">
        <ele>147.35095215</ele>
        <time>2020-09-20T15:01:53Z</time>
      </trkpt>
      <trkpt lat="48.5815" lon="7.6471">
        <ele>147.35095215</ele>
        <time>2020-09-20T15:01:55Z</time>
      </trkpt>
      <trkpt lat="48.58161" lon="7.64709">
        <ele>147.35095215</ele>
        <time>2020-09-20T15:01:57Z</time>
      </trkpt>
      <trkpt lat="48.58173" lon="7.64708">
        <ele>147.35095215</ele>
        <time>2020-09-20T15:01:59Z</time>
      </trkpt>
      <trkpt lat="48.58184" lon="7.64708">
        <ele>147.35095215</ele>
        <time>2020-09-20T15:02:01Z</time>
      </trkpt>
      <trkpt lat="48.58196" lon="7.64708">
        <ele>147.35095215</ele>
        <time>2020-09-20T15:02:03Z</time>
      </trkpt>
      <trkpt lat="48.58205" lon="7.64709">
        <ele>147.35095215</ele>
        <time>2020-09-20T15:02:05Z</time>
      </trkpt>
      <trkpt lat="48.58214" lon="7.64714">
        <ele>147.35095215</ele>
        <time>2020-09-20T15:02:07Z</time>
      </trkpt>
      <trkpt lat="48.58221" lon="7.64729">
        <ele>147.35095215</ele>
        <time>2020-09-20T15:02:09Z</time>
      </trkpt>
      <trkpt lat="48.58218" lon="7.64749">
        <ele>147.35095215</ele>
        <time>2020-09-20T15:02:11Z</time>
      </trkpt>
      <trkpt lat="48.58218" lon="7.64769">
        <ele>147.35095215</ele>
        <time>2020-09-20T15:02:13Z</time>
      </trkpt>
      <trkpt lat="48.58223" lon="7.64786">
        <ele>147.35095215</ele>
        <time>2020-09-20T15:02:15Z</time>
      </trkpt>
      <trkpt lat="48.58226" lon="7.64804">
        <ele>147.35095215</ele>
        <time>2020-09-20T15:02:17Z</time>
      </trkpt>
      <trkpt lat="48.58231" lon="7.64821">
        <ele>147.35095215</ele>
        <time>2020-09-20T15:02:19Z</time>
      </trkpt>
      <trkpt lat="48.58236" lon="7.64839">
        <ele>147.35095215</ele>
        <time>2020-09-20T15:02:21Z</time>
      </trkpt>
      <trkpt lat="48.58241" lon="7.64854">
        <ele>147.35095215</ele>
        <time>2020-09-20T15:02:23Z</time>
      </trkpt>
      <trkpt lat="48.58246" lon="7.64869">
        <ele>147.35095215</ele>
        <time>2020-09-20T15:02:25Z</time>
      </trkpt>
      <trkpt lat="48.58252" lon="7.64884">
        <ele>147.35095215</ele>
        <time>2020-09-20T15:02:27Z</time>
      </trkpt>
      <trkpt lat="48.58257" lon="7.64899">
        <ele>147.35095215</ele>
        <time>2020-09-20T15:02:29Z</time>
      </trkpt>
      <trkpt lat="48.58264" lon="7.64912">
        <ele>147.35095215</ele>
        <time>2020-09-20T15:02:31Z</time>
      </trkpt>
      <trkpt lat="48.58274" lon="7.64915">
        <ele>147.35095215</ele>
        <time>2020-09-20T15:02:33Z</time>
      </trkpt>
      <trkpt lat="48.58289" lon="7.64909">
        <ele>147.35095215</ele>
        <time>2020-09-20T15:02:35Z</time>
      </trkpt>
      <trkpt lat="48.58301" lon="7.64901">
        <ele>147.35095215</ele>
        <time>2020-09-20T15:02:37Z</time>
      </trkpt>
      <trkpt lat="48.58311" lon="7.64892">
        <ele>147.35095215</ele>
        <time>2020-09-20T15:02:39Z</time>
      </trkpt>
      <trkpt lat="48.58321" lon="7.64885">
        <ele>147.35095215</ele>
        <time>2020-09-20T15:02:41Z</time>
      </trkpt>
      <trkpt lat="48.5833" lon="7.64878">
        <ele>147.35095215</ele>
        <time>2020-09-20T15:02:43Z</time>
      </trkpt>
      <trkpt lat="48.58332" lon="7.64863">
        <ele>147.35095215</ele>
        <time>2020-09-20T15:02:45Z</time>
      </trkpt>
      <trkpt lat="48.58327" lon="7.64847">
        <ele>147.35095215</ele>
        <time>2020-09-20T15:02:47Z</time>
      </trkpt>
      <trkpt lat="48.58321" lon="7.64832">
        <ele>147.36759949</ele>
        <time>2020-09-20T15:02:49Z</time>
      </trkpt>
      <trkpt lat="48.58317" lon="7.6482">
        <ele>148.69833374</ele>
        <time>2020-09-20T15:02:52Z</time>
      </trkpt>
      <trkpt lat="48.58314" lon="7.64808">
        <ele>148.69833374</ele>
        <time>2020-09-20T15:02:55Z</time>
      </trkpt>
      <trkpt lat="48.58325" lon="7.64794">
        <ele>148.69833374</ele>
        <time>2020-09-20T15:02:57Z</time>
      </trkpt>
      <trkpt lat="48.58336" lon="7.64791">
        <ele>148.69833374</ele>
        <time>2020-09-20T15:03:00Z</time>
      </trkpt>
      <trkpt lat="48.58349" lon="7.64785">
        <ele>148.69833374</ele>
        <time>2020-09-20T15:03:02Z</time>
      </trkpt>
      <trkpt lat="48.5836" lon="7.64777">
        <ele>148.69833374</ele>
        <time>2020-09-20T15:03:04Z</time>
      </trkpt>
      <trkpt lat="48.58371" lon="7.64774">
        <ele>149.53164673</ele>
        <time>2020-09-20T15:03:06Z</time>
      </trkpt>
      <trkpt lat="48.58385" lon="7.64771">
        <ele>149.53164673</ele>
        <time>2020-09-20T15:03:08Z</time>
      </trkpt>
      <trkpt lat="48.58394" lon="7.64768">
        <ele>150.67436218</ele>
        <time>2020-09-20T15:03:11Z</time>
      </trkpt>
      <trkpt lat="48.58401" lon="7.64771">
        <ele>150.67436218</ele>
        <time>2020-09-20T15:03:15Z</time>
      </trkpt>
      <trkpt lat="48.58402" lon="7.6479">
        <ele>150.67436218</ele>
        <time>2020-09-20T15:03:18Z</time>
      </trkpt>
      <trkpt lat="48.58402" lon="7.64809">
        <ele>150.67436218</ele>
        <time>2020-09-20T15:03:20Z</time>
      </trkpt>
      <trkpt lat="48.58405" lon="7.64822">
        <ele>150.67436218</ele>
        <time>2020-09-20T15:03:22Z</time>
      </trkpt>
      <trkpt lat="48.58411" lon="7.64837">
        <ele>150.706604</ele>
        <time>2020-09-20T15:03:24Z</time>
      </trkpt>
      <trkpt lat="48.58418" lon="7.64852">
        <ele>150.706604</ele>
        <time>2020-09-20T15:03:26Z</time>
      </trkpt>
      <trkpt lat="48.58427" lon="7.64868">
        <ele>150.706604</ele>
        <time>2020-09-20T15:03:28Z</time>
      </trkpt>
      <trkpt lat="48.58432" lon="7.64881">
        <ele>150.706604</ele>
        <time>2020-09-20T15:03:30Z</time>
      </trkpt>
      <trkpt lat="48.58436" lon="7.64898">
        <ele>150.706604</ele>
        <time>2020-09-20T15:03:32Z</time>
      </trkpt>
      <trkpt lat="48.58438" lon="7.64914">
        <ele>149.34065247</ele>
        <time>2020-09-20T15:03:34Z</time>
      </trkpt>
      <trkpt lat="48.58439" lon="7.64931">
        <ele>149.34065247</ele>
        <time>2020-09-20T15:03:36Z</time>
      </trkpt>
      <trkpt lat="48.58439" lon="7.64946">
        <ele>149.34065247</ele>
        <time>2020-09-20T15:03:39Z</time>
      </trkpt>
      <trkpt lat="48.58447" lon="7.64953">
        <ele>149.34065247</ele>
        <time>2020-09-20T15:03:42Z</time>
      </trkpt>
      <trkpt lat="48.58458" lon="7.64948">
        <ele>149.34065247</ele>
        <time>2020-09-20T15:03:43Z</time>
      </trkpt>
      <trkpt lat="48.58464" lon="7.64942">
        <ele>149.34065247</ele>
        <time>2020-09-20T15:03:45Z</time>
      </trkpt>
      <trkpt lat="48.58473" lon="7.64934">
        <ele>149.34065247</ele>
        <time>2020-09-20T15:03:47Z</time>
      </trkpt>
      <trkpt lat="48.58481" lon="7.64928">
        <ele>149.34065247</ele>
        <time>2020-09-20T15:03:49Z</time>
      </trkpt>
      <trkpt lat="48.58492" lon="7.64913">
        <ele>148.49838257</ele>
        <time>2020-09-20T15:03:51Z</time>
      </trkpt>
      <trkpt lat="48.58498" lon="7.64911">
        <ele>148.49838257</ele>
        <time>2020-09-20T15:03:53Z</time>
      </trkpt>
      <trkpt lat="48.58508" lon="7.64906">
        <ele>148.49838257</ele>
        <time>2020-09-20T15:03:56Z</time>
      </trkpt>
      <trkpt lat="48.58519" lon="7.649">
        <ele>149.32382202</ele>
        <time>2020-09-20T15:03:58Z</time>
      </trkpt>
      <trkpt lat="48.58529" lon="7.64895">
        <ele>149.32382202</ele>
        <time>2020-09-20T15:04:01Z</time>
      </trkpt>
      <trkpt lat="48.5854" lon="7.64887">
        <ele>149.32382202</ele>
        <time>2020-09-20T15:04:03Z</time>
      </trkpt>
      <trkpt lat="48.5855" lon="7.64882">
        <ele>149.32382202</ele>
        <time>2020-09-20T15:04:05Z</time>
      </trkpt>
      <trkpt lat="48.58561" lon="7.64881">
        <ele>150.31813049</ele>
        <time>2020-09-20T15:04:08Z</time>
      </trkpt>
      <trkpt lat="48.58574" lon="7.64878">
        <ele>150.31813049</ele>
        <time>2020-09-20T15:04:11Z</time>
      </trkpt>
      <trkpt lat="48.58585" lon="7.64879">
        <ele>150.31813049</ele>
        <time>2020-09-20T15:04:13Z</time>
      </trkpt>
      <trkpt lat="48.58594" lon="7.6488">
        <ele>150.31813049</ele>
        <time>2020-09-20T15:04:15Z</time>
      </trkpt>
      <trkpt lat="48.58604" lon="7.64881">
        <ele>151.29037476</ele>
        <time>2020-09-20T15:04:19Z</time>
      </trkpt>
      <trkpt lat="48.58613" lon="7.64873">
        <ele>151.29037476</ele>
        <time>2020-09-20T15:04:23Z</time>
      </trkpt>
      <trkpt lat="48.58614" lon="7.64854">
        <ele>151.29037476</ele>
        <time>2020-09-20T15:04:25Z</time>
      </trkpt>
      <trkpt lat="48.58612" lon="7.64838">
        <ele>151.29037476</ele>
        <time>2020-09-20T15:04:27Z</time>
      </trkpt>
      <trkpt lat="48.58607" lon="7.64822">
        <ele>151.29037476</ele>
        <time>2020-09-20T15:04:29Z</time>
      </trkpt>
      <trkpt lat="48.58601" lon="7.64808">
        <ele>151.29037476</ele>
        <time>2020-09-20T15:04:31Z</time>
      </trkpt>
      <trkpt lat="48.58598" lon="7.64791">
        <ele>152.45594788</ele>
        <time>2020-09-20T15:04:33Z</time>
      </trkpt>
      <trkpt lat="48.58593" lon="7.64776">
        <ele>152.45594788</ele>
        <time>2020-09-20T15:04:35Z</time>
      </trkpt>
      <trkpt lat="48.58588" lon="7.64759">
        <ele>152.45594788</ele>
        <time>2020-09-20T15:04:37Z</time>
      </trkpt>
      <trkpt lat="48.58584" lon="7.64743">
        <ele>152.45594788</ele>
        <time>2020-09-20T15:04:39Z</time>
      </trkpt>
      <trkpt lat="48.58583" lon="7.64729">
        <ele>152.45594788</ele>
        <time>2020-09-20T15:04:41Z</time>
      </trkpt>
      <trkpt lat="48.5858" lon="7.64711">
        <ele>152.45594788</ele>
        <time>2020-09-20T15:04:44Z</time>
      </trkpt>
      <trkpt lat="48.58576" lon="7.64695">
        <ele>152.45594788</ele>
        <time>2020-09-20T15:04:46Z</time>
      </trkpt>
      <trkpt lat="48.58572" lon="7.6468">
        <ele>152.45594788</ele>
        <time>2020-09-20T15:04:48Z</time>
      </trkpt>
      <trkpt lat="48.5857" lon="7.64664">
        <ele>152.45594788</ele>
        <time>2020-09-20T15:04:50Z</time>
      </trkpt>
      <trkpt lat="48.58567" lon="7.64654">
        <ele>153.03112793</ele>
        <time>2020-09-20T15:04:51Z</time>
      </trkpt>
      <trkpt lat="48.5857" lon="7.64643">
        <ele>153.03112793</ele>
        <time>2020-09-20T15:04:55Z</time>
      </trkpt>
      <trkpt lat="48.58584" lon="7.64631">
        <ele>153.03112793</ele>
        <time>2020-09-20T15:04:57Z</time>
      </trkpt>
      <trkpt lat="48.58595" lon="7.64624">
        <ele>153.03112793</ele>
        <time>2020-09-20T15:04:59Z</time>
      </trkpt>
      <trkpt lat="48.58607" lon="7.64617">
        <ele>153.03112793</ele>
        <time>2020-09-20T15:05:01Z</time>
      </trkpt>
      <trkpt lat="48.58617" lon="7.6461">
        <ele>153.03112793</ele>
        <time>2020-09-20T15:05:03Z</time>
      </trkpt>
      <trkpt lat="48.58627" lon="7.64602">
        <ele>153.03112793</ele>
        <time>2020-09-20T15:05:05Z</time>
      </trkpt>
      <trkpt lat="48.58639" lon="7.64596">
        <ele>153.03112793</ele>
        <time>2020-09-20T15:05:07Z</time>
      </trkpt>
      <trkpt lat="48.58649" lon="7.64588">
        <ele>153.03112793</ele>
        <time>2020-09-20T15:05:09Z</time>
      </trkpt>
      <trkpt lat="48.58658" lon="7.6458">
        <ele>153.03112793</ele>
        <time>2020-09-20T15:05:11Z</time>
      </trkpt>
      <trkpt lat="48.58668" lon="7.64574">
        <ele>153.03112793</ele>
        <time>2020-09-20T15:05:13Z</time>
      </trkpt>
      <trkpt lat="48.5868" lon="7.64563">
        <ele>153.03112793</ele>
        <time>2020-09-20T15:05:15Z</time>
      </trkpt>
      <trkpt lat="48.5869" lon="7.64554">
        <ele>153.03112793</ele>
        <time>2020-09-20T15:05:17Z</time>
      </trkpt>
      <trkpt lat="48.58701" lon="7.64551">
        <ele>153.03112793</ele>
        <time>2020-09-20T15:05:19Z</time>
      </trkpt>
      <trkpt lat="48.58712" lon="7.64547">
        <ele>153.03112793</ele>
        <time>2020-09-20T15:05:21Z</time>
      </trkpt>
      <trkpt lat="48.58722" lon="7.64541">
        <ele>153.03112793</ele>
        <time>2020-09-20T15:05:23Z</time>
      </trkpt>
      <trkpt lat="48.58732" lon="7.64532">
        <ele>153.03112793</ele>
        <time>2020-09-20T15:05:25Z</time>
      </trkpt>
      <trkpt lat="48.58743" lon="7.64526">
        <ele>153.03112793</ele>
        <time>2020-09-20T15:05:27Z</time>
      </trkpt>
      <trkpt lat="48.58754" lon="7.64524">
        <ele>153.03112793</ele>
        <time>2020-09-20T15:05:29Z</time>
      </trkpt>
      <trkpt lat="48.58765" lon="7.64517">
        <ele>153.03112793</ele>
        <time>2020-09-20T15:05:31Z</time>
      </trkpt>
      <trkpt lat="48.58774" lon="7.64508">
        <ele>153.03112793</ele>
        <time>2020-09-20T15:05:33Z</time>
      </trkpt>
      <trkpt lat="48.58782" lon="7.64497">
        <ele>153.03112793</ele>
        <time>2020-09-20T15:05:35Z</time>
      </trkpt>
      <trkpt lat="48.58791" lon="7.64487">
        <ele>153.03112793</ele>
        <time>2020-09-20T15:05:37Z</time>
      </trkpt>
      <trkpt lat="48.58801" lon="7.64478">
        <ele>153.03112793</ele>
        <time>2020-09-20T15:05:39Z</time>
      </trkpt>
      <trkpt lat="48.58812" lon="7.6447">
        <ele>153.03112793</ele>
        <time>2020-09-20T15:05:41Z</time>
      </trkpt>
      <trkpt lat="48.58821" lon="7.64463">
        <ele>153.03112793</ele>
        <time>2020-09-20T15:05:43Z</time>
      </trkpt>
      <trkpt lat="48.58831" lon="7.64455">
        <ele>153.03112793</ele>
        <time>2020-09-20T15:05:45Z</time>
      </trkpt>
      <trkpt lat="48.58842" lon="7.64448">
        <ele>153.03112793</ele>
        <time>2020-09-20T15:05:47Z</time>
      </trkpt>
      <trkpt lat="48.58852" lon="7.6444">
        <ele>153.74867249</ele>
        <time>2020-09-20T15:05:49Z</time>
      </trkpt>
      <trkpt lat="48.58864" lon="7.64434">
        <ele>153.74867249</ele>
        <time>2020-09-20T15:05:51Z</time>
      </trkpt>
      <trkpt lat="48.58866" lon="7.64433">
        <ele>154.78860474</ele>
        <time>2020-09-20T15:05:52Z</time>
      </trkpt>
      <trkpt lat="48.58873" lon="7.64429">
        <ele>154.78860474</ele>
        <time>2020-09-20T15:05:53Z</time>
      </trkpt>
      <trkpt lat="48.58882" lon="7.64422">
        <ele>154.78860474</ele>
        <time>2020-09-20T15:05:56Z</time>
      </trkpt>
      <trkpt lat="48.58891" lon="7.64424">
        <ele>154.78860474</ele>
        <time>2020-09-20T15:05:58Z</time>
      </trkpt>
      <trkpt lat="48.58897" lon="7.64437">
        <ele>154.78860474</ele>
        <time>2020-09-20T15:06:00Z</time>
      </trkpt>
      <trkpt lat="48.58902" lon="7.64454">
        <ele>154.78860474</ele>
        <time>2020-09-20T15:06:02Z</time>
      </trkpt>
      <trkpt lat="48.58905" lon="7.64469">
        <ele>154.78860474</ele>
        <time>2020-09-20T15:06:04Z</time>
      </trkpt>
      <trkpt lat="48.58909" lon="7.64483">
        <ele>154.78860474</ele>
        <time>2020-09-20T15:06:06Z</time>
      </trkpt>
      <trkpt lat="48.58909" lon="7.64497">
        <ele>154.78860474</ele>
        <time>2020-09-20T15:06:09Z</time>
      </trkpt>
      <trkpt lat="48.58911" lon="7.64511">
        <ele>154.78860474</ele>
        <time>2020-09-20T15:06:11Z</time>
      </trkpt>
      <trkpt lat="48.58914" lon="7.64524">
        <ele>154.78860474</ele>
        <time>2020-09-20T15:06:14Z</time>
      </trkpt>
      <trkpt lat="48.58917" lon="7.64539">
        <ele>154.78860474</ele>
        <time>2020-09-20T15:06:17Z</time>
      </trkpt>
      <trkpt lat="48.58922" lon="7.64555">
        <ele>154.78860474</ele>
        <time>2020-09-20T15:06:19Z</time>
      </trkpt>
      <trkpt lat="48.58928" lon="7.64568">
        <ele>154.63192749</ele>
        <time>2020-09-20T15:06:21Z</time>
      </trkpt>
      <trkpt lat="48.58934" lon="7.64581">
        <ele>154.63192749</ele>
        <time>2020-09-20T15:06:23Z</time>
      </trkpt>
      <trkpt lat="48.58939" lon="7.64594">
        <ele>154.63192749</ele>
        <time>2020-09-20T15:06:25Z</time>
      </trkpt>
      <trkpt lat="48.58944" lon="7.64607">
        <ele>154.63192749</ele>
        <time>2020-09-20T15:06:27Z</time>
      </trkpt>
      <trkpt lat="48.58948" lon="7.64619">
        <ele>154.63192749</ele>
        <time>2020-09-20T15:06:29Z</time>
      </trkpt>
      <trkpt lat="48.58952" lon="7.64633">
        <ele>154.63192749</ele>
        <time>2020-09-20T15:06:31Z</time>
      </trkpt>
      <trkpt lat="48.58957" lon="7.64648">
        <ele>154.63192749</ele>
        <time>2020-09-20T15:06:34Z</time>
      </trkpt>
      <trkpt lat="48.58961" lon="7.64665">
        <ele>154.63192749</ele>
        <time>2020-09-20T15:06:36Z</time>
      </trkpt>
      <trkpt lat="48.58965" lon="7.64679">
        <ele>154.63192749</ele>
        <time>2020-09-20T15:06:39Z</time>
      </trkpt>
      <trkpt lat="48.58965" lon="7.64694">
        <ele>154.63192749</ele>
        <time>2020-09-20T15:06:42Z</time>
      </trkpt>
      <trkpt lat="48.5895" lon="7.64697">
        <ele>154.63192749</ele>
        <time>2020-09-20T15:06:44Z</time>
      </trkpt>
      <trkpt lat="48.58938" lon="7.64702">
        <ele>154.63192749</ele>
        <time>2020-09-20T15:06:46Z</time>
      </trkpt>
      <trkpt lat="48.58926" lon="7.64705">
        <ele>154.63192749</ele>
        <time>2020-09-20T15:06:48Z</time>
      </trkpt>
      <trkpt lat="48.58916" lon="7.64709">
        <ele>154.63192749</ele>
        <time>2020-09-20T15:06:50Z</time>
      </trkpt>
      <trkpt lat="48.58908" lon="7.64712">
        <ele>153.79830933</ele>
        <time>2020-09-20T15:06:51Z</time>
      </trkpt>
      <trkpt lat="48.58899" lon="7.64716">
        <ele>153.79830933</ele>
        <time>2020-09-20T15:06:53Z</time>
      </trkpt>
      <trkpt lat="48.58888" lon="7.64721">
        <ele>153.79830933</ele>
        <time>2020-09-20T15:06:55Z</time>
      </trkpt>
      <trkpt lat="48.58876" lon="7.64726">
        <ele>153.79830933</ele>
        <time>2020-09-20T15:06:57Z</time>
      </trkpt>
      <trkpt lat="48.58865" lon="7.6473">
        <ele>153.79830933</ele>
        <time>2020-09-20T15:06:59Z</time>
      </trkpt>
      <trkpt lat="48.58854" lon="7.64734">
        <ele>153.79830933</ele>
        <time>2020-09-20T15:07:01Z</time>
      </trkpt>
      <trkpt lat="48.58844" lon="7.6474">
        <ele>153.79830933</ele>
        <time>2020-09-20T15:07:03Z</time>
      </trkpt>
      <trkpt lat="48.58834" lon="7.64749">
        <ele>153.79830933</ele>
        <time>2020-09-20T15:07:05Z</time>
      </trkpt>
      <trkpt lat="48.58824" lon="7.64759">
        <ele>153.79830933</ele>
        <time>2020-09-20T15:07:07Z</time>
      </trkpt>
      <trkpt lat="48.58814" lon="7.6477">
        <ele>153.79830933</ele>
        <time>2020-09-20T15:07:09Z</time>
      </trkpt>
      <trkpt lat="48.58804" lon="7.64777">
        <ele>153.79830933</ele>
        <time>2020-09-20T15:07:11Z</time>
      </trkpt>
      <trkpt lat="48.58796" lon="7.64782">
        <ele>153.79830933</ele>
        <time>2020-09-20T15:07:13Z</time>
      </trkpt>
      <trkpt lat="48.58786" lon="7.64789">
        <ele>153.79830933</ele>
        <time>2020-09-20T15:07:16Z</time>
      </trkpt>
      <trkpt lat="48.58778" lon="7.648">
        <ele>153.79830933</ele>
        <time>2020-09-20T15:07:19Z</time>
      </trkpt>
      <trkpt lat="48.58775" lon="7.64814">
        <ele>153.79830933</ele>
        <time>2020-09-20T15:07:21Z</time>
      </trkpt>
      <trkpt lat="48.58781" lon="7.6483">
        <ele>153.79830933</ele>
        <time>2020-09-20T15:07:23Z</time>
      </trkpt>
      <trkpt lat="48.58791" lon="7.64848">
        <ele>153.79830933</ele>
        <time>2020-09-20T15:07:25Z</time>
      </trkpt>
      <trkpt lat="48.58799" lon="7.64865">
        <ele>154.03341675</ele>
        <time>2020-09-20T15:07:27Z</time>
      </trkpt>
      <trkpt lat="48.58805" lon="7.64881">
        <ele>154.03341675</ele>
        <time>2020-09-20T15:07:29Z</time>
      </trkpt>
      <trkpt lat="48.58809" lon="7.64895">
        <ele>154.03341675</ele>
        <time>2020-09-20T15:07:31Z</time>
      </trkpt>
      <trkpt lat="48.58811" lon="7.64909">
        <ele>154.03341675</ele>
        <time>2020-09-20T15:07:33Z</time>
      </trkpt>
      <trkpt lat="48.58814" lon="7.64923">
        <ele>154.03341675</ele>
        <time>2020-09-20T15:07:35Z</time>
      </trkpt>
      <trkpt lat="48.58817" lon="7.64941">
        <ele>154.03341675</ele>
        <time>2020-09-20T15:07:37Z</time>
      </trkpt>
      <trkpt lat="48.5882" lon="7.64959">
        <ele>154.03341675</ele>
        <time>2020-09-20T15:07:39Z</time>
      </trkpt>
      <trkpt lat="48.58823" lon="7.64978">
        <ele>154.03341675</ele>
        <time>2020-09-20T15:07:41Z</time>
      </trkpt>
      <trkpt lat="48.58825" lon="7.64995">
        <ele>154.03341675</ele>
        <time>2020-09-20T15:07:43Z</time>
      </trkpt>
      <trkpt lat="48.58828" lon="7.65016">
        <ele>154.03341675</ele>
        <time>2020-09-20T15:07:45Z</time>
      </trkpt>
      <trkpt lat="48.58831" lon="7.6503">
        <ele>154.03341675</ele>
        <time>2020-09-20T15:07:47Z</time>
      </trkpt>
      <trkpt lat="48.58836" lon="7.65046">
        <ele>154.03341675</ele>
        <time>2020-09-20T15:07:49Z</time>
      </trkpt>
      <trkpt lat="48.58838" lon="7.65066">
        <ele>152.79954529</ele>
        <time>2020-09-20T15:07:51Z</time>
      </trkpt>
      <trkpt lat="48.58841" lon="7.65078">
        <ele>152.79954529</ele>
        <time>2020-09-20T15:07:53Z</time>
      </trkpt>
      <trkpt lat="48.58845" lon="7.65096">
        <ele>152.79954529</ele>
        <time>2020-09-20T15:07:55Z</time>
      </trkpt>
      <trkpt lat="48.58846" lon="7.65113">
        <ele>152.79954529</ele>
        <time>2020-09-20T15:07:57Z</time>
      </trkpt>
      <trkpt lat="48.58849" lon="7.6513">
        <ele>152.79954529</ele>
        <time>2020-09-20T15:08:00Z</time>
      </trkpt>
      <trkpt lat="48.58849" lon="7.65146">
        <ele>152.79954529</ele>
        <time>2020-09-20T15:08:02Z</time>
      </trkpt>
      <trkpt lat="48.58839" lon="7.65156">
        <ele>152.79954529</ele>
        <time>2020-09-20T15:08:04Z</time>
      </trkpt>
      <trkpt lat="48.58823" lon="7.65157">
        <ele>152.79954529</ele>
        <time>2020-09-20T15:08:06Z</time>
      </trkpt>
      <trkpt lat="48.5881" lon="7.65159">
        <ele>152.79954529</ele>
        <time>2020-09-20T15:08:08Z</time>
      </trkpt>
      <trkpt lat="48.58799" lon="7.65161">
        <ele>152.79954529</ele>
        <time>2020-09-20T15:08:10Z</time>
      </trkpt>
      <trkpt lat="48.58787" lon="7.65164">
        <ele>152.79954529</ele>
        <time>2020-09-20T15:08:12Z</time>
      </trkpt>
      <trkpt lat="48.58775" lon="7.65168">
        <ele>152.79954529</ele>
        <time>2020-09-20T15:08:14Z</time>
      </trkpt>
      <trkpt lat="48.58764" lon="7.65173">
        <ele>152.79954529</ele>
        <time>2020-09-20T15:08:16Z</time>
      </trkpt>
      <trkpt lat="48.58752" lon="7.65177">
        <ele>152.79954529</ele>
        <time>2020-09-20T15:08:18Z</time>
      </trkpt>
      <trkpt lat="48.58741" lon="7.65182">
        <ele>152.79954529</ele>
        <time>2020-09-20T15:08:20Z</time>
      </trkpt>
      <trkpt lat="48.58729" lon="7.65188">
        <ele>152.79954529</ele>
        <time>2020-09-20T15:08:22Z</time>
      </trkpt>
      <trkpt lat="48.58717" lon="7.65191">
        <ele>152.79954529</ele>
        <time>2020-09-20T15:08:24Z</time>
      </trkpt>
      <trkpt lat="48.58706" lon="7.65192">
        <ele>152.79954529</ele>
        <time>2020-09-20T15:08:26Z</time>
      </trkpt>
      <trkpt lat="48.58695" lon="7.65194">
        <ele>152.79954529</ele>
        <time>2020-09-20T15:08:28Z</time>
      </trkpt>
      <trkpt lat="48.58684" lon="7.65198">
        <ele>152.79954529</ele>
        <time>2020-09-20T15:08:31Z</time>
      </trkpt>
      <trkpt lat="48.58678" lon="7.65192">
        <ele>152.79954529</ele>
        <time>2020-09-20T15:08:34Z</time>
      </trkpt>
      <trkpt lat="48.58678" lon="7.65173">
        <ele>152.79954529</ele>
        <time>2020-09-20T15:08:36Z</time>
      </trkpt>
      <trkpt lat="48.58679" lon="7.65154">
        <ele>152.79954529</ele>
        <time>2020-09-20T15:08:38Z</time>
      </trkpt>
      <trkpt lat="48.58678" lon="7.65138">
        <ele>152.79954529</ele>
        <time>2020-09-20T15:08:40Z</time>
      </trkpt>
      <trkpt lat="48.58677" lon="7.65122">
        <ele>152.79954529</ele>
        <time>2020-09-20T15:08:42Z</time>
      </trkpt>
      <trkpt lat="48.58674" lon="7.65107">
        <ele>152.79954529</ele>
        <time>2020-09-20T15:08:44Z</time>
      </trkpt>
      <trkpt lat="48.58673" lon="7.65091">
        <ele>152.79954529</ele>
        <time>2020-09-20T15:08:46Z</time>
      </trkpt>
      <trkpt lat="48.5867" lon="7.65071">
        <ele>152.66392517</ele>
        <time>2020-09-20T15:08:48Z</time>
      </trkpt>
      <trkpt lat="48.5867" lon="7.65051">
        <ele>152.66392517</ele>
        <time>2020-09-20T15:08:50Z</time>
      </trkpt>
      <trkpt lat="48.58667" lon="7.65038">
        <ele>151.75921631</ele>
        <time>2020-09-20T15:08:52Z</time>
      </trkpt>
      <trkpt lat="48.58666" lon="7.65025">
        <ele>151.75921631</ele>
        <time>2020-09-20T15:08:54Z</time>
      </trkpt>
      <trkpt lat="48.58661" lon="7.65005">
        <ele>151.75921631</ele>
        <time>2020-09-20T15:08:56Z</time>
      </trkpt>
      <trkpt lat="48.58655" lon="7.6499">
        <ele>151.75921631</ele>
        <time>2020-09-20T15:08:58Z</time>
      </trkpt>
      <trkpt lat="48.58649" lon="7.64974">
        <ele>151.75921631</ele>
        <time>2020-09-20T15:09:00Z</time>
      </trkpt>
      <trkpt lat="48.58643" lon="7.64959">
        <ele>151.75921631</ele>
        <time>2020-09-20T15:09:02Z</time>
      </trkpt>
      <trkpt lat="48.58635" lon="7.64942">
        <ele>151.75921631</ele>
        <time>2020-09-20T15:09:04Z</time>
      </trkpt>
      <trkpt lat="48.58626" lon="7.64928">
        <ele>151.75921631</ele>
        <time>2020-09-20T15:09:06Z</time>
      </trkpt>
      <trkpt lat="48.58618" lon="7.64913">
        <ele>151.75921631</ele>
        <time>2020-09-20T15:09:08Z</time>
      </trkpt>
      <trkpt lat="48.58614" lon="7.64898">
        <ele>151.75921631</ele>
        <time>2020-09-20T15:09:10Z</time>
      </trkpt>
      <trkpt lat="48.58619" lon="7.64884">
        <ele>151.75921631</ele>
        <time>2020-09-20T15:09:12Z</time>
      </trkpt>
      <trkpt lat="48.58624" lon="7.64871">
        <ele>151.75921631</ele>
        <time>2020-09-20T15:09:14Z</time>
      </trkpt>
      <trkpt lat="48.58632" lon="7.64869">
        <ele>151.75921631</ele>
        <time>2020-09-20T15:09:18Z</time>
      </trkpt>
      <trkpt lat="48.58641" lon="7.64867">
        <ele>152.11981201</ele>
        <time>2020-09-20T15:09:21Z</time>
      </trkpt>
      <trkpt lat="48.58653" lon="7.64873">
        <ele>152.11981201</ele>
        <time>2020-09-20T15:09:24Z</time>
      </trkpt>
      <trkpt lat="48.58656" lon="7.64878">
        <ele>153.522995</ele>
        <time>2020-09-20T15:10:10Z</time>
      </trkpt>
    </trkseg>
  </trk>
</gpx>